<?xml version='1.0' encoding='UTF-8'?><gpx version="1.1" creator="JPX - https://github.com/jenetics/jpx" xmlns="http://www.topografix.com/GPX/1/1"><trk><trkseg><trkpt lat="44.7716667" lon="10.77733"><ele>36.0</ele><time>2026-04-19T07:38:05.989Z</time></trkpt><trkpt lat="44.77161" lon="10.77725"><ele>36.0</ele><time>2026-04-19T07:38:07.989Z</time></trkpt><trkpt lat="44.7715683" lon="10.7771617"><ele>36.0</ele><time>2026-04-19T07:38:09.989Z</time></trkpt><trkpt lat="44.7715367" lon="10.7770117"><ele>36.0</ele><time>2026-04-19T07:38:10.989Z</time></trkpt><trkpt lat="44.77151" lon="10.7769283"><ele>36.0</ele><time>2026-04-19T07:38:11.989Z</time></trkpt><trkpt lat="44.7714667" lon="10.77681"><ele>36.0</ele><time>2026-04-19T07:38:13.989Z</time></trkpt><trkpt lat="44.7713883" lon="10.776645"><ele>35.5</ele><time>2026-04-19T07:38:15.989Z</time></trkpt><trkpt lat="44.7713283" lon="10.7765317"><ele>35.0</ele><time>2026-04-19T07:38:16.989Z</time></trkpt><trkpt lat="44.7712533" lon="10.77636"><ele>34.5</ele><time>2026-04-19T07:38:17.989Z</time></trkpt><trkpt lat="44.77118" lon="10.7762167"><ele>34.0</ele><time>2026-04-19T07:38:18.989Z</time></trkpt><trkpt lat="44.7711117" lon="10.7760967"><ele>34.0</ele><time>2026-04-19T07:38:19.989Z</time></trkpt><trkpt lat="44.7710517" lon="10.776005"><ele>34.0</ele><time>2026-04-19T07:38:20.989Z</time></trkpt><trkpt lat="44.771" lon="10.7759167"><ele>34.0</ele><time>2026-04-19T07:38:21.989Z</time></trkpt><trkpt lat="44.7709517" lon="10.775835"><ele>34.0</ele><time>2026-04-19T07:38:22.989Z</time></trkpt><trkpt lat="44.7709117" lon="10.77576"><ele>34.0</ele><time>2026-04-19T07:38:23.989Z</time></trkpt><trkpt lat="44.770855" lon="10.7756467"><ele>34.0</ele><time>2026-04-19T07:38:25.989Z</time></trkpt><trkpt lat="44.770835" lon="10.77556"><ele>34.0</ele><time>2026-04-19T07:38:27.989Z</time></trkpt><trkpt lat="44.770875" lon="10.77548"><ele>34.0</ele><time>2026-04-19T07:38:31.989Z</time></trkpt><trkpt lat="44.7709383" lon="10.7753917"><ele>34.0</ele><time>2026-04-19T07:38:34.99Z</time></trkpt><trkpt lat="44.7710283" lon="10.775365"><ele>34.0</ele><time>2026-04-19T07:38:36.989Z</time></trkpt><trkpt lat="44.771135" lon="10.775385"><ele>34.0</ele><time>2026-04-19T07:38:38.989Z</time></trkpt><trkpt lat="44.7712167" lon="10.7753783"><ele>34.0</ele><time>2026-04-19T07:38:40.989Z</time></trkpt><trkpt lat="44.7712667" lon="10.7753117"><ele>33.8</ele><time>2026-04-19T07:38:42.989Z</time></trkpt><trkpt lat="44.771305" lon="10.7752067"><ele>33.599999999999994</ele><time>2026-04-19T07:38:44.989Z</time></trkpt><trkpt lat="44.7713433" lon="10.77507"><ele>33.4</ele><time>2026-04-19T07:38:46.989Z</time></trkpt><trkpt lat="44.7713833" lon="10.77494"><ele>33.199999999999996</ele><time>2026-04-19T07:38:48.989Z</time></trkpt><trkpt lat="44.7714417" lon="10.7748333"><ele>33.0</ele><time>2026-04-19T07:38:50.989Z</time></trkpt><trkpt lat="44.7715033" lon="10.77476"><ele>33.0</ele><time>2026-04-19T07:38:52.989Z</time></trkpt><trkpt lat="44.77158" lon="10.77469"><ele>33.0</ele><time>2026-04-19T07:38:54.989Z</time></trkpt><trkpt lat="44.77164" lon="10.7746333"><ele>33.0</ele><time>2026-04-19T07:38:56.989Z</time></trkpt><trkpt lat="44.7716683" lon="10.7745283"><ele>33.0</ele><time>2026-04-19T07:38:59.989Z</time></trkpt><trkpt lat="44.771715" lon="10.7744"><ele>33.0</ele><time>2026-04-19T07:43:42.989Z</time></trkpt><trkpt lat="44.77172" lon="10.7742983"><ele>33.0</ele><time>2026-04-19T07:43:44.989Z</time></trkpt><trkpt lat="44.7717117" lon="10.7741817"><ele>32.8</ele><time>2026-04-19T07:44:03.99Z</time></trkpt><trkpt lat="44.7717533" lon="10.7740483"><ele>32.599999999999994</ele><time>2026-04-19T07:44:05.989Z</time></trkpt><trkpt lat="44.7718033" lon="10.7739283"><ele>32.400000000000006</ele><time>2026-04-19T07:44:06.989Z</time></trkpt><trkpt lat="44.771865" lon="10.7737967"><ele>32.2</ele><time>2026-04-19T07:44:07.989Z</time></trkpt><trkpt lat="44.7719317" lon="10.7736433"><ele>32.0</ele><time>2026-04-19T07:44:08.989Z</time></trkpt><trkpt lat="44.772" lon="10.7734617"><ele>32.666666666666664</ele><time>2026-04-19T07:44:09.99Z</time></trkpt><trkpt lat="44.7720683" lon="10.7732583"><ele>33.333333333333336</ele><time>2026-04-19T07:44:10.989Z</time></trkpt><trkpt lat="44.7721317" lon="10.7730333"><ele>34.0</ele><time>2026-04-19T07:44:11.989Z</time></trkpt><trkpt lat="44.7721833" lon="10.77282"><ele>34.0</ele><time>2026-04-19T07:44:12.989Z</time></trkpt><trkpt lat="44.7722267" lon="10.77262"><ele>34.0</ele><time>2026-04-19T07:44:13.989Z</time></trkpt><trkpt lat="44.77227" lon="10.772425"><ele>34.0</ele><time>2026-04-19T07:44:14.989Z</time></trkpt><trkpt lat="44.772305" lon="10.7722333"><ele>34.0</ele><time>2026-04-19T07:44:15.989Z</time></trkpt><trkpt lat="44.7723417" lon="10.77205"><ele>34.0</ele><time>2026-04-19T07:44:16.989Z</time></trkpt><trkpt lat="44.772355" lon="10.771865"><ele>34.0</ele><time>2026-04-19T07:44:17.989Z</time></trkpt><trkpt lat="44.7723583" lon="10.7716617"><ele>34.0</ele><time>2026-04-19T07:44:18.989Z</time></trkpt><trkpt lat="44.7723467" lon="10.7714583"><ele>34.0</ele><time>2026-04-19T07:44:19.989Z</time></trkpt><trkpt lat="44.772325" lon="10.7712717"><ele>34.0</ele><time>2026-04-19T07:44:20.989Z</time></trkpt><trkpt lat="44.7723067" lon="10.771075"><ele>34.0</ele><time>2026-04-19T07:44:21.989Z</time></trkpt><trkpt lat="44.77229" lon="10.7708783"><ele>34.0</ele><time>2026-04-19T07:44:22.989Z</time></trkpt><trkpt lat="44.7722733" lon="10.770675"><ele>34.0</ele><time>2026-04-19T07:44:23.989Z</time></trkpt><trkpt lat="44.7722533" lon="10.7704667"><ele>34.0</ele><time>2026-04-19T07:44:24.989Z</time></trkpt><trkpt lat="44.772235" lon="10.7702433"><ele>34.0</ele><time>2026-04-19T07:44:25.989Z</time></trkpt><trkpt lat="44.7722183" lon="10.7700133"><ele>34.0</ele><time>2026-04-19T07:44:26.989Z</time></trkpt><trkpt lat="44.7721933" lon="10.7698"><ele>33.75</ele><time>2026-04-19T07:44:27.989Z</time></trkpt><trkpt lat="44.7721833" lon="10.769605"><ele>33.5</ele><time>2026-04-19T07:44:28.989Z</time></trkpt><trkpt lat="44.7721633" lon="10.7694267"><ele>33.25</ele><time>2026-04-19T07:44:29.989Z</time></trkpt><trkpt lat="44.7721467" lon="10.7692617"><ele>33.0</ele><time>2026-04-19T07:44:30.989Z</time></trkpt><trkpt lat="44.7721283" lon="10.7691117"><ele>33.0</ele><time>2026-04-19T07:44:31.989Z</time></trkpt><trkpt lat="44.7721117" lon="10.7689983"><ele>33.0</ele><time>2026-04-19T07:44:32.989Z</time></trkpt><trkpt lat="44.7720917" lon="10.76889"><ele>33.0</ele><time>2026-04-19T07:44:33.989Z</time></trkpt><trkpt lat="44.7720917" lon="10.7687917"><ele>33.0</ele><time>2026-04-19T07:44:34.989Z</time></trkpt><trkpt lat="44.7721067" lon="10.768685"><ele>33.0</ele><time>2026-04-19T07:44:35.989Z</time></trkpt><trkpt lat="44.772145" lon="10.7685583"><ele>33.0</ele><time>2026-04-19T07:44:36.99Z</time></trkpt><trkpt lat="44.7722083" lon="10.768415"><ele>32.75</ele><time>2026-04-19T07:44:37.989Z</time></trkpt><trkpt lat="44.7722917" lon="10.7682583"><ele>32.5</ele><time>2026-04-19T07:44:38.989Z</time></trkpt><trkpt lat="44.7723733" lon="10.7681"><ele>32.25</ele><time>2026-04-19T07:44:39.989Z</time></trkpt><trkpt lat="44.7724583" lon="10.7679383"><ele>32.0</ele><time>2026-04-19T07:44:40.989Z</time></trkpt><trkpt lat="44.7725433" lon="10.76778"><ele>31.5</ele><time>2026-04-19T07:44:41.989Z</time></trkpt><trkpt lat="44.77262" lon="10.7676233"><ele>31.0</ele><time>2026-04-19T07:44:42.989Z</time></trkpt><trkpt lat="44.7727" lon="10.7674733"><ele>30.5</ele><time>2026-04-19T07:44:43.989Z</time></trkpt><trkpt lat="44.7727783" lon="10.76733"><ele>30.0</ele><time>2026-04-19T07:44:44.989Z</time></trkpt><trkpt lat="44.7728617" lon="10.7671733"><ele>30.0</ele><time>2026-04-19T07:44:45.989Z</time></trkpt><trkpt lat="44.7729467" lon="10.7670083"><ele>30.0</ele><time>2026-04-19T07:44:46.989Z</time></trkpt><trkpt lat="44.7730367" lon="10.7668383"><ele>30.0</ele><time>2026-04-19T07:44:47.989Z</time></trkpt><trkpt lat="44.7731267" lon="10.7666667"><ele>30.0</ele><time>2026-04-19T07:44:48.989Z</time></trkpt><trkpt lat="44.7732233" lon="10.7664917"><ele>30.0</ele><time>2026-04-19T07:44:49.989Z</time></trkpt><trkpt lat="44.7733217" lon="10.7663133"><ele>30.0</ele><time>2026-04-19T07:44:50.989Z</time></trkpt><trkpt lat="44.7734183" lon="10.766135"><ele>30.0</ele><time>2026-04-19T07:44:51.989Z</time></trkpt><trkpt lat="44.773515" lon="10.7659517"><ele>30.333333333333336</ele><time>2026-04-19T07:44:52.989Z</time></trkpt><trkpt lat="44.7736117" lon="10.765765"><ele>30.666666666666668</ele><time>2026-04-19T07:44:53.989Z</time></trkpt><trkpt lat="44.77371" lon="10.7655683"><ele>31.0</ele><time>2026-04-19T07:44:54.989Z</time></trkpt><trkpt lat="44.773805" lon="10.7653633"><ele>30.0</ele><time>2026-04-19T07:44:55.989Z</time></trkpt><trkpt lat="44.7739117" lon="10.765155"><ele>29.0</ele><time>2026-04-19T07:44:56.989Z</time></trkpt><trkpt lat="44.7740167" lon="10.7649417"><ele>28.0</ele><time>2026-04-19T07:44:57.989Z</time></trkpt><trkpt lat="44.7741217" lon="10.76473"><ele>28.0</ele><time>2026-04-19T07:44:58.989Z</time></trkpt><trkpt lat="44.7742283" lon="10.76451"><ele>28.0</ele><time>2026-04-19T07:44:59.989Z</time></trkpt><trkpt lat="44.7743383" lon="10.764285"><ele>28.0</ele><time>2026-04-19T07:45:00.989Z</time></trkpt><trkpt lat="44.7744517" lon="10.7640567"><ele>28.666666666666668</ele><time>2026-04-19T07:45:01.989Z</time></trkpt><trkpt lat="44.7745583" lon="10.7638333"><ele>29.333333333333336</ele><time>2026-04-19T07:45:02.989Z</time></trkpt><trkpt lat="44.7746667" lon="10.763605"><ele>30.0</ele><time>2026-04-19T07:45:03.989Z</time></trkpt><trkpt lat="44.774765" lon="10.7633833"><ele>30.0</ele><time>2026-04-19T07:45:04.989Z</time></trkpt><trkpt lat="44.7748633" lon="10.763155"><ele>30.0</ele><time>2026-04-19T07:45:05.989Z</time></trkpt><trkpt lat="44.7749617" lon="10.76294"><ele>30.0</ele><time>2026-04-19T07:45:06.989Z</time></trkpt><trkpt lat="44.775065" lon="10.7627283"><ele>29.666666666666664</ele><time>2026-04-19T07:45:07.989Z</time></trkpt><trkpt lat="44.7751767" lon="10.7625067"><ele>29.333333333333332</ele><time>2026-04-19T07:45:08.989Z</time></trkpt><trkpt lat="44.7752933" lon="10.7622817"><ele>29.0</ele><time>2026-04-19T07:45:09.989Z</time></trkpt><trkpt lat="44.775395" lon="10.7620517"><ele>29.333333333333332</ele><time>2026-04-19T07:45:10.989Z</time></trkpt><trkpt lat="44.7754833" lon="10.7618233"><ele>29.666666666666664</ele><time>2026-04-19T07:45:11.989Z</time></trkpt><trkpt lat="44.7755533" lon="10.7616017"><ele>30.0</ele><time>2026-04-19T07:45:12.989Z</time></trkpt><trkpt lat="44.7756133" lon="10.7613817"><ele>30.0</ele><time>2026-04-19T07:45:13.989Z</time></trkpt><trkpt lat="44.775665" lon="10.7611617"><ele>30.0</ele><time>2026-04-19T07:45:14.989Z</time></trkpt><trkpt lat="44.775725" lon="10.760935"><ele>30.0</ele><time>2026-04-19T07:45:15.989Z</time></trkpt><trkpt lat="44.7757717" lon="10.760705"><ele>30.0</ele><time>2026-04-19T07:45:16.989Z</time></trkpt><trkpt lat="44.7758117" lon="10.7604783"><ele>30.0</ele><time>2026-04-19T07:45:17.989Z</time></trkpt><trkpt lat="44.7758417" lon="10.7602667"><ele>30.0</ele><time>2026-04-19T07:45:18.989Z</time></trkpt><trkpt lat="44.7758633" lon="10.7600567"><ele>30.0</ele><time>2026-04-19T07:45:19.989Z</time></trkpt><trkpt lat="44.77588" lon="10.7598283"><ele>30.0</ele><time>2026-04-19T07:45:20.989Z</time></trkpt><trkpt lat="44.7758933" lon="10.759595"><ele>30.0</ele><time>2026-04-19T07:45:21.989Z</time></trkpt><trkpt lat="44.7759033" lon="10.7593683"><ele>30.0</ele><time>2026-04-19T07:45:22.989Z</time></trkpt><trkpt lat="44.7759167" lon="10.7591517"><ele>30.0</ele><time>2026-04-19T07:45:23.989Z</time></trkpt><trkpt lat="44.7759317" lon="10.7589483"><ele>30.0</ele><time>2026-04-19T07:45:24.989Z</time></trkpt><trkpt lat="44.7759433" lon="10.75875"><ele>30.0</ele><time>2026-04-19T07:45:25.989Z</time></trkpt><trkpt lat="44.7759517" lon="10.758545"><ele>30.0</ele><time>2026-04-19T07:45:26.989Z</time></trkpt><trkpt lat="44.775965" lon="10.7583383"><ele>30.0</ele><time>2026-04-19T07:45:27.989Z</time></trkpt><trkpt lat="44.77598" lon="10.7581383"><ele>30.0</ele><time>2026-04-19T07:45:28.989Z</time></trkpt><trkpt lat="44.7759917" lon="10.7579467"><ele>30.0</ele><time>2026-04-19T07:45:29.989Z</time></trkpt><trkpt lat="44.775995" lon="10.757745"><ele>30.0</ele><time>2026-04-19T07:45:30.988Z</time></trkpt><trkpt lat="44.7760083" lon="10.7575433"><ele>30.0</ele><time>2026-04-19T07:45:31.989Z</time></trkpt><trkpt lat="44.7760167" lon="10.7573633"><ele>30.0</ele><time>2026-04-19T07:45:32.989Z</time></trkpt><trkpt lat="44.7760267" lon="10.7572"><ele>30.0</ele><time>2026-04-19T07:45:33.989Z</time></trkpt><trkpt lat="44.776035" lon="10.757045"><ele>29.8</ele><time>2026-04-19T07:45:34.989Z</time></trkpt><trkpt lat="44.77604" lon="10.756915"><ele>29.6</ele><time>2026-04-19T07:45:35.989Z</time></trkpt><trkpt lat="44.77604" lon="10.7567933"><ele>29.4</ele><time>2026-04-19T07:45:36.989Z</time></trkpt><trkpt lat="44.7760383" lon="10.7566867"><ele>29.2</ele><time>2026-04-19T07:45:37.989Z</time></trkpt><trkpt lat="44.7760467" lon="10.75652"><ele>29.0</ele><time>2026-04-19T07:45:39.989Z</time></trkpt><trkpt lat="44.7760467" lon="10.7563533"><ele>29.0</ele><time>2026-04-19T07:45:41.989Z</time></trkpt><trkpt lat="44.7760483" lon="10.75619"><ele>29.0</ele><time>2026-04-19T07:45:43.989Z</time></trkpt><trkpt lat="44.7760017" lon="10.75606"><ele>29.0</ele><time>2026-04-19T07:45:45.989Z</time></trkpt><trkpt lat="44.775885" lon="10.75604"><ele>29.0</ele><time>2026-04-19T07:45:47.989Z</time></trkpt><trkpt lat="44.775815" lon="10.756085"><ele>29.0</ele><time>2026-04-19T07:45:48.989Z</time></trkpt><trkpt lat="44.7757483" lon="10.7561583"><ele>28.999999999999996</ele><time>2026-04-19T07:45:49.989Z</time></trkpt><trkpt lat="44.7756783" lon="10.75622"><ele>29.0</ele><time>2026-04-19T07:45:50.99Z</time></trkpt><trkpt lat="44.7756117" lon="10.756265"><ele>29.0</ele><time>2026-04-19T07:45:51.989Z</time></trkpt><trkpt lat="44.7755417" lon="10.75627"><ele>29.0</ele><time>2026-04-19T07:45:52.989Z</time></trkpt><trkpt lat="44.7754633" lon="10.7562267"><ele>28.999999999999996</ele><time>2026-04-19T07:45:53.989Z</time></trkpt><trkpt lat="44.7754017" lon="10.756135"><ele>29.0</ele><time>2026-04-19T07:45:54.989Z</time></trkpt><trkpt lat="44.7753667" lon="10.7559867"><ele>29.0</ele><time>2026-04-19T07:45:55.989Z</time></trkpt><trkpt lat="44.77535" lon="10.7558067"><ele>29.0</ele><time>2026-04-19T07:45:56.989Z</time></trkpt><trkpt lat="44.775335" lon="10.75562"><ele>29.0</ele><time>2026-04-19T07:45:57.989Z</time></trkpt><trkpt lat="44.7753167" lon="10.75546"><ele>29.0</ele><time>2026-04-19T07:45:58.989Z</time></trkpt><trkpt lat="44.7752983" lon="10.755285"><ele>29.5</ele><time>2026-04-19T07:45:59.989Z</time></trkpt><trkpt lat="44.77529" lon="10.7551033"><ele>30.0</ele><time>2026-04-19T07:46:00.989Z</time></trkpt><trkpt lat="44.7752933" lon="10.7549167"><ele>30.5</ele><time>2026-04-19T07:46:01.989Z</time></trkpt><trkpt lat="44.7752917" lon="10.7547167"><ele>31.0</ele><time>2026-04-19T07:46:02.989Z</time></trkpt><trkpt lat="44.7752983" lon="10.7545017"><ele>30.333333333333336</ele><time>2026-04-19T07:46:03.989Z</time></trkpt><trkpt lat="44.775315" lon="10.7542633"><ele>29.666666666666664</ele><time>2026-04-19T07:46:04.989Z</time></trkpt><trkpt lat="44.7753233" lon="10.7540067"><ele>29.0</ele><time>2026-04-19T07:46:05.989Z</time></trkpt><trkpt lat="44.7753267" lon="10.753765"><ele>29.333333333333332</ele><time>2026-04-19T07:46:06.989Z</time></trkpt><trkpt lat="44.775315" lon="10.753535"><ele>29.666666666666664</ele><time>2026-04-19T07:46:07.989Z</time></trkpt><trkpt lat="44.775295" lon="10.753305"><ele>30.0</ele><time>2026-04-19T07:46:08.989Z</time></trkpt><trkpt lat="44.7752817" lon="10.75309"><ele>30.0</ele><time>2026-04-19T07:46:09.99Z</time></trkpt><trkpt lat="44.7752533" lon="10.7528717"><ele>30.0</ele><time>2026-04-19T07:46:10.989Z</time></trkpt><trkpt lat="44.7752167" lon="10.7526583"><ele>30.0</ele><time>2026-04-19T07:46:11.989Z</time></trkpt><trkpt lat="44.77518" lon="10.7524433"><ele>30.0</ele><time>2026-04-19T07:46:12.989Z</time></trkpt><trkpt lat="44.775155" lon="10.752225"><ele>30.0</ele><time>2026-04-19T07:46:13.989Z</time></trkpt><trkpt lat="44.775135" lon="10.752015"><ele>30.0</ele><time>2026-04-19T07:46:14.989Z</time></trkpt><trkpt lat="44.7751333" lon="10.75178"><ele>30.0</ele><time>2026-04-19T07:46:15.989Z</time></trkpt><trkpt lat="44.775145" lon="10.7515467"><ele>30.0</ele><time>2026-04-19T07:46:16.989Z</time></trkpt><trkpt lat="44.7751933" lon="10.7513133"><ele>30.0</ele><time>2026-04-19T07:46:17.989Z</time></trkpt><trkpt lat="44.7752567" lon="10.7510917"><ele>30.0</ele><time>2026-04-19T07:46:18.989Z</time></trkpt><trkpt lat="44.7753217" lon="10.750875"><ele>30.0</ele><time>2026-04-19T07:46:19.989Z</time></trkpt><trkpt lat="44.7753767" lon="10.7507033"><ele>30.0</ele><time>2026-04-19T07:46:20.989Z</time></trkpt><trkpt lat="44.77543" lon="10.75053"><ele>30.0</ele><time>2026-04-19T07:46:21.989Z</time></trkpt><trkpt lat="44.77548" lon="10.750375"><ele>30.0</ele><time>2026-04-19T07:46:22.989Z</time></trkpt><trkpt lat="44.77553" lon="10.7502317"><ele>30.0</ele><time>2026-04-19T07:46:23.989Z</time></trkpt><trkpt lat="44.7755733" lon="10.7501133"><ele>30.0</ele><time>2026-04-19T07:46:24.989Z</time></trkpt><trkpt lat="44.77559" lon="10.7500017"><ele>30.0</ele><time>2026-04-19T07:46:25.989Z</time></trkpt><trkpt lat="44.77558" lon="10.7498883"><ele>30.0</ele><time>2026-04-19T07:46:26.989Z</time></trkpt><trkpt lat="44.7755417" lon="10.7497817"><ele>30.25</ele><time>2026-04-19T07:46:27.989Z</time></trkpt><trkpt lat="44.7754617" lon="10.7497"><ele>30.5</ele><time>2026-04-19T07:46:28.989Z</time></trkpt><trkpt lat="44.7753517" lon="10.7496217"><ele>30.75</ele><time>2026-04-19T07:46:29.989Z</time></trkpt><trkpt lat="44.775225" lon="10.7495533"><ele>31.0</ele><time>2026-04-19T07:46:30.989Z</time></trkpt><trkpt lat="44.7751067" lon="10.7495033"><ele>31.0</ele><time>2026-04-19T07:46:31.989Z</time></trkpt><trkpt lat="44.7749967" lon="10.7494417"><ele>31.0</ele><time>2026-04-19T07:46:32.989Z</time></trkpt><trkpt lat="44.7749017" lon="10.7493633"><ele>31.0</ele><time>2026-04-19T07:46:33.989Z</time></trkpt><trkpt lat="44.77483" lon="10.74926"><ele>31.0</ele><time>2026-04-19T07:46:34.989Z</time></trkpt><trkpt lat="44.7747683" lon="10.749125"><ele>31.0</ele><time>2026-04-19T07:46:35.989Z</time></trkpt><trkpt lat="44.77473" lon="10.7489617"><ele>30.666666666666668</ele><time>2026-04-19T07:46:36.989Z</time></trkpt><trkpt lat="44.7747033" lon="10.748755"><ele>30.333333333333336</ele><time>2026-04-19T07:46:37.989Z</time></trkpt><trkpt lat="44.774685" lon="10.74851"><ele>30.0</ele><time>2026-04-19T07:46:38.99Z</time></trkpt><trkpt lat="44.77467" lon="10.7482267"><ele>31.0</ele><time>2026-04-19T07:46:39.989Z</time></trkpt><trkpt lat="44.774665" lon="10.7479217"><ele>32.0</ele><time>2026-04-19T07:46:40.989Z</time></trkpt><trkpt lat="44.7746683" lon="10.7475933"><ele>32.0</ele><time>2026-04-19T07:46:41.989Z</time></trkpt><trkpt lat="44.7746633" lon="10.7472717"><ele>32.0</ele><time>2026-04-19T07:46:42.989Z</time></trkpt><trkpt lat="44.7746533" lon="10.7469667"><ele>32.0</ele><time>2026-04-19T07:46:43.989Z</time></trkpt><trkpt lat="44.77464" lon="10.746675"><ele>31.333333333333332</ele><time>2026-04-19T07:46:44.989Z</time></trkpt><trkpt lat="44.7746317" lon="10.746385"><ele>30.666666666666664</ele><time>2026-04-19T07:46:45.989Z</time></trkpt><trkpt lat="44.774625" lon="10.7460967"><ele>30.0</ele><time>2026-04-19T07:46:46.99Z</time></trkpt><trkpt lat="44.7746167" lon="10.7457983"><ele>30.0</ele><time>2026-04-19T07:46:47.989Z</time></trkpt><trkpt lat="44.774605" lon="10.745475"><ele>30.0</ele><time>2026-04-19T07:46:48.989Z</time></trkpt><trkpt lat="44.774585" lon="10.7451483"><ele>30.0</ele><time>2026-04-19T07:46:49.989Z</time></trkpt><trkpt lat="44.7745667" lon="10.74482"><ele>30.0</ele><time>2026-04-19T07:46:50.989Z</time></trkpt><trkpt lat="44.774535" lon="10.744485"><ele>30.5</ele><time>2026-04-19T07:46:51.989Z</time></trkpt><trkpt lat="44.7745083" lon="10.7441533"><ele>31.0</ele><time>2026-04-19T07:46:52.989Z</time></trkpt><trkpt lat="44.7744933" lon="10.74383"><ele>30.333333333333336</ele><time>2026-04-19T07:46:53.989Z</time></trkpt><trkpt lat="44.7744783" lon="10.7435133"><ele>29.666666666666664</ele><time>2026-04-19T07:46:54.989Z</time></trkpt><trkpt lat="44.7744617" lon="10.7432033"><ele>29.0</ele><time>2026-04-19T07:46:55.989Z</time></trkpt><trkpt lat="44.7744483" lon="10.7429017"><ele>29.0</ele><time>2026-04-19T07:46:56.989Z</time></trkpt><trkpt lat="44.7744317" lon="10.7426033"><ele>29.0</ele><time>2026-04-19T07:46:57.989Z</time></trkpt><trkpt lat="44.774425" lon="10.7423083"><ele>29.0</ele><time>2026-04-19T07:46:58.989Z</time></trkpt><trkpt lat="44.774415" lon="10.742025"><ele>29.0</ele><time>2026-04-19T07:46:59.989Z</time></trkpt><trkpt lat="44.7744083" lon="10.7417567"><ele>29.0</ele><time>2026-04-19T07:47:00.989Z</time></trkpt><trkpt lat="44.774415" lon="10.7414883"><ele>29.0</ele><time>2026-04-19T07:47:01.989Z</time></trkpt><trkpt lat="44.77443" lon="10.741205"><ele>29.333333333333332</ele><time>2026-04-19T07:47:02.989Z</time></trkpt><trkpt lat="44.7744517" lon="10.7409133"><ele>29.666666666666664</ele><time>2026-04-19T07:47:03.989Z</time></trkpt><trkpt lat="44.7744917" lon="10.7406333"><ele>30.0</ele><time>2026-04-19T07:47:04.989Z</time></trkpt><trkpt lat="44.7745383" lon="10.7403683"><ele>30.666666666666664</ele><time>2026-04-19T07:47:05.989Z</time></trkpt><trkpt lat="44.7745933" lon="10.7401183"><ele>31.333333333333332</ele><time>2026-04-19T07:47:06.989Z</time></trkpt><trkpt lat="44.774635" lon="10.7398883"><ele>32.0</ele><time>2026-04-19T07:47:07.989Z</time></trkpt><trkpt lat="44.77468" lon="10.7396667"><ele>32.0</ele><time>2026-04-19T07:47:08.989Z</time></trkpt><trkpt lat="44.7747267" lon="10.7394767"><ele>32.0</ele><time>2026-04-19T07:47:09.989Z</time></trkpt><trkpt lat="44.7747717" lon="10.739275"><ele>32.0</ele><time>2026-04-19T07:47:10.989Z</time></trkpt><trkpt lat="44.7748083" lon="10.739075"><ele>32.0</ele><time>2026-04-19T07:47:11.989Z</time></trkpt><trkpt lat="44.7748383" lon="10.7388683"><ele>32.0</ele><time>2026-04-19T07:47:12.989Z</time></trkpt><trkpt lat="44.7748617" lon="10.7386617"><ele>32.0</ele><time>2026-04-19T07:47:13.989Z</time></trkpt><trkpt lat="44.774885" lon="10.7384417"><ele>32.0</ele><time>2026-04-19T07:47:14.989Z</time></trkpt><trkpt lat="44.7749083" lon="10.7381917"><ele>32.0</ele><time>2026-04-19T07:47:15.989Z</time></trkpt><trkpt lat="44.774925" lon="10.737915"><ele>32.0</ele><time>2026-04-19T07:47:16.989Z</time></trkpt><trkpt lat="44.7749533" lon="10.7376167"><ele>32.0</ele><time>2026-04-19T07:47:17.989Z</time></trkpt><trkpt lat="44.7749867" lon="10.7373"><ele>31.666666666666664</ele><time>2026-04-19T07:47:18.989Z</time></trkpt><trkpt lat="44.775025" lon="10.736995"><ele>31.333333333333336</ele><time>2026-04-19T07:47:19.989Z</time></trkpt><trkpt lat="44.77506" lon="10.7367083"><ele>31.0</ele><time>2026-04-19T07:47:20.989Z</time></trkpt><trkpt lat="44.7750867" lon="10.7364583"><ele>30.333333333333336</ele><time>2026-04-19T07:47:21.989Z</time></trkpt><trkpt lat="44.775115" lon="10.73621"><ele>29.666666666666664</ele><time>2026-04-19T07:47:22.989Z</time></trkpt><trkpt lat="44.7751283" lon="10.7359567"><ele>29.0</ele><time>2026-04-19T07:47:23.989Z</time></trkpt><trkpt lat="44.7751233" lon="10.7357017"><ele>30.333333333333332</ele><time>2026-04-19T07:47:24.989Z</time></trkpt><trkpt lat="44.7750917" lon="10.7354483"><ele>31.666666666666664</ele><time>2026-04-19T07:47:25.989Z</time></trkpt><trkpt lat="44.77504" lon="10.735185"><ele>33.0</ele><time>2026-04-19T07:47:26.989Z</time></trkpt><trkpt lat="44.774975" lon="10.7349083"><ele>33.0</ele><time>2026-04-19T07:47:27.989Z</time></trkpt><trkpt lat="44.7749083" lon="10.73465"><ele>33.0</ele><time>2026-04-19T07:47:28.989Z</time></trkpt><trkpt lat="44.77483" lon="10.7343983"><ele>33.0</ele><time>2026-04-19T07:47:29.989Z</time></trkpt><trkpt lat="44.7747417" lon="10.7341583"><ele>33.0</ele><time>2026-04-19T07:47:30.989Z</time></trkpt><trkpt lat="44.774645" lon="10.7339233"><ele>33.0</ele><time>2026-04-19T07:47:31.989Z</time></trkpt><trkpt lat="44.7745433" lon="10.7337033"><ele>33.0</ele><time>2026-04-19T07:47:32.989Z</time></trkpt><trkpt lat="44.7744433" lon="10.7335067"><ele>33.0</ele><time>2026-04-19T07:47:33.989Z</time></trkpt><trkpt lat="44.7743533" lon="10.7333417"><ele>33.0</ele><time>2026-04-19T07:47:34.989Z</time></trkpt><trkpt lat="44.7742717" lon="10.7331967"><ele>33.0</ele><time>2026-04-19T07:47:35.989Z</time></trkpt><trkpt lat="44.7742" lon="10.7330717"><ele>33.0</ele><time>2026-04-19T07:47:36.989Z</time></trkpt><trkpt lat="44.77415" lon="10.73296"><ele>33.0</ele><time>2026-04-19T07:47:37.989Z</time></trkpt><trkpt lat="44.77412" lon="10.7328483"><ele>33.0</ele><time>2026-04-19T07:47:38.989Z</time></trkpt><trkpt lat="44.77411" lon="10.73273"><ele>33.0</ele><time>2026-04-19T07:47:39.989Z</time></trkpt><trkpt lat="44.7741233" lon="10.7325983"><ele>33.0</ele><time>2026-04-19T07:47:40.989Z</time></trkpt><trkpt lat="44.7741733" lon="10.7324683"><ele>33.0</ele><time>2026-04-19T07:47:41.989Z</time></trkpt><trkpt lat="44.7742583" lon="10.7323217"><ele>32.666666666666664</ele><time>2026-04-19T07:47:42.989Z</time></trkpt><trkpt lat="44.7743883" lon="10.73217"><ele>32.33333333333333</ele><time>2026-04-19T07:47:43.989Z</time></trkpt><trkpt lat="44.7745267" lon="10.7320217"><ele>32.0</ele><time>2026-04-19T07:47:44.989Z</time></trkpt><trkpt lat="44.7746483" lon="10.7318683"><ele>32.0</ele><time>2026-04-19T07:47:45.989Z</time></trkpt><trkpt lat="44.7747617" lon="10.7317083"><ele>32.0</ele><time>2026-04-19T07:47:46.989Z</time></trkpt><trkpt lat="44.7748533" lon="10.7315333"><ele>32.0</ele><time>2026-04-19T07:47:47.989Z</time></trkpt><trkpt lat="44.7749283" lon="10.731345"><ele>32.0</ele><time>2026-04-19T07:47:48.989Z</time></trkpt><trkpt lat="44.7749883" lon="10.731145"><ele>32.0</ele><time>2026-04-19T07:47:49.989Z</time></trkpt><trkpt lat="44.7750417" lon="10.7309467"><ele>32.0</ele><time>2026-04-19T07:47:50.989Z</time></trkpt><trkpt lat="44.775085" lon="10.730755"><ele>32.0</ele><time>2026-04-19T07:47:51.99Z</time></trkpt><trkpt lat="44.7751267" lon="10.7305733"><ele>31.5</ele><time>2026-04-19T07:47:52.989Z</time></trkpt><trkpt lat="44.7751767" lon="10.730395"><ele>31.0</ele><time>2026-04-19T07:47:53.989Z</time></trkpt><trkpt lat="44.77522" lon="10.7302067"><ele>30.5</ele><time>2026-04-19T07:47:54.989Z</time></trkpt><trkpt lat="44.7752667" lon="10.730005"><ele>30.0</ele><time>2026-04-19T07:47:55.989Z</time></trkpt><trkpt lat="44.775315" lon="10.7297917"><ele>30.0</ele><time>2026-04-19T07:47:56.989Z</time></trkpt><trkpt lat="44.775365" lon="10.7295733"><ele>30.0</ele><time>2026-04-19T07:47:57.989Z</time></trkpt><trkpt lat="44.7754117" lon="10.72934"><ele>30.0</ele><time>2026-04-19T07:47:58.989Z</time></trkpt><trkpt lat="44.7754667" lon="10.7291133"><ele>30.333333333333336</ele><time>2026-04-19T07:47:59.989Z</time></trkpt><trkpt lat="44.7755267" lon="10.7288917"><ele>30.666666666666668</ele><time>2026-04-19T07:48:00.989Z</time></trkpt><trkpt lat="44.7755767" lon="10.7286767"><ele>31.0</ele><time>2026-04-19T07:48:01.989Z</time></trkpt><trkpt lat="44.7756267" lon="10.7284583"><ele>31.333333333333336</ele><time>2026-04-19T07:48:02.989Z</time></trkpt><trkpt lat="44.775685" lon="10.7282383"><ele>31.666666666666664</ele><time>2026-04-19T07:48:03.989Z</time></trkpt><trkpt lat="44.775725" lon="10.7280117"><ele>32.0</ele><time>2026-04-19T07:48:04.989Z</time></trkpt><trkpt lat="44.77578" lon="10.7277783"><ele>31.666666666666664</ele><time>2026-04-19T07:48:05.989Z</time></trkpt><trkpt lat="44.7758467" lon="10.72754"><ele>31.333333333333336</ele><time>2026-04-19T07:48:06.989Z</time></trkpt><trkpt lat="44.7759183" lon="10.7273117"><ele>31.0</ele><time>2026-04-19T07:48:07.989Z</time></trkpt><trkpt lat="44.776005" lon="10.727105"><ele>30.75</ele><time>2026-04-19T07:48:08.989Z</time></trkpt><trkpt lat="44.7760967" lon="10.7269333"><ele>30.5</ele><time>2026-04-19T07:48:09.989Z</time></trkpt><trkpt lat="44.7761883" lon="10.7267967"><ele>30.25</ele><time>2026-04-19T07:48:10.989Z</time></trkpt><trkpt lat="44.776265" lon="10.7266617"><ele>30.0</ele><time>2026-04-19T07:48:11.989Z</time></trkpt><trkpt lat="44.7763217" lon="10.72653"><ele>30.0</ele><time>2026-04-19T07:48:12.989Z</time></trkpt><trkpt lat="44.7763617" lon="10.7264133"><ele>30.0</ele><time>2026-04-19T07:48:13.989Z</time></trkpt><trkpt lat="44.776395" lon="10.726305"><ele>30.0</ele><time>2026-04-19T07:48:14.989Z</time></trkpt><trkpt lat="44.7764417" lon="10.7261883"><ele>30.0</ele><time>2026-04-19T07:48:15.989Z</time></trkpt><trkpt lat="44.7764783" lon="10.72603"><ele>30.0</ele><time>2026-04-19T07:48:16.989Z</time></trkpt><trkpt lat="44.7765267" lon="10.7258233"><ele>30.0</ele><time>2026-04-19T07:48:17.989Z</time></trkpt><trkpt lat="44.7765833" lon="10.725585"><ele>30.0</ele><time>2026-04-19T07:48:18.989Z</time></trkpt><trkpt lat="44.77665" lon="10.7253317"><ele>30.0</ele><time>2026-04-19T07:48:19.989Z</time></trkpt><trkpt lat="44.7767183" lon="10.7250833"><ele>30.0</ele><time>2026-04-19T07:48:20.989Z</time></trkpt><trkpt lat="44.7768033" lon="10.7248633"><ele>30.0</ele><time>2026-04-19T07:48:21.989Z</time></trkpt><trkpt lat="44.7769117" lon="10.7246683"><ele>30.0</ele><time>2026-04-19T07:48:22.989Z</time></trkpt><trkpt lat="44.7770467" lon="10.7244967"><ele>29.666666666666664</ele><time>2026-04-19T07:48:23.989Z</time></trkpt><trkpt lat="44.7771867" lon="10.7243033"><ele>29.333333333333332</ele><time>2026-04-19T07:48:24.989Z</time></trkpt><trkpt lat="44.77732" lon="10.7240717"><ele>29.0</ele><time>2026-04-19T07:48:25.989Z</time></trkpt><trkpt lat="44.7774483" lon="10.7238"><ele>29.0</ele><time>2026-04-19T07:48:26.989Z</time></trkpt><trkpt lat="44.7775633" lon="10.7235117"><ele>29.0</ele><time>2026-04-19T07:48:27.989Z</time></trkpt><trkpt lat="44.7776683" lon="10.72323"><ele>29.5</ele><time>2026-04-19T07:48:28.989Z</time></trkpt><trkpt lat="44.7777783" lon="10.7229283"><ele>30.0</ele><time>2026-04-19T07:48:29.989Z</time></trkpt><trkpt lat="44.7778983" lon="10.722625"><ele>30.0</ele><time>2026-04-19T07:48:30.989Z</time></trkpt><trkpt lat="44.7780333" lon="10.7223183"><ele>30.0</ele><time>2026-04-19T07:48:31.989Z</time></trkpt><trkpt lat="44.7781717" lon="10.722035"><ele>30.0</ele><time>2026-04-19T07:48:32.989Z</time></trkpt><trkpt lat="44.7783083" lon="10.7217717"><ele>30.0</ele><time>2026-04-19T07:48:33.989Z</time></trkpt><trkpt lat="44.778445" lon="10.72151"><ele>30.333333333333336</ele><time>2026-04-19T07:48:34.989Z</time></trkpt><trkpt lat="44.7785817" lon="10.7212517"><ele>30.666666666666668</ele><time>2026-04-19T07:48:35.989Z</time></trkpt><trkpt lat="44.7787083" lon="10.7210067"><ele>31.0</ele><time>2026-04-19T07:48:36.989Z</time></trkpt><trkpt lat="44.77883" lon="10.7207767"><ele>31.333333333333336</ele><time>2026-04-19T07:48:37.989Z</time></trkpt><trkpt lat="44.7789483" lon="10.7205433"><ele>31.666666666666664</ele><time>2026-04-19T07:48:38.99Z</time></trkpt><trkpt lat="44.7790667" lon="10.7203083"><ele>32.0</ele><time>2026-04-19T07:48:39.989Z</time></trkpt><trkpt lat="44.77919" lon="10.72008"><ele>32.0</ele><time>2026-04-19T07:48:40.989Z</time></trkpt><trkpt lat="44.7793067" lon="10.719845"><ele>32.0</ele><time>2026-04-19T07:48:41.989Z</time></trkpt><trkpt lat="44.77942" lon="10.719615"><ele>32.0</ele><time>2026-04-19T07:48:42.989Z</time></trkpt><trkpt lat="44.7795233" lon="10.71939"><ele>31.666666666666664</ele><time>2026-04-19T07:48:43.989Z</time></trkpt><trkpt lat="44.77964" lon="10.719165"><ele>31.333333333333336</ele><time>2026-04-19T07:48:44.989Z</time></trkpt><trkpt lat="44.7797783" lon="10.7189517"><ele>31.0</ele><time>2026-04-19T07:48:45.989Z</time></trkpt><trkpt lat="44.7799217" lon="10.7187533"><ele>31.0</ele><time>2026-04-19T07:48:46.989Z</time></trkpt><trkpt lat="44.7800583" lon="10.71855"><ele>31.0</ele><time>2026-04-19T07:48:47.989Z</time></trkpt><trkpt lat="44.7801867" lon="10.7183433"><ele>31.0</ele><time>2026-04-19T07:48:48.989Z</time></trkpt><trkpt lat="44.7803" lon="10.7181533"><ele>31.0</ele><time>2026-04-19T07:48:49.989Z</time></trkpt><trkpt lat="44.7804067" lon="10.7179533"><ele>31.0</ele><time>2026-04-19T07:48:50.989Z</time></trkpt><trkpt lat="44.7805217" lon="10.7177667"><ele>31.0</ele><time>2026-04-19T07:48:51.989Z</time></trkpt><trkpt lat="44.78066" lon="10.7175917"><ele>31.0</ele><time>2026-04-19T07:48:52.989Z</time></trkpt><trkpt lat="44.7808033" lon="10.7174483"><ele>31.0</ele><time>2026-04-19T07:48:53.989Z</time></trkpt><trkpt lat="44.7809567" lon="10.71731"><ele>31.0</ele><time>2026-04-19T07:48:54.989Z</time></trkpt><trkpt lat="44.7811117" lon="10.7171583"><ele>30.666666666666668</ele><time>2026-04-19T07:48:55.989Z</time></trkpt><trkpt lat="44.7812517" lon="10.71699"><ele>30.333333333333336</ele><time>2026-04-19T07:48:56.989Z</time></trkpt><trkpt lat="44.7813883" lon="10.7168133"><ele>30.0</ele><time>2026-04-19T07:48:57.989Z</time></trkpt><trkpt lat="44.781505" lon="10.7166283"><ele>30.0</ele><time>2026-04-19T07:48:58.989Z</time></trkpt><trkpt lat="44.7816183" lon="10.7164633"><ele>30.0</ele><time>2026-04-19T07:48:59.989Z</time></trkpt><trkpt lat="44.7817417" lon="10.7163"><ele>30.0</ele><time>2026-04-19T07:49:00.989Z</time></trkpt><trkpt lat="44.7818767" lon="10.7161533"><ele>30.0</ele><time>2026-04-19T07:49:01.989Z</time></trkpt><trkpt lat="44.7820067" lon="10.71603"><ele>30.0</ele><time>2026-04-19T07:49:02.989Z</time></trkpt><trkpt lat="44.7821283" lon="10.7159083"><ele>30.0</ele><time>2026-04-19T07:49:03.989Z</time></trkpt><trkpt lat="44.78224" lon="10.7158067"><ele>30.0</ele><time>2026-04-19T07:49:04.989Z</time></trkpt><trkpt lat="44.7823483" lon="10.7157117"><ele>30.0</ele><time>2026-04-19T07:49:05.989Z</time></trkpt><trkpt lat="44.7824533" lon="10.7156383"><ele>30.0</ele><time>2026-04-19T07:49:06.989Z</time></trkpt><trkpt lat="44.7825583" lon="10.7155867"><ele>30.0</ele><time>2026-04-19T07:49:07.989Z</time></trkpt><trkpt lat="44.7826733" lon="10.7155467"><ele>30.0</ele><time>2026-04-19T07:49:08.989Z</time></trkpt><trkpt lat="44.78278" lon="10.7155167"><ele>29.833333333333332</ele><time>2026-04-19T07:49:09.989Z</time></trkpt><trkpt lat="44.7828717" lon="10.7154883"><ele>29.666666666666664</ele><time>2026-04-19T07:49:10.989Z</time></trkpt><trkpt lat="44.78295" lon="10.7154683"><ele>29.5</ele><time>2026-04-19T07:49:11.989Z</time></trkpt><trkpt lat="44.7830217" lon="10.71545"><ele>29.333333333333332</ele><time>2026-04-19T07:49:12.989Z</time></trkpt><trkpt lat="44.783085" lon="10.7154333"><ele>29.166666666666664</ele><time>2026-04-19T07:49:13.989Z</time></trkpt><trkpt lat="44.7831917" lon="10.7154"><ele>29.0</ele><time>2026-04-19T07:49:15.989Z</time></trkpt><trkpt lat="44.7832733" lon="10.7153233"><ele>29.0</ele><time>2026-04-19T07:49:17.989Z</time></trkpt><trkpt lat="44.783295" lon="10.71524"><ele>29.0</ele><time>2026-04-19T07:49:18.989Z</time></trkpt><trkpt lat="44.7832833" lon="10.7151433"><ele>29.0</ele><time>2026-04-19T07:49:19.989Z</time></trkpt><trkpt lat="44.78325" lon="10.71503"><ele>29.0</ele><time>2026-04-19T07:49:20.989Z</time></trkpt><trkpt lat="44.7831817" lon="10.7148867"><ele>29.0</ele><time>2026-04-19T07:49:21.989Z</time></trkpt><trkpt lat="44.783075" lon="10.7147233"><ele>29.0</ele><time>2026-04-19T07:49:22.989Z</time></trkpt><trkpt lat="44.7829833" lon="10.7145633"><ele>29.0</ele><time>2026-04-19T07:49:23.989Z</time></trkpt><trkpt lat="44.7829" lon="10.7144"><ele>29.0</ele><time>2026-04-19T07:49:24.989Z</time></trkpt><trkpt lat="44.7828133" lon="10.7142417"><ele>29.0</ele><time>2026-04-19T07:49:25.989Z</time></trkpt><trkpt lat="44.782735" lon="10.7140983"><ele>29.666666666666664</ele><time>2026-04-19T07:49:26.989Z</time></trkpt><trkpt lat="44.78265" lon="10.71395"><ele>30.333333333333336</ele><time>2026-04-19T07:49:27.99Z</time></trkpt><trkpt lat="44.7825467" lon="10.7137833"><ele>31.0</ele><time>2026-04-19T07:49:28.989Z</time></trkpt><trkpt lat="44.7824283" lon="10.7135883"><ele>31.0</ele><time>2026-04-19T07:49:29.989Z</time></trkpt><trkpt lat="44.782305" lon="10.7133633"><ele>31.0</ele><time>2026-04-19T07:49:30.989Z</time></trkpt><trkpt lat="44.7821683" lon="10.7131133"><ele>31.0</ele><time>2026-04-19T07:49:31.989Z</time></trkpt><trkpt lat="44.7820217" lon="10.712845"><ele>31.0</ele><time>2026-04-19T07:49:32.989Z</time></trkpt><trkpt lat="44.7818817" lon="10.71255"><ele>31.0</ele><time>2026-04-19T07:49:33.989Z</time></trkpt><trkpt lat="44.7817217" lon="10.712255"><ele>30.5</ele><time>2026-04-19T07:49:34.989Z</time></trkpt><trkpt lat="44.7815583" lon="10.71195"><ele>30.0</ele><time>2026-04-19T07:49:35.99Z</time></trkpt><trkpt lat="44.7813983" lon="10.711655"><ele>29.5</ele><time>2026-04-19T07:49:36.989Z</time></trkpt><trkpt lat="44.7812383" lon="10.7113767"><ele>29.0</ele><time>2026-04-19T07:49:37.989Z</time></trkpt><trkpt lat="44.7810933" lon="10.7111133"><ele>28.5</ele><time>2026-04-19T07:49:38.989Z</time></trkpt><trkpt lat="44.7809517" lon="10.7108583"><ele>28.0</ele><time>2026-04-19T07:49:39.989Z</time></trkpt><trkpt lat="44.7808067" lon="10.7106017"><ele>28.0</ele><time>2026-04-19T07:49:40.989Z</time></trkpt><trkpt lat="44.78068" lon="10.710345"><ele>28.0</ele><time>2026-04-19T07:49:41.989Z</time></trkpt><trkpt lat="44.7805333" lon="10.7100933"><ele>28.333333333333336</ele><time>2026-04-19T07:49:42.989Z</time></trkpt><trkpt lat="44.7803917" lon="10.7098433"><ele>28.666666666666664</ele><time>2026-04-19T07:49:43.989Z</time></trkpt><trkpt lat="44.780255" lon="10.7095983"><ele>29.0</ele><time>2026-04-19T07:49:44.989Z</time></trkpt><trkpt lat="44.78011" lon="10.7093483"><ele>29.0</ele><time>2026-04-19T07:49:45.989Z</time></trkpt><trkpt lat="44.7799667" lon="10.70909"><ele>29.0</ele><time>2026-04-19T07:49:46.989Z</time></trkpt><trkpt lat="44.77984" lon="10.7088283"><ele>30.333333333333332</ele><time>2026-04-19T07:49:47.989Z</time></trkpt><trkpt lat="44.7797117" lon="10.7085667"><ele>31.666666666666664</ele><time>2026-04-19T07:49:48.989Z</time></trkpt><trkpt lat="44.7795917" lon="10.7083067"><ele>33.0</ele><time>2026-04-19T07:49:49.989Z</time></trkpt><trkpt lat="44.7794717" lon="10.7080533"><ele>33.0</ele><time>2026-04-19T07:49:50.989Z</time></trkpt><trkpt lat="44.7793583" lon="10.7078017"><ele>33.0</ele><time>2026-04-19T07:49:51.989Z</time></trkpt><trkpt lat="44.7792517" lon="10.7075433"><ele>33.0</ele><time>2026-04-19T07:49:52.989Z</time></trkpt><trkpt lat="44.7791483" lon="10.7072883"><ele>32.666666666666664</ele><time>2026-04-19T07:49:53.99Z</time></trkpt><trkpt lat="44.7790567" lon="10.7070133"><ele>32.33333333333333</ele><time>2026-04-19T07:49:54.989Z</time></trkpt><trkpt lat="44.77897" lon="10.70673"><ele>32.0</ele><time>2026-04-19T07:49:55.989Z</time></trkpt><trkpt lat="44.7788767" lon="10.7064467"><ele>31.333333333333332</ele><time>2026-04-19T07:49:56.989Z</time></trkpt><trkpt lat="44.77879" lon="10.7061567"><ele>30.666666666666664</ele><time>2026-04-19T07:49:57.989Z</time></trkpt><trkpt lat="44.7787" lon="10.7058717"><ele>30.0</ele><time>2026-04-19T07:49:58.989Z</time></trkpt><trkpt lat="44.778595" lon="10.7055933"><ele>29.5</ele><time>2026-04-19T07:49:59.989Z</time></trkpt><trkpt lat="44.7784733" lon="10.7053133"><ele>29.0</ele><time>2026-04-19T07:50:00.989Z</time></trkpt><trkpt lat="44.7783367" lon="10.7050417"><ele>28.5</ele><time>2026-04-19T07:50:01.989Z</time></trkpt><trkpt lat="44.7781833" lon="10.70479"><ele>28.0</ele><time>2026-04-19T07:50:02.989Z</time></trkpt><trkpt lat="44.7780217" lon="10.7045383"><ele>27.5</ele><time>2026-04-19T07:50:03.989Z</time></trkpt><trkpt lat="44.7778533" lon="10.7042883"><ele>27.0</ele><time>2026-04-19T07:50:04.989Z</time></trkpt><trkpt lat="44.7776833" lon="10.7040367"><ele>28.5</ele><time>2026-04-19T07:50:05.989Z</time></trkpt><trkpt lat="44.777515" lon="10.703785"><ele>30.0</ele><time>2026-04-19T07:50:06.989Z</time></trkpt><trkpt lat="44.7773417" lon="10.70354"><ele>30.0</ele><time>2026-04-19T07:50:07.989Z</time></trkpt><trkpt lat="44.7771733" lon="10.7033033"><ele>30.0</ele><time>2026-04-19T07:50:08.989Z</time></trkpt><trkpt lat="44.7770033" lon="10.7030717"><ele>29.0</ele><time>2026-04-19T07:50:09.989Z</time></trkpt><trkpt lat="44.7768217" lon="10.702855"><ele>28.0</ele><time>2026-04-19T07:50:10.989Z</time></trkpt><trkpt lat="44.776625" lon="10.7026633"><ele>27.5</ele><time>2026-04-19T07:50:11.989Z</time></trkpt><trkpt lat="44.7764183" lon="10.7024867"><ele>27.0</ele><time>2026-04-19T07:50:12.989Z</time></trkpt><trkpt lat="44.7762133" lon="10.7023067"><ele>27.5</ele><time>2026-04-19T07:50:13.989Z</time></trkpt><trkpt lat="44.7760017" lon="10.7021267"><ele>28.0</ele><time>2026-04-19T07:50:14.989Z</time></trkpt><trkpt lat="44.7757917" lon="10.7019583"><ele>27.5</ele><time>2026-04-19T07:50:15.989Z</time></trkpt><trkpt lat="44.7755917" lon="10.701795"><ele>27.0</ele><time>2026-04-19T07:50:16.989Z</time></trkpt><trkpt lat="44.7753933" lon="10.7016133"><ele>27.0</ele><time>2026-04-19T07:50:17.989Z</time></trkpt><trkpt lat="44.7752133" lon="10.7014217"><ele>27.0</ele><time>2026-04-19T07:50:18.989Z</time></trkpt><trkpt lat="44.77505" lon="10.7012133"><ele>27.0</ele><time>2026-04-19T07:50:19.989Z</time></trkpt><trkpt lat="44.7748883" lon="10.700965"><ele>28.5</ele><time>2026-04-19T07:50:20.989Z</time></trkpt><trkpt lat="44.774735" lon="10.7006933"><ele>30.0</ele><time>2026-04-19T07:50:21.989Z</time></trkpt><trkpt lat="44.7745733" lon="10.7004133"><ele>30.0</ele><time>2026-04-19T07:50:22.989Z</time></trkpt><trkpt lat="44.7743983" lon="10.70013"><ele>30.0</ele><time>2026-04-19T07:50:23.989Z</time></trkpt><trkpt lat="44.774215" lon="10.699845"><ele>30.0</ele><time>2026-04-19T07:50:24.989Z</time></trkpt><trkpt lat="44.7740317" lon="10.6995667"><ele>30.0</ele><time>2026-04-19T07:50:25.989Z</time></trkpt><trkpt lat="44.7738433" lon="10.699285"><ele>30.0</ele><time>2026-04-19T07:50:26.989Z</time></trkpt><trkpt lat="44.7736633" lon="10.6989983"><ele>30.0</ele><time>2026-04-19T07:50:27.989Z</time></trkpt><trkpt lat="44.77349" lon="10.6987083"><ele>29.5</ele><time>2026-04-19T07:50:28.989Z</time></trkpt><trkpt lat="44.7733167" lon="10.6984167"><ele>29.0</ele><time>2026-04-19T07:50:29.989Z</time></trkpt><trkpt lat="44.7731583" lon="10.6981217"><ele>29.0</ele><time>2026-04-19T07:50:30.989Z</time></trkpt><trkpt lat="44.7729983" lon="10.6978383"><ele>29.0</ele><time>2026-04-19T07:50:31.989Z</time></trkpt><trkpt lat="44.77285" lon="10.6975633"><ele>29.0</ele><time>2026-04-19T07:50:32.989Z</time></trkpt><trkpt lat="44.77269" lon="10.69729"><ele>29.0</ele><time>2026-04-19T07:50:33.989Z</time></trkpt><trkpt lat="44.77254" lon="10.6970217"><ele>30.0</ele><time>2026-04-19T07:50:34.989Z</time></trkpt><trkpt lat="44.772395" lon="10.6967633"><ele>31.0</ele><time>2026-04-19T07:50:35.989Z</time></trkpt><trkpt lat="44.77226" lon="10.6965067"><ele>31.0</ele><time>2026-04-19T07:50:36.989Z</time></trkpt><trkpt lat="44.7721183" lon="10.6962533"><ele>31.0</ele><time>2026-04-19T07:50:37.99Z</time></trkpt><trkpt lat="44.7719833" lon="10.696"><ele>30.0</ele><time>2026-04-19T07:50:38.989Z</time></trkpt><trkpt lat="44.7718383" lon="10.6957467"><ele>29.0</ele><time>2026-04-19T07:50:39.989Z</time></trkpt><trkpt lat="44.7716967" lon="10.695495"><ele>29.5</ele><time>2026-04-19T07:50:40.989Z</time></trkpt><trkpt lat="44.7715567" lon="10.6952367"><ele>30.0</ele><time>2026-04-19T07:50:41.989Z</time></trkpt><trkpt lat="44.7714167" lon="10.6949817"><ele>30.0</ele><time>2026-04-19T07:50:42.989Z</time></trkpt><trkpt lat="44.77128" lon="10.6947283"><ele>30.0</ele><time>2026-04-19T07:50:43.989Z</time></trkpt><trkpt lat="44.7711483" lon="10.694475"><ele>30.0</ele><time>2026-04-19T07:50:44.989Z</time></trkpt><trkpt lat="44.771015" lon="10.694225"><ele>30.5</ele><time>2026-04-19T07:50:45.989Z</time></trkpt><trkpt lat="44.7708733" lon="10.69398"><ele>31.0</ele><time>2026-04-19T07:50:46.989Z</time></trkpt><trkpt lat="44.7707367" lon="10.69372"><ele>30.5</ele><time>2026-04-19T07:50:47.989Z</time></trkpt><trkpt lat="44.7705933" lon="10.6934467"><ele>30.0</ele><time>2026-04-19T07:50:48.989Z</time></trkpt><trkpt lat="44.7704483" lon="10.693175"><ele>30.0</ele><time>2026-04-19T07:50:49.989Z</time></trkpt><trkpt lat="44.77031" lon="10.6929183"><ele>30.0</ele><time>2026-04-19T07:50:50.989Z</time></trkpt><trkpt lat="44.7701767" lon="10.692675"><ele>30.0</ele><time>2026-04-19T07:50:51.989Z</time></trkpt><trkpt lat="44.7700467" lon="10.6924383"><ele>29.666666666666664</ele><time>2026-04-19T07:50:52.989Z</time></trkpt><trkpt lat="44.76992" lon="10.6921983"><ele>29.333333333333332</ele><time>2026-04-19T07:50:53.989Z</time></trkpt><trkpt lat="44.76979" lon="10.6919633"><ele>29.0</ele><time>2026-04-19T07:50:54.989Z</time></trkpt><trkpt lat="44.7696617" lon="10.69173"><ele>29.0</ele><time>2026-04-19T07:50:55.989Z</time></trkpt><trkpt lat="44.769525" lon="10.6915083"><ele>29.0</ele><time>2026-04-19T07:50:56.989Z</time></trkpt><trkpt lat="44.76939" lon="10.6912817"><ele>29.0</ele><time>2026-04-19T07:50:57.989Z</time></trkpt><trkpt lat="44.7692533" lon="10.691045"><ele>29.0</ele><time>2026-04-19T07:50:58.989Z</time></trkpt><trkpt lat="44.769115" lon="10.6907933"><ele>29.0</ele><time>2026-04-19T07:50:59.989Z</time></trkpt><trkpt lat="44.76897" lon="10.6905167"><ele>29.0</ele><time>2026-04-19T07:51:00.989Z</time></trkpt><trkpt lat="44.768835" lon="10.6902267"><ele>29.0</ele><time>2026-04-19T07:51:01.989Z</time></trkpt><trkpt lat="44.7686967" lon="10.6899217"><ele>29.0</ele><time>2026-04-19T07:51:02.989Z</time></trkpt><trkpt lat="44.7685517" lon="10.6895983"><ele>29.0</ele><time>2026-04-19T07:51:03.989Z</time></trkpt><trkpt lat="44.7684083" lon="10.6892717"><ele>29.5</ele><time>2026-04-19T07:51:04.989Z</time></trkpt><trkpt lat="44.7682733" lon="10.688945"><ele>30.0</ele><time>2026-04-19T07:51:05.989Z</time></trkpt><trkpt lat="44.7681333" lon="10.6886383"><ele>30.0</ele><time>2026-04-19T07:51:06.989Z</time></trkpt><trkpt lat="44.7680067" lon="10.6883433"><ele>30.0</ele><time>2026-04-19T07:51:07.989Z</time></trkpt><trkpt lat="44.767885" lon="10.6880633"><ele>30.0</ele><time>2026-04-19T07:51:08.989Z</time></trkpt><trkpt lat="44.7677683" lon="10.687785"><ele>30.0</ele><time>2026-04-19T07:51:09.989Z</time></trkpt><trkpt lat="44.7676567" lon="10.6875033"><ele>30.0</ele><time>2026-04-19T07:51:10.989Z</time></trkpt><trkpt lat="44.7675533" lon="10.6872317"><ele>30.0</ele><time>2026-04-19T07:51:11.989Z</time></trkpt><trkpt lat="44.7674483" lon="10.6869517"><ele>30.0</ele><time>2026-04-19T07:51:12.989Z</time></trkpt><trkpt lat="44.767325" lon="10.6866633"><ele>30.0</ele><time>2026-04-19T07:51:13.989Z</time></trkpt><trkpt lat="44.7672" lon="10.6863767"><ele>30.0</ele><time>2026-04-19T07:51:14.989Z</time></trkpt><trkpt lat="44.7670567" lon="10.686115"><ele>30.0</ele><time>2026-04-19T07:51:15.989Z</time></trkpt><trkpt lat="44.7669167" lon="10.68586"><ele>30.0</ele><time>2026-04-19T07:51:16.989Z</time></trkpt><trkpt lat="44.7667733" lon="10.6856083"><ele>30.5</ele><time>2026-04-19T07:51:17.989Z</time></trkpt><trkpt lat="44.7666333" lon="10.6853383"><ele>31.0</ele><time>2026-04-19T07:51:18.989Z</time></trkpt><trkpt lat="44.7665117" lon="10.6850717"><ele>31.0</ele><time>2026-04-19T07:51:19.989Z</time></trkpt><trkpt lat="44.7664117" lon="10.6848133"><ele>31.0</ele><time>2026-04-19T07:51:20.989Z</time></trkpt><trkpt lat="44.7663267" lon="10.68456"><ele>31.0</ele><time>2026-04-19T07:51:21.989Z</time></trkpt><trkpt lat="44.7662517" lon="10.684295"><ele>31.0</ele><time>2026-04-19T07:51:22.989Z</time></trkpt><trkpt lat="44.7661717" lon="10.6840217"><ele>31.0</ele><time>2026-04-19T07:51:23.989Z</time></trkpt><trkpt lat="44.766095" lon="10.6837517"><ele>31.0</ele><time>2026-04-19T07:51:24.989Z</time></trkpt><trkpt lat="44.766015" lon="10.6834867"><ele>30.666666666666668</ele><time>2026-04-19T07:51:25.989Z</time></trkpt><trkpt lat="44.7659367" lon="10.6832217"><ele>30.333333333333336</ele><time>2026-04-19T07:51:26.989Z</time></trkpt><trkpt lat="44.7658633" lon="10.6829667"><ele>30.0</ele><time>2026-04-19T07:51:27.989Z</time></trkpt><trkpt lat="44.7657933" lon="10.6827233"><ele>29.666666666666664</ele><time>2026-04-19T07:51:28.989Z</time></trkpt><trkpt lat="44.7657233" lon="10.6824933"><ele>29.333333333333332</ele><time>2026-04-19T07:51:29.989Z</time></trkpt><trkpt lat="44.76565" lon="10.682265"><ele>29.0</ele><time>2026-04-19T07:51:30.989Z</time></trkpt><trkpt lat="44.7655817" lon="10.682045"><ele>29.666666666666664</ele><time>2026-04-19T07:51:31.989Z</time></trkpt><trkpt lat="44.7655217" lon="10.6818267"><ele>30.333333333333336</ele><time>2026-04-19T07:51:32.989Z</time></trkpt><trkpt lat="44.7654567" lon="10.681615"><ele>31.0</ele><time>2026-04-19T07:51:33.989Z</time></trkpt><trkpt lat="44.7654033" lon="10.6814233"><ele>31.0</ele><time>2026-04-19T07:51:34.989Z</time></trkpt><trkpt lat="44.7653517" lon="10.6812417"><ele>31.0</ele><time>2026-04-19T07:51:35.989Z</time></trkpt><trkpt lat="44.7653017" lon="10.681075"><ele>31.0</ele><time>2026-04-19T07:51:36.989Z</time></trkpt><trkpt lat="44.7652517" lon="10.6809233"><ele>31.0</ele><time>2026-04-19T07:51:37.989Z</time></trkpt><trkpt lat="44.7652217" lon="10.6807683"><ele>31.0</ele><time>2026-04-19T07:51:38.989Z</time></trkpt><trkpt lat="44.7652017" lon="10.680635"><ele>31.0</ele><time>2026-04-19T07:51:39.989Z</time></trkpt><trkpt lat="44.7652" lon="10.6805033"><ele>31.0</ele><time>2026-04-19T07:51:40.989Z</time></trkpt><trkpt lat="44.7652267" lon="10.68037"><ele>31.0</ele><time>2026-04-19T07:51:41.989Z</time></trkpt><trkpt lat="44.76528" lon="10.6802417"><ele>31.0</ele><time>2026-04-19T07:51:42.989Z</time></trkpt><trkpt lat="44.76537" lon="10.680135"><ele>31.333333333333336</ele><time>2026-04-19T07:51:43.989Z</time></trkpt><trkpt lat="44.7654967" lon="10.6800583"><ele>31.666666666666664</ele><time>2026-04-19T07:51:44.989Z</time></trkpt><trkpt lat="44.7656533" lon="10.6800083"><ele>32.0</ele><time>2026-04-19T07:51:45.989Z</time></trkpt><trkpt lat="44.765815" lon="10.679955"><ele>32.0</ele><time>2026-04-19T07:51:46.989Z</time></trkpt><trkpt lat="44.7659767" lon="10.6798983"><ele>32.0</ele><time>2026-04-19T07:51:47.989Z</time></trkpt><trkpt lat="44.7661433" lon="10.6798467"><ele>32.0</ele><time>2026-04-19T07:51:48.989Z</time></trkpt><trkpt lat="44.7663183" lon="10.6797667"><ele>31.666666666666664</ele><time>2026-04-19T07:51:49.989Z</time></trkpt><trkpt lat="44.7664833" lon="10.6796883"><ele>31.333333333333336</ele><time>2026-04-19T07:51:50.989Z</time></trkpt><trkpt lat="44.766635" lon="10.6796083"><ele>31.0</ele><time>2026-04-19T07:51:51.989Z</time></trkpt><trkpt lat="44.7667867" lon="10.6795233"><ele>30.666666666666668</ele><time>2026-04-19T07:51:52.989Z</time></trkpt><trkpt lat="44.7669317" lon="10.6794267"><ele>30.333333333333336</ele><time>2026-04-19T07:51:53.989Z</time></trkpt><trkpt lat="44.7670667" lon="10.6793183"><ele>30.0</ele><time>2026-04-19T07:51:54.989Z</time></trkpt><trkpt lat="44.76719" lon="10.6792067"><ele>30.0</ele><time>2026-04-19T07:51:55.989Z</time></trkpt><trkpt lat="44.7673133" lon="10.6790833"><ele>30.0</ele><time>2026-04-19T07:51:56.989Z</time></trkpt><trkpt lat="44.7674233" lon="10.67896"><ele>30.0</ele><time>2026-04-19T07:51:57.989Z</time></trkpt><trkpt lat="44.76754" lon="10.6788217"><ele>30.0</ele><time>2026-04-19T07:51:58.989Z</time></trkpt><trkpt lat="44.7676683" lon="10.67869"><ele>30.5</ele><time>2026-04-19T07:51:59.989Z</time></trkpt><trkpt lat="44.767795" lon="10.678565"><ele>31.0</ele><time>2026-04-19T07:52:00.989Z</time></trkpt><trkpt lat="44.767905" lon="10.6784333"><ele>31.5</ele><time>2026-04-19T07:52:01.989Z</time></trkpt><trkpt lat="44.7679967" lon="10.6783017"><ele>32.0</ele><time>2026-04-19T07:52:02.989Z</time></trkpt><trkpt lat="44.7680717" lon="10.6781633"><ele>32.0</ele><time>2026-04-19T07:52:03.989Z</time></trkpt><trkpt lat="44.768135" lon="10.6780417"><ele>32.0</ele><time>2026-04-19T07:52:04.989Z</time></trkpt><trkpt lat="44.7681933" lon="10.677935"><ele>32.0</ele><time>2026-04-19T07:52:05.989Z</time></trkpt><trkpt lat="44.7682483" lon="10.6778333"><ele>32.0</ele><time>2026-04-19T07:52:06.989Z</time></trkpt><trkpt lat="44.768315" lon="10.6777433"><ele>32.0</ele><time>2026-04-19T07:52:07.989Z</time></trkpt><trkpt lat="44.7683767" lon="10.6776317"><ele>32.0</ele><time>2026-04-19T07:52:08.989Z</time></trkpt><trkpt lat="44.7684317" lon="10.67749"><ele>32.0</ele><time>2026-04-19T07:52:09.989Z</time></trkpt><trkpt lat="44.7685" lon="10.6773267"><ele>32.0</ele><time>2026-04-19T07:52:10.989Z</time></trkpt><trkpt lat="44.7685717" lon="10.6771583"><ele>32.0</ele><time>2026-04-19T07:52:11.989Z</time></trkpt><trkpt lat="44.768645" lon="10.6769867"><ele>31.5</ele><time>2026-04-19T07:52:12.989Z</time></trkpt><trkpt lat="44.7687167" lon="10.67682"><ele>31.0</ele><time>2026-04-19T07:52:13.989Z</time></trkpt><trkpt lat="44.768785" lon="10.6766517"><ele>30.5</ele><time>2026-04-19T07:52:14.989Z</time></trkpt><trkpt lat="44.76884" lon="10.6764583"><ele>30.0</ele><time>2026-04-19T07:52:15.989Z</time></trkpt><trkpt lat="44.7688883" lon="10.6762583"><ele>30.0</ele><time>2026-04-19T07:52:16.989Z</time></trkpt><trkpt lat="44.768955" lon="10.6760617"><ele>30.0</ele><time>2026-04-19T07:52:17.989Z</time></trkpt><trkpt lat="44.7690133" lon="10.6758717"><ele>30.0</ele><time>2026-04-19T07:52:18.989Z</time></trkpt><trkpt lat="44.769065" lon="10.6757167"><ele>30.0</ele><time>2026-04-19T07:52:19.989Z</time></trkpt><trkpt lat="44.7691133" lon="10.6755917"><ele>30.0</ele><time>2026-04-19T07:52:20.989Z</time></trkpt><trkpt lat="44.769155" lon="10.6754883"><ele>30.0</ele><time>2026-04-19T07:52:21.989Z</time></trkpt><trkpt lat="44.769195" lon="10.6754017"><ele>30.0</ele><time>2026-04-19T07:52:22.989Z</time></trkpt><trkpt lat="44.7692433" lon="10.6753433"><ele>30.0</ele><time>2026-04-19T07:52:23.989Z</time></trkpt><trkpt lat="44.7693617" lon="10.6752567"><ele>30.0</ele><time>2026-04-19T07:52:25.989Z</time></trkpt><trkpt lat="44.76944" lon="10.675255"><ele>30.0</ele><time>2026-04-19T07:52:26.989Z</time></trkpt><trkpt lat="44.769545" lon="10.6753083"><ele>30.0</ele><time>2026-04-19T07:52:27.989Z</time></trkpt><trkpt lat="44.7696717" lon="10.6753767"><ele>30.0</ele><time>2026-04-19T07:52:28.989Z</time></trkpt><trkpt lat="44.7698133" lon="10.675455"><ele>30.0</ele><time>2026-04-19T07:52:29.989Z</time></trkpt><trkpt lat="44.7699617" lon="10.6755233"><ele>30.0</ele><time>2026-04-19T07:52:30.989Z</time></trkpt><trkpt lat="44.77011" lon="10.6755883"><ele>30.0</ele><time>2026-04-19T07:52:31.989Z</time></trkpt><trkpt lat="44.7702517" lon="10.6756567"><ele>30.0</ele><time>2026-04-19T07:52:32.989Z</time></trkpt><trkpt lat="44.7704" lon="10.6757217"><ele>30.0</ele><time>2026-04-19T07:52:33.989Z</time></trkpt><trkpt lat="44.770555" lon="10.6757817"><ele>30.0</ele><time>2026-04-19T07:52:34.989Z</time></trkpt><trkpt lat="44.7707117" lon="10.6758433"><ele>30.0</ele><time>2026-04-19T07:52:35.989Z</time></trkpt><trkpt lat="44.770865" lon="10.6759083"><ele>30.0</ele><time>2026-04-19T07:52:36.989Z</time></trkpt><trkpt lat="44.771025" lon="10.675975"><ele>30.0</ele><time>2026-04-19T07:52:37.989Z</time></trkpt><trkpt lat="44.77118" lon="10.6760317"><ele>30.0</ele><time>2026-04-19T07:52:38.989Z</time></trkpt><trkpt lat="44.7713433" lon="10.676105"><ele>30.0</ele><time>2026-04-19T07:52:39.989Z</time></trkpt><trkpt lat="44.7715" lon="10.6761667"><ele>30.0</ele><time>2026-04-19T07:52:40.989Z</time></trkpt><trkpt lat="44.7716533" lon="10.6762283"><ele>30.0</ele><time>2026-04-19T07:52:41.989Z</time></trkpt><trkpt lat="44.771815" lon="10.6762983"><ele>30.0</ele><time>2026-04-19T07:52:42.989Z</time></trkpt><trkpt lat="44.77198" lon="10.6763767"><ele>30.333333333333336</ele><time>2026-04-19T07:52:43.989Z</time></trkpt><trkpt lat="44.7721383" lon="10.6764467"><ele>30.666666666666668</ele><time>2026-04-19T07:52:44.989Z</time></trkpt><trkpt lat="44.7723017" lon="10.676515"><ele>31.0</ele><time>2026-04-19T07:52:45.989Z</time></trkpt><trkpt lat="44.7724617" lon="10.6765817"><ele>31.0</ele><time>2026-04-19T07:52:46.989Z</time></trkpt><trkpt lat="44.772615" lon="10.6766433"><ele>31.0</ele><time>2026-04-19T07:52:47.989Z</time></trkpt><trkpt lat="44.7727617" lon="10.6767017"><ele>31.0</ele><time>2026-04-19T07:52:48.989Z</time></trkpt><trkpt lat="44.7729083" lon="10.6767583"><ele>30.0</ele><time>2026-04-19T07:52:49.989Z</time></trkpt><trkpt lat="44.7730617" lon="10.6768017"><ele>29.0</ele><time>2026-04-19T07:52:50.989Z</time></trkpt><trkpt lat="44.773225" lon="10.6768133"><ele>28.0</ele><time>2026-04-19T07:52:51.989Z</time></trkpt><trkpt lat="44.773395" lon="10.6768"><ele>28.0</ele><time>2026-04-19T07:52:52.989Z</time></trkpt><trkpt lat="44.7735567" lon="10.6767533"><ele>28.0</ele><time>2026-04-19T07:52:53.989Z</time></trkpt><trkpt lat="44.7737183" lon="10.67669"><ele>28.0</ele><time>2026-04-19T07:52:54.989Z</time></trkpt><trkpt lat="44.77388" lon="10.6765983"><ele>28.0</ele><time>2026-04-19T07:52:55.989Z</time></trkpt><trkpt lat="44.7740333" lon="10.6764917"><ele>28.0</ele><time>2026-04-19T07:52:56.989Z</time></trkpt><trkpt lat="44.7741867" lon="10.6763883"><ele>28.0</ele><time>2026-04-19T07:52:57.989Z</time></trkpt><trkpt lat="44.7743367" lon="10.67629"><ele>28.0</ele><time>2026-04-19T07:52:58.989Z</time></trkpt><trkpt lat="44.7744933" lon="10.6761917"><ele>28.0</ele><time>2026-04-19T07:52:59.989Z</time></trkpt><trkpt lat="44.7746633" lon="10.6760967"><ele>28.0</ele><time>2026-04-19T07:53:00.989Z</time></trkpt><trkpt lat="44.7748317" lon="10.67599"><ele>28.0</ele><time>2026-04-19T07:53:01.989Z</time></trkpt><trkpt lat="44.775" lon="10.6758817"><ele>28.0</ele><time>2026-04-19T07:53:02.989Z</time></trkpt><trkpt lat="44.7751567" lon="10.6757767"><ele>28.0</ele><time>2026-04-19T07:53:03.989Z</time></trkpt><trkpt lat="44.7753217" lon="10.67568"><ele>28.0</ele><time>2026-04-19T07:53:04.989Z</time></trkpt><trkpt lat="44.775465" lon="10.6755967"><ele>28.0</ele><time>2026-04-19T07:53:05.989Z</time></trkpt><trkpt lat="44.7756017" lon="10.6755083"><ele>28.0</ele><time>2026-04-19T07:53:06.989Z</time></trkpt><trkpt lat="44.7757317" lon="10.6754283"><ele>28.0</ele><time>2026-04-19T07:53:07.989Z</time></trkpt><trkpt lat="44.7758483" lon="10.6753583"><ele>28.0</ele><time>2026-04-19T07:53:08.989Z</time></trkpt><trkpt lat="44.7759617" lon="10.67529"><ele>27.999999999999996</ele><time>2026-04-19T07:53:09.989Z</time></trkpt><trkpt lat="44.7760617" lon="10.67523"><ele>27.999999999999996</ele><time>2026-04-19T07:53:10.989Z</time></trkpt><trkpt lat="44.776155" lon="10.6751817"><ele>28.0</ele><time>2026-04-19T07:53:11.989Z</time></trkpt><trkpt lat="44.7762367" lon="10.675135"><ele>28.0</ele><time>2026-04-19T07:53:12.989Z</time></trkpt><trkpt lat="44.77631" lon="10.6750917"><ele>28.4</ele><time>2026-04-19T07:53:13.989Z</time></trkpt><trkpt lat="44.77637" lon="10.675045"><ele>28.799999999999997</ele><time>2026-04-19T07:53:14.989Z</time></trkpt><trkpt lat="44.7764217" lon="10.674985"><ele>29.2</ele><time>2026-04-19T07:53:15.989Z</time></trkpt><trkpt lat="44.77647" lon="10.67487"><ele>29.6</ele><time>2026-04-19T07:53:17.989Z</time></trkpt><trkpt lat="44.77646" lon="10.6746867"><ele>30.0</ele><time>2026-04-19T07:53:19.989Z</time></trkpt><trkpt lat="44.7764217" lon="10.6745717"><ele>29.0</ele><time>2026-04-19T07:53:20.989Z</time></trkpt><trkpt lat="44.7763367" lon="10.6744317"><ele>28.0</ele><time>2026-04-19T07:53:21.989Z</time></trkpt><trkpt lat="44.7762217" lon="10.67426"><ele>27.0</ele><time>2026-04-19T07:53:22.989Z</time></trkpt><trkpt lat="44.7761117" lon="10.674065"><ele>26.666666666666664</ele><time>2026-04-19T07:53:23.989Z</time></trkpt><trkpt lat="44.7760083" lon="10.673855"><ele>26.333333333333332</ele><time>2026-04-19T07:53:24.989Z</time></trkpt><trkpt lat="44.7759" lon="10.673615"><ele>26.0</ele><time>2026-04-19T07:53:25.989Z</time></trkpt><trkpt lat="44.775805" lon="10.6733667"><ele>25.666666666666664</ele><time>2026-04-19T07:53:26.989Z</time></trkpt><trkpt lat="44.775715" lon="10.6731017"><ele>25.333333333333336</ele><time>2026-04-19T07:53:27.989Z</time></trkpt><trkpt lat="44.775635" lon="10.6728583"><ele>25.0</ele><time>2026-04-19T07:53:28.989Z</time></trkpt><trkpt lat="44.77555" lon="10.67262"><ele>24.666666666666668</ele><time>2026-04-19T07:53:29.989Z</time></trkpt><trkpt lat="44.7754717" lon="10.67237"><ele>24.333333333333336</ele><time>2026-04-19T07:53:30.989Z</time></trkpt><trkpt lat="44.7753833" lon="10.67211"><ele>24.0</ele><time>2026-04-19T07:53:31.989Z</time></trkpt><trkpt lat="44.7752967" lon="10.671845"><ele>24.666666666666664</ele><time>2026-04-19T07:53:32.989Z</time></trkpt><trkpt lat="44.775205" lon="10.6715817"><ele>25.333333333333332</ele><time>2026-04-19T07:53:33.989Z</time></trkpt><trkpt lat="44.77511" lon="10.6713017"><ele>26.0</ele><time>2026-04-19T07:53:34.989Z</time></trkpt><trkpt lat="44.7750117" lon="10.67104"><ele>26.0</ele><time>2026-04-19T07:53:35.989Z</time></trkpt><trkpt lat="44.7748933" lon="10.6707717"><ele>26.0</ele><time>2026-04-19T07:53:36.989Z</time></trkpt><trkpt lat="44.7747683" lon="10.6704983"><ele>26.5</ele><time>2026-04-19T07:53:37.989Z</time></trkpt><trkpt lat="44.7746383" lon="10.670235"><ele>27.0</ele><time>2026-04-19T07:53:38.989Z</time></trkpt><trkpt lat="44.7744917" lon="10.6699867"><ele>26.666666666666664</ele><time>2026-04-19T07:53:39.989Z</time></trkpt><trkpt lat="44.77434" lon="10.6697533"><ele>26.333333333333332</ele><time>2026-04-19T07:53:40.989Z</time></trkpt><trkpt lat="44.7741817" lon="10.66955"><ele>26.0</ele><time>2026-04-19T07:53:41.989Z</time></trkpt><trkpt lat="44.7740183" lon="10.6693667"><ele>26.0</ele><time>2026-04-19T07:53:42.989Z</time></trkpt><trkpt lat="44.7738533" lon="10.669195"><ele>26.0</ele><time>2026-04-19T07:53:43.989Z</time></trkpt><trkpt lat="44.773695" lon="10.6690367"><ele>26.0</ele><time>2026-04-19T07:53:44.989Z</time></trkpt><trkpt lat="44.7735483" lon="10.6689033"><ele>26.0</ele><time>2026-04-19T07:53:45.989Z</time></trkpt><trkpt lat="44.7734033" lon="10.6687883"><ele>26.0</ele><time>2026-04-19T07:53:46.989Z</time></trkpt><trkpt lat="44.7732633" lon="10.6686833"><ele>26.0</ele><time>2026-04-19T07:53:47.989Z</time></trkpt><trkpt lat="44.7731383" lon="10.6685833"><ele>26.0</ele><time>2026-04-19T07:53:48.989Z</time></trkpt><trkpt lat="44.773025" lon="10.668485"><ele>26.0</ele><time>2026-04-19T07:53:49.989Z</time></trkpt><trkpt lat="44.7729383" lon="10.668375"><ele>26.0</ele><time>2026-04-19T07:53:50.989Z</time></trkpt><trkpt lat="44.7728733" lon="10.6682617"><ele>26.0</ele><time>2026-04-19T07:53:51.989Z</time></trkpt><trkpt lat="44.7728383" lon="10.668135"><ele>26.0</ele><time>2026-04-19T07:53:52.989Z</time></trkpt><trkpt lat="44.7728383" lon="10.66799"><ele>26.0</ele><time>2026-04-19T07:53:53.989Z</time></trkpt><trkpt lat="44.7728483" lon="10.6678533"><ele>26.0</ele><time>2026-04-19T07:53:54.989Z</time></trkpt><trkpt lat="44.77284" lon="10.6677317"><ele>26.0</ele><time>2026-04-19T07:53:55.989Z</time></trkpt><trkpt lat="44.7728" lon="10.667625"><ele>26.0</ele><time>2026-04-19T07:53:56.989Z</time></trkpt><trkpt lat="44.772725" lon="10.6675683"><ele>25.75</ele><time>2026-04-19T07:53:57.989Z</time></trkpt><trkpt lat="44.772635" lon="10.66756"><ele>25.5</ele><time>2026-04-19T07:53:58.989Z</time></trkpt><trkpt lat="44.77253" lon="10.6676183"><ele>25.25</ele><time>2026-04-19T07:53:59.989Z</time></trkpt><trkpt lat="44.7724183" lon="10.6677"><ele>25.0</ele><time>2026-04-19T07:54:00.989Z</time></trkpt><trkpt lat="44.7722883" lon="10.6677633"><ele>25.0</ele><time>2026-04-19T07:54:01.989Z</time></trkpt><trkpt lat="44.7721333" lon="10.6677667"><ele>25.0</ele><time>2026-04-19T07:54:02.989Z</time></trkpt><trkpt lat="44.77197" lon="10.667725"><ele>25.0</ele><time>2026-04-19T07:54:03.989Z</time></trkpt><trkpt lat="44.7717883" lon="10.6676567"><ele>25.0</ele><time>2026-04-19T07:54:04.989Z</time></trkpt><trkpt lat="44.7716067" lon="10.6675517"><ele>25.0</ele><time>2026-04-19T07:54:05.989Z</time></trkpt><trkpt lat="44.77142" lon="10.6674217"><ele>25.0</ele><time>2026-04-19T07:54:06.989Z</time></trkpt><trkpt lat="44.77123" lon="10.6672733"><ele>25.0</ele><time>2026-04-19T07:54:07.989Z</time></trkpt><trkpt lat="44.7710367" lon="10.6671417"><ele>25.0</ele><time>2026-04-19T07:54:08.989Z</time></trkpt><trkpt lat="44.7708433" lon="10.6670217"><ele>25.0</ele><time>2026-04-19T07:54:09.989Z</time></trkpt><trkpt lat="44.7706483" lon="10.6668917"><ele>25.666666666666668</ele><time>2026-04-19T07:54:10.989Z</time></trkpt><trkpt lat="44.770465" lon="10.6667617"><ele>26.333333333333336</ele><time>2026-04-19T07:54:11.989Z</time></trkpt><trkpt lat="44.77028" lon="10.6666217"><ele>27.0</ele><time>2026-04-19T07:54:12.989Z</time></trkpt><trkpt lat="44.7700867" lon="10.666495"><ele>27.333333333333336</ele><time>2026-04-19T07:54:13.989Z</time></trkpt><trkpt lat="44.7699083" lon="10.6663633"><ele>27.666666666666668</ele><time>2026-04-19T07:54:14.989Z</time></trkpt><trkpt lat="44.7697283" lon="10.666235"><ele>28.0</ele><time>2026-04-19T07:54:15.989Z</time></trkpt><trkpt lat="44.76955" lon="10.666115"><ele>28.0</ele><time>2026-04-19T07:54:16.989Z</time></trkpt><trkpt lat="44.769375" lon="10.6659983"><ele>28.0</ele><time>2026-04-19T07:54:17.99Z</time></trkpt><trkpt lat="44.7692033" lon="10.6658867"><ele>28.0</ele><time>2026-04-19T07:54:18.989Z</time></trkpt><trkpt lat="44.7690367" lon="10.6657583"><ele>27.666666666666668</ele><time>2026-04-19T07:54:19.989Z</time></trkpt><trkpt lat="44.7688617" lon="10.66564"><ele>27.333333333333336</ele><time>2026-04-19T07:54:20.989Z</time></trkpt><trkpt lat="44.7687007" lon="10.665531"><ele>27.0</ele><time>2026-04-19T07:54:21.989Z</time></trkpt><trkpt lat="44.768553" lon="10.6654222"><ele>27.0</ele><time>2026-04-19T07:54:22.989Z</time></trkpt><trkpt lat="44.7684135" lon="10.6653143"><ele>27.0</ele><time>2026-04-19T07:54:23.989Z</time></trkpt><trkpt lat="44.7682799" lon="10.6652179"><ele>27.0</ele><time>2026-04-19T07:54:24.989Z</time></trkpt><trkpt lat="44.7681633" lon="10.6651343"><ele>27.0</ele><time>2026-04-19T07:54:25.989Z</time></trkpt><trkpt lat="44.7680667" lon="10.6650656"><ele>27.0</ele><time>2026-04-19T07:54:26.989Z</time></trkpt><trkpt lat="44.7679815" lon="10.6650037"><ele>27.0</ele><time>2026-04-19T07:54:27.989Z</time></trkpt><trkpt lat="44.7679093" lon="10.6649522"><ele>27.0</ele><time>2026-04-19T07:54:28.989Z</time></trkpt><trkpt lat="44.7678506" lon="10.6649026"><ele>27.0</ele><time>2026-04-19T07:54:29.989Z</time></trkpt><trkpt lat="44.7678067" lon="10.6648383"><ele>27.0</ele><time>2026-04-19T07:54:30.989Z</time></trkpt><trkpt lat="44.7677841" lon="10.6646536"><ele>27.0</ele><time>2026-04-19T07:54:32.989Z</time></trkpt><trkpt lat="44.767809" lon="10.6645392"><ele>26.75</ele><time>2026-04-19T07:54:33.989Z</time></trkpt><trkpt lat="44.7678641" lon="10.664429"><ele>26.5</ele><time>2026-04-19T07:54:34.989Z</time></trkpt><trkpt lat="44.7679491" lon="10.6643304"><ele>26.25</ele><time>2026-04-19T07:54:35.989Z</time></trkpt><trkpt lat="44.7680603" lon="10.6642399"><ele>26.0</ele><time>2026-04-19T07:54:36.989Z</time></trkpt><trkpt lat="44.7681943" lon="10.664173"><ele>26.0</ele><time>2026-04-19T07:54:37.989Z</time></trkpt><trkpt lat="44.7683499" lon="10.6641373"><ele>26.0</ele><time>2026-04-19T07:54:38.989Z</time></trkpt><trkpt lat="44.7685537" lon="10.6641457"><ele>26.0</ele><time>2026-04-19T07:54:39.989Z</time></trkpt><trkpt lat="44.7687605" lon="10.6641589"><ele>26.666666666666664</ele><time>2026-04-19T07:54:40.989Z</time></trkpt><trkpt lat="44.7689659" lon="10.6641701"><ele>27.333333333333336</ele><time>2026-04-19T07:54:41.989Z</time></trkpt><trkpt lat="44.7691645" lon="10.664142"><ele>28.0</ele><time>2026-04-19T07:54:42.989Z</time></trkpt><trkpt lat="44.7693449" lon="10.6640664"><ele>27.666666666666668</ele><time>2026-04-19T07:54:43.989Z</time></trkpt><trkpt lat="44.769529" lon="10.6639618"><ele>27.333333333333336</ele><time>2026-04-19T07:54:44.989Z</time></trkpt><trkpt lat="44.7697234" lon="10.663846"><ele>27.0</ele><time>2026-04-19T07:54:45.989Z</time></trkpt><trkpt lat="44.7699152" lon="10.663727"><ele>27.0</ele><time>2026-04-19T07:54:46.989Z</time></trkpt><trkpt lat="44.7701009" lon="10.6636197"><ele>27.0</ele><time>2026-04-19T07:54:47.989Z</time></trkpt><trkpt lat="44.7702866" lon="10.6635216"><ele>27.0</ele><time>2026-04-19T07:54:48.989Z</time></trkpt><trkpt lat="44.7704581" lon="10.6634199"><ele>26.666666666666664</ele><time>2026-04-19T07:54:49.989Z</time></trkpt><trkpt lat="44.7706198" lon="10.6633223"><ele>26.333333333333332</ele><time>2026-04-19T07:54:50.989Z</time></trkpt><trkpt lat="44.7707766" lon="10.6632324"><ele>26.0</ele><time>2026-04-19T07:54:51.989Z</time></trkpt><trkpt lat="44.7709273" lon="10.6631409"><ele>26.0</ele><time>2026-04-19T07:54:52.989Z</time></trkpt><trkpt lat="44.7710666" lon="10.6630294"><ele>26.0</ele><time>2026-04-19T07:54:53.989Z</time></trkpt><trkpt lat="44.7711783" lon="10.662865"><ele>26.0</ele><time>2026-04-19T07:54:54.989Z</time></trkpt><trkpt lat="44.7712683" lon="10.6626617"><ele>26.0</ele><time>2026-04-19T07:54:55.989Z</time></trkpt><trkpt lat="44.77133" lon="10.6624233"><ele>26.0</ele><time>2026-04-19T07:54:56.989Z</time></trkpt><trkpt lat="44.771375" lon="10.6621567"><ele>26.0</ele><time>2026-04-19T07:54:57.989Z</time></trkpt><trkpt lat="44.77141" lon="10.6618667"><ele>26.0</ele><time>2026-04-19T07:54:58.989Z</time></trkpt><trkpt lat="44.7714433" lon="10.6615633"><ele>26.0</ele><time>2026-04-19T07:54:59.989Z</time></trkpt><trkpt lat="44.771465" lon="10.6612667"><ele>26.0</ele><time>2026-04-19T07:55:00.989Z</time></trkpt><trkpt lat="44.77148" lon="10.66099"><ele>26.0</ele><time>2026-04-19T07:55:01.989Z</time></trkpt><trkpt lat="44.7714967" lon="10.660735"><ele>26.0</ele><time>2026-04-19T07:55:02.989Z</time></trkpt><trkpt lat="44.771515" lon="10.6604817"><ele>26.0</ele><time>2026-04-19T07:55:03.989Z</time></trkpt><trkpt lat="44.7715317" lon="10.6602117"><ele>26.0</ele><time>2026-04-19T07:55:04.989Z</time></trkpt><trkpt lat="44.77156" lon="10.6599283"><ele>26.0</ele><time>2026-04-19T07:55:05.989Z</time></trkpt><trkpt lat="44.7715817" lon="10.65963"><ele>26.0</ele><time>2026-04-19T07:55:06.989Z</time></trkpt><trkpt lat="44.7716133" lon="10.6593283"><ele>26.0</ele><time>2026-04-19T07:55:07.989Z</time></trkpt><trkpt lat="44.77164" lon="10.6590233"><ele>26.0</ele><time>2026-04-19T07:55:08.989Z</time></trkpt><trkpt lat="44.7716683" lon="10.6587133"><ele>26.0</ele><time>2026-04-19T07:55:09.989Z</time></trkpt><trkpt lat="44.7716967" lon="10.658405"><ele>26.333333333333332</ele><time>2026-04-19T07:55:10.989Z</time></trkpt><trkpt lat="44.77172" lon="10.6580933"><ele>26.666666666666664</ele><time>2026-04-19T07:55:11.989Z</time></trkpt><trkpt lat="44.77175" lon="10.6577833"><ele>27.0</ele><time>2026-04-19T07:55:12.989Z</time></trkpt><trkpt lat="44.7717767" lon="10.65747"><ele>27.666666666666664</ele><time>2026-04-19T07:55:13.989Z</time></trkpt><trkpt lat="44.7718" lon="10.65717"><ele>28.333333333333332</ele><time>2026-04-19T07:55:14.989Z</time></trkpt><trkpt lat="44.7718233" lon="10.6568467"><ele>29.0</ele><time>2026-04-19T07:55:15.989Z</time></trkpt><trkpt lat="44.7718483" lon="10.6565183"><ele>28.0</ele><time>2026-04-19T07:55:16.989Z</time></trkpt><trkpt lat="44.771875" lon="10.6561883"><ele>27.0</ele><time>2026-04-19T07:55:17.989Z</time></trkpt><trkpt lat="44.7719" lon="10.6558583"><ele>27.0</ele><time>2026-04-19T07:55:18.989Z</time></trkpt><trkpt lat="44.7719333" lon="10.6555467"><ele>27.0</ele><time>2026-04-19T07:55:19.989Z</time></trkpt><trkpt lat="44.77196" lon="10.6552317"><ele>27.0</ele><time>2026-04-19T07:55:20.989Z</time></trkpt><trkpt lat="44.7719967" lon="10.654915"><ele>27.0</ele><time>2026-04-19T07:55:21.989Z</time></trkpt><trkpt lat="44.77204" lon="10.6545933"><ele>27.0</ele><time>2026-04-19T07:55:22.989Z</time></trkpt><trkpt lat="44.772085" lon="10.6542983"><ele>27.0</ele><time>2026-04-19T07:55:23.989Z</time></trkpt><trkpt lat="44.77213" lon="10.6540017"><ele>27.0</ele><time>2026-04-19T07:55:24.989Z</time></trkpt><trkpt lat="44.7721717" lon="10.65371"><ele>27.0</ele><time>2026-04-19T07:55:25.989Z</time></trkpt><trkpt lat="44.772215" lon="10.653435"><ele>27.0</ele><time>2026-04-19T07:55:26.989Z</time></trkpt><trkpt lat="44.77226" lon="10.6531533"><ele>27.0</ele><time>2026-04-19T07:55:27.989Z</time></trkpt><trkpt lat="44.7723" lon="10.6528983"><ele>27.0</ele><time>2026-04-19T07:55:28.989Z</time></trkpt><trkpt lat="44.7723383" lon="10.652645"><ele>27.0</ele><time>2026-04-19T07:55:29.989Z</time></trkpt><trkpt lat="44.772385" lon="10.6523883"><ele>27.0</ele><time>2026-04-19T07:55:30.989Z</time></trkpt><trkpt lat="44.7724367" lon="10.6521217"><ele>27.0</ele><time>2026-04-19T07:55:31.989Z</time></trkpt><trkpt lat="44.7724967" lon="10.6518433"><ele>27.0</ele><time>2026-04-19T07:55:32.989Z</time></trkpt><trkpt lat="44.7725583" lon="10.65155"><ele>27.0</ele><time>2026-04-19T07:55:33.989Z</time></trkpt><trkpt lat="44.772615" lon="10.6512533"><ele>27.0</ele><time>2026-04-19T07:55:34.989Z</time></trkpt><trkpt lat="44.772685" lon="10.65095"><ele>27.0</ele><time>2026-04-19T07:55:35.989Z</time></trkpt><trkpt lat="44.7727433" lon="10.6506517"><ele>26.5</ele><time>2026-04-19T07:55:36.989Z</time></trkpt><trkpt lat="44.7728083" lon="10.6503433"><ele>26.0</ele><time>2026-04-19T07:55:37.989Z</time></trkpt><trkpt lat="44.77286" lon="10.6500333"><ele>26.0</ele><time>2026-04-19T07:55:38.989Z</time></trkpt><trkpt lat="44.7729183" lon="10.6497483"><ele>26.0</ele><time>2026-04-19T07:55:39.989Z</time></trkpt><trkpt lat="44.772985" lon="10.6494617"><ele>26.0</ele><time>2026-04-19T07:55:40.989Z</time></trkpt><trkpt lat="44.773045" lon="10.649195"><ele>26.0</ele><time>2026-04-19T07:55:41.989Z</time></trkpt><trkpt lat="44.7731033" lon="10.6489233"><ele>26.0</ele><time>2026-04-19T07:55:42.989Z</time></trkpt><trkpt lat="44.77316" lon="10.6486533"><ele>26.0</ele><time>2026-04-19T07:55:43.989Z</time></trkpt><trkpt lat="44.7732183" lon="10.6483833"><ele>26.0</ele><time>2026-04-19T07:55:44.989Z</time></trkpt><trkpt lat="44.7732867" lon="10.6481033"><ele>26.0</ele><time>2026-04-19T07:55:45.989Z</time></trkpt><trkpt lat="44.7733533" lon="10.6478217"><ele>26.0</ele><time>2026-04-19T07:55:46.989Z</time></trkpt><trkpt lat="44.77342" lon="10.6475317"><ele>26.0</ele><time>2026-04-19T07:55:47.989Z</time></trkpt><trkpt lat="44.77349" lon="10.6472383"><ele>26.0</ele><time>2026-04-19T07:55:48.989Z</time></trkpt><trkpt lat="44.7735633" lon="10.6469483"><ele>26.0</ele><time>2026-04-19T07:55:49.989Z</time></trkpt><trkpt lat="44.77363" lon="10.646645"><ele>26.0</ele><time>2026-04-19T07:55:50.989Z</time></trkpt><trkpt lat="44.7736967" lon="10.6463417"><ele>26.0</ele><time>2026-04-19T07:55:51.989Z</time></trkpt><trkpt lat="44.773765" lon="10.6460533"><ele>26.0</ele><time>2026-04-19T07:55:52.989Z</time></trkpt><trkpt lat="44.7738367" lon="10.645775"><ele>26.0</ele><time>2026-04-19T07:55:53.989Z</time></trkpt><trkpt lat="44.773905" lon="10.6455083"><ele>26.0</ele><time>2026-04-19T07:55:54.99Z</time></trkpt><trkpt lat="44.7739717" lon="10.6452367"><ele>26.0</ele><time>2026-04-19T07:55:55.989Z</time></trkpt><trkpt lat="44.7740383" lon="10.6449517"><ele>26.0</ele><time>2026-04-19T07:55:56.989Z</time></trkpt><trkpt lat="44.7741083" lon="10.64468"><ele>26.0</ele><time>2026-04-19T07:55:57.989Z</time></trkpt><trkpt lat="44.7741733" lon="10.644405"><ele>26.0</ele><time>2026-04-19T07:55:58.989Z</time></trkpt><trkpt lat="44.7742317" lon="10.644125"><ele>26.0</ele><time>2026-04-19T07:55:59.989Z</time></trkpt><trkpt lat="44.77429" lon="10.6438417"><ele>26.0</ele><time>2026-04-19T07:56:00.989Z</time></trkpt><trkpt lat="44.7743417" lon="10.6435617"><ele>26.0</ele><time>2026-04-19T07:56:01.989Z</time></trkpt><trkpt lat="44.774395" lon="10.6432767"><ele>26.333333333333332</ele><time>2026-04-19T07:56:02.99Z</time></trkpt><trkpt lat="44.774445" lon="10.643"><ele>26.666666666666664</ele><time>2026-04-19T07:56:03.989Z</time></trkpt><trkpt lat="44.7744933" lon="10.642715"><ele>27.0</ele><time>2026-04-19T07:56:04.989Z</time></trkpt><trkpt lat="44.7745417" lon="10.6424367"><ele>27.333333333333336</ele><time>2026-04-19T07:56:05.989Z</time></trkpt><trkpt lat="44.774585" lon="10.64216"><ele>27.666666666666668</ele><time>2026-04-19T07:56:06.989Z</time></trkpt><trkpt lat="44.774625" lon="10.6418767"><ele>28.0</ele><time>2026-04-19T07:56:07.989Z</time></trkpt><trkpt lat="44.7746633" lon="10.6415933"><ele>28.0</ele><time>2026-04-19T07:56:08.989Z</time></trkpt><trkpt lat="44.77469" lon="10.6413"><ele>28.0</ele><time>2026-04-19T07:56:09.989Z</time></trkpt><trkpt lat="44.7747017" lon="10.64102"><ele>28.0</ele><time>2026-04-19T07:56:10.989Z</time></trkpt><trkpt lat="44.7747133" lon="10.6407283"><ele>28.0</ele><time>2026-04-19T07:56:11.989Z</time></trkpt><trkpt lat="44.7747217" lon="10.6404467"><ele>28.0</ele><time>2026-04-19T07:56:12.989Z</time></trkpt><trkpt lat="44.77474" lon="10.6401733"><ele>28.0</ele><time>2026-04-19T07:56:13.989Z</time></trkpt><trkpt lat="44.774765" lon="10.6399133"><ele>28.333333333333336</ele><time>2026-04-19T07:56:14.989Z</time></trkpt><trkpt lat="44.7747933" lon="10.63968"><ele>28.666666666666664</ele><time>2026-04-19T07:56:15.989Z</time></trkpt><trkpt lat="44.7748383" lon="10.639465"><ele>29.0</ele><time>2026-04-19T07:56:16.989Z</time></trkpt><trkpt lat="44.7748883" lon="10.6392633"><ele>29.0</ele><time>2026-04-19T07:56:17.989Z</time></trkpt><trkpt lat="44.77493" lon="10.63907"><ele>29.0</ele><time>2026-04-19T07:56:18.989Z</time></trkpt><trkpt lat="44.7749683" lon="10.638885"><ele>29.0</ele><time>2026-04-19T07:56:19.989Z</time></trkpt><trkpt lat="44.7750033" lon="10.638715"><ele>29.0</ele><time>2026-04-19T07:56:20.989Z</time></trkpt><trkpt lat="44.7750383" lon="10.6385433"><ele>29.2</ele><time>2026-04-19T07:56:21.989Z</time></trkpt><trkpt lat="44.7750767" lon="10.6383817"><ele>29.4</ele><time>2026-04-19T07:56:22.989Z</time></trkpt><trkpt lat="44.7751083" lon="10.63822"><ele>29.6</ele><time>2026-04-19T07:56:23.989Z</time></trkpt><trkpt lat="44.7751417" lon="10.6380683"><ele>29.8</ele><time>2026-04-19T07:56:24.989Z</time></trkpt><trkpt lat="44.7751617" lon="10.637935"><ele>30.0</ele><time>2026-04-19T07:56:25.989Z</time></trkpt><trkpt lat="44.77518" lon="10.63782"><ele>29.833333333333332</ele><time>2026-04-19T07:56:26.989Z</time></trkpt><trkpt lat="44.7751933" lon="10.63772"><ele>29.666666666666664</ele><time>2026-04-19T07:56:27.989Z</time></trkpt><trkpt lat="44.775215" lon="10.6375767"><ele>29.5</ele><time>2026-04-19T07:56:29.989Z</time></trkpt><trkpt lat="44.775235" lon="10.6374683"><ele>29.333333333333332</ele><time>2026-04-19T07:56:32.989Z</time></trkpt><trkpt lat="44.775245" lon="10.6373633"><ele>29.166666666666664</ele><time>2026-04-19T07:56:40.989Z</time></trkpt><trkpt lat="44.7752417" lon="10.637235"><ele>29.0</ele><time>2026-04-19T07:56:41.989Z</time></trkpt><trkpt lat="44.7752583" lon="10.6370633"><ele>29.666666666666664</ele><time>2026-04-19T07:56:42.989Z</time></trkpt><trkpt lat="44.775285" lon="10.63685"><ele>30.333333333333336</ele><time>2026-04-19T07:56:43.989Z</time></trkpt><trkpt lat="44.775325" lon="10.6366133"><ele>31.0</ele><time>2026-04-19T07:56:44.989Z</time></trkpt><trkpt lat="44.7753733" lon="10.6363383"><ele>30.666666666666668</ele><time>2026-04-19T07:56:45.989Z</time></trkpt><trkpt lat="44.775425" lon="10.6360467"><ele>30.333333333333336</ele><time>2026-04-19T07:56:46.989Z</time></trkpt><trkpt lat="44.7754767" lon="10.6357633"><ele>30.0</ele><time>2026-04-19T07:56:47.989Z</time></trkpt><trkpt lat="44.775525" lon="10.6355"><ele>30.0</ele><time>2026-04-19T07:56:48.989Z</time></trkpt><trkpt lat="44.7755633" lon="10.6352517"><ele>30.0</ele><time>2026-04-19T07:56:49.989Z</time></trkpt><trkpt lat="44.7756083" lon="10.634995"><ele>30.0</ele><time>2026-04-19T07:56:50.989Z</time></trkpt><trkpt lat="44.77565" lon="10.6347383"><ele>30.0</ele><time>2026-04-19T07:56:51.989Z</time></trkpt><trkpt lat="44.7757033" lon="10.6344883"><ele>30.0</ele><time>2026-04-19T07:56:52.989Z</time></trkpt><trkpt lat="44.7757383" lon="10.634225"><ele>30.0</ele><time>2026-04-19T07:56:53.989Z</time></trkpt><trkpt lat="44.77578" lon="10.633945"><ele>29.666666666666664</ele><time>2026-04-19T07:56:54.989Z</time></trkpt><trkpt lat="44.7758217" lon="10.6336483"><ele>29.333333333333332</ele><time>2026-04-19T07:56:55.989Z</time></trkpt><trkpt lat="44.7758783" lon="10.6333333"><ele>29.0</ele><time>2026-04-19T07:56:56.989Z</time></trkpt><trkpt lat="44.7759267" lon="10.6330417"><ele>28.666666666666664</ele><time>2026-04-19T07:56:57.989Z</time></trkpt><trkpt lat="44.7759717" lon="10.6327733"><ele>28.333333333333336</ele><time>2026-04-19T07:56:58.989Z</time></trkpt><trkpt lat="44.7760217" lon="10.6325"><ele>28.0</ele><time>2026-04-19T07:56:59.989Z</time></trkpt><trkpt lat="44.7760717" lon="10.632225"><ele>28.0</ele><time>2026-04-19T07:57:00.989Z</time></trkpt><trkpt lat="44.7761217" lon="10.6319517"><ele>28.0</ele><time>2026-04-19T07:57:01.989Z</time></trkpt><trkpt lat="44.7761667" lon="10.6316867"><ele>28.0</ele><time>2026-04-19T07:57:02.989Z</time></trkpt><trkpt lat="44.776215" lon="10.631425"><ele>28.0</ele><time>2026-04-19T07:57:03.989Z</time></trkpt><trkpt lat="44.7762667" lon="10.6311483"><ele>28.0</ele><time>2026-04-19T07:57:04.989Z</time></trkpt><trkpt lat="44.7763167" lon="10.63087"><ele>28.0</ele><time>2026-04-19T07:57:05.989Z</time></trkpt><trkpt lat="44.776355" lon="10.6305767"><ele>27.666666666666668</ele><time>2026-04-19T07:57:06.989Z</time></trkpt><trkpt lat="44.776405" lon="10.63028"><ele>27.333333333333336</ele><time>2026-04-19T07:57:07.989Z</time></trkpt><trkpt lat="44.7764583" lon="10.6299733"><ele>27.0</ele><time>2026-04-19T07:57:08.989Z</time></trkpt><trkpt lat="44.77651" lon="10.6296583"><ele>26.666666666666664</ele><time>2026-04-19T07:57:09.989Z</time></trkpt><trkpt lat="44.7765517" lon="10.6293533"><ele>26.333333333333332</ele><time>2026-04-19T07:57:10.989Z</time></trkpt><trkpt lat="44.7766" lon="10.62906"><ele>26.0</ele><time>2026-04-19T07:57:11.989Z</time></trkpt><trkpt lat="44.7766533" lon="10.628765"><ele>26.333333333333332</ele><time>2026-04-19T07:57:12.989Z</time></trkpt><trkpt lat="44.7767017" lon="10.6284717"><ele>26.666666666666664</ele><time>2026-04-19T07:57:13.989Z</time></trkpt><trkpt lat="44.7767467" lon="10.6281883"><ele>27.0</ele><time>2026-04-19T07:57:14.989Z</time></trkpt><trkpt lat="44.7767917" lon="10.6279"><ele>27.0</ele><time>2026-04-19T07:57:15.989Z</time></trkpt><trkpt lat="44.7768467" lon="10.6276167"><ele>27.0</ele><time>2026-04-19T07:57:16.989Z</time></trkpt><trkpt lat="44.7768967" lon="10.6273317"><ele>27.0</ele><time>2026-04-19T07:57:17.989Z</time></trkpt><trkpt lat="44.7769433" lon="10.6270567"><ele>26.666666666666664</ele><time>2026-04-19T07:57:18.989Z</time></trkpt><trkpt lat="44.7769933" lon="10.6267817"><ele>26.333333333333332</ele><time>2026-04-19T07:57:19.989Z</time></trkpt><trkpt lat="44.7770383" lon="10.626505"><ele>26.0</ele><time>2026-04-19T07:57:20.989Z</time></trkpt><trkpt lat="44.777075" lon="10.6262333"><ele>26.0</ele><time>2026-04-19T07:57:21.989Z</time></trkpt><trkpt lat="44.7771183" lon="10.6259633"><ele>26.0</ele><time>2026-04-19T07:57:22.989Z</time></trkpt><trkpt lat="44.7771633" lon="10.62568"><ele>26.0</ele><time>2026-04-19T07:57:23.989Z</time></trkpt><trkpt lat="44.777205" lon="10.6254117"><ele>26.333333333333332</ele><time>2026-04-19T07:57:24.989Z</time></trkpt><trkpt lat="44.7772483" lon="10.6251383"><ele>26.666666666666664</ele><time>2026-04-19T07:57:25.989Z</time></trkpt><trkpt lat="44.7772983" lon="10.6248717"><ele>27.0</ele><time>2026-04-19T07:57:26.989Z</time></trkpt><trkpt lat="44.7773367" lon="10.6246183"><ele>27.0</ele><time>2026-04-19T07:57:27.989Z</time></trkpt><trkpt lat="44.7773767" lon="10.624385"><ele>27.0</ele><time>2026-04-19T07:57:28.989Z</time></trkpt><trkpt lat="44.7774183" lon="10.6241733"><ele>27.0</ele><time>2026-04-19T07:57:29.989Z</time></trkpt><trkpt lat="44.7774483" lon="10.6239883"><ele>27.0</ele><time>2026-04-19T07:57:30.989Z</time></trkpt><trkpt lat="44.7774733" lon="10.6238283"><ele>27.000000000000004</ele><time>2026-04-19T07:57:31.989Z</time></trkpt><trkpt lat="44.7774933" lon="10.623685"><ele>27.000000000000004</ele><time>2026-04-19T07:57:32.989Z</time></trkpt><trkpt lat="44.7775017" lon="10.6235467"><ele>27.0</ele><time>2026-04-19T07:57:33.989Z</time></trkpt><trkpt lat="44.7774833" lon="10.62343"><ele>27.0</ele><time>2026-04-19T07:57:34.989Z</time></trkpt><trkpt lat="44.7774183" lon="10.6233283"><ele>27.0</ele><time>2026-04-19T07:57:35.989Z</time></trkpt><trkpt lat="44.7773067" lon="10.623245"><ele>27.0</ele><time>2026-04-19T07:57:36.989Z</time></trkpt><trkpt lat="44.7771533" lon="10.6231433"><ele>27.0</ele><time>2026-04-19T07:57:37.989Z</time></trkpt><trkpt lat="44.7769917" lon="10.6230333"><ele>26.666666666666664</ele><time>2026-04-19T07:57:38.989Z</time></trkpt><trkpt lat="44.776815" lon="10.6229167"><ele>26.333333333333332</ele><time>2026-04-19T07:57:39.989Z</time></trkpt><trkpt lat="44.776635" lon="10.6227933"><ele>26.0</ele><time>2026-04-19T07:57:40.989Z</time></trkpt><trkpt lat="44.7764533" lon="10.622675"><ele>26.0</ele><time>2026-04-19T07:57:41.989Z</time></trkpt><trkpt lat="44.77628" lon="10.6225617"><ele>26.0</ele><time>2026-04-19T07:57:42.989Z</time></trkpt><trkpt lat="44.7761217" lon="10.6224483"><ele>26.0</ele><time>2026-04-19T07:57:43.989Z</time></trkpt><trkpt lat="44.7759583" lon="10.6223417"><ele>26.333333333333332</ele><time>2026-04-19T07:57:44.989Z</time></trkpt><trkpt lat="44.7757983" lon="10.622235"><ele>26.666666666666664</ele><time>2026-04-19T07:57:45.989Z</time></trkpt><trkpt lat="44.7756467" lon="10.6221217"><ele>27.0</ele><time>2026-04-19T07:57:46.989Z</time></trkpt><trkpt lat="44.7755033" lon="10.622025"><ele>27.200000000000003</ele><time>2026-04-19T07:57:47.989Z</time></trkpt><trkpt lat="44.7753783" lon="10.6219417"><ele>27.400000000000002</ele><time>2026-04-19T07:57:48.989Z</time></trkpt><trkpt lat="44.7752783" lon="10.62187"><ele>27.599999999999998</ele><time>2026-04-19T07:57:49.989Z</time></trkpt><trkpt lat="44.7752" lon="10.6217867"><ele>27.799999999999997</ele><time>2026-04-19T07:57:50.989Z</time></trkpt><trkpt lat="44.7751483" lon="10.62169"><ele>28.0</ele><time>2026-04-19T07:57:51.989Z</time></trkpt><trkpt lat="44.7751283" lon="10.6215467"><ele>27.333333333333336</ele><time>2026-04-19T07:57:52.989Z</time></trkpt><trkpt lat="44.7751467" lon="10.621355"><ele>26.666666666666664</ele><time>2026-04-19T07:57:53.989Z</time></trkpt><trkpt lat="44.7751833" lon="10.621125"><ele>26.0</ele><time>2026-04-19T07:57:54.989Z</time></trkpt><trkpt lat="44.7752233" lon="10.6208717"><ele>26.0</ele><time>2026-04-19T07:57:55.989Z</time></trkpt><trkpt lat="44.7752633" lon="10.6206"><ele>26.0</ele><time>2026-04-19T07:57:56.989Z</time></trkpt><trkpt lat="44.7753083" lon="10.6203117"><ele>26.0</ele><time>2026-04-19T07:57:57.989Z</time></trkpt><trkpt lat="44.7753467" lon="10.6200217"><ele>26.0</ele><time>2026-04-19T07:57:58.989Z</time></trkpt><trkpt lat="44.7753933" lon="10.6197233"><ele>26.0</ele><time>2026-04-19T07:57:59.989Z</time></trkpt><trkpt lat="44.7754333" lon="10.61943"><ele>26.0</ele><time>2026-04-19T07:58:00.989Z</time></trkpt><trkpt lat="44.775475" lon="10.61913"><ele>25.333333333333332</ele><time>2026-04-19T07:58:01.989Z</time></trkpt><trkpt lat="44.7755167" lon="10.6188367"><ele>24.666666666666664</ele><time>2026-04-19T07:58:02.989Z</time></trkpt><trkpt lat="44.77556" lon="10.618545"><ele>24.0</ele><time>2026-04-19T07:58:03.989Z</time></trkpt><trkpt lat="44.7756067" lon="10.6182633"><ele>23.666666666666668</ele><time>2026-04-19T07:58:04.989Z</time></trkpt><trkpt lat="44.7756483" lon="10.6179783"><ele>23.333333333333336</ele><time>2026-04-19T07:58:05.989Z</time></trkpt><trkpt lat="44.77569" lon="10.6177033"><ele>23.0</ele><time>2026-04-19T07:58:06.989Z</time></trkpt><trkpt lat="44.7757267" lon="10.617435"><ele>24.0</ele><time>2026-04-19T07:58:07.989Z</time></trkpt><trkpt lat="44.77576" lon="10.6171683"><ele>25.0</ele><time>2026-04-19T07:58:08.989Z</time></trkpt><trkpt lat="44.7757983" lon="10.6169"><ele>26.0</ele><time>2026-04-19T07:58:09.989Z</time></trkpt><trkpt lat="44.775835" lon="10.6166333"><ele>26.333333333333332</ele><time>2026-04-19T07:58:10.989Z</time></trkpt><trkpt lat="44.7758783" lon="10.6163683"><ele>26.666666666666664</ele><time>2026-04-19T07:58:11.989Z</time></trkpt><trkpt lat="44.7759183" lon="10.6160967"><ele>27.0</ele><time>2026-04-19T07:58:12.989Z</time></trkpt><trkpt lat="44.77596" lon="10.615825"><ele>27.0</ele><time>2026-04-19T07:58:13.989Z</time></trkpt><trkpt lat="44.7760017" lon="10.61555"><ele>27.0</ele><time>2026-04-19T07:58:14.989Z</time></trkpt><trkpt lat="44.7760417" lon="10.61527"><ele>27.0</ele><time>2026-04-19T07:58:15.989Z</time></trkpt><trkpt lat="44.776085" lon="10.614975"><ele>27.0</ele><time>2026-04-19T07:58:16.989Z</time></trkpt><trkpt lat="44.77612" lon="10.6146867"><ele>27.0</ele><time>2026-04-19T07:58:17.989Z</time></trkpt><trkpt lat="44.7761633" lon="10.6144"><ele>27.0</ele><time>2026-04-19T07:58:18.989Z</time></trkpt><trkpt lat="44.7762" lon="10.6141067"><ele>27.0</ele><time>2026-04-19T07:58:19.989Z</time></trkpt><trkpt lat="44.776245" lon="10.61382"><ele>27.0</ele><time>2026-04-19T07:58:20.989Z</time></trkpt><trkpt lat="44.776285" lon="10.6135317"><ele>27.0</ele><time>2026-04-19T07:58:21.99Z</time></trkpt><trkpt lat="44.77633" lon="10.6132367"><ele>27.333333333333336</ele><time>2026-04-19T07:58:22.989Z</time></trkpt><trkpt lat="44.7763733" lon="10.6129483"><ele>27.666666666666668</ele><time>2026-04-19T07:58:23.989Z</time></trkpt><trkpt lat="44.7764167" lon="10.6126617"><ele>28.0</ele><time>2026-04-19T07:58:24.989Z</time></trkpt><trkpt lat="44.7764633" lon="10.6123733"><ele>28.0</ele><time>2026-04-19T07:58:25.989Z</time></trkpt><trkpt lat="44.7765017" lon="10.6120933"><ele>28.0</ele><time>2026-04-19T07:58:26.989Z</time></trkpt><trkpt lat="44.7765433" lon="10.6118167"><ele>28.0</ele><time>2026-04-19T07:58:27.989Z</time></trkpt><trkpt lat="44.776585" lon="10.611535"><ele>28.0</ele><time>2026-04-19T07:58:28.989Z</time></trkpt><trkpt lat="44.776625" lon="10.6112483"><ele>28.0</ele><time>2026-04-19T07:58:29.989Z</time></trkpt><trkpt lat="44.7766617" lon="10.6109617"><ele>28.0</ele><time>2026-04-19T07:58:30.989Z</time></trkpt><trkpt lat="44.7766983" lon="10.6106817"><ele>28.0</ele><time>2026-04-19T07:58:31.989Z</time></trkpt><trkpt lat="44.77674" lon="10.6103983"><ele>28.0</ele><time>2026-04-19T07:58:32.989Z</time></trkpt><trkpt lat="44.77678" lon="10.6101217"><ele>28.0</ele><time>2026-04-19T07:58:33.989Z</time></trkpt><trkpt lat="44.7768167" lon="10.60986"><ele>28.0</ele><time>2026-04-19T07:58:34.989Z</time></trkpt><trkpt lat="44.7768533" lon="10.609615"><ele>28.0</ele><time>2026-04-19T07:58:35.989Z</time></trkpt><trkpt lat="44.776885" lon="10.6093783"><ele>28.0</ele><time>2026-04-19T07:58:36.989Z</time></trkpt><trkpt lat="44.7769183" lon="10.60915"><ele>28.0</ele><time>2026-04-19T07:58:37.989Z</time></trkpt><trkpt lat="44.7769517" lon="10.6089267"><ele>28.0</ele><time>2026-04-19T07:58:38.989Z</time></trkpt><trkpt lat="44.7769817" lon="10.6087083"><ele>28.0</ele><time>2026-04-19T07:58:39.989Z</time></trkpt><trkpt lat="44.7770117" lon="10.6084983"><ele>28.5</ele><time>2026-04-19T07:58:40.989Z</time></trkpt><trkpt lat="44.7770433" lon="10.608295"><ele>29.0</ele><time>2026-04-19T07:58:41.989Z</time></trkpt><trkpt lat="44.777075" lon="10.608105"><ele>29.5</ele><time>2026-04-19T07:58:42.989Z</time></trkpt><trkpt lat="44.7771017" lon="10.6079233"><ele>30.0</ele><time>2026-04-19T07:58:43.989Z</time></trkpt><trkpt lat="44.777125" lon="10.6077467"><ele>30.2</ele><time>2026-04-19T07:58:44.989Z</time></trkpt><trkpt lat="44.7771417" lon="10.6075867"><ele>30.4</ele><time>2026-04-19T07:58:45.989Z</time></trkpt><trkpt lat="44.77717" lon="10.6074467"><ele>30.6</ele><time>2026-04-19T07:58:46.989Z</time></trkpt><trkpt lat="44.7771833" lon="10.6073133"><ele>30.8</ele><time>2026-04-19T07:58:47.989Z</time></trkpt><trkpt lat="44.7772017" lon="10.6071817"><ele>31.0</ele><time>2026-04-19T07:58:48.989Z</time></trkpt><trkpt lat="44.777225" lon="10.6070633"><ele>31.0</ele><time>2026-04-19T07:58:49.989Z</time></trkpt><trkpt lat="44.7772567" lon="10.60697"><ele>31.0</ele><time>2026-04-19T07:58:50.989Z</time></trkpt><trkpt lat="44.7772817" lon="10.60688"><ele>31.0</ele><time>2026-04-19T07:58:51.989Z</time></trkpt><trkpt lat="44.7772583" lon="10.60673"><ele>31.0</ele><time>2026-04-19T07:58:53.989Z</time></trkpt><trkpt lat="44.7771367" lon="10.60666"><ele>31.0</ele><time>2026-04-19T07:58:55.989Z</time></trkpt><trkpt lat="44.7770133" lon="10.6066367"><ele>31.0</ele><time>2026-04-19T07:58:56.989Z</time></trkpt><trkpt lat="44.7768633" lon="10.6066033"><ele>31.0</ele><time>2026-04-19T07:58:57.989Z</time></trkpt><trkpt lat="44.7767033" lon="10.6065567"><ele>31.0</ele><time>2026-04-19T07:58:58.989Z</time></trkpt><trkpt lat="44.77654" lon="10.606505"><ele>31.333333333333336</ele><time>2026-04-19T07:58:59.989Z</time></trkpt><trkpt lat="44.7763667" lon="10.606445"><ele>31.666666666666664</ele><time>2026-04-19T07:59:00.989Z</time></trkpt><trkpt lat="44.7761933" lon="10.60638"><ele>32.0</ele><time>2026-04-19T07:59:01.989Z</time></trkpt><trkpt lat="44.7760183" lon="10.6063117"><ele>32.0</ele><time>2026-04-19T07:59:02.989Z</time></trkpt><trkpt lat="44.77586" lon="10.6062417"><ele>32.0</ele><time>2026-04-19T07:59:03.989Z</time></trkpt><trkpt lat="44.7757083" lon="10.6061417"><ele>32.0</ele><time>2026-04-19T07:59:04.989Z</time></trkpt><trkpt lat="44.7755617" lon="10.6060483"><ele>31.666666666666664</ele><time>2026-04-19T07:59:05.989Z</time></trkpt><trkpt lat="44.7754117" lon="10.6059517"><ele>31.333333333333336</ele><time>2026-04-19T07:59:06.989Z</time></trkpt><trkpt lat="44.775265" lon="10.605865"><ele>31.0</ele><time>2026-04-19T07:59:07.989Z</time></trkpt><trkpt lat="44.77511" lon="10.60577"><ele>31.666666666666668</ele><time>2026-04-19T07:59:08.989Z</time></trkpt><trkpt lat="44.77494" lon="10.6056983"><ele>32.333333333333336</ele><time>2026-04-19T07:59:09.989Z</time></trkpt><trkpt lat="44.774765" lon="10.60561"><ele>33.0</ele><time>2026-04-19T07:59:10.989Z</time></trkpt><trkpt lat="44.7745867" lon="10.6055317"><ele>33.0</ele><time>2026-04-19T07:59:11.989Z</time></trkpt><trkpt lat="44.774425" lon="10.60545"><ele>33.0</ele><time>2026-04-19T07:59:12.99Z</time></trkpt><trkpt lat="44.7742583" lon="10.6053733"><ele>33.0</ele><time>2026-04-19T07:59:13.989Z</time></trkpt><trkpt lat="44.7740983" lon="10.6052817"><ele>32.666666666666664</ele><time>2026-04-19T07:59:14.99Z</time></trkpt><trkpt lat="44.7739317" lon="10.6052033"><ele>32.33333333333333</ele><time>2026-04-19T07:59:15.989Z</time></trkpt><trkpt lat="44.7737617" lon="10.6051283"><ele>32.0</ele><time>2026-04-19T07:59:16.989Z</time></trkpt><trkpt lat="44.77359" lon="10.6050633"><ele>32.0</ele><time>2026-04-19T07:59:17.989Z</time></trkpt><trkpt lat="44.77342" lon="10.6049933"><ele>32.0</ele><time>2026-04-19T07:59:18.989Z</time></trkpt><trkpt lat="44.7732483" lon="10.6049167"><ele>32.0</ele><time>2026-04-19T07:59:19.989Z</time></trkpt><trkpt lat="44.7730733" lon="10.6048233"><ele>32.0</ele><time>2026-04-19T07:59:20.989Z</time></trkpt><trkpt lat="44.77289" lon="10.6047367"><ele>32.0</ele><time>2026-04-19T07:59:21.99Z</time></trkpt><trkpt lat="44.7726917" lon="10.6046683"><ele>32.0</ele><time>2026-04-19T07:59:22.989Z</time></trkpt><trkpt lat="44.772495" lon="10.6045967"><ele>32.0</ele><time>2026-04-19T07:59:23.989Z</time></trkpt><trkpt lat="44.7722983" lon="10.6045133"><ele>32.0</ele><time>2026-04-19T07:59:24.989Z</time></trkpt><trkpt lat="44.7721017" lon="10.6044333"><ele>32.0</ele><time>2026-04-19T07:59:25.989Z</time></trkpt><trkpt lat="44.7718933" lon="10.6043633"><ele>32.0</ele><time>2026-04-19T07:59:26.989Z</time></trkpt><trkpt lat="44.7716933" lon="10.6042867"><ele>32.0</ele><time>2026-04-19T07:59:27.989Z</time></trkpt><trkpt lat="44.7714967" lon="10.6042117"><ele>32.0</ele><time>2026-04-19T07:59:28.989Z</time></trkpt><trkpt lat="44.7712967" lon="10.6041283"><ele>32.0</ele><time>2026-04-19T07:59:29.989Z</time></trkpt><trkpt lat="44.77109" lon="10.6040483"><ele>32.0</ele><time>2026-04-19T07:59:30.989Z</time></trkpt><trkpt lat="44.7708883" lon="10.6039683"><ele>32.0</ele><time>2026-04-19T07:59:31.989Z</time></trkpt><trkpt lat="44.770685" lon="10.603885"><ele>32.33333333333333</ele><time>2026-04-19T07:59:32.989Z</time></trkpt><trkpt lat="44.7704883" lon="10.6038133"><ele>32.666666666666664</ele><time>2026-04-19T07:59:33.989Z</time></trkpt><trkpt lat="44.7702967" lon="10.60374"><ele>33.0</ele><time>2026-04-19T07:59:34.989Z</time></trkpt><trkpt lat="44.7701133" lon="10.6036617"><ele>33.0</ele><time>2026-04-19T07:59:35.989Z</time></trkpt><trkpt lat="44.76992" lon="10.6035867"><ele>33.0</ele><time>2026-04-19T07:59:36.989Z</time></trkpt><trkpt lat="44.7697217" lon="10.603525"><ele>33.0</ele><time>2026-04-19T07:59:37.989Z</time></trkpt><trkpt lat="44.76954" lon="10.6034467"><ele>33.0</ele><time>2026-04-19T07:59:38.989Z</time></trkpt><trkpt lat="44.769365" lon="10.6033717"><ele>33.0</ele><time>2026-04-19T07:59:39.989Z</time></trkpt><trkpt lat="44.7691983" lon="10.6032967"><ele>33.0</ele><time>2026-04-19T07:59:40.989Z</time></trkpt><trkpt lat="44.7690333" lon="10.6032333"><ele>33.0</ele><time>2026-04-19T07:59:41.989Z</time></trkpt><trkpt lat="44.7688717" lon="10.6031767"><ele>33.0</ele><time>2026-04-19T07:59:42.989Z</time></trkpt><trkpt lat="44.7687133" lon="10.603125"><ele>33.0</ele><time>2026-04-19T07:59:43.989Z</time></trkpt><trkpt lat="44.768565" lon="10.6030783"><ele>33.0</ele><time>2026-04-19T07:59:44.989Z</time></trkpt><trkpt lat="44.7684317" lon="10.6030283"><ele>33.0</ele><time>2026-04-19T07:59:45.989Z</time></trkpt><trkpt lat="44.7683067" lon="10.6029883"><ele>33.0</ele><time>2026-04-19T07:59:46.989Z</time></trkpt><trkpt lat="44.7681883" lon="10.6029567"><ele>33.0</ele><time>2026-04-19T07:59:47.989Z</time></trkpt><trkpt lat="44.7680767" lon="10.6029233"><ele>33.0</ele><time>2026-04-19T07:59:48.989Z</time></trkpt><trkpt lat="44.7679817" lon="10.60289"><ele>33.0</ele><time>2026-04-19T07:59:49.989Z</time></trkpt><trkpt lat="44.7679" lon="10.6028417"><ele>33.0</ele><time>2026-04-19T07:59:50.989Z</time></trkpt><trkpt lat="44.767825" lon="10.60278"><ele>33.0</ele><time>2026-04-19T07:59:51.99Z</time></trkpt><trkpt lat="44.76774" lon="10.6027483"><ele>33.0</ele><time>2026-04-19T07:59:52.989Z</time></trkpt><trkpt lat="44.7676383" lon="10.6027483"><ele>33.25</ele><time>2026-04-19T07:59:53.989Z</time></trkpt><trkpt lat="44.76751" lon="10.60274"><ele>33.5</ele><time>2026-04-19T07:59:54.989Z</time></trkpt><trkpt lat="44.7673633" lon="10.6027217"><ele>33.75</ele><time>2026-04-19T07:59:55.989Z</time></trkpt><trkpt lat="44.7672183" lon="10.6026667"><ele>34.0</ele><time>2026-04-19T07:59:56.989Z</time></trkpt><trkpt lat="44.7670683" lon="10.60262"><ele>34.0</ele><time>2026-04-19T07:59:57.989Z</time></trkpt><trkpt lat="44.76692" lon="10.6025733"><ele>34.0</ele><time>2026-04-19T07:59:58.989Z</time></trkpt><trkpt lat="44.7667717" lon="10.60251"><ele>34.0</ele><time>2026-04-19T07:59:59.989Z</time></trkpt><trkpt lat="44.7666183" lon="10.602445"><ele>34.66666666666667</ele><time>2026-04-19T08:00:00.989Z</time></trkpt><trkpt lat="44.76646" lon="10.6023683"><ele>35.333333333333336</ele><time>2026-04-19T08:00:01.989Z</time></trkpt><trkpt lat="44.7663017" lon="10.6022833"><ele>36.0</ele><time>2026-04-19T08:00:02.989Z</time></trkpt><trkpt lat="44.7661417" lon="10.6022083"><ele>36.0</ele><time>2026-04-19T08:00:03.989Z</time></trkpt><trkpt lat="44.765975" lon="10.6021183"><ele>36.0</ele><time>2026-04-19T08:00:04.989Z</time></trkpt><trkpt lat="44.76581" lon="10.602025"><ele>36.0</ele><time>2026-04-19T08:00:05.989Z</time></trkpt><trkpt lat="44.76565" lon="10.601935"><ele>35.666666666666664</ele><time>2026-04-19T08:00:06.989Z</time></trkpt><trkpt lat="44.76549" lon="10.60184"><ele>35.33333333333333</ele><time>2026-04-19T08:00:07.989Z</time></trkpt><trkpt lat="44.76532" lon="10.6017567"><ele>35.0</ele><time>2026-04-19T08:00:08.989Z</time></trkpt><trkpt lat="44.76516" lon="10.60166"><ele>35.666666666666664</ele><time>2026-04-19T08:00:09.989Z</time></trkpt><trkpt lat="44.764995" lon="10.601575"><ele>36.333333333333336</ele><time>2026-04-19T08:00:10.989Z</time></trkpt><trkpt lat="44.7648433" lon="10.6014833"><ele>37.0</ele><time>2026-04-19T08:00:11.989Z</time></trkpt><trkpt lat="44.764675" lon="10.6013983"><ele>37.0</ele><time>2026-04-19T08:00:12.989Z</time></trkpt><trkpt lat="44.7645133" lon="10.6013217"><ele>37.0</ele><time>2026-04-19T08:00:13.989Z</time></trkpt><trkpt lat="44.764345" lon="10.6012433"><ele>37.0</ele><time>2026-04-19T08:00:14.989Z</time></trkpt><trkpt lat="44.764175" lon="10.60118"><ele>36.0</ele><time>2026-04-19T08:00:15.989Z</time></trkpt><trkpt lat="44.7640133" lon="10.6011183"><ele>35.0</ele><time>2026-04-19T08:00:16.989Z</time></trkpt><trkpt lat="44.763855" lon="10.6010483"><ele>34.0</ele><time>2026-04-19T08:00:17.989Z</time></trkpt><trkpt lat="44.7637" lon="10.600985"><ele>34.0</ele><time>2026-04-19T08:00:18.989Z</time></trkpt><trkpt lat="44.763545" lon="10.600925"><ele>34.0</ele><time>2026-04-19T08:00:19.989Z</time></trkpt><trkpt lat="44.763395" lon="10.6008617"><ele>34.0</ele><time>2026-04-19T08:00:20.989Z</time></trkpt><trkpt lat="44.763255" lon="10.6008033"><ele>34.25</ele><time>2026-04-19T08:00:21.989Z</time></trkpt><trkpt lat="44.7631333" lon="10.60075"><ele>34.5</ele><time>2026-04-19T08:00:22.989Z</time></trkpt><trkpt lat="44.7629933" lon="10.600705"><ele>34.75</ele><time>2026-04-19T08:00:23.989Z</time></trkpt><trkpt lat="44.7628717" lon="10.600635"><ele>35.0</ele><time>2026-04-19T08:00:24.989Z</time></trkpt><trkpt lat="44.7627683" lon="10.6005917"><ele>34.83333333333333</ele><time>2026-04-19T08:00:25.989Z</time></trkpt><trkpt lat="44.7626817" lon="10.6005583"><ele>34.666666666666664</ele><time>2026-04-19T08:00:26.989Z</time></trkpt><trkpt lat="44.7626083" lon="10.6005217"><ele>34.5</ele><time>2026-04-19T08:00:27.989Z</time></trkpt><trkpt lat="44.7625483" lon="10.6004683"><ele>34.333333333333336</ele><time>2026-04-19T08:00:28.989Z</time></trkpt><trkpt lat="44.7625" lon="10.6004033"><ele>34.16666666666667</ele><time>2026-04-19T08:00:29.989Z</time></trkpt><trkpt lat="44.7624717" lon="10.6002983"><ele>34.0</ele><time>2026-04-19T08:00:30.989Z</time></trkpt><trkpt lat="44.76248" lon="10.60015"><ele>34.0</ele><time>2026-04-19T08:00:31.989Z</time></trkpt><trkpt lat="44.762505" lon="10.599985"><ele>34.0</ele><time>2026-04-19T08:00:32.989Z</time></trkpt><trkpt lat="44.762555" lon="10.5998"><ele>34.0</ele><time>2026-04-19T08:00:33.989Z</time></trkpt><trkpt lat="44.7626067" lon="10.5996183"><ele>34.0</ele><time>2026-04-19T08:00:34.989Z</time></trkpt><trkpt lat="44.7626467" lon="10.5994467"><ele>34.0</ele><time>2026-04-19T08:00:35.989Z</time></trkpt><trkpt lat="44.762675" lon="10.5992917"><ele>34.0</ele><time>2026-04-19T08:00:36.989Z</time></trkpt><trkpt lat="44.7627033" lon="10.5991433"><ele>34.0</ele><time>2026-04-19T08:00:37.989Z</time></trkpt><trkpt lat="44.7627283" lon="10.5990033"><ele>34.0</ele><time>2026-04-19T08:00:38.989Z</time></trkpt><trkpt lat="44.762745" lon="10.5988617"><ele>34.0</ele><time>2026-04-19T08:00:39.989Z</time></trkpt><trkpt lat="44.7627683" lon="10.5987067"><ele>34.2</ele><time>2026-04-19T08:00:40.989Z</time></trkpt><trkpt lat="44.762795" lon="10.59856"><ele>34.4</ele><time>2026-04-19T08:00:41.989Z</time></trkpt><trkpt lat="44.7628217" lon="10.5984167"><ele>34.6</ele><time>2026-04-19T08:00:42.989Z</time></trkpt><trkpt lat="44.7628433" lon="10.5982667"><ele>34.8</ele><time>2026-04-19T08:00:43.989Z</time></trkpt><trkpt lat="44.7628683" lon="10.5981083"><ele>35.0</ele><time>2026-04-19T08:00:44.989Z</time></trkpt><trkpt lat="44.762895" lon="10.5979517"><ele>35.0</ele><time>2026-04-19T08:00:45.989Z</time></trkpt><trkpt lat="44.762925" lon="10.5977833"><ele>35.0</ele><time>2026-04-19T08:00:46.989Z</time></trkpt><trkpt lat="44.762955" lon="10.5976133"><ele>35.0</ele><time>2026-04-19T08:00:47.989Z</time></trkpt><trkpt lat="44.7629767" lon="10.5974633"><ele>35.0</ele><time>2026-04-19T08:00:48.989Z</time></trkpt><trkpt lat="44.7630033" lon="10.597325"><ele>35.0</ele><time>2026-04-19T08:00:49.989Z</time></trkpt><trkpt lat="44.763015" lon="10.5971883"><ele>35.0</ele><time>2026-04-19T08:00:50.989Z</time></trkpt><trkpt lat="44.7630267" lon="10.5970517"><ele>35.0</ele><time>2026-04-19T08:00:51.989Z</time></trkpt><trkpt lat="44.7630517" lon="10.59691"><ele>35.0</ele><time>2026-04-19T08:00:52.989Z</time></trkpt><trkpt lat="44.763075" lon="10.5967683"><ele>35.0</ele><time>2026-04-19T08:00:53.989Z</time></trkpt><trkpt lat="44.7631083" lon="10.5966333"><ele>34.8</ele><time>2026-04-19T08:00:54.989Z</time></trkpt><trkpt lat="44.7631283" lon="10.5964967"><ele>34.6</ele><time>2026-04-19T08:00:55.989Z</time></trkpt><trkpt lat="44.76316" lon="10.59637"><ele>34.4</ele><time>2026-04-19T08:00:56.989Z</time></trkpt><trkpt lat="44.7631883" lon="10.59625"><ele>34.2</ele><time>2026-04-19T08:00:57.99Z</time></trkpt><trkpt lat="44.7632117" lon="10.5961333"><ele>34.0</ele><time>2026-04-19T08:00:58.989Z</time></trkpt><trkpt lat="44.7632367" lon="10.5960133"><ele>34.0</ele><time>2026-04-19T08:00:59.989Z</time></trkpt><trkpt lat="44.7632483" lon="10.5958733"><ele>34.0</ele><time>2026-04-19T08:01:00.989Z</time></trkpt><trkpt lat="44.7632617" lon="10.595715"><ele>34.0</ele><time>2026-04-19T08:01:01.989Z</time></trkpt><trkpt lat="44.7632833" lon="10.59556"><ele>34.0</ele><time>2026-04-19T08:01:02.989Z</time></trkpt><trkpt lat="44.763295" lon="10.59541"><ele>34.0</ele><time>2026-04-19T08:01:03.989Z</time></trkpt><trkpt lat="44.7633117" lon="10.595265"><ele>34.2</ele><time>2026-04-19T08:01:04.989Z</time></trkpt><trkpt lat="44.7633267" lon="10.595135"><ele>34.4</ele><time>2026-04-19T08:01:05.989Z</time></trkpt><trkpt lat="44.7633467" lon="10.5950017"><ele>34.6</ele><time>2026-04-19T08:01:06.989Z</time></trkpt><trkpt lat="44.7633583" lon="10.5948633"><ele>34.8</ele><time>2026-04-19T08:01:07.99Z</time></trkpt><trkpt lat="44.7633717" lon="10.59471"><ele>35.0</ele><time>2026-04-19T08:01:08.989Z</time></trkpt><trkpt lat="44.7633867" lon="10.594565"><ele>35.0</ele><time>2026-04-19T08:01:09.989Z</time></trkpt><trkpt lat="44.7634117" lon="10.5944183"><ele>35.0</ele><time>2026-04-19T08:01:10.989Z</time></trkpt><trkpt lat="44.7634417" lon="10.5942567"><ele>35.0</ele><time>2026-04-19T08:01:11.989Z</time></trkpt><trkpt lat="44.7634717" lon="10.594105"><ele>35.0</ele><time>2026-04-19T08:01:12.989Z</time></trkpt><trkpt lat="44.763495" lon="10.593965"><ele>35.0</ele><time>2026-04-19T08:01:13.989Z</time></trkpt><trkpt lat="44.763515" lon="10.5938167"><ele>34.6</ele><time>2026-04-19T08:01:14.989Z</time></trkpt><trkpt lat="44.7635433" lon="10.5936717"><ele>34.2</ele><time>2026-04-19T08:01:15.989Z</time></trkpt><trkpt lat="44.7635717" lon="10.593525"><ele>33.8</ele><time>2026-04-19T08:01:16.989Z</time></trkpt><trkpt lat="44.763605" lon="10.5933783"><ele>33.4</ele><time>2026-04-19T08:01:17.989Z</time></trkpt><trkpt lat="44.7636267" lon="10.59323"><ele>33.0</ele><time>2026-04-19T08:01:18.989Z</time></trkpt><trkpt lat="44.76365" lon="10.5930617"><ele>33.0</ele><time>2026-04-19T08:01:19.989Z</time></trkpt><trkpt lat="44.76369" lon="10.59288"><ele>33.0</ele><time>2026-04-19T08:01:20.989Z</time></trkpt><trkpt lat="44.7637267" lon="10.59271"><ele>33.0</ele><time>2026-04-19T08:01:21.989Z</time></trkpt><trkpt lat="44.7637567" lon="10.5925317"><ele>33.0</ele><time>2026-04-19T08:01:22.989Z</time></trkpt><trkpt lat="44.7637883" lon="10.592345"><ele>33.25</ele><time>2026-04-19T08:01:23.989Z</time></trkpt><trkpt lat="44.7638183" lon="10.59218"><ele>33.5</ele><time>2026-04-19T08:01:24.989Z</time></trkpt><trkpt lat="44.7638617" lon="10.5920267"><ele>33.75</ele><time>2026-04-19T08:01:25.989Z</time></trkpt><trkpt lat="44.7639133" lon="10.591875"><ele>34.0</ele><time>2026-04-19T08:01:26.989Z</time></trkpt><trkpt lat="44.7639867" lon="10.59173"><ele>34.0</ele><time>2026-04-19T08:01:27.989Z</time></trkpt><trkpt lat="44.7640833" lon="10.5915817"><ele>34.0</ele><time>2026-04-19T08:01:28.989Z</time></trkpt><trkpt lat="44.7641783" lon="10.59144"><ele>34.0</ele><time>2026-04-19T08:01:29.989Z</time></trkpt><trkpt lat="44.7642783" lon="10.5912833"><ele>34.0</ele><time>2026-04-19T08:01:30.989Z</time></trkpt><trkpt lat="44.7643883" lon="10.59112"><ele>33.333333333333336</ele><time>2026-04-19T08:01:31.989Z</time></trkpt><trkpt lat="44.7645033" lon="10.59095"><ele>32.666666666666664</ele><time>2026-04-19T08:01:32.989Z</time></trkpt><trkpt lat="44.7646267" lon="10.590765"><ele>32.0</ele><time>2026-04-19T08:01:33.989Z</time></trkpt><trkpt lat="44.7647583" lon="10.5905867"><ele>32.0</ele><time>2026-04-19T08:01:34.989Z</time></trkpt><trkpt lat="44.764885" lon="10.5904067"><ele>32.0</ele><time>2026-04-19T08:01:35.989Z</time></trkpt><trkpt lat="44.765005" lon="10.590235"><ele>32.0</ele><time>2026-04-19T08:01:36.989Z</time></trkpt><trkpt lat="44.76512" lon="10.59006"><ele>31.666666666666664</ele><time>2026-04-19T08:01:37.989Z</time></trkpt><trkpt lat="44.7652417" lon="10.5898883"><ele>31.333333333333336</ele><time>2026-04-19T08:01:38.989Z</time></trkpt><trkpt lat="44.7653583" lon="10.58971"><ele>31.0</ele><time>2026-04-19T08:01:39.989Z</time></trkpt><trkpt lat="44.7654783" lon="10.5895267"><ele>31.0</ele><time>2026-04-19T08:01:40.989Z</time></trkpt><trkpt lat="44.7656017" lon="10.589345"><ele>31.0</ele><time>2026-04-19T08:01:41.989Z</time></trkpt><trkpt lat="44.76572" lon="10.5891517"><ele>31.0</ele><time>2026-04-19T08:01:42.989Z</time></trkpt><trkpt lat="44.7658417" lon="10.58895"><ele>31.0</ele><time>2026-04-19T08:01:43.989Z</time></trkpt><trkpt lat="44.765955" lon="10.588755"><ele>31.0</ele><time>2026-04-19T08:01:44.989Z</time></trkpt><trkpt lat="44.7660617" lon="10.5885733"><ele>31.0</ele><time>2026-04-19T08:01:45.989Z</time></trkpt><trkpt lat="44.7661567" lon="10.5884033"><ele>31.666666666666668</ele><time>2026-04-19T08:01:46.989Z</time></trkpt><trkpt lat="44.76625" lon="10.5882317"><ele>32.333333333333336</ele><time>2026-04-19T08:01:47.989Z</time></trkpt><trkpt lat="44.76634" lon="10.5880633"><ele>33.0</ele><time>2026-04-19T08:01:48.989Z</time></trkpt><trkpt lat="44.76643" lon="10.587885"><ele>32.666666666666664</ele><time>2026-04-19T08:01:49.989Z</time></trkpt><trkpt lat="44.76653" lon="10.5877"><ele>32.33333333333333</ele><time>2026-04-19T08:01:50.989Z</time></trkpt><trkpt lat="44.7666317" lon="10.5875"><ele>32.0</ele><time>2026-04-19T08:01:51.989Z</time></trkpt><trkpt lat="44.7667367" lon="10.58731"><ele>32.0</ele><time>2026-04-19T08:01:52.989Z</time></trkpt><trkpt lat="44.7668417" lon="10.5871017"><ele>32.0</ele><time>2026-04-19T08:01:53.989Z</time></trkpt><trkpt lat="44.7669433" lon="10.5868883"><ele>32.0</ele><time>2026-04-19T08:01:54.989Z</time></trkpt><trkpt lat="44.767045" lon="10.5866817"><ele>31.666666666666664</ele><time>2026-04-19T08:01:55.989Z</time></trkpt><trkpt lat="44.7671417" lon="10.5864717"><ele>31.333333333333336</ele><time>2026-04-19T08:01:56.989Z</time></trkpt><trkpt lat="44.7672483" lon="10.5862583"><ele>31.0</ele><time>2026-04-19T08:01:57.989Z</time></trkpt><trkpt lat="44.7673617" lon="10.586045"><ele>31.666666666666668</ele><time>2026-04-19T08:01:58.989Z</time></trkpt><trkpt lat="44.7674783" lon="10.58582"><ele>32.333333333333336</ele><time>2026-04-19T08:01:59.989Z</time></trkpt><trkpt lat="44.7675833" lon="10.5855867"><ele>33.0</ele><time>2026-04-19T08:02:00.989Z</time></trkpt><trkpt lat="44.7676933" lon="10.5853533"><ele>32.333333333333336</ele><time>2026-04-19T08:02:01.989Z</time></trkpt><trkpt lat="44.7677917" lon="10.585145"><ele>31.666666666666668</ele><time>2026-04-19T08:02:02.989Z</time></trkpt><trkpt lat="44.7678867" lon="10.5849417"><ele>31.0</ele><time>2026-04-19T08:02:03.989Z</time></trkpt><trkpt lat="44.767975" lon="10.5847483"><ele>31.0</ele><time>2026-04-19T08:02:04.989Z</time></trkpt><trkpt lat="44.7680633" lon="10.584565"><ele>31.0</ele><time>2026-04-19T08:02:05.989Z</time></trkpt><trkpt lat="44.7681467" lon="10.5843983"><ele>31.0</ele><time>2026-04-19T08:02:06.989Z</time></trkpt><trkpt lat="44.7682233" lon="10.5842217"><ele>31.0</ele><time>2026-04-19T08:02:07.989Z</time></trkpt><trkpt lat="44.7682933" lon="10.584085"><ele>30.8</ele><time>2026-04-19T08:02:08.989Z</time></trkpt><trkpt lat="44.76836" lon="10.5839583"><ele>30.6</ele><time>2026-04-19T08:02:09.989Z</time></trkpt><trkpt lat="44.768425" lon="10.5838283"><ele>30.4</ele><time>2026-04-19T08:02:10.989Z</time></trkpt><trkpt lat="44.7684833" lon="10.5837067"><ele>30.2</ele><time>2026-04-19T08:02:11.989Z</time></trkpt><trkpt lat="44.768515" lon="10.5836067"><ele>30.0</ele><time>2026-04-19T08:02:12.989Z</time></trkpt><trkpt lat="44.7685367" lon="10.5835117"><ele>29.833333333333332</ele><time>2026-04-19T08:02:13.989Z</time></trkpt><trkpt lat="44.7685733" lon="10.5834067"><ele>29.666666666666664</ele><time>2026-04-19T08:02:14.989Z</time></trkpt><trkpt lat="44.7686233" lon="10.5833167"><ele>29.5</ele><time>2026-04-19T08:02:15.99Z</time></trkpt><trkpt lat="44.7686733" lon="10.5832083"><ele>29.333333333333332</ele><time>2026-04-19T08:02:16.989Z</time></trkpt><trkpt lat="44.7687033" lon="10.5830883"><ele>29.166666666666664</ele><time>2026-04-19T08:02:17.989Z</time></trkpt><trkpt lat="44.76871" lon="10.5829483"><ele>29.0</ele><time>2026-04-19T08:02:18.989Z</time></trkpt><trkpt lat="44.768705" lon="10.5828033"><ele>29.0</ele><time>2026-04-19T08:02:19.989Z</time></trkpt><trkpt lat="44.7687267" lon="10.5826417"><ele>29.0</ele><time>2026-04-19T08:02:20.989Z</time></trkpt><trkpt lat="44.76879" lon="10.5824817"><ele>29.0</ele><time>2026-04-19T08:02:21.989Z</time></trkpt><trkpt lat="44.768875" lon="10.5823333"><ele>29.0</ele><time>2026-04-19T08:02:22.989Z</time></trkpt><trkpt lat="44.76899" lon="10.5821883"><ele>29.0</ele><time>2026-04-19T08:02:23.989Z</time></trkpt><trkpt lat="44.769135" lon="10.5820383"><ele>29.0</ele><time>2026-04-19T08:02:24.989Z</time></trkpt><trkpt lat="44.7692917" lon="10.5818933"><ele>29.0</ele><time>2026-04-19T08:02:25.989Z</time></trkpt><trkpt lat="44.7694567" lon="10.58173"><ele>29.0</ele><time>2026-04-19T08:02:26.989Z</time></trkpt><trkpt lat="44.769625" lon="10.5815683"><ele>29.0</ele><time>2026-04-19T08:02:27.989Z</time></trkpt><trkpt lat="44.7697867" lon="10.58142"><ele>29.0</ele><time>2026-04-19T08:02:28.989Z</time></trkpt><trkpt lat="44.7699533" lon="10.5812683"><ele>29.0</ele><time>2026-04-19T08:02:29.989Z</time></trkpt><trkpt lat="44.7701167" lon="10.5811333"><ele>29.0</ele><time>2026-04-19T08:02:30.989Z</time></trkpt><trkpt lat="44.77027" lon="10.581005"><ele>29.0</ele><time>2026-04-19T08:02:31.989Z</time></trkpt><trkpt lat="44.7704117" lon="10.5808733"><ele>28.333333333333332</ele><time>2026-04-19T08:02:32.989Z</time></trkpt><trkpt lat="44.770555" lon="10.5807333"><ele>27.666666666666664</ele><time>2026-04-19T08:02:33.989Z</time></trkpt><trkpt lat="44.7707067" lon="10.5805983"><ele>27.0</ele><time>2026-04-19T08:02:34.989Z</time></trkpt><trkpt lat="44.7708583" lon="10.5804733"><ele>28.666666666666664</ele><time>2026-04-19T08:02:35.989Z</time></trkpt><trkpt lat="44.771" lon="10.5803467"><ele>30.333333333333332</ele><time>2026-04-19T08:02:36.989Z</time></trkpt><trkpt lat="44.7711433" lon="10.5802233"><ele>32.0</ele><time>2026-04-19T08:02:37.989Z</time></trkpt><trkpt lat="44.77129" lon="10.5800967"><ele>32.0</ele><time>2026-04-19T08:02:38.989Z</time></trkpt><trkpt lat="44.7714367" lon="10.57996"><ele>32.0</ele><time>2026-04-19T08:02:39.989Z</time></trkpt><trkpt lat="44.771595" lon="10.5798233"><ele>32.0</ele><time>2026-04-19T08:02:40.989Z</time></trkpt><trkpt lat="44.7717667" lon="10.5797"><ele>32.0</ele><time>2026-04-19T08:02:41.989Z</time></trkpt><trkpt lat="44.77195" lon="10.5795967"><ele>32.0</ele><time>2026-04-19T08:02:42.989Z</time></trkpt><trkpt lat="44.7721417" lon="10.57949"><ele>32.0</ele><time>2026-04-19T08:02:43.989Z</time></trkpt><trkpt lat="44.7723433" lon="10.5793917"><ele>32.0</ele><time>2026-04-19T08:02:44.989Z</time></trkpt><trkpt lat="44.7725567" lon="10.5792933"><ele>32.0</ele><time>2026-04-19T08:02:45.989Z</time></trkpt><trkpt lat="44.77278" lon="10.5791883"><ele>31.666666666666664</ele><time>2026-04-19T08:02:46.989Z</time></trkpt><trkpt lat="44.772995" lon="10.5790833"><ele>31.333333333333336</ele><time>2026-04-19T08:02:47.989Z</time></trkpt><trkpt lat="44.7731917" lon="10.578995"><ele>31.0</ele><time>2026-04-19T08:02:48.989Z</time></trkpt><trkpt lat="44.7733767" lon="10.5789167"><ele>30.333333333333336</ele><time>2026-04-19T08:02:49.989Z</time></trkpt><trkpt lat="44.7735417" lon="10.5788417"><ele>29.666666666666664</ele><time>2026-04-19T08:02:50.989Z</time></trkpt><trkpt lat="44.7737033" lon="10.5787733"><ele>29.0</ele><time>2026-04-19T08:02:51.989Z</time></trkpt><trkpt lat="44.77385" lon="10.5787117"><ele>29.0</ele><time>2026-04-19T08:02:52.989Z</time></trkpt><trkpt lat="44.77399" lon="10.5786467"><ele>29.0</ele><time>2026-04-19T08:02:53.989Z</time></trkpt><trkpt lat="44.774115" lon="10.578585"><ele>29.0</ele><time>2026-04-19T08:02:54.989Z</time></trkpt><trkpt lat="44.774245" lon="10.5785333"><ele>29.0</ele><time>2026-04-19T08:02:55.989Z</time></trkpt><trkpt lat="44.7743717" lon="10.578475"><ele>29.0</ele><time>2026-04-19T08:02:56.989Z</time></trkpt><trkpt lat="44.774495" lon="10.5784133"><ele>29.0</ele><time>2026-04-19T08:02:57.989Z</time></trkpt><trkpt lat="44.7746217" lon="10.57835"><ele>29.0</ele><time>2026-04-19T08:02:58.989Z</time></trkpt><trkpt lat="44.7747533" lon="10.5783133"><ele>29.0</ele><time>2026-04-19T08:02:59.989Z</time></trkpt><trkpt lat="44.7748883" lon="10.5783033"><ele>29.0</ele><time>2026-04-19T08:03:00.989Z</time></trkpt><trkpt lat="44.77503" lon="10.5783317"><ele>29.0</ele><time>2026-04-19T08:03:01.989Z</time></trkpt><trkpt lat="44.7751833" lon="10.5783917"><ele>29.0</ele><time>2026-04-19T08:03:02.989Z</time></trkpt><trkpt lat="44.7753383" lon="10.5785017"><ele>29.333333333333332</ele><time>2026-04-19T08:03:03.989Z</time></trkpt><trkpt lat="44.7754967" lon="10.5786317"><ele>29.666666666666664</ele><time>2026-04-19T08:03:04.989Z</time></trkpt><trkpt lat="44.7756567" lon="10.57877"><ele>30.0</ele><time>2026-04-19T08:03:05.989Z</time></trkpt><trkpt lat="44.77582" lon="10.57892"><ele>30.0</ele><time>2026-04-19T08:03:06.989Z</time></trkpt><trkpt lat="44.77599" lon="10.5790717"><ele>30.0</ele><time>2026-04-19T08:03:07.99Z</time></trkpt><trkpt lat="44.7761617" lon="10.579225"><ele>30.0</ele><time>2026-04-19T08:03:08.989Z</time></trkpt><trkpt lat="44.776335" lon="10.5793817"><ele>30.0</ele><time>2026-04-19T08:03:09.989Z</time></trkpt><trkpt lat="44.776515" lon="10.579535"><ele>30.0</ele><time>2026-04-19T08:03:10.989Z</time></trkpt><trkpt lat="44.7766867" lon="10.5796833"><ele>30.0</ele><time>2026-04-19T08:03:11.989Z</time></trkpt><trkpt lat="44.776855" lon="10.5798267"><ele>30.0</ele><time>2026-04-19T08:03:12.989Z</time></trkpt><trkpt lat="44.77702" lon="10.579975"><ele>30.0</ele><time>2026-04-19T08:03:13.989Z</time></trkpt><trkpt lat="44.77719" lon="10.580135"><ele>30.0</ele><time>2026-04-19T08:03:14.989Z</time></trkpt><trkpt lat="44.7773517" lon="10.5802833"><ele>29.666666666666664</ele><time>2026-04-19T08:03:15.989Z</time></trkpt><trkpt lat="44.777505" lon="10.58042"><ele>29.333333333333332</ele><time>2026-04-19T08:03:16.989Z</time></trkpt><trkpt lat="44.7776583" lon="10.580555"><ele>29.0</ele><time>2026-04-19T08:03:17.989Z</time></trkpt><trkpt lat="44.777815" lon="10.5806833"><ele>30.333333333333332</ele><time>2026-04-19T08:03:18.989Z</time></trkpt><trkpt lat="44.7779633" lon="10.5808083"><ele>31.666666666666664</ele><time>2026-04-19T08:03:19.989Z</time></trkpt><trkpt lat="44.7781017" lon="10.5809267"><ele>33.0</ele><time>2026-04-19T08:03:20.989Z</time></trkpt><trkpt lat="44.7782233" lon="10.5810333"><ele>33.0</ele><time>2026-04-19T08:03:21.989Z</time></trkpt><trkpt lat="44.778335" lon="10.5811267"><ele>33.0</ele><time>2026-04-19T08:03:22.989Z</time></trkpt><trkpt lat="44.7784367" lon="10.5812117"><ele>33.0</ele><time>2026-04-19T08:03:23.989Z</time></trkpt><trkpt lat="44.7785283" lon="10.5812867"><ele>33.0</ele><time>2026-04-19T08:03:24.989Z</time></trkpt><trkpt lat="44.7786117" lon="10.581345"><ele>33.0</ele><time>2026-04-19T08:03:25.989Z</time></trkpt><trkpt lat="44.7786917" lon="10.5813683"><ele>32.666666666666664</ele><time>2026-04-19T08:03:26.989Z</time></trkpt><trkpt lat="44.7787667" lon="10.58135"><ele>32.333333333333336</ele><time>2026-04-19T08:03:27.989Z</time></trkpt><trkpt lat="44.778835" lon="10.58128"><ele>32.0</ele><time>2026-04-19T08:03:28.989Z</time></trkpt><trkpt lat="44.7788883" lon="10.5812"><ele>31.666666666666668</ele><time>2026-04-19T08:03:29.989Z</time></trkpt><trkpt lat="44.7789283" lon="10.5811067"><ele>31.333333333333336</ele><time>2026-04-19T08:03:30.989Z</time></trkpt><trkpt lat="44.7789317" lon="10.5809333"><ele>31.0</ele><time>2026-04-19T08:03:32.989Z</time></trkpt><trkpt lat="44.778895" lon="10.5808533"><ele>30.75</ele><time>2026-04-19T08:03:33.989Z</time></trkpt><trkpt lat="44.7788133" lon="10.58077"><ele>30.5</ele><time>2026-04-19T08:03:34.989Z</time></trkpt><trkpt lat="44.778705" lon="10.5806617"><ele>30.25</ele><time>2026-04-19T08:03:35.989Z</time></trkpt><trkpt lat="44.778565" lon="10.580515"><ele>30.0</ele><time>2026-04-19T08:03:36.989Z</time></trkpt><trkpt lat="44.778415" lon="10.5803533"><ele>30.333333333333336</ele><time>2026-04-19T08:03:37.989Z</time></trkpt><trkpt lat="44.7782483" lon="10.580185"><ele>30.666666666666668</ele><time>2026-04-19T08:03:38.989Z</time></trkpt><trkpt lat="44.7780767" lon="10.5800083"><ele>31.0</ele><time>2026-04-19T08:03:39.99Z</time></trkpt><trkpt lat="44.777915" lon="10.5798367"><ele>31.0</ele><time>2026-04-19T08:03:40.989Z</time></trkpt><trkpt lat="44.7777567" lon="10.5796783"><ele>31.0</ele><time>2026-04-19T08:03:41.989Z</time></trkpt><trkpt lat="44.7775967" lon="10.579515"><ele>31.0</ele><time>2026-04-19T08:03:42.989Z</time></trkpt><trkpt lat="44.777435" lon="10.5793533"><ele>30.0</ele><time>2026-04-19T08:03:43.989Z</time></trkpt><trkpt lat="44.7772667" lon="10.579195"><ele>29.0</ele><time>2026-04-19T08:03:44.989Z</time></trkpt><trkpt lat="44.7770933" lon="10.5790367"><ele>28.0</ele><time>2026-04-19T08:03:45.989Z</time></trkpt><trkpt lat="44.77692" lon="10.5788767"><ele>28.333333333333336</ele><time>2026-04-19T08:03:46.989Z</time></trkpt><trkpt lat="44.77674" lon="10.5787117"><ele>28.666666666666664</ele><time>2026-04-19T08:03:47.989Z</time></trkpt><trkpt lat="44.7765583" lon="10.578555"><ele>29.0</ele><time>2026-04-19T08:03:48.989Z</time></trkpt><trkpt lat="44.776385" lon="10.5783917"><ele>29.0</ele><time>2026-04-19T08:03:49.989Z</time></trkpt><trkpt lat="44.7762083" lon="10.57824"><ele>29.0</ele><time>2026-04-19T08:03:50.989Z</time></trkpt><trkpt lat="44.7760383" lon="10.5780867"><ele>29.0</ele><time>2026-04-19T08:03:51.99Z</time></trkpt><trkpt lat="44.7758683" lon="10.5779317"><ele>29.0</ele><time>2026-04-19T08:03:52.989Z</time></trkpt><trkpt lat="44.7756933" lon="10.5777817"><ele>29.0</ele><time>2026-04-19T08:03:53.989Z</time></trkpt><trkpt lat="44.77553" lon="10.57763"><ele>29.0</ele><time>2026-04-19T08:03:54.989Z</time></trkpt><trkpt lat="44.7753783" lon="10.5775033"><ele>29.0</ele><time>2026-04-19T08:03:55.989Z</time></trkpt><trkpt lat="44.77523" lon="10.5773833"><ele>29.0</ele><time>2026-04-19T08:03:56.989Z</time></trkpt><trkpt lat="44.775085" lon="10.57725"><ele>29.0</ele><time>2026-04-19T08:03:57.989Z</time></trkpt><trkpt lat="44.7749483" lon="10.57709"><ele>28.666666666666664</ele><time>2026-04-19T08:03:58.989Z</time></trkpt><trkpt lat="44.7747933" lon="10.5769217"><ele>28.333333333333336</ele><time>2026-04-19T08:03:59.989Z</time></trkpt><trkpt lat="44.7746267" lon="10.5767517"><ele>28.0</ele><time>2026-04-19T08:04:00.989Z</time></trkpt><trkpt lat="44.774435" lon="10.576605"><ele>28.666666666666668</ele><time>2026-04-19T08:04:01.989Z</time></trkpt><trkpt lat="44.774235" lon="10.576475"><ele>29.333333333333336</ele><time>2026-04-19T08:04:02.989Z</time></trkpt><trkpt lat="44.7740283" lon="10.57635"><ele>30.0</ele><time>2026-04-19T08:04:03.989Z</time></trkpt><trkpt lat="44.7738217" lon="10.5762317"><ele>29.333333333333336</ele><time>2026-04-19T08:04:04.989Z</time></trkpt><trkpt lat="44.77362" lon="10.5761217"><ele>28.666666666666668</ele><time>2026-04-19T08:04:05.989Z</time></trkpt><trkpt lat="44.7734167" lon="10.57601"><ele>28.0</ele><time>2026-04-19T08:04:06.989Z</time></trkpt><trkpt lat="44.7732167" lon="10.5759"><ele>28.0</ele><time>2026-04-19T08:04:07.989Z</time></trkpt><trkpt lat="44.7730183" lon="10.5757917"><ele>28.0</ele><time>2026-04-19T08:04:08.989Z</time></trkpt><trkpt lat="44.7728167" lon="10.5756867"><ele>28.0</ele><time>2026-04-19T08:04:09.99Z</time></trkpt><trkpt lat="44.77262" lon="10.5755767"><ele>29.0</ele><time>2026-04-19T08:04:10.989Z</time></trkpt><trkpt lat="44.77242" lon="10.575465"><ele>30.0</ele><time>2026-04-19T08:04:11.989Z</time></trkpt><trkpt lat="44.7722233" lon="10.5753517"><ele>31.0</ele><time>2026-04-19T08:04:12.989Z</time></trkpt><trkpt lat="44.7720233" lon="10.5752367"><ele>31.0</ele><time>2026-04-19T08:04:13.989Z</time></trkpt><trkpt lat="44.771825" lon="10.5751267"><ele>31.0</ele><time>2026-04-19T08:04:14.989Z</time></trkpt><trkpt lat="44.7716333" lon="10.5750217"><ele>31.0</ele><time>2026-04-19T08:04:15.989Z</time></trkpt><trkpt lat="44.77144" lon="10.574915"><ele>31.0</ele><time>2026-04-19T08:04:16.989Z</time></trkpt><trkpt lat="44.7712483" lon="10.5748117"><ele>31.0</ele><time>2026-04-19T08:04:17.989Z</time></trkpt><trkpt lat="44.771055" lon="10.5747017"><ele>31.0</ele><time>2026-04-19T08:04:18.989Z</time></trkpt><trkpt lat="44.7708667" lon="10.574595"><ele>30.0</ele><time>2026-04-19T08:04:19.989Z</time></trkpt><trkpt lat="44.77068" lon="10.5744933"><ele>29.0</ele><time>2026-04-19T08:04:20.989Z</time></trkpt><trkpt lat="44.770495" lon="10.5743917"><ele>28.0</ele><time>2026-04-19T08:04:21.989Z</time></trkpt><trkpt lat="44.770305" lon="10.57429"><ele>27.666666666666668</ele><time>2026-04-19T08:04:22.989Z</time></trkpt><trkpt lat="44.7701133" lon="10.5741833"><ele>27.333333333333336</ele><time>2026-04-19T08:04:23.989Z</time></trkpt><trkpt lat="44.7699117" lon="10.574075"><ele>27.0</ele><time>2026-04-19T08:04:24.989Z</time></trkpt><trkpt lat="44.76971" lon="10.5739717"><ele>27.0</ele><time>2026-04-19T08:04:25.989Z</time></trkpt><trkpt lat="44.7695067" lon="10.57386"><ele>27.0</ele><time>2026-04-19T08:04:26.989Z</time></trkpt><trkpt lat="44.7693017" lon="10.5737517"><ele>27.0</ele><time>2026-04-19T08:04:27.989Z</time></trkpt><trkpt lat="44.7691083" lon="10.5736433"><ele>27.666666666666664</ele><time>2026-04-19T08:04:28.989Z</time></trkpt><trkpt lat="44.7689117" lon="10.5735267"><ele>28.333333333333332</ele><time>2026-04-19T08:04:29.989Z</time></trkpt><trkpt lat="44.7687167" lon="10.5734183"><ele>29.0</ele><time>2026-04-19T08:04:30.989Z</time></trkpt><trkpt lat="44.7685267" lon="10.5733217"><ele>28.666666666666664</ele><time>2026-04-19T08:04:31.989Z</time></trkpt><trkpt lat="44.7683483" lon="10.5732267"><ele>28.333333333333336</ele><time>2026-04-19T08:04:32.989Z</time></trkpt><trkpt lat="44.76818" lon="10.5731367"><ele>28.0</ele><time>2026-04-19T08:04:33.989Z</time></trkpt><trkpt lat="44.7680133" lon="10.5730433"><ele>28.0</ele><time>2026-04-19T08:04:34.989Z</time></trkpt><trkpt lat="44.7678583" lon="10.5729583"><ele>28.0</ele><time>2026-04-19T08:04:35.989Z</time></trkpt><trkpt lat="44.7677067" lon="10.572875"><ele>28.0</ele><time>2026-04-19T08:04:36.989Z</time></trkpt><trkpt lat="44.76755" lon="10.57279"><ele>28.333333333333336</ele><time>2026-04-19T08:04:37.989Z</time></trkpt><trkpt lat="44.7673883" lon="10.5727"><ele>28.666666666666664</ele><time>2026-04-19T08:04:38.989Z</time></trkpt><trkpt lat="44.7672117" lon="10.5726033"><ele>29.0</ele><time>2026-04-19T08:04:39.989Z</time></trkpt><trkpt lat="44.7670317" lon="10.5725083"><ele>29.0</ele><time>2026-04-19T08:04:40.989Z</time></trkpt><trkpt lat="44.7668517" lon="10.5724067"><ele>29.0</ele><time>2026-04-19T08:04:41.989Z</time></trkpt><trkpt lat="44.7666517" lon="10.5723067"><ele>29.0</ele><time>2026-04-19T08:04:42.989Z</time></trkpt><trkpt lat="44.766455" lon="10.5722067"><ele>29.0</ele><time>2026-04-19T08:04:43.989Z</time></trkpt><trkpt lat="44.7662633" lon="10.5720983"><ele>29.0</ele><time>2026-04-19T08:04:44.989Z</time></trkpt><trkpt lat="44.76606" lon="10.5719883"><ele>29.0</ele><time>2026-04-19T08:04:45.989Z</time></trkpt><trkpt lat="44.7658583" lon="10.5718767"><ele>28.666666666666664</ele><time>2026-04-19T08:04:46.989Z</time></trkpt><trkpt lat="44.76565" lon="10.571765"><ele>28.333333333333336</ele><time>2026-04-19T08:04:47.989Z</time></trkpt><trkpt lat="44.7654467" lon="10.5716567"><ele>28.0</ele><time>2026-04-19T08:04:48.989Z</time></trkpt><trkpt lat="44.7652517" lon="10.5715483"><ele>28.666666666666668</ele><time>2026-04-19T08:04:49.989Z</time></trkpt><trkpt lat="44.7650633" lon="10.57144"><ele>29.333333333333336</ele><time>2026-04-19T08:04:50.989Z</time></trkpt><trkpt lat="44.7648783" lon="10.5713333"><ele>30.0</ele><time>2026-04-19T08:04:51.99Z</time></trkpt><trkpt lat="44.764695" lon="10.5712283"><ele>29.333333333333336</ele><time>2026-04-19T08:04:52.989Z</time></trkpt><trkpt lat="44.76451" lon="10.571125"><ele>28.666666666666668</ele><time>2026-04-19T08:04:53.989Z</time></trkpt><trkpt lat="44.76432" lon="10.5710217"><ele>28.0</ele><time>2026-04-19T08:04:54.989Z</time></trkpt><trkpt lat="44.7641283" lon="10.5709167"><ele>27.666666666666668</ele><time>2026-04-19T08:04:55.989Z</time></trkpt><trkpt lat="44.7639333" lon="10.5708083"><ele>27.333333333333336</ele><time>2026-04-19T08:04:56.989Z</time></trkpt><trkpt lat="44.763735" lon="10.5707083"><ele>27.0</ele><time>2026-04-19T08:04:57.989Z</time></trkpt><trkpt lat="44.7635333" lon="10.570605"><ele>27.666666666666664</ele><time>2026-04-19T08:04:58.989Z</time></trkpt><trkpt lat="44.763325" lon="10.5705"><ele>28.333333333333332</ele><time>2026-04-19T08:04:59.989Z</time></trkpt><trkpt lat="44.7631167" lon="10.5703867"><ele>29.0</ele><time>2026-04-19T08:05:00.989Z</time></trkpt><trkpt lat="44.7629183" lon="10.5702783"><ele>29.0</ele><time>2026-04-19T08:05:01.989Z</time></trkpt><trkpt lat="44.7627167" lon="10.5701633"><ele>29.0</ele><time>2026-04-19T08:05:02.989Z</time></trkpt><trkpt lat="44.76251" lon="10.57005"><ele>29.0</ele><time>2026-04-19T08:05:03.989Z</time></trkpt><trkpt lat="44.762305" lon="10.5699283"><ele>29.333333333333332</ele><time>2026-04-19T08:05:04.989Z</time></trkpt><trkpt lat="44.7621" lon="10.569815"><ele>29.666666666666664</ele><time>2026-04-19T08:05:05.989Z</time></trkpt><trkpt lat="44.7618883" lon="10.5697033"><ele>30.0</ele><time>2026-04-19T08:05:06.989Z</time></trkpt><trkpt lat="44.761675" lon="10.56959"><ele>30.666666666666664</ele><time>2026-04-19T08:05:07.989Z</time></trkpt><trkpt lat="44.7614667" lon="10.5694733"><ele>31.333333333333332</ele><time>2026-04-19T08:05:08.989Z</time></trkpt><trkpt lat="44.7612617" lon="10.56936"><ele>32.0</ele><time>2026-04-19T08:05:09.989Z</time></trkpt><trkpt lat="44.7610633" lon="10.5692533"><ele>31.333333333333332</ele><time>2026-04-19T08:05:10.989Z</time></trkpt><trkpt lat="44.7608683" lon="10.5691417"><ele>30.666666666666664</ele><time>2026-04-19T08:05:11.989Z</time></trkpt><trkpt lat="44.760665" lon="10.5690283"><ele>30.0</ele><time>2026-04-19T08:05:12.989Z</time></trkpt><trkpt lat="44.7604517" lon="10.5689183"><ele>30.0</ele><time>2026-04-19T08:05:13.989Z</time></trkpt><trkpt lat="44.760225" lon="10.5688083"><ele>30.0</ele><time>2026-04-19T08:05:14.989Z</time></trkpt><trkpt lat="44.7599983" lon="10.568695"><ele>29.0</ele><time>2026-04-19T08:05:15.989Z</time></trkpt><trkpt lat="44.759775" lon="10.5685767"><ele>28.0</ele><time>2026-04-19T08:05:16.989Z</time></trkpt><trkpt lat="44.7595483" lon="10.5684617"><ele>29.5</ele><time>2026-04-19T08:05:17.989Z</time></trkpt><trkpt lat="44.7593217" lon="10.568345"><ele>31.0</ele><time>2026-04-19T08:05:18.989Z</time></trkpt><trkpt lat="44.7590967" lon="10.5682417"><ele>31.0</ele><time>2026-04-19T08:05:19.989Z</time></trkpt><trkpt lat="44.7588767" lon="10.568125"><ele>31.0</ele><time>2026-04-19T08:05:20.989Z</time></trkpt><trkpt lat="44.7586533" lon="10.5680083"><ele>31.5</ele><time>2026-04-19T08:05:21.989Z</time></trkpt><trkpt lat="44.7584333" lon="10.5678967"><ele>32.0</ele><time>2026-04-19T08:05:22.989Z</time></trkpt><trkpt lat="44.75823" lon="10.567795"><ele>32.5</ele><time>2026-04-19T08:05:23.989Z</time></trkpt><trkpt lat="44.7580183" lon="10.5676883"><ele>33.0</ele><time>2026-04-19T08:05:24.989Z</time></trkpt><trkpt lat="44.7578017" lon="10.567575"><ele>33.0</ele><time>2026-04-19T08:05:25.989Z</time></trkpt><trkpt lat="44.75759" lon="10.5674733"><ele>33.0</ele><time>2026-04-19T08:05:26.989Z</time></trkpt><trkpt lat="44.75739" lon="10.56737"><ele>33.0</ele><time>2026-04-19T08:05:27.989Z</time></trkpt><trkpt lat="44.7571933" lon="10.5672667"><ele>33.0</ele><time>2026-04-19T08:05:28.989Z</time></trkpt><trkpt lat="44.7570017" lon="10.5671733"><ele>33.0</ele><time>2026-04-19T08:05:29.989Z</time></trkpt><trkpt lat="44.7568167" lon="10.5670817"><ele>33.0</ele><time>2026-04-19T08:05:30.989Z</time></trkpt><trkpt lat="44.756625" lon="10.5669867"><ele>31.666666666666664</ele><time>2026-04-19T08:05:31.989Z</time></trkpt><trkpt lat="44.7564367" lon="10.5668983"><ele>30.333333333333332</ele><time>2026-04-19T08:05:32.989Z</time></trkpt><trkpt lat="44.7562483" lon="10.5668"><ele>29.0</ele><time>2026-04-19T08:05:33.989Z</time></trkpt><trkpt lat="44.7560667" lon="10.5666833"><ele>30.0</ele><time>2026-04-19T08:05:34.989Z</time></trkpt><trkpt lat="44.7558933" lon="10.5665467"><ele>31.0</ele><time>2026-04-19T08:05:35.989Z</time></trkpt><trkpt lat="44.75572" lon="10.5663783"><ele>32.0</ele><time>2026-04-19T08:05:36.99Z</time></trkpt><trkpt lat="44.7555633" lon="10.5661833"><ele>32.0</ele><time>2026-04-19T08:05:37.989Z</time></trkpt><trkpt lat="44.75542" lon="10.5659667"><ele>32.0</ele><time>2026-04-19T08:05:38.989Z</time></trkpt><trkpt lat="44.7552783" lon="10.5657433"><ele>32.0</ele><time>2026-04-19T08:05:39.989Z</time></trkpt><trkpt lat="44.7551367" lon="10.5655167"><ele>31.666666666666664</ele><time>2026-04-19T08:05:40.989Z</time></trkpt><trkpt lat="44.7549867" lon="10.565295"><ele>31.333333333333336</ele><time>2026-04-19T08:05:41.989Z</time></trkpt><trkpt lat="44.75484" lon="10.56507"><ele>31.0</ele><time>2026-04-19T08:05:42.989Z</time></trkpt><trkpt lat="44.7546867" lon="10.564845"><ele>31.0</ele><time>2026-04-19T08:05:43.989Z</time></trkpt><trkpt lat="44.7545367" lon="10.564615"><ele>31.0</ele><time>2026-04-19T08:05:44.989Z</time></trkpt><trkpt lat="44.7543883" lon="10.5643833"><ele>31.0</ele><time>2026-04-19T08:05:45.989Z</time></trkpt><trkpt lat="44.754235" lon="10.5641467"><ele>31.5</ele><time>2026-04-19T08:05:46.989Z</time></trkpt><trkpt lat="44.7540783" lon="10.5639083"><ele>32.0</ele><time>2026-04-19T08:05:47.989Z</time></trkpt><trkpt lat="44.75392" lon="10.563675"><ele>32.0</ele><time>2026-04-19T08:05:48.989Z</time></trkpt><trkpt lat="44.753765" lon="10.5634467"><ele>32.0</ele><time>2026-04-19T08:05:49.989Z</time></trkpt><trkpt lat="44.75362" lon="10.563225"><ele>32.0</ele><time>2026-04-19T08:05:50.989Z</time></trkpt><trkpt lat="44.7534867" lon="10.5630117"><ele>32.666666666666664</ele><time>2026-04-19T08:05:51.989Z</time></trkpt><trkpt lat="44.75336" lon="10.56281"><ele>33.333333333333336</ele><time>2026-04-19T08:05:52.989Z</time></trkpt><trkpt lat="44.7532383" lon="10.5626217"><ele>34.0</ele><time>2026-04-19T08:05:53.989Z</time></trkpt><trkpt lat="44.7531267" lon="10.56244"><ele>34.0</ele><time>2026-04-19T08:05:54.989Z</time></trkpt><trkpt lat="44.7530133" lon="10.5622717"><ele>34.0</ele><time>2026-04-19T08:05:55.989Z</time></trkpt><trkpt lat="44.75287" lon="10.5621167"><ele>34.0</ele><time>2026-04-19T08:05:56.989Z</time></trkpt><trkpt lat="44.75272" lon="10.5619833"><ele>34.0</ele><time>2026-04-19T08:05:57.989Z</time></trkpt><trkpt lat="44.7525567" lon="10.56186"><ele>34.0</ele><time>2026-04-19T08:05:58.989Z</time></trkpt><trkpt lat="44.7523817" lon="10.5617383"><ele>34.0</ele><time>2026-04-19T08:05:59.989Z</time></trkpt><trkpt lat="44.7521967" lon="10.56161"><ele>34.0</ele><time>2026-04-19T08:06:00.989Z</time></trkpt><trkpt lat="44.7520083" lon="10.5614767"><ele>34.0</ele><time>2026-04-19T08:06:01.989Z</time></trkpt><trkpt lat="44.751815" lon="10.5613533"><ele>34.0</ele><time>2026-04-19T08:06:02.99Z</time></trkpt><trkpt lat="44.7516267" lon="10.5612367"><ele>33.66666666666667</ele><time>2026-04-19T08:06:03.989Z</time></trkpt><trkpt lat="44.7514467" lon="10.5611233"><ele>33.333333333333336</ele><time>2026-04-19T08:06:04.989Z</time></trkpt><trkpt lat="44.7512717" lon="10.5610133"><ele>33.0</ele><time>2026-04-19T08:06:05.989Z</time></trkpt><trkpt lat="44.7511183" lon="10.560905"><ele>33.333333333333336</ele><time>2026-04-19T08:06:06.989Z</time></trkpt><trkpt lat="44.75097" lon="10.5608067"><ele>33.66666666666667</ele><time>2026-04-19T08:06:07.989Z</time></trkpt><trkpt lat="44.7508267" lon="10.560715"><ele>34.0</ele><time>2026-04-19T08:06:08.989Z</time></trkpt><trkpt lat="44.75069" lon="10.56062"><ele>34.0</ele><time>2026-04-19T08:06:09.989Z</time></trkpt><trkpt lat="44.7505617" lon="10.5605417"><ele>34.0</ele><time>2026-04-19T08:06:10.989Z</time></trkpt><trkpt lat="44.75043" lon="10.56046"><ele>34.0</ele><time>2026-04-19T08:06:11.989Z</time></trkpt><trkpt lat="44.75029" lon="10.5603717"><ele>34.0</ele><time>2026-04-19T08:06:12.989Z</time></trkpt><trkpt lat="44.7501467" lon="10.5602667"><ele>33.333333333333336</ele><time>2026-04-19T08:06:13.989Z</time></trkpt><trkpt lat="44.749995" lon="10.5601433"><ele>32.666666666666664</ele><time>2026-04-19T08:06:14.989Z</time></trkpt><trkpt lat="44.7498483" lon="10.5600017"><ele>32.0</ele><time>2026-04-19T08:06:15.989Z</time></trkpt><trkpt lat="44.7497067" lon="10.55985"><ele>32.0</ele><time>2026-04-19T08:06:16.989Z</time></trkpt><trkpt lat="44.74956" lon="10.5597033"><ele>32.0</ele><time>2026-04-19T08:06:17.989Z</time></trkpt><trkpt lat="44.7494133" lon="10.5595633"><ele>32.0</ele><time>2026-04-19T08:06:18.989Z</time></trkpt><trkpt lat="44.7492833" lon="10.559435"><ele>33.0</ele><time>2026-04-19T08:06:19.989Z</time></trkpt><trkpt lat="44.749165" lon="10.5593"><ele>34.0</ele><time>2026-04-19T08:06:20.989Z</time></trkpt><trkpt lat="44.7490367" lon="10.5591933"><ele>35.0</ele><time>2026-04-19T08:06:21.988Z</time></trkpt><trkpt lat="44.7489333" lon="10.5590367"><ele>35.0</ele><time>2026-04-19T08:06:22.988Z</time></trkpt><trkpt lat="44.7488383" lon="10.5588683"><ele>35.0</ele><time>2026-04-19T08:06:23.988Z</time></trkpt><trkpt lat="44.7487317" lon="10.5586883"><ele>35.0</ele><time>2026-04-19T08:06:24.988Z</time></trkpt><trkpt lat="44.7486183" lon="10.5584767"><ele>34.666666666666664</ele><time>2026-04-19T08:06:25.988Z</time></trkpt><trkpt lat="44.748495" lon="10.5582683"><ele>34.333333333333336</ele><time>2026-04-19T08:06:26.988Z</time></trkpt><trkpt lat="44.7483783" lon="10.558055"><ele>34.0</ele><time>2026-04-19T08:06:27.989Z</time></trkpt><trkpt lat="44.7482617" lon="10.5578467"><ele>33.66666666666667</ele><time>2026-04-19T08:06:28.988Z</time></trkpt><trkpt lat="44.7481633" lon="10.55765"><ele>33.333333333333336</ele><time>2026-04-19T08:06:29.988Z</time></trkpt><trkpt lat="44.7480667" lon="10.5574717"><ele>33.0</ele><time>2026-04-19T08:06:30.988Z</time></trkpt><trkpt lat="44.747965" lon="10.5573067"><ele>33.0</ele><time>2026-04-19T08:06:31.988Z</time></trkpt><trkpt lat="44.7478617" lon="10.5571817"><ele>33.0</ele><time>2026-04-19T08:06:32.988Z</time></trkpt><trkpt lat="44.74775" lon="10.55709"><ele>33.0</ele><time>2026-04-19T08:06:33.988Z</time></trkpt><trkpt lat="44.7476533" lon="10.5570183"><ele>33.0</ele><time>2026-04-19T08:06:34.988Z</time></trkpt><trkpt lat="44.747565" lon="10.55695"><ele>33.166666666666664</ele><time>2026-04-19T08:06:35.988Z</time></trkpt><trkpt lat="44.7474933" lon="10.55688"><ele>33.333333333333336</ele><time>2026-04-19T08:06:36.988Z</time></trkpt><trkpt lat="44.7474367" lon="10.55681"><ele>33.5</ele><time>2026-04-19T08:06:37.988Z</time></trkpt><trkpt lat="44.7474233" lon="10.5567017"><ele>33.66666666666667</ele><time>2026-04-19T08:06:38.988Z</time></trkpt><trkpt lat="44.7474467" lon="10.5565767"><ele>33.833333333333336</ele><time>2026-04-19T08:06:39.988Z</time></trkpt><trkpt lat="44.7475083" lon="10.5564517"><ele>34.0</ele><time>2026-04-19T08:06:40.988Z</time></trkpt><trkpt lat="44.7475817" lon="10.5562783"><ele>33.75</ele><time>2026-04-19T08:06:41.988Z</time></trkpt><trkpt lat="44.7476567" lon="10.5561"><ele>33.5</ele><time>2026-04-19T08:06:42.988Z</time></trkpt><trkpt lat="44.74773" lon="10.5559483"><ele>33.25</ele><time>2026-04-19T08:06:43.988Z</time></trkpt><trkpt lat="44.7477917" lon="10.5558017"><ele>33.0</ele><time>2026-04-19T08:06:44.988Z</time></trkpt><trkpt lat="44.74785" lon="10.5556633"><ele>33.0</ele><time>2026-04-19T08:06:45.989Z</time></trkpt><trkpt lat="44.747905" lon="10.5555433"><ele>33.0</ele><time>2026-04-19T08:06:46.988Z</time></trkpt><trkpt lat="44.74794" lon="10.55542"><ele>33.0</ele><time>2026-04-19T08:06:47.988Z</time></trkpt><trkpt lat="44.7479517" lon="10.5552867"><ele>33.0</ele><time>2026-04-19T08:06:48.988Z</time></trkpt><trkpt lat="44.747925" lon="10.55515"><ele>33.0</ele><time>2026-04-19T08:06:49.988Z</time></trkpt><trkpt lat="44.74785" lon="10.5550283"><ele>33.0</ele><time>2026-04-19T08:06:50.988Z</time></trkpt><trkpt lat="44.74775" lon="10.5549283"><ele>33.0</ele><time>2026-04-19T08:06:51.988Z</time></trkpt><trkpt lat="44.7476233" lon="10.55482"><ele>33.0</ele><time>2026-04-19T08:06:52.988Z</time></trkpt><trkpt lat="44.7474883" lon="10.554705"><ele>33.0</ele><time>2026-04-19T08:06:53.988Z</time></trkpt><trkpt lat="44.7473383" lon="10.55458"><ele>33.333333333333336</ele><time>2026-04-19T08:06:54.988Z</time></trkpt><trkpt lat="44.747175" lon="10.554445"><ele>33.66666666666667</ele><time>2026-04-19T08:06:55.988Z</time></trkpt><trkpt lat="44.747005" lon="10.55432"><ele>34.0</ele><time>2026-04-19T08:06:56.988Z</time></trkpt><trkpt lat="44.7468183" lon="10.5541933"><ele>34.333333333333336</ele><time>2026-04-19T08:06:57.988Z</time></trkpt><trkpt lat="44.746625" lon="10.5540683"><ele>34.666666666666664</ele><time>2026-04-19T08:06:58.988Z</time></trkpt><trkpt lat="44.746425" lon="10.553935"><ele>35.0</ele><time>2026-04-19T08:06:59.988Z</time></trkpt><trkpt lat="44.7462417" lon="10.553785"><ele>35.0</ele><time>2026-04-19T08:07:00.988Z</time></trkpt><trkpt lat="44.7460617" lon="10.5536383"><ele>35.0</ele><time>2026-04-19T08:07:01.988Z</time></trkpt><trkpt lat="44.7458867" lon="10.5534767"><ele>35.0</ele><time>2026-04-19T08:07:02.988Z</time></trkpt><trkpt lat="44.74572" lon="10.5533283"><ele>35.0</ele><time>2026-04-19T08:07:03.988Z</time></trkpt><trkpt lat="44.74555" lon="10.5531867"><ele>35.0</ele><time>2026-04-19T08:07:04.988Z</time></trkpt><trkpt lat="44.74538" lon="10.553045"><ele>35.0</ele><time>2026-04-19T08:07:05.988Z</time></trkpt><trkpt lat="44.7452067" lon="10.5529033"><ele>34.666666666666664</ele><time>2026-04-19T08:07:06.988Z</time></trkpt><trkpt lat="44.74504" lon="10.55276"><ele>34.333333333333336</ele><time>2026-04-19T08:07:07.989Z</time></trkpt><trkpt lat="44.7448733" lon="10.5526167"><ele>34.0</ele><time>2026-04-19T08:07:08.988Z</time></trkpt><trkpt lat="44.744705" lon="10.5524767"><ele>34.0</ele><time>2026-04-19T08:07:09.988Z</time></trkpt><trkpt lat="44.7445467" lon="10.5523417"><ele>34.0</ele><time>2026-04-19T08:07:10.988Z</time></trkpt><trkpt lat="44.7443883" lon="10.5522117"><ele>34.0</ele><time>2026-04-19T08:07:11.988Z</time></trkpt><trkpt lat="44.7442333" lon="10.5520817"><ele>35.0</ele><time>2026-04-19T08:07:12.988Z</time></trkpt><trkpt lat="44.7440717" lon="10.5519533"><ele>36.0</ele><time>2026-04-19T08:07:13.988Z</time></trkpt><trkpt lat="44.7439133" lon="10.5518383"><ele>37.0</ele><time>2026-04-19T08:07:14.988Z</time></trkpt><trkpt lat="44.743745" lon="10.5517317"><ele>37.0</ele><time>2026-04-19T08:07:15.988Z</time></trkpt><trkpt lat="44.7435717" lon="10.5516317"><ele>37.0</ele><time>2026-04-19T08:07:16.988Z</time></trkpt><trkpt lat="44.743385" lon="10.551545"><ele>37.0</ele><time>2026-04-19T08:07:17.988Z</time></trkpt><trkpt lat="44.74319" lon="10.5514633"><ele>36.66666666666667</ele><time>2026-04-19T08:07:18.988Z</time></trkpt><trkpt lat="44.742985" lon="10.5513917"><ele>36.333333333333336</ele><time>2026-04-19T08:07:19.988Z</time></trkpt><trkpt lat="44.7427733" lon="10.55132"><ele>36.0</ele><time>2026-04-19T08:07:20.988Z</time></trkpt><trkpt lat="44.742555" lon="10.55125"><ele>36.0</ele><time>2026-04-19T08:07:21.988Z</time></trkpt><trkpt lat="44.7423333" lon="10.5511783"><ele>36.0</ele><time>2026-04-19T08:07:22.988Z</time></trkpt><trkpt lat="44.7421067" lon="10.551105"><ele>35.0</ele><time>2026-04-19T08:07:23.988Z</time></trkpt><trkpt lat="44.7418717" lon="10.55103"><ele>34.0</ele><time>2026-04-19T08:07:24.988Z</time></trkpt><trkpt lat="44.741635" lon="10.5509517"><ele>34.0</ele><time>2026-04-19T08:07:25.988Z</time></trkpt><trkpt lat="44.7414017" lon="10.5508783"><ele>34.0</ele><time>2026-04-19T08:07:26.988Z</time></trkpt><trkpt lat="44.7411767" lon="10.550805"><ele>33.333333333333336</ele><time>2026-04-19T08:07:27.988Z</time></trkpt><trkpt lat="44.7409567" lon="10.550735"><ele>32.666666666666664</ele><time>2026-04-19T08:07:28.988Z</time></trkpt><trkpt lat="44.7407417" lon="10.5506683"><ele>32.0</ele><time>2026-04-19T08:07:29.988Z</time></trkpt><trkpt lat="44.740535" lon="10.5506017"><ele>32.0</ele><time>2026-04-19T08:07:30.988Z</time></trkpt><trkpt lat="44.7403283" lon="10.5505217"><ele>32.0</ele><time>2026-04-19T08:07:31.988Z</time></trkpt><trkpt lat="44.7401217" lon="10.5504283"><ele>32.0</ele><time>2026-04-19T08:07:32.988Z</time></trkpt><trkpt lat="44.739915" lon="10.5503267"><ele>33.0</ele><time>2026-04-19T08:07:33.988Z</time></trkpt><trkpt lat="44.7397083" lon="10.5502183"><ele>34.0</ele><time>2026-04-19T08:07:34.988Z</time></trkpt><trkpt lat="44.7395067" lon="10.550105"><ele>35.0</ele><time>2026-04-19T08:07:35.988Z</time></trkpt><trkpt lat="44.7393017" lon="10.5499783"><ele>36.0</ele><time>2026-04-19T08:07:36.988Z</time></trkpt><trkpt lat="44.7391033" lon="10.5498483"><ele>37.0</ele><time>2026-04-19T08:07:37.988Z</time></trkpt><trkpt lat="44.7389" lon="10.549715"><ele>38.0</ele><time>2026-04-19T08:07:38.988Z</time></trkpt><trkpt lat="44.7386967" lon="10.549585"><ele>37.0</ele><time>2026-04-19T08:07:39.988Z</time></trkpt><trkpt lat="44.7384883" lon="10.549455"><ele>36.0</ele><time>2026-04-19T08:07:40.988Z</time></trkpt><trkpt lat="44.7382767" lon="10.5493217"><ele>36.0</ele><time>2026-04-19T08:07:41.988Z</time></trkpt><trkpt lat="44.7380667" lon="10.5491783"><ele>36.0</ele><time>2026-04-19T08:07:42.988Z</time></trkpt><trkpt lat="44.73785" lon="10.5490417"><ele>35.5</ele><time>2026-04-19T08:07:43.988Z</time></trkpt><trkpt lat="44.7376383" lon="10.548905"><ele>35.0</ele><time>2026-04-19T08:07:44.988Z</time></trkpt><trkpt lat="44.7374283" lon="10.5487633"><ele>35.5</ele><time>2026-04-19T08:07:45.988Z</time></trkpt><trkpt lat="44.7372117" lon="10.5486283"><ele>36.0</ele><time>2026-04-19T08:07:46.988Z</time></trkpt><trkpt lat="44.7369933" lon="10.54849"><ele>36.0</ele><time>2026-04-19T08:07:47.989Z</time></trkpt><trkpt lat="44.7367783" lon="10.5483467"><ele>36.0</ele><time>2026-04-19T08:07:48.988Z</time></trkpt><trkpt lat="44.7365667" lon="10.5482117"><ele>36.0</ele><time>2026-04-19T08:07:49.988Z</time></trkpt><trkpt lat="44.7363633" lon="10.5480833"><ele>36.0</ele><time>2026-04-19T08:07:50.988Z</time></trkpt><trkpt lat="44.7361617" lon="10.5479517"><ele>36.0</ele><time>2026-04-19T08:07:51.988Z</time></trkpt><trkpt lat="44.7359567" lon="10.5478283"><ele>36.333333333333336</ele><time>2026-04-19T08:07:52.988Z</time></trkpt><trkpt lat="44.735755" lon="10.5477083"><ele>36.66666666666667</ele><time>2026-04-19T08:07:53.988Z</time></trkpt><trkpt lat="44.7355617" lon="10.5475833"><ele>37.0</ele><time>2026-04-19T08:07:54.988Z</time></trkpt><trkpt lat="44.7353717" lon="10.5474583"><ele>37.333333333333336</ele><time>2026-04-19T08:07:55.988Z</time></trkpt><trkpt lat="44.735185" lon="10.5473317"><ele>37.666666666666664</ele><time>2026-04-19T08:07:56.988Z</time></trkpt><trkpt lat="44.7350017" lon="10.547215"><ele>38.0</ele><time>2026-04-19T08:07:57.988Z</time></trkpt><trkpt lat="44.7348267" lon="10.547105"><ele>38.0</ele><time>2026-04-19T08:07:58.988Z</time></trkpt><trkpt lat="44.7346467" lon="10.5469967"><ele>38.0</ele><time>2026-04-19T08:07:59.988Z</time></trkpt><trkpt lat="44.7344617" lon="10.5468783"><ele>38.0</ele><time>2026-04-19T08:08:00.989Z</time></trkpt><trkpt lat="44.734275" lon="10.5467617"><ele>38.666666666666664</ele><time>2026-04-19T08:08:01.988Z</time></trkpt><trkpt lat="44.734095" lon="10.5466483"><ele>39.333333333333336</ele><time>2026-04-19T08:08:02.988Z</time></trkpt><trkpt lat="44.7339183" lon="10.54654"><ele>40.0</ele><time>2026-04-19T08:08:03.988Z</time></trkpt><trkpt lat="44.7337517" lon="10.5464383"><ele>40.0</ele><time>2026-04-19T08:08:04.988Z</time></trkpt><trkpt lat="44.733595" lon="10.5463333"><ele>40.0</ele><time>2026-04-19T08:08:05.988Z</time></trkpt><trkpt lat="44.7334483" lon="10.5462583"><ele>40.0</ele><time>2026-04-19T08:08:06.988Z</time></trkpt><trkpt lat="44.7332967" lon="10.5462183"><ele>39.66666666666667</ele><time>2026-04-19T08:08:07.988Z</time></trkpt><trkpt lat="44.7331417" lon="10.546205"><ele>39.333333333333336</ele><time>2026-04-19T08:08:08.988Z</time></trkpt><trkpt lat="44.732985" lon="10.5462283"><ele>39.0</ele><time>2026-04-19T08:08:09.988Z</time></trkpt><trkpt lat="44.73281" lon="10.5462933"><ele>40.0</ele><time>2026-04-19T08:08:10.988Z</time></trkpt><trkpt lat="44.732665" lon="10.546405"><ele>41.0</ele><time>2026-04-19T08:08:11.988Z</time></trkpt><trkpt lat="44.73254" lon="10.5465267"><ele>42.0</ele><time>2026-04-19T08:08:12.988Z</time></trkpt><trkpt lat="44.732425" lon="10.54664"><ele>42.0</ele><time>2026-04-19T08:08:13.988Z</time></trkpt><trkpt lat="44.7323117" lon="10.5467467"><ele>42.0</ele><time>2026-04-19T08:08:14.988Z</time></trkpt><trkpt lat="44.73219" lon="10.5468467"><ele>42.0</ele><time>2026-04-19T08:08:15.988Z</time></trkpt><trkpt lat="44.7320633" lon="10.5469133"><ele>42.0</ele><time>2026-04-19T08:08:16.988Z</time></trkpt><trkpt lat="44.7319267" lon="10.5469667"><ele>42.25</ele><time>2026-04-19T08:08:17.988Z</time></trkpt><trkpt lat="44.7317883" lon="10.5469917"><ele>42.5</ele><time>2026-04-19T08:08:18.988Z</time></trkpt><trkpt lat="44.7316567" lon="10.54696"><ele>42.75</ele><time>2026-04-19T08:08:19.988Z</time></trkpt><trkpt lat="44.7315167" lon="10.5468983"><ele>43.0</ele><time>2026-04-19T08:08:20.988Z</time></trkpt><trkpt lat="44.731395" lon="10.5468083"><ele>43.0</ele><time>2026-04-19T08:08:21.988Z</time></trkpt><trkpt lat="44.7312617" lon="10.5467283"><ele>43.0</ele><time>2026-04-19T08:08:22.988Z</time></trkpt><trkpt lat="44.73112" lon="10.54664"><ele>43.0</ele><time>2026-04-19T08:08:23.988Z</time></trkpt><trkpt lat="44.73098" lon="10.5465617"><ele>42.75</ele><time>2026-04-19T08:08:24.988Z</time></trkpt><trkpt lat="44.73084" lon="10.5464917"><ele>42.5</ele><time>2026-04-19T08:08:25.988Z</time></trkpt><trkpt lat="44.7307167" lon="10.54643"><ele>42.25</ele><time>2026-04-19T08:08:26.988Z</time></trkpt><trkpt lat="44.7306" lon="10.5463667"><ele>42.0</ele><time>2026-04-19T08:08:27.988Z</time></trkpt><trkpt lat="44.730485" lon="10.546305"><ele>42.0</ele><time>2026-04-19T08:08:28.988Z</time></trkpt><trkpt lat="44.7303767" lon="10.54626"><ele>42.0</ele><time>2026-04-19T08:08:29.988Z</time></trkpt><trkpt lat="44.730275" lon="10.5462183"><ele>42.0</ele><time>2026-04-19T08:08:30.988Z</time></trkpt><trkpt lat="44.7301683" lon="10.546175"><ele>42.0</ele><time>2026-04-19T08:08:31.988Z</time></trkpt><trkpt lat="44.7300533" lon="10.546125"><ele>42.0</ele><time>2026-04-19T08:08:32.988Z</time></trkpt><trkpt lat="44.7299367" lon="10.546075"><ele>42.0</ele><time>2026-04-19T08:08:33.988Z</time></trkpt><trkpt lat="44.72982" lon="10.5460333"><ele>42.0</ele><time>2026-04-19T08:08:34.988Z</time></trkpt><trkpt lat="44.7297217" lon="10.5460067"><ele>42.0</ele><time>2026-04-19T08:08:35.988Z</time></trkpt><trkpt lat="44.7296283" lon="10.5459617"><ele>42.0</ele><time>2026-04-19T08:08:36.988Z</time></trkpt><trkpt lat="44.7295383" lon="10.5459283"><ele>42.0</ele><time>2026-04-19T08:08:37.989Z</time></trkpt><trkpt lat="44.729455" lon="10.5458933"><ele>42.0</ele><time>2026-04-19T08:08:38.988Z</time></trkpt><trkpt lat="44.72938" lon="10.5458633"><ele>42.0</ele><time>2026-04-19T08:08:39.988Z</time></trkpt><trkpt lat="44.729305" lon="10.54584"><ele>42.0</ele><time>2026-04-19T08:08:40.988Z</time></trkpt><trkpt lat="44.729235" lon="10.54581"><ele>42.0</ele><time>2026-04-19T08:08:41.988Z</time></trkpt><trkpt lat="44.7291117" lon="10.54576"><ele>42.0</ele><time>2026-04-19T08:08:43.988Z</time></trkpt><trkpt lat="44.7290483" lon="10.545735"><ele>42.333333333333336</ele><time>2026-04-19T08:08:44.988Z</time></trkpt><trkpt lat="44.72898" lon="10.54571"><ele>42.666666666666664</ele><time>2026-04-19T08:08:45.988Z</time></trkpt><trkpt lat="44.728915" lon="10.5456867"><ele>43.0</ele><time>2026-04-19T08:08:46.988Z</time></trkpt><trkpt lat="44.7287867" lon="10.54562"><ele>43.33333333333333</ele><time>2026-04-19T08:08:48.988Z</time></trkpt><trkpt lat="44.7287217" lon="10.54557"><ele>43.666666666666664</ele><time>2026-04-19T08:08:49.988Z</time></trkpt><trkpt lat="44.72866" lon="10.5455217"><ele>44.0</ele><time>2026-04-19T08:08:50.988Z</time></trkpt><trkpt lat="44.728575" lon="10.5454667"><ele>44.0</ele><time>2026-04-19T08:08:52.988Z</time></trkpt><trkpt lat="44.7284633" lon="10.5453883"><ele>44.0</ele><time>2026-04-19T08:09:18.988Z</time></trkpt><trkpt lat="44.7283833" lon="10.5453367"><ele>44.0</ele><time>2026-04-19T08:09:19.988Z</time></trkpt><trkpt lat="44.728285" lon="10.5452517"><ele>44.0</ele><time>2026-04-19T08:09:20.988Z</time></trkpt><trkpt lat="44.7281667" lon="10.5451667"><ele>44.0</ele><time>2026-04-19T08:09:21.988Z</time></trkpt><trkpt lat="44.7280433" lon="10.54509"><ele>44.0</ele><time>2026-04-19T08:09:22.988Z</time></trkpt><trkpt lat="44.72791" lon="10.5450167"><ele>44.0</ele><time>2026-04-19T08:09:23.988Z</time></trkpt><trkpt lat="44.7277733" lon="10.544925"><ele>44.0</ele><time>2026-04-19T08:09:24.988Z</time></trkpt><trkpt lat="44.7276333" lon="10.54484"><ele>44.33333333333333</ele><time>2026-04-19T08:09:25.988Z</time></trkpt><trkpt lat="44.7274933" lon="10.5447567"><ele>44.666666666666664</ele><time>2026-04-19T08:09:26.988Z</time></trkpt><trkpt lat="44.72736" lon="10.54466"><ele>45.0</ele><time>2026-04-19T08:09:27.988Z</time></trkpt><trkpt lat="44.727225" lon="10.54457"><ele>45.0</ele><time>2026-04-19T08:09:28.988Z</time></trkpt><trkpt lat="44.72709" lon="10.5444833"><ele>45.0</ele><time>2026-04-19T08:09:29.988Z</time></trkpt><trkpt lat="44.7269683" lon="10.5444233"><ele>45.0</ele><time>2026-04-19T08:09:30.988Z</time></trkpt><trkpt lat="44.72686" lon="10.5443483"><ele>45.0</ele><time>2026-04-19T08:09:31.988Z</time></trkpt><trkpt lat="44.7267467" lon="10.544275"><ele>45.0</ele><time>2026-04-19T08:09:32.988Z</time></trkpt><trkpt lat="44.7266283" lon="10.5442067"><ele>45.0</ele><time>2026-04-19T08:09:33.988Z</time></trkpt><trkpt lat="44.7265133" lon="10.54414"><ele>45.0</ele><time>2026-04-19T08:09:34.988Z</time></trkpt><trkpt lat="44.726405" lon="10.5440583"><ele>45.0</ele><time>2026-04-19T08:09:35.988Z</time></trkpt><trkpt lat="44.7262967" lon="10.543975"><ele>45.0</ele><time>2026-04-19T08:09:36.988Z</time></trkpt><trkpt lat="44.7261817" lon="10.5438967"><ele>45.0</ele><time>2026-04-19T08:09:37.988Z</time></trkpt><trkpt lat="44.7260517" lon="10.5438283"><ele>45.0</ele><time>2026-04-19T08:09:38.988Z</time></trkpt><trkpt lat="44.7259133" lon="10.5437283"><ele>45.0</ele><time>2026-04-19T08:09:39.988Z</time></trkpt><trkpt lat="44.7257567" lon="10.5436283"><ele>45.0</ele><time>2026-04-19T08:09:40.988Z</time></trkpt><trkpt lat="44.7255917" lon="10.5435317"><ele>45.0</ele><time>2026-04-19T08:09:41.988Z</time></trkpt><trkpt lat="44.72542" lon="10.543435"><ele>45.0</ele><time>2026-04-19T08:09:42.988Z</time></trkpt><trkpt lat="44.7252417" lon="10.5433467"><ele>44.666666666666664</ele><time>2026-04-19T08:09:43.988Z</time></trkpt><trkpt lat="44.7250467" lon="10.5432433"><ele>44.33333333333333</ele><time>2026-04-19T08:09:44.988Z</time></trkpt><trkpt lat="44.7248383" lon="10.543125"><ele>44.0</ele><time>2026-04-19T08:09:45.988Z</time></trkpt><trkpt lat="44.72462" lon="10.54298"><ele>43.5</ele><time>2026-04-19T08:09:46.988Z</time></trkpt><trkpt lat="44.7243883" lon="10.54282"><ele>43.0</ele><time>2026-04-19T08:09:47.988Z</time></trkpt><trkpt lat="44.7241367" lon="10.54264"><ele>43.0</ele><time>2026-04-19T08:09:48.988Z</time></trkpt><trkpt lat="44.7238733" lon="10.54248"><ele>43.0</ele><time>2026-04-19T08:09:49.989Z</time></trkpt><trkpt lat="44.7236167" lon="10.5423217"><ele>43.0</ele><time>2026-04-19T08:09:50.988Z</time></trkpt><trkpt lat="44.72338" lon="10.5421717"><ele>43.0</ele><time>2026-04-19T08:09:51.988Z</time></trkpt><trkpt lat="44.7231533" lon="10.5420333"><ele>43.5</ele><time>2026-04-19T08:09:52.988Z</time></trkpt><trkpt lat="44.7229333" lon="10.54191"><ele>44.0</ele><time>2026-04-19T08:09:53.988Z</time></trkpt><trkpt lat="44.7227283" lon="10.54178"><ele>44.5</ele><time>2026-04-19T08:09:54.988Z</time></trkpt><trkpt lat="44.7225117" lon="10.541645"><ele>45.0</ele><time>2026-04-19T08:09:55.988Z</time></trkpt><trkpt lat="44.7222967" lon="10.54152"><ele>45.0</ele><time>2026-04-19T08:09:56.988Z</time></trkpt><trkpt lat="44.722095" lon="10.5414067"><ele>45.0</ele><time>2026-04-19T08:09:57.988Z</time></trkpt><trkpt lat="44.7219" lon="10.5412933"><ele>45.0</ele><time>2026-04-19T08:09:58.988Z</time></trkpt><trkpt lat="44.7217167" lon="10.5411883"><ele>45.333333333333336</ele><time>2026-04-19T08:09:59.988Z</time></trkpt><trkpt lat="44.7215317" lon="10.5410817"><ele>45.66666666666667</ele><time>2026-04-19T08:10:00.988Z</time></trkpt><trkpt lat="44.721335" lon="10.54098"><ele>46.0</ele><time>2026-04-19T08:10:01.988Z</time></trkpt><trkpt lat="44.7211317" lon="10.5408783"><ele>45.66666666666667</ele><time>2026-04-19T08:10:02.988Z</time></trkpt><trkpt lat="44.7209283" lon="10.540785"><ele>45.333333333333336</ele><time>2026-04-19T08:10:03.988Z</time></trkpt><trkpt lat="44.720725" lon="10.54069"><ele>45.0</ele><time>2026-04-19T08:10:04.988Z</time></trkpt><trkpt lat="44.7205217" lon="10.540595"><ele>45.0</ele><time>2026-04-19T08:10:05.988Z</time></trkpt><trkpt lat="44.7203233" lon="10.5404867"><ele>45.0</ele><time>2026-04-19T08:10:06.989Z</time></trkpt><trkpt lat="44.7201333" lon="10.5403733"><ele>45.0</ele><time>2026-04-19T08:10:07.988Z</time></trkpt><trkpt lat="44.71994" lon="10.5402617"><ele>45.333333333333336</ele><time>2026-04-19T08:10:08.988Z</time></trkpt><trkpt lat="44.7197467" lon="10.540155"><ele>45.66666666666667</ele><time>2026-04-19T08:10:09.988Z</time></trkpt><trkpt lat="44.71955" lon="10.54004"><ele>46.0</ele><time>2026-04-19T08:10:10.988Z</time></trkpt><trkpt lat="44.71936" lon="10.5399267"><ele>46.0</ele><time>2026-04-19T08:10:11.988Z</time></trkpt><trkpt lat="44.7191767" lon="10.5398083"><ele>46.0</ele><time>2026-04-19T08:10:12.988Z</time></trkpt><trkpt lat="44.7189983" lon="10.539685"><ele>46.0</ele><time>2026-04-19T08:10:13.988Z</time></trkpt><trkpt lat="44.7188233" lon="10.5395633"><ele>46.0</ele><time>2026-04-19T08:10:14.988Z</time></trkpt><trkpt lat="44.7186433" lon="10.53944"><ele>46.0</ele><time>2026-04-19T08:10:15.988Z</time></trkpt><trkpt lat="44.7184617" lon="10.539315"><ele>46.0</ele><time>2026-04-19T08:10:16.988Z</time></trkpt><trkpt lat="44.7182767" lon="10.5391967"><ele>46.66666666666667</ele><time>2026-04-19T08:10:17.988Z</time></trkpt><trkpt lat="44.7180917" lon="10.539075"><ele>47.333333333333336</ele><time>2026-04-19T08:10:18.988Z</time></trkpt><trkpt lat="44.7178967" lon="10.5389617"><ele>48.0</ele><time>2026-04-19T08:10:19.988Z</time></trkpt><trkpt lat="44.7177167" lon="10.5388267"><ele>47.666666666666664</ele><time>2026-04-19T08:10:20.988Z</time></trkpt><trkpt lat="44.717525" lon="10.5387067"><ele>47.33333333333333</ele><time>2026-04-19T08:10:21.988Z</time></trkpt><trkpt lat="44.7173333" lon="10.538585"><ele>47.0</ele><time>2026-04-19T08:10:22.988Z</time></trkpt><trkpt lat="44.717145" lon="10.5384633"><ele>47.0</ele><time>2026-04-19T08:10:23.988Z</time></trkpt><trkpt lat="44.7169617" lon="10.5383367"><ele>47.0</ele><time>2026-04-19T08:10:24.988Z</time></trkpt><trkpt lat="44.7167767" lon="10.5382067"><ele>47.0</ele><time>2026-04-19T08:10:25.988Z</time></trkpt><trkpt lat="44.7165883" lon="10.5380683"><ele>47.33333333333333</ele><time>2026-04-19T08:10:26.988Z</time></trkpt><trkpt lat="44.7163967" lon="10.5379333"><ele>47.666666666666664</ele><time>2026-04-19T08:10:27.988Z</time></trkpt><trkpt lat="44.7162017" lon="10.5377967"><ele>48.0</ele><time>2026-04-19T08:10:28.988Z</time></trkpt><trkpt lat="44.71601" lon="10.5376583"><ele>49.33333333333333</ele><time>2026-04-19T08:10:29.988Z</time></trkpt><trkpt lat="44.7158417" lon="10.5375167"><ele>50.666666666666664</ele><time>2026-04-19T08:10:30.988Z</time></trkpt><trkpt lat="44.7156733" lon="10.5373717"><ele>52.0</ele><time>2026-04-19T08:10:31.988Z</time></trkpt><trkpt lat="44.715495" lon="10.537235"><ele>52.0</ele><time>2026-04-19T08:10:32.988Z</time></trkpt><trkpt lat="44.7153133" lon="10.53711"><ele>52.0</ele><time>2026-04-19T08:10:33.988Z</time></trkpt><trkpt lat="44.71513" lon="10.5370117"><ele>52.0</ele><time>2026-04-19T08:10:34.988Z</time></trkpt><trkpt lat="44.714945" lon="10.5369133"><ele>52.0</ele><time>2026-04-19T08:10:35.988Z</time></trkpt><trkpt lat="44.7147583" lon="10.536815"><ele>52.0</ele><time>2026-04-19T08:10:36.988Z</time></trkpt><trkpt lat="44.7145733" lon="10.5367167"><ele>52.0</ele><time>2026-04-19T08:10:37.988Z</time></trkpt><trkpt lat="44.71438" lon="10.5366"><ele>52.0</ele><time>2026-04-19T08:10:38.988Z</time></trkpt><trkpt lat="44.7141733" lon="10.5364617"><ele>52.0</ele><time>2026-04-19T08:10:39.988Z</time></trkpt><trkpt lat="44.7139633" lon="10.5363017"><ele>52.0</ele><time>2026-04-19T08:10:40.988Z</time></trkpt><trkpt lat="44.7137483" lon="10.5361167"><ele>52.0</ele><time>2026-04-19T08:10:41.988Z</time></trkpt><trkpt lat="44.7135367" lon="10.5359483"><ele>51.5</ele><time>2026-04-19T08:10:42.988Z</time></trkpt><trkpt lat="44.71333" lon="10.53579"><ele>51.0</ele><time>2026-04-19T08:10:43.988Z</time></trkpt><trkpt lat="44.7131317" lon="10.5356433"><ele>51.0</ele><time>2026-04-19T08:10:44.988Z</time></trkpt><trkpt lat="44.7129467" lon="10.5355033"><ele>51.0</ele><time>2026-04-19T08:10:45.988Z</time></trkpt><trkpt lat="44.7127683" lon="10.5353817"><ele>51.0</ele><time>2026-04-19T08:10:46.988Z</time></trkpt><trkpt lat="44.7125767" lon="10.5352683"><ele>51.33333333333333</ele><time>2026-04-19T08:10:47.989Z</time></trkpt><trkpt lat="44.712385" lon="10.535165"><ele>51.666666666666664</ele><time>2026-04-19T08:10:48.988Z</time></trkpt><trkpt lat="44.7121933" lon="10.5350683"><ele>52.0</ele><time>2026-04-19T08:10:49.988Z</time></trkpt><trkpt lat="44.7119933" lon="10.5349783"><ele>51.666666666666664</ele><time>2026-04-19T08:10:50.988Z</time></trkpt><trkpt lat="44.7117967" lon="10.5349083"><ele>51.33333333333333</ele><time>2026-04-19T08:10:51.988Z</time></trkpt><trkpt lat="44.7115917" lon="10.53486"><ele>51.0</ele><time>2026-04-19T08:10:52.988Z</time></trkpt><trkpt lat="44.7113867" lon="10.5348267"><ele>51.0</ele><time>2026-04-19T08:10:53.988Z</time></trkpt><trkpt lat="44.711185" lon="10.534815"><ele>51.0</ele><time>2026-04-19T08:10:54.988Z</time></trkpt><trkpt lat="44.71098" lon="10.5348283"><ele>51.0</ele><time>2026-04-19T08:10:55.988Z</time></trkpt><trkpt lat="44.71077" lon="10.5348417"><ele>51.66666666666667</ele><time>2026-04-19T08:10:56.988Z</time></trkpt><trkpt lat="44.7105567" lon="10.5348367"><ele>52.333333333333336</ele><time>2026-04-19T08:10:57.988Z</time></trkpt><trkpt lat="44.71034" lon="10.534815"><ele>53.0</ele><time>2026-04-19T08:10:58.988Z</time></trkpt><trkpt lat="44.7101217" lon="10.5347783"><ele>53.0</ele><time>2026-04-19T08:10:59.988Z</time></trkpt><trkpt lat="44.7099167" lon="10.5347267"><ele>53.0</ele><time>2026-04-19T08:11:00.988Z</time></trkpt><trkpt lat="44.709715" lon="10.53468"><ele>53.0</ele><time>2026-04-19T08:11:01.988Z</time></trkpt><trkpt lat="44.70952" lon="10.5346283"><ele>54.0</ele><time>2026-04-19T08:11:02.988Z</time></trkpt><trkpt lat="44.709325" lon="10.5345667"><ele>55.0</ele><time>2026-04-19T08:11:03.989Z</time></trkpt><trkpt lat="44.7091367" lon="10.5345"><ele>56.0</ele><time>2026-04-19T08:11:04.988Z</time></trkpt><trkpt lat="44.708945" lon="10.53441"><ele>56.0</ele><time>2026-04-19T08:11:05.988Z</time></trkpt><trkpt lat="44.70876" lon="10.5343133"><ele>56.0</ele><time>2026-04-19T08:11:06.988Z</time></trkpt><trkpt lat="44.7085833" lon="10.53421"><ele>56.0</ele><time>2026-04-19T08:11:07.988Z</time></trkpt><trkpt lat="44.7084067" lon="10.5340933"><ele>56.333333333333336</ele><time>2026-04-19T08:11:08.988Z</time></trkpt><trkpt lat="44.7082317" lon="10.5339767"><ele>56.66666666666667</ele><time>2026-04-19T08:11:09.988Z</time></trkpt><trkpt lat="44.70805" lon="10.53386"><ele>57.0</ele><time>2026-04-19T08:11:10.988Z</time></trkpt><trkpt lat="44.7078667" lon="10.53374"><ele>57.33333333333333</ele><time>2026-04-19T08:11:11.988Z</time></trkpt><trkpt lat="44.7076817" lon="10.5336233"><ele>57.666666666666664</ele><time>2026-04-19T08:11:12.988Z</time></trkpt><trkpt lat="44.7074933" lon="10.5335033"><ele>58.0</ele><time>2026-04-19T08:11:13.988Z</time></trkpt><trkpt lat="44.7073133" lon="10.53338"><ele>58.0</ele><time>2026-04-19T08:11:14.988Z</time></trkpt><trkpt lat="44.7071367" lon="10.5332583"><ele>58.0</ele><time>2026-04-19T08:11:15.988Z</time></trkpt><trkpt lat="44.7069683" lon="10.5331333"><ele>58.0</ele><time>2026-04-19T08:11:16.988Z</time></trkpt><trkpt lat="44.7068033" lon="10.533025"><ele>58.0</ele><time>2026-04-19T08:11:17.988Z</time></trkpt><trkpt lat="44.7066417" lon="10.5329233"><ele>58.0</ele><time>2026-04-19T08:11:18.988Z</time></trkpt><trkpt lat="44.7064917" lon="10.5328183"><ele>58.0</ele><time>2026-04-19T08:11:19.988Z</time></trkpt><trkpt lat="44.706355" lon="10.5327183"><ele>58.0</ele><time>2026-04-19T08:11:20.988Z</time></trkpt><trkpt lat="44.7062267" lon="10.5326217"><ele>58.0</ele><time>2026-04-19T08:11:21.988Z</time></trkpt><trkpt lat="44.7061067" lon="10.532535"><ele>58.0</ele><time>2026-04-19T08:11:22.988Z</time></trkpt><trkpt lat="44.7060017" lon="10.53246"><ele>58.0</ele><time>2026-04-19T08:11:23.988Z</time></trkpt><trkpt lat="44.705905" lon="10.5323883"><ele>58.0</ele><time>2026-04-19T08:11:24.989Z</time></trkpt><trkpt lat="44.7058017" lon="10.5323133"><ele>58.0</ele><time>2026-04-19T08:11:25.988Z</time></trkpt><trkpt lat="44.7056867" lon="10.5322317"><ele>58.0</ele><time>2026-04-19T08:11:26.988Z</time></trkpt><trkpt lat="44.705555" lon="10.5321383"><ele>58.0</ele><time>2026-04-19T08:11:27.988Z</time></trkpt><trkpt lat="44.705405" lon="10.5320183"><ele>58.666666666666664</ele><time>2026-04-19T08:11:28.988Z</time></trkpt><trkpt lat="44.705235" lon="10.5318817"><ele>59.33333333333333</ele><time>2026-04-19T08:11:29.988Z</time></trkpt><trkpt lat="44.7050583" lon="10.5317433"><ele>60.0</ele><time>2026-04-19T08:11:30.988Z</time></trkpt><trkpt lat="44.7048883" lon="10.5316067"><ele>60.0</ele><time>2026-04-19T08:11:31.988Z</time></trkpt><trkpt lat="44.7047183" lon="10.5314883"><ele>60.0</ele><time>2026-04-19T08:11:32.988Z</time></trkpt><trkpt lat="44.7045533" lon="10.531375"><ele>60.0</ele><time>2026-04-19T08:11:33.988Z</time></trkpt><trkpt lat="44.704405" lon="10.5312867"><ele>60.33333333333333</ele><time>2026-04-19T08:11:34.988Z</time></trkpt><trkpt lat="44.7042517" lon="10.5312017"><ele>60.666666666666664</ele><time>2026-04-19T08:11:35.988Z</time></trkpt><trkpt lat="44.7041067" lon="10.5311083"><ele>61.0</ele><time>2026-04-19T08:11:36.988Z</time></trkpt><trkpt lat="44.7039467" lon="10.5310217"><ele>61.0</ele><time>2026-04-19T08:11:37.988Z</time></trkpt><trkpt lat="44.70378" lon="10.5309183"><ele>61.0</ele><time>2026-04-19T08:11:38.988Z</time></trkpt><trkpt lat="44.7036117" lon="10.5308233"><ele>61.0</ele><time>2026-04-19T08:11:39.988Z</time></trkpt><trkpt lat="44.703435" lon="10.5307383"><ele>61.666666666666664</ele><time>2026-04-19T08:11:40.988Z</time></trkpt><trkpt lat="44.7032567" lon="10.53067"><ele>62.33333333333333</ele><time>2026-04-19T08:11:41.988Z</time></trkpt><trkpt lat="44.7030717" lon="10.5306333"><ele>63.0</ele><time>2026-04-19T08:11:42.988Z</time></trkpt><trkpt lat="44.70289" lon="10.5306183"><ele>64.0</ele><time>2026-04-19T08:11:43.988Z</time></trkpt><trkpt lat="44.7027067" lon="10.5306167"><ele>65.0</ele><time>2026-04-19T08:11:44.988Z</time></trkpt><trkpt lat="44.7025217" lon="10.5306133"><ele>66.0</ele><time>2026-04-19T08:11:45.988Z</time></trkpt><trkpt lat="44.7023333" lon="10.53059"><ele>66.0</ele><time>2026-04-19T08:11:46.988Z</time></trkpt><trkpt lat="44.7021433" lon="10.530545"><ele>66.0</ele><time>2026-04-19T08:11:47.988Z</time></trkpt><trkpt lat="44.70196" lon="10.530505"><ele>66.0</ele><time>2026-04-19T08:11:48.988Z</time></trkpt><trkpt lat="44.70179" lon="10.53047"><ele>66.0</ele><time>2026-04-19T08:11:49.988Z</time></trkpt><trkpt lat="44.70163" lon="10.5304267"><ele>66.0</ele><time>2026-04-19T08:11:50.988Z</time></trkpt><trkpt lat="44.7014733" lon="10.5303817"><ele>66.0</ele><time>2026-04-19T08:11:51.988Z</time></trkpt><trkpt lat="44.701335" lon="10.5303267"><ele>66.0</ele><time>2026-04-19T08:11:52.988Z</time></trkpt><trkpt lat="44.701205" lon="10.5302683"><ele>66.0</ele><time>2026-04-19T08:11:53.988Z</time></trkpt><trkpt lat="44.7010983" lon="10.5301733"><ele>66.0</ele><time>2026-04-19T08:11:54.988Z</time></trkpt><trkpt lat="44.7010133" lon="10.53005"><ele>66.0</ele><time>2026-04-19T08:11:55.988Z</time></trkpt><trkpt lat="44.7009333" lon="10.5298817"><ele>66.25</ele><time>2026-04-19T08:11:56.988Z</time></trkpt><trkpt lat="44.7008667" lon="10.5297217"><ele>66.5</ele><time>2026-04-19T08:11:57.988Z</time></trkpt><trkpt lat="44.7008067" lon="10.52957"><ele>66.75</ele><time>2026-04-19T08:11:58.988Z</time></trkpt><trkpt lat="44.7007433" lon="10.529435"><ele>67.0</ele><time>2026-04-19T08:11:59.988Z</time></trkpt><trkpt lat="44.7006867" lon="10.5293033"><ele>67.0</ele><time>2026-04-19T08:12:00.988Z</time></trkpt><trkpt lat="44.7006367" lon="10.52919"><ele>67.0</ele><time>2026-04-19T08:12:01.988Z</time></trkpt><trkpt lat="44.700595" lon="10.5290833"><ele>67.0</ele><time>2026-04-19T08:12:02.988Z</time></trkpt><trkpt lat="44.700565" lon="10.528985"><ele>67.0</ele><time>2026-04-19T08:12:03.988Z</time></trkpt><trkpt lat="44.70054" lon="10.5289"><ele>67.0</ele><time>2026-04-19T08:12:04.988Z</time></trkpt><trkpt lat="44.700495" lon="10.528735"><ele>67.0</ele><time>2026-04-19T08:12:06.988Z</time></trkpt><trkpt lat="44.700445" lon="10.5286533"><ele>67.0</ele><time>2026-04-19T08:12:07.988Z</time></trkpt><trkpt lat="44.7003717" lon="10.528585"><ele>67.0</ele><time>2026-04-19T08:12:08.988Z</time></trkpt><trkpt lat="44.700275" lon="10.5285217"><ele>67.0</ele><time>2026-04-19T08:12:09.988Z</time></trkpt><trkpt lat="44.7001517" lon="10.52845"><ele>67.0</ele><time>2026-04-19T08:12:10.988Z</time></trkpt><trkpt lat="44.7000167" lon="10.5283717"><ele>67.0</ele><time>2026-04-19T08:12:11.988Z</time></trkpt><trkpt lat="44.6998783" lon="10.5282917"><ele>67.0</ele><time>2026-04-19T08:12:12.988Z</time></trkpt><trkpt lat="44.699735" lon="10.5282033"><ele>67.0</ele><time>2026-04-19T08:12:13.988Z</time></trkpt><trkpt lat="44.6995817" lon="10.52811"><ele>67.0</ele><time>2026-04-19T08:12:14.988Z</time></trkpt><trkpt lat="44.6994233" lon="10.5280167"><ele>67.0</ele><time>2026-04-19T08:12:15.988Z</time></trkpt><trkpt lat="44.6992783" lon="10.5279317"><ele>67.0</ele><time>2026-04-19T08:12:16.988Z</time></trkpt><trkpt lat="44.69914" lon="10.5278583"><ele>66.75</ele><time>2026-04-19T08:12:17.988Z</time></trkpt><trkpt lat="44.6990133" lon="10.52778"><ele>66.5</ele><time>2026-04-19T08:12:18.988Z</time></trkpt><trkpt lat="44.6989033" lon="10.5277067"><ele>66.25</ele><time>2026-04-19T08:12:19.988Z</time></trkpt><trkpt lat="44.6987933" lon="10.52764"><ele>66.0</ele><time>2026-04-19T08:12:20.988Z</time></trkpt><trkpt lat="44.69869" lon="10.5275617"><ele>67.0</ele><time>2026-04-19T08:12:21.988Z</time></trkpt><trkpt lat="44.6985767" lon="10.5275067"><ele>68.0</ele><time>2026-04-19T08:12:22.988Z</time></trkpt><trkpt lat="44.6984567" lon="10.5274483"><ele>69.0</ele><time>2026-04-19T08:12:23.988Z</time></trkpt><trkpt lat="44.6983433" lon="10.5273917"><ele>70.0</ele><time>2026-04-19T08:12:24.988Z</time></trkpt><trkpt lat="44.6982333" lon="10.527335"><ele>70.0</ele><time>2026-04-19T08:12:25.988Z</time></trkpt><trkpt lat="44.6981467" lon="10.527285"><ele>70.0</ele><time>2026-04-19T08:12:26.988Z</time></trkpt><trkpt lat="44.69807" lon="10.5272417"><ele>70.0</ele><time>2026-04-19T08:12:27.988Z</time></trkpt><trkpt lat="44.697995" lon="10.5271983"><ele>70.0</ele><time>2026-04-19T08:12:28.988Z</time></trkpt><trkpt lat="44.697925" lon="10.527155"><ele>70.0</ele><time>2026-04-19T08:12:29.988Z</time></trkpt><trkpt lat="44.697855" lon="10.52712"><ele>70.0</ele><time>2026-04-19T08:12:30.988Z</time></trkpt><trkpt lat="44.6977783" lon="10.52708"><ele>70.0</ele><time>2026-04-19T08:12:31.988Z</time></trkpt><trkpt lat="44.6976767" lon="10.5270083"><ele>70.0</ele><time>2026-04-19T08:12:33.988Z</time></trkpt><trkpt lat="44.6975967" lon="10.526965"><ele>70.0</ele><time>2026-04-19T08:12:35.988Z</time></trkpt><trkpt lat="44.6975317" lon="10.5269133"><ele>70.0</ele><time>2026-04-19T08:12:38.988Z</time></trkpt><trkpt lat="44.6975467" lon="10.52679"><ele>70.0</ele><time>2026-04-19T08:12:41.988Z</time></trkpt><trkpt lat="44.6976117" lon="10.5266283"><ele>70.0</ele><time>2026-04-19T08:12:43.988Z</time></trkpt><trkpt lat="44.6976617" lon="10.5265333"><ele>70.0</ele><time>2026-04-19T08:12:44.988Z</time></trkpt><trkpt lat="44.69771" lon="10.526445"><ele>70.0</ele><time>2026-04-19T08:12:45.988Z</time></trkpt><trkpt lat="44.6977567" lon="10.52635"><ele>70.0</ele><time>2026-04-19T08:12:46.988Z</time></trkpt><trkpt lat="44.6977967" lon="10.52627"><ele>70.0</ele><time>2026-04-19T08:12:47.988Z</time></trkpt><trkpt lat="44.6978333" lon="10.5261933"><ele>70.0</ele><time>2026-04-19T08:12:48.988Z</time></trkpt><trkpt lat="44.6979067" lon="10.526045"><ele>70.33333333333333</ele><time>2026-04-19T08:12:50.988Z</time></trkpt><trkpt lat="44.69795" lon="10.525955"><ele>70.66666666666666</ele><time>2026-04-19T08:12:51.988Z</time></trkpt><trkpt lat="44.6979967" lon="10.5258583"><ele>71.0</ele><time>2026-04-19T08:12:52.988Z</time></trkpt><trkpt lat="44.6980367" lon="10.5257567"><ele>71.33333333333333</ele><time>2026-04-19T08:12:53.988Z</time></trkpt><trkpt lat="44.69807" lon="10.5256583"><ele>71.66666666666667</ele><time>2026-04-19T08:12:54.988Z</time></trkpt><trkpt lat="44.698105" lon="10.5255633"><ele>72.0</ele><time>2026-04-19T08:12:55.988Z</time></trkpt><trkpt lat="44.69814" lon="10.5254633"><ele>72.33333333333333</ele><time>2026-04-19T08:12:56.988Z</time></trkpt><trkpt lat="44.6981783" lon="10.52536"><ele>72.66666666666667</ele><time>2026-04-19T08:12:57.988Z</time></trkpt><trkpt lat="44.6982217" lon="10.5252467"><ele>73.0</ele><time>2026-04-19T08:12:58.988Z</time></trkpt><trkpt lat="44.6982667" lon="10.5251333"><ele>73.33333333333334</ele><time>2026-04-19T08:12:59.988Z</time></trkpt><trkpt lat="44.698305" lon="10.5250283"><ele>73.66666666666667</ele><time>2026-04-19T08:13:00.988Z</time></trkpt><trkpt lat="44.6983317" lon="10.5249183"><ele>74.0</ele><time>2026-04-19T08:13:01.988Z</time></trkpt><trkpt lat="44.6983683" lon="10.524815"><ele>74.0</ele><time>2026-04-19T08:13:02.988Z</time></trkpt><trkpt lat="44.6984083" lon="10.52472"><ele>74.0</ele><time>2026-04-19T08:13:03.988Z</time></trkpt><trkpt lat="44.69845" lon="10.5246267"><ele>74.0</ele><time>2026-04-19T08:13:04.988Z</time></trkpt><trkpt lat="44.6984933" lon="10.524535"><ele>74.0</ele><time>2026-04-19T08:13:05.988Z</time></trkpt><trkpt lat="44.6985333" lon="10.52444"><ele>74.0</ele><time>2026-04-19T08:13:06.988Z</time></trkpt><trkpt lat="44.6985633" lon="10.52434"><ele>74.0</ele><time>2026-04-19T08:13:07.988Z</time></trkpt><trkpt lat="44.6985933" lon="10.5242333"><ele>74.2</ele><time>2026-04-19T08:13:08.988Z</time></trkpt><trkpt lat="44.6986283" lon="10.524115"><ele>74.4</ele><time>2026-04-19T08:13:09.988Z</time></trkpt><trkpt lat="44.69866" lon="10.523985"><ele>74.6</ele><time>2026-04-19T08:13:10.988Z</time></trkpt><trkpt lat="44.698695" lon="10.5238667"><ele>74.8</ele><time>2026-04-19T08:13:11.988Z</time></trkpt><trkpt lat="44.6987383" lon="10.5237533"><ele>75.0</ele><time>2026-04-19T08:13:12.988Z</time></trkpt><trkpt lat="44.6987717" lon="10.5236383"><ele>75.16666666666667</ele><time>2026-04-19T08:13:13.988Z</time></trkpt><trkpt lat="44.69881" lon="10.5235317"><ele>75.33333333333333</ele><time>2026-04-19T08:13:14.988Z</time></trkpt><trkpt lat="44.6988517" lon="10.5234267"><ele>75.5</ele><time>2026-04-19T08:13:15.988Z</time></trkpt><trkpt lat="44.6989033" lon="10.523335"><ele>75.66666666666666</ele><time>2026-04-19T08:13:16.988Z</time></trkpt><trkpt lat="44.6989483" lon="10.5232633"><ele>75.83333333333333</ele><time>2026-04-19T08:13:17.988Z</time></trkpt><trkpt lat="44.69902" lon="10.5231433"><ele>76.0</ele><time>2026-04-19T08:13:19.988Z</time></trkpt><trkpt lat="44.699085" lon="10.5230183"><ele>76.0</ele><time>2026-04-19T08:13:21.988Z</time></trkpt><trkpt lat="44.6991367" lon="10.5229067"><ele>76.0</ele><time>2026-04-19T08:13:23.988Z</time></trkpt><trkpt lat="44.6991967" lon="10.5228417"><ele>76.0</ele><time>2026-04-19T08:13:25.988Z</time></trkpt><trkpt lat="44.699255" lon="10.5227817"><ele>76.0</ele><time>2026-04-19T08:13:29.988Z</time></trkpt><trkpt lat="44.69925" lon="10.52268"><ele>76.0</ele><time>2026-04-19T08:13:44.988Z</time></trkpt><trkpt lat="44.69916" lon="10.5225433"><ele>76.0</ele><time>2026-04-19T08:13:46.988Z</time></trkpt><trkpt lat="44.6990733" lon="10.52245"><ele>76.0</ele><time>2026-04-19T08:13:47.988Z</time></trkpt><trkpt lat="44.69898" lon="10.522345"><ele>76.0</ele><time>2026-04-19T08:13:48.988Z</time></trkpt><trkpt lat="44.6988717" lon="10.5222533"><ele>76.0</ele><time>2026-04-19T08:13:49.988Z</time></trkpt><trkpt lat="44.6987667" lon="10.5221517"><ele>76.0</ele><time>2026-04-19T08:13:50.989Z</time></trkpt><trkpt lat="44.698675" lon="10.5220567"><ele>76.0</ele><time>2026-04-19T08:13:51.988Z</time></trkpt><trkpt lat="44.698595" lon="10.521975"><ele>76.0</ele><time>2026-04-19T08:13:52.988Z</time></trkpt><trkpt lat="44.698515" lon="10.5218933"><ele>76.0</ele><time>2026-04-19T08:13:53.988Z</time></trkpt><trkpt lat="44.6984383" lon="10.5218133"><ele>76.0</ele><time>2026-04-19T08:13:54.988Z</time></trkpt><trkpt lat="44.6983667" lon="10.5217333"><ele>76.0</ele><time>2026-04-19T08:13:55.988Z</time></trkpt><trkpt lat="44.6982817" lon="10.5216717"><ele>76.8</ele><time>2026-04-19T08:13:56.988Z</time></trkpt><trkpt lat="44.6982" lon="10.5216217"><ele>77.6</ele><time>2026-04-19T08:13:57.988Z</time></trkpt><trkpt lat="44.698105" lon="10.5215733"><ele>78.4</ele><time>2026-04-19T08:13:58.988Z</time></trkpt><trkpt lat="44.6980183" lon="10.52153"><ele>79.2</ele><time>2026-04-19T08:13:59.988Z</time></trkpt><trkpt lat="44.6979333" lon="10.5215"><ele>80.0</ele><time>2026-04-19T08:14:00.988Z</time></trkpt><trkpt lat="44.6978267" lon="10.5214767"><ele>80.16666666666667</ele><time>2026-04-19T08:14:01.988Z</time></trkpt><trkpt lat="44.6977183" lon="10.521445"><ele>80.33333333333334</ele><time>2026-04-19T08:14:02.988Z</time></trkpt><trkpt lat="44.6976283" lon="10.5214183"><ele>80.5</ele><time>2026-04-19T08:14:03.988Z</time></trkpt><trkpt lat="44.6975483" lon="10.5213967"><ele>80.66666666666667</ele><time>2026-04-19T08:14:04.988Z</time></trkpt><trkpt lat="44.6974667" lon="10.5213883"><ele>80.83333333333333</ele><time>2026-04-19T08:14:05.988Z</time></trkpt><trkpt lat="44.697385" lon="10.5213667"><ele>81.0</ele><time>2026-04-19T08:14:06.988Z</time></trkpt><trkpt lat="44.6973" lon="10.5213517"><ele>81.0</ele><time>2026-04-19T08:14:07.988Z</time></trkpt><trkpt lat="44.6972067" lon="10.521335"><ele>81.0</ele><time>2026-04-19T08:14:08.988Z</time></trkpt><trkpt lat="44.6971217" lon="10.5213083"><ele>81.0</ele><time>2026-04-19T08:14:09.988Z</time></trkpt><trkpt lat="44.697045" lon="10.5212883"><ele>81.0</ele><time>2026-04-19T08:14:10.989Z</time></trkpt><trkpt lat="44.6969667" lon="10.5212783"><ele>81.0</ele><time>2026-04-19T08:14:11.988Z</time></trkpt><trkpt lat="44.6969033" lon="10.5212717"><ele>81.0</ele><time>2026-04-19T08:14:12.988Z</time></trkpt><trkpt lat="44.6967767" lon="10.5212333"><ele>81.0</ele><time>2026-04-19T08:14:14.988Z</time></trkpt><trkpt lat="44.6967083" lon="10.5212067"><ele>81.0</ele><time>2026-04-19T08:14:15.988Z</time></trkpt><trkpt lat="44.69664" lon="10.52119"><ele>81.0</ele><time>2026-04-19T08:14:16.988Z</time></trkpt><trkpt lat="44.6965233" lon="10.52115"><ele>81.0</ele><time>2026-04-19T08:14:18.988Z</time></trkpt><trkpt lat="44.6964267" lon="10.5211067"><ele>81.0</ele><time>2026-04-19T08:14:20.988Z</time></trkpt><trkpt lat="44.696335" lon="10.5210733"><ele>81.0</ele><time>2026-04-19T08:14:22.988Z</time></trkpt><trkpt lat="44.6962533" lon="10.52104"><ele>81.0</ele><time>2026-04-19T08:14:24.988Z</time></trkpt><trkpt lat="44.6961833" lon="10.5210133"><ele>81.0</ele><time>2026-04-19T08:14:26.988Z</time></trkpt><trkpt lat="44.69612" lon="10.5209833"><ele>81.0</ele><time>2026-04-19T08:14:28.988Z</time></trkpt><trkpt lat="44.69604" lon="10.5209333"><ele>81.0</ele><time>2026-04-19T08:14:31.988Z</time></trkpt><trkpt lat="44.6959317" lon="10.5209033"><ele>81.0</ele><time>2026-04-19T08:14:43.988Z</time></trkpt><trkpt lat="44.6958417" lon="10.520715"><ele>81.0</ele><time>2026-04-19T08:15:06.988Z</time></trkpt><trkpt lat="44.6958483" lon="10.52062"><ele>81.0</ele><time>2026-04-19T08:15:08.988Z</time></trkpt><trkpt lat="44.6958533" lon="10.5205083"><ele>81.0</ele><time>2026-04-19T08:15:10.988Z</time></trkpt><trkpt lat="44.6958683" lon="10.5203583"><ele>81.0</ele><time>2026-04-19T08:15:12.988Z</time></trkpt><trkpt lat="44.6958883" lon="10.5201983"><ele>81.0</ele><time>2026-04-19T08:15:14.988Z</time></trkpt><trkpt lat="44.6959" lon="10.5200967"><ele>81.0</ele><time>2026-04-19T08:15:15.988Z</time></trkpt><trkpt lat="44.6959117" lon="10.519995"><ele>81.16666666666667</ele><time>2026-04-19T08:15:16.988Z</time></trkpt><trkpt lat="44.695925" lon="10.5198817"><ele>81.33333333333333</ele><time>2026-04-19T08:15:17.988Z</time></trkpt><trkpt lat="44.6959317" lon="10.5197717"><ele>81.5</ele><time>2026-04-19T08:15:18.988Z</time></trkpt><trkpt lat="44.6959317" lon="10.51966"><ele>81.66666666666666</ele><time>2026-04-19T08:15:19.988Z</time></trkpt><trkpt lat="44.6959267" lon="10.519555"><ele>81.83333333333333</ele><time>2026-04-19T08:15:20.988Z</time></trkpt><trkpt lat="44.6959217" lon="10.51945"><ele>82.0</ele><time>2026-04-19T08:15:21.988Z</time></trkpt><trkpt lat="44.6959233" lon="10.5193583"><ele>81.99999999999999</ele><time>2026-04-19T08:15:22.989Z</time></trkpt><trkpt lat="44.6959233" lon="10.5192567"><ele>82.0</ele><time>2026-04-19T08:15:23.988Z</time></trkpt><trkpt lat="44.6959167" lon="10.5191667"><ele>82.0</ele><time>2026-04-19T08:15:24.988Z</time></trkpt><trkpt lat="44.6959117" lon="10.5190783"><ele>82.0</ele><time>2026-04-19T08:15:25.988Z</time></trkpt><trkpt lat="44.6959033" lon="10.518985"><ele>82.0</ele><time>2026-04-19T08:15:26.988Z</time></trkpt><trkpt lat="44.6958967" lon="10.5188883"><ele>81.99999999999999</ele><time>2026-04-19T08:15:27.988Z</time></trkpt><trkpt lat="44.6958867" lon="10.5187633"><ele>82.0</ele><time>2026-04-19T08:15:28.988Z</time></trkpt><trkpt lat="44.695875" lon="10.518615"><ele>82.0</ele><time>2026-04-19T08:15:29.988Z</time></trkpt><trkpt lat="44.695875" lon="10.5184667"><ele>82.0</ele><time>2026-04-19T08:15:30.988Z</time></trkpt><trkpt lat="44.695875" lon="10.51832"><ele>82.0</ele><time>2026-04-19T08:15:31.988Z</time></trkpt><trkpt lat="44.6958767" lon="10.51818"><ele>82.0</ele><time>2026-04-19T08:15:32.988Z</time></trkpt><trkpt lat="44.695865" lon="10.5180517"><ele>82.0</ele><time>2026-04-19T08:15:33.988Z</time></trkpt><trkpt lat="44.6958533" lon="10.5179283"><ele>82.33333333333333</ele><time>2026-04-19T08:15:34.988Z</time></trkpt><trkpt lat="44.695845" lon="10.51781"><ele>82.66666666666666</ele><time>2026-04-19T08:15:35.988Z</time></trkpt><trkpt lat="44.695835" lon="10.5176933"><ele>83.0</ele><time>2026-04-19T08:15:36.988Z</time></trkpt><trkpt lat="44.6958283" lon="10.5175583"><ele>83.33333333333333</ele><time>2026-04-19T08:15:37.988Z</time></trkpt><trkpt lat="44.69583" lon="10.5174483"><ele>83.66666666666667</ele><time>2026-04-19T08:15:38.988Z</time></trkpt><trkpt lat="44.6958283" lon="10.5173367"><ele>84.0</ele><time>2026-04-19T08:15:39.988Z</time></trkpt><trkpt lat="44.6958283" lon="10.5172083"><ele>84.0</ele><time>2026-04-19T08:15:40.988Z</time></trkpt><trkpt lat="44.69582" lon="10.51707"><ele>84.0</ele><time>2026-04-19T08:15:41.988Z</time></trkpt><trkpt lat="44.6958083" lon="10.5169333"><ele>84.0</ele><time>2026-04-19T08:15:42.988Z</time></trkpt><trkpt lat="44.6957983" lon="10.5168"><ele>84.0</ele><time>2026-04-19T08:15:43.988Z</time></trkpt><trkpt lat="44.69579" lon="10.5166767"><ele>84.0</ele><time>2026-04-19T08:15:44.988Z</time></trkpt><trkpt lat="44.6957833" lon="10.5165433"><ele>84.2</ele><time>2026-04-19T08:15:45.988Z</time></trkpt><trkpt lat="44.6957783" lon="10.516405"><ele>84.4</ele><time>2026-04-19T08:15:46.988Z</time></trkpt><trkpt lat="44.695775" lon="10.5162717"><ele>84.6</ele><time>2026-04-19T08:15:47.988Z</time></trkpt><trkpt lat="44.6957717" lon="10.5161417"><ele>84.8</ele><time>2026-04-19T08:15:48.988Z</time></trkpt><trkpt lat="44.6957633" lon="10.51601"><ele>85.0</ele><time>2026-04-19T08:15:49.988Z</time></trkpt><trkpt lat="44.6957617" lon="10.5158883"><ele>85.16666666666666</ele><time>2026-04-19T08:15:50.988Z</time></trkpt><trkpt lat="44.6957533" lon="10.51576"><ele>85.33333333333333</ele><time>2026-04-19T08:15:51.988Z</time></trkpt><trkpt lat="44.695745" lon="10.5156267"><ele>85.5</ele><time>2026-04-19T08:15:52.988Z</time></trkpt><trkpt lat="44.69574" lon="10.5155083"><ele>85.66666666666667</ele><time>2026-04-19T08:15:53.988Z</time></trkpt><trkpt lat="44.6957383" lon="10.5153933"><ele>85.83333333333334</ele><time>2026-04-19T08:15:54.988Z</time></trkpt><trkpt lat="44.6957333" lon="10.5152833"><ele>86.0</ele><time>2026-04-19T08:15:55.988Z</time></trkpt><trkpt lat="44.695725" lon="10.5151667"><ele>86.0</ele><time>2026-04-19T08:15:56.988Z</time></trkpt><trkpt lat="44.6957167" lon="10.51503"><ele>86.0</ele><time>2026-04-19T08:15:57.988Z</time></trkpt><trkpt lat="44.6957217" lon="10.5148817"><ele>86.0</ele><time>2026-04-19T08:15:58.988Z</time></trkpt><trkpt lat="44.69571" lon="10.51475"><ele>86.0</ele><time>2026-04-19T08:15:59.988Z</time></trkpt><trkpt lat="44.6957017" lon="10.514615"><ele>86.0</ele><time>2026-04-19T08:16:00.988Z</time></trkpt><trkpt lat="44.6956867" lon="10.5144817"><ele>85.8</ele><time>2026-04-19T08:16:01.988Z</time></trkpt><trkpt lat="44.6956733" lon="10.5143317"><ele>85.6</ele><time>2026-04-19T08:16:02.988Z</time></trkpt><trkpt lat="44.6956567" lon="10.5141767"><ele>85.4</ele><time>2026-04-19T08:16:03.988Z</time></trkpt><trkpt lat="44.695655" lon="10.51402"><ele>85.2</ele><time>2026-04-19T08:16:04.988Z</time></trkpt><trkpt lat="44.6956533" lon="10.5138617"><ele>85.0</ele><time>2026-04-19T08:16:05.988Z</time></trkpt><trkpt lat="44.6956383" lon="10.513715"><ele>85.6</ele><time>2026-04-19T08:16:06.988Z</time></trkpt><trkpt lat="44.6956317" lon="10.5135667"><ele>86.2</ele><time>2026-04-19T08:16:07.988Z</time></trkpt><trkpt lat="44.6956233" lon="10.5134183"><ele>86.80000000000001</ele><time>2026-04-19T08:16:08.988Z</time></trkpt><trkpt lat="44.69562" lon="10.5132683"><ele>87.4</ele><time>2026-04-19T08:16:09.988Z</time></trkpt><trkpt lat="44.6956117" lon="10.5131267"><ele>88.0</ele><time>2026-04-19T08:16:10.989Z</time></trkpt><trkpt lat="44.6956" lon="10.5129817"><ele>87.80000000000001</ele><time>2026-04-19T08:16:11.988Z</time></trkpt><trkpt lat="44.6955933" lon="10.5128367"><ele>87.6</ele><time>2026-04-19T08:16:12.988Z</time></trkpt><trkpt lat="44.6955817" lon="10.512695"><ele>87.4</ele><time>2026-04-19T08:16:13.988Z</time></trkpt><trkpt lat="44.695575" lon="10.512555"><ele>87.19999999999999</ele><time>2026-04-19T08:16:14.988Z</time></trkpt><trkpt lat="44.6955633" lon="10.512415"><ele>87.0</ele><time>2026-04-19T08:16:15.988Z</time></trkpt><trkpt lat="44.6955483" lon="10.512275"><ele>87.0</ele><time>2026-04-19T08:16:16.988Z</time></trkpt><trkpt lat="44.6955183" lon="10.51214"><ele>87.0</ele><time>2026-04-19T08:16:17.988Z</time></trkpt><trkpt lat="44.6954733" lon="10.5119983"><ele>87.0</ele><time>2026-04-19T08:16:18.988Z</time></trkpt><trkpt lat="44.695415" lon="10.5118617"><ele>87.0</ele><time>2026-04-19T08:16:19.988Z</time></trkpt><trkpt lat="44.6953583" lon="10.511725"><ele>87.0</ele><time>2026-04-19T08:16:20.988Z</time></trkpt><trkpt lat="44.6953067" lon="10.5115933"><ele>87.19999999999999</ele><time>2026-04-19T08:16:21.988Z</time></trkpt><trkpt lat="44.6952533" lon="10.5114717"><ele>87.4</ele><time>2026-04-19T08:16:22.988Z</time></trkpt><trkpt lat="44.6951967" lon="10.5113333"><ele>87.6</ele><time>2026-04-19T08:16:23.988Z</time></trkpt><trkpt lat="44.69514" lon="10.5112"><ele>87.80000000000001</ele><time>2026-04-19T08:16:24.988Z</time></trkpt><trkpt lat="44.6950817" lon="10.51105"><ele>88.0</ele><time>2026-04-19T08:16:25.988Z</time></trkpt><trkpt lat="44.6950217" lon="10.5109167"><ele>88.25</ele><time>2026-04-19T08:16:26.988Z</time></trkpt><trkpt lat="44.6949667" lon="10.5107817"><ele>88.5</ele><time>2026-04-19T08:16:27.988Z</time></trkpt><trkpt lat="44.69491" lon="10.510645"><ele>88.75</ele><time>2026-04-19T08:16:28.988Z</time></trkpt><trkpt lat="44.69485" lon="10.5105033"><ele>89.0</ele><time>2026-04-19T08:16:29.988Z</time></trkpt><trkpt lat="44.6947867" lon="10.5103667"><ele>89.0</ele><time>2026-04-19T08:16:30.988Z</time></trkpt><trkpt lat="44.6947333" lon="10.5102383"><ele>89.0</ele><time>2026-04-19T08:16:31.988Z</time></trkpt><trkpt lat="44.694685" lon="10.51012"><ele>89.0</ele><time>2026-04-19T08:16:32.988Z</time></trkpt><trkpt lat="44.6946433" lon="10.509995"><ele>89.0</ele><time>2026-04-19T08:16:33.988Z</time></trkpt><trkpt lat="44.6946017" lon="10.5098483"><ele>89.0</ele><time>2026-04-19T08:16:34.988Z</time></trkpt><trkpt lat="44.6945683" lon="10.509685"><ele>88.66666666666667</ele><time>2026-04-19T08:16:35.988Z</time></trkpt><trkpt lat="44.6945483" lon="10.5094917"><ele>88.33333333333333</ele><time>2026-04-19T08:16:36.989Z</time></trkpt><trkpt lat="44.6945217" lon="10.5092717"><ele>88.0</ele><time>2026-04-19T08:16:37.988Z</time></trkpt><trkpt lat="44.6944967" lon="10.5090383"><ele>88.0</ele><time>2026-04-19T08:16:38.988Z</time></trkpt><trkpt lat="44.69447" lon="10.5087967"><ele>88.0</ele><time>2026-04-19T08:16:39.988Z</time></trkpt><trkpt lat="44.69444" lon="10.5085633"><ele>88.0</ele><time>2026-04-19T08:16:40.989Z</time></trkpt><trkpt lat="44.6944217" lon="10.508345"><ele>88.5</ele><time>2026-04-19T08:16:41.988Z</time></trkpt><trkpt lat="44.6944067" lon="10.5081417"><ele>89.0</ele><time>2026-04-19T08:16:42.988Z</time></trkpt><trkpt lat="44.6943983" lon="10.5079417"><ele>89.5</ele><time>2026-04-19T08:16:43.988Z</time></trkpt><trkpt lat="44.6944" lon="10.5077283"><ele>90.0</ele><time>2026-04-19T08:16:44.988Z</time></trkpt><trkpt lat="44.69442" lon="10.507515"><ele>90.0</ele><time>2026-04-19T08:16:45.988Z</time></trkpt><trkpt lat="44.6944533" lon="10.507305"><ele>90.0</ele><time>2026-04-19T08:16:46.988Z</time></trkpt><trkpt lat="44.6944967" lon="10.5071033"><ele>90.0</ele><time>2026-04-19T08:16:47.988Z</time></trkpt><trkpt lat="44.69454" lon="10.5069067"><ele>90.0</ele><time>2026-04-19T08:16:48.988Z</time></trkpt><trkpt lat="44.694585" lon="10.50672"><ele>89.75</ele><time>2026-04-19T08:16:49.988Z</time></trkpt><trkpt lat="44.694625" lon="10.5065467"><ele>89.5</ele><time>2026-04-19T08:16:50.988Z</time></trkpt><trkpt lat="44.6946633" lon="10.5063767"><ele>89.25</ele><time>2026-04-19T08:16:51.988Z</time></trkpt><trkpt lat="44.6947" lon="10.5062083"><ele>89.0</ele><time>2026-04-19T08:16:52.988Z</time></trkpt><trkpt lat="44.6947333" lon="10.506035"><ele>88.80000000000001</ele><time>2026-04-19T08:16:53.988Z</time></trkpt><trkpt lat="44.6947533" lon="10.5058633"><ele>88.60000000000001</ele><time>2026-04-19T08:16:54.988Z</time></trkpt><trkpt lat="44.6947583" lon="10.5057083"><ele>88.4</ele><time>2026-04-19T08:16:55.988Z</time></trkpt><trkpt lat="44.6947483" lon="10.5055617"><ele>88.2</ele><time>2026-04-19T08:16:56.988Z</time></trkpt><trkpt lat="44.6947183" lon="10.5054233"><ele>88.0</ele><time>2026-04-19T08:16:57.988Z</time></trkpt><trkpt lat="44.6946717" lon="10.5052917"><ele>87.80000000000001</ele><time>2026-04-19T08:16:58.988Z</time></trkpt><trkpt lat="44.6946067" lon="10.5051617"><ele>87.6</ele><time>2026-04-19T08:16:59.988Z</time></trkpt><trkpt lat="44.694525" lon="10.5050433"><ele>87.4</ele><time>2026-04-19T08:17:00.988Z</time></trkpt><trkpt lat="44.6944433" lon="10.5049517"><ele>87.19999999999999</ele><time>2026-04-19T08:17:01.988Z</time></trkpt><trkpt lat="44.6943683" lon="10.5048917"><ele>87.0</ele><time>2026-04-19T08:17:02.988Z</time></trkpt><trkpt lat="44.694305" lon="10.50485"><ele>87.5</ele><time>2026-04-19T08:17:03.988Z</time></trkpt><trkpt lat="44.6942233" lon="10.504805"><ele>88.0</ele><time>2026-04-19T08:17:05.988Z</time></trkpt><trkpt lat="44.6941533" lon="10.5047667"><ele>88.5</ele><time>2026-04-19T08:17:08.988Z</time></trkpt><trkpt lat="44.694095" lon="10.5046967"><ele>89.0</ele><time>2026-04-19T08:17:10.988Z</time></trkpt><trkpt lat="44.69404" lon="10.50457"><ele>89.5</ele><time>2026-04-19T08:17:12.988Z</time></trkpt><trkpt lat="44.69399" lon="10.5045"><ele>90.0</ele><time>2026-04-19T08:17:13.989Z</time></trkpt><trkpt lat="44.6939283" lon="10.5044467"><ele>90.6</ele><time>2026-04-19T08:17:14.988Z</time></trkpt><trkpt lat="44.6938567" lon="10.5044233"><ele>91.2</ele><time>2026-04-19T08:17:15.988Z</time></trkpt><trkpt lat="44.6937683" lon="10.50443"><ele>91.80000000000001</ele><time>2026-04-19T08:17:16.988Z</time></trkpt><trkpt lat="44.6936667" lon="10.5044583"><ele>92.4</ele><time>2026-04-19T08:17:17.988Z</time></trkpt><trkpt lat="44.693545" lon="10.504465"><ele>93.0</ele><time>2026-04-19T08:17:18.988Z</time></trkpt><trkpt lat="44.69341" lon="10.5044333"><ele>93.0</ele><time>2026-04-19T08:17:19.989Z</time></trkpt><trkpt lat="44.6932567" lon="10.504385"><ele>93.0</ele><time>2026-04-19T08:17:20.988Z</time></trkpt><trkpt lat="44.6930983" lon="10.5043333"><ele>93.0</ele><time>2026-04-19T08:17:21.988Z</time></trkpt><trkpt lat="44.6929383" lon="10.5042783"><ele>93.0</ele><time>2026-04-19T08:17:22.988Z</time></trkpt><trkpt lat="44.692775" lon="10.5042183"><ele>93.0</ele><time>2026-04-19T08:17:23.988Z</time></trkpt><trkpt lat="44.692615" lon="10.5041633"><ele>93.0</ele><time>2026-04-19T08:17:24.988Z</time></trkpt><trkpt lat="44.6924483" lon="10.504115"><ele>93.66666666666667</ele><time>2026-04-19T08:17:25.988Z</time></trkpt><trkpt lat="44.69227" lon="10.5040517"><ele>94.33333333333334</ele><time>2026-04-19T08:17:26.988Z</time></trkpt><trkpt lat="44.6920867" lon="10.5039967"><ele>95.0</ele><time>2026-04-19T08:17:27.988Z</time></trkpt><trkpt lat="44.6918933" lon="10.5039383"><ele>95.0</ele><time>2026-04-19T08:17:28.988Z</time></trkpt><trkpt lat="44.6917083" lon="10.5038683"><ele>95.0</ele><time>2026-04-19T08:17:29.988Z</time></trkpt><trkpt lat="44.6915217" lon="10.5037983"><ele>95.0</ele><time>2026-04-19T08:17:30.988Z</time></trkpt><trkpt lat="44.691325" lon="10.5037117"><ele>95.0</ele><time>2026-04-19T08:17:31.988Z</time></trkpt><trkpt lat="44.691145" lon="10.5036117"><ele>95.0</ele><time>2026-04-19T08:17:32.988Z</time></trkpt><trkpt lat="44.6909733" lon="10.5035117"><ele>95.0</ele><time>2026-04-19T08:17:33.988Z</time></trkpt><trkpt lat="44.6907967" lon="10.5034033"><ele>95.0</ele><time>2026-04-19T08:17:34.988Z</time></trkpt><trkpt lat="44.6906183" lon="10.5032983"><ele>95.0</ele><time>2026-04-19T08:17:35.988Z</time></trkpt><trkpt lat="44.6904367" lon="10.5031883"><ele>95.0</ele><time>2026-04-19T08:17:36.988Z</time></trkpt><trkpt lat="44.69025" lon="10.5030833"><ele>95.33333333333334</ele><time>2026-04-19T08:17:37.988Z</time></trkpt><trkpt lat="44.6900583" lon="10.502975"><ele>95.66666666666667</ele><time>2026-04-19T08:17:38.988Z</time></trkpt><trkpt lat="44.6898717" lon="10.502865"><ele>96.0</ele><time>2026-04-19T08:17:39.988Z</time></trkpt><trkpt lat="44.6896833" lon="10.502755"><ele>96.0</ele><time>2026-04-19T08:17:40.988Z</time></trkpt><trkpt lat="44.68949" lon="10.5026333"><ele>96.0</ele><time>2026-04-19T08:17:41.988Z</time></trkpt><trkpt lat="44.689305" lon="10.502515"><ele>96.0</ele><time>2026-04-19T08:17:42.988Z</time></trkpt><trkpt lat="44.6891083" lon="10.5023983"><ele>97.0</ele><time>2026-04-19T08:17:43.988Z</time></trkpt><trkpt lat="44.6889117" lon="10.5022833"><ele>98.0</ele><time>2026-04-19T08:17:44.988Z</time></trkpt><trkpt lat="44.6887133" lon="10.5021617"><ele>99.0</ele><time>2026-04-19T08:17:45.988Z</time></trkpt><trkpt lat="44.6885133" lon="10.502035"><ele>99.0</ele><time>2026-04-19T08:17:46.988Z</time></trkpt><trkpt lat="44.6883167" lon="10.50191"><ele>99.0</ele><time>2026-04-19T08:17:47.988Z</time></trkpt><trkpt lat="44.6881133" lon="10.50179"><ele>99.0</ele><time>2026-04-19T08:17:48.988Z</time></trkpt><trkpt lat="44.68792" lon="10.5016717"><ele>99.0</ele><time>2026-04-19T08:17:49.988Z</time></trkpt><trkpt lat="44.687745" lon="10.501565"><ele>99.0</ele><time>2026-04-19T08:17:50.988Z</time></trkpt><trkpt lat="44.68757" lon="10.50146"><ele>99.0</ele><time>2026-04-19T08:17:51.988Z</time></trkpt><trkpt lat="44.6873933" lon="10.5013567"><ele>99.0</ele><time>2026-04-19T08:17:52.988Z</time></trkpt><trkpt lat="44.6872133" lon="10.5012567"><ele>99.0</ele><time>2026-04-19T08:17:53.988Z</time></trkpt><trkpt lat="44.6870333" lon="10.5011617"><ele>99.0</ele><time>2026-04-19T08:17:54.988Z</time></trkpt><trkpt lat="44.6868733" lon="10.50107"><ele>99.33333333333334</ele><time>2026-04-19T08:17:55.988Z</time></trkpt><trkpt lat="44.6867183" lon="10.50098"><ele>99.66666666666667</ele><time>2026-04-19T08:17:56.989Z</time></trkpt><trkpt lat="44.686565" lon="10.5008883"><ele>100.0</ele><time>2026-04-19T08:17:57.988Z</time></trkpt><trkpt lat="44.6864083" lon="10.50079"><ele>100.0</ele><time>2026-04-19T08:17:58.988Z</time></trkpt><trkpt lat="44.6862633" lon="10.5006833"><ele>100.0</ele><time>2026-04-19T08:17:59.988Z</time></trkpt><trkpt lat="44.6861167" lon="10.5005667"><ele>100.0</ele><time>2026-04-19T08:18:00.988Z</time></trkpt><trkpt lat="44.6859767" lon="10.5004433"><ele>100.75</ele><time>2026-04-19T08:18:01.988Z</time></trkpt><trkpt lat="44.685845" lon="10.50032"><ele>101.5</ele><time>2026-04-19T08:18:02.988Z</time></trkpt><trkpt lat="44.685725" lon="10.5002017"><ele>102.25</ele><time>2026-04-19T08:18:03.988Z</time></trkpt><trkpt lat="44.68562" lon="10.500085"><ele>103.0</ele><time>2026-04-19T08:18:04.988Z</time></trkpt><trkpt lat="44.685525" lon="10.4999833"><ele>103.0</ele><time>2026-04-19T08:18:05.988Z</time></trkpt><trkpt lat="44.6854383" lon="10.49989"><ele>103.0</ele><time>2026-04-19T08:18:06.988Z</time></trkpt><trkpt lat="44.6853517" lon="10.499795"><ele>103.0</ele><time>2026-04-19T08:18:07.988Z</time></trkpt><trkpt lat="44.685275" lon="10.4996833"><ele>103.0</ele><time>2026-04-19T08:18:08.988Z</time></trkpt><trkpt lat="44.6852183" lon="10.4995667"><ele>103.0</ele><time>2026-04-19T08:18:09.988Z</time></trkpt><trkpt lat="44.685155" lon="10.4994483"><ele>103.25</ele><time>2026-04-19T08:18:10.988Z</time></trkpt><trkpt lat="44.6850717" lon="10.4993617"><ele>103.5</ele><time>2026-04-19T08:18:11.988Z</time></trkpt><trkpt lat="44.6849633" lon="10.4993117"><ele>103.75</ele><time>2026-04-19T08:18:12.988Z</time></trkpt><trkpt lat="44.68484" lon="10.4992433"><ele>104.0</ele><time>2026-04-19T08:18:13.988Z</time></trkpt><trkpt lat="44.68472" lon="10.4991467"><ele>104.0</ele><time>2026-04-19T08:18:14.988Z</time></trkpt><trkpt lat="44.68459" lon="10.49903"><ele>104.0</ele><time>2026-04-19T08:18:15.988Z</time></trkpt><trkpt lat="44.6844533" lon="10.4988983"><ele>104.0</ele><time>2026-04-19T08:18:16.988Z</time></trkpt><trkpt lat="44.6843217" lon="10.4987533"><ele>103.0</ele><time>2026-04-19T08:18:17.988Z</time></trkpt><trkpt lat="44.6842017" lon="10.4986317"><ele>102.0</ele><time>2026-04-19T08:18:18.988Z</time></trkpt><trkpt lat="44.6840733" lon="10.4985067"><ele>101.0</ele><time>2026-04-19T08:18:19.988Z</time></trkpt><trkpt lat="44.6839533" lon="10.4983867"><ele>101.0</ele><time>2026-04-19T08:18:20.988Z</time></trkpt><trkpt lat="44.6838417" lon="10.49827"><ele>101.0</ele><time>2026-04-19T08:18:21.988Z</time></trkpt><trkpt lat="44.6837283" lon="10.4981517"><ele>101.0</ele><time>2026-04-19T08:18:22.988Z</time></trkpt><trkpt lat="44.683615" lon="10.4980417"><ele>101.0</ele><time>2026-04-19T08:18:23.988Z</time></trkpt><trkpt lat="44.6835033" lon="10.4979283"><ele>101.75</ele><time>2026-04-19T08:18:24.988Z</time></trkpt><trkpt lat="44.6833933" lon="10.49781"><ele>102.5</ele><time>2026-04-19T08:18:25.988Z</time></trkpt><trkpt lat="44.683285" lon="10.4976983"><ele>103.25</ele><time>2026-04-19T08:18:26.988Z</time></trkpt><trkpt lat="44.6831683" lon="10.4975867"><ele>104.0</ele><time>2026-04-19T08:18:27.988Z</time></trkpt><trkpt lat="44.68305" lon="10.4974683"><ele>104.0</ele><time>2026-04-19T08:18:28.988Z</time></trkpt><trkpt lat="44.6829417" lon="10.4973583"><ele>104.0</ele><time>2026-04-19T08:18:29.988Z</time></trkpt><trkpt lat="44.6828483" lon="10.4972567"><ele>104.0</ele><time>2026-04-19T08:18:30.989Z</time></trkpt><trkpt lat="44.6827567" lon="10.4971633"><ele>104.0</ele><time>2026-04-19T08:18:31.988Z</time></trkpt><trkpt lat="44.6826783" lon="10.4970933"><ele>104.4</ele><time>2026-04-19T08:18:32.988Z</time></trkpt><trkpt lat="44.6826033" lon="10.49704"><ele>104.80000000000001</ele><time>2026-04-19T08:18:33.988Z</time></trkpt><trkpt lat="44.6825267" lon="10.4969917"><ele>105.19999999999999</ele><time>2026-04-19T08:18:34.988Z</time></trkpt><trkpt lat="44.6824467" lon="10.496915"><ele>105.6</ele><time>2026-04-19T08:18:35.988Z</time></trkpt><trkpt lat="44.6823617" lon="10.4968217"><ele>106.0</ele><time>2026-04-19T08:18:36.988Z</time></trkpt><trkpt lat="44.6822683" lon="10.4967133"><ele>106.0</ele><time>2026-04-19T08:18:37.988Z</time></trkpt><trkpt lat="44.6821717" lon="10.4965933"><ele>106.0</ele><time>2026-04-19T08:18:38.988Z</time></trkpt><trkpt lat="44.68207" lon="10.4964567"><ele>106.0</ele><time>2026-04-19T08:18:39.988Z</time></trkpt><trkpt lat="44.68197" lon="10.49632"><ele>106.0</ele><time>2026-04-19T08:18:40.988Z</time></trkpt><trkpt lat="44.6818683" lon="10.4961817"><ele>106.0</ele><time>2026-04-19T08:18:41.988Z</time></trkpt><trkpt lat="44.68176" lon="10.49603"><ele>106.0</ele><time>2026-04-19T08:18:42.988Z</time></trkpt><trkpt lat="44.6816583" lon="10.4958617"><ele>106.0</ele><time>2026-04-19T08:18:43.988Z</time></trkpt><trkpt lat="44.6815583" lon="10.495685"><ele>106.0</ele><time>2026-04-19T08:18:44.988Z</time></trkpt><trkpt lat="44.6814667" lon="10.4954817"><ele>106.0</ele><time>2026-04-19T08:18:45.988Z</time></trkpt><trkpt lat="44.6813783" lon="10.4952583"><ele>106.0</ele><time>2026-04-19T08:18:46.988Z</time></trkpt><trkpt lat="44.6813033" lon="10.4950233"><ele>106.0</ele><time>2026-04-19T08:18:47.988Z</time></trkpt><trkpt lat="44.6812367" lon="10.4947917"><ele>106.0</ele><time>2026-04-19T08:18:48.988Z</time></trkpt><trkpt lat="44.6811717" lon="10.49456"><ele>106.0</ele><time>2026-04-19T08:18:49.988Z</time></trkpt><trkpt lat="44.681105" lon="10.4943267"><ele>106.0</ele><time>2026-04-19T08:18:50.988Z</time></trkpt><trkpt lat="44.6810317" lon="10.4940717"><ele>106.0</ele><time>2026-04-19T08:18:51.988Z</time></trkpt><trkpt lat="44.68096" lon="10.4938233"><ele>106.0</ele><time>2026-04-19T08:18:52.988Z</time></trkpt><trkpt lat="44.6808967" lon="10.4935817"><ele>106.0</ele><time>2026-04-19T08:18:53.988Z</time></trkpt><trkpt lat="44.680845" lon="10.493355"><ele>106.0</ele><time>2026-04-19T08:18:54.988Z</time></trkpt><trkpt lat="44.680795" lon="10.4931367"><ele>106.0</ele><time>2026-04-19T08:18:55.988Z</time></trkpt><trkpt lat="44.680745" lon="10.4929133"><ele>106.33333333333334</ele><time>2026-04-19T08:18:56.988Z</time></trkpt><trkpt lat="44.68069" lon="10.4926883"><ele>106.66666666666666</ele><time>2026-04-19T08:18:57.988Z</time></trkpt><trkpt lat="44.6806317" lon="10.4924583"><ele>107.0</ele><time>2026-04-19T08:18:58.988Z</time></trkpt><trkpt lat="44.680575" lon="10.4922217"><ele>106.33333333333333</ele><time>2026-04-19T08:18:59.988Z</time></trkpt><trkpt lat="44.6805233" lon="10.491985"><ele>105.66666666666666</ele><time>2026-04-19T08:19:00.988Z</time></trkpt><trkpt lat="44.6804633" lon="10.491745"><ele>105.0</ele><time>2026-04-19T08:19:01.988Z</time></trkpt><trkpt lat="44.6803933" lon="10.4914933"><ele>105.0</ele><time>2026-04-19T08:19:02.988Z</time></trkpt><trkpt lat="44.680335" lon="10.4912367"><ele>105.0</ele><time>2026-04-19T08:19:03.988Z</time></trkpt><trkpt lat="44.6802667" lon="10.4909817"><ele>105.0</ele><time>2026-04-19T08:19:04.988Z</time></trkpt><trkpt lat="44.6802067" lon="10.4907233"><ele>104.66666666666666</ele><time>2026-04-19T08:19:05.988Z</time></trkpt><trkpt lat="44.6801433" lon="10.4904583"><ele>104.33333333333333</ele><time>2026-04-19T08:19:06.988Z</time></trkpt><trkpt lat="44.68008" lon="10.4901967"><ele>104.0</ele><time>2026-04-19T08:19:07.988Z</time></trkpt><trkpt lat="44.6800217" lon="10.4899383"><ele>104.66666666666666</ele><time>2026-04-19T08:19:08.988Z</time></trkpt><trkpt lat="44.6799683" lon="10.489685"><ele>105.33333333333334</ele><time>2026-04-19T08:19:09.988Z</time></trkpt><trkpt lat="44.6799083" lon="10.4894483"><ele>106.0</ele><time>2026-04-19T08:19:10.988Z</time></trkpt><trkpt lat="44.679855" lon="10.4892233"><ele>106.33333333333334</ele><time>2026-04-19T08:19:11.988Z</time></trkpt><trkpt lat="44.6797967" lon="10.4890133"><ele>106.66666666666666</ele><time>2026-04-19T08:19:12.988Z</time></trkpt><trkpt lat="44.6797417" lon="10.4887983"><ele>107.0</ele><time>2026-04-19T08:19:13.988Z</time></trkpt><trkpt lat="44.6796767" lon="10.4885917"><ele>107.0</ele><time>2026-04-19T08:19:14.988Z</time></trkpt><trkpt lat="44.6796083" lon="10.4883883"><ele>107.0</ele><time>2026-04-19T08:19:15.988Z</time></trkpt><trkpt lat="44.6795383" lon="10.48819"><ele>107.0</ele><time>2026-04-19T08:19:16.988Z</time></trkpt><trkpt lat="44.6794633" lon="10.4879817"><ele>107.33333333333333</ele><time>2026-04-19T08:19:17.988Z</time></trkpt><trkpt lat="44.6793767" lon="10.4877633"><ele>107.66666666666666</ele><time>2026-04-19T08:19:18.988Z</time></trkpt><trkpt lat="44.67928" lon="10.48754"><ele>108.0</ele><time>2026-04-19T08:19:19.988Z</time></trkpt><trkpt lat="44.67919" lon="10.4873283"><ele>108.0</ele><time>2026-04-19T08:19:20.988Z</time></trkpt><trkpt lat="44.6791033" lon="10.487135"><ele>108.0</ele><time>2026-04-19T08:19:21.988Z</time></trkpt><trkpt lat="44.6790233" lon="10.4869483"><ele>108.0</ele><time>2026-04-19T08:19:22.988Z</time></trkpt><trkpt lat="44.6789517" lon="10.4867783"><ele>108.75</ele><time>2026-04-19T08:19:23.988Z</time></trkpt><trkpt lat="44.678885" lon="10.486615"><ele>109.5</ele><time>2026-04-19T08:19:24.988Z</time></trkpt><trkpt lat="44.6788183" lon="10.486455"><ele>110.25</ele><time>2026-04-19T08:19:25.988Z</time></trkpt><trkpt lat="44.6787483" lon="10.4862967"><ele>111.0</ele><time>2026-04-19T08:19:26.988Z</time></trkpt><trkpt lat="44.6786767" lon="10.4861433"><ele>111.0</ele><time>2026-04-19T08:19:27.988Z</time></trkpt><trkpt lat="44.67861" lon="10.485995"><ele>111.0</ele><time>2026-04-19T08:19:28.988Z</time></trkpt><trkpt lat="44.678535" lon="10.4858467"><ele>111.0</ele><time>2026-04-19T08:19:29.988Z</time></trkpt><trkpt lat="44.6784417" lon="10.4856683"><ele>111.0</ele><time>2026-04-19T08:19:30.988Z</time></trkpt><trkpt lat="44.678345" lon="10.4854517"><ele>111.0</ele><time>2026-04-19T08:19:31.988Z</time></trkpt><trkpt lat="44.6782517" lon="10.4852283"><ele>111.0</ele><time>2026-04-19T08:19:32.988Z</time></trkpt><trkpt lat="44.678165" lon="10.4850167"><ele>111.0</ele><time>2026-04-19T08:19:33.988Z</time></trkpt><trkpt lat="44.6780867" lon="10.4848433"><ele>111.0</ele><time>2026-04-19T08:19:34.988Z</time></trkpt><trkpt lat="44.6780183" lon="10.4846933"><ele>111.0</ele><time>2026-04-19T08:19:35.988Z</time></trkpt><trkpt lat="44.6779567" lon="10.4845583"><ele>111.0</ele><time>2026-04-19T08:19:36.988Z</time></trkpt><trkpt lat="44.677895" lon="10.4844117"><ele>111.0</ele><time>2026-04-19T08:19:37.988Z</time></trkpt><trkpt lat="44.6778167" lon="10.4842483"><ele>110.66666666666666</ele><time>2026-04-19T08:19:38.988Z</time></trkpt><trkpt lat="44.6777317" lon="10.4840667"><ele>110.33333333333333</ele><time>2026-04-19T08:19:39.988Z</time></trkpt><trkpt lat="44.6776383" lon="10.4838733"><ele>110.0</ele><time>2026-04-19T08:19:40.988Z</time></trkpt><trkpt lat="44.677535" lon="10.4836917"><ele>110.0</ele><time>2026-04-19T08:19:41.988Z</time></trkpt><trkpt lat="44.6774117" lon="10.4835233"><ele>110.0</ele><time>2026-04-19T08:19:42.988Z</time></trkpt><trkpt lat="44.677265" lon="10.483375"><ele>110.0</ele><time>2026-04-19T08:19:43.988Z</time></trkpt><trkpt lat="44.677105" lon="10.4832333"><ele>110.0</ele><time>2026-04-19T08:19:44.988Z</time></trkpt><trkpt lat="44.6769433" lon="10.4830967"><ele>110.0</ele><time>2026-04-19T08:19:45.988Z</time></trkpt><trkpt lat="44.6767967" lon="10.4829683"><ele>110.0</ele><time>2026-04-19T08:19:46.988Z</time></trkpt><trkpt lat="44.6766583" lon="10.4828533"><ele>111.0</ele><time>2026-04-19T08:19:47.988Z</time></trkpt><trkpt lat="44.6765317" lon="10.4827367"><ele>112.0</ele><time>2026-04-19T08:19:48.988Z</time></trkpt><trkpt lat="44.6764033" lon="10.4826333"><ele>113.0</ele><time>2026-04-19T08:19:49.988Z</time></trkpt><trkpt lat="44.6762833" lon="10.4825233"><ele>114.0</ele><time>2026-04-19T08:19:50.988Z</time></trkpt><trkpt lat="44.6761667" lon="10.4824217"><ele>113.75</ele><time>2026-04-19T08:19:51.988Z</time></trkpt><trkpt lat="44.67605" lon="10.4823283"><ele>113.5</ele><time>2026-04-19T08:19:52.988Z</time></trkpt><trkpt lat="44.6759267" lon="10.482235"><ele>113.25</ele><time>2026-04-19T08:19:53.988Z</time></trkpt><trkpt lat="44.675805" lon="10.4821433"><ele>113.0</ele><time>2026-04-19T08:19:54.988Z</time></trkpt><trkpt lat="44.6756783" lon="10.48206"><ele>113.0</ele><time>2026-04-19T08:19:55.988Z</time></trkpt><trkpt lat="44.675555" lon="10.481945"><ele>113.0</ele><time>2026-04-19T08:19:56.988Z</time></trkpt><trkpt lat="44.6754367" lon="10.481825"><ele>113.0</ele><time>2026-04-19T08:19:57.988Z</time></trkpt><trkpt lat="44.6753083" lon="10.481715"><ele>113.0</ele><time>2026-04-19T08:19:58.988Z</time></trkpt><trkpt lat="44.6751733" lon="10.4816083"><ele>113.33333333333333</ele><time>2026-04-19T08:19:59.989Z</time></trkpt><trkpt lat="44.6750433" lon="10.481485"><ele>113.66666666666666</ele><time>2026-04-19T08:20:00.988Z</time></trkpt><trkpt lat="44.6749167" lon="10.481365"><ele>114.0</ele><time>2026-04-19T08:20:01.988Z</time></trkpt><trkpt lat="44.6747833" lon="10.4812633"><ele>114.0</ele><time>2026-04-19T08:20:02.988Z</time></trkpt><trkpt lat="44.6746633" lon="10.4811683"><ele>114.0</ele><time>2026-04-19T08:20:03.988Z</time></trkpt><trkpt lat="44.6745417" lon="10.4810733"><ele>114.0</ele><time>2026-04-19T08:20:04.988Z</time></trkpt><trkpt lat="44.674435" lon="10.4809817"><ele>114.0</ele><time>2026-04-19T08:20:05.988Z</time></trkpt><trkpt lat="44.6743367" lon="10.4809017"><ele>114.2</ele><time>2026-04-19T08:20:06.988Z</time></trkpt><trkpt lat="44.6742467" lon="10.4808367"><ele>114.4</ele><time>2026-04-19T08:20:07.988Z</time></trkpt><trkpt lat="44.674155" lon="10.4807833"><ele>114.6</ele><time>2026-04-19T08:20:08.988Z</time></trkpt><trkpt lat="44.674055" lon="10.4807783"><ele>114.8</ele><time>2026-04-19T08:20:09.988Z</time></trkpt><trkpt lat="44.6739633" lon="10.4808217"><ele>115.0</ele><time>2026-04-19T08:20:10.988Z</time></trkpt><trkpt lat="44.6738783" lon="10.48093"><ele>115.0</ele><time>2026-04-19T08:20:11.988Z</time></trkpt><trkpt lat="44.6737917" lon="10.4810683"><ele>115.0</ele><time>2026-04-19T08:20:12.988Z</time></trkpt><trkpt lat="44.6737133" lon="10.4812317"><ele>115.0</ele><time>2026-04-19T08:20:13.988Z</time></trkpt><trkpt lat="44.6736367" lon="10.48138"><ele>115.0</ele><time>2026-04-19T08:20:14.988Z</time></trkpt><trkpt lat="44.6735683" lon="10.4815233"><ele>114.75</ele><time>2026-04-19T08:20:15.988Z</time></trkpt><trkpt lat="44.6735017" lon="10.4816617"><ele>114.5</ele><time>2026-04-19T08:20:16.988Z</time></trkpt><trkpt lat="44.6734333" lon="10.4818017"><ele>114.25</ele><time>2026-04-19T08:20:17.988Z</time></trkpt><trkpt lat="44.673365" lon="10.4819483"><ele>114.0</ele><time>2026-04-19T08:20:18.988Z</time></trkpt><trkpt lat="44.6732967" lon="10.482075"><ele>114.0</ele><time>2026-04-19T08:20:19.988Z</time></trkpt><trkpt lat="44.67323" lon="10.4821867"><ele>114.0</ele><time>2026-04-19T08:20:20.988Z</time></trkpt><trkpt lat="44.6731683" lon="10.4823033"><ele>114.0</ele><time>2026-04-19T08:20:21.988Z</time></trkpt><trkpt lat="44.67311" lon="10.4824183"><ele>114.0</ele><time>2026-04-19T08:20:22.988Z</time></trkpt><trkpt lat="44.6730467" lon="10.4825333"><ele>114.0</ele><time>2026-04-19T08:20:23.989Z</time></trkpt><trkpt lat="44.672995" lon="10.48266"><ele>114.0</ele><time>2026-04-19T08:20:24.988Z</time></trkpt><trkpt lat="44.6729417" lon="10.482765"><ele>114.0</ele><time>2026-04-19T08:20:25.988Z</time></trkpt><trkpt lat="44.6728917" lon="10.4828517"><ele>114.0</ele><time>2026-04-19T08:20:26.988Z</time></trkpt><trkpt lat="44.6728317" lon="10.4829183"><ele>114.0</ele><time>2026-04-19T08:20:27.988Z</time></trkpt><trkpt lat="44.6727467" lon="10.4829333"><ele>114.0</ele><time>2026-04-19T08:20:28.988Z</time></trkpt><trkpt lat="44.6726567" lon="10.482905"><ele>114.0</ele><time>2026-04-19T08:20:29.988Z</time></trkpt><trkpt lat="44.6725733" lon="10.48284"><ele>115.0</ele><time>2026-04-19T08:20:30.988Z</time></trkpt><trkpt lat="44.6724867" lon="10.4827617"><ele>116.0</ele><time>2026-04-19T08:20:31.988Z</time></trkpt><trkpt lat="44.6723917" lon="10.48268"><ele>117.0</ele><time>2026-04-19T08:20:32.988Z</time></trkpt><trkpt lat="44.6722783" lon="10.482585"><ele>118.0</ele><time>2026-04-19T08:20:33.988Z</time></trkpt><trkpt lat="44.6721433" lon="10.4824833"><ele>118.0</ele><time>2026-04-19T08:20:34.988Z</time></trkpt><trkpt lat="44.671995" lon="10.4823533"><ele>118.0</ele><time>2026-04-19T08:20:35.988Z</time></trkpt><trkpt lat="44.671835" lon="10.482205"><ele>118.0</ele><time>2026-04-19T08:20:36.988Z</time></trkpt><trkpt lat="44.6716817" lon="10.4820533"><ele>118.0</ele><time>2026-04-19T08:20:37.988Z</time></trkpt><trkpt lat="44.67153" lon="10.481915"><ele>118.0</ele><time>2026-04-19T08:20:38.988Z</time></trkpt><trkpt lat="44.67138" lon="10.4817733"><ele>118.0</ele><time>2026-04-19T08:20:39.988Z</time></trkpt><trkpt lat="44.6712333" lon="10.4816317"><ele>118.0</ele><time>2026-04-19T08:20:40.988Z</time></trkpt><trkpt lat="44.671105" lon="10.481505"><ele>118.0</ele><time>2026-04-19T08:20:41.988Z</time></trkpt><trkpt lat="44.6709867" lon="10.4813733"><ele>118.0</ele><time>2026-04-19T08:20:42.988Z</time></trkpt><trkpt lat="44.6708667" lon="10.4812567"><ele>117.75</ele><time>2026-04-19T08:20:43.988Z</time></trkpt><trkpt lat="44.6707533" lon="10.4811533"><ele>117.5</ele><time>2026-04-19T08:20:44.988Z</time></trkpt><trkpt lat="44.670645" lon="10.48106"><ele>117.25</ele><time>2026-04-19T08:20:45.988Z</time></trkpt><trkpt lat="44.6705383" lon="10.4809783"><ele>117.0</ele><time>2026-04-19T08:20:46.988Z</time></trkpt><trkpt lat="44.67044" lon="10.48087"><ele>117.0</ele><time>2026-04-19T08:20:47.988Z</time></trkpt><trkpt lat="44.6703283" lon="10.4807833"><ele>117.0</ele><time>2026-04-19T08:20:48.988Z</time></trkpt><trkpt lat="44.6702083" lon="10.4807017"><ele>117.0</ele><time>2026-04-19T08:20:49.988Z</time></trkpt><trkpt lat="44.6700933" lon="10.48062"><ele>117.0</ele><time>2026-04-19T08:20:50.988Z</time></trkpt><trkpt lat="44.6699917" lon="10.4805017"><ele>117.5</ele><time>2026-04-19T08:20:51.988Z</time></trkpt><trkpt lat="44.669875" lon="10.4804017"><ele>118.0</ele><time>2026-04-19T08:20:52.988Z</time></trkpt><trkpt lat="44.66977" lon="10.480285"><ele>118.5</ele><time>2026-04-19T08:20:53.988Z</time></trkpt><trkpt lat="44.669665" lon="10.4801633"><ele>119.0</ele><time>2026-04-19T08:20:54.988Z</time></trkpt><trkpt lat="44.6695583" lon="10.4800467"><ele>119.33333333333333</ele><time>2026-04-19T08:20:55.988Z</time></trkpt><trkpt lat="44.6694333" lon="10.4799267"><ele>119.66666666666666</ele><time>2026-04-19T08:20:56.988Z</time></trkpt><trkpt lat="44.6693" lon="10.4797933"><ele>120.0</ele><time>2026-04-19T08:20:57.988Z</time></trkpt><trkpt lat="44.6691817" lon="10.4796483"><ele>120.66666666666666</ele><time>2026-04-19T08:20:58.988Z</time></trkpt><trkpt lat="44.6690683" lon="10.4795"><ele>121.33333333333333</ele><time>2026-04-19T08:20:59.988Z</time></trkpt><trkpt lat="44.668965" lon="10.4793483"><ele>122.0</ele><time>2026-04-19T08:21:00.988Z</time></trkpt><trkpt lat="44.6688517" lon="10.4792133"><ele>122.0</ele><time>2026-04-19T08:21:01.988Z</time></trkpt><trkpt lat="44.66875" lon="10.4790767"><ele>122.0</ele><time>2026-04-19T08:21:02.988Z</time></trkpt><trkpt lat="44.6686483" lon="10.478935"><ele>122.0</ele><time>2026-04-19T08:21:03.988Z</time></trkpt><trkpt lat="44.66853" lon="10.4787933"><ele>122.0</ele><time>2026-04-19T08:21:04.989Z</time></trkpt><trkpt lat="44.668405" lon="10.4786467"><ele>122.0</ele><time>2026-04-19T08:21:05.988Z</time></trkpt><trkpt lat="44.6682783" lon="10.478505"><ele>122.0</ele><time>2026-04-19T08:21:06.988Z</time></trkpt><trkpt lat="44.66815" lon="10.47836"><ele>122.0</ele><time>2026-04-19T08:21:07.988Z</time></trkpt><trkpt lat="44.6680267" lon="10.47824"><ele>122.0</ele><time>2026-04-19T08:21:08.989Z</time></trkpt><trkpt lat="44.66791" lon="10.4781217"><ele>122.0</ele><time>2026-04-19T08:21:09.988Z</time></trkpt><trkpt lat="44.6677983" lon="10.4779967"><ele>122.0</ele><time>2026-04-19T08:21:10.988Z</time></trkpt><trkpt lat="44.6677033" lon="10.4778633"><ele>122.0</ele><time>2026-04-19T08:21:11.988Z</time></trkpt><trkpt lat="44.6676033" lon="10.4777383"><ele>122.0</ele><time>2026-04-19T08:21:12.988Z</time></trkpt><trkpt lat="44.6675033" lon="10.47763"><ele>122.0</ele><time>2026-04-19T08:21:13.988Z</time></trkpt><trkpt lat="44.6674067" lon="10.4775133"><ele>122.0</ele><time>2026-04-19T08:21:14.988Z</time></trkpt><trkpt lat="44.6673167" lon="10.4774067"><ele>122.0</ele><time>2026-04-19T08:21:15.988Z</time></trkpt><trkpt lat="44.6672383" lon="10.477305"><ele>121.99999999999999</ele><time>2026-04-19T08:21:16.988Z</time></trkpt><trkpt lat="44.66717" lon="10.47722"><ele>122.0</ele><time>2026-04-19T08:21:17.988Z</time></trkpt><trkpt lat="44.6671133" lon="10.47713"><ele>122.0</ele><time>2026-04-19T08:21:18.988Z</time></trkpt><trkpt lat="44.6670567" lon="10.4770683"><ele>122.0</ele><time>2026-04-19T08:21:19.989Z</time></trkpt><trkpt lat="44.667005" lon="10.4770083"><ele>121.99999999999999</ele><time>2026-04-19T08:21:20.988Z</time></trkpt><trkpt lat="44.6669117" lon="10.4768933"><ele>122.0</ele><time>2026-04-19T08:21:22.988Z</time></trkpt><trkpt lat="44.6668117" lon="10.4769033"><ele>122.19999999999999</ele><time>2026-04-19T08:21:24.988Z</time></trkpt><trkpt lat="44.6667667" lon="10.4769733"><ele>122.39999999999999</ele><time>2026-04-19T08:21:25.988Z</time></trkpt><trkpt lat="44.6667367" lon="10.47709"><ele>122.60000000000001</ele><time>2026-04-19T08:21:26.988Z</time></trkpt><trkpt lat="44.666685" lon="10.4772567"><ele>122.80000000000001</ele><time>2026-04-19T08:21:27.988Z</time></trkpt><trkpt lat="44.6666267" lon="10.4774583"><ele>123.0</ele><time>2026-04-19T08:21:28.988Z</time></trkpt><trkpt lat="44.66656" lon="10.4776817"><ele>123.0</ele><time>2026-04-19T08:21:29.989Z</time></trkpt><trkpt lat="44.6664867" lon="10.4779283"><ele>123.0</ele><time>2026-04-19T08:21:30.988Z</time></trkpt><trkpt lat="44.666415" lon="10.4781783"><ele>123.0</ele><time>2026-04-19T08:21:31.988Z</time></trkpt><trkpt lat="44.6663383" lon="10.4784117"><ele>123.0</ele><time>2026-04-19T08:21:32.988Z</time></trkpt><trkpt lat="44.6662717" lon="10.478625"><ele>123.0</ele><time>2026-04-19T08:21:33.988Z</time></trkpt><trkpt lat="44.666205" lon="10.4788167"><ele>123.0</ele><time>2026-04-19T08:21:34.988Z</time></trkpt><trkpt lat="44.6661267" lon="10.479"><ele>122.25</ele><time>2026-04-19T08:21:35.988Z</time></trkpt><trkpt lat="44.6660417" lon="10.4791633"><ele>121.5</ele><time>2026-04-19T08:21:36.988Z</time></trkpt><trkpt lat="44.6659383" lon="10.479295"><ele>120.75</ele><time>2026-04-19T08:21:37.988Z</time></trkpt><trkpt lat="44.6658533" lon="10.479395"><ele>120.0</ele><time>2026-04-19T08:21:38.988Z</time></trkpt><trkpt lat="44.6657567" lon="10.479465"><ele>120.0</ele><time>2026-04-19T08:21:39.988Z</time></trkpt><trkpt lat="44.665645" lon="10.4795067"><ele>120.0</ele><time>2026-04-19T08:21:40.988Z</time></trkpt><trkpt lat="44.66553" lon="10.4795683"><ele>120.0</ele><time>2026-04-19T08:21:41.988Z</time></trkpt><trkpt lat="44.6654083" lon="10.47966"><ele>120.0</ele><time>2026-04-19T08:21:42.988Z</time></trkpt><trkpt lat="44.6652667" lon="10.4797233"><ele>120.75</ele><time>2026-04-19T08:21:43.988Z</time></trkpt><trkpt lat="44.6651117" lon="10.4797517"><ele>121.5</ele><time>2026-04-19T08:21:44.988Z</time></trkpt><trkpt lat="44.6649633" lon="10.4797383"><ele>122.25</ele><time>2026-04-19T08:21:45.988Z</time></trkpt><trkpt lat="44.6648533" lon="10.4797017"><ele>123.0</ele><time>2026-04-19T08:21:46.988Z</time></trkpt><trkpt lat="44.6647683" lon="10.47967"><ele>123.0</ele><time>2026-04-19T08:21:47.988Z</time></trkpt><trkpt lat="44.6646967" lon="10.47964"><ele>123.0</ele><time>2026-04-19T08:21:48.988Z</time></trkpt><trkpt lat="44.6646283" lon="10.479605"><ele>123.0</ele><time>2026-04-19T08:21:49.988Z</time></trkpt><trkpt lat="44.664555" lon="10.4795583"><ele>123.0</ele><time>2026-04-19T08:21:50.988Z</time></trkpt><trkpt lat="44.6644733" lon="10.4794833"><ele>123.0</ele><time>2026-04-19T08:21:51.988Z</time></trkpt><trkpt lat="44.6643733" lon="10.4793833"><ele>123.0</ele><time>2026-04-19T08:21:52.988Z</time></trkpt><trkpt lat="44.6642533" lon="10.4792683"><ele>123.0</ele><time>2026-04-19T08:21:53.988Z</time></trkpt><trkpt lat="44.664105" lon="10.4791733"><ele>123.0</ele><time>2026-04-19T08:21:54.988Z</time></trkpt><trkpt lat="44.663945" lon="10.479105"><ele>123.0</ele><time>2026-04-19T08:21:55.988Z</time></trkpt><trkpt lat="44.663785" lon="10.4790117"><ele>123.0</ele><time>2026-04-19T08:21:56.988Z</time></trkpt><trkpt lat="44.663615" lon="10.4789283"><ele>123.0</ele><time>2026-04-19T08:21:57.988Z</time></trkpt><trkpt lat="44.6634483" lon="10.4788433"><ele>123.0</ele><time>2026-04-19T08:21:58.988Z</time></trkpt><trkpt lat="44.6632867" lon="10.4787567"><ele>123.33333333333334</ele><time>2026-04-19T08:21:59.988Z</time></trkpt><trkpt lat="44.6631333" lon="10.47868"><ele>123.66666666666667</ele><time>2026-04-19T08:22:00.988Z</time></trkpt><trkpt lat="44.66298" lon="10.4786033"><ele>124.0</ele><time>2026-04-19T08:22:01.988Z</time></trkpt><trkpt lat="44.6628217" lon="10.4785217"><ele>124.25</ele><time>2026-04-19T08:22:02.989Z</time></trkpt><trkpt lat="44.6626717" lon="10.4784567"><ele>124.5</ele><time>2026-04-19T08:22:03.988Z</time></trkpt><trkpt lat="44.6625367" lon="10.4783967"><ele>124.75</ele><time>2026-04-19T08:22:04.988Z</time></trkpt><trkpt lat="44.6624133" lon="10.47833"><ele>125.0</ele><time>2026-04-19T08:22:05.989Z</time></trkpt><trkpt lat="44.6623017" lon="10.478265"><ele>125.0</ele><time>2026-04-19T08:22:06.988Z</time></trkpt><trkpt lat="44.662185" lon="10.4782067"><ele>125.0</ele><time>2026-04-19T08:22:07.988Z</time></trkpt><trkpt lat="44.6620617" lon="10.4781483"><ele>125.0</ele><time>2026-04-19T08:22:08.988Z</time></trkpt><trkpt lat="44.661935" lon="10.4780917"><ele>125.0</ele><time>2026-04-19T08:22:09.988Z</time></trkpt><trkpt lat="44.661785" lon="10.4780283"><ele>124.66666666666666</ele><time>2026-04-19T08:22:10.988Z</time></trkpt><trkpt lat="44.661625" lon="10.4779617"><ele>124.33333333333334</ele><time>2026-04-19T08:22:11.988Z</time></trkpt><trkpt lat="44.66145" lon="10.477885"><ele>124.0</ele><time>2026-04-19T08:22:12.988Z</time></trkpt><trkpt lat="44.6612767" lon="10.4778017"><ele>124.66666666666667</ele><time>2026-04-19T08:22:13.988Z</time></trkpt><trkpt lat="44.661105" lon="10.4777083"><ele>125.33333333333334</ele><time>2026-04-19T08:22:14.988Z</time></trkpt><trkpt lat="44.6609517" lon="10.47762"><ele>126.0</ele><time>2026-04-19T08:22:15.988Z</time></trkpt><trkpt lat="44.6608017" lon="10.4775417"><ele>126.0</ele><time>2026-04-19T08:22:16.988Z</time></trkpt><trkpt lat="44.6606583" lon="10.4774617"><ele>126.0</ele><time>2026-04-19T08:22:17.988Z</time></trkpt><trkpt lat="44.660535" lon="10.4773767"><ele>126.0</ele><time>2026-04-19T08:22:18.988Z</time></trkpt><trkpt lat="44.6604117" lon="10.4773017"><ele>126.0</ele><time>2026-04-19T08:22:19.988Z</time></trkpt><trkpt lat="44.6602983" lon="10.47723"><ele>126.5</ele><time>2026-04-19T08:22:20.988Z</time></trkpt><trkpt lat="44.6601983" lon="10.47715"><ele>127.0</ele><time>2026-04-19T08:22:21.988Z</time></trkpt><trkpt lat="44.6600917" lon="10.47706"><ele>127.5</ele><time>2026-04-19T08:22:22.988Z</time></trkpt><trkpt lat="44.659995" lon="10.4769817"><ele>128.0</ele><time>2026-04-19T08:22:23.988Z</time></trkpt><trkpt lat="44.659885" lon="10.47692"><ele>128.33333333333331</ele><time>2026-04-19T08:22:24.988Z</time></trkpt><trkpt lat="44.6597583" lon="10.4768533"><ele>128.66666666666666</ele><time>2026-04-19T08:22:25.988Z</time></trkpt><trkpt lat="44.6596033" lon="10.47676"><ele>129.0</ele><time>2026-04-19T08:22:26.988Z</time></trkpt><trkpt lat="44.6594433" lon="10.4766567"><ele>129.0</ele><time>2026-04-19T08:22:27.988Z</time></trkpt><trkpt lat="44.6592717" lon="10.4765383"><ele>129.0</ele><time>2026-04-19T08:22:28.988Z</time></trkpt><trkpt lat="44.6591033" lon="10.476415"><ele>129.0</ele><time>2026-04-19T08:22:29.988Z</time></trkpt><trkpt lat="44.6589267" lon="10.4762917"><ele>129.66666666666666</ele><time>2026-04-19T08:22:30.988Z</time></trkpt><trkpt lat="44.6587533" lon="10.4761717"><ele>130.33333333333331</ele><time>2026-04-19T08:22:31.988Z</time></trkpt><trkpt lat="44.658595" lon="10.4760617"><ele>131.0</ele><time>2026-04-19T08:22:32.988Z</time></trkpt><trkpt lat="44.6584417" lon="10.4759617"><ele>131.0</ele><time>2026-04-19T08:22:33.988Z</time></trkpt><trkpt lat="44.6583017" lon="10.475865"><ele>131.0</ele><time>2026-04-19T08:22:34.988Z</time></trkpt><trkpt lat="44.6581683" lon="10.47578"><ele>131.0</ele><time>2026-04-19T08:22:35.988Z</time></trkpt><trkpt lat="44.6580433" lon="10.475715"><ele>131.0</ele><time>2026-04-19T08:22:36.989Z</time></trkpt><trkpt lat="44.6579283" lon="10.4756683"><ele>131.0</ele><time>2026-04-19T08:22:37.988Z</time></trkpt><trkpt lat="44.6578233" lon="10.4756183"><ele>131.0</ele><time>2026-04-19T08:22:38.988Z</time></trkpt><trkpt lat="44.6577383" lon="10.4755783"><ele>131.0</ele><time>2026-04-19T08:22:39.988Z</time></trkpt><trkpt lat="44.6576633" lon="10.4755267"><ele>131.0</ele><time>2026-04-19T08:22:40.988Z</time></trkpt><trkpt lat="44.6575833" lon="10.4754567"><ele>131.0</ele><time>2026-04-19T08:22:41.988Z</time></trkpt><trkpt lat="44.65749" lon="10.4753933"><ele>130.0</ele><time>2026-04-19T08:22:42.988Z</time></trkpt><trkpt lat="44.65738" lon="10.4753667"><ele>129.0</ele><time>2026-04-19T08:22:43.988Z</time></trkpt><trkpt lat="44.6572517" lon="10.4753767"><ele>128.0</ele><time>2026-04-19T08:22:44.988Z</time></trkpt><trkpt lat="44.6571017" lon="10.4753767"><ele>127.0</ele><time>2026-04-19T08:22:45.988Z</time></trkpt><trkpt lat="44.6569267" lon="10.4753483"><ele>126.66666666666667</ele><time>2026-04-19T08:22:46.988Z</time></trkpt><trkpt lat="44.65675" lon="10.475295"><ele>126.33333333333334</ele><time>2026-04-19T08:22:47.988Z</time></trkpt><trkpt lat="44.6565867" lon="10.4752317"><ele>126.0</ele><time>2026-04-19T08:22:48.988Z</time></trkpt><trkpt lat="44.656425" lon="10.475175"><ele>126.0</ele><time>2026-04-19T08:22:49.988Z</time></trkpt><trkpt lat="44.6562567" lon="10.4751183"><ele>126.0</ele><time>2026-04-19T08:22:50.988Z</time></trkpt><trkpt lat="44.6560817" lon="10.4750633"><ele>126.0</ele><time>2026-04-19T08:22:51.988Z</time></trkpt><trkpt lat="44.6559083" lon="10.4750067"><ele>126.0</ele><time>2026-04-19T08:22:52.988Z</time></trkpt><trkpt lat="44.6557067" lon="10.4749417"><ele>126.0</ele><time>2026-04-19T08:22:53.988Z</time></trkpt><trkpt lat="44.6555017" lon="10.4748833"><ele>126.0</ele><time>2026-04-19T08:22:54.988Z</time></trkpt><trkpt lat="44.65531" lon="10.4748217"><ele>126.33333333333334</ele><time>2026-04-19T08:22:55.988Z</time></trkpt><trkpt lat="44.655135" lon="10.4747617"><ele>126.66666666666667</ele><time>2026-04-19T08:22:56.988Z</time></trkpt><trkpt lat="44.654955" lon="10.474705"><ele>127.0</ele><time>2026-04-19T08:22:57.988Z</time></trkpt><trkpt lat="44.6547617" lon="10.4746417"><ele>127.66666666666667</ele><time>2026-04-19T08:22:58.988Z</time></trkpt><trkpt lat="44.6545717" lon="10.47456"><ele>128.33333333333334</ele><time>2026-04-19T08:22:59.988Z</time></trkpt><trkpt lat="44.6543933" lon="10.4744833"><ele>129.0</ele><time>2026-04-19T08:23:00.988Z</time></trkpt><trkpt lat="44.6542233" lon="10.4744117"><ele>129.0</ele><time>2026-04-19T08:23:01.988Z</time></trkpt><trkpt lat="44.6540633" lon="10.4743467"><ele>129.0</ele><time>2026-04-19T08:23:02.988Z</time></trkpt><trkpt lat="44.6539017" lon="10.474285"><ele>129.0</ele><time>2026-04-19T08:23:03.988Z</time></trkpt><trkpt lat="44.6537517" lon="10.4742233"><ele>129.75</ele><time>2026-04-19T08:23:04.988Z</time></trkpt><trkpt lat="44.6536167" lon="10.4741717"><ele>130.5</ele><time>2026-04-19T08:23:05.988Z</time></trkpt><trkpt lat="44.65349" lon="10.4741167"><ele>131.25</ele><time>2026-04-19T08:23:06.988Z</time></trkpt><trkpt lat="44.6533683" lon="10.47407"><ele>132.0</ele><time>2026-04-19T08:23:07.988Z</time></trkpt><trkpt lat="44.65325" lon="10.4740117"><ele>132.0</ele><time>2026-04-19T08:23:08.988Z</time></trkpt><trkpt lat="44.6531433" lon="10.4739483"><ele>132.0</ele><time>2026-04-19T08:23:09.988Z</time></trkpt><trkpt lat="44.6530467" lon="10.4738917"><ele>132.0</ele><time>2026-04-19T08:23:10.988Z</time></trkpt><trkpt lat="44.6529667" lon="10.4738583"><ele>132.0</ele><time>2026-04-19T08:23:11.988Z</time></trkpt><trkpt lat="44.6529" lon="10.4738133"><ele>132.0</ele><time>2026-04-19T08:23:12.988Z</time></trkpt><trkpt lat="44.6528" lon="10.4737283"><ele>132.2</ele><time>2026-04-19T08:23:14.988Z</time></trkpt><trkpt lat="44.652725" lon="10.4735967"><ele>132.39999999999998</ele><time>2026-04-19T08:23:16.988Z</time></trkpt><trkpt lat="44.65267" lon="10.473525"><ele>132.60000000000002</ele><time>2026-04-19T08:23:17.988Z</time></trkpt><trkpt lat="44.6525933" lon="10.4734783"><ele>132.8</ele><time>2026-04-19T08:23:18.988Z</time></trkpt><trkpt lat="44.6524983" lon="10.4734683"><ele>133.0</ele><time>2026-04-19T08:23:19.988Z</time></trkpt><trkpt lat="44.6523767" lon="10.473475"><ele>133.0</ele><time>2026-04-19T08:23:20.988Z</time></trkpt><trkpt lat="44.652235" lon="10.47347"><ele>133.0</ele><time>2026-04-19T08:23:21.988Z</time></trkpt><trkpt lat="44.6520617" lon="10.4734433"><ele>133.0</ele><time>2026-04-19T08:23:22.988Z</time></trkpt><trkpt lat="44.6518683" lon="10.4734133"><ele>133.33333333333334</ele><time>2026-04-19T08:23:23.988Z</time></trkpt><trkpt lat="44.651655" lon="10.473385"><ele>133.66666666666666</ele><time>2026-04-19T08:23:24.988Z</time></trkpt><trkpt lat="44.6514333" lon="10.4733583"><ele>134.0</ele><time>2026-04-19T08:23:25.988Z</time></trkpt><trkpt lat="44.6512167" lon="10.4733233"><ele>134.33333333333331</ele><time>2026-04-19T08:23:26.988Z</time></trkpt><trkpt lat="44.6510217" lon="10.4732967"><ele>134.66666666666666</ele><time>2026-04-19T08:23:27.989Z</time></trkpt><trkpt lat="44.6508317" lon="10.4732667"><ele>135.0</ele><time>2026-04-19T08:23:28.988Z</time></trkpt><trkpt lat="44.6506567" lon="10.4732483"><ele>135.0</ele><time>2026-04-19T08:23:29.988Z</time></trkpt><trkpt lat="44.6505" lon="10.4732167"><ele>135.0</ele><time>2026-04-19T08:23:30.988Z</time></trkpt><trkpt lat="44.6503383" lon="10.473185"><ele>135.0</ele><time>2026-04-19T08:23:31.988Z</time></trkpt><trkpt lat="44.6501733" lon="10.4731667"><ele>135.33333333333334</ele><time>2026-04-19T08:23:32.988Z</time></trkpt><trkpt lat="44.6499883" lon="10.4731433"><ele>135.66666666666669</ele><time>2026-04-19T08:23:33.988Z</time></trkpt><trkpt lat="44.6498033" lon="10.4731333"><ele>136.0</ele><time>2026-04-19T08:23:34.988Z</time></trkpt><trkpt lat="44.6496267" lon="10.4731183"><ele>136.0</ele><time>2026-04-19T08:23:35.988Z</time></trkpt><trkpt lat="44.649465" lon="10.4731033"><ele>136.0</ele><time>2026-04-19T08:23:36.988Z</time></trkpt><trkpt lat="44.6493167" lon="10.4730883"><ele>136.0</ele><time>2026-04-19T08:23:37.988Z</time></trkpt><trkpt lat="44.6491833" lon="10.4730783"><ele>136.0</ele><time>2026-04-19T08:23:38.988Z</time></trkpt><trkpt lat="44.649055" lon="10.47307"><ele>136.0</ele><time>2026-04-19T08:23:39.988Z</time></trkpt><trkpt lat="44.6489183" lon="10.4730617"><ele>136.0</ele><time>2026-04-19T08:23:40.988Z</time></trkpt><trkpt lat="44.6487783" lon="10.4730517"><ele>136.0</ele><time>2026-04-19T08:23:41.988Z</time></trkpt><trkpt lat="44.6486283" lon="10.47304"><ele>136.0</ele><time>2026-04-19T08:23:42.988Z</time></trkpt><trkpt lat="44.64847" lon="10.4730233"><ele>136.5</ele><time>2026-04-19T08:23:43.988Z</time></trkpt><trkpt lat="44.6483267" lon="10.473005"><ele>137.0</ele><time>2026-04-19T08:23:44.988Z</time></trkpt><trkpt lat="44.6481867" lon="10.472995"><ele>137.5</ele><time>2026-04-19T08:23:45.988Z</time></trkpt><trkpt lat="44.64806" lon="10.4729817"><ele>138.0</ele><time>2026-04-19T08:23:46.988Z</time></trkpt><trkpt lat="44.6479383" lon="10.4729633"><ele>138.0</ele><time>2026-04-19T08:23:47.988Z</time></trkpt><trkpt lat="44.64782" lon="10.4729533"><ele>138.0</ele><time>2026-04-19T08:23:48.988Z</time></trkpt><trkpt lat="44.6476983" lon="10.4729383"><ele>138.0</ele><time>2026-04-19T08:23:49.988Z</time></trkpt><trkpt lat="44.6475567" lon="10.4729333"><ele>138.0</ele><time>2026-04-19T08:23:50.988Z</time></trkpt><trkpt lat="44.6474" lon="10.47293"><ele>138.33333333333334</ele><time>2026-04-19T08:23:51.988Z</time></trkpt><trkpt lat="44.6472217" lon="10.4729317"><ele>138.66666666666669</ele><time>2026-04-19T08:23:52.988Z</time></trkpt><trkpt lat="44.6470233" lon="10.47291"><ele>139.0</ele><time>2026-04-19T08:23:53.988Z</time></trkpt><trkpt lat="44.6468117" lon="10.4728933"><ele>139.5</ele><time>2026-04-19T08:23:54.988Z</time></trkpt><trkpt lat="44.6465767" lon="10.4728717"><ele>140.0</ele><time>2026-04-19T08:23:55.988Z</time></trkpt><trkpt lat="44.646335" lon="10.47285"><ele>141.5</ele><time>2026-04-19T08:23:56.988Z</time></trkpt><trkpt lat="44.6461017" lon="10.4728317"><ele>143.0</ele><time>2026-04-19T08:23:57.988Z</time></trkpt><trkpt lat="44.6458783" lon="10.47281"><ele>143.0</ele><time>2026-04-19T08:23:58.988Z</time></trkpt><trkpt lat="44.6456617" lon="10.4727767"><ele>143.0</ele><time>2026-04-19T08:23:59.988Z</time></trkpt><trkpt lat="44.645455" lon="10.47274"><ele>143.0</ele><time>2026-04-19T08:24:00.988Z</time></trkpt><trkpt lat="44.645255" lon="10.4727167"><ele>144.0</ele><time>2026-04-19T08:24:01.988Z</time></trkpt><trkpt lat="44.6450667" lon="10.4727017"><ele>145.0</ele><time>2026-04-19T08:24:02.988Z</time></trkpt><trkpt lat="44.64488" lon="10.4726883"><ele>146.0</ele><time>2026-04-19T08:24:03.988Z</time></trkpt><trkpt lat="44.6446983" lon="10.4726717"><ele>146.0</ele><time>2026-04-19T08:24:04.988Z</time></trkpt><trkpt lat="44.644495" lon="10.4726633"><ele>146.0</ele><time>2026-04-19T08:24:05.988Z</time></trkpt><trkpt lat="44.6442817" lon="10.4726583"><ele>146.0</ele><time>2026-04-19T08:24:06.988Z</time></trkpt><trkpt lat="44.644055" lon="10.472635"><ele>146.33333333333331</ele><time>2026-04-19T08:24:07.988Z</time></trkpt><trkpt lat="44.643835" lon="10.472615"><ele>146.66666666666666</ele><time>2026-04-19T08:24:08.988Z</time></trkpt><trkpt lat="44.6436267" lon="10.4725917"><ele>147.0</ele><time>2026-04-19T08:24:09.988Z</time></trkpt><trkpt lat="44.6434383" lon="10.4725867"><ele>146.0</ele><time>2026-04-19T08:24:10.988Z</time></trkpt><trkpt lat="44.6432617" lon="10.4725867"><ele>145.0</ele><time>2026-04-19T08:24:11.988Z</time></trkpt><trkpt lat="44.64308" lon="10.472595"><ele>144.0</ele><time>2026-04-19T08:24:12.988Z</time></trkpt><trkpt lat="44.6428933" lon="10.4726133"><ele>144.66666666666666</ele><time>2026-04-19T08:24:13.988Z</time></trkpt><trkpt lat="44.6427067" lon="10.4726267"><ele>145.33333333333331</ele><time>2026-04-19T08:24:14.988Z</time></trkpt><trkpt lat="44.642515" lon="10.4726433"><ele>146.0</ele><time>2026-04-19T08:24:15.988Z</time></trkpt><trkpt lat="44.6423333" lon="10.4726683"><ele>146.0</ele><time>2026-04-19T08:24:16.988Z</time></trkpt><trkpt lat="44.642155" lon="10.4727"><ele>146.0</ele><time>2026-04-19T08:24:17.988Z</time></trkpt><trkpt lat="44.6419883" lon="10.4727117"><ele>146.0</ele><time>2026-04-19T08:24:18.989Z</time></trkpt><trkpt lat="44.6418283" lon="10.4727267"><ele>146.5</ele><time>2026-04-19T08:24:19.989Z</time></trkpt><trkpt lat="44.6416767" lon="10.4727467"><ele>147.0</ele><time>2026-04-19T08:24:20.988Z</time></trkpt><trkpt lat="44.6415283" lon="10.4727633"><ele>147.5</ele><time>2026-04-19T08:24:21.988Z</time></trkpt><trkpt lat="44.64139" lon="10.4727767"><ele>148.0</ele><time>2026-04-19T08:24:22.988Z</time></trkpt><trkpt lat="44.6412617" lon="10.4727983"><ele>148.0</ele><time>2026-04-19T08:24:23.988Z</time></trkpt><trkpt lat="44.6411333" lon="10.47282"><ele>148.0</ele><time>2026-04-19T08:24:24.988Z</time></trkpt><trkpt lat="44.6409983" lon="10.4728367"><ele>148.0</ele><time>2026-04-19T08:24:25.988Z</time></trkpt><trkpt lat="44.64087" lon="10.47287"><ele>148.0</ele><time>2026-04-19T08:24:26.988Z</time></trkpt><trkpt lat="44.6407617" lon="10.47293"><ele>148.20000000000002</ele><time>2026-04-19T08:24:27.988Z</time></trkpt><trkpt lat="44.6406717" lon="10.47301"><ele>148.4</ele><time>2026-04-19T08:24:28.988Z</time></trkpt><trkpt lat="44.6405867" lon="10.4730817"><ele>148.60000000000002</ele><time>2026-04-19T08:24:29.988Z</time></trkpt><trkpt lat="44.640505" lon="10.47313"><ele>148.8</ele><time>2026-04-19T08:24:30.988Z</time></trkpt><trkpt lat="44.6404233" lon="10.4731283"><ele>149.0</ele><time>2026-04-19T08:24:31.988Z</time></trkpt><trkpt lat="44.6403467" lon="10.473055"><ele>149.5</ele><time>2026-04-19T08:24:32.988Z</time></trkpt><trkpt lat="44.6402733" lon="10.4729317"><ele>150.0</ele><time>2026-04-19T08:24:33.988Z</time></trkpt><trkpt lat="44.6402117" lon="10.4727717"><ele>150.5</ele><time>2026-04-19T08:24:34.988Z</time></trkpt><trkpt lat="44.640185" lon="10.472585"><ele>151.0</ele><time>2026-04-19T08:24:35.988Z</time></trkpt><trkpt lat="44.6401933" lon="10.47238"><ele>151.0</ele><time>2026-04-19T08:24:36.988Z</time></trkpt><trkpt lat="44.6402333" lon="10.4721533"><ele>151.0</ele><time>2026-04-19T08:24:37.988Z</time></trkpt><trkpt lat="44.640295" lon="10.4719167"><ele>151.0</ele><time>2026-04-19T08:24:38.988Z</time></trkpt><trkpt lat="44.640365" lon="10.4716633"><ele>151.0</ele><time>2026-04-19T08:24:39.988Z</time></trkpt><trkpt lat="44.640445" lon="10.4714167"><ele>151.0</ele><time>2026-04-19T08:24:40.988Z</time></trkpt><trkpt lat="44.6405217" lon="10.471185"><ele>151.0</ele><time>2026-04-19T08:24:41.988Z</time></trkpt><trkpt lat="44.6406033" lon="10.4709533"><ele>151.0</ele><time>2026-04-19T08:24:42.988Z</time></trkpt><trkpt lat="44.6406817" lon="10.4707167"><ele>151.0</ele><time>2026-04-19T08:24:43.988Z</time></trkpt><trkpt lat="44.6407617" lon="10.4704767"><ele>151.0</ele><time>2026-04-19T08:24:44.988Z</time></trkpt><trkpt lat="44.64085" lon="10.470235"><ele>150.66666666666669</ele><time>2026-04-19T08:24:45.988Z</time></trkpt><trkpt lat="44.6409317" lon="10.4699867"><ele>150.33333333333334</ele><time>2026-04-19T08:24:46.988Z</time></trkpt><trkpt lat="44.6410133" lon="10.46974"><ele>150.0</ele><time>2026-04-19T08:24:47.988Z</time></trkpt><trkpt lat="44.6410883" lon="10.46949"><ele>150.33333333333334</ele><time>2026-04-19T08:24:48.988Z</time></trkpt><trkpt lat="44.64116" lon="10.469235"><ele>150.66666666666669</ele><time>2026-04-19T08:24:49.988Z</time></trkpt><trkpt lat="44.6412217" lon="10.4689667"><ele>151.0</ele><time>2026-04-19T08:24:50.988Z</time></trkpt><trkpt lat="44.6412633" lon="10.4687033"><ele>151.66666666666669</ele><time>2026-04-19T08:24:51.988Z</time></trkpt><trkpt lat="44.641295" lon="10.46845"><ele>152.33333333333334</ele><time>2026-04-19T08:24:52.988Z</time></trkpt><trkpt lat="44.6413167" lon="10.4681933"><ele>153.0</ele><time>2026-04-19T08:24:53.988Z</time></trkpt><trkpt lat="44.64133" lon="10.4679333"><ele>153.33333333333334</ele><time>2026-04-19T08:24:54.988Z</time></trkpt><trkpt lat="44.641345" lon="10.46766"><ele>153.66666666666669</ele><time>2026-04-19T08:24:55.988Z</time></trkpt><trkpt lat="44.641345" lon="10.4673967"><ele>154.0</ele><time>2026-04-19T08:24:56.988Z</time></trkpt><trkpt lat="44.64133" lon="10.4671233"><ele>153.0</ele><time>2026-04-19T08:24:57.988Z</time></trkpt><trkpt lat="44.641305" lon="10.466845"><ele>152.0</ele><time>2026-04-19T08:24:58.988Z</time></trkpt><trkpt lat="44.641265" lon="10.4665633"><ele>151.0</ele><time>2026-04-19T08:24:59.988Z</time></trkpt><trkpt lat="44.6412217" lon="10.4662917"><ele>151.0</ele><time>2026-04-19T08:25:00.988Z</time></trkpt><trkpt lat="44.6411717" lon="10.4660383"><ele>151.0</ele><time>2026-04-19T08:25:01.988Z</time></trkpt><trkpt lat="44.6411167" lon="10.465795"><ele>151.0</ele><time>2026-04-19T08:25:02.988Z</time></trkpt><trkpt lat="44.641045" lon="10.465555"><ele>152.33333333333334</ele><time>2026-04-19T08:25:03.988Z</time></trkpt><trkpt lat="44.6409533" lon="10.4653133"><ele>153.66666666666666</ele><time>2026-04-19T08:25:04.988Z</time></trkpt><trkpt lat="44.6408467" lon="10.4650667"><ele>155.0</ele><time>2026-04-19T08:25:05.988Z</time></trkpt><trkpt lat="44.6407283" lon="10.4648133"><ele>155.0</ele><time>2026-04-19T08:25:06.988Z</time></trkpt><trkpt lat="44.6406033" lon="10.4645417"><ele>155.0</ele><time>2026-04-19T08:25:07.988Z</time></trkpt><trkpt lat="44.6404717" lon="10.4642433"><ele>155.0</ele><time>2026-04-19T08:25:08.988Z</time></trkpt><trkpt lat="44.6403317" lon="10.46394"><ele>155.0</ele><time>2026-04-19T08:25:09.988Z</time></trkpt><trkpt lat="44.6401967" lon="10.4636517"><ele>156.0</ele><time>2026-04-19T08:25:10.988Z</time></trkpt><trkpt lat="44.6400617" lon="10.4633733"><ele>157.0</ele><time>2026-04-19T08:25:11.988Z</time></trkpt><trkpt lat="44.639925" lon="10.463095"><ele>157.5</ele><time>2026-04-19T08:25:12.988Z</time></trkpt><trkpt lat="44.6397917" lon="10.46281"><ele>158.0</ele><time>2026-04-19T08:25:13.988Z</time></trkpt><trkpt lat="44.6396583" lon="10.462535"><ele>158.0</ele><time>2026-04-19T08:25:14.988Z</time></trkpt><trkpt lat="44.639535" lon="10.4622733"><ele>158.0</ele><time>2026-04-19T08:25:15.988Z</time></trkpt><trkpt lat="44.6394133" lon="10.4620267"><ele>158.0</ele><time>2026-04-19T08:25:16.988Z</time></trkpt><trkpt lat="44.639295" lon="10.4617767"><ele>158.33333333333331</ele><time>2026-04-19T08:25:17.988Z</time></trkpt><trkpt lat="44.6391733" lon="10.46153"><ele>158.66666666666666</ele><time>2026-04-19T08:25:18.988Z</time></trkpt><trkpt lat="44.6390467" lon="10.46128"><ele>159.0</ele><time>2026-04-19T08:25:19.988Z</time></trkpt><trkpt lat="44.6389317" lon="10.461045"><ele>159.66666666666666</ele><time>2026-04-19T08:25:20.988Z</time></trkpt><trkpt lat="44.6388233" lon="10.46081"><ele>160.33333333333331</ele><time>2026-04-19T08:25:21.988Z</time></trkpt><trkpt lat="44.6387133" lon="10.4605833"><ele>161.0</ele><time>2026-04-19T08:25:22.988Z</time></trkpt><trkpt lat="44.6386067" lon="10.46036"><ele>162.0</ele><time>2026-04-19T08:25:23.988Z</time></trkpt><trkpt lat="44.6385083" lon="10.4601567"><ele>163.0</ele><time>2026-04-19T08:25:24.988Z</time></trkpt><trkpt lat="44.6384183" lon="10.459965"><ele>164.0</ele><time>2026-04-19T08:25:25.988Z</time></trkpt><trkpt lat="44.6383367" lon="10.4597883"><ele>164.0</ele><time>2026-04-19T08:25:26.988Z</time></trkpt><trkpt lat="44.63826" lon="10.45963"><ele>164.0</ele><time>2026-04-19T08:25:27.988Z</time></trkpt><trkpt lat="44.6381883" lon="10.45948"><ele>164.0</ele><time>2026-04-19T08:25:28.988Z</time></trkpt><trkpt lat="44.6381267" lon="10.4593367"><ele>164.0</ele><time>2026-04-19T08:25:29.988Z</time></trkpt><trkpt lat="44.63809" lon="10.4592"><ele>164.0</ele><time>2026-04-19T08:25:30.988Z</time></trkpt><trkpt lat="44.63807" lon="10.4590433"><ele>164.0</ele><time>2026-04-19T08:25:31.988Z</time></trkpt><trkpt lat="44.6380567" lon="10.4588667"><ele>164.0</ele><time>2026-04-19T08:25:32.988Z</time></trkpt><trkpt lat="44.6380233" lon="10.4586933"><ele>164.0</ele><time>2026-04-19T08:25:33.988Z</time></trkpt><trkpt lat="44.6379583" lon="10.4585233"><ele>163.75</ele><time>2026-04-19T08:25:34.988Z</time></trkpt><trkpt lat="44.6378583" lon="10.458385"><ele>163.5</ele><time>2026-04-19T08:25:35.988Z</time></trkpt><trkpt lat="44.6377417" lon="10.4582567"><ele>163.25</ele><time>2026-04-19T08:25:36.988Z</time></trkpt><trkpt lat="44.6376317" lon="10.4581067"><ele>163.0</ele><time>2026-04-19T08:25:37.988Z</time></trkpt><trkpt lat="44.637535" lon="10.457915"><ele>164.0</ele><time>2026-04-19T08:25:38.988Z</time></trkpt><trkpt lat="44.63746" lon="10.4576967"><ele>165.0</ele><time>2026-04-19T08:25:39.988Z</time></trkpt><trkpt lat="44.63739" lon="10.4574533"><ele>166.0</ele><time>2026-04-19T08:25:40.988Z</time></trkpt><trkpt lat="44.637315" lon="10.4572017"><ele>166.0</ele><time>2026-04-19T08:25:41.988Z</time></trkpt><trkpt lat="44.63724" lon="10.4569583"><ele>166.0</ele><time>2026-04-19T08:25:42.988Z</time></trkpt><trkpt lat="44.6371617" lon="10.4567233"><ele>166.0</ele><time>2026-04-19T08:25:43.988Z</time></trkpt><trkpt lat="44.6370867" lon="10.4564967"><ele>166.0</ele><time>2026-04-19T08:25:44.988Z</time></trkpt><trkpt lat="44.637015" lon="10.4562717"><ele>166.0</ele><time>2026-04-19T08:25:45.988Z</time></trkpt><trkpt lat="44.636945" lon="10.4560517"><ele>166.0</ele><time>2026-04-19T08:25:46.988Z</time></trkpt><trkpt lat="44.6368783" lon="10.4558367"><ele>166.0</ele><time>2026-04-19T08:25:47.988Z</time></trkpt><trkpt lat="44.6368083" lon="10.4556117"><ele>166.0</ele><time>2026-04-19T08:25:48.988Z</time></trkpt><trkpt lat="44.6367317" lon="10.4553867"><ele>166.0</ele><time>2026-04-19T08:25:49.988Z</time></trkpt><trkpt lat="44.636665" lon="10.455165"><ele>166.0</ele><time>2026-04-19T08:25:50.988Z</time></trkpt><trkpt lat="44.636595" lon="10.4549417"><ele>166.0</ele><time>2026-04-19T08:25:51.988Z</time></trkpt><trkpt lat="44.63652" lon="10.4546983"><ele>166.0</ele><time>2026-04-19T08:25:52.988Z</time></trkpt><trkpt lat="44.6364417" lon="10.4544533"><ele>165.66666666666669</ele><time>2026-04-19T08:25:53.988Z</time></trkpt><trkpt lat="44.636345" lon="10.4541917"><ele>165.33333333333334</ele><time>2026-04-19T08:25:54.988Z</time></trkpt><trkpt lat="44.6362467" lon="10.4539033"><ele>165.0</ele><time>2026-04-19T08:25:55.988Z</time></trkpt><trkpt lat="44.636145" lon="10.4535917"><ele>166.5</ele><time>2026-04-19T08:25:56.988Z</time></trkpt><trkpt lat="44.636045" lon="10.4532717"><ele>168.0</ele><time>2026-04-19T08:25:57.988Z</time></trkpt><trkpt lat="44.6359417" lon="10.452965"><ele>167.66666666666666</ele><time>2026-04-19T08:25:58.988Z</time></trkpt><trkpt lat="44.6358567" lon="10.4526733"><ele>167.33333333333331</ele><time>2026-04-19T08:25:59.988Z</time></trkpt><trkpt lat="44.6357767" lon="10.45241"><ele>167.0</ele><time>2026-04-19T08:26:00.988Z</time></trkpt><trkpt lat="44.6356967" lon="10.4521617"><ele>166.66666666666666</ele><time>2026-04-19T08:26:01.988Z</time></trkpt><trkpt lat="44.6356283" lon="10.4519267"><ele>166.33333333333334</ele><time>2026-04-19T08:26:02.988Z</time></trkpt><trkpt lat="44.6355633" lon="10.4517067"><ele>166.0</ele><time>2026-04-19T08:26:03.988Z</time></trkpt><trkpt lat="44.6354967" lon="10.4514917"><ele>165.0</ele><time>2026-04-19T08:26:04.988Z</time></trkpt><trkpt lat="44.63543" lon="10.4512717"><ele>164.0</ele><time>2026-04-19T08:26:05.988Z</time></trkpt><trkpt lat="44.6353517" lon="10.45105"><ele>163.0</ele><time>2026-04-19T08:26:06.988Z</time></trkpt><trkpt lat="44.63527" lon="10.4508"><ele>166.0</ele><time>2026-04-19T08:26:07.988Z</time></trkpt><trkpt lat="44.6351767" lon="10.4505533"><ele>169.0</ele><time>2026-04-19T08:26:08.988Z</time></trkpt><trkpt lat="44.6350883" lon="10.4503067"><ele>172.0</ele><time>2026-04-19T08:26:09.988Z</time></trkpt><trkpt lat="44.63499" lon="10.4500567"><ele>172.0</ele><time>2026-04-19T08:26:10.988Z</time></trkpt><trkpt lat="44.6349017" lon="10.4498217"><ele>172.0</ele><time>2026-04-19T08:26:11.988Z</time></trkpt><trkpt lat="44.6348033" lon="10.44959"><ele>172.0</ele><time>2026-04-19T08:26:12.988Z</time></trkpt><trkpt lat="44.6347067" lon="10.4493633"><ele>171.33333333333334</ele><time>2026-04-19T08:26:13.988Z</time></trkpt><trkpt lat="44.6346183" lon="10.449135"><ele>170.66666666666666</ele><time>2026-04-19T08:26:14.988Z</time></trkpt><trkpt lat="44.6345583" lon="10.44892"><ele>170.0</ele><time>2026-04-19T08:26:15.988Z</time></trkpt><trkpt lat="44.6345117" lon="10.4487067"><ele>170.0</ele><time>2026-04-19T08:26:16.988Z</time></trkpt><trkpt lat="44.634495" lon="10.4484867"><ele>170.0</ele><time>2026-04-19T08:26:17.988Z</time></trkpt><trkpt lat="44.6344983" lon="10.4482667"><ele>170.0</ele><time>2026-04-19T08:26:18.989Z</time></trkpt><trkpt lat="44.6345333" lon="10.4480283"><ele>170.66666666666666</ele><time>2026-04-19T08:26:19.988Z</time></trkpt><trkpt lat="44.6345883" lon="10.4477717"><ele>171.33333333333334</ele><time>2026-04-19T08:26:20.988Z</time></trkpt><trkpt lat="44.6346517" lon="10.4475017"><ele>172.0</ele><time>2026-04-19T08:26:21.988Z</time></trkpt><trkpt lat="44.6347167" lon="10.4472083"><ele>171.5</ele><time>2026-04-19T08:26:22.988Z</time></trkpt><trkpt lat="44.6347917" lon="10.4468933"><ele>171.0</ele><time>2026-04-19T08:26:23.988Z</time></trkpt><trkpt lat="44.6348617" lon="10.446565"><ele>171.66666666666666</ele><time>2026-04-19T08:26:24.988Z</time></trkpt><trkpt lat="44.6349367" lon="10.4462683"><ele>172.33333333333331</ele><time>2026-04-19T08:26:25.988Z</time></trkpt><trkpt lat="44.6349983" lon="10.44598"><ele>173.0</ele><time>2026-04-19T08:26:26.988Z</time></trkpt><trkpt lat="44.6350533" lon="10.445725"><ele>172.66666666666666</ele><time>2026-04-19T08:26:27.988Z</time></trkpt><trkpt lat="44.6351167" lon="10.4454617"><ele>172.33333333333334</ele><time>2026-04-19T08:26:28.988Z</time></trkpt><trkpt lat="44.635175" lon="10.4451933"><ele>172.0</ele><time>2026-04-19T08:26:29.988Z</time></trkpt><trkpt lat="44.6352317" lon="10.4449333"><ele>172.0</ele><time>2026-04-19T08:26:30.988Z</time></trkpt><trkpt lat="44.63529" lon="10.4446683"><ele>172.0</ele><time>2026-04-19T08:26:31.988Z</time></trkpt><trkpt lat="44.6353533" lon="10.4444017"><ele>172.0</ele><time>2026-04-19T08:26:32.988Z</time></trkpt><trkpt lat="44.6354117" lon="10.44414"><ele>172.0</ele><time>2026-04-19T08:26:33.989Z</time></trkpt><trkpt lat="44.6354683" lon="10.443885"><ele>172.0</ele><time>2026-04-19T08:26:34.988Z</time></trkpt><trkpt lat="44.635525" lon="10.443635"><ele>172.0</ele><time>2026-04-19T08:26:35.988Z</time></trkpt><trkpt lat="44.6355783" lon="10.443385"><ele>172.33333333333334</ele><time>2026-04-19T08:26:36.988Z</time></trkpt><trkpt lat="44.6356233" lon="10.4431467"><ele>172.66666666666666</ele><time>2026-04-19T08:26:37.988Z</time></trkpt><trkpt lat="44.6356483" lon="10.4429183"><ele>173.0</ele><time>2026-04-19T08:26:38.989Z</time></trkpt><trkpt lat="44.6356517" lon="10.442695"><ele>173.0</ele><time>2026-04-19T08:26:39.988Z</time></trkpt><trkpt lat="44.635625" lon="10.4424533"><ele>173.0</ele><time>2026-04-19T08:26:40.988Z</time></trkpt><trkpt lat="44.63558" lon="10.4422083"><ele>173.0</ele><time>2026-04-19T08:26:41.988Z</time></trkpt><trkpt lat="44.6355083" lon="10.4419483"><ele>172.33333333333331</ele><time>2026-04-19T08:26:42.988Z</time></trkpt><trkpt lat="44.6354267" lon="10.4416633"><ele>171.66666666666666</ele><time>2026-04-19T08:26:43.988Z</time></trkpt><trkpt lat="44.6353467" lon="10.4413783"><ele>171.0</ele><time>2026-04-19T08:26:44.988Z</time></trkpt><trkpt lat="44.63526" lon="10.4411117"><ele>171.0</ele><time>2026-04-19T08:26:45.988Z</time></trkpt><trkpt lat="44.6351767" lon="10.4408483"><ele>171.0</ele><time>2026-04-19T08:26:46.988Z</time></trkpt><trkpt lat="44.6350933" lon="10.4405683"><ele>171.0</ele><time>2026-04-19T08:26:47.988Z</time></trkpt><trkpt lat="44.6350133" lon="10.4403017"><ele>170.33333333333334</ele><time>2026-04-19T08:26:48.988Z</time></trkpt><trkpt lat="44.6349283" lon="10.4400433"><ele>169.66666666666669</ele><time>2026-04-19T08:26:49.988Z</time></trkpt><trkpt lat="44.6348517" lon="10.439795"><ele>169.0</ele><time>2026-04-19T08:26:50.988Z</time></trkpt><trkpt lat="44.63478" lon="10.43956"><ele>168.66666666666669</ele><time>2026-04-19T08:26:51.988Z</time></trkpt><trkpt lat="44.6347067" lon="10.4393317"><ele>168.33333333333334</ele><time>2026-04-19T08:26:52.988Z</time></trkpt><trkpt lat="44.6346333" lon="10.4391"><ele>168.0</ele><time>2026-04-19T08:26:53.988Z</time></trkpt><trkpt lat="44.6345617" lon="10.4388817"><ele>167.66666666666666</ele><time>2026-04-19T08:26:54.988Z</time></trkpt><trkpt lat="44.6344883" lon="10.438655"><ele>167.33333333333331</ele><time>2026-04-19T08:26:55.988Z</time></trkpt><trkpt lat="44.6344117" lon="10.43843"><ele>167.0</ele><time>2026-04-19T08:26:56.988Z</time></trkpt><trkpt lat="44.6343133" lon="10.4382167"><ele>167.66666666666666</ele><time>2026-04-19T08:26:57.988Z</time></trkpt><trkpt lat="44.6341967" lon="10.4380133"><ele>168.33333333333334</ele><time>2026-04-19T08:26:58.988Z</time></trkpt><trkpt lat="44.6340617" lon="10.4378167"><ele>169.0</ele><time>2026-04-19T08:26:59.988Z</time></trkpt><trkpt lat="44.633915" lon="10.4376233"><ele>169.0</ele><time>2026-04-19T08:27:00.988Z</time></trkpt><trkpt lat="44.6337567" lon="10.437435"><ele>169.0</ele><time>2026-04-19T08:27:01.988Z</time></trkpt><trkpt lat="44.6336083" lon="10.4372333"><ele>169.0</ele><time>2026-04-19T08:27:02.988Z</time></trkpt><trkpt lat="44.6334683" lon="10.43704"><ele>169.33333333333334</ele><time>2026-04-19T08:27:03.988Z</time></trkpt><trkpt lat="44.6333483" lon="10.43684"><ele>169.66666666666666</ele><time>2026-04-19T08:27:04.988Z</time></trkpt><trkpt lat="44.633235" lon="10.4366417"><ele>170.0</ele><time>2026-04-19T08:27:05.988Z</time></trkpt><trkpt lat="44.63313" lon="10.4364417"><ele>170.0</ele><time>2026-04-19T08:27:06.988Z</time></trkpt><trkpt lat="44.633035" lon="10.4362417"><ele>170.0</ele><time>2026-04-19T08:27:07.988Z</time></trkpt><trkpt lat="44.632925" lon="10.4360683"><ele>170.0</ele><time>2026-04-19T08:27:08.988Z</time></trkpt><trkpt lat="44.6328083" lon="10.4359117"><ele>171.0</ele><time>2026-04-19T08:27:09.988Z</time></trkpt><trkpt lat="44.6326767" lon="10.4357733"><ele>172.0</ele><time>2026-04-19T08:27:10.988Z</time></trkpt><trkpt lat="44.6325483" lon="10.4356567"><ele>173.0</ele><time>2026-04-19T08:27:11.988Z</time></trkpt><trkpt lat="44.6324117" lon="10.4355683"><ele>173.0</ele><time>2026-04-19T08:27:12.988Z</time></trkpt><trkpt lat="44.6322967" lon="10.4354883"><ele>173.0</ele><time>2026-04-19T08:27:13.988Z</time></trkpt><trkpt lat="44.6321933" lon="10.4353983"><ele>173.0</ele><time>2026-04-19T08:27:14.988Z</time></trkpt><trkpt lat="44.6321083" lon="10.435315"><ele>173.0</ele><time>2026-04-19T08:27:15.988Z</time></trkpt><trkpt lat="44.63203" lon="10.4352533"><ele>173.0</ele><time>2026-04-19T08:27:16.988Z</time></trkpt><trkpt lat="44.6319667" lon="10.4351883"><ele>173.0</ele><time>2026-04-19T08:27:17.988Z</time></trkpt><trkpt lat="44.63192" lon="10.4351133"><ele>173.0</ele><time>2026-04-19T08:27:18.988Z</time></trkpt><trkpt lat="44.63189" lon="10.4350233"><ele>173.0</ele><time>2026-04-19T08:27:19.988Z</time></trkpt><trkpt lat="44.6318667" lon="10.4349183"><ele>173.0</ele><time>2026-04-19T08:27:20.988Z</time></trkpt><trkpt lat="44.6318433" lon="10.4347967"><ele>173.0</ele><time>2026-04-19T08:27:21.988Z</time></trkpt><trkpt lat="44.6318033" lon="10.43468"><ele>173.0</ele><time>2026-04-19T08:27:22.988Z</time></trkpt><trkpt lat="44.6317367" lon="10.4346117"><ele>173.0</ele><time>2026-04-19T08:27:23.988Z</time></trkpt><trkpt lat="44.6316533" lon="10.4345833"><ele>173.0</ele><time>2026-04-19T08:27:24.988Z</time></trkpt><trkpt lat="44.6315767" lon="10.4346067"><ele>173.0</ele><time>2026-04-19T08:27:25.988Z</time></trkpt><trkpt lat="44.6315083" lon="10.4346617"><ele>173.0</ele><time>2026-04-19T08:27:26.988Z</time></trkpt><trkpt lat="44.631435" lon="10.4347417"><ele>173.0</ele><time>2026-04-19T08:27:27.988Z</time></trkpt><trkpt lat="44.6313483" lon="10.4348067"><ele>173.0</ele><time>2026-04-19T08:27:28.988Z</time></trkpt><trkpt lat="44.6312333" lon="10.4348217"><ele>173.0</ele><time>2026-04-19T08:27:29.988Z</time></trkpt><trkpt lat="44.6311017" lon="10.4347883"><ele>173.0</ele><time>2026-04-19T08:27:30.988Z</time></trkpt><trkpt lat="44.630955" lon="10.4347317"><ele>173.0</ele><time>2026-04-19T08:27:31.988Z</time></trkpt><trkpt lat="44.6307917" lon="10.434665"><ele>173.33333333333331</ele><time>2026-04-19T08:27:32.988Z</time></trkpt><trkpt lat="44.6306117" lon="10.4345933"><ele>173.66666666666666</ele><time>2026-04-19T08:27:33.988Z</time></trkpt><trkpt lat="44.6304433" lon="10.4345333"><ele>174.0</ele><time>2026-04-19T08:27:34.987Z</time></trkpt><trkpt lat="44.63029" lon="10.4344733"><ele>174.0</ele><time>2026-04-19T08:27:35.987Z</time></trkpt><trkpt lat="44.6301417" lon="10.4344217"><ele>174.0</ele><time>2026-04-19T08:27:36.987Z</time></trkpt><trkpt lat="44.6300067" lon="10.4343717"><ele>174.0</ele><time>2026-04-19T08:27:37.987Z</time></trkpt><trkpt lat="44.6298733" lon="10.4343283"><ele>174.0</ele><time>2026-04-19T08:27:38.987Z</time></trkpt><trkpt lat="44.6297317" lon="10.4342783"><ele>174.0</ele><time>2026-04-19T08:27:39.987Z</time></trkpt><trkpt lat="44.629585" lon="10.4342233"><ele>174.0</ele><time>2026-04-19T08:27:40.987Z</time></trkpt><trkpt lat="44.6294383" lon="10.4341633"><ele>174.0</ele><time>2026-04-19T08:27:41.987Z</time></trkpt><trkpt lat="44.6292867" lon="10.4341033"><ele>174.33333333333334</ele><time>2026-04-19T08:27:42.987Z</time></trkpt><trkpt lat="44.6291367" lon="10.4340383"><ele>174.66666666666669</ele><time>2026-04-19T08:27:43.987Z</time></trkpt><trkpt lat="44.6289933" lon="10.4339717"><ele>175.0</ele><time>2026-04-19T08:27:44.987Z</time></trkpt><trkpt lat="44.6288517" lon="10.4338933"><ele>175.0</ele><time>2026-04-19T08:27:45.987Z</time></trkpt><trkpt lat="44.6287083" lon="10.4338117"><ele>175.0</ele><time>2026-04-19T08:27:46.987Z</time></trkpt><trkpt lat="44.6285667" lon="10.4337283"><ele>175.0</ele><time>2026-04-19T08:27:47.987Z</time></trkpt><trkpt lat="44.6284167" lon="10.4336467"><ele>175.33333333333334</ele><time>2026-04-19T08:27:48.987Z</time></trkpt><trkpt lat="44.6282617" lon="10.433575"><ele>175.66666666666666</ele><time>2026-04-19T08:27:49.987Z</time></trkpt><trkpt lat="44.6281167" lon="10.4334917"><ele>176.0</ele><time>2026-04-19T08:27:50.987Z</time></trkpt><trkpt lat="44.6279667" lon="10.433415"><ele>176.0</ele><time>2026-04-19T08:27:51.987Z</time></trkpt><trkpt lat="44.6278233" lon="10.4333383"><ele>176.0</ele><time>2026-04-19T08:27:52.987Z</time></trkpt><trkpt lat="44.627695" lon="10.4332667"><ele>176.0</ele><time>2026-04-19T08:27:53.987Z</time></trkpt><trkpt lat="44.6275567" lon="10.433195"><ele>176.0</ele><time>2026-04-19T08:27:54.987Z</time></trkpt><trkpt lat="44.6274083" lon="10.433125"><ele>175.66666666666666</ele><time>2026-04-19T08:27:55.987Z</time></trkpt><trkpt lat="44.6272633" lon="10.4330517"><ele>175.33333333333334</ele><time>2026-04-19T08:27:56.987Z</time></trkpt><trkpt lat="44.627115" lon="10.4329767"><ele>175.0</ele><time>2026-04-19T08:27:57.987Z</time></trkpt><trkpt lat="44.6269783" lon="10.4328867"><ele>176.0</ele><time>2026-04-19T08:27:58.987Z</time></trkpt><trkpt lat="44.6268483" lon="10.43281"><ele>177.0</ele><time>2026-04-19T08:27:59.987Z</time></trkpt><trkpt lat="44.626725" lon="10.4327367"><ele>178.0</ele><time>2026-04-19T08:28:00.987Z</time></trkpt><trkpt lat="44.626605" lon="10.4326567"><ele>179.0</ele><time>2026-04-19T08:28:01.987Z</time></trkpt><trkpt lat="44.62648" lon="10.4325633"><ele>179.0</ele><time>2026-04-19T08:28:02.987Z</time></trkpt><trkpt lat="44.626355" lon="10.4324667"><ele>179.0</ele><time>2026-04-19T08:28:03.987Z</time></trkpt><trkpt lat="44.62623" lon="10.4323617"><ele>179.0</ele><time>2026-04-19T08:28:04.987Z</time></trkpt><trkpt lat="44.6261133" lon="10.4322467"><ele>179.0</ele><time>2026-04-19T08:28:05.987Z</time></trkpt><trkpt lat="44.6259967" lon="10.43212"><ele>179.25</ele><time>2026-04-19T08:28:06.987Z</time></trkpt><trkpt lat="44.6258917" lon="10.4320017"><ele>179.5</ele><time>2026-04-19T08:28:07.987Z</time></trkpt><trkpt lat="44.6257967" lon="10.4318917"><ele>179.75</ele><time>2026-04-19T08:28:08.987Z</time></trkpt><trkpt lat="44.6257067" lon="10.43179"><ele>180.0</ele><time>2026-04-19T08:28:09.987Z</time></trkpt><trkpt lat="44.625625" lon="10.4316833"><ele>180.0</ele><time>2026-04-19T08:28:10.987Z</time></trkpt><trkpt lat="44.6255533" lon="10.4315883"><ele>180.0</ele><time>2026-04-19T08:28:11.987Z</time></trkpt><trkpt lat="44.6254817" lon="10.4314933"><ele>180.0</ele><time>2026-04-19T08:28:12.987Z</time></trkpt><trkpt lat="44.6254017" lon="10.4314017"><ele>180.0</ele><time>2026-04-19T08:28:13.987Z</time></trkpt><trkpt lat="44.62532" lon="10.43129"><ele>180.0</ele><time>2026-04-19T08:28:14.987Z</time></trkpt><trkpt lat="44.6252467" lon="10.4311683"><ele>180.33333333333334</ele><time>2026-04-19T08:28:15.987Z</time></trkpt><trkpt lat="44.6251767" lon="10.4310533"><ele>180.66666666666666</ele><time>2026-04-19T08:28:16.987Z</time></trkpt><trkpt lat="44.6251233" lon="10.4309367"><ele>181.0</ele><time>2026-04-19T08:28:17.987Z</time></trkpt><trkpt lat="44.6250867" lon="10.4308283"><ele>181.33333333333331</ele><time>2026-04-19T08:28:18.987Z</time></trkpt><trkpt lat="44.6250567" lon="10.430725"><ele>181.66666666666666</ele><time>2026-04-19T08:28:19.987Z</time></trkpt><trkpt lat="44.62503" lon="10.430635"><ele>182.0</ele><time>2026-04-19T08:28:20.987Z</time></trkpt><trkpt lat="44.62501" lon="10.43053"><ele>182.0</ele><time>2026-04-19T08:28:21.987Z</time></trkpt><trkpt lat="44.6250017" lon="10.43041"><ele>182.0</ele><time>2026-04-19T08:28:22.987Z</time></trkpt><trkpt lat="44.6249983" lon="10.43026"><ele>182.0</ele><time>2026-04-19T08:28:23.987Z</time></trkpt><trkpt lat="44.6250117" lon="10.4301"><ele>182.0</ele><time>2026-04-19T08:28:24.987Z</time></trkpt><trkpt lat="44.6250267" lon="10.429945"><ele>182.0</ele><time>2026-04-19T08:28:25.987Z</time></trkpt><trkpt lat="44.6250417" lon="10.429795"><ele>182.0</ele><time>2026-04-19T08:28:26.987Z</time></trkpt><trkpt lat="44.62507" lon="10.429645"><ele>182.0</ele><time>2026-04-19T08:28:27.987Z</time></trkpt><trkpt lat="44.6250883" lon="10.4294817"><ele>182.0</ele><time>2026-04-19T08:28:28.987Z</time></trkpt><trkpt lat="44.6251083" lon="10.4293167"><ele>182.0</ele><time>2026-04-19T08:28:29.987Z</time></trkpt><trkpt lat="44.6251233" lon="10.4291667"><ele>182.2</ele><time>2026-04-19T08:28:30.987Z</time></trkpt><trkpt lat="44.625145" lon="10.4290283"><ele>182.39999999999998</ele><time>2026-04-19T08:28:31.987Z</time></trkpt><trkpt lat="44.6251583" lon="10.4288917"><ele>182.60000000000002</ele><time>2026-04-19T08:28:32.987Z</time></trkpt><trkpt lat="44.6251717" lon="10.4287617"><ele>182.8</ele><time>2026-04-19T08:28:33.987Z</time></trkpt><trkpt lat="44.6251833" lon="10.4286417"><ele>183.0</ele><time>2026-04-19T08:28:34.987Z</time></trkpt><trkpt lat="44.62519" lon="10.4285183"><ele>182.60000000000002</ele><time>2026-04-19T08:28:35.987Z</time></trkpt><trkpt lat="44.6252017" lon="10.4283883"><ele>182.20000000000002</ele><time>2026-04-19T08:28:36.987Z</time></trkpt><trkpt lat="44.6252117" lon="10.4282617"><ele>181.8</ele><time>2026-04-19T08:28:37.987Z</time></trkpt><trkpt lat="44.6252217" lon="10.4281217"><ele>181.4</ele><time>2026-04-19T08:28:38.987Z</time></trkpt><trkpt lat="44.625235" lon="10.427975"><ele>181.0</ele><time>2026-04-19T08:28:39.987Z</time></trkpt><trkpt lat="44.6252517" lon="10.4278267"><ele>180.8</ele><time>2026-04-19T08:28:40.987Z</time></trkpt><trkpt lat="44.6252633" lon="10.427675"><ele>180.60000000000002</ele><time>2026-04-19T08:28:41.987Z</time></trkpt><trkpt lat="44.6252783" lon="10.4275133"><ele>180.4</ele><time>2026-04-19T08:28:42.987Z</time></trkpt><trkpt lat="44.6252967" lon="10.427365"><ele>180.2</ele><time>2026-04-19T08:28:43.987Z</time></trkpt><trkpt lat="44.62532" lon="10.4272083"><ele>180.0</ele><time>2026-04-19T08:28:44.987Z</time></trkpt><trkpt lat="44.62534" lon="10.4270517"><ele>179.2</ele><time>2026-04-19T08:28:45.987Z</time></trkpt><trkpt lat="44.6253583" lon="10.4269067"><ele>178.4</ele><time>2026-04-19T08:28:46.987Z</time></trkpt><trkpt lat="44.6253667" lon="10.426765"><ele>177.60000000000002</ele><time>2026-04-19T08:28:47.987Z</time></trkpt><trkpt lat="44.6253833" lon="10.42662"><ele>176.8</ele><time>2026-04-19T08:28:48.987Z</time></trkpt><trkpt lat="44.6253983" lon="10.4264783"><ele>176.0</ele><time>2026-04-19T08:28:49.987Z</time></trkpt><trkpt lat="44.6254083" lon="10.4263267"><ele>176.0</ele><time>2026-04-19T08:28:50.987Z</time></trkpt><trkpt lat="44.6254267" lon="10.4261733"><ele>176.0</ele><time>2026-04-19T08:28:51.987Z</time></trkpt><trkpt lat="44.6254417" lon="10.4260233"><ele>176.0</ele><time>2026-04-19T08:28:52.987Z</time></trkpt><trkpt lat="44.6254617" lon="10.425885"><ele>176.0</ele><time>2026-04-19T08:28:53.987Z</time></trkpt><trkpt lat="44.6254683" lon="10.425755"><ele>176.0</ele><time>2026-04-19T08:28:54.987Z</time></trkpt><trkpt lat="44.6254833" lon="10.4256367"><ele>176.0</ele><time>2026-04-19T08:28:55.987Z</time></trkpt><trkpt lat="44.6254967" lon="10.4255133"><ele>176.0</ele><time>2026-04-19T08:28:56.987Z</time></trkpt><trkpt lat="44.625515" lon="10.4253983"><ele>176.0</ele><time>2026-04-19T08:28:57.987Z</time></trkpt><trkpt lat="44.6255333" lon="10.4252683"><ele>176.0</ele><time>2026-04-19T08:28:58.987Z</time></trkpt><trkpt lat="44.62555" lon="10.42513"><ele>176.0</ele><time>2026-04-19T08:28:59.987Z</time></trkpt><trkpt lat="44.6255667" lon="10.4250033"><ele>175.4</ele><time>2026-04-19T08:29:00.987Z</time></trkpt><trkpt lat="44.625585" lon="10.424875"><ele>174.8</ele><time>2026-04-19T08:29:01.987Z</time></trkpt><trkpt lat="44.6255983" lon="10.424745"><ele>174.20000000000002</ele><time>2026-04-19T08:29:02.987Z</time></trkpt><trkpt lat="44.6256083" lon="10.4246283"><ele>173.60000000000002</ele><time>2026-04-19T08:29:03.987Z</time></trkpt><trkpt lat="44.62563" lon="10.42451"><ele>173.0</ele><time>2026-04-19T08:29:04.987Z</time></trkpt><trkpt lat="44.6256417" lon="10.424375"><ele>172.8</ele><time>2026-04-19T08:29:05.987Z</time></trkpt><trkpt lat="44.6256467" lon="10.4242383"><ele>172.60000000000002</ele><time>2026-04-19T08:29:06.987Z</time></trkpt><trkpt lat="44.6256633" lon="10.4241017"><ele>172.39999999999998</ele><time>2026-04-19T08:29:07.987Z</time></trkpt><trkpt lat="44.6256767" lon="10.4239583"><ele>172.2</ele><time>2026-04-19T08:29:08.987Z</time></trkpt><trkpt lat="44.6256833" lon="10.4238233"><ele>172.0</ele><time>2026-04-19T08:29:09.987Z</time></trkpt><trkpt lat="44.6256967" lon="10.4236917"><ele>172.2</ele><time>2026-04-19T08:29:10.987Z</time></trkpt><trkpt lat="44.62571" lon="10.4235467"><ele>172.39999999999998</ele><time>2026-04-19T08:29:11.987Z</time></trkpt><trkpt lat="44.6257317" lon="10.423395"><ele>172.60000000000002</ele><time>2026-04-19T08:29:12.987Z</time></trkpt><trkpt lat="44.6257517" lon="10.42323"><ele>172.8</ele><time>2026-04-19T08:29:13.987Z</time></trkpt><trkpt lat="44.6257633" lon="10.4230817"><ele>173.0</ele><time>2026-04-19T08:29:14.987Z</time></trkpt><trkpt lat="44.6257783" lon="10.4229383"><ele>173.0</ele><time>2026-04-19T08:29:15.987Z</time></trkpt><trkpt lat="44.6257883" lon="10.42281"><ele>173.0</ele><time>2026-04-19T08:29:16.988Z</time></trkpt><trkpt lat="44.6257983" lon="10.4226967"><ele>173.0</ele><time>2026-04-19T08:29:17.987Z</time></trkpt><trkpt lat="44.6258083" lon="10.4226067"><ele>173.0</ele><time>2026-04-19T08:29:18.987Z</time></trkpt><trkpt lat="44.625835" lon="10.4224417"><ele>173.0</ele><time>2026-04-19T08:29:20.987Z</time></trkpt><trkpt lat="44.62586" lon="10.42228"><ele>173.0</ele><time>2026-04-19T08:29:22.987Z</time></trkpt><trkpt lat="44.62589" lon="10.4221633"><ele>173.0</ele><time>2026-04-19T08:29:24.987Z</time></trkpt><trkpt lat="44.625935" lon="10.4220683"><ele>173.0</ele><time>2026-04-19T08:29:26.987Z</time></trkpt><trkpt lat="44.6259533" lon="10.421965"><ele>173.0</ele><time>2026-04-19T08:29:30.987Z</time></trkpt><trkpt lat="44.625915" lon="10.4218567"><ele>173.0</ele><time>2026-04-19T08:29:33.987Z</time></trkpt><trkpt lat="44.6258367" lon="10.4217467"><ele>173.0</ele><time>2026-04-19T08:29:35.987Z</time></trkpt><trkpt lat="44.6257883" lon="10.42169"><ele>172.8</ele><time>2026-04-19T08:29:36.987Z</time></trkpt><trkpt lat="44.62572" lon="10.42164"><ele>172.60000000000002</ele><time>2026-04-19T08:29:37.988Z</time></trkpt><trkpt lat="44.6256283" lon="10.4216033"><ele>172.39999999999998</ele><time>2026-04-19T08:29:38.987Z</time></trkpt><trkpt lat="44.6255333" lon="10.4215567"><ele>172.2</ele><time>2026-04-19T08:29:39.987Z</time></trkpt><trkpt lat="44.6254017" lon="10.4215083"><ele>172.0</ele><time>2026-04-19T08:29:40.987Z</time></trkpt><trkpt lat="44.6252317" lon="10.4214533"><ele>172.0</ele><time>2026-04-19T08:29:41.987Z</time></trkpt><trkpt lat="44.6250683" lon="10.4214167"><ele>172.0</ele><time>2026-04-19T08:29:42.987Z</time></trkpt><trkpt lat="44.6248883" lon="10.4213783"><ele>172.0</ele><time>2026-04-19T08:29:43.987Z</time></trkpt><trkpt lat="44.62473" lon="10.42134"><ele>172.5</ele><time>2026-04-19T08:29:44.987Z</time></trkpt><trkpt lat="44.6245867" lon="10.421305"><ele>173.0</ele><time>2026-04-19T08:29:45.987Z</time></trkpt><trkpt lat="44.6244533" lon="10.4212533"><ele>173.5</ele><time>2026-04-19T08:29:46.987Z</time></trkpt><trkpt lat="44.624335" lon="10.421185"><ele>174.0</ele><time>2026-04-19T08:29:47.987Z</time></trkpt><trkpt lat="44.624215" lon="10.421105"><ele>174.0</ele><time>2026-04-19T08:29:48.988Z</time></trkpt><trkpt lat="44.6240933" lon="10.4210067"><ele>174.0</ele><time>2026-04-19T08:29:49.987Z</time></trkpt><trkpt lat="44.6239817" lon="10.4209133"><ele>174.0</ele><time>2026-04-19T08:29:50.987Z</time></trkpt><trkpt lat="44.6238917" lon="10.42082"><ele>174.0</ele><time>2026-04-19T08:29:51.987Z</time></trkpt><trkpt lat="44.6238033" lon="10.42073"><ele>174.0</ele><time>2026-04-19T08:29:52.987Z</time></trkpt><trkpt lat="44.62371" lon="10.4206617"><ele>174.0</ele><time>2026-04-19T08:29:53.987Z</time></trkpt><trkpt lat="44.6236217" lon="10.4205817"><ele>174.0</ele><time>2026-04-19T08:29:54.987Z</time></trkpt><trkpt lat="44.6235367" lon="10.4205083"><ele>174.0</ele><time>2026-04-19T08:29:55.987Z</time></trkpt><trkpt lat="44.623445" lon="10.4204333"><ele>174.0</ele><time>2026-04-19T08:29:56.988Z</time></trkpt><trkpt lat="44.6233617" lon="10.42037"><ele>174.0</ele><time>2026-04-19T08:29:57.987Z</time></trkpt><trkpt lat="44.6232917" lon="10.420315"><ele>174.0</ele><time>2026-04-19T08:29:58.987Z</time></trkpt><trkpt lat="44.6232267" lon="10.4202667"><ele>174.0</ele><time>2026-04-19T08:29:59.987Z</time></trkpt><trkpt lat="44.62317" lon="10.4202233"><ele>174.0</ele><time>2026-04-19T08:30:00.987Z</time></trkpt><trkpt lat="44.6230683" lon="10.42013"><ele>174.0</ele><time>2026-04-19T08:30:02.987Z</time></trkpt><trkpt lat="44.6229967" lon="10.420075"><ele>174.0</ele><time>2026-04-19T08:30:03.987Z</time></trkpt><trkpt lat="44.6229267" lon="10.4200083"><ele>174.0</ele><time>2026-04-19T08:30:04.987Z</time></trkpt><trkpt lat="44.62283" lon="10.4199317"><ele>174.0</ele><time>2026-04-19T08:30:05.987Z</time></trkpt><trkpt lat="44.62273" lon="10.419845"><ele>174.0</ele><time>2026-04-19T08:30:06.987Z</time></trkpt><trkpt lat="44.6226183" lon="10.419745"><ele>174.0</ele><time>2026-04-19T08:30:07.987Z</time></trkpt><trkpt lat="44.6225067" lon="10.41964"><ele>174.5</ele><time>2026-04-19T08:30:08.987Z</time></trkpt><trkpt lat="44.6224083" lon="10.4195533"><ele>175.0</ele><time>2026-04-19T08:30:09.987Z</time></trkpt><trkpt lat="44.622305" lon="10.4194783"><ele>175.5</ele><time>2026-04-19T08:30:10.987Z</time></trkpt><trkpt lat="44.6222017" lon="10.4194033"><ele>176.0</ele><time>2026-04-19T08:30:11.987Z</time></trkpt><trkpt lat="44.6220967" lon="10.4193233"><ele>176.0</ele><time>2026-04-19T08:30:12.987Z</time></trkpt><trkpt lat="44.6219817" lon="10.4192467"><ele>176.0</ele><time>2026-04-19T08:30:13.987Z</time></trkpt><trkpt lat="44.6218883" lon="10.419155"><ele>176.0</ele><time>2026-04-19T08:30:14.987Z</time></trkpt><trkpt lat="44.6217967" lon="10.4190733"><ele>176.0</ele><time>2026-04-19T08:30:15.987Z</time></trkpt><trkpt lat="44.6217017" lon="10.4189867"><ele>176.5</ele><time>2026-04-19T08:30:16.987Z</time></trkpt><trkpt lat="44.6215817" lon="10.4189133"><ele>177.0</ele><time>2026-04-19T08:30:17.987Z</time></trkpt><trkpt lat="44.6214683" lon="10.41883"><ele>177.5</ele><time>2026-04-19T08:30:18.987Z</time></trkpt><trkpt lat="44.62137" lon="10.418735"><ele>178.0</ele><time>2026-04-19T08:30:19.987Z</time></trkpt><trkpt lat="44.6212567" lon="10.41864"><ele>178.75</ele><time>2026-04-19T08:30:20.987Z</time></trkpt><trkpt lat="44.6211417" lon="10.418545"><ele>179.5</ele><time>2026-04-19T08:30:21.987Z</time></trkpt><trkpt lat="44.6210233" lon="10.4184467"><ele>180.25</ele><time>2026-04-19T08:30:22.987Z</time></trkpt><trkpt lat="44.6209" lon="10.41834"><ele>181.0</ele><time>2026-04-19T08:30:23.987Z</time></trkpt><trkpt lat="44.6207717" lon="10.41824"><ele>181.0</ele><time>2026-04-19T08:30:24.987Z</time></trkpt><trkpt lat="44.6206367" lon="10.4181433"><ele>181.0</ele><time>2026-04-19T08:30:25.987Z</time></trkpt><trkpt lat="44.6205133" lon="10.4180433"><ele>181.0</ele><time>2026-04-19T08:30:26.987Z</time></trkpt><trkpt lat="44.620395" lon="10.417945"><ele>181.0</ele><time>2026-04-19T08:30:27.987Z</time></trkpt><trkpt lat="44.6202817" lon="10.41785"><ele>181.75</ele><time>2026-04-19T08:30:28.987Z</time></trkpt><trkpt lat="44.6201633" lon="10.4177533"><ele>182.5</ele><time>2026-04-19T08:30:29.987Z</time></trkpt><trkpt lat="44.6200383" lon="10.417655"><ele>183.25</ele><time>2026-04-19T08:30:30.987Z</time></trkpt><trkpt lat="44.6199217" lon="10.4175567"><ele>184.0</ele><time>2026-04-19T08:30:31.987Z</time></trkpt><trkpt lat="44.619795" lon="10.4174633"><ele>184.0</ele><time>2026-04-19T08:30:32.987Z</time></trkpt><trkpt lat="44.61967" lon="10.4173617"><ele>184.0</ele><time>2026-04-19T08:30:33.987Z</time></trkpt><trkpt lat="44.619545" lon="10.41726"><ele>184.0</ele><time>2026-04-19T08:30:34.987Z</time></trkpt><trkpt lat="44.6194133" lon="10.4171583"><ele>184.0</ele><time>2026-04-19T08:30:35.987Z</time></trkpt><trkpt lat="44.619285" lon="10.417055"><ele>184.25</ele><time>2026-04-19T08:30:36.987Z</time></trkpt><trkpt lat="44.619165" lon="10.4169667"><ele>184.5</ele><time>2026-04-19T08:30:37.987Z</time></trkpt><trkpt lat="44.61905" lon="10.4168767"><ele>184.75</ele><time>2026-04-19T08:30:38.987Z</time></trkpt><trkpt lat="44.6189283" lon="10.4168067"><ele>185.0</ele><time>2026-04-19T08:30:39.987Z</time></trkpt><trkpt lat="44.6188117" lon="10.4167383"><ele>185.0</ele><time>2026-04-19T08:30:40.987Z</time></trkpt><trkpt lat="44.61869" lon="10.4166767"><ele>185.0</ele><time>2026-04-19T08:30:41.987Z</time></trkpt><trkpt lat="44.6185517" lon="10.416625"><ele>185.0</ele><time>2026-04-19T08:30:42.987Z</time></trkpt><trkpt lat="44.6184167" lon="10.4165667"><ele>185.0</ele><time>2026-04-19T08:30:43.987Z</time></trkpt><trkpt lat="44.6182867" lon="10.4165067"><ele>185.25</ele><time>2026-04-19T08:30:44.987Z</time></trkpt><trkpt lat="44.61816" lon="10.4164467"><ele>185.5</ele><time>2026-04-19T08:30:45.987Z</time></trkpt><trkpt lat="44.61801" lon="10.4163917"><ele>185.75</ele><time>2026-04-19T08:30:46.987Z</time></trkpt><trkpt lat="44.6178567" lon="10.41635"><ele>186.0</ele><time>2026-04-19T08:30:47.987Z</time></trkpt><trkpt lat="44.6177133" lon="10.4163067"><ele>186.0</ele><time>2026-04-19T08:30:48.987Z</time></trkpt><trkpt lat="44.6175817" lon="10.416265"><ele>186.0</ele><time>2026-04-19T08:30:49.987Z</time></trkpt><trkpt lat="44.6174633" lon="10.416215"><ele>186.0</ele><time>2026-04-19T08:30:50.987Z</time></trkpt><trkpt lat="44.617345" lon="10.4161567"><ele>186.0</ele><time>2026-04-19T08:30:51.987Z</time></trkpt><trkpt lat="44.6172317" lon="10.4161033"><ele>186.0</ele><time>2026-04-19T08:30:52.987Z</time></trkpt><trkpt lat="44.6171167" lon="10.4160533"><ele>186.0</ele><time>2026-04-19T08:30:53.987Z</time></trkpt><trkpt lat="44.6170017" lon="10.4160083"><ele>186.0</ele><time>2026-04-19T08:30:54.987Z</time></trkpt><trkpt lat="44.6168833" lon="10.4159617"><ele>186.0</ele><time>2026-04-19T08:30:55.987Z</time></trkpt><trkpt lat="44.6167633" lon="10.4159117"><ele>185.5</ele><time>2026-04-19T08:30:56.987Z</time></trkpt><trkpt lat="44.616635" lon="10.4158633"><ele>185.0</ele><time>2026-04-19T08:30:57.987Z</time></trkpt><trkpt lat="44.6164983" lon="10.4158167"><ele>184.5</ele><time>2026-04-19T08:30:58.987Z</time></trkpt><trkpt lat="44.6163683" lon="10.4157767"><ele>184.0</ele><time>2026-04-19T08:30:59.987Z</time></trkpt><trkpt lat="44.6162417" lon="10.4157267"><ele>184.75</ele><time>2026-04-19T08:31:00.987Z</time></trkpt><trkpt lat="44.61612" lon="10.415675"><ele>185.5</ele><time>2026-04-19T08:31:01.987Z</time></trkpt><trkpt lat="44.6159883" lon="10.4156317"><ele>186.25</ele><time>2026-04-19T08:31:02.987Z</time></trkpt><trkpt lat="44.615845" lon="10.4156083"><ele>187.0</ele><time>2026-04-19T08:31:03.987Z</time></trkpt><trkpt lat="44.6157017" lon="10.4155717"><ele>187.0</ele><time>2026-04-19T08:31:04.987Z</time></trkpt><trkpt lat="44.6155583" lon="10.415525"><ele>187.0</ele><time>2026-04-19T08:31:05.987Z</time></trkpt><trkpt lat="44.6154183" lon="10.41548"><ele>187.0</ele><time>2026-04-19T08:31:06.987Z</time></trkpt><trkpt lat="44.6152867" lon="10.4154333"><ele>187.0</ele><time>2026-04-19T08:31:07.987Z</time></trkpt><trkpt lat="44.6151783" lon="10.4154083"><ele>187.0</ele><time>2026-04-19T08:31:08.987Z</time></trkpt><trkpt lat="44.6150817" lon="10.4153733"><ele>187.0</ele><time>2026-04-19T08:31:09.987Z</time></trkpt><trkpt lat="44.615005" lon="10.4153333"><ele>187.0</ele><time>2026-04-19T08:31:10.987Z</time></trkpt><trkpt lat="44.6149467" lon="10.41529"><ele>187.0</ele><time>2026-04-19T08:31:11.987Z</time></trkpt><trkpt lat="44.6149317" lon="10.41519"><ele>187.0</ele><time>2026-04-19T08:31:14.987Z</time></trkpt><trkpt lat="44.6149333" lon="10.41502"><ele>187.0</ele><time>2026-04-19T08:31:17.987Z</time></trkpt><trkpt lat="44.61492" lon="10.41492"><ele>187.0</ele><time>2026-04-19T08:31:18.987Z</time></trkpt><trkpt lat="44.61488" lon="10.4148367"><ele>187.0</ele><time>2026-04-19T08:31:19.988Z</time></trkpt><trkpt lat="44.614815" lon="10.414795"><ele>187.0</ele><time>2026-04-19T08:31:20.987Z</time></trkpt><trkpt lat="44.6147383" lon="10.4148067"><ele>187.0</ele><time>2026-04-19T08:31:21.987Z</time></trkpt><trkpt lat="44.6146683" lon="10.414855"><ele>187.0</ele><time>2026-04-19T08:31:22.987Z</time></trkpt><trkpt lat="44.6146283" lon="10.4149467"><ele>187.0</ele><time>2026-04-19T08:31:23.987Z</time></trkpt><trkpt lat="44.6145883" lon="10.4150367"><ele>187.0</ele><time>2026-04-19T08:31:24.987Z</time></trkpt><trkpt lat="44.6145367" lon="10.4151117"><ele>187.0</ele><time>2026-04-19T08:31:25.987Z</time></trkpt><trkpt lat="44.6144633" lon="10.4151617"><ele>187.0</ele><time>2026-04-19T08:31:26.987Z</time></trkpt><trkpt lat="44.6143683" lon="10.4151617"><ele>187.0</ele><time>2026-04-19T08:31:27.987Z</time></trkpt><trkpt lat="44.6142567" lon="10.4151333"><ele>187.0</ele><time>2026-04-19T08:31:28.987Z</time></trkpt><trkpt lat="44.6141433" lon="10.4151083"><ele>187.16666666666669</ele><time>2026-04-19T08:31:29.987Z</time></trkpt><trkpt lat="44.6140417" lon="10.4150733"><ele>187.33333333333334</ele><time>2026-04-19T08:31:30.987Z</time></trkpt><trkpt lat="44.6139533" lon="10.415045"><ele>187.5</ele><time>2026-04-19T08:31:31.987Z</time></trkpt><trkpt lat="44.613875" lon="10.4150217"><ele>187.66666666666666</ele><time>2026-04-19T08:31:32.987Z</time></trkpt><trkpt lat="44.6137967" lon="10.414995"><ele>187.83333333333331</ele><time>2026-04-19T08:31:33.987Z</time></trkpt><trkpt lat="44.6137117" lon="10.41497"><ele>188.0</ele><time>2026-04-19T08:31:34.987Z</time></trkpt><trkpt lat="44.6136117" lon="10.4149417"><ele>188.25</ele><time>2026-04-19T08:31:35.987Z</time></trkpt><trkpt lat="44.6135" lon="10.4149117"><ele>188.5</ele><time>2026-04-19T08:31:36.987Z</time></trkpt><trkpt lat="44.6133783" lon="10.4148783"><ele>188.75</ele><time>2026-04-19T08:31:37.987Z</time></trkpt><trkpt lat="44.6132517" lon="10.414845"><ele>189.0</ele><time>2026-04-19T08:31:38.987Z</time></trkpt><trkpt lat="44.6131283" lon="10.41481"><ele>189.0</ele><time>2026-04-19T08:31:39.987Z</time></trkpt><trkpt lat="44.6130067" lon="10.4147767"><ele>189.0</ele><time>2026-04-19T08:31:40.987Z</time></trkpt><trkpt lat="44.6128867" lon="10.414735"><ele>189.0</ele><time>2026-04-19T08:31:41.988Z</time></trkpt><trkpt lat="44.6127633" lon="10.4147017"><ele>189.0</ele><time>2026-04-19T08:31:42.987Z</time></trkpt><trkpt lat="44.6126383" lon="10.4146683"><ele>189.0</ele><time>2026-04-19T08:31:43.987Z</time></trkpt><trkpt lat="44.61251" lon="10.4146267"><ele>189.0</ele><time>2026-04-19T08:31:44.987Z</time></trkpt><trkpt lat="44.6123733" lon="10.4145933"><ele>189.0</ele><time>2026-04-19T08:31:45.988Z</time></trkpt><trkpt lat="44.61223" lon="10.414555"><ele>189.0</ele><time>2026-04-19T08:31:46.987Z</time></trkpt><trkpt lat="44.6120933" lon="10.41451"><ele>189.5</ele><time>2026-04-19T08:31:47.987Z</time></trkpt><trkpt lat="44.6119583" lon="10.4144683"><ele>190.0</ele><time>2026-04-19T08:31:48.987Z</time></trkpt><trkpt lat="44.611835" lon="10.414435"><ele>190.5</ele><time>2026-04-19T08:31:49.987Z</time></trkpt><trkpt lat="44.6117117" lon="10.414405"><ele>191.0</ele><time>2026-04-19T08:31:50.987Z</time></trkpt><trkpt lat="44.6115917" lon="10.4143733"><ele>191.0</ele><time>2026-04-19T08:31:51.987Z</time></trkpt><trkpt lat="44.611455" lon="10.4143417"><ele>191.0</ele><time>2026-04-19T08:31:52.987Z</time></trkpt><trkpt lat="44.6113233" lon="10.414325"><ele>191.0</ele><time>2026-04-19T08:31:53.987Z</time></trkpt><trkpt lat="44.6112017" lon="10.41432"><ele>191.0</ele><time>2026-04-19T08:31:54.987Z</time></trkpt><trkpt lat="44.6110883" lon="10.414315"><ele>191.0</ele><time>2026-04-19T08:31:55.987Z</time></trkpt><trkpt lat="44.610975" lon="10.4143133"><ele>191.0</ele><time>2026-04-19T08:31:56.987Z</time></trkpt><trkpt lat="44.6108617" lon="10.4143133"><ele>191.0</ele><time>2026-04-19T08:31:57.987Z</time></trkpt><trkpt lat="44.6107483" lon="10.4143233"><ele>191.0</ele><time>2026-04-19T08:31:58.987Z</time></trkpt><trkpt lat="44.610635" lon="10.4143367"><ele>191.0</ele><time>2026-04-19T08:31:59.987Z</time></trkpt><trkpt lat="44.6105117" lon="10.4143517"><ele>191.0</ele><time>2026-04-19T08:32:00.987Z</time></trkpt><trkpt lat="44.6103867" lon="10.41437"><ele>191.0</ele><time>2026-04-19T08:32:01.987Z</time></trkpt><trkpt lat="44.61025" lon="10.4143967"><ele>191.0</ele><time>2026-04-19T08:32:02.987Z</time></trkpt><trkpt lat="44.6100933" lon="10.4144217"><ele>190.0</ele><time>2026-04-19T08:32:03.987Z</time></trkpt><trkpt lat="44.60993" lon="10.414455"><ele>189.0</ele><time>2026-04-19T08:32:04.987Z</time></trkpt><trkpt lat="44.609755" lon="10.4144683"><ele>188.0</ele><time>2026-04-19T08:32:05.987Z</time></trkpt><trkpt lat="44.6095617" lon="10.4144367"><ele>187.66666666666666</ele><time>2026-04-19T08:32:06.987Z</time></trkpt><trkpt lat="44.6093633" lon="10.41437"><ele>187.33333333333334</ele><time>2026-04-19T08:32:07.987Z</time></trkpt><trkpt lat="44.609155" lon="10.414285"><ele>187.0</ele><time>2026-04-19T08:32:08.987Z</time></trkpt><trkpt lat="44.6089383" lon="10.4141983"><ele>187.0</ele><time>2026-04-19T08:32:09.987Z</time></trkpt><trkpt lat="44.6087333" lon="10.4141233"><ele>187.0</ele><time>2026-04-19T08:32:10.987Z</time></trkpt><trkpt lat="44.6085433" lon="10.4140583"><ele>187.0</ele><time>2026-04-19T08:32:11.987Z</time></trkpt><trkpt lat="44.6083683" lon="10.4139917"><ele>188.33333333333334</ele><time>2026-04-19T08:32:12.987Z</time></trkpt><trkpt lat="44.6082" lon="10.413935"><ele>189.66666666666666</ele><time>2026-04-19T08:32:13.987Z</time></trkpt><trkpt lat="44.6080417" lon="10.4138733"><ele>191.0</ele><time>2026-04-19T08:32:14.988Z</time></trkpt><trkpt lat="44.6078917" lon="10.4138117"><ele>192.0</ele><time>2026-04-19T08:32:15.987Z</time></trkpt><trkpt lat="44.607745" lon="10.413755"><ele>193.0</ele><time>2026-04-19T08:32:16.987Z</time></trkpt><trkpt lat="44.6076017" lon="10.41371"><ele>194.0</ele><time>2026-04-19T08:32:17.987Z</time></trkpt><trkpt lat="44.6074617" lon="10.4136683"><ele>195.0</ele><time>2026-04-19T08:32:18.987Z</time></trkpt><trkpt lat="44.6073417" lon="10.4136217"><ele>195.0</ele><time>2026-04-19T08:32:19.987Z</time></trkpt><trkpt lat="44.60723" lon="10.4135833"><ele>195.0</ele><time>2026-04-19T08:32:20.987Z</time></trkpt><trkpt lat="44.607125" lon="10.4135567"><ele>195.0</ele><time>2026-04-19T08:32:21.987Z</time></trkpt><trkpt lat="44.6070233" lon="10.41353"><ele>195.0</ele><time>2026-04-19T08:32:22.987Z</time></trkpt><trkpt lat="44.6069317" lon="10.4134883"><ele>195.0</ele><time>2026-04-19T08:32:23.987Z</time></trkpt><trkpt lat="44.606845" lon="10.41342"><ele>195.4</ele><time>2026-04-19T08:32:24.987Z</time></trkpt><trkpt lat="44.6067583" lon="10.4133517"><ele>195.8</ele><time>2026-04-19T08:32:25.987Z</time></trkpt><trkpt lat="44.60667" lon="10.413315"><ele>196.2</ele><time>2026-04-19T08:32:26.987Z</time></trkpt><trkpt lat="44.6065817" lon="10.41331"><ele>196.6</ele><time>2026-04-19T08:32:27.987Z</time></trkpt><trkpt lat="44.6064883" lon="10.4133217"><ele>197.0</ele><time>2026-04-19T08:32:28.987Z</time></trkpt><trkpt lat="44.6063817" lon="10.4133317"><ele>197.0</ele><time>2026-04-19T08:32:29.987Z</time></trkpt><trkpt lat="44.60626" lon="10.4133167"><ele>197.0</ele><time>2026-04-19T08:32:30.987Z</time></trkpt><trkpt lat="44.6061317" lon="10.4132783"><ele>197.0</ele><time>2026-04-19T08:32:31.987Z</time></trkpt><trkpt lat="44.606" lon="10.4132383"><ele>197.0</ele><time>2026-04-19T08:32:32.987Z</time></trkpt><trkpt lat="44.60587" lon="10.4132033"><ele>197.5</ele><time>2026-04-19T08:32:33.987Z</time></trkpt><trkpt lat="44.605735" lon="10.413165"><ele>198.0</ele><time>2026-04-19T08:32:34.987Z</time></trkpt><trkpt lat="44.605595" lon="10.4131417"><ele>198.5</ele><time>2026-04-19T08:32:35.987Z</time></trkpt><trkpt lat="44.6054517" lon="10.4131117"><ele>199.0</ele><time>2026-04-19T08:32:36.987Z</time></trkpt><trkpt lat="44.60531" lon="10.4130617"><ele>199.0</ele><time>2026-04-19T08:32:37.987Z</time></trkpt><trkpt lat="44.60517" lon="10.413005"><ele>199.0</ele><time>2026-04-19T08:32:38.987Z</time></trkpt><trkpt lat="44.60503" lon="10.4129567"><ele>199.0</ele><time>2026-04-19T08:32:39.987Z</time></trkpt><trkpt lat="44.6048933" lon="10.4129217"><ele>199.0</ele><time>2026-04-19T08:32:40.987Z</time></trkpt><trkpt lat="44.6047533" lon="10.4128833"><ele>199.0</ele><time>2026-04-19T08:32:41.987Z</time></trkpt><trkpt lat="44.604625" lon="10.41285"><ele>199.0</ele><time>2026-04-19T08:32:42.987Z</time></trkpt><trkpt lat="44.6044917" lon="10.4128183"><ele>199.0</ele><time>2026-04-19T08:32:43.987Z</time></trkpt><trkpt lat="44.604365" lon="10.4127867"><ele>199.0</ele><time>2026-04-19T08:32:44.987Z</time></trkpt><trkpt lat="44.6042483" lon="10.4127517"><ele>199.25</ele><time>2026-04-19T08:32:45.987Z</time></trkpt><trkpt lat="44.6041267" lon="10.4127183"><ele>199.5</ele><time>2026-04-19T08:32:46.987Z</time></trkpt><trkpt lat="44.6040067" lon="10.4126967"><ele>199.75</ele><time>2026-04-19T08:32:47.987Z</time></trkpt><trkpt lat="44.6038883" lon="10.4126717"><ele>200.0</ele><time>2026-04-19T08:32:48.987Z</time></trkpt><trkpt lat="44.603775" lon="10.4126533"><ele>200.0</ele><time>2026-04-19T08:32:49.987Z</time></trkpt><trkpt lat="44.6036667" lon="10.4126333"><ele>200.0</ele><time>2026-04-19T08:32:50.987Z</time></trkpt><trkpt lat="44.6035567" lon="10.41262"><ele>200.0</ele><time>2026-04-19T08:32:51.987Z</time></trkpt><trkpt lat="44.603445" lon="10.4126117"><ele>200.0</ele><time>2026-04-19T08:32:52.987Z</time></trkpt><trkpt lat="44.6033217" lon="10.4126033"><ele>201.0</ele><time>2026-04-19T08:32:53.987Z</time></trkpt><trkpt lat="44.60318" lon="10.4125917"><ele>202.0</ele><time>2026-04-19T08:32:54.987Z</time></trkpt><trkpt lat="44.603025" lon="10.412585"><ele>203.0</ele><time>2026-04-19T08:32:55.987Z</time></trkpt><trkpt lat="44.6028583" lon="10.4125733"><ele>202.33333333333334</ele><time>2026-04-19T08:32:56.987Z</time></trkpt><trkpt lat="44.6026783" lon="10.4125617"><ele>201.66666666666669</ele><time>2026-04-19T08:32:57.987Z</time></trkpt><trkpt lat="44.6025133" lon="10.41255"><ele>201.0</ele><time>2026-04-19T08:32:58.987Z</time></trkpt><trkpt lat="44.6023517" lon="10.412545"><ele>201.0</ele><time>2026-04-19T08:32:59.987Z</time></trkpt><trkpt lat="44.6022017" lon="10.412545"><ele>201.0</ele><time>2026-04-19T08:33:00.987Z</time></trkpt><trkpt lat="44.6020617" lon="10.4125467"><ele>201.0</ele><time>2026-04-19T08:33:01.987Z</time></trkpt><trkpt lat="44.6019383" lon="10.4125467"><ele>201.0</ele><time>2026-04-19T08:33:02.987Z</time></trkpt><trkpt lat="44.6018233" lon="10.41256"><ele>200.0</ele><time>2026-04-19T08:33:03.987Z</time></trkpt><trkpt lat="44.601715" lon="10.41258"><ele>199.0</ele><time>2026-04-19T08:33:04.988Z</time></trkpt><trkpt lat="44.6016083" lon="10.412605"><ele>198.0</ele><time>2026-04-19T08:33:05.987Z</time></trkpt><trkpt lat="44.6014983" lon="10.41263"><ele>197.0</ele><time>2026-04-19T08:33:06.987Z</time></trkpt><trkpt lat="44.601395" lon="10.412655"><ele>196.0</ele><time>2026-04-19T08:33:07.987Z</time></trkpt><trkpt lat="44.601295" lon="10.4126817"><ele>196.0</ele><time>2026-04-19T08:33:08.987Z</time></trkpt><trkpt lat="44.6011983" lon="10.412705"><ele>196.0</ele><time>2026-04-19T08:33:09.987Z</time></trkpt><trkpt lat="44.601105" lon="10.4127233"><ele>196.0</ele><time>2026-04-19T08:33:10.987Z</time></trkpt><trkpt lat="44.6010017" lon="10.412715"><ele>196.0</ele><time>2026-04-19T08:33:11.987Z</time></trkpt><trkpt lat="44.6009033" lon="10.4126817"><ele>196.0</ele><time>2026-04-19T08:33:12.987Z</time></trkpt><trkpt lat="44.6008083" lon="10.41264"><ele>196.33333333333331</ele><time>2026-04-19T08:33:13.987Z</time></trkpt><trkpt lat="44.6007233" lon="10.412575"><ele>196.66666666666666</ele><time>2026-04-19T08:33:14.987Z</time></trkpt><trkpt lat="44.6006417" lon="10.4125133"><ele>197.0</ele><time>2026-04-19T08:33:15.987Z</time></trkpt><trkpt lat="44.60057" lon="10.4124417"><ele>197.33333333333331</ele><time>2026-04-19T08:33:16.987Z</time></trkpt><trkpt lat="44.6004933" lon="10.4123917"><ele>197.66666666666666</ele><time>2026-04-19T08:33:17.987Z</time></trkpt><trkpt lat="44.6004283" lon="10.4123333"><ele>198.0</ele><time>2026-04-19T08:33:18.987Z</time></trkpt><trkpt lat="44.60036" lon="10.4122817"><ele>198.5</ele><time>2026-04-19T08:33:19.987Z</time></trkpt><trkpt lat="44.6002883" lon="10.412225"><ele>199.0</ele><time>2026-04-19T08:33:20.987Z</time></trkpt><trkpt lat="44.6002317" lon="10.41216"><ele>199.5</ele><time>2026-04-19T08:33:21.987Z</time></trkpt><trkpt lat="44.60017" lon="10.41212"><ele>200.0</ele><time>2026-04-19T08:33:22.987Z</time></trkpt><trkpt lat="44.600095" lon="10.412105"><ele>200.5</ele><time>2026-04-19T08:33:23.987Z</time></trkpt><trkpt lat="44.6000267" lon="10.4121117"><ele>201.0</ele><time>2026-04-19T08:33:24.987Z</time></trkpt><trkpt lat="44.5999367" lon="10.4121583"><ele>201.0</ele><time>2026-04-19T08:33:25.988Z</time></trkpt><trkpt lat="44.5998533" lon="10.4121817"><ele>201.0</ele><time>2026-04-19T08:33:26.987Z</time></trkpt><trkpt lat="44.599745" lon="10.4121483"><ele>201.0</ele><time>2026-04-19T08:33:27.987Z</time></trkpt><trkpt lat="44.5996333" lon="10.412055"><ele>201.0</ele><time>2026-04-19T08:33:28.987Z</time></trkpt><trkpt lat="44.59951" lon="10.4119483"><ele>202.33333333333331</ele><time>2026-04-19T08:33:29.987Z</time></trkpt><trkpt lat="44.5993767" lon="10.4118217"><ele>203.66666666666666</ele><time>2026-04-19T08:33:30.987Z</time></trkpt><trkpt lat="44.5992383" lon="10.4117133"><ele>205.0</ele><time>2026-04-19T08:33:31.987Z</time></trkpt><trkpt lat="44.599115" lon="10.4116083"><ele>205.0</ele><time>2026-04-19T08:33:32.987Z</time></trkpt><trkpt lat="44.5989983" lon="10.411505"><ele>205.0</ele><time>2026-04-19T08:33:33.987Z</time></trkpt><trkpt lat="44.5988783" lon="10.4114067"><ele>205.0</ele><time>2026-04-19T08:33:34.987Z</time></trkpt><trkpt lat="44.5987517" lon="10.4112917"><ele>205.0</ele><time>2026-04-19T08:33:35.987Z</time></trkpt><trkpt lat="44.5986183" lon="10.4111667"><ele>205.33333333333331</ele><time>2026-04-19T08:33:36.987Z</time></trkpt><trkpt lat="44.5984617" lon="10.4110417"><ele>205.66666666666669</ele><time>2026-04-19T08:33:37.987Z</time></trkpt><trkpt lat="44.59829" lon="10.41092"><ele>206.0</ele><time>2026-04-19T08:33:38.987Z</time></trkpt><trkpt lat="44.5981083" lon="10.4108"><ele>206.0</ele><time>2026-04-19T08:33:39.987Z</time></trkpt><trkpt lat="44.5979167" lon="10.41067"><ele>206.0</ele><time>2026-04-19T08:33:40.987Z</time></trkpt><trkpt lat="44.5977367" lon="10.41054"><ele>206.0</ele><time>2026-04-19T08:33:41.988Z</time></trkpt><trkpt lat="44.5975667" lon="10.4104217"><ele>206.33333333333334</ele><time>2026-04-19T08:33:42.987Z</time></trkpt><trkpt lat="44.597405" lon="10.4103067"><ele>206.66666666666669</ele><time>2026-04-19T08:33:43.987Z</time></trkpt><trkpt lat="44.5972433" lon="10.4101967"><ele>207.0</ele><time>2026-04-19T08:33:44.987Z</time></trkpt><trkpt lat="44.59709" lon="10.4100867"><ele>207.75</ele><time>2026-04-19T08:33:45.987Z</time></trkpt><trkpt lat="44.596945" lon="10.4100067"><ele>208.5</ele><time>2026-04-19T08:33:46.987Z</time></trkpt><trkpt lat="44.59682" lon="10.4099167"><ele>209.25</ele><time>2026-04-19T08:33:47.987Z</time></trkpt><trkpt lat="44.596685" lon="10.409835"><ele>210.0</ele><time>2026-04-19T08:33:48.987Z</time></trkpt><trkpt lat="44.5965383" lon="10.409755"><ele>210.0</ele><time>2026-04-19T08:33:49.987Z</time></trkpt><trkpt lat="44.5963917" lon="10.40966"><ele>210.0</ele><time>2026-04-19T08:33:50.987Z</time></trkpt><trkpt lat="44.5962433" lon="10.4095633"><ele>210.0</ele><time>2026-04-19T08:33:51.987Z</time></trkpt><trkpt lat="44.5961083" lon="10.4094683"><ele>209.75</ele><time>2026-04-19T08:33:52.987Z</time></trkpt><trkpt lat="44.59598" lon="10.4093767"><ele>209.5</ele><time>2026-04-19T08:33:53.987Z</time></trkpt><trkpt lat="44.5958617" lon="10.4092983"><ele>209.25</ele><time>2026-04-19T08:33:54.987Z</time></trkpt><trkpt lat="44.595745" lon="10.40922"><ele>209.0</ele><time>2026-04-19T08:33:55.987Z</time></trkpt><trkpt lat="44.5956267" lon="10.409135"><ele>209.0</ele><time>2026-04-19T08:33:56.987Z</time></trkpt><trkpt lat="44.5955033" lon="10.409055"><ele>209.0</ele><time>2026-04-19T08:33:57.987Z</time></trkpt><trkpt lat="44.59538" lon="10.408975"><ele>209.0</ele><time>2026-04-19T08:33:58.987Z</time></trkpt><trkpt lat="44.5952533" lon="10.4088983"><ele>209.0</ele><time>2026-04-19T08:33:59.987Z</time></trkpt><trkpt lat="44.59514" lon="10.40882"><ele>209.5</ele><time>2026-04-19T08:34:00.987Z</time></trkpt><trkpt lat="44.5950283" lon="10.4087383"><ele>210.0</ele><time>2026-04-19T08:34:01.987Z</time></trkpt><trkpt lat="44.59491" lon="10.4086667"><ele>210.5</ele><time>2026-04-19T08:34:02.987Z</time></trkpt><trkpt lat="44.5947983" lon="10.4086033"><ele>211.0</ele><time>2026-04-19T08:34:03.987Z</time></trkpt><trkpt lat="44.594695" lon="10.4085483"><ele>211.0</ele><time>2026-04-19T08:34:04.987Z</time></trkpt><trkpt lat="44.5946033" lon="10.4084967"><ele>211.0</ele><time>2026-04-19T08:34:05.987Z</time></trkpt><trkpt lat="44.5945133" lon="10.40845"><ele>211.0</ele><time>2026-04-19T08:34:06.987Z</time></trkpt><trkpt lat="44.5944233" lon="10.40841"><ele>211.0</ele><time>2026-04-19T08:34:07.987Z</time></trkpt><trkpt lat="44.5943417" lon="10.4083783"><ele>211.0</ele><time>2026-04-19T08:34:08.987Z</time></trkpt><trkpt lat="44.594265" lon="10.4083467"><ele>211.66666666666666</ele><time>2026-04-19T08:34:09.987Z</time></trkpt><trkpt lat="44.5941933" lon="10.40832"><ele>212.33333333333331</ele><time>2026-04-19T08:34:10.987Z</time></trkpt><trkpt lat="44.5941067" lon="10.4082983"><ele>213.0</ele><time>2026-04-19T08:34:11.987Z</time></trkpt><trkpt lat="44.594025" lon="10.40828"><ele>213.66666666666669</ele><time>2026-04-19T08:34:12.987Z</time></trkpt><trkpt lat="44.593945" lon="10.4082533"><ele>214.33333333333334</ele><time>2026-04-19T08:34:13.987Z</time></trkpt><trkpt lat="44.5938567" lon="10.4082367"><ele>215.0</ele><time>2026-04-19T08:34:14.987Z</time></trkpt><trkpt lat="44.5937667" lon="10.4082317"><ele>215.00000000000003</ele><time>2026-04-19T08:34:15.987Z</time></trkpt><trkpt lat="44.5936783" lon="10.4082133"><ele>215.0</ele><time>2026-04-19T08:34:16.987Z</time></trkpt><trkpt lat="44.5935983" lon="10.4082033"><ele>215.0</ele><time>2026-04-19T08:34:17.987Z</time></trkpt><trkpt lat="44.593515" lon="10.4081933"><ele>215.0</ele><time>2026-04-19T08:34:18.987Z</time></trkpt><trkpt lat="44.59343" lon="10.4081833"><ele>215.00000000000003</ele><time>2026-04-19T08:34:19.987Z</time></trkpt><trkpt lat="44.59335" lon="10.4081717"><ele>215.0</ele><time>2026-04-19T08:34:20.987Z</time></trkpt><trkpt lat="44.5932633" lon="10.4081667"><ele>215.50000000000003</ele><time>2026-04-19T08:34:21.987Z</time></trkpt><trkpt lat="44.5931917" lon="10.4081233"><ele>216.0</ele><time>2026-04-19T08:34:22.987Z</time></trkpt><trkpt lat="44.5931033" lon="10.4081033"><ele>216.5</ele><time>2026-04-19T08:34:23.987Z</time></trkpt><trkpt lat="44.5930317" lon="10.4080933"><ele>217.0</ele><time>2026-04-19T08:34:24.987Z</time></trkpt><trkpt lat="44.5929617" lon="10.408085"><ele>217.50000000000003</ele><time>2026-04-19T08:34:25.987Z</time></trkpt><trkpt lat="44.5928867" lon="10.40808"><ele>218.0</ele><time>2026-04-19T08:34:26.987Z</time></trkpt><trkpt lat="44.5928017" lon="10.4080467"><ele>217.83333333333334</ele><time>2026-04-19T08:34:27.987Z</time></trkpt><trkpt lat="44.5927233" lon="10.4080183"><ele>217.66666666666669</ele><time>2026-04-19T08:34:28.987Z</time></trkpt><trkpt lat="44.59265" lon="10.4079833"><ele>217.5</ele><time>2026-04-19T08:34:29.987Z</time></trkpt><trkpt lat="44.5925833" lon="10.40793"><ele>217.33333333333331</ele><time>2026-04-19T08:34:30.987Z</time></trkpt><trkpt lat="44.5925117" lon="10.4078633"><ele>217.16666666666666</ele><time>2026-04-19T08:34:31.987Z</time></trkpt><trkpt lat="44.5924483" lon="10.4077933"><ele>217.0</ele><time>2026-04-19T08:34:32.987Z</time></trkpt><trkpt lat="44.5923833" lon="10.4077267"><ele>217.0</ele><time>2026-04-19T08:34:33.987Z</time></trkpt><trkpt lat="44.5923183" lon="10.4076517"><ele>217.0</ele><time>2026-04-19T08:34:34.987Z</time></trkpt><trkpt lat="44.5922383" lon="10.407585"><ele>217.0</ele><time>2026-04-19T08:34:35.987Z</time></trkpt><trkpt lat="44.5921533" lon="10.40749"><ele>217.0</ele><time>2026-04-19T08:34:36.987Z</time></trkpt><trkpt lat="44.59205" lon="10.40741"><ele>217.0</ele><time>2026-04-19T08:34:37.987Z</time></trkpt><trkpt lat="44.59194" lon="10.407345"><ele>216.75</ele><time>2026-04-19T08:34:38.987Z</time></trkpt><trkpt lat="44.591825" lon="10.4072867"><ele>216.5</ele><time>2026-04-19T08:34:39.987Z</time></trkpt><trkpt lat="44.59171" lon="10.40723"><ele>216.25</ele><time>2026-04-19T08:34:40.987Z</time></trkpt><trkpt lat="44.5915983" lon="10.407185"><ele>216.0</ele><time>2026-04-19T08:34:41.987Z</time></trkpt><trkpt lat="44.591495" lon="10.4071383"><ele>213.5</ele><time>2026-04-19T08:34:42.987Z</time></trkpt><trkpt lat="44.5913833" lon="10.40711"><ele>211.0</ele><time>2026-04-19T08:34:43.987Z</time></trkpt><trkpt lat="44.5912683" lon="10.4070767"><ele>208.5</ele><time>2026-04-19T08:34:44.987Z</time></trkpt><trkpt lat="44.591145" lon="10.40705"><ele>206.0</ele><time>2026-04-19T08:34:45.987Z</time></trkpt><trkpt lat="44.5910017" lon="10.4070183"><ele>206.0</ele><time>2026-04-19T08:34:46.987Z</time></trkpt><trkpt lat="44.59086" lon="10.4069583"><ele>206.0</ele><time>2026-04-19T08:34:47.987Z</time></trkpt><trkpt lat="44.590725" lon="10.4068733"><ele>206.0</ele><time>2026-04-19T08:34:48.987Z</time></trkpt><trkpt lat="44.5905817" lon="10.4067783"><ele>206.0</ele><time>2026-04-19T08:34:49.987Z</time></trkpt><trkpt lat="44.5904317" lon="10.4066917"><ele>206.0</ele><time>2026-04-19T08:34:50.987Z</time></trkpt><trkpt lat="44.59029" lon="10.4065683"><ele>206.0</ele><time>2026-04-19T08:34:51.987Z</time></trkpt><trkpt lat="44.5901367" lon="10.4064767"><ele>207.66666666666669</ele><time>2026-04-19T08:34:52.987Z</time></trkpt><trkpt lat="44.5899917" lon="10.4063767"><ele>209.33333333333331</ele><time>2026-04-19T08:34:53.987Z</time></trkpt><trkpt lat="44.589845" lon="10.4062983"><ele>211.0</ele><time>2026-04-19T08:34:54.987Z</time></trkpt><trkpt lat="44.5896883" lon="10.40623"><ele>207.0</ele><time>2026-04-19T08:34:55.988Z</time></trkpt><trkpt lat="44.5895267" lon="10.406175"><ele>203.0</ele><time>2026-04-19T08:34:56.987Z</time></trkpt><trkpt lat="44.589355" lon="10.4061283"><ele>199.0</ele><time>2026-04-19T08:34:57.987Z</time></trkpt><trkpt lat="44.5891767" lon="10.4061067"><ele>199.0</ele><time>2026-04-19T08:34:58.987Z</time></trkpt><trkpt lat="44.589005" lon="10.4060983"><ele>199.0</ele><time>2026-04-19T08:34:59.987Z</time></trkpt><trkpt lat="44.5888267" lon="10.4060967"><ele>199.0</ele><time>2026-04-19T08:35:00.987Z</time></trkpt><trkpt lat="44.58865" lon="10.40609"><ele>199.33333333333331</ele><time>2026-04-19T08:35:01.987Z</time></trkpt><trkpt lat="44.58848" lon="10.4060867"><ele>199.66666666666669</ele><time>2026-04-19T08:35:02.987Z</time></trkpt><trkpt lat="44.588315" lon="10.40608"><ele>200.0</ele><time>2026-04-19T08:35:03.987Z</time></trkpt><trkpt lat="44.5881517" lon="10.406065"><ele>200.0</ele><time>2026-04-19T08:35:04.988Z</time></trkpt><trkpt lat="44.58799" lon="10.4060517"><ele>200.0</ele><time>2026-04-19T08:35:05.987Z</time></trkpt><trkpt lat="44.5878383" lon="10.4060217"><ele>200.0</ele><time>2026-04-19T08:35:06.987Z</time></trkpt><trkpt lat="44.5876983" lon="10.4059833"><ele>202.0</ele><time>2026-04-19T08:35:07.987Z</time></trkpt><trkpt lat="44.5875567" lon="10.4059117"><ele>204.0</ele><time>2026-04-19T08:35:08.987Z</time></trkpt><trkpt lat="44.5874183" lon="10.405795"><ele>206.0</ele><time>2026-04-19T08:35:09.987Z</time></trkpt><trkpt lat="44.587285" lon="10.405665"><ele>206.0</ele><time>2026-04-19T08:35:10.987Z</time></trkpt><trkpt lat="44.5871417" lon="10.40553"><ele>206.0</ele><time>2026-04-19T08:35:11.987Z</time></trkpt><trkpt lat="44.587" lon="10.4054133"><ele>206.0</ele><time>2026-04-19T08:35:12.987Z</time></trkpt><trkpt lat="44.5868467" lon="10.4053467"><ele>203.66666666666669</ele><time>2026-04-19T08:35:13.987Z</time></trkpt><trkpt lat="44.586685" lon="10.40535"><ele>201.33333333333331</ele><time>2026-04-19T08:35:14.988Z</time></trkpt><trkpt lat="44.58651" lon="10.4053917"><ele>199.0</ele><time>2026-04-19T08:35:15.987Z</time></trkpt><trkpt lat="44.586335" lon="10.4054433"><ele>202.33333333333331</ele><time>2026-04-19T08:35:16.987Z</time></trkpt><trkpt lat="44.5861483" lon="10.40551"><ele>205.66666666666669</ele><time>2026-04-19T08:35:17.987Z</time></trkpt><trkpt lat="44.5859467" lon="10.4055633"><ele>209.0</ele><time>2026-04-19T08:35:18.987Z</time></trkpt><trkpt lat="44.5857417" lon="10.4055817"><ele>209.0</ele><time>2026-04-19T08:35:19.987Z</time></trkpt><trkpt lat="44.5855333" lon="10.405565"><ele>209.0</ele><time>2026-04-19T08:35:20.987Z</time></trkpt><trkpt lat="44.5853217" lon="10.4055317"><ele>209.0</ele><time>2026-04-19T08:35:21.987Z</time></trkpt><trkpt lat="44.5851083" lon="10.40549"><ele>207.0</ele><time>2026-04-19T08:35:22.987Z</time></trkpt><trkpt lat="44.584905" lon="10.405475"><ele>205.0</ele><time>2026-04-19T08:35:23.987Z</time></trkpt><trkpt lat="44.584705" lon="10.40547"><ele>203.0</ele><time>2026-04-19T08:35:24.987Z</time></trkpt><trkpt lat="44.584515" lon="10.4054583"><ele>203.0</ele><time>2026-04-19T08:35:25.987Z</time></trkpt><trkpt lat="44.5843433" lon="10.4054233"><ele>203.0</ele><time>2026-04-19T08:35:26.987Z</time></trkpt><trkpt lat="44.5841767" lon="10.4053533"><ele>203.0</ele><time>2026-04-19T08:35:27.987Z</time></trkpt><trkpt lat="44.584015" lon="10.40525"><ele>203.0</ele><time>2026-04-19T08:35:28.987Z</time></trkpt><trkpt lat="44.5838583" lon="10.405115"><ele>203.0</ele><time>2026-04-19T08:35:29.987Z</time></trkpt><trkpt lat="44.5836883" lon="10.4049867"><ele>203.0</ele><time>2026-04-19T08:35:30.987Z</time></trkpt><trkpt lat="44.5835083" lon="10.4048883"><ele>204.66666666666669</ele><time>2026-04-19T08:35:31.987Z</time></trkpt><trkpt lat="44.583315" lon="10.4048167"><ele>206.33333333333331</ele><time>2026-04-19T08:35:32.987Z</time></trkpt><trkpt lat="44.5831167" lon="10.4047833"><ele>208.0</ele><time>2026-04-19T08:35:33.987Z</time></trkpt><trkpt lat="44.5829183" lon="10.404785"><ele>209.33333333333331</ele><time>2026-04-19T08:35:34.987Z</time></trkpt><trkpt lat="44.5827133" lon="10.404805"><ele>210.66666666666669</ele><time>2026-04-19T08:35:35.987Z</time></trkpt><trkpt lat="44.58251" lon="10.4048267"><ele>212.0</ele><time>2026-04-19T08:35:36.987Z</time></trkpt><trkpt lat="44.58231" lon="10.40482"><ele>212.0</ele><time>2026-04-19T08:35:37.987Z</time></trkpt><trkpt lat="44.5821117" lon="10.4048017"><ele>212.0</ele><time>2026-04-19T08:35:38.987Z</time></trkpt><trkpt lat="44.5819183" lon="10.40478"><ele>212.0</ele><time>2026-04-19T08:35:39.987Z</time></trkpt><trkpt lat="44.5817333" lon="10.40475"><ele>213.0</ele><time>2026-04-19T08:35:40.987Z</time></trkpt><trkpt lat="44.5815633" lon="10.404725"><ele>214.0</ele><time>2026-04-19T08:35:41.987Z</time></trkpt><trkpt lat="44.5813967" lon="10.404705"><ele>215.0</ele><time>2026-04-19T08:35:42.987Z</time></trkpt><trkpt lat="44.5812333" lon="10.4046683"><ele>213.33333333333334</ele><time>2026-04-19T08:35:43.987Z</time></trkpt><trkpt lat="44.58107" lon="10.4046083"><ele>211.66666666666669</ele><time>2026-04-19T08:35:44.987Z</time></trkpt><trkpt lat="44.5809017" lon="10.4045233"><ele>210.0</ele><time>2026-04-19T08:35:45.987Z</time></trkpt><trkpt lat="44.5807267" lon="10.4044117"><ele>210.0</ele><time>2026-04-19T08:35:46.987Z</time></trkpt><trkpt lat="44.5805333" lon="10.4042867"><ele>210.0</ele><time>2026-04-19T08:35:47.987Z</time></trkpt><trkpt lat="44.5803283" lon="10.40416"><ele>210.0</ele><time>2026-04-19T08:35:48.987Z</time></trkpt><trkpt lat="44.5801233" lon="10.4040283"><ele>211.66666666666669</ele><time>2026-04-19T08:35:49.987Z</time></trkpt><trkpt lat="44.57992" lon="10.4039017"><ele>213.33333333333334</ele><time>2026-04-19T08:35:50.987Z</time></trkpt><trkpt lat="44.579735" lon="10.4037717"><ele>215.0</ele><time>2026-04-19T08:35:51.987Z</time></trkpt><trkpt lat="44.5795717" lon="10.403655"><ele>211.66666666666669</ele><time>2026-04-19T08:35:52.987Z</time></trkpt><trkpt lat="44.5794267" lon="10.403545"><ele>208.33333333333331</ele><time>2026-04-19T08:35:53.987Z</time></trkpt><trkpt lat="44.579295" lon="10.4034533"><ele>205.0</ele><time>2026-04-19T08:35:54.987Z</time></trkpt><trkpt lat="44.57917" lon="10.403355"><ele>205.0</ele><time>2026-04-19T08:35:55.987Z</time></trkpt><trkpt lat="44.5790533" lon="10.4032883"><ele>205.0</ele><time>2026-04-19T08:35:56.987Z</time></trkpt><trkpt lat="44.5789467" lon="10.4032167"><ele>205.0</ele><time>2026-04-19T08:35:57.987Z</time></trkpt><trkpt lat="44.578845" lon="10.4031533"><ele>205.0</ele><time>2026-04-19T08:35:58.987Z</time></trkpt><trkpt lat="44.5787433" lon="10.40311"><ele>205.6</ele><time>2026-04-19T08:35:59.987Z</time></trkpt><trkpt lat="44.5786367" lon="10.4030767"><ele>206.2</ele><time>2026-04-19T08:36:00.987Z</time></trkpt><trkpt lat="44.5785333" lon="10.4030567"><ele>206.8</ele><time>2026-04-19T08:36:01.988Z</time></trkpt><trkpt lat="44.5784283" lon="10.4030583"><ele>207.4</ele><time>2026-04-19T08:36:02.987Z</time></trkpt><trkpt lat="44.578325" lon="10.40307"><ele>208.0</ele><time>2026-04-19T08:36:03.987Z</time></trkpt><trkpt lat="44.5782133" lon="10.40309"><ele>208.0</ele><time>2026-04-19T08:36:04.987Z</time></trkpt><trkpt lat="44.5781017" lon="10.403105"><ele>208.0</ele><time>2026-04-19T08:36:05.987Z</time></trkpt><trkpt lat="44.5779933" lon="10.403135"><ele>208.0</ele><time>2026-04-19T08:36:06.987Z</time></trkpt><trkpt lat="44.5778883" lon="10.40316"><ele>208.0</ele><time>2026-04-19T08:36:07.987Z</time></trkpt><trkpt lat="44.577785" lon="10.4031867"><ele>208.0</ele><time>2026-04-19T08:36:08.987Z</time></trkpt><trkpt lat="44.5776833" lon="10.40323"><ele>207.25</ele><time>2026-04-19T08:36:09.987Z</time></trkpt><trkpt lat="44.5775817" lon="10.40329"><ele>206.5</ele><time>2026-04-19T08:36:10.987Z</time></trkpt><trkpt lat="44.5774833" lon="10.4033717"><ele>205.75</ele><time>2026-04-19T08:36:11.987Z</time></trkpt><trkpt lat="44.5773867" lon="10.4034733"><ele>205.0</ele><time>2026-04-19T08:36:12.987Z</time></trkpt><trkpt lat="44.5772783" lon="10.4035967"><ele>205.0</ele><time>2026-04-19T08:36:13.987Z</time></trkpt><trkpt lat="44.5771583" lon="10.4037167"><ele>205.0</ele><time>2026-04-19T08:36:14.987Z</time></trkpt><trkpt lat="44.577025" lon="10.40385"><ele>205.0</ele><time>2026-04-19T08:36:15.987Z</time></trkpt><trkpt lat="44.57688" lon="10.4039783"><ele>208.33333333333331</ele><time>2026-04-19T08:36:16.987Z</time></trkpt><trkpt lat="44.5767083" lon="10.4040883"><ele>211.66666666666669</ele><time>2026-04-19T08:36:17.987Z</time></trkpt><trkpt lat="44.5765233" lon="10.4041733"><ele>215.0</ele><time>2026-04-19T08:36:18.987Z</time></trkpt><trkpt lat="44.5763233" lon="10.4042483"><ele>213.0</ele><time>2026-04-19T08:36:19.987Z</time></trkpt><trkpt lat="44.5761083" lon="10.4043067"><ele>211.0</ele><time>2026-04-19T08:36:20.987Z</time></trkpt><trkpt lat="44.5758867" lon="10.4043617"><ele>209.0</ele><time>2026-04-19T08:36:21.987Z</time></trkpt><trkpt lat="44.5756517" lon="10.4044083"><ele>209.0</ele><time>2026-04-19T08:36:22.988Z</time></trkpt><trkpt lat="44.5754283" lon="10.404465"><ele>209.0</ele><time>2026-04-19T08:36:23.987Z</time></trkpt><trkpt lat="44.5752117" lon="10.4045183"><ele>209.0</ele><time>2026-04-19T08:36:24.987Z</time></trkpt><trkpt lat="44.575005" lon="10.404565"><ele>209.0</ele><time>2026-04-19T08:36:25.987Z</time></trkpt><trkpt lat="44.5748133" lon="10.40462"><ele>209.0</ele><time>2026-04-19T08:36:26.987Z</time></trkpt><trkpt lat="44.5746317" lon="10.4046933"><ele>209.0</ele><time>2026-04-19T08:36:27.987Z</time></trkpt><trkpt lat="44.5744667" lon="10.4047917"><ele>210.0</ele><time>2026-04-19T08:36:28.987Z</time></trkpt><trkpt lat="44.57433" lon="10.4049167"><ele>211.0</ele><time>2026-04-19T08:36:29.987Z</time></trkpt><trkpt lat="44.5742183" lon="10.4050683"><ele>212.0</ele><time>2026-04-19T08:36:30.987Z</time></trkpt><trkpt lat="44.57411" lon="10.4052433"><ele>212.0</ele><time>2026-04-19T08:36:31.987Z</time></trkpt><trkpt lat="44.5740017" lon="10.4054067"><ele>212.0</ele><time>2026-04-19T08:36:32.987Z</time></trkpt><trkpt lat="44.573885" lon="10.4055433"><ele>212.0</ele><time>2026-04-19T08:36:33.987Z</time></trkpt><trkpt lat="44.57375" lon="10.4056417"><ele>212.0</ele><time>2026-04-19T08:36:34.987Z</time></trkpt><trkpt lat="44.5736" lon="10.4057333"><ele>212.0</ele><time>2026-04-19T08:36:35.987Z</time></trkpt><trkpt lat="44.573455" lon="10.40582"><ele>212.0</ele><time>2026-04-19T08:36:36.987Z</time></trkpt><trkpt lat="44.5733033" lon="10.40591"><ele>212.0</ele><time>2026-04-19T08:36:37.987Z</time></trkpt><trkpt lat="44.57315" lon="10.4059783"><ele>212.0</ele><time>2026-04-19T08:36:38.987Z</time></trkpt><trkpt lat="44.5729917" lon="10.4060167"><ele>212.0</ele><time>2026-04-19T08:36:39.987Z</time></trkpt><trkpt lat="44.5728417" lon="10.406015"><ele>213.33333333333334</ele><time>2026-04-19T08:36:40.987Z</time></trkpt><trkpt lat="44.5726967" lon="10.405965"><ele>214.66666666666669</ele><time>2026-04-19T08:36:41.987Z</time></trkpt><trkpt lat="44.5725717" lon="10.40585"><ele>216.0</ele><time>2026-04-19T08:36:42.987Z</time></trkpt><trkpt lat="44.5724533" lon="10.4056967"><ele>216.0</ele><time>2026-04-19T08:36:43.987Z</time></trkpt><trkpt lat="44.5723467" lon="10.4055133"><ele>216.0</ele><time>2026-04-19T08:36:44.987Z</time></trkpt><trkpt lat="44.5722467" lon="10.4053167"><ele>216.0</ele><time>2026-04-19T08:36:45.987Z</time></trkpt><trkpt lat="44.572135" lon="10.4051133"><ele>217.33333333333331</ele><time>2026-04-19T08:36:46.987Z</time></trkpt><trkpt lat="44.572" lon="10.40494"><ele>218.66666666666666</ele><time>2026-04-19T08:36:47.987Z</time></trkpt><trkpt lat="44.5718433" lon="10.4047883"><ele>220.0</ele><time>2026-04-19T08:36:48.987Z</time></trkpt><trkpt lat="44.5716667" lon="10.40467"><ele>217.33333333333331</ele><time>2026-04-19T08:36:49.987Z</time></trkpt><trkpt lat="44.5714833" lon="10.4045917"><ele>214.66666666666669</ele><time>2026-04-19T08:36:50.987Z</time></trkpt><trkpt lat="44.5712817" lon="10.40455"><ele>212.0</ele><time>2026-04-19T08:36:51.987Z</time></trkpt><trkpt lat="44.5710833" lon="10.4045417"><ele>212.0</ele><time>2026-04-19T08:36:52.987Z</time></trkpt><trkpt lat="44.5708883" lon="10.4045383"><ele>212.0</ele><time>2026-04-19T08:36:53.987Z</time></trkpt><trkpt lat="44.5706933" lon="10.4045317"><ele>212.0</ele><time>2026-04-19T08:36:54.988Z</time></trkpt><trkpt lat="44.5704983" lon="10.4045133"><ele>215.33333333333334</ele><time>2026-04-19T08:36:55.987Z</time></trkpt><trkpt lat="44.5703133" lon="10.404455"><ele>218.66666666666669</ele><time>2026-04-19T08:36:56.987Z</time></trkpt><trkpt lat="44.5701333" lon="10.4043583"><ele>222.0</ele><time>2026-04-19T08:36:57.987Z</time></trkpt><trkpt lat="44.5699667" lon="10.4042267"><ele>222.0</ele><time>2026-04-19T08:36:58.987Z</time></trkpt><trkpt lat="44.5698083" lon="10.4040683"><ele>222.0</ele><time>2026-04-19T08:36:59.987Z</time></trkpt><trkpt lat="44.569655" lon="10.4038883"><ele>222.0</ele><time>2026-04-19T08:37:00.987Z</time></trkpt><trkpt lat="44.5695167" lon="10.4037133"><ele>220.0</ele><time>2026-04-19T08:37:01.987Z</time></trkpt><trkpt lat="44.5693933" lon="10.4035383"><ele>218.0</ele><time>2026-04-19T08:37:02.987Z</time></trkpt><trkpt lat="44.5692667" lon="10.4033983"><ele>216.0</ele><time>2026-04-19T08:37:03.987Z</time></trkpt><trkpt lat="44.569155" lon="10.403275"><ele>216.0</ele><time>2026-04-19T08:37:04.987Z</time></trkpt><trkpt lat="44.5690333" lon="10.4032"><ele>216.0</ele><time>2026-04-19T08:37:05.987Z</time></trkpt><trkpt lat="44.568895" lon="10.4031833"><ele>216.0</ele><time>2026-04-19T08:37:06.987Z</time></trkpt><trkpt lat="44.56874" lon="10.40324"><ele>216.0</ele><time>2026-04-19T08:37:07.987Z</time></trkpt><trkpt lat="44.5685683" lon="10.4033417"><ele>215.33333333333331</ele><time>2026-04-19T08:37:08.987Z</time></trkpt><trkpt lat="44.5683767" lon="10.4034383"><ele>214.66666666666666</ele><time>2026-04-19T08:37:09.987Z</time></trkpt><trkpt lat="44.5681733" lon="10.4035067"><ele>214.0</ele><time>2026-04-19T08:37:10.987Z</time></trkpt><trkpt lat="44.5679633" lon="10.4035433"><ele>214.66666666666666</ele><time>2026-04-19T08:37:11.987Z</time></trkpt><trkpt lat="44.5677683" lon="10.403555"><ele>215.33333333333331</ele><time>2026-04-19T08:37:12.987Z</time></trkpt><trkpt lat="44.5675867" lon="10.4035517"><ele>216.0</ele><time>2026-04-19T08:37:13.987Z</time></trkpt><trkpt lat="44.5674" lon="10.4035517"><ele>216.0</ele><time>2026-04-19T08:37:14.987Z</time></trkpt><trkpt lat="44.5672133" lon="10.4035283"><ele>216.0</ele><time>2026-04-19T08:37:15.987Z</time></trkpt><trkpt lat="44.5670183" lon="10.4035283"><ele>216.0</ele><time>2026-04-19T08:37:16.987Z</time></trkpt><trkpt lat="44.5668267" lon="10.4035067"><ele>216.33333333333331</ele><time>2026-04-19T08:37:17.987Z</time></trkpt><trkpt lat="44.5666317" lon="10.4034583"><ele>216.66666666666666</ele><time>2026-04-19T08:37:18.987Z</time></trkpt><trkpt lat="44.5664267" lon="10.4033867"><ele>217.0</ele><time>2026-04-19T08:37:19.987Z</time></trkpt><trkpt lat="44.5662067" lon="10.4032967"><ele>221.5</ele><time>2026-04-19T08:37:20.987Z</time></trkpt><trkpt lat="44.5659733" lon="10.4032033"><ele>226.0</ele><time>2026-04-19T08:37:21.987Z</time></trkpt><trkpt lat="44.5657333" lon="10.4031167"><ele>226.0</ele><time>2026-04-19T08:37:22.987Z</time></trkpt><trkpt lat="44.565505" lon="10.4030333"><ele>226.0</ele><time>2026-04-19T08:37:23.987Z</time></trkpt><trkpt lat="44.5652933" lon="10.40295"><ele>222.66666666666666</ele><time>2026-04-19T08:37:24.987Z</time></trkpt><trkpt lat="44.565095" lon="10.4028633"><ele>219.33333333333331</ele><time>2026-04-19T08:37:25.987Z</time></trkpt><trkpt lat="44.5648917" lon="10.4027867"><ele>216.0</ele><time>2026-04-19T08:37:26.987Z</time></trkpt><trkpt lat="44.564685" lon="10.4027317"><ele>216.0</ele><time>2026-04-19T08:37:27.988Z</time></trkpt><trkpt lat="44.5644667" lon="10.4027133"><ele>216.0</ele><time>2026-04-19T08:37:28.987Z</time></trkpt><trkpt lat="44.5642417" lon="10.4027217"><ele>216.0</ele><time>2026-04-19T08:37:29.987Z</time></trkpt><trkpt lat="44.5640133" lon="10.40274"><ele>216.0</ele><time>2026-04-19T08:37:30.987Z</time></trkpt><trkpt lat="44.5637983" lon="10.4027683"><ele>216.0</ele><time>2026-04-19T08:37:31.987Z</time></trkpt><trkpt lat="44.5635883" lon="10.4027867"><ele>216.0</ele><time>2026-04-19T08:37:32.987Z</time></trkpt><trkpt lat="44.5633983" lon="10.4028017"><ele>217.0</ele><time>2026-04-19T08:37:33.987Z</time></trkpt><trkpt lat="44.5632183" lon="10.402795"><ele>218.0</ele><time>2026-04-19T08:37:34.987Z</time></trkpt><trkpt lat="44.563045" lon="10.4027667"><ele>219.0</ele><time>2026-04-19T08:37:35.987Z</time></trkpt><trkpt lat="44.5628767" lon="10.4027017"><ele>221.66666666666669</ele><time>2026-04-19T08:37:36.987Z</time></trkpt><trkpt lat="44.5627067" lon="10.40263"><ele>224.33333333333334</ele><time>2026-04-19T08:37:37.987Z</time></trkpt><trkpt lat="44.5625417" lon="10.4025933"><ele>227.0</ele><time>2026-04-19T08:37:38.987Z</time></trkpt><trkpt lat="44.5623617" lon="10.4025967"><ele>227.0</ele><time>2026-04-19T08:37:39.987Z</time></trkpt><trkpt lat="44.562185" lon="10.4026083"><ele>227.0</ele><time>2026-04-19T08:37:40.987Z</time></trkpt><trkpt lat="44.562" lon="10.402635"><ele>227.0</ele><time>2026-04-19T08:37:41.987Z</time></trkpt><trkpt lat="44.56182" lon="10.4026333"><ele>227.66666666666669</ele><time>2026-04-19T08:37:42.987Z</time></trkpt><trkpt lat="44.5616383" lon="10.4025967"><ele>228.33333333333331</ele><time>2026-04-19T08:37:43.987Z</time></trkpt><trkpt lat="44.5614483" lon="10.40254"><ele>229.0</ele><time>2026-04-19T08:37:44.987Z</time></trkpt><trkpt lat="44.5612583" lon="10.4024733"><ele>234.0</ele><time>2026-04-19T08:37:45.987Z</time></trkpt><trkpt lat="44.56107" lon="10.4023917"><ele>239.0</ele><time>2026-04-19T08:37:46.987Z</time></trkpt><trkpt lat="44.560905" lon="10.40233"><ele>244.0</ele><time>2026-04-19T08:37:47.987Z</time></trkpt><trkpt lat="44.5607667" lon="10.4022717"><ele>244.0</ele><time>2026-04-19T08:37:48.987Z</time></trkpt><trkpt lat="44.5606433" lon="10.4021867"><ele>244.0</ele><time>2026-04-19T08:37:49.987Z</time></trkpt><trkpt lat="44.5605567" lon="10.4020433"><ele>244.0</ele><time>2026-04-19T08:37:50.987Z</time></trkpt><trkpt lat="44.5604867" lon="10.4018683"><ele>244.0</ele><time>2026-04-19T08:37:51.987Z</time></trkpt><trkpt lat="44.5604217" lon="10.40165"><ele>244.66666666666666</ele><time>2026-04-19T08:37:52.987Z</time></trkpt><trkpt lat="44.5603633" lon="10.4014033"><ele>245.33333333333331</ele><time>2026-04-19T08:37:53.987Z</time></trkpt><trkpt lat="44.560305" lon="10.40115"><ele>246.0</ele><time>2026-04-19T08:37:54.987Z</time></trkpt><trkpt lat="44.5602533" lon="10.4009167"><ele>244.66666666666669</ele><time>2026-04-19T08:37:55.987Z</time></trkpt><trkpt lat="44.5601967" lon="10.40071"><ele>243.33333333333334</ele><time>2026-04-19T08:37:56.987Z</time></trkpt><trkpt lat="44.5601233" lon="10.40053"><ele>242.0</ele><time>2026-04-19T08:37:57.987Z</time></trkpt><trkpt lat="44.5600183" lon="10.400375"><ele>240.0</ele><time>2026-04-19T08:37:58.987Z</time></trkpt><trkpt lat="44.5598833" lon="10.4002517"><ele>238.0</ele><time>2026-04-19T08:37:59.987Z</time></trkpt><trkpt lat="44.5597267" lon="10.4001383"><ele>236.0</ele><time>2026-04-19T08:38:00.987Z</time></trkpt><trkpt lat="44.5595767" lon="10.4000367"><ele>238.0</ele><time>2026-04-19T08:38:01.987Z</time></trkpt><trkpt lat="44.5594417" lon="10.3999217"><ele>240.0</ele><time>2026-04-19T08:38:02.987Z</time></trkpt><trkpt lat="44.55934" lon="10.39976"><ele>242.0</ele><time>2026-04-19T08:38:03.987Z</time></trkpt><trkpt lat="44.5592833" lon="10.3995783"><ele>242.0</ele><time>2026-04-19T08:38:04.987Z</time></trkpt><trkpt lat="44.559225" lon="10.399385"><ele>242.0</ele><time>2026-04-19T08:38:05.987Z</time></trkpt><trkpt lat="44.5591317" lon="10.3992083"><ele>242.0</ele><time>2026-04-19T08:38:06.987Z</time></trkpt><trkpt lat="44.5590067" lon="10.39908"><ele>242.0</ele><time>2026-04-19T08:38:07.987Z</time></trkpt><trkpt lat="44.5588633" lon="10.3989883"><ele>242.0</ele><time>2026-04-19T08:38:08.987Z</time></trkpt><trkpt lat="44.558695" lon="10.3989333"><ele>242.0</ele><time>2026-04-19T08:38:09.987Z</time></trkpt><trkpt lat="44.5585083" lon="10.398885"><ele>242.0</ele><time>2026-04-19T08:38:10.987Z</time></trkpt><trkpt lat="44.5583233" lon="10.39884"><ele>242.0</ele><time>2026-04-19T08:38:11.987Z</time></trkpt><trkpt lat="44.5581517" lon="10.3987967"><ele>242.0</ele><time>2026-04-19T08:38:12.987Z</time></trkpt><trkpt lat="44.5579933" lon="10.3987717"><ele>244.66666666666669</ele><time>2026-04-19T08:38:13.987Z</time></trkpt><trkpt lat="44.5578383" lon="10.3987717"><ele>247.33333333333331</ele><time>2026-04-19T08:38:14.987Z</time></trkpt><trkpt lat="44.55767" lon="10.39882"><ele>250.0</ele><time>2026-04-19T08:38:15.987Z</time></trkpt><trkpt lat="44.5575" lon="10.3988883"><ele>252.66666666666666</ele><time>2026-04-19T08:38:16.987Z</time></trkpt><trkpt lat="44.55732" lon="10.39895"><ele>255.33333333333331</ele><time>2026-04-19T08:38:17.987Z</time></trkpt><trkpt lat="44.55716" lon="10.399015"><ele>258.0</ele><time>2026-04-19T08:38:18.988Z</time></trkpt><trkpt lat="44.5570183" lon="10.399075"><ele>259.5</ele><time>2026-04-19T08:38:19.987Z</time></trkpt><trkpt lat="44.5568817" lon="10.3991033"><ele>261.0</ele><time>2026-04-19T08:38:20.987Z</time></trkpt><trkpt lat="44.55675" lon="10.3990833"><ele>262.5</ele><time>2026-04-19T08:38:21.987Z</time></trkpt><trkpt lat="44.55664" lon="10.39899"><ele>264.0</ele><time>2026-04-19T08:38:22.987Z</time></trkpt><trkpt lat="44.556535" lon="10.3988567"><ele>261.6666666666667</ele><time>2026-04-19T08:38:23.987Z</time></trkpt><trkpt lat="44.5564417" lon="10.3986783"><ele>259.33333333333337</ele><time>2026-04-19T08:38:24.987Z</time></trkpt><trkpt lat="44.5563217" lon="10.3985367"><ele>257.0</ele><time>2026-04-19T08:38:25.987Z</time></trkpt><trkpt lat="44.5561683" lon="10.3984617"><ele>257.0</ele><time>2026-04-19T08:38:26.987Z</time></trkpt><trkpt lat="44.5559983" lon="10.3984417"><ele>257.0</ele><time>2026-04-19T08:38:27.987Z</time></trkpt><trkpt lat="44.555825" lon="10.3984267"><ele>257.0</ele><time>2026-04-19T08:38:28.987Z</time></trkpt><trkpt lat="44.5556567" lon="10.3984117"><ele>257.0</ele><time>2026-04-19T08:38:29.987Z</time></trkpt><trkpt lat="44.555495" lon="10.3983683"><ele>257.0</ele><time>2026-04-19T08:38:30.987Z</time></trkpt><trkpt lat="44.555335" lon="10.398285"><ele>257.0</ele><time>2026-04-19T08:38:31.987Z</time></trkpt><trkpt lat="44.55521" lon="10.3981517"><ele>261.6666666666667</ele><time>2026-04-19T08:38:32.987Z</time></trkpt><trkpt lat="44.55512" lon="10.3979533"><ele>266.3333333333333</ele><time>2026-04-19T08:38:33.987Z</time></trkpt><trkpt lat="44.5550833" lon="10.3977283"><ele>271.0</ele><time>2026-04-19T08:38:34.987Z</time></trkpt><trkpt lat="44.5550717" lon="10.39747"><ele>271.0</ele><time>2026-04-19T08:38:35.987Z</time></trkpt><trkpt lat="44.555085" lon="10.3972"><ele>271.0</ele><time>2026-04-19T08:38:36.987Z</time></trkpt><trkpt lat="44.5551067" lon="10.396935"><ele>271.0</ele><time>2026-04-19T08:38:37.987Z</time></trkpt><trkpt lat="44.5551167" lon="10.3966767"><ele>270.66666666666663</ele><time>2026-04-19T08:38:38.987Z</time></trkpt><trkpt lat="44.5551117" lon="10.3964133"><ele>270.3333333333333</ele><time>2026-04-19T08:38:39.987Z</time></trkpt><trkpt lat="44.5550917" lon="10.3961667"><ele>270.0</ele><time>2026-04-19T08:38:40.987Z</time></trkpt><trkpt lat="44.5550567" lon="10.395925"><ele>268.0</ele><time>2026-04-19T08:38:41.987Z</time></trkpt><trkpt lat="44.5550017" lon="10.3956967"><ele>266.0</ele><time>2026-04-19T08:38:42.987Z</time></trkpt><trkpt lat="44.55492" lon="10.39547"><ele>264.0</ele><time>2026-04-19T08:38:43.987Z</time></trkpt><trkpt lat="44.5548133" lon="10.3952533"><ele>265.3333333333333</ele><time>2026-04-19T08:38:44.987Z</time></trkpt><trkpt lat="44.5546867" lon="10.3950367"><ele>266.66666666666663</ele><time>2026-04-19T08:38:45.987Z</time></trkpt><trkpt lat="44.554535" lon="10.3948383"><ele>268.0</ele><time>2026-04-19T08:38:46.987Z</time></trkpt><trkpt lat="44.5543667" lon="10.39466"><ele>263.0</ele><time>2026-04-19T08:38:47.987Z</time></trkpt><trkpt lat="44.554185" lon="10.3944883"><ele>258.0</ele><time>2026-04-19T08:38:48.987Z</time></trkpt><trkpt lat="44.554005" lon="10.3943267"><ele>253.0</ele><time>2026-04-19T08:38:49.987Z</time></trkpt><trkpt lat="44.55383" lon="10.3941817"><ele>253.0</ele><time>2026-04-19T08:38:50.987Z</time></trkpt><trkpt lat="44.5536683" lon="10.3940383"><ele>253.0</ele><time>2026-04-19T08:38:51.988Z</time></trkpt><trkpt lat="44.5535167" lon="10.3938767"><ele>253.0</ele><time>2026-04-19T08:38:52.987Z</time></trkpt><trkpt lat="44.5533767" lon="10.3936767"><ele>253.0</ele><time>2026-04-19T08:38:53.987Z</time></trkpt><trkpt lat="44.55324" lon="10.3934567"><ele>253.0</ele><time>2026-04-19T08:38:54.987Z</time></trkpt><trkpt lat="44.5531033" lon="10.3932383"><ele>253.0</ele><time>2026-04-19T08:38:55.987Z</time></trkpt><trkpt lat="44.552965" lon="10.393045"><ele>253.0</ele><time>2026-04-19T08:38:56.987Z</time></trkpt><trkpt lat="44.5528133" lon="10.3928683"><ele>253.0</ele><time>2026-04-19T08:38:57.987Z</time></trkpt><trkpt lat="44.5526283" lon="10.39272"><ele>253.0</ele><time>2026-04-19T08:38:58.987Z</time></trkpt><trkpt lat="44.5524167" lon="10.392575"><ele>253.0</ele><time>2026-04-19T08:38:59.987Z</time></trkpt><trkpt lat="44.5521967" lon="10.3924133"><ele>253.0</ele><time>2026-04-19T08:39:00.987Z</time></trkpt><trkpt lat="44.5519783" lon="10.39226"><ele>250.5</ele><time>2026-04-19T08:39:01.987Z</time></trkpt><trkpt lat="44.55176" lon="10.39212"><ele>248.0</ele><time>2026-04-19T08:39:02.987Z</time></trkpt><trkpt lat="44.5515367" lon="10.391975"><ele>248.0</ele><time>2026-04-19T08:39:03.987Z</time></trkpt><trkpt lat="44.5513" lon="10.3918183"><ele>248.0</ele><time>2026-04-19T08:39:04.987Z</time></trkpt><trkpt lat="44.5510533" lon="10.391655"><ele>246.0</ele><time>2026-04-19T08:39:05.987Z</time></trkpt><trkpt lat="44.5508167" lon="10.391485"><ele>244.0</ele><time>2026-04-19T08:39:06.987Z</time></trkpt><trkpt lat="44.5505867" lon="10.3913117"><ele>247.5</ele><time>2026-04-19T08:39:07.987Z</time></trkpt><trkpt lat="44.5503733" lon="10.3911583"><ele>251.0</ele><time>2026-04-19T08:39:08.987Z</time></trkpt><trkpt lat="44.5501733" lon="10.3910033"><ele>251.0</ele><time>2026-04-19T08:39:09.987Z</time></trkpt><trkpt lat="44.5499883" lon="10.3908567"><ele>251.0</ele><time>2026-04-19T08:39:10.987Z</time></trkpt><trkpt lat="44.5498267" lon="10.3907067"><ele>251.0</ele><time>2026-04-19T08:39:11.987Z</time></trkpt><trkpt lat="44.54968" lon="10.390545"><ele>250.0</ele><time>2026-04-19T08:39:12.988Z</time></trkpt><trkpt lat="44.54954" lon="10.3903417"><ele>249.0</ele><time>2026-04-19T08:39:13.987Z</time></trkpt><trkpt lat="44.5494133" lon="10.3901183"><ele>248.0</ele><time>2026-04-19T08:39:14.987Z</time></trkpt><trkpt lat="44.5493" lon="10.3899067"><ele>248.0</ele><time>2026-04-19T08:39:15.987Z</time></trkpt><trkpt lat="44.5491917" lon="10.389695"><ele>248.0</ele><time>2026-04-19T08:39:16.987Z</time></trkpt><trkpt lat="44.5490867" lon="10.3894817"><ele>248.0</ele><time>2026-04-19T08:39:17.987Z</time></trkpt><trkpt lat="44.5489767" lon="10.38926"><ele>247.33333333333334</ele><time>2026-04-19T08:39:18.987Z</time></trkpt><trkpt lat="44.5488633" lon="10.3890333"><ele>246.66666666666669</ele><time>2026-04-19T08:39:19.987Z</time></trkpt><trkpt lat="44.5487417" lon="10.3888033"><ele>246.0</ele><time>2026-04-19T08:39:20.987Z</time></trkpt><trkpt lat="44.5486267" lon="10.38854"><ele>245.33333333333331</ele><time>2026-04-19T08:39:21.987Z</time></trkpt><trkpt lat="44.5485167" lon="10.388275"><ele>244.66666666666666</ele><time>2026-04-19T08:39:22.987Z</time></trkpt><trkpt lat="44.54841" lon="10.3880233"><ele>244.0</ele><time>2026-04-19T08:39:23.987Z</time></trkpt><trkpt lat="44.5483183" lon="10.387785"><ele>243.0</ele><time>2026-04-19T08:39:24.987Z</time></trkpt><trkpt lat="44.5482283" lon="10.3875767"><ele>242.0</ele><time>2026-04-19T08:39:25.987Z</time></trkpt><trkpt lat="44.5481283" lon="10.3874067"><ele>241.0</ele><time>2026-04-19T08:39:26.988Z</time></trkpt><trkpt lat="44.5480183" lon="10.387285"><ele>243.0</ele><time>2026-04-19T08:39:27.987Z</time></trkpt><trkpt lat="44.54787" lon="10.387205"><ele>245.0</ele><time>2026-04-19T08:39:28.987Z</time></trkpt><trkpt lat="44.5476983" lon="10.3871567"><ele>247.0</ele><time>2026-04-19T08:39:29.987Z</time></trkpt><trkpt lat="44.54752" lon="10.387125"><ele>243.66666666666666</ele><time>2026-04-19T08:39:30.987Z</time></trkpt><trkpt lat="44.547335" lon="10.38709"><ele>240.33333333333331</ele><time>2026-04-19T08:39:31.987Z</time></trkpt><trkpt lat="44.5471483" lon="10.3870367"><ele>237.0</ele><time>2026-04-19T08:39:32.987Z</time></trkpt><trkpt lat="44.5469583" lon="10.3869667"><ele>237.0</ele><time>2026-04-19T08:39:33.987Z</time></trkpt><trkpt lat="44.5467733" lon="10.3868783"><ele>237.0</ele><time>2026-04-19T08:39:34.987Z</time></trkpt><trkpt lat="44.5465917" lon="10.3867833"><ele>237.0</ele><time>2026-04-19T08:39:35.987Z</time></trkpt><trkpt lat="44.546415" lon="10.38666"><ele>237.0</ele><time>2026-04-19T08:39:36.987Z</time></trkpt><trkpt lat="44.5462517" lon="10.3865383"><ele>237.0</ele><time>2026-04-19T08:39:37.987Z</time></trkpt><trkpt lat="44.54609" lon="10.3864233"><ele>237.0</ele><time>2026-04-19T08:39:38.987Z</time></trkpt><trkpt lat="44.545925" lon="10.3863083"><ele>235.33333333333331</ele><time>2026-04-19T08:39:39.987Z</time></trkpt><trkpt lat="44.5457617" lon="10.386205"><ele>233.66666666666666</ele><time>2026-04-19T08:39:40.987Z</time></trkpt><trkpt lat="44.5455933" lon="10.3861"><ele>232.0</ele><time>2026-04-19T08:39:41.987Z</time></trkpt><trkpt lat="44.5454233" lon="10.3859733"><ele>236.0</ele><time>2026-04-19T08:39:42.987Z</time></trkpt><trkpt lat="44.5452617" lon="10.38584"><ele>240.0</ele><time>2026-04-19T08:39:43.987Z</time></trkpt><trkpt lat="44.5451033" lon="10.3856983"><ele>244.0</ele><time>2026-04-19T08:39:44.987Z</time></trkpt><trkpt lat="44.5449567" lon="10.3855367"><ele>244.0</ele><time>2026-04-19T08:39:45.988Z</time></trkpt><trkpt lat="44.54481" lon="10.3853667"><ele>244.0</ele><time>2026-04-19T08:39:46.987Z</time></trkpt><trkpt lat="44.5446483" lon="10.3851983"><ele>244.0</ele><time>2026-04-19T08:39:47.987Z</time></trkpt><trkpt lat="44.5444917" lon="10.3850267"><ele>244.0</ele><time>2026-04-19T08:39:48.987Z</time></trkpt><trkpt lat="44.544325" lon="10.3848517"><ele>244.0</ele><time>2026-04-19T08:39:49.987Z</time></trkpt><trkpt lat="44.5441683" lon="10.38467"><ele>244.0</ele><time>2026-04-19T08:39:50.987Z</time></trkpt><trkpt lat="44.5440233" lon="10.3844917"><ele>241.0</ele><time>2026-04-19T08:39:51.987Z</time></trkpt><trkpt lat="44.5438983" lon="10.3843183"><ele>238.0</ele><time>2026-04-19T08:39:52.987Z</time></trkpt><trkpt lat="44.5437667" lon="10.3841433"><ele>235.0</ele><time>2026-04-19T08:39:53.987Z</time></trkpt><trkpt lat="44.54364" lon="10.38396"><ele>237.33333333333331</ele><time>2026-04-19T08:39:54.987Z</time></trkpt><trkpt lat="44.5435167" lon="10.38377"><ele>239.66666666666669</ele><time>2026-04-19T08:39:55.987Z</time></trkpt><trkpt lat="44.5433833" lon="10.3835733"><ele>242.0</ele><time>2026-04-19T08:39:56.987Z</time></trkpt><trkpt lat="44.5432567" lon="10.3833733"><ele>242.0</ele><time>2026-04-19T08:39:57.987Z</time></trkpt><trkpt lat="44.5431317" lon="10.3831617"><ele>242.0</ele><time>2026-04-19T08:39:58.987Z</time></trkpt><trkpt lat="44.54302" lon="10.3829467"><ele>242.0</ele><time>2026-04-19T08:39:59.987Z</time></trkpt><trkpt lat="44.5429117" lon="10.3827333"><ele>247.33333333333334</ele><time>2026-04-19T08:40:00.987Z</time></trkpt><trkpt lat="44.5428167" lon="10.3825117"><ele>252.66666666666669</ele><time>2026-04-19T08:40:01.987Z</time></trkpt><trkpt lat="44.5427317" lon="10.3822767"><ele>258.0</ele><time>2026-04-19T08:40:02.987Z</time></trkpt><trkpt lat="44.5426717" lon="10.3820083"><ele>258.0</ele><time>2026-04-19T08:40:03.987Z</time></trkpt><trkpt lat="44.54263" lon="10.38174"><ele>258.0</ele><time>2026-04-19T08:40:04.987Z</time></trkpt><trkpt lat="44.542595" lon="10.3814817"><ele>258.0</ele><time>2026-04-19T08:40:05.987Z</time></trkpt><trkpt lat="44.5425733" lon="10.3812233"><ele>258.0</ele><time>2026-04-19T08:40:06.987Z</time></trkpt><trkpt lat="44.5425567" lon="10.3809583"><ele>258.0</ele><time>2026-04-19T08:40:07.988Z</time></trkpt><trkpt lat="44.54256" lon="10.3807033"><ele>258.0</ele><time>2026-04-19T08:40:08.987Z</time></trkpt><trkpt lat="44.5425883" lon="10.380435"><ele>259.3333333333333</ele><time>2026-04-19T08:40:09.987Z</time></trkpt><trkpt lat="44.542625" lon="10.3801817"><ele>260.66666666666663</ele><time>2026-04-19T08:40:10.987Z</time></trkpt><trkpt lat="44.5426667" lon="10.3799483"><ele>262.0</ele><time>2026-04-19T08:40:11.987Z</time></trkpt><trkpt lat="44.5427267" lon="10.3797367"><ele>263.66666666666663</ele><time>2026-04-19T08:40:12.987Z</time></trkpt><trkpt lat="44.5427983" lon="10.3795333"><ele>265.3333333333333</ele><time>2026-04-19T08:40:13.987Z</time></trkpt><trkpt lat="44.5428767" lon="10.37934"><ele>267.0</ele><time>2026-04-19T08:40:14.987Z</time></trkpt><trkpt lat="44.5429533" lon="10.3791567"><ele>260.5</ele><time>2026-04-19T08:40:15.987Z</time></trkpt><trkpt lat="44.543015" lon="10.3789733"><ele>254.0</ele><time>2026-04-19T08:40:16.987Z</time></trkpt><trkpt lat="44.5430533" lon="10.3787717"><ele>247.5</ele><time>2026-04-19T08:40:17.987Z</time></trkpt><trkpt lat="44.5430517" lon="10.3785533"><ele>241.0</ele><time>2026-04-19T08:40:18.987Z</time></trkpt><trkpt lat="44.5430217" lon="10.3783067"><ele>241.0</ele><time>2026-04-19T08:40:19.987Z</time></trkpt><trkpt lat="44.54297" lon="10.378035"><ele>241.0</ele><time>2026-04-19T08:40:20.987Z</time></trkpt><trkpt lat="44.54293" lon="10.3777667"><ele>241.0</ele><time>2026-04-19T08:40:21.988Z</time></trkpt><trkpt lat="44.5429117" lon="10.3775017"><ele>242.66666666666666</ele><time>2026-04-19T08:40:22.987Z</time></trkpt><trkpt lat="44.5429167" lon="10.3772417"><ele>244.33333333333331</ele><time>2026-04-19T08:40:23.987Z</time></trkpt><trkpt lat="44.54295" lon="10.37698"><ele>246.0</ele><time>2026-04-19T08:40:24.987Z</time></trkpt><trkpt lat="44.543025" lon="10.37675"><ele>247.0</ele><time>2026-04-19T08:40:25.987Z</time></trkpt><trkpt lat="44.5431217" lon="10.37653"><ele>248.0</ele><time>2026-04-19T08:40:26.987Z</time></trkpt><trkpt lat="44.54324" lon="10.376325"><ele>249.0</ele><time>2026-04-19T08:40:27.987Z</time></trkpt><trkpt lat="44.54335" lon="10.3761283"><ele>252.33333333333331</ele><time>2026-04-19T08:40:28.987Z</time></trkpt><trkpt lat="44.5434567" lon="10.37594"><ele>255.66666666666666</ele><time>2026-04-19T08:40:29.987Z</time></trkpt><trkpt lat="44.5435417" lon="10.3757583"><ele>259.0</ele><time>2026-04-19T08:40:30.987Z</time></trkpt><trkpt lat="44.5436083" lon="10.3755683"><ele>260.66666666666663</ele><time>2026-04-19T08:40:31.987Z</time></trkpt><trkpt lat="44.5436383" lon="10.37536"><ele>262.3333333333333</ele><time>2026-04-19T08:40:32.987Z</time></trkpt><trkpt lat="44.5436483" lon="10.37513"><ele>264.0</ele><time>2026-04-19T08:40:33.987Z</time></trkpt><trkpt lat="44.543655" lon="10.37487"><ele>264.6666666666667</ele><time>2026-04-19T08:40:34.987Z</time></trkpt><trkpt lat="44.5436633" lon="10.3746167"><ele>265.33333333333337</ele><time>2026-04-19T08:40:35.987Z</time></trkpt><trkpt lat="44.5437" lon="10.37436"><ele>266.0</ele><time>2026-04-19T08:40:36.987Z</time></trkpt><trkpt lat="44.5437517" lon="10.3741083"><ele>262.33333333333337</ele><time>2026-04-19T08:40:37.987Z</time></trkpt><trkpt lat="44.5438083" lon="10.3738733"><ele>258.6666666666667</ele><time>2026-04-19T08:40:38.987Z</time></trkpt><trkpt lat="44.5438767" lon="10.3736533"><ele>255.0</ele><time>2026-04-19T08:40:39.988Z</time></trkpt><trkpt lat="44.5439367" lon="10.37344"><ele>255.0</ele><time>2026-04-19T08:40:40.987Z</time></trkpt><trkpt lat="44.54397" lon="10.37322"><ele>255.0</ele><time>2026-04-19T08:40:41.987Z</time></trkpt><trkpt lat="44.54396" lon="10.3729967"><ele>255.0</ele><time>2026-04-19T08:40:42.987Z</time></trkpt><trkpt lat="44.5439183" lon="10.37275"><ele>254.66666666666669</ele><time>2026-04-19T08:40:43.987Z</time></trkpt><trkpt lat="44.5438617" lon="10.3724883"><ele>254.33333333333334</ele><time>2026-04-19T08:40:44.987Z</time></trkpt><trkpt lat="44.5438067" lon="10.3722267"><ele>254.0</ele><time>2026-04-19T08:40:45.987Z</time></trkpt><trkpt lat="44.5437533" lon="10.3719817"><ele>257.33333333333337</ele><time>2026-04-19T08:40:46.987Z</time></trkpt><trkpt lat="44.5437" lon="10.371765"><ele>260.6666666666667</ele><time>2026-04-19T08:40:47.987Z</time></trkpt><trkpt lat="44.54364" lon="10.3715683"><ele>264.0</ele><time>2026-04-19T08:40:48.987Z</time></trkpt><trkpt lat="44.543555" lon="10.3713983"><ele>262.0</ele><time>2026-04-19T08:40:49.987Z</time></trkpt><trkpt lat="44.5434367" lon="10.371255"><ele>260.0</ele><time>2026-04-19T08:40:50.987Z</time></trkpt><trkpt lat="44.5432917" lon="10.3711517"><ele>258.0</ele><time>2026-04-19T08:40:51.987Z</time></trkpt><trkpt lat="44.5431233" lon="10.3710867"><ele>258.0</ele><time>2026-04-19T08:40:52.987Z</time></trkpt><trkpt lat="44.54294" lon="10.3710433"><ele>258.0</ele><time>2026-04-19T08:40:53.988Z</time></trkpt><trkpt lat="44.54277" lon="10.3709883"><ele>258.0</ele><time>2026-04-19T08:40:54.987Z</time></trkpt><trkpt lat="44.5426167" lon="10.3709233"><ele>260.6666666666667</ele><time>2026-04-19T08:40:55.987Z</time></trkpt><trkpt lat="44.5424817" lon="10.3708417"><ele>263.33333333333337</ele><time>2026-04-19T08:40:56.987Z</time></trkpt><trkpt lat="44.5423433" lon="10.37074"><ele>266.0</ele><time>2026-04-19T08:40:57.987Z</time></trkpt><trkpt lat="44.5422" lon="10.370615"><ele>267.6666666666667</ele><time>2026-04-19T08:40:58.987Z</time></trkpt><trkpt lat="44.542055" lon="10.3704633"><ele>269.3333333333333</ele><time>2026-04-19T08:40:59.987Z</time></trkpt><trkpt lat="44.5419167" lon="10.3703"><ele>271.0</ele><time>2026-04-19T08:41:00.987Z</time></trkpt><trkpt lat="44.54178" lon="10.3701317"><ele>271.0</ele><time>2026-04-19T08:41:01.987Z</time></trkpt><trkpt lat="44.5416483" lon="10.36995"><ele>271.0</ele><time>2026-04-19T08:41:02.987Z</time></trkpt><trkpt lat="44.5415283" lon="10.3697483"><ele>271.0</ele><time>2026-04-19T08:41:03.987Z</time></trkpt><trkpt lat="44.5414467" lon="10.3695217"><ele>269.3333333333333</ele><time>2026-04-19T08:41:04.987Z</time></trkpt><trkpt lat="44.5414033" lon="10.3692833"><ele>267.6666666666667</ele><time>2026-04-19T08:41:05.987Z</time></trkpt><trkpt lat="44.54138" lon="10.36902"><ele>266.0</ele><time>2026-04-19T08:41:06.987Z</time></trkpt><trkpt lat="44.5413417" lon="10.3687567"><ele>264.6666666666667</ele><time>2026-04-19T08:41:07.987Z</time></trkpt><trkpt lat="44.541295" lon="10.36848"><ele>263.3333333333333</ele><time>2026-04-19T08:41:08.987Z</time></trkpt><trkpt lat="44.5412367" lon="10.3681867"><ele>262.0</ele><time>2026-04-19T08:41:09.987Z</time></trkpt><trkpt lat="44.5411617" lon="10.367865"><ele>268.0</ele><time>2026-04-19T08:41:10.987Z</time></trkpt><trkpt lat="44.5410833" lon="10.3675533"><ele>274.0</ele><time>2026-04-19T08:41:11.987Z</time></trkpt><trkpt lat="44.5410117" lon="10.367265"><ele>274.66666666666663</ele><time>2026-04-19T08:41:12.987Z</time></trkpt><trkpt lat="44.5409383" lon="10.36699"><ele>275.3333333333333</ele><time>2026-04-19T08:41:13.987Z</time></trkpt><trkpt lat="44.54088" lon="10.366745"><ele>276.0</ele><time>2026-04-19T08:41:14.987Z</time></trkpt><trkpt lat="44.5408167" lon="10.366505"><ele>275.6666666666667</ele><time>2026-04-19T08:41:15.987Z</time></trkpt><trkpt lat="44.5407617" lon="10.3662683"><ele>275.33333333333337</ele><time>2026-04-19T08:41:16.987Z</time></trkpt><trkpt lat="44.5407083" lon="10.36605"><ele>275.0</ele><time>2026-04-19T08:41:17.987Z</time></trkpt><trkpt lat="44.5406617" lon="10.36585"><ele>275.0</ele><time>2026-04-19T08:41:18.987Z</time></trkpt><trkpt lat="44.5406033" lon="10.3656467"><ele>275.0</ele><time>2026-04-19T08:41:19.987Z</time></trkpt><trkpt lat="44.5405167" lon="10.36546"><ele>275.0</ele><time>2026-04-19T08:41:20.987Z</time></trkpt><trkpt lat="44.540405" lon="10.36531"><ele>276.6666666666667</ele><time>2026-04-19T08:41:21.987Z</time></trkpt><trkpt lat="44.540265" lon="10.3651967"><ele>278.3333333333333</ele><time>2026-04-19T08:41:22.987Z</time></trkpt><trkpt lat="44.5400983" lon="10.36513"><ele>280.0</ele><time>2026-04-19T08:41:23.987Z</time></trkpt><trkpt lat="44.539925" lon="10.365075"><ele>280.0</ele><time>2026-04-19T08:41:24.987Z</time></trkpt><trkpt lat="44.5397467" lon="10.3650467"><ele>280.0</ele><time>2026-04-19T08:41:25.987Z</time></trkpt><trkpt lat="44.53957" lon="10.3650433"><ele>280.0</ele><time>2026-04-19T08:41:26.987Z</time></trkpt><trkpt lat="44.5393967" lon="10.3650767"><ele>280.25</ele><time>2026-04-19T08:41:27.987Z</time></trkpt><trkpt lat="44.5392433" lon="10.3651533"><ele>280.5</ele><time>2026-04-19T08:41:28.987Z</time></trkpt><trkpt lat="44.5391183" lon="10.36523"><ele>280.75</ele><time>2026-04-19T08:41:29.987Z</time></trkpt><trkpt lat="44.538995" lon="10.365275"><ele>281.0</ele><time>2026-04-19T08:41:30.987Z</time></trkpt><trkpt lat="44.5388767" lon="10.3652483"><ele>281.0</ele><time>2026-04-19T08:41:31.987Z</time></trkpt><trkpt lat="44.5387583" lon="10.36515"><ele>281.0</ele><time>2026-04-19T08:41:32.987Z</time></trkpt><trkpt lat="44.5386533" lon="10.36499"><ele>281.0</ele><time>2026-04-19T08:41:33.987Z</time></trkpt><trkpt lat="44.5385767" lon="10.364775"><ele>282.0</ele><time>2026-04-19T08:41:34.987Z</time></trkpt><trkpt lat="44.5384883" lon="10.3645267"><ele>283.0</ele><time>2026-04-19T08:41:35.987Z</time></trkpt><trkpt lat="44.5383967" lon="10.3642733"><ele>284.0</ele><time>2026-04-19T08:41:36.987Z</time></trkpt><trkpt lat="44.538305" lon="10.3640133"><ele>282.33333333333337</ele><time>2026-04-19T08:41:37.987Z</time></trkpt><trkpt lat="44.5382133" lon="10.3637583"><ele>280.6666666666667</ele><time>2026-04-19T08:41:38.987Z</time></trkpt><trkpt lat="44.5381233" lon="10.3635083"><ele>279.0</ele><time>2026-04-19T08:41:39.987Z</time></trkpt><trkpt lat="44.5380317" lon="10.3632483"><ele>276.6666666666667</ele><time>2026-04-19T08:41:40.987Z</time></trkpt><trkpt lat="44.537945" lon="10.3630033"><ele>274.33333333333337</ele><time>2026-04-19T08:41:41.987Z</time></trkpt><trkpt lat="44.53786" lon="10.36277"><ele>272.0</ele><time>2026-04-19T08:41:42.987Z</time></trkpt><trkpt lat="44.5377783" lon="10.3625417"><ele>273.33333333333337</ele><time>2026-04-19T08:41:43.987Z</time></trkpt><trkpt lat="44.5377033" lon="10.36233"><ele>274.6666666666667</ele><time>2026-04-19T08:41:44.987Z</time></trkpt><trkpt lat="44.537615" lon="10.3621217"><ele>276.0</ele><time>2026-04-19T08:41:45.987Z</time></trkpt><trkpt lat="44.5375017" lon="10.3619367"><ele>276.0</ele><time>2026-04-19T08:41:46.987Z</time></trkpt><trkpt lat="44.53736" lon="10.36178"><ele>276.0</ele><time>2026-04-19T08:41:47.987Z</time></trkpt><trkpt lat="44.5372" lon="10.3616433"><ele>276.0</ele><time>2026-04-19T08:41:48.987Z</time></trkpt><trkpt lat="44.5370333" lon="10.3615217"><ele>276.3333333333333</ele><time>2026-04-19T08:41:49.987Z</time></trkpt><trkpt lat="44.5368483" lon="10.3614"><ele>276.66666666666663</ele><time>2026-04-19T08:41:50.987Z</time></trkpt><trkpt lat="44.53666" lon="10.36127"><ele>277.0</ele><time>2026-04-19T08:41:51.987Z</time></trkpt><trkpt lat="44.53647" lon="10.3611417"><ele>275.0</ele><time>2026-04-19T08:41:52.987Z</time></trkpt><trkpt lat="44.53628" lon="10.3610183"><ele>273.0</ele><time>2026-04-19T08:41:53.987Z</time></trkpt><trkpt lat="44.5360967" lon="10.3608983"><ele>271.0</ele><time>2026-04-19T08:41:54.987Z</time></trkpt><trkpt lat="44.5359267" lon="10.36078"><ele>271.0</ele><time>2026-04-19T08:41:55.987Z</time></trkpt><trkpt lat="44.5357633" lon="10.3606583"><ele>271.0</ele><time>2026-04-19T08:41:56.987Z</time></trkpt><trkpt lat="44.5356233" lon="10.3605267"><ele>271.0</ele><time>2026-04-19T08:41:57.987Z</time></trkpt><trkpt lat="44.5355033" lon="10.3603817"><ele>272.3333333333333</ele><time>2026-04-19T08:41:58.987Z</time></trkpt><trkpt lat="44.5354017" lon="10.360205"><ele>273.6666666666667</ele><time>2026-04-19T08:41:59.987Z</time></trkpt><trkpt lat="44.5353133" lon="10.3600067"><ele>275.0</ele><time>2026-04-19T08:42:00.987Z</time></trkpt><trkpt lat="44.53523" lon="10.359785"><ele>273.0</ele><time>2026-04-19T08:42:01.987Z</time></trkpt><trkpt lat="44.5351433" lon="10.3595517"><ele>271.0</ele><time>2026-04-19T08:42:02.987Z</time></trkpt><trkpt lat="44.535055" lon="10.35931"><ele>269.0</ele><time>2026-04-19T08:42:03.987Z</time></trkpt><trkpt lat="44.534965" lon="10.3590867"><ele>269.0</ele><time>2026-04-19T08:42:04.987Z</time></trkpt><trkpt lat="44.5348783" lon="10.35888"><ele>269.0</ele><time>2026-04-19T08:42:05.987Z</time></trkpt><trkpt lat="44.534775" lon="10.3586783"><ele>269.0</ele><time>2026-04-19T08:42:06.987Z</time></trkpt><trkpt lat="44.5346583" lon="10.3584983"><ele>270.0</ele><time>2026-04-19T08:42:07.988Z</time></trkpt><trkpt lat="44.534515" lon="10.3583483"><ele>271.0</ele><time>2026-04-19T08:42:08.987Z</time></trkpt><trkpt lat="44.5343533" lon="10.3582267"><ele>272.0</ele><time>2026-04-19T08:42:09.987Z</time></trkpt><trkpt lat="44.53418" lon="10.3581283"><ele>272.0</ele><time>2026-04-19T08:42:10.987Z</time></trkpt><trkpt lat="44.5339983" lon="10.35804"><ele>272.0</ele><time>2026-04-19T08:42:11.987Z</time></trkpt><trkpt lat="44.53381" lon="10.35795"><ele>272.0</ele><time>2026-04-19T08:42:12.987Z</time></trkpt><trkpt lat="44.53362" lon="10.35785"><ele>271.33333333333337</ele><time>2026-04-19T08:42:13.987Z</time></trkpt><trkpt lat="44.533435" lon="10.357755"><ele>270.6666666666667</ele><time>2026-04-19T08:42:14.987Z</time></trkpt><trkpt lat="44.5332617" lon="10.35764"><ele>270.0</ele><time>2026-04-19T08:42:15.987Z</time></trkpt><trkpt lat="44.5330967" lon="10.3575167"><ele>270.0</ele><time>2026-04-19T08:42:16.987Z</time></trkpt><trkpt lat="44.5329317" lon="10.3573817"><ele>270.0</ele><time>2026-04-19T08:42:17.987Z</time></trkpt><trkpt lat="44.5327667" lon="10.3572483"><ele>270.0</ele><time>2026-04-19T08:42:18.987Z</time></trkpt><trkpt lat="44.5326033" lon="10.3571033"><ele>269.6666666666667</ele><time>2026-04-19T08:42:19.987Z</time></trkpt><trkpt lat="44.53244" lon="10.3569467"><ele>269.33333333333337</ele><time>2026-04-19T08:42:20.987Z</time></trkpt><trkpt lat="44.5322733" lon="10.356785"><ele>269.0</ele><time>2026-04-19T08:42:21.987Z</time></trkpt><trkpt lat="44.5321033" lon="10.3566183"><ele>269.6666666666667</ele><time>2026-04-19T08:42:22.987Z</time></trkpt><trkpt lat="44.53193" lon="10.35645"><ele>270.3333333333333</ele><time>2026-04-19T08:42:23.987Z</time></trkpt><trkpt lat="44.53176" lon="10.356285"><ele>271.0</ele><time>2026-04-19T08:42:24.987Z</time></trkpt><trkpt lat="44.5315933" lon="10.3561217"><ele>271.0</ele><time>2026-04-19T08:42:25.987Z</time></trkpt><trkpt lat="44.53144" lon="10.3559667"><ele>271.0</ele><time>2026-04-19T08:42:26.987Z</time></trkpt><trkpt lat="44.5312833" lon="10.355835"><ele>271.0</ele><time>2026-04-19T08:42:27.987Z</time></trkpt><trkpt lat="44.5311183" lon="10.3557283"><ele>273.66666666666663</ele><time>2026-04-19T08:42:28.987Z</time></trkpt><trkpt lat="44.5309467" lon="10.3556483"><ele>276.3333333333333</ele><time>2026-04-19T08:42:29.987Z</time></trkpt><trkpt lat="44.5307767" lon="10.355595"><ele>279.0</ele><time>2026-04-19T08:42:30.987Z</time></trkpt><trkpt lat="44.5306" lon="10.3555517"><ele>278.3333333333333</ele><time>2026-04-19T08:42:31.987Z</time></trkpt><trkpt lat="44.5304133" lon="10.3555167"><ele>277.66666666666663</ele><time>2026-04-19T08:42:32.987Z</time></trkpt><trkpt lat="44.5302133" lon="10.3554783"><ele>277.0</ele><time>2026-04-19T08:42:33.987Z</time></trkpt><trkpt lat="44.5300283" lon="10.3554433"><ele>277.0</ele><time>2026-04-19T08:42:34.987Z</time></trkpt><trkpt lat="44.5298517" lon="10.3554117"><ele>277.0</ele><time>2026-04-19T08:42:35.987Z</time></trkpt><trkpt lat="44.5296833" lon="10.35538"><ele>277.0</ele><time>2026-04-19T08:42:36.987Z</time></trkpt><trkpt lat="44.5295267" lon="10.3553467"><ele>277.66666666666663</ele><time>2026-04-19T08:42:37.987Z</time></trkpt><trkpt lat="44.5293833" lon="10.3553033"><ele>278.3333333333333</ele><time>2026-04-19T08:42:38.987Z</time></trkpt><trkpt lat="44.529245" lon="10.35522"><ele>279.0</ele><time>2026-04-19T08:42:39.987Z</time></trkpt><trkpt lat="44.5291133" lon="10.3550883"><ele>279.0</ele><time>2026-04-19T08:42:40.987Z</time></trkpt><trkpt lat="44.5289733" lon="10.3549367"><ele>279.0</ele><time>2026-04-19T08:42:41.987Z</time></trkpt><trkpt lat="44.5288317" lon="10.354775"><ele>279.0</ele><time>2026-04-19T08:42:42.987Z</time></trkpt><trkpt lat="44.5286733" lon="10.35466"><ele>278.0</ele><time>2026-04-19T08:42:43.988Z</time></trkpt><trkpt lat="44.5285167" lon="10.35457"><ele>277.0</ele><time>2026-04-19T08:42:44.987Z</time></trkpt><trkpt lat="44.5283633" lon="10.354495"><ele>276.0</ele><time>2026-04-19T08:42:45.987Z</time></trkpt><trkpt lat="44.5282117" lon="10.35443"><ele>276.0</ele><time>2026-04-19T08:42:46.987Z</time></trkpt><trkpt lat="44.52805" lon="10.3543733"><ele>276.0</ele><time>2026-04-19T08:42:47.987Z</time></trkpt><trkpt lat="44.5278817" lon="10.3543083"><ele>276.0</ele><time>2026-04-19T08:42:48.987Z</time></trkpt><trkpt lat="44.52772" lon="10.35425"><ele>278.0</ele><time>2026-04-19T08:42:49.987Z</time></trkpt><trkpt lat="44.527565" lon="10.3541917"><ele>280.0</ele><time>2026-04-19T08:42:50.987Z</time></trkpt><trkpt lat="44.527425" lon="10.354155"><ele>282.0</ele><time>2026-04-19T08:42:51.987Z</time></trkpt><trkpt lat="44.5272767" lon="10.35411"><ele>282.0</ele><time>2026-04-19T08:42:52.987Z</time></trkpt><trkpt lat="44.52714" lon="10.3540783"><ele>282.0</ele><time>2026-04-19T08:42:53.987Z</time></trkpt><trkpt lat="44.5270167" lon="10.354045"><ele>282.0</ele><time>2026-04-19T08:42:54.987Z</time></trkpt><trkpt lat="44.5268983" lon="10.35401"><ele>282.0</ele><time>2026-04-19T08:42:55.987Z</time></trkpt><trkpt lat="44.5267683" lon="10.3539917"><ele>282.0</ele><time>2026-04-19T08:42:56.987Z</time></trkpt><trkpt lat="44.5266233" lon="10.3539767"><ele>282.0</ele><time>2026-04-19T08:42:57.987Z</time></trkpt><trkpt lat="44.5264667" lon="10.3539833"><ele>282.0</ele><time>2026-04-19T08:42:58.987Z</time></trkpt><trkpt lat="44.5263183" lon="10.354"><ele>279.6666666666667</ele><time>2026-04-19T08:42:59.987Z</time></trkpt><trkpt lat="44.526165" lon="10.3540367"><ele>277.33333333333337</ele><time>2026-04-19T08:43:00.987Z</time></trkpt><trkpt lat="44.5260183" lon="10.3540883"><ele>275.0</ele><time>2026-04-19T08:43:01.987Z</time></trkpt><trkpt lat="44.52588" lon="10.35414"><ele>275.0</ele><time>2026-04-19T08:43:02.987Z</time></trkpt><trkpt lat="44.5257417" lon="10.3542067"><ele>275.0</ele><time>2026-04-19T08:43:03.987Z</time></trkpt><trkpt lat="44.52562" lon="10.3542383"><ele>275.0</ele><time>2026-04-19T08:43:04.987Z</time></trkpt><trkpt lat="44.525495" lon="10.35423"><ele>275.0</ele><time>2026-04-19T08:43:05.987Z</time></trkpt><trkpt lat="44.525375" lon="10.3541583"><ele>274.0</ele><time>2026-04-19T08:43:06.987Z</time></trkpt><trkpt lat="44.52526" lon="10.3540233"><ele>273.0</ele><time>2026-04-19T08:43:07.987Z</time></trkpt><trkpt lat="44.5251467" lon="10.353845"><ele>272.0</ele><time>2026-04-19T08:43:08.987Z</time></trkpt><trkpt lat="44.525025" lon="10.3536483"><ele>271.0</ele><time>2026-04-19T08:43:09.987Z</time></trkpt><trkpt lat="44.5248917" lon="10.3534433"><ele>270.0</ele><time>2026-04-19T08:43:10.987Z</time></trkpt><trkpt lat="44.524755" lon="10.3532167"><ele>269.0</ele><time>2026-04-19T08:43:11.987Z</time></trkpt><trkpt lat="44.52462" lon="10.3529983"><ele>268.33333333333337</ele><time>2026-04-19T08:43:12.987Z</time></trkpt><trkpt lat="44.5244917" lon="10.3527967"><ele>267.6666666666667</ele><time>2026-04-19T08:43:13.987Z</time></trkpt><trkpt lat="44.5243767" lon="10.3526167"><ele>267.0</ele><time>2026-04-19T08:43:14.987Z</time></trkpt><trkpt lat="44.524265" lon="10.35244"><ele>267.0</ele><time>2026-04-19T08:43:15.988Z</time></trkpt><trkpt lat="44.5241533" lon="10.35225"><ele>267.0</ele><time>2026-04-19T08:43:16.987Z</time></trkpt><trkpt lat="44.5240367" lon="10.3520567"><ele>267.0</ele><time>2026-04-19T08:43:17.988Z</time></trkpt><trkpt lat="44.5239183" lon="10.3518567"><ele>267.3333333333333</ele><time>2026-04-19T08:43:18.987Z</time></trkpt><trkpt lat="44.5237983" lon="10.35167"><ele>267.66666666666663</ele><time>2026-04-19T08:43:19.987Z</time></trkpt><trkpt lat="44.5236967" lon="10.351485"><ele>268.0</ele><time>2026-04-19T08:43:20.988Z</time></trkpt><trkpt lat="44.5235883" lon="10.3513183"><ele>269.75</ele><time>2026-04-19T08:43:21.987Z</time></trkpt><trkpt lat="44.523495" lon="10.35116"><ele>271.5</ele><time>2026-04-19T08:43:22.987Z</time></trkpt><trkpt lat="44.5234017" lon="10.3510167"><ele>273.25</ele><time>2026-04-19T08:43:23.987Z</time></trkpt><trkpt lat="44.5233133" lon="10.3508733"><ele>275.0</ele><time>2026-04-19T08:43:24.987Z</time></trkpt><trkpt lat="44.5232267" lon="10.3507333"><ele>275.0</ele><time>2026-04-19T08:43:25.987Z</time></trkpt><trkpt lat="44.5231417" lon="10.3505883"><ele>275.0</ele><time>2026-04-19T08:43:26.987Z</time></trkpt><trkpt lat="44.523055" lon="10.3504467"><ele>275.0</ele><time>2026-04-19T08:43:27.987Z</time></trkpt><trkpt lat="44.522965" lon="10.3502833"><ele>275.0</ele><time>2026-04-19T08:43:28.987Z</time></trkpt><trkpt lat="44.5228583" lon="10.3500917"><ele>275.6666666666667</ele><time>2026-04-19T08:43:29.987Z</time></trkpt><trkpt lat="44.522755" lon="10.349885"><ele>276.3333333333333</ele><time>2026-04-19T08:43:30.987Z</time></trkpt><trkpt lat="44.5226617" lon="10.349665"><ele>277.0</ele><time>2026-04-19T08:43:31.987Z</time></trkpt><trkpt lat="44.52259" lon="10.3494367"><ele>277.0</ele><time>2026-04-19T08:43:32.987Z</time></trkpt><trkpt lat="44.522495" lon="10.349235"><ele>277.0</ele><time>2026-04-19T08:43:33.987Z</time></trkpt><trkpt lat="44.5223683" lon="10.3490633"><ele>277.0</ele><time>2026-04-19T08:43:34.987Z</time></trkpt><trkpt lat="44.522205" lon="10.34889"><ele>277.66666666666663</ele><time>2026-04-19T08:43:35.987Z</time></trkpt><trkpt lat="44.5220133" lon="10.348745"><ele>278.3333333333333</ele><time>2026-04-19T08:43:36.987Z</time></trkpt><trkpt lat="44.52184" lon="10.34863"><ele>279.0</ele><time>2026-04-19T08:43:37.987Z</time></trkpt><trkpt lat="44.5216933" lon="10.348505"><ele>279.0</ele><time>2026-04-19T08:43:38.987Z</time></trkpt><trkpt lat="44.521555" lon="10.3483933"><ele>279.0</ele><time>2026-04-19T08:43:39.987Z</time></trkpt><trkpt lat="44.52144" lon="10.348285"><ele>279.0</ele><time>2026-04-19T08:43:40.987Z</time></trkpt><trkpt lat="44.5213233" lon="10.3481717"><ele>279.0</ele><time>2026-04-19T08:43:41.987Z</time></trkpt><trkpt lat="44.5212" lon="10.34804"><ele>280.0</ele><time>2026-04-19T08:43:42.987Z</time></trkpt><trkpt lat="44.5210733" lon="10.3478733"><ele>281.0</ele><time>2026-04-19T08:43:43.987Z</time></trkpt><trkpt lat="44.5209667" lon="10.3476933"><ele>282.0</ele><time>2026-04-19T08:43:44.987Z</time></trkpt><trkpt lat="44.520865" lon="10.3475283"><ele>282.0</ele><time>2026-04-19T08:43:45.987Z</time></trkpt><trkpt lat="44.5207717" lon="10.3473833"><ele>282.0</ele><time>2026-04-19T08:43:46.987Z</time></trkpt><trkpt lat="44.5206717" lon="10.3472317"><ele>282.0</ele><time>2026-04-19T08:43:47.987Z</time></trkpt><trkpt lat="44.5205667" lon="10.34707"><ele>282.0</ele><time>2026-04-19T08:43:48.987Z</time></trkpt><trkpt lat="44.52046" lon="10.3469183"><ele>284.3333333333333</ele><time>2026-04-19T08:43:49.987Z</time></trkpt><trkpt lat="44.5203417" lon="10.346775"><ele>286.66666666666663</ele><time>2026-04-19T08:43:50.987Z</time></trkpt><trkpt lat="44.5202083" lon="10.3466083"><ele>289.0</ele><time>2026-04-19T08:43:51.987Z</time></trkpt><trkpt lat="44.5200683" lon="10.346455"><ele>286.0</ele><time>2026-04-19T08:43:52.987Z</time></trkpt><trkpt lat="44.5199367" lon="10.346325"><ele>283.0</ele><time>2026-04-19T08:43:53.987Z</time></trkpt><trkpt lat="44.5198067" lon="10.346185"><ele>280.0</ele><time>2026-04-19T08:43:54.987Z</time></trkpt><trkpt lat="44.519665" lon="10.3460567"><ele>284.3333333333333</ele><time>2026-04-19T08:43:55.987Z</time></trkpt><trkpt lat="44.5195" lon="10.345915"><ele>288.6666666666667</ele><time>2026-04-19T08:43:56.987Z</time></trkpt><trkpt lat="44.5193117" lon="10.3457633"><ele>293.0</ele><time>2026-04-19T08:43:57.987Z</time></trkpt><trkpt lat="44.5191233" lon="10.3456067"><ele>292.0</ele><time>2026-04-19T08:43:58.987Z</time></trkpt><trkpt lat="44.5189367" lon="10.3454583"><ele>291.0</ele><time>2026-04-19T08:43:59.987Z</time></trkpt><trkpt lat="44.51875" lon="10.345325"><ele>290.0</ele><time>2026-04-19T08:44:00.987Z</time></trkpt><trkpt lat="44.518565" lon="10.3452167"><ele>290.0</ele><time>2026-04-19T08:44:01.987Z</time></trkpt><trkpt lat="44.5183867" lon="10.3451267"><ele>290.0</ele><time>2026-04-19T08:44:02.988Z</time></trkpt><trkpt lat="44.5182183" lon="10.3450517"><ele>290.0</ele><time>2026-04-19T08:44:03.987Z</time></trkpt><trkpt lat="44.518065" lon="10.3449667"><ele>290.0</ele><time>2026-04-19T08:44:04.987Z</time></trkpt><trkpt lat="44.5179183" lon="10.3448467"><ele>290.0</ele><time>2026-04-19T08:44:05.987Z</time></trkpt><trkpt lat="44.5177733" lon="10.34471"><ele>290.0</ele><time>2026-04-19T08:44:06.987Z</time></trkpt><trkpt lat="44.5176433" lon="10.3445683"><ele>289.6666666666667</ele><time>2026-04-19T08:44:07.987Z</time></trkpt><trkpt lat="44.5175333" lon="10.3444167"><ele>289.3333333333333</ele><time>2026-04-19T08:44:08.987Z</time></trkpt><trkpt lat="44.51741" lon="10.3442767"><ele>289.0</ele><time>2026-04-19T08:44:09.987Z</time></trkpt><trkpt lat="44.51726" lon="10.34417"><ele>289.0</ele><time>2026-04-19T08:44:10.987Z</time></trkpt><trkpt lat="44.51709" lon="10.3440767"><ele>289.0</ele><time>2026-04-19T08:44:11.987Z</time></trkpt><trkpt lat="44.5169217" lon="10.343965"><ele>289.0</ele><time>2026-04-19T08:44:12.987Z</time></trkpt><trkpt lat="44.516755" lon="10.3438517"><ele>287.3333333333333</ele><time>2026-04-19T08:44:13.987Z</time></trkpt><trkpt lat="44.5165867" lon="10.3437283"><ele>285.6666666666667</ele><time>2026-04-19T08:44:14.987Z</time></trkpt><trkpt lat="44.5164167" lon="10.34362"><ele>284.0</ele><time>2026-04-19T08:44:15.987Z</time></trkpt><trkpt lat="44.51624" lon="10.34353"><ele>285.6666666666667</ele><time>2026-04-19T08:44:16.987Z</time></trkpt><trkpt lat="44.5160467" lon="10.3434767"><ele>287.3333333333333</ele><time>2026-04-19T08:44:17.987Z</time></trkpt><trkpt lat="44.51584" lon="10.3434317"><ele>289.0</ele><time>2026-04-19T08:44:18.987Z</time></trkpt><trkpt lat="44.5156383" lon="10.3433783"><ele>289.0</ele><time>2026-04-19T08:44:19.987Z</time></trkpt><trkpt lat="44.515435" lon="10.3433233"><ele>289.0</ele><time>2026-04-19T08:44:20.987Z</time></trkpt><trkpt lat="44.5152267" lon="10.3432517"><ele>289.0</ele><time>2026-04-19T08:44:21.987Z</time></trkpt><trkpt lat="44.5150367" lon="10.343195"><ele>288.0</ele><time>2026-04-19T08:44:22.987Z</time></trkpt><trkpt lat="44.5148483" lon="10.34313"><ele>287.0</ele><time>2026-04-19T08:44:23.987Z</time></trkpt><trkpt lat="44.5146667" lon="10.3430683"><ele>286.0</ele><time>2026-04-19T08:44:24.987Z</time></trkpt><trkpt lat="44.5144833" lon="10.3430133"><ele>286.0</ele><time>2026-04-19T08:44:25.987Z</time></trkpt><trkpt lat="44.5143083" lon="10.3429583"><ele>286.0</ele><time>2026-04-19T08:44:26.987Z</time></trkpt><trkpt lat="44.51414" lon="10.3429167"><ele>286.0</ele><time>2026-04-19T08:44:27.987Z</time></trkpt><trkpt lat="44.5139817" lon="10.342875"><ele>286.0</ele><time>2026-04-19T08:44:28.987Z</time></trkpt><trkpt lat="44.513825" lon="10.3428317"><ele>286.0</ele><time>2026-04-19T08:44:29.987Z</time></trkpt><trkpt lat="44.5136617" lon="10.3427717"><ele>286.0</ele><time>2026-04-19T08:44:30.987Z</time></trkpt><trkpt lat="44.51349" lon="10.3427467"><ele>286.66666666666663</ele><time>2026-04-19T08:44:31.987Z</time></trkpt><trkpt lat="44.5133" lon="10.3427133"><ele>287.3333333333333</ele><time>2026-04-19T08:44:32.987Z</time></trkpt><trkpt lat="44.5131017" lon="10.342725"><ele>288.0</ele><time>2026-04-19T08:44:33.987Z</time></trkpt><trkpt lat="44.5129083" lon="10.342755"><ele>288.0</ele><time>2026-04-19T08:44:34.987Z</time></trkpt><trkpt lat="44.5127217" lon="10.3427967"><ele>288.0</ele><time>2026-04-19T08:44:35.987Z</time></trkpt><trkpt lat="44.5125467" lon="10.3428383"><ele>288.0</ele><time>2026-04-19T08:44:36.987Z</time></trkpt><trkpt lat="44.5123633" lon="10.3428367"><ele>288.0</ele><time>2026-04-19T08:44:37.987Z</time></trkpt><trkpt lat="44.5121667" lon="10.3428133"><ele>288.0</ele><time>2026-04-19T08:44:38.987Z</time></trkpt><trkpt lat="44.5119767" lon="10.3427833"><ele>288.0</ele><time>2026-04-19T08:44:39.987Z</time></trkpt><trkpt lat="44.5117883" lon="10.342745"><ele>288.0</ele><time>2026-04-19T08:44:40.987Z</time></trkpt><trkpt lat="44.5115967" lon="10.3427"><ele>288.0</ele><time>2026-04-19T08:44:41.987Z</time></trkpt><trkpt lat="44.51141" lon="10.34266"><ele>288.0</ele><time>2026-04-19T08:44:42.987Z</time></trkpt><trkpt lat="44.511235" lon="10.3426117"><ele>289.3333333333333</ele><time>2026-04-19T08:44:43.987Z</time></trkpt><trkpt lat="44.5110667" lon="10.342575"><ele>290.66666666666663</ele><time>2026-04-19T08:44:44.987Z</time></trkpt><trkpt lat="44.5109033" lon="10.34254"><ele>292.0</ele><time>2026-04-19T08:44:45.987Z</time></trkpt><trkpt lat="44.5107483" lon="10.3425067"><ele>292.0</ele><time>2026-04-19T08:44:46.987Z</time></trkpt><trkpt lat="44.5105917" lon="10.3424667"><ele>292.0</ele><time>2026-04-19T08:44:47.987Z</time></trkpt><trkpt lat="44.51043" lon="10.34242"><ele>292.0</ele><time>2026-04-19T08:44:48.987Z</time></trkpt><trkpt lat="44.5102667" lon="10.3423767"><ele>293.25</ele><time>2026-04-19T08:44:49.987Z</time></trkpt><trkpt lat="44.5101167" lon="10.3423333"><ele>294.5</ele><time>2026-04-19T08:44:50.987Z</time></trkpt><trkpt lat="44.5099717" lon="10.3422983"><ele>295.75</ele><time>2026-04-19T08:44:51.987Z</time></trkpt><trkpt lat="44.5098383" lon="10.34229"><ele>297.0</ele><time>2026-04-19T08:44:52.987Z</time></trkpt><trkpt lat="44.509705" lon="10.3423333"><ele>297.0</ele><time>2026-04-19T08:44:53.987Z</time></trkpt><trkpt lat="44.50958" lon="10.3424333"><ele>297.0</ele><time>2026-04-19T08:44:54.987Z</time></trkpt><trkpt lat="44.5094567" lon="10.3425683"><ele>297.0</ele><time>2026-04-19T08:44:55.987Z</time></trkpt><trkpt lat="44.50934" lon="10.3427"><ele>295.75</ele><time>2026-04-19T08:44:56.988Z</time></trkpt><trkpt lat="44.509225" lon="10.34282"><ele>294.5</ele><time>2026-04-19T08:44:57.987Z</time></trkpt><trkpt lat="44.5091117" lon="10.3429317"><ele>293.25</ele><time>2026-04-19T08:44:58.987Z</time></trkpt><trkpt lat="44.508985" lon="10.34303"><ele>292.0</ele><time>2026-04-19T08:44:59.987Z</time></trkpt><trkpt lat="44.5088617" lon="10.34312"><ele>294.5</ele><time>2026-04-19T08:45:00.987Z</time></trkpt><trkpt lat="44.5087367" lon="10.3432083"><ele>297.0</ele><time>2026-04-19T08:45:01.987Z</time></trkpt><trkpt lat="44.5086217" lon="10.343295"><ele>299.5</ele><time>2026-04-19T08:45:02.987Z</time></trkpt><trkpt lat="44.5085083" lon="10.3433617"><ele>302.0</ele><time>2026-04-19T08:45:03.987Z</time></trkpt><trkpt lat="44.5083933" lon="10.3434133"><ele>302.0</ele><time>2026-04-19T08:45:04.987Z</time></trkpt><trkpt lat="44.508265" lon="10.3434633"><ele>302.0</ele><time>2026-04-19T08:45:05.987Z</time></trkpt><trkpt lat="44.5081233" lon="10.34352"><ele>302.0</ele><time>2026-04-19T08:45:06.987Z</time></trkpt><trkpt lat="44.5079783" lon="10.3435833"><ele>302.0</ele><time>2026-04-19T08:45:07.987Z</time></trkpt><trkpt lat="44.50784" lon="10.3436617"><ele>301.5</ele><time>2026-04-19T08:45:08.987Z</time></trkpt><trkpt lat="44.5077117" lon="10.343725"><ele>301.0</ele><time>2026-04-19T08:45:09.987Z</time></trkpt><trkpt lat="44.50759" lon="10.3437783"><ele>300.5</ele><time>2026-04-19T08:45:10.987Z</time></trkpt><trkpt lat="44.507475" lon="10.3438183"><ele>300.0</ele><time>2026-04-19T08:45:11.987Z</time></trkpt><trkpt lat="44.50736" lon="10.3438567"><ele>302.0</ele><time>2026-04-19T08:45:12.987Z</time></trkpt><trkpt lat="44.5072467" lon="10.34391"><ele>304.0</ele><time>2026-04-19T08:45:13.987Z</time></trkpt><trkpt lat="44.507125" lon="10.343965"><ele>306.0</ele><time>2026-04-19T08:45:14.987Z</time></trkpt><trkpt lat="44.5069983" lon="10.3440083"><ele>308.0</ele><time>2026-04-19T08:45:15.987Z</time></trkpt><trkpt lat="44.5068617" lon="10.344035"><ele>308.0</ele><time>2026-04-19T08:45:16.987Z</time></trkpt><trkpt lat="44.5067167" lon="10.3440533"><ele>308.0</ele><time>2026-04-19T08:45:17.987Z</time></trkpt><trkpt lat="44.5065683" lon="10.3440617"><ele>308.0</ele><time>2026-04-19T08:45:18.987Z</time></trkpt><trkpt lat="44.5064317" lon="10.3440683"><ele>308.0</ele><time>2026-04-19T08:45:19.987Z</time></trkpt><trkpt lat="44.5063083" lon="10.34407"><ele>309.0</ele><time>2026-04-19T08:45:20.987Z</time></trkpt><trkpt lat="44.5061983" lon="10.34406"><ele>310.0</ele><time>2026-04-19T08:45:21.987Z</time></trkpt><trkpt lat="44.506085" lon="10.3440633"><ele>311.0</ele><time>2026-04-19T08:45:22.987Z</time></trkpt><trkpt lat="44.5059733" lon="10.3440733"><ele>312.0</ele><time>2026-04-19T08:45:23.987Z</time></trkpt><trkpt lat="44.505865" lon="10.3440783"><ele>313.0</ele><time>2026-04-19T08:45:24.987Z</time></trkpt><trkpt lat="44.50576" lon="10.3440867"><ele>313.0</ele><time>2026-04-19T08:45:25.987Z</time></trkpt><trkpt lat="44.5056583" lon="10.3440883"><ele>313.0</ele><time>2026-04-19T08:45:26.987Z</time></trkpt><trkpt lat="44.50555" lon="10.3440583"><ele>313.0</ele><time>2026-04-19T08:45:27.987Z</time></trkpt><trkpt lat="44.5054383" lon="10.3439967"><ele>313.0</ele><time>2026-04-19T08:45:28.987Z</time></trkpt><trkpt lat="44.5053333" lon="10.3439133"><ele>313.2</ele><time>2026-04-19T08:45:29.987Z</time></trkpt><trkpt lat="44.505245" lon="10.3438183"><ele>313.4</ele><time>2026-04-19T08:45:30.987Z</time></trkpt><trkpt lat="44.505165" lon="10.3437167"><ele>313.59999999999997</ele><time>2026-04-19T08:45:31.987Z</time></trkpt><trkpt lat="44.5050933" lon="10.3436217"><ele>313.8</ele><time>2026-04-19T08:45:32.987Z</time></trkpt><trkpt lat="44.505015" lon="10.3435183"><ele>314.0</ele><time>2026-04-19T08:45:33.987Z</time></trkpt><trkpt lat="44.5049433" lon="10.3434017"><ele>314.0</ele><time>2026-04-19T08:45:34.987Z</time></trkpt><trkpt lat="44.5048733" lon="10.3432833"><ele>314.0</ele><time>2026-04-19T08:45:35.987Z</time></trkpt><trkpt lat="44.504805" lon="10.34315"><ele>314.0</ele><time>2026-04-19T08:45:36.987Z</time></trkpt><trkpt lat="44.5047467" lon="10.3430067"><ele>314.0</ele><time>2026-04-19T08:45:37.987Z</time></trkpt><trkpt lat="44.504695" lon="10.3428383"><ele>312.5</ele><time>2026-04-19T08:45:38.987Z</time></trkpt><trkpt lat="44.504665" lon="10.3426483"><ele>311.0</ele><time>2026-04-19T08:45:39.987Z</time></trkpt><trkpt lat="44.5046483" lon="10.3424433"><ele>309.5</ele><time>2026-04-19T08:45:40.987Z</time></trkpt><trkpt lat="44.5046383" lon="10.3422583"><ele>308.0</ele><time>2026-04-19T08:45:41.987Z</time></trkpt><trkpt lat="44.504625" lon="10.3420767"><ele>306.75</ele><time>2026-04-19T08:45:42.987Z</time></trkpt><trkpt lat="44.50461" lon="10.341895"><ele>305.5</ele><time>2026-04-19T08:45:43.987Z</time></trkpt><trkpt lat="44.5045833" lon="10.3417267"><ele>304.25</ele><time>2026-04-19T08:45:44.987Z</time></trkpt><trkpt lat="44.5045417" lon="10.34158"><ele>303.0</ele><time>2026-04-19T08:45:45.987Z</time></trkpt><trkpt lat="44.5044983" lon="10.3414383"><ele>309.5</ele><time>2026-04-19T08:45:46.987Z</time></trkpt><trkpt lat="44.5044583" lon="10.341285"><ele>316.0</ele><time>2026-04-19T08:45:47.987Z</time></trkpt><trkpt lat="44.50441" lon="10.341135"><ele>322.5</ele><time>2026-04-19T08:45:48.987Z</time></trkpt><trkpt lat="44.50436" lon="10.341"><ele>329.0</ele><time>2026-04-19T08:45:49.987Z</time></trkpt><trkpt lat="44.504295" lon="10.3408683"><ele>329.0</ele><time>2026-04-19T08:45:50.987Z</time></trkpt><trkpt lat="44.5042167" lon="10.340745"><ele>329.0</ele><time>2026-04-19T08:45:51.987Z</time></trkpt><trkpt lat="44.5041317" lon="10.3406183"><ele>329.0</ele><time>2026-04-19T08:45:52.987Z</time></trkpt><trkpt lat="44.5040583" lon="10.34051"><ele>329.0</ele><time>2026-04-19T08:45:53.987Z</time></trkpt><trkpt lat="44.5039917" lon="10.3404133"><ele>329.0</ele><time>2026-04-19T08:45:54.987Z</time></trkpt><trkpt lat="44.50393" lon="10.3403183"><ele>327.6</ele><time>2026-04-19T08:45:55.987Z</time></trkpt><trkpt lat="44.5038733" lon="10.3402183"><ele>326.2</ele><time>2026-04-19T08:45:56.987Z</time></trkpt><trkpt lat="44.503825" lon="10.3401217"><ele>324.8</ele><time>2026-04-19T08:45:57.988Z</time></trkpt><trkpt lat="44.5037683" lon="10.3400133"><ele>323.40000000000003</ele><time>2026-04-19T08:45:58.987Z</time></trkpt><trkpt lat="44.5036933" lon="10.3399233"><ele>322.0</ele><time>2026-04-19T08:45:59.987Z</time></trkpt><trkpt lat="44.5036067" lon="10.3398617"><ele>322.0</ele><time>2026-04-19T08:46:00.987Z</time></trkpt><trkpt lat="44.50352" lon="10.3398467"><ele>322.0</ele><time>2026-04-19T08:46:01.987Z</time></trkpt><trkpt lat="44.5034333" lon="10.3398683"><ele>322.0</ele><time>2026-04-19T08:46:02.987Z</time></trkpt><trkpt lat="44.5033283" lon="10.3399433"><ele>322.0</ele><time>2026-04-19T08:46:03.987Z</time></trkpt><trkpt lat="44.5032217" lon="10.34006"><ele>322.0</ele><time>2026-04-19T08:46:04.987Z</time></trkpt><trkpt lat="44.5031183" lon="10.34018"><ele>322.0</ele><time>2026-04-19T08:46:05.987Z</time></trkpt><trkpt lat="44.503005" lon="10.3402633"><ele>322.0</ele><time>2026-04-19T08:46:06.987Z</time></trkpt><trkpt lat="44.5028883" lon="10.3403067"><ele>322.0</ele><time>2026-04-19T08:46:07.987Z</time></trkpt><trkpt lat="44.5027717" lon="10.3402867"><ele>322.0</ele><time>2026-04-19T08:46:08.987Z</time></trkpt><trkpt lat="44.5026783" lon="10.3402083"><ele>323.40000000000003</ele><time>2026-04-19T08:46:09.987Z</time></trkpt><trkpt lat="44.5025917" lon="10.3401033"><ele>324.8</ele><time>2026-04-19T08:46:10.987Z</time></trkpt><trkpt lat="44.502515" lon="10.3400033"><ele>326.2</ele><time>2026-04-19T08:46:11.987Z</time></trkpt><trkpt lat="44.5024433" lon="10.339915"><ele>327.6</ele><time>2026-04-19T08:46:12.987Z</time></trkpt><trkpt lat="44.5023667" lon="10.339825"><ele>329.0</ele><time>2026-04-19T08:46:13.987Z</time></trkpt><trkpt lat="44.5022833" lon="10.3397483"><ele>327.0</ele><time>2026-04-19T08:46:14.988Z</time></trkpt><trkpt lat="44.502185" lon="10.3396917"><ele>325.0</ele><time>2026-04-19T08:46:15.987Z</time></trkpt><trkpt lat="44.502075" lon="10.339665"><ele>323.0</ele><time>2026-04-19T08:46:16.987Z</time></trkpt><trkpt lat="44.5019667" lon="10.3396567"><ele>321.0</ele><time>2026-04-19T08:46:17.987Z</time></trkpt><trkpt lat="44.501855" lon="10.33965"><ele>319.0</ele><time>2026-04-19T08:46:18.987Z</time></trkpt><trkpt lat="44.5017433" lon="10.3396467"><ele>319.0</ele><time>2026-04-19T08:46:19.987Z</time></trkpt><trkpt lat="44.5016333" lon="10.3396417"><ele>319.0</ele><time>2026-04-19T08:46:20.987Z</time></trkpt><trkpt lat="44.5015167" lon="10.339625"><ele>319.0</ele><time>2026-04-19T08:46:21.987Z</time></trkpt><trkpt lat="44.5014" lon="10.3396"><ele>319.0</ele><time>2026-04-19T08:46:22.987Z</time></trkpt><trkpt lat="44.5012767" lon="10.3395583"><ele>324.0</ele><time>2026-04-19T08:46:23.987Z</time></trkpt><trkpt lat="44.501155" lon="10.3395083"><ele>329.0</ele><time>2026-04-19T08:46:24.987Z</time></trkpt><trkpt lat="44.50102" lon="10.33943"><ele>334.0</ele><time>2026-04-19T08:46:25.987Z</time></trkpt><trkpt lat="44.50087" lon="10.3393333"><ele>339.0</ele><time>2026-04-19T08:46:26.987Z</time></trkpt><trkpt lat="44.5006983" lon="10.33921"><ele>339.0</ele><time>2026-04-19T08:46:27.987Z</time></trkpt><trkpt lat="44.50053" lon="10.3390783"><ele>339.0</ele><time>2026-04-19T08:46:28.987Z</time></trkpt><trkpt lat="44.5003783" lon="10.3389533"><ele>339.0</ele><time>2026-04-19T08:46:29.987Z</time></trkpt><trkpt lat="44.5002367" lon="10.3388233"><ele>340.0</ele><time>2026-04-19T08:46:30.987Z</time></trkpt><trkpt lat="44.5001117" lon="10.3386717"><ele>341.0</ele><time>2026-04-19T08:46:31.987Z</time></trkpt><trkpt lat="44.5" lon="10.338515"><ele>342.0</ele><time>2026-04-19T08:46:32.987Z</time></trkpt><trkpt lat="44.4999067" lon="10.3383633"><ele>342.0</ele><time>2026-04-19T08:46:33.987Z</time></trkpt><trkpt lat="44.49981" lon="10.3382333"><ele>342.0</ele><time>2026-04-19T08:46:34.988Z</time></trkpt><trkpt lat="44.4997017" lon="10.3381467"><ele>342.0</ele><time>2026-04-19T08:46:35.987Z</time></trkpt><trkpt lat="44.4995967" lon="10.338105"><ele>342.0</ele><time>2026-04-19T08:46:36.987Z</time></trkpt><trkpt lat="44.4994833" lon="10.3381233"><ele>342.0</ele><time>2026-04-19T08:46:37.987Z</time></trkpt><trkpt lat="44.49938" lon="10.3382183"><ele>342.0</ele><time>2026-04-19T08:46:38.987Z</time></trkpt><trkpt lat="44.4992817" lon="10.3383467"><ele>342.0</ele><time>2026-04-19T08:46:39.987Z</time></trkpt><trkpt lat="44.499165" lon="10.338495"><ele>342.0</ele><time>2026-04-19T08:46:40.987Z</time></trkpt><trkpt lat="44.49903" lon="10.3386483"><ele>342.0</ele><time>2026-04-19T08:46:41.987Z</time></trkpt><trkpt lat="44.4988917" lon="10.3387867"><ele>342.0</ele><time>2026-04-19T08:46:42.987Z</time></trkpt><trkpt lat="44.49876" lon="10.3388867"><ele>342.0</ele><time>2026-04-19T08:46:43.987Z</time></trkpt><trkpt lat="44.498625" lon="10.3389833"><ele>348.6666666666667</ele><time>2026-04-19T08:46:44.987Z</time></trkpt><trkpt lat="44.49847" lon="10.3390533"><ele>355.33333333333337</ele><time>2026-04-19T08:46:45.987Z</time></trkpt><trkpt lat="44.49831" lon="10.33908"><ele>362.0</ele><time>2026-04-19T08:46:46.987Z</time></trkpt><trkpt lat="44.4981533" lon="10.3390783"><ele>362.0</ele><time>2026-04-19T08:46:47.987Z</time></trkpt><trkpt lat="44.4979917" lon="10.3390283"><ele>362.0</ele><time>2026-04-19T08:46:48.987Z</time></trkpt><trkpt lat="44.497835" lon="10.338905"><ele>362.0</ele><time>2026-04-19T08:46:49.987Z</time></trkpt><trkpt lat="44.497685" lon="10.3387667"><ele>358.0</ele><time>2026-04-19T08:46:50.987Z</time></trkpt><trkpt lat="44.4975233" lon="10.3386183"><ele>354.0</ele><time>2026-04-19T08:46:51.988Z</time></trkpt><trkpt lat="44.497355" lon="10.3384667"><ele>350.0</ele><time>2026-04-19T08:46:52.987Z</time></trkpt><trkpt lat="44.497175" lon="10.3383317"><ele>344.6666666666667</ele><time>2026-04-19T08:46:53.987Z</time></trkpt><trkpt lat="44.4970033" lon="10.3382267"><ele>339.3333333333333</ele><time>2026-04-19T08:46:54.987Z</time></trkpt><trkpt lat="44.4968367" lon="10.3381283"><ele>334.0</ele><time>2026-04-19T08:46:55.987Z</time></trkpt><trkpt lat="44.4966633" lon="10.3380433"><ele>334.0</ele><time>2026-04-19T08:46:56.987Z</time></trkpt><trkpt lat="44.4964967" lon="10.33797"><ele>334.0</ele><time>2026-04-19T08:46:57.987Z</time></trkpt><trkpt lat="44.4963317" lon="10.3379183"><ele>334.0</ele><time>2026-04-19T08:46:58.987Z</time></trkpt><trkpt lat="44.4961633" lon="10.3378783"><ele>339.0</ele><time>2026-04-19T08:46:59.987Z</time></trkpt><trkpt lat="44.4959967" lon="10.3378417"><ele>344.0</ele><time>2026-04-19T08:47:00.987Z</time></trkpt><trkpt lat="44.4958333" lon="10.3378083"><ele>349.0</ele><time>2026-04-19T08:47:01.987Z</time></trkpt><trkpt lat="44.4956817" lon="10.337775"><ele>349.0</ele><time>2026-04-19T08:47:02.987Z</time></trkpt><trkpt lat="44.495535" lon="10.3377367"><ele>349.0</ele><time>2026-04-19T08:47:03.987Z</time></trkpt><trkpt lat="44.4953967" lon="10.3376933"><ele>349.0</ele><time>2026-04-19T08:47:04.987Z</time></trkpt><trkpt lat="44.4952617" lon="10.337615"><ele>349.0</ele><time>2026-04-19T08:47:05.987Z</time></trkpt><trkpt lat="44.4951383" lon="10.3375183"><ele>353.0</ele><time>2026-04-19T08:47:06.987Z</time></trkpt><trkpt lat="44.4950017" lon="10.3374467"><ele>357.0</ele><time>2026-04-19T08:47:07.987Z</time></trkpt><trkpt lat="44.4948617" lon="10.3373817"><ele>361.0</ele><time>2026-04-19T08:47:08.987Z</time></trkpt><trkpt lat="44.4947117" lon="10.3373467"><ele>365.0</ele><time>2026-04-19T08:47:09.987Z</time></trkpt><trkpt lat="44.49457" lon="10.337325"><ele>363.25</ele><time>2026-04-19T08:47:10.987Z</time></trkpt><trkpt lat="44.4944217" lon="10.3372967"><ele>361.5</ele><time>2026-04-19T08:47:11.987Z</time></trkpt><trkpt lat="44.4942933" lon="10.3372583"><ele>359.75</ele><time>2026-04-19T08:47:12.988Z</time></trkpt><trkpt lat="44.49418" lon="10.3372067"><ele>358.0</ele><time>2026-04-19T08:47:13.987Z</time></trkpt><trkpt lat="44.494075" lon="10.3371367"><ele>358.0</ele><time>2026-04-19T08:47:14.987Z</time></trkpt><trkpt lat="44.49399" lon="10.3370517"><ele>358.0</ele><time>2026-04-19T08:47:15.987Z</time></trkpt><trkpt lat="44.4939217" lon="10.33694"><ele>358.0</ele><time>2026-04-19T08:47:16.987Z</time></trkpt><trkpt lat="44.4938717" lon="10.3368133"><ele>358.0</ele><time>2026-04-19T08:47:17.987Z</time></trkpt><trkpt lat="44.4938383" lon="10.3366533"><ele>358.0</ele><time>2026-04-19T08:47:18.987Z</time></trkpt><trkpt lat="44.4938117" lon="10.3364667"><ele>353.25</ele><time>2026-04-19T08:47:19.987Z</time></trkpt><trkpt lat="44.4937717" lon="10.3363"><ele>348.5</ele><time>2026-04-19T08:47:20.987Z</time></trkpt><trkpt lat="44.493715" lon="10.3361533"><ele>343.75</ele><time>2026-04-19T08:47:21.987Z</time></trkpt><trkpt lat="44.4936333" lon="10.3360117"><ele>339.0</ele><time>2026-04-19T08:47:22.987Z</time></trkpt><trkpt lat="44.4935567" lon="10.3358567"><ele>347.0</ele><time>2026-04-19T08:47:23.987Z</time></trkpt><trkpt lat="44.49349" lon="10.335675"><ele>355.0</ele><time>2026-04-19T08:47:24.987Z</time></trkpt><trkpt lat="44.4934267" lon="10.3354967"><ele>363.0</ele><time>2026-04-19T08:47:25.987Z</time></trkpt><trkpt lat="44.4933767" lon="10.335345"><ele>371.0</ele><time>2026-04-19T08:47:26.987Z</time></trkpt><trkpt lat="44.4933267" lon="10.3352067"><ele>371.0</ele><time>2026-04-19T08:47:27.987Z</time></trkpt><trkpt lat="44.4932833" lon="10.3350633"><ele>371.0</ele><time>2026-04-19T08:47:28.987Z</time></trkpt><trkpt lat="44.4932367" lon="10.3349133"><ele>371.0</ele><time>2026-04-19T08:47:29.987Z</time></trkpt><trkpt lat="44.4932133" lon="10.3347483"><ele>371.0</ele><time>2026-04-19T08:47:30.987Z</time></trkpt><trkpt lat="44.493205" lon="10.33458"><ele>369.5</ele><time>2026-04-19T08:47:31.987Z</time></trkpt><trkpt lat="44.49319" lon="10.3344117"><ele>368.0</ele><time>2026-04-19T08:47:32.987Z</time></trkpt><trkpt lat="44.4931633" lon="10.3342483"><ele>366.5</ele><time>2026-04-19T08:47:33.987Z</time></trkpt><trkpt lat="44.4931067" lon="10.3340983"><ele>365.0</ele><time>2026-04-19T08:47:34.987Z</time></trkpt><trkpt lat="44.4930333" lon="10.333955"><ele>364.0</ele><time>2026-04-19T08:47:35.987Z</time></trkpt><trkpt lat="44.4929717" lon="10.333815"><ele>363.0</ele><time>2026-04-19T08:47:36.987Z</time></trkpt><trkpt lat="44.4929467" lon="10.3336783"><ele>362.0</ele><time>2026-04-19T08:47:37.987Z</time></trkpt><trkpt lat="44.49295" lon="10.3335367"><ele>361.0</ele><time>2026-04-19T08:47:38.987Z</time></trkpt><trkpt lat="44.4929333" lon="10.3333767"><ele>360.0</ele><time>2026-04-19T08:47:39.987Z</time></trkpt><trkpt lat="44.4928967" lon="10.3332217"><ele>359.4</ele><time>2026-04-19T08:47:40.987Z</time></trkpt><trkpt lat="44.4928283" lon="10.3331083"><ele>358.8</ele><time>2026-04-19T08:47:41.987Z</time></trkpt><trkpt lat="44.49274" lon="10.3330417"><ele>358.20000000000005</ele><time>2026-04-19T08:47:42.987Z</time></trkpt><trkpt lat="44.4926417" lon="10.3330183"><ele>357.6</ele><time>2026-04-19T08:47:43.987Z</time></trkpt><trkpt lat="44.4925317" lon="10.3330533"><ele>357.0</ele><time>2026-04-19T08:47:44.987Z</time></trkpt><trkpt lat="44.4924" lon="10.333095"><ele>363.0</ele><time>2026-04-19T08:47:45.987Z</time></trkpt><trkpt lat="44.4922583" lon="10.333125"><ele>369.0</ele><time>2026-04-19T08:47:46.987Z</time></trkpt><trkpt lat="44.49213" lon="10.3331717"><ele>375.0</ele><time>2026-04-19T08:47:47.987Z</time></trkpt><trkpt lat="44.492015" lon="10.333255"><ele>381.0</ele><time>2026-04-19T08:47:48.987Z</time></trkpt><trkpt lat="44.4919167" lon="10.3333733"><ele>381.0</ele><time>2026-04-19T08:47:49.987Z</time></trkpt><trkpt lat="44.4918217" lon="10.3334867"><ele>381.0</ele><time>2026-04-19T08:47:50.987Z</time></trkpt><trkpt lat="44.4916983" lon="10.3335517"><ele>381.0</ele><time>2026-04-19T08:47:51.987Z</time></trkpt><trkpt lat="44.4915333" lon="10.3335633"><ele>381.0</ele><time>2026-04-19T08:47:52.987Z</time></trkpt><trkpt lat="44.49136" lon="10.333575"><ele>383.66666666666663</ele><time>2026-04-19T08:47:53.987Z</time></trkpt><trkpt lat="44.49119" lon="10.3335783"><ele>386.3333333333333</ele><time>2026-04-19T08:47:54.987Z</time></trkpt><trkpt lat="44.4910167" lon="10.3335667"><ele>389.0</ele><time>2026-04-19T08:47:55.987Z</time></trkpt><trkpt lat="44.490845" lon="10.3335233"><ele>389.0</ele><time>2026-04-19T08:47:56.987Z</time></trkpt><trkpt lat="44.490675" lon="10.33348"><ele>389.0</ele><time>2026-04-19T08:47:57.987Z</time></trkpt><trkpt lat="44.4905033" lon="10.333415"><ele>389.0</ele><time>2026-04-19T08:47:58.987Z</time></trkpt><trkpt lat="44.490325" lon="10.3333433"><ele>396.3333333333333</ele><time>2026-04-19T08:47:59.987Z</time></trkpt><trkpt lat="44.4901683" lon="10.33326"><ele>403.66666666666663</ele><time>2026-04-19T08:48:00.987Z</time></trkpt><trkpt lat="44.4900117" lon="10.33318"><ele>411.0</ele><time>2026-04-19T08:48:01.987Z</time></trkpt><trkpt lat="44.48986" lon="10.3330767"><ele>408.33333333333337</ele><time>2026-04-19T08:48:02.987Z</time></trkpt><trkpt lat="44.4897183" lon="10.3329467"><ele>405.6666666666667</ele><time>2026-04-19T08:48:03.987Z</time></trkpt><trkpt lat="44.4895917" lon="10.3327933"><ele>403.0</ele><time>2026-04-19T08:48:04.987Z</time></trkpt><trkpt lat="44.4894833" lon="10.3326383"><ele>403.0</ele><time>2026-04-19T08:48:05.987Z</time></trkpt><trkpt lat="44.4893833" lon="10.3324933"><ele>403.0</ele><time>2026-04-19T08:48:06.987Z</time></trkpt><trkpt lat="44.4892983" lon="10.3323717"><ele>403.0</ele><time>2026-04-19T08:48:07.987Z</time></trkpt><trkpt lat="44.4892083" lon="10.3322833"><ele>403.0</ele><time>2026-04-19T08:48:08.987Z</time></trkpt><trkpt lat="44.4891117" lon="10.33224"><ele>403.0</ele><time>2026-04-19T08:48:09.987Z</time></trkpt><trkpt lat="44.4890067" lon="10.33228"><ele>403.0</ele><time>2026-04-19T08:48:10.987Z</time></trkpt><trkpt lat="44.4888883" lon="10.332365"><ele>403.0</ele><time>2026-04-19T08:48:11.987Z</time></trkpt><trkpt lat="44.48879" lon="10.332495"><ele>403.0</ele><time>2026-04-19T08:48:12.987Z</time></trkpt><trkpt lat="44.4887217" lon="10.332635"><ele>401.25</ele><time>2026-04-19T08:48:13.987Z</time></trkpt><trkpt lat="44.4886967" lon="10.3328033"><ele>399.5</ele><time>2026-04-19T08:48:14.987Z</time></trkpt><trkpt lat="44.4886867" lon="10.3330017"><ele>397.75</ele><time>2026-04-19T08:48:15.987Z</time></trkpt><trkpt lat="44.48865" lon="10.3332133"><ele>396.0</ele><time>2026-04-19T08:48:16.987Z</time></trkpt><trkpt lat="44.4885883" lon="10.333445"><ele>396.0</ele><time>2026-04-19T08:48:17.987Z</time></trkpt><trkpt lat="44.4885133" lon="10.3336733"><ele>396.0</ele><time>2026-04-19T08:48:18.987Z</time></trkpt><trkpt lat="44.4884417" lon="10.3339017"><ele>396.0</ele><time>2026-04-19T08:48:19.987Z</time></trkpt><trkpt lat="44.4883617" lon="10.3341067"><ele>400.0</ele><time>2026-04-19T08:48:20.987Z</time></trkpt><trkpt lat="44.4882917" lon="10.3342867"><ele>404.0</ele><time>2026-04-19T08:48:21.987Z</time></trkpt><trkpt lat="44.488225" lon="10.33445"><ele>408.0</ele><time>2026-04-19T08:48:22.987Z</time></trkpt><trkpt lat="44.4881367" lon="10.3346033"><ele>412.0</ele><time>2026-04-19T08:48:23.987Z</time></trkpt><trkpt lat="44.4880183" lon="10.3347167"><ele>413.6666666666667</ele><time>2026-04-19T08:48:24.987Z</time></trkpt><trkpt lat="44.4878617" lon="10.3347833"><ele>415.33333333333337</ele><time>2026-04-19T08:48:25.987Z</time></trkpt><trkpt lat="44.4877033" lon="10.33487"><ele>417.0</ele><time>2026-04-19T08:48:26.987Z</time></trkpt><trkpt lat="44.4875567" lon="10.3349883"><ele>417.0</ele><time>2026-04-19T08:48:27.987Z</time></trkpt><trkpt lat="44.4874217" lon="10.3351083"><ele>417.0</ele><time>2026-04-19T08:48:28.987Z</time></trkpt><trkpt lat="44.4872833" lon="10.3352083"><ele>417.0</ele><time>2026-04-19T08:48:29.987Z</time></trkpt><trkpt lat="44.4871367" lon="10.3352517"><ele>417.66666666666663</ele><time>2026-04-19T08:48:30.987Z</time></trkpt><trkpt lat="44.486975" lon="10.3352483"><ele>418.3333333333333</ele><time>2026-04-19T08:48:31.987Z</time></trkpt><trkpt lat="44.4867983" lon="10.335205"><ele>419.0</ele><time>2026-04-19T08:48:32.987Z</time></trkpt><trkpt lat="44.4866067" lon="10.335155"><ele>419.0</ele><time>2026-04-19T08:48:33.988Z</time></trkpt><trkpt lat="44.4864317" lon="10.3351167"><ele>419.0</ele><time>2026-04-19T08:48:34.987Z</time></trkpt><trkpt lat="44.486275" lon="10.335085"><ele>419.0</ele><time>2026-04-19T08:48:35.987Z</time></trkpt><trkpt lat="44.48613" lon="10.3350483"><ele>420.75</ele><time>2026-04-19T08:48:36.987Z</time></trkpt><trkpt lat="44.485995" lon="10.335015"><ele>422.5</ele><time>2026-04-19T08:48:37.987Z</time></trkpt><trkpt lat="44.4858633" lon="10.3349833"><ele>424.25</ele><time>2026-04-19T08:48:38.987Z</time></trkpt><trkpt lat="44.4857317" lon="10.33497"><ele>426.0</ele><time>2026-04-19T08:48:39.987Z</time></trkpt><trkpt lat="44.4855983" lon="10.3349817"><ele>426.0</ele><time>2026-04-19T08:48:40.987Z</time></trkpt><trkpt lat="44.4854767" lon="10.335025"><ele>426.0</ele><time>2026-04-19T08:48:41.987Z</time></trkpt><trkpt lat="44.4853717" lon="10.3350967"><ele>426.0</ele><time>2026-04-19T08:48:42.987Z</time></trkpt><trkpt lat="44.485275" lon="10.335175"><ele>426.0</ele><time>2026-04-19T08:48:43.987Z</time></trkpt><trkpt lat="44.4851717" lon="10.3352383"><ele>425.0</ele><time>2026-04-19T08:48:44.987Z</time></trkpt><trkpt lat="44.48506" lon="10.335265"><ele>424.0</ele><time>2026-04-19T08:48:45.987Z</time></trkpt><trkpt lat="44.48495" lon="10.33526"><ele>423.0</ele><time>2026-04-19T08:48:46.987Z</time></trkpt><trkpt lat="44.4848467" lon="10.3352283"><ele>422.0</ele><time>2026-04-19T08:48:47.988Z</time></trkpt><trkpt lat="44.4847383" lon="10.3352067"><ele>421.0</ele><time>2026-04-19T08:48:48.987Z</time></trkpt><trkpt lat="44.4846267" lon="10.3351983"><ele>422.0</ele><time>2026-04-19T08:48:49.987Z</time></trkpt><trkpt lat="44.48452" lon="10.3352233"><ele>423.0</ele><time>2026-04-19T08:48:50.987Z</time></trkpt><trkpt lat="44.48442" lon="10.33526"><ele>424.0</ele><time>2026-04-19T08:48:51.988Z</time></trkpt><trkpt lat="44.4843317" lon="10.3352933"><ele>425.0</ele><time>2026-04-19T08:48:52.987Z</time></trkpt><trkpt lat="44.4842533" lon="10.3353183"><ele>426.0</ele><time>2026-04-19T08:48:53.987Z</time></trkpt><trkpt lat="44.4841783" lon="10.3353467"><ele>426.0</ele><time>2026-04-19T08:48:54.987Z</time></trkpt><trkpt lat="44.4841017" lon="10.3353833"><ele>426.0</ele><time>2026-04-19T08:48:55.987Z</time></trkpt><trkpt lat="44.4840283" lon="10.3354267"><ele>426.0</ele><time>2026-04-19T08:48:56.987Z</time></trkpt><trkpt lat="44.4839583" lon="10.335475"><ele>426.0</ele><time>2026-04-19T08:48:57.987Z</time></trkpt><trkpt lat="44.4839017" lon="10.33555"><ele>426.0</ele><time>2026-04-19T08:48:58.987Z</time></trkpt><trkpt lat="44.4838483" lon="10.3356533"><ele>426.0</ele><time>2026-04-19T08:48:59.987Z</time></trkpt><trkpt lat="44.4838" lon="10.3357867"><ele>429.0</ele><time>2026-04-19T08:49:00.987Z</time></trkpt><trkpt lat="44.4837567" lon="10.3359417"><ele>432.0</ele><time>2026-04-19T08:49:01.987Z</time></trkpt><trkpt lat="44.48372" lon="10.336095"><ele>435.0</ele><time>2026-04-19T08:49:02.987Z</time></trkpt><trkpt lat="44.4836983" lon="10.3362567"><ele>438.0</ele><time>2026-04-19T08:49:03.987Z</time></trkpt><trkpt lat="44.4836883" lon="10.336425"><ele>438.0</ele><time>2026-04-19T08:49:04.987Z</time></trkpt><trkpt lat="44.4836933" lon="10.33659"><ele>438.0</ele><time>2026-04-19T08:49:05.987Z</time></trkpt><trkpt lat="44.4837233" lon="10.3367567"><ele>438.0</ele><time>2026-04-19T08:49:06.987Z</time></trkpt><trkpt lat="44.48377" lon="10.3369083"><ele>438.0</ele><time>2026-04-19T08:49:07.987Z</time></trkpt><trkpt lat="44.483815" lon="10.3370583"><ele>438.5</ele><time>2026-04-19T08:49:08.987Z</time></trkpt><trkpt lat="44.4838567" lon="10.33721"><ele>439.0</ele><time>2026-04-19T08:49:09.987Z</time></trkpt><trkpt lat="44.48389" lon="10.3373667"><ele>439.5</ele><time>2026-04-19T08:49:10.987Z</time></trkpt><trkpt lat="44.4839167" lon="10.3375217"><ele>440.0</ele><time>2026-04-19T08:49:11.987Z</time></trkpt><trkpt lat="44.4839167" lon="10.3376733"><ele>439.99999999999994</ele><time>2026-04-19T08:49:12.987Z</time></trkpt><trkpt lat="44.4839017" lon="10.337805"><ele>440.0</ele><time>2026-04-19T08:49:13.987Z</time></trkpt><trkpt lat="44.4838767" lon="10.3379267"><ele>440.0</ele><time>2026-04-19T08:49:14.987Z</time></trkpt><trkpt lat="44.4838567" lon="10.3380467"><ele>440.0</ele><time>2026-04-19T08:49:15.987Z</time></trkpt><trkpt lat="44.48384" lon="10.3381683"><ele>439.99999999999994</ele><time>2026-04-19T08:49:16.987Z</time></trkpt><trkpt lat="44.4838217" lon="10.3382817"><ele>440.0</ele><time>2026-04-19T08:49:17.987Z</time></trkpt><trkpt lat="44.4838033" lon="10.33839"><ele>440.16666666666663</ele><time>2026-04-19T08:49:18.987Z</time></trkpt><trkpt lat="44.4837867" lon="10.33849"><ele>440.3333333333333</ele><time>2026-04-19T08:49:19.987Z</time></trkpt><trkpt lat="44.4837683" lon="10.3385833"><ele>440.5</ele><time>2026-04-19T08:49:20.987Z</time></trkpt><trkpt lat="44.4837483" lon="10.3387333"><ele>440.66666666666663</ele><time>2026-04-19T08:49:22.987Z</time></trkpt><trkpt lat="44.48373" lon="10.33882"><ele>440.8333333333333</ele><time>2026-04-19T08:49:23.987Z</time></trkpt><trkpt lat="44.483695" lon="10.3389767"><ele>441.0</ele><time>2026-04-19T08:49:25.987Z</time></trkpt><trkpt lat="44.483645" lon="10.339135"><ele>441.0</ele><time>2026-04-19T08:49:27.987Z</time></trkpt><trkpt lat="44.4836033" lon="10.3392233"><ele>441.0</ele><time>2026-04-19T08:49:28.987Z</time></trkpt><trkpt lat="44.4835583" lon="10.33931"><ele>441.0</ele><time>2026-04-19T08:49:29.987Z</time></trkpt><trkpt lat="44.4834933" lon="10.3393933"><ele>441.0</ele><time>2026-04-19T08:49:30.987Z</time></trkpt><trkpt lat="44.48342" lon="10.3394683"><ele>441.0</ele><time>2026-04-19T08:49:31.987Z</time></trkpt><trkpt lat="44.48333" lon="10.33954"><ele>441.0</ele><time>2026-04-19T08:49:32.988Z</time></trkpt><trkpt lat="44.4832417" lon="10.3396283"><ele>441.0</ele><time>2026-04-19T08:49:33.987Z</time></trkpt><trkpt lat="44.48314" lon="10.3397067"><ele>441.0</ele><time>2026-04-19T08:49:34.987Z</time></trkpt><trkpt lat="44.483025" lon="10.339775"><ele>441.0</ele><time>2026-04-19T08:49:35.987Z</time></trkpt><trkpt lat="44.4829083" lon="10.339795"><ele>441.0</ele><time>2026-04-19T08:49:36.987Z</time></trkpt><trkpt lat="44.4827817" lon="10.33978"><ele>441.25</ele><time>2026-04-19T08:49:37.987Z</time></trkpt><trkpt lat="44.4826567" lon="10.339735"><ele>441.5</ele><time>2026-04-19T08:49:38.987Z</time></trkpt><trkpt lat="44.4825467" lon="10.3396883"><ele>441.75</ele><time>2026-04-19T08:49:39.987Z</time></trkpt><trkpt lat="44.48244" lon="10.339605"><ele>442.0</ele><time>2026-04-19T08:49:40.987Z</time></trkpt><trkpt lat="44.4823467" lon="10.339495"><ele>442.0</ele><time>2026-04-19T08:49:41.987Z</time></trkpt><trkpt lat="44.4822583" lon="10.3393567"><ele>442.0</ele><time>2026-04-19T08:49:42.987Z</time></trkpt><trkpt lat="44.48217" lon="10.3392033"><ele>442.0</ele><time>2026-04-19T08:49:43.988Z</time></trkpt><trkpt lat="44.48209" lon="10.3390233"><ele>442.0</ele><time>2026-04-19T08:49:44.987Z</time></trkpt><trkpt lat="44.4820083" lon="10.338855"><ele>444.5</ele><time>2026-04-19T08:49:45.986Z</time></trkpt><trkpt lat="44.4819183" lon="10.3386817"><ele>447.0</ele><time>2026-04-19T08:49:46.986Z</time></trkpt><trkpt lat="44.4818333" lon="10.3385367"><ele>449.5</ele><time>2026-04-19T08:49:47.986Z</time></trkpt><trkpt lat="44.4817533" lon="10.3384033"><ele>452.0</ele><time>2026-04-19T08:49:48.986Z</time></trkpt><trkpt lat="44.4816767" lon="10.338275"><ele>452.0</ele><time>2026-04-19T08:49:49.986Z</time></trkpt><trkpt lat="44.4816067" lon="10.33816"><ele>452.00000000000006</ele><time>2026-04-19T08:49:50.986Z</time></trkpt><trkpt lat="44.481535" lon="10.3380517"><ele>452.00000000000006</ele><time>2026-04-19T08:49:51.986Z</time></trkpt><trkpt lat="44.48147" lon="10.3379467"><ele>452.0</ele><time>2026-04-19T08:49:52.986Z</time></trkpt><trkpt lat="44.4814" lon="10.3378267"><ele>452.0</ele><time>2026-04-19T08:49:53.986Z</time></trkpt><trkpt lat="44.4813367" lon="10.3377067"><ele>453.16666666666663</ele><time>2026-04-19T08:49:54.986Z</time></trkpt><trkpt lat="44.4812917" lon="10.3375933"><ele>454.3333333333333</ele><time>2026-04-19T08:49:55.986Z</time></trkpt><trkpt lat="44.481255" lon="10.3374833"><ele>455.5</ele><time>2026-04-19T08:49:56.986Z</time></trkpt><trkpt lat="44.4812233" lon="10.3373817"><ele>456.66666666666663</ele><time>2026-04-19T08:49:57.986Z</time></trkpt><trkpt lat="44.4811933" lon="10.337295"><ele>457.8333333333333</ele><time>2026-04-19T08:49:58.986Z</time></trkpt><trkpt lat="44.4811467" lon="10.33715"><ele>459.0</ele><time>2026-04-19T08:50:00.986Z</time></trkpt><trkpt lat="44.4811117" lon="10.3369833"><ele>459.0</ele><time>2026-04-19T08:50:02.986Z</time></trkpt><trkpt lat="44.4811" lon="10.33687"><ele>459.0</ele><time>2026-04-19T08:50:03.986Z</time></trkpt><trkpt lat="44.48109" lon="10.3367483"><ele>459.0</ele><time>2026-04-19T08:50:04.986Z</time></trkpt><trkpt lat="44.4810583" lon="10.336625"><ele>459.0</ele><time>2026-04-19T08:50:05.986Z</time></trkpt><trkpt lat="44.481" lon="10.3364883"><ele>459.0</ele><time>2026-04-19T08:50:06.986Z</time></trkpt><trkpt lat="44.4809233" lon="10.33635"><ele>456.5</ele><time>2026-04-19T08:50:07.986Z</time></trkpt><trkpt lat="44.480825" lon="10.33623"><ele>454.0</ele><time>2026-04-19T08:50:08.986Z</time></trkpt><trkpt lat="44.4807067" lon="10.3361233"><ele>451.5</ele><time>2026-04-19T08:50:09.986Z</time></trkpt><trkpt lat="44.4805633" lon="10.3360283"><ele>449.0</ele><time>2026-04-19T08:50:10.986Z</time></trkpt><trkpt lat="44.4804117" lon="10.3359367"><ele>449.0</ele><time>2026-04-19T08:50:11.986Z</time></trkpt><trkpt lat="44.48024" lon="10.3358383"><ele>449.0</ele><time>2026-04-19T08:50:12.986Z</time></trkpt><trkpt lat="44.4800733" lon="10.3357283"><ele>449.0</ele><time>2026-04-19T08:50:13.986Z</time></trkpt><trkpt lat="44.4799067" lon="10.3356317"><ele>446.0</ele><time>2026-04-19T08:50:14.986Z</time></trkpt><trkpt lat="44.4797583" lon="10.33554"><ele>443.0</ele><time>2026-04-19T08:50:15.986Z</time></trkpt><trkpt lat="44.4796183" lon="10.335435"><ele>440.0</ele><time>2026-04-19T08:50:16.986Z</time></trkpt><trkpt lat="44.479485" lon="10.3353183"><ele>440.0</ele><time>2026-04-19T08:50:17.986Z</time></trkpt><trkpt lat="44.4793533" lon="10.33516"><ele>440.0</ele><time>2026-04-19T08:50:18.986Z</time></trkpt><trkpt lat="44.4792333" lon="10.3349967"><ele>440.0</ele><time>2026-04-19T08:50:19.986Z</time></trkpt><trkpt lat="44.4791017" lon="10.3348067"><ele>439.3333333333333</ele><time>2026-04-19T08:50:20.986Z</time></trkpt><trkpt lat="44.4789817" lon="10.3345967"><ele>438.66666666666663</ele><time>2026-04-19T08:50:21.986Z</time></trkpt><trkpt lat="44.478865" lon="10.3343833"><ele>438.0</ele><time>2026-04-19T08:50:22.986Z</time></trkpt><trkpt lat="44.47873" lon="10.3341533"><ele>438.0</ele><time>2026-04-19T08:50:23.986Z</time></trkpt><trkpt lat="44.4785883" lon="10.333915"><ele>438.0</ele><time>2026-04-19T08:50:24.986Z</time></trkpt><trkpt lat="44.4784467" lon="10.333665"><ele>438.0</ele><time>2026-04-19T08:50:25.986Z</time></trkpt><trkpt lat="44.4783167" lon="10.333435"><ele>434.66666666666663</ele><time>2026-04-19T08:50:26.986Z</time></trkpt><trkpt lat="44.4781917" lon="10.333215"><ele>431.3333333333333</ele><time>2026-04-19T08:50:27.986Z</time></trkpt><trkpt lat="44.478065" lon="10.333"><ele>428.0</ele><time>2026-04-19T08:50:28.986Z</time></trkpt><trkpt lat="44.47794" lon="10.3327883"><ele>427.3333333333333</ele><time>2026-04-19T08:50:29.986Z</time></trkpt><trkpt lat="44.4778117" lon="10.332575"><ele>426.66666666666663</ele><time>2026-04-19T08:50:30.986Z</time></trkpt><trkpt lat="44.4776933" lon="10.3323667"><ele>426.0</ele><time>2026-04-19T08:50:31.987Z</time></trkpt><trkpt lat="44.477575" lon="10.3321717"><ele>423.66666666666663</ele><time>2026-04-19T08:50:32.986Z</time></trkpt><trkpt lat="44.47744" lon="10.3319733"><ele>421.3333333333333</ele><time>2026-04-19T08:50:33.986Z</time></trkpt><trkpt lat="44.47729" lon="10.3317917"><ele>419.0</ele><time>2026-04-19T08:50:34.986Z</time></trkpt><trkpt lat="44.4771233" lon="10.331625"><ele>418.0</ele><time>2026-04-19T08:50:35.986Z</time></trkpt><trkpt lat="44.47694" lon="10.3314567"><ele>417.0</ele><time>2026-04-19T08:50:36.986Z</time></trkpt><trkpt lat="44.4767583" lon="10.3312833"><ele>416.0</ele><time>2026-04-19T08:50:37.986Z</time></trkpt><trkpt lat="44.4765817" lon="10.3310983"><ele>416.0</ele><time>2026-04-19T08:50:38.986Z</time></trkpt><trkpt lat="44.4764217" lon="10.3309167"><ele>416.0</ele><time>2026-04-19T08:50:39.986Z</time></trkpt><trkpt lat="44.4762817" lon="10.3307467"><ele>416.0</ele><time>2026-04-19T08:50:40.986Z</time></trkpt><trkpt lat="44.47616" lon="10.3305983"><ele>416.5</ele><time>2026-04-19T08:50:41.986Z</time></trkpt><trkpt lat="44.4760467" lon="10.3304717"><ele>417.0</ele><time>2026-04-19T08:50:42.986Z</time></trkpt><trkpt lat="44.4759267" lon="10.3303633"><ele>417.5</ele><time>2026-04-19T08:50:43.986Z</time></trkpt><trkpt lat="44.4757917" lon="10.3302867"><ele>418.0</ele><time>2026-04-19T08:50:44.986Z</time></trkpt><trkpt lat="44.4756483" lon="10.33024"><ele>418.0</ele><time>2026-04-19T08:50:45.986Z</time></trkpt><trkpt lat="44.4755117" lon="10.3302217"><ele>418.0</ele><time>2026-04-19T08:50:46.986Z</time></trkpt><trkpt lat="44.4753917" lon="10.3302117"><ele>418.0</ele><time>2026-04-19T08:50:47.986Z</time></trkpt><trkpt lat="44.4752867" lon="10.330195"><ele>418.0</ele><time>2026-04-19T08:50:48.986Z</time></trkpt><trkpt lat="44.4752067" lon="10.330155"><ele>418.0</ele><time>2026-04-19T08:50:49.986Z</time></trkpt><trkpt lat="44.475145" lon="10.330095"><ele>418.79999999999995</ele><time>2026-04-19T08:50:50.986Z</time></trkpt><trkpt lat="44.47511" lon="10.329985"><ele>419.6</ele><time>2026-04-19T08:50:51.987Z</time></trkpt><trkpt lat="44.4751017" lon="10.32986"><ele>420.4</ele><time>2026-04-19T08:50:52.986Z</time></trkpt><trkpt lat="44.475155" lon="10.32973"><ele>421.20000000000005</ele><time>2026-04-19T08:50:53.986Z</time></trkpt><trkpt lat="44.4752383" lon="10.3296167"><ele>422.0</ele><time>2026-04-19T08:50:54.986Z</time></trkpt><trkpt lat="44.475345" lon="10.3295383"><ele>422.3333333333333</ele><time>2026-04-19T08:50:55.986Z</time></trkpt><trkpt lat="44.4754833" lon="10.329465"><ele>422.66666666666663</ele><time>2026-04-19T08:50:56.986Z</time></trkpt><trkpt lat="44.4756317" lon="10.329395"><ele>423.0</ele><time>2026-04-19T08:50:57.986Z</time></trkpt><trkpt lat="44.4758017" lon="10.3293033"><ele>423.0</ele><time>2026-04-19T08:50:58.986Z</time></trkpt><trkpt lat="44.4759717" lon="10.3292083"><ele>423.0</ele><time>2026-04-19T08:50:59.986Z</time></trkpt><trkpt lat="44.47613" lon="10.32911"><ele>423.0</ele><time>2026-04-19T08:51:00.986Z</time></trkpt><trkpt lat="44.4762817" lon="10.32903"><ele>423.25</ele><time>2026-04-19T08:51:01.986Z</time></trkpt><trkpt lat="44.4764183" lon="10.3289583"><ele>423.5</ele><time>2026-04-19T08:51:02.986Z</time></trkpt><trkpt lat="44.4765417" lon="10.3288917"><ele>423.75</ele><time>2026-04-19T08:51:03.986Z</time></trkpt><trkpt lat="44.47664" lon="10.3288217"><ele>424.0</ele><time>2026-04-19T08:51:04.986Z</time></trkpt><trkpt lat="44.4767083" lon="10.3287283"><ele>424.25</ele><time>2026-04-19T08:51:05.986Z</time></trkpt><trkpt lat="44.47675" lon="10.3286067"><ele>424.5</ele><time>2026-04-19T08:51:06.986Z</time></trkpt><trkpt lat="44.4767617" lon="10.3284533"><ele>424.75</ele><time>2026-04-19T08:51:07.986Z</time></trkpt><trkpt lat="44.47673" lon="10.32829"><ele>425.0</ele><time>2026-04-19T08:51:08.987Z</time></trkpt><trkpt lat="44.47667" lon="10.328115"><ele>422.3333333333333</ele><time>2026-04-19T08:51:09.986Z</time></trkpt><trkpt lat="44.4765983" lon="10.3279233"><ele>419.66666666666663</ele><time>2026-04-19T08:51:10.986Z</time></trkpt><trkpt lat="44.4765133" lon="10.3277183"><ele>417.0</ele><time>2026-04-19T08:51:11.986Z</time></trkpt><trkpt lat="44.4764333" lon="10.3275167"><ele>417.0</ele><time>2026-04-19T08:51:12.986Z</time></trkpt><trkpt lat="44.4763633" lon="10.3273367"><ele>417.0</ele><time>2026-04-19T08:51:13.986Z</time></trkpt><trkpt lat="44.4763133" lon="10.3271967"><ele>417.0</ele><time>2026-04-19T08:51:14.986Z</time></trkpt><trkpt lat="44.4762717" lon="10.3270833"><ele>417.0</ele><time>2026-04-19T08:51:15.986Z</time></trkpt><trkpt lat="44.4762467" lon="10.3269833"><ele>417.0</ele><time>2026-04-19T08:51:16.986Z</time></trkpt><trkpt lat="44.476245" lon="10.3268783"><ele>415.40000000000003</ele><time>2026-04-19T08:51:17.986Z</time></trkpt><trkpt lat="44.4763" lon="10.3268083"><ele>413.8</ele><time>2026-04-19T08:51:18.986Z</time></trkpt><trkpt lat="44.4763767" lon="10.3267933"><ele>412.2</ele><time>2026-04-19T08:51:19.986Z</time></trkpt><trkpt lat="44.4764483" lon="10.3268683"><ele>410.6</ele><time>2026-04-19T08:51:20.986Z</time></trkpt><trkpt lat="44.476515" lon="10.3269883"><ele>409.0</ele><time>2026-04-19T08:51:21.986Z</time></trkpt><trkpt lat="44.4765867" lon="10.3271433"><ele>411.0</ele><time>2026-04-19T08:51:22.986Z</time></trkpt><trkpt lat="44.4766717" lon="10.3272733"><ele>413.0</ele><time>2026-04-19T08:51:23.986Z</time></trkpt><trkpt lat="44.4767817" lon="10.3273733"><ele>415.0</ele><time>2026-04-19T08:51:24.986Z</time></trkpt><trkpt lat="44.47691" lon="10.3274183"><ele>417.0</ele><time>2026-04-19T08:51:25.986Z</time></trkpt><trkpt lat="44.4770417" lon="10.32743"><ele>417.5</ele><time>2026-04-19T08:51:26.986Z</time></trkpt><trkpt lat="44.4771683" lon="10.3274233"><ele>418.0</ele><time>2026-04-19T08:51:27.986Z</time></trkpt><trkpt lat="44.4773017" lon="10.3273817"><ele>418.5</ele><time>2026-04-19T08:51:28.986Z</time></trkpt><trkpt lat="44.4774283" lon="10.32733"><ele>419.0</ele><time>2026-04-19T08:51:29.986Z</time></trkpt><trkpt lat="44.4775383" lon="10.32726"><ele>415.6</ele><time>2026-04-19T08:51:30.986Z</time></trkpt><trkpt lat="44.47763" lon="10.327185"><ele>412.2</ele><time>2026-04-19T08:51:31.986Z</time></trkpt><trkpt lat="44.4776983" lon="10.3270967"><ele>408.8</ele><time>2026-04-19T08:51:32.986Z</time></trkpt><trkpt lat="44.47774" lon="10.3269917"><ele>405.40000000000003</ele><time>2026-04-19T08:51:33.986Z</time></trkpt><trkpt lat="44.477745" lon="10.326875"><ele>402.0</ele><time>2026-04-19T08:51:34.986Z</time></trkpt><trkpt lat="44.477695" lon="10.326785"><ele>402.0</ele><time>2026-04-19T08:51:35.986Z</time></trkpt><trkpt lat="44.47761" lon="10.3267483"><ele>402.0</ele><time>2026-04-19T08:51:36.986Z</time></trkpt><trkpt lat="44.4775133" lon="10.3267667"><ele>402.0</ele><time>2026-04-19T08:51:37.986Z</time></trkpt><trkpt lat="44.47741" lon="10.32681"><ele>402.0</ele><time>2026-04-19T08:51:38.986Z</time></trkpt><trkpt lat="44.4772983" lon="10.3268333"><ele>402.0</ele><time>2026-04-19T08:51:39.986Z</time></trkpt><trkpt lat="44.477175" lon="10.326805"><ele>400.5</ele><time>2026-04-19T08:51:40.986Z</time></trkpt><trkpt lat="44.4770583" lon="10.3267083"><ele>399.0</ele><time>2026-04-19T08:51:41.986Z</time></trkpt><trkpt lat="44.4769383" lon="10.3265717"><ele>397.5</ele><time>2026-04-19T08:51:42.986Z</time></trkpt><trkpt lat="44.4768217" lon="10.3264467"><ele>396.0</ele><time>2026-04-19T08:51:43.986Z</time></trkpt><trkpt lat="44.476715" lon="10.3263133"><ele>396.0</ele><time>2026-04-19T08:51:44.986Z</time></trkpt><trkpt lat="44.4766067" lon="10.32617"><ele>396.0</ele><time>2026-04-19T08:51:45.986Z</time></trkpt><trkpt lat="44.47652" lon="10.326005"><ele>396.0</ele><time>2026-04-19T08:51:46.986Z</time></trkpt><trkpt lat="44.476465" lon="10.3258217"><ele>396.0</ele><time>2026-04-19T08:51:47.986Z</time></trkpt><trkpt lat="44.4764367" lon="10.3255933"><ele>393.66666666666663</ele><time>2026-04-19T08:51:48.986Z</time></trkpt><trkpt lat="44.4764167" lon="10.3253633"><ele>391.3333333333333</ele><time>2026-04-19T08:51:49.986Z</time></trkpt><trkpt lat="44.4763917" lon="10.32514"><ele>389.0</ele><time>2026-04-19T08:51:50.986Z</time></trkpt><trkpt lat="44.4763683" lon="10.32493"><ele>390.5</ele><time>2026-04-19T08:51:51.986Z</time></trkpt><trkpt lat="44.4763483" lon="10.3247167"><ele>392.0</ele><time>2026-04-19T08:51:52.986Z</time></trkpt><trkpt lat="44.4763217" lon="10.324515"><ele>393.5</ele><time>2026-04-19T08:51:53.986Z</time></trkpt><trkpt lat="44.4762733" lon="10.324335"><ele>395.0</ele><time>2026-04-19T08:51:54.986Z</time></trkpt><trkpt lat="44.4762117" lon="10.3241717"><ele>395.0</ele><time>2026-04-19T08:51:55.986Z</time></trkpt><trkpt lat="44.47615" lon="10.3240283"><ele>395.0</ele><time>2026-04-19T08:51:56.986Z</time></trkpt><trkpt lat="44.476085" lon="10.3239183"><ele>395.0</ele><time>2026-04-19T08:51:57.986Z</time></trkpt><trkpt lat="44.4760167" lon="10.3238367"><ele>395.0</ele><time>2026-04-19T08:51:58.986Z</time></trkpt><trkpt lat="44.4759217" lon="10.3238"><ele>395.0</ele><time>2026-04-19T08:51:59.986Z</time></trkpt><trkpt lat="44.4758183" lon="10.32381"><ele>395.0</ele><time>2026-04-19T08:52:00.986Z</time></trkpt><trkpt lat="44.4757017" lon="10.32387"><ele>395.0</ele><time>2026-04-19T08:52:01.986Z</time></trkpt><trkpt lat="44.47559" lon="10.3239433"><ele>395.0</ele><time>2026-04-19T08:52:02.986Z</time></trkpt><trkpt lat="44.4754883" lon="10.3239933"><ele>395.0</ele><time>2026-04-19T08:52:03.986Z</time></trkpt><trkpt lat="44.4753867" lon="10.32398"><ele>394.4</ele><time>2026-04-19T08:52:04.986Z</time></trkpt><trkpt lat="44.4752933" lon="10.32393"><ele>393.8</ele><time>2026-04-19T08:52:05.986Z</time></trkpt><trkpt lat="44.4751933" lon="10.3238683"><ele>393.20000000000005</ele><time>2026-04-19T08:52:06.986Z</time></trkpt><trkpt lat="44.4750867" lon="10.3238367"><ele>392.6</ele><time>2026-04-19T08:52:07.986Z</time></trkpt><trkpt lat="44.47497" lon="10.3238433"><ele>392.0</ele><time>2026-04-19T08:52:08.986Z</time></trkpt><trkpt lat="44.4748567" lon="10.32389"><ele>392.0</ele><time>2026-04-19T08:52:09.986Z</time></trkpt><trkpt lat="44.4747367" lon="10.32394"><ele>392.0</ele><time>2026-04-19T08:52:10.986Z</time></trkpt><trkpt lat="44.47462" lon="10.3239633"><ele>392.0</ele><time>2026-04-19T08:52:11.986Z</time></trkpt><trkpt lat="44.4745" lon="10.32397"><ele>392.0</ele><time>2026-04-19T08:52:12.986Z</time></trkpt><trkpt lat="44.4743883" lon="10.3239783"><ele>389.8333333333333</ele><time>2026-04-19T08:52:13.986Z</time></trkpt><trkpt lat="44.4742917" lon="10.3239883"><ele>387.66666666666663</ele><time>2026-04-19T08:52:14.986Z</time></trkpt><trkpt lat="44.4742133" lon="10.3239967"><ele>385.5</ele><time>2026-04-19T08:52:15.986Z</time></trkpt><trkpt lat="44.47414" lon="10.3240117"><ele>383.3333333333333</ele><time>2026-04-19T08:52:16.986Z</time></trkpt><trkpt lat="44.474075" lon="10.324025"><ele>381.16666666666663</ele><time>2026-04-19T08:52:17.986Z</time></trkpt><trkpt lat="44.473975" lon="10.3240467"><ele>379.0</ele><time>2026-04-19T08:52:19.986Z</time></trkpt><trkpt lat="44.47391" lon="10.324075"><ele>379.0</ele><time>2026-04-19T08:52:21.986Z</time></trkpt><trkpt lat="44.4738083" lon="10.3241433"><ele>379.0</ele><time>2026-04-19T08:53:52.987Z</time></trkpt><trkpt lat="44.4737483" lon="10.3241833"><ele>379.0</ele><time>2026-04-19T08:53:53.986Z</time></trkpt><trkpt lat="44.4736883" lon="10.32423"><ele>379.0</ele><time>2026-04-19T08:53:54.986Z</time></trkpt><trkpt lat="44.47363" lon="10.3242783"><ele>379.0</ele><time>2026-04-19T08:53:55.986Z</time></trkpt><trkpt lat="44.473565" lon="10.32432"><ele>379.0</ele><time>2026-04-19T08:53:56.986Z</time></trkpt><trkpt lat="44.4734967" lon="10.3243517"><ele>376.5714285714286</ele><time>2026-04-19T08:53:57.986Z</time></trkpt><trkpt lat="44.4734333" lon="10.3243633"><ele>374.14285714285717</ele><time>2026-04-19T08:53:58.986Z</time></trkpt><trkpt lat="44.4733683" lon="10.3243567"><ele>371.7142857142857</ele><time>2026-04-19T08:53:59.986Z</time></trkpt><trkpt lat="44.4733017" lon="10.3243633"><ele>369.28571428571433</ele><time>2026-04-19T08:54:00.986Z</time></trkpt><trkpt lat="44.4732333" lon="10.3243733"><ele>366.85714285714283</ele><time>2026-04-19T08:54:01.986Z</time></trkpt><trkpt lat="44.4731517" lon="10.3243867"><ele>364.42857142857144</ele><time>2026-04-19T08:54:02.986Z</time></trkpt><trkpt lat="44.4730617" lon="10.3244017"><ele>362.0</ele><time>2026-04-19T08:54:03.986Z</time></trkpt><trkpt lat="44.4729767" lon="10.3244167"><ele>360.20000000000005</ele><time>2026-04-19T08:54:04.986Z</time></trkpt><trkpt lat="44.4728883" lon="10.324435"><ele>358.4</ele><time>2026-04-19T08:54:05.986Z</time></trkpt><trkpt lat="44.4728033" lon="10.32445"><ele>356.6</ele><time>2026-04-19T08:54:06.986Z</time></trkpt><trkpt lat="44.4727117" lon="10.324485"><ele>354.79999999999995</ele><time>2026-04-19T08:54:07.986Z</time></trkpt><trkpt lat="44.4726183" lon="10.3245333"><ele>353.0</ele><time>2026-04-19T08:54:08.986Z</time></trkpt><trkpt lat="44.4725267" lon="10.3245883"><ele>353.0</ele><time>2026-04-19T08:54:09.986Z</time></trkpt><trkpt lat="44.4724383" lon="10.3246467"><ele>353.0</ele><time>2026-04-19T08:54:10.986Z</time></trkpt><trkpt lat="44.47235" lon="10.3247017"><ele>353.0</ele><time>2026-04-19T08:54:11.986Z</time></trkpt><trkpt lat="44.4722733" lon="10.32476"><ele>353.0</ele><time>2026-04-19T08:54:12.986Z</time></trkpt><trkpt lat="44.4722033" lon="10.3248267"><ele>353.0</ele><time>2026-04-19T08:54:13.986Z</time></trkpt><trkpt lat="44.472145" lon="10.3249017"><ele>353.0</ele><time>2026-04-19T08:54:14.986Z</time></trkpt><trkpt lat="44.4720967" lon="10.32499"><ele>353.1666666666667</ele><time>2026-04-19T08:54:15.986Z</time></trkpt><trkpt lat="44.4720583" lon="10.3250783"><ele>353.33333333333337</ele><time>2026-04-19T08:54:16.986Z</time></trkpt><trkpt lat="44.4720283" lon="10.3251567"><ele>353.5</ele><time>2026-04-19T08:54:17.986Z</time></trkpt><trkpt lat="44.47199" lon="10.3252483"><ele>353.6666666666667</ele><time>2026-04-19T08:54:19.987Z</time></trkpt><trkpt lat="44.471935" lon="10.3253633"><ele>353.8333333333333</ele><time>2026-04-19T08:54:30.986Z</time></trkpt><trkpt lat="44.4718683" lon="10.325435"><ele>354.0</ele><time>2026-04-19T08:54:32.986Z</time></trkpt><trkpt lat="44.4717283" lon="10.3255067"><ele>354.0</ele><time>2026-04-19T08:54:34.986Z</time></trkpt><trkpt lat="44.4716317" lon="10.325555"><ele>354.0</ele><time>2026-04-19T08:54:35.986Z</time></trkpt><trkpt lat="44.4715283" lon="10.3256217"><ele>354.0</ele><time>2026-04-19T08:54:36.986Z</time></trkpt><trkpt lat="44.4714267" lon="10.3256967"><ele>354.0</ele><time>2026-04-19T08:54:37.986Z</time></trkpt><trkpt lat="44.4713317" lon="10.3257733"><ele>354.0</ele><time>2026-04-19T08:54:38.986Z</time></trkpt><trkpt lat="44.4712283" lon="10.3258433"><ele>355.5</ele><time>2026-04-19T08:54:39.986Z</time></trkpt><trkpt lat="44.471115" lon="10.3259033"><ele>357.0</ele><time>2026-04-19T08:54:40.986Z</time></trkpt><trkpt lat="44.4709917" lon="10.3259483"><ele>358.5</ele><time>2026-04-19T08:54:41.986Z</time></trkpt><trkpt lat="44.4708667" lon="10.3259767"><ele>360.0</ele><time>2026-04-19T08:54:42.986Z</time></trkpt><trkpt lat="44.4707517" lon="10.3260117"><ele>360.0</ele><time>2026-04-19T08:54:43.986Z</time></trkpt><trkpt lat="44.4706367" lon="10.3260533"><ele>360.0</ele><time>2026-04-19T08:54:44.986Z</time></trkpt><trkpt lat="44.4705217" lon="10.32607"><ele>360.0</ele><time>2026-04-19T08:54:45.986Z</time></trkpt><trkpt lat="44.4704183" lon="10.326055"><ele>360.0</ele><time>2026-04-19T08:54:46.986Z</time></trkpt><trkpt lat="44.470325" lon="10.3260283"><ele>360.0</ele><time>2026-04-19T08:54:47.986Z</time></trkpt><trkpt lat="44.4702317" lon="10.325995"><ele>361.25</ele><time>2026-04-19T08:54:48.986Z</time></trkpt><trkpt lat="44.4701333" lon="10.3259383"><ele>362.5</ele><time>2026-04-19T08:54:49.986Z</time></trkpt><trkpt lat="44.4700333" lon="10.32585"><ele>363.75</ele><time>2026-04-19T08:54:50.986Z</time></trkpt><trkpt lat="44.4699367" lon="10.3257683"><ele>365.0</ele><time>2026-04-19T08:54:51.986Z</time></trkpt><trkpt lat="44.4698333" lon="10.32568"><ele>365.0</ele><time>2026-04-19T08:54:52.986Z</time></trkpt><trkpt lat="44.469735" lon="10.32563"><ele>365.0</ele><time>2026-04-19T08:54:53.986Z</time></trkpt><trkpt lat="44.4696333" lon="10.3255833"><ele>365.0</ele><time>2026-04-19T08:54:54.986Z</time></trkpt><trkpt lat="44.4695383" lon="10.3255283"><ele>365.0</ele><time>2026-04-19T08:54:55.986Z</time></trkpt><trkpt lat="44.469435" lon="10.32549"><ele>365.0</ele><time>2026-04-19T08:54:56.986Z</time></trkpt><trkpt lat="44.46934" lon="10.3254833"><ele>364.2</ele><time>2026-04-19T08:54:57.987Z</time></trkpt><trkpt lat="44.4692467" lon="10.32552"><ele>363.4</ele><time>2026-04-19T08:54:58.986Z</time></trkpt><trkpt lat="44.4691617" lon="10.3256117"><ele>362.6</ele><time>2026-04-19T08:54:59.986Z</time></trkpt><trkpt lat="44.4690783" lon="10.3257267"><ele>361.8</ele><time>2026-04-19T08:55:00.986Z</time></trkpt><trkpt lat="44.4689917" lon="10.3258483"><ele>361.0</ele><time>2026-04-19T08:55:01.986Z</time></trkpt><trkpt lat="44.4688983" lon="10.32598"><ele>362.25</ele><time>2026-04-19T08:55:02.986Z</time></trkpt><trkpt lat="44.4687917" lon="10.3260767"><ele>363.5</ele><time>2026-04-19T08:55:03.986Z</time></trkpt><trkpt lat="44.4686617" lon="10.3261417"><ele>364.75</ele><time>2026-04-19T08:55:04.986Z</time></trkpt><trkpt lat="44.4685067" lon="10.326195"><ele>366.0</ele><time>2026-04-19T08:55:05.986Z</time></trkpt><trkpt lat="44.4683433" lon="10.3262783"><ele>366.0</ele><time>2026-04-19T08:55:06.986Z</time></trkpt><trkpt lat="44.46818" lon="10.3263433"><ele>366.0</ele><time>2026-04-19T08:55:07.986Z</time></trkpt><trkpt lat="44.4680183" lon="10.32638"><ele>366.0</ele><time>2026-04-19T08:55:08.986Z</time></trkpt><trkpt lat="44.4678667" lon="10.3263967"><ele>367.3333333333333</ele><time>2026-04-19T08:55:09.986Z</time></trkpt><trkpt lat="44.4677033" lon="10.32642"><ele>368.66666666666663</ele><time>2026-04-19T08:55:10.986Z</time></trkpt><trkpt lat="44.4675367" lon="10.326445"><ele>370.0</ele><time>2026-04-19T08:55:11.986Z</time></trkpt><trkpt lat="44.46737" lon="10.326465"><ele>370.0</ele><time>2026-04-19T08:55:12.986Z</time></trkpt><trkpt lat="44.4672133" lon="10.3264817"><ele>370.0</ele><time>2026-04-19T08:55:13.986Z</time></trkpt><trkpt lat="44.4670533" lon="10.326495"><ele>370.0</ele><time>2026-04-19T08:55:14.986Z</time></trkpt><trkpt lat="44.4669" lon="10.3265283"><ele>368.3333333333333</ele><time>2026-04-19T08:55:15.986Z</time></trkpt><trkpt lat="44.4667533" lon="10.3265533"><ele>366.6666666666667</ele><time>2026-04-19T08:55:16.986Z</time></trkpt><trkpt lat="44.4666" lon="10.326575"><ele>365.0</ele><time>2026-04-19T08:55:17.986Z</time></trkpt><trkpt lat="44.46643" lon="10.3265867"><ele>366.0</ele><time>2026-04-19T08:55:18.986Z</time></trkpt><trkpt lat="44.46624" lon="10.32659"><ele>367.0</ele><time>2026-04-19T08:55:19.986Z</time></trkpt><trkpt lat="44.4660433" lon="10.32659"><ele>368.0</ele><time>2026-04-19T08:55:20.986Z</time></trkpt><trkpt lat="44.4658467" lon="10.3265733"><ele>368.0</ele><time>2026-04-19T08:55:21.986Z</time></trkpt><trkpt lat="44.465645" lon="10.3265633"><ele>368.0</ele><time>2026-04-19T08:55:22.986Z</time></trkpt><trkpt lat="44.4654567" lon="10.32655"><ele>368.0</ele><time>2026-04-19T08:55:23.986Z</time></trkpt><trkpt lat="44.46527" lon="10.3265317"><ele>368.6666666666667</ele><time>2026-04-19T08:55:24.986Z</time></trkpt><trkpt lat="44.4650733" lon="10.3265167"><ele>369.3333333333333</ele><time>2026-04-19T08:55:25.986Z</time></trkpt><trkpt lat="44.4648767" lon="10.326515"><ele>370.0</ele><time>2026-04-19T08:55:26.986Z</time></trkpt><trkpt lat="44.4646783" lon="10.32651"><ele>371.66666666666663</ele><time>2026-04-19T08:55:27.986Z</time></trkpt><trkpt lat="44.464475" lon="10.3265033"><ele>373.3333333333333</ele><time>2026-04-19T08:55:28.986Z</time></trkpt><trkpt lat="44.4642817" lon="10.3265067"><ele>375.0</ele><time>2026-04-19T08:55:29.986Z</time></trkpt><trkpt lat="44.4640917" lon="10.3265233"><ele>375.0</ele><time>2026-04-19T08:55:30.986Z</time></trkpt><trkpt lat="44.4638933" lon="10.32654"><ele>375.0</ele><time>2026-04-19T08:55:31.986Z</time></trkpt><trkpt lat="44.4636933" lon="10.3265683"><ele>375.0</ele><time>2026-04-19T08:55:32.986Z</time></trkpt><trkpt lat="44.46351" lon="10.32659"><ele>374.6666666666667</ele><time>2026-04-19T08:55:33.986Z</time></trkpt><trkpt lat="44.4633367" lon="10.3266067"><ele>374.33333333333337</ele><time>2026-04-19T08:55:34.986Z</time></trkpt><trkpt lat="44.4631733" lon="10.3266283"><ele>374.0</ele><time>2026-04-19T08:55:35.986Z</time></trkpt><trkpt lat="44.4630167" lon="10.3266567"><ele>374.0</ele><time>2026-04-19T08:55:36.986Z</time></trkpt><trkpt lat="44.46286" lon="10.32668"><ele>374.0</ele><time>2026-04-19T08:55:37.986Z</time></trkpt><trkpt lat="44.462695" lon="10.3266883"><ele>374.0</ele><time>2026-04-19T08:55:38.986Z</time></trkpt><trkpt lat="44.46252" lon="10.3266833"><ele>374.0</ele><time>2026-04-19T08:55:39.986Z</time></trkpt><trkpt lat="44.4623417" lon="10.3266567"><ele>374.0</ele><time>2026-04-19T08:55:40.986Z</time></trkpt><trkpt lat="44.4621567" lon="10.3266033"><ele>374.0</ele><time>2026-04-19T08:55:41.986Z</time></trkpt><trkpt lat="44.4619767" lon="10.3265233"><ele>373.0</ele><time>2026-04-19T08:55:42.986Z</time></trkpt><trkpt lat="44.4618083" lon="10.326435"><ele>372.0</ele><time>2026-04-19T08:55:43.986Z</time></trkpt><trkpt lat="44.4616483" lon="10.3263467"><ele>371.0</ele><time>2026-04-19T08:55:44.986Z</time></trkpt><trkpt lat="44.461495" lon="10.3262633"><ele>371.0</ele><time>2026-04-19T08:55:45.986Z</time></trkpt><trkpt lat="44.4613467" lon="10.3262017"><ele>371.0</ele><time>2026-04-19T08:55:46.986Z</time></trkpt><trkpt lat="44.461205" lon="10.3261767"><ele>371.0</ele><time>2026-04-19T08:55:47.986Z</time></trkpt><trkpt lat="44.46107" lon="10.3261983"><ele>371.0</ele><time>2026-04-19T08:55:48.987Z</time></trkpt><trkpt lat="44.4609417" lon="10.3262733"><ele>371.5</ele><time>2026-04-19T08:55:49.986Z</time></trkpt><trkpt lat="44.4608083" lon="10.3263667"><ele>372.0</ele><time>2026-04-19T08:55:50.986Z</time></trkpt><trkpt lat="44.4606733" lon="10.326445"><ele>372.5</ele><time>2026-04-19T08:55:51.986Z</time></trkpt><trkpt lat="44.46054" lon="10.3264933"><ele>373.0</ele><time>2026-04-19T08:55:52.986Z</time></trkpt><trkpt lat="44.4604133" lon="10.3265117"><ele>373.25</ele><time>2026-04-19T08:55:53.986Z</time></trkpt><trkpt lat="44.460285" lon="10.326505"><ele>373.5</ele><time>2026-04-19T08:55:54.986Z</time></trkpt><trkpt lat="44.4601483" lon="10.32645"><ele>373.75</ele><time>2026-04-19T08:55:55.987Z</time></trkpt><trkpt lat="44.46002" lon="10.326355"><ele>374.0</ele><time>2026-04-19T08:55:56.986Z</time></trkpt><trkpt lat="44.4598783" lon="10.32624"><ele>374.0</ele><time>2026-04-19T08:55:57.986Z</time></trkpt><trkpt lat="44.459745" lon="10.3261267"><ele>374.0</ele><time>2026-04-19T08:55:58.986Z</time></trkpt><trkpt lat="44.45962" lon="10.3260267"><ele>374.0</ele><time>2026-04-19T08:55:59.986Z</time></trkpt><trkpt lat="44.4594867" lon="10.325935"><ele>374.0</ele><time>2026-04-19T08:56:00.986Z</time></trkpt><trkpt lat="44.459335" lon="10.3258817"><ele>375.33333333333337</ele><time>2026-04-19T08:56:01.986Z</time></trkpt><trkpt lat="44.4591767" lon="10.32587"><ele>376.6666666666667</ele><time>2026-04-19T08:56:02.986Z</time></trkpt><trkpt lat="44.4590067" lon="10.32589"><ele>378.0</ele><time>2026-04-19T08:56:03.986Z</time></trkpt><trkpt lat="44.4588367" lon="10.3259417"><ele>380.0</ele><time>2026-04-19T08:56:04.986Z</time></trkpt><trkpt lat="44.45867" lon="10.3260217"><ele>382.0</ele><time>2026-04-19T08:56:05.986Z</time></trkpt><trkpt lat="44.458495" lon="10.326125"><ele>384.0</ele><time>2026-04-19T08:56:06.986Z</time></trkpt><trkpt lat="44.4583133" lon="10.3262283"><ele>384.0</ele><time>2026-04-19T08:56:07.987Z</time></trkpt><trkpt lat="44.4581283" lon="10.3263083"><ele>384.0</ele><time>2026-04-19T08:56:08.986Z</time></trkpt><trkpt lat="44.4579483" lon="10.3263783"><ele>384.0</ele><time>2026-04-19T08:56:09.986Z</time></trkpt><trkpt lat="44.4577833" lon="10.3264483"><ele>383.3333333333333</ele><time>2026-04-19T08:56:10.986Z</time></trkpt><trkpt lat="44.4576117" lon="10.326505"><ele>382.66666666666663</ele><time>2026-04-19T08:56:11.987Z</time></trkpt><trkpt lat="44.45744" lon="10.3265433"><ele>382.0</ele><time>2026-04-19T08:56:12.986Z</time></trkpt><trkpt lat="44.45727" lon="10.32657"><ele>383.3333333333333</ele><time>2026-04-19T08:56:13.986Z</time></trkpt><trkpt lat="44.4571117" lon="10.3265967"><ele>384.66666666666663</ele><time>2026-04-19T08:56:14.986Z</time></trkpt><trkpt lat="44.4569517" lon="10.3266517"><ele>386.0</ele><time>2026-04-19T08:56:15.986Z</time></trkpt><trkpt lat="44.4567883" lon="10.3267067"><ele>386.0</ele><time>2026-04-19T08:56:16.986Z</time></trkpt><trkpt lat="44.456635" lon="10.32677"><ele>386.0</ele><time>2026-04-19T08:56:17.986Z</time></trkpt><trkpt lat="44.4564867" lon="10.3268167"><ele>386.0</ele><time>2026-04-19T08:56:18.986Z</time></trkpt><trkpt lat="44.4563467" lon="10.3268317"><ele>386.3333333333333</ele><time>2026-04-19T08:56:19.986Z</time></trkpt><trkpt lat="44.4561967" lon="10.3267967"><ele>386.66666666666663</ele><time>2026-04-19T08:56:20.986Z</time></trkpt><trkpt lat="44.45604" lon="10.3267183"><ele>387.0</ele><time>2026-04-19T08:56:21.986Z</time></trkpt><trkpt lat="44.4558717" lon="10.3266233"><ele>387.0</ele><time>2026-04-19T08:56:22.986Z</time></trkpt><trkpt lat="44.4556967" lon="10.326515"><ele>387.0</ele><time>2026-04-19T08:56:23.986Z</time></trkpt><trkpt lat="44.4555367" lon="10.326385"><ele>387.0</ele><time>2026-04-19T08:56:24.986Z</time></trkpt><trkpt lat="44.4553783" lon="10.3262367"><ele>388.66666666666663</ele><time>2026-04-19T08:56:25.986Z</time></trkpt><trkpt lat="44.455235" lon="10.3260617"><ele>390.3333333333333</ele><time>2026-04-19T08:56:26.986Z</time></trkpt><trkpt lat="44.4550967" lon="10.3258833"><ele>392.0</ele><time>2026-04-19T08:56:27.986Z</time></trkpt><trkpt lat="44.4549567" lon="10.3257"><ele>393.0</ele><time>2026-04-19T08:56:28.986Z</time></trkpt><trkpt lat="44.4548233" lon="10.3255183"><ele>394.0</ele><time>2026-04-19T08:56:29.986Z</time></trkpt><trkpt lat="44.454685" lon="10.3253317"><ele>395.0</ele><time>2026-04-19T08:56:30.986Z</time></trkpt><trkpt lat="44.4545567" lon="10.325165"><ele>395.0</ele><time>2026-04-19T08:56:31.986Z</time></trkpt><trkpt lat="44.45444" lon="10.3250067"><ele>395.0</ele><time>2026-04-19T08:56:32.986Z</time></trkpt><trkpt lat="44.4543167" lon="10.3248533"><ele>395.0</ele><time>2026-04-19T08:56:33.986Z</time></trkpt><trkpt lat="44.4541867" lon="10.3247117"><ele>396.5</ele><time>2026-04-19T08:56:34.986Z</time></trkpt><trkpt lat="44.4540633" lon="10.3246017"><ele>398.0</ele><time>2026-04-19T08:56:35.986Z</time></trkpt><trkpt lat="44.4539383" lon="10.3245133"><ele>399.5</ele><time>2026-04-19T08:56:36.986Z</time></trkpt><trkpt lat="44.4538267" lon="10.324415"><ele>401.0</ele><time>2026-04-19T08:56:37.986Z</time></trkpt><trkpt lat="44.4537317" lon="10.3242783"><ele>401.0</ele><time>2026-04-19T08:56:38.986Z</time></trkpt><trkpt lat="44.45365" lon="10.3241083"><ele>401.0</ele><time>2026-04-19T08:56:39.986Z</time></trkpt><trkpt lat="44.4535817" lon="10.32391"><ele>401.0</ele><time>2026-04-19T08:56:40.986Z</time></trkpt><trkpt lat="44.453505" lon="10.3236967"><ele>401.66666666666663</ele><time>2026-04-19T08:56:41.986Z</time></trkpt><trkpt lat="44.4534233" lon="10.3234733"><ele>402.33333333333337</ele><time>2026-04-19T08:56:42.986Z</time></trkpt><trkpt lat="44.4533283" lon="10.3232567"><ele>403.0</ele><time>2026-04-19T08:56:43.986Z</time></trkpt><trkpt lat="44.4532267" lon="10.32305"><ele>404.6666666666667</ele><time>2026-04-19T08:56:44.986Z</time></trkpt><trkpt lat="44.45311" lon="10.3228517"><ele>406.33333333333337</ele><time>2026-04-19T08:56:45.986Z</time></trkpt><trkpt lat="44.4529783" lon="10.3226683"><ele>408.0</ele><time>2026-04-19T08:56:46.986Z</time></trkpt><trkpt lat="44.4528367" lon="10.3225017"><ele>408.0</ele><time>2026-04-19T08:56:47.986Z</time></trkpt><trkpt lat="44.45269" lon="10.3223417"><ele>408.0</ele><time>2026-04-19T08:56:48.986Z</time></trkpt><trkpt lat="44.452545" lon="10.322185"><ele>408.0</ele><time>2026-04-19T08:56:49.986Z</time></trkpt><trkpt lat="44.452395" lon="10.3220167"><ele>409.0</ele><time>2026-04-19T08:56:50.986Z</time></trkpt><trkpt lat="44.4522517" lon="10.3218367"><ele>410.0</ele><time>2026-04-19T08:56:51.986Z</time></trkpt><trkpt lat="44.4521183" lon="10.32166"><ele>411.0</ele><time>2026-04-19T08:56:52.986Z</time></trkpt><trkpt lat="44.4520017" lon="10.3214817"><ele>414.0</ele><time>2026-04-19T08:56:53.986Z</time></trkpt><trkpt lat="44.4518833" lon="10.3213017"><ele>417.0</ele><time>2026-04-19T08:56:54.986Z</time></trkpt><trkpt lat="44.4517533" lon="10.3211383"><ele>420.0</ele><time>2026-04-19T08:56:55.986Z</time></trkpt><trkpt lat="44.4516" lon="10.32102"><ele>420.0</ele><time>2026-04-19T08:56:56.986Z</time></trkpt><trkpt lat="44.4514433" lon="10.3209117"><ele>420.0</ele><time>2026-04-19T08:56:57.986Z</time></trkpt><trkpt lat="44.4512983" lon="10.3207717"><ele>420.0</ele><time>2026-04-19T08:56:58.986Z</time></trkpt><trkpt lat="44.451175" lon="10.32058"><ele>421.33333333333337</ele><time>2026-04-19T08:56:59.986Z</time></trkpt><trkpt lat="44.4510517" lon="10.3203533"><ele>422.6666666666667</ele><time>2026-04-19T08:57:00.986Z</time></trkpt><trkpt lat="44.4509317" lon="10.3201167"><ele>424.0</ele><time>2026-04-19T08:57:01.986Z</time></trkpt><trkpt lat="44.45082" lon="10.319875"><ele>426.33333333333337</ele><time>2026-04-19T08:57:02.986Z</time></trkpt><trkpt lat="44.4507267" lon="10.3196267"><ele>428.66666666666663</ele><time>2026-04-19T08:57:03.986Z</time></trkpt><trkpt lat="44.45063" lon="10.3193733"><ele>431.0</ele><time>2026-04-19T08:57:04.986Z</time></trkpt><trkpt lat="44.4505183" lon="10.3191283"><ele>432.0</ele><time>2026-04-19T08:57:05.986Z</time></trkpt><trkpt lat="44.4503933" lon="10.318885"><ele>433.0</ele><time>2026-04-19T08:57:06.986Z</time></trkpt><trkpt lat="44.4502517" lon="10.3186483"><ele>434.0</ele><time>2026-04-19T08:57:07.986Z</time></trkpt><trkpt lat="44.45011" lon="10.3184217"><ele>434.0</ele><time>2026-04-19T08:57:08.986Z</time></trkpt><trkpt lat="44.4499783" lon="10.3182217"><ele>434.0</ele><time>2026-04-19T08:57:09.986Z</time></trkpt><trkpt lat="44.4498583" lon="10.318035"><ele>434.0</ele><time>2026-04-19T08:57:10.986Z</time></trkpt><trkpt lat="44.4497367" lon="10.31786"><ele>435.66666666666663</ele><time>2026-04-19T08:57:11.986Z</time></trkpt><trkpt lat="44.4496217" lon="10.3177017"><ele>437.33333333333337</ele><time>2026-04-19T08:57:12.986Z</time></trkpt><trkpt lat="44.4494983" lon="10.31757"><ele>439.0</ele><time>2026-04-19T08:57:13.987Z</time></trkpt><trkpt lat="44.449365" lon="10.3174633"><ele>439.0</ele><time>2026-04-19T08:57:14.986Z</time></trkpt><trkpt lat="44.449235" lon="10.317395"><ele>439.0</ele><time>2026-04-19T08:57:15.986Z</time></trkpt><trkpt lat="44.449115" lon="10.31735"><ele>439.0</ele><time>2026-04-19T08:57:16.986Z</time></trkpt><trkpt lat="44.449" lon="10.3173"><ele>439.0</ele><time>2026-04-19T08:57:17.986Z</time></trkpt><trkpt lat="44.44888" lon="10.3172167"><ele>440.6666666666667</ele><time>2026-04-19T08:57:18.986Z</time></trkpt><trkpt lat="44.448755" lon="10.3170983"><ele>442.33333333333337</ele><time>2026-04-19T08:57:19.986Z</time></trkpt><trkpt lat="44.44863" lon="10.3169483"><ele>444.0</ele><time>2026-04-19T08:57:20.986Z</time></trkpt><trkpt lat="44.4484983" lon="10.3167933"><ele>444.0</ele><time>2026-04-19T08:57:21.986Z</time></trkpt><trkpt lat="44.4483583" lon="10.3166333"><ele>444.0</ele><time>2026-04-19T08:57:22.986Z</time></trkpt><trkpt lat="44.4482217" lon="10.3164717"><ele>444.0</ele><time>2026-04-19T08:57:23.986Z</time></trkpt><trkpt lat="44.4480833" lon="10.3163217"><ele>445.0</ele><time>2026-04-19T08:57:24.986Z</time></trkpt><trkpt lat="44.4479533" lon="10.3161717"><ele>446.0</ele><time>2026-04-19T08:57:25.986Z</time></trkpt><trkpt lat="44.4478283" lon="10.3160217"><ele>447.0</ele><time>2026-04-19T08:57:26.986Z</time></trkpt><trkpt lat="44.4477067" lon="10.3158667"><ele>447.0</ele><time>2026-04-19T08:57:27.986Z</time></trkpt><trkpt lat="44.4475817" lon="10.3157083"><ele>447.0</ele><time>2026-04-19T08:57:28.986Z</time></trkpt><trkpt lat="44.44746" lon="10.3155467"><ele>447.0</ele><time>2026-04-19T08:57:29.986Z</time></trkpt><trkpt lat="44.447335" lon="10.315385"><ele>448.33333333333337</ele><time>2026-04-19T08:57:30.986Z</time></trkpt><trkpt lat="44.4472033" lon="10.3152233"><ele>449.6666666666667</ele><time>2026-04-19T08:57:31.986Z</time></trkpt><trkpt lat="44.4470617" lon="10.3150717"><ele>451.0</ele><time>2026-04-19T08:57:32.986Z</time></trkpt><trkpt lat="44.44691" lon="10.3149533"><ele>452.0</ele><time>2026-04-19T08:57:33.986Z</time></trkpt><trkpt lat="44.4467517" lon="10.3148633"><ele>453.0</ele><time>2026-04-19T08:57:34.986Z</time></trkpt><trkpt lat="44.446595" lon="10.3147767"><ele>454.0</ele><time>2026-04-19T08:57:35.986Z</time></trkpt><trkpt lat="44.446435" lon="10.3146983"><ele>453.6666666666667</ele><time>2026-04-19T08:57:36.986Z</time></trkpt><trkpt lat="44.4462867" lon="10.3146233"><ele>453.33333333333337</ele><time>2026-04-19T08:57:37.986Z</time></trkpt><trkpt lat="44.4461333" lon="10.3145517"><ele>453.0</ele><time>2026-04-19T08:57:38.986Z</time></trkpt><trkpt lat="44.4459833" lon="10.31449"><ele>453.0</ele><time>2026-04-19T08:57:39.986Z</time></trkpt><trkpt lat="44.445845" lon="10.31444"><ele>453.0</ele><time>2026-04-19T08:57:40.986Z</time></trkpt><trkpt lat="44.4457033" lon="10.3144033"><ele>453.0</ele><time>2026-04-19T08:57:41.986Z</time></trkpt><trkpt lat="44.4455633" lon="10.3143717"><ele>453.0</ele><time>2026-04-19T08:57:42.986Z</time></trkpt><trkpt lat="44.4454267" lon="10.31432"><ele>456.0</ele><time>2026-04-19T08:57:43.986Z</time></trkpt><trkpt lat="44.4452933" lon="10.3142317"><ele>459.0</ele><time>2026-04-19T08:57:44.986Z</time></trkpt><trkpt lat="44.4451617" lon="10.3141083"><ele>462.0</ele><time>2026-04-19T08:57:45.987Z</time></trkpt><trkpt lat="44.44505" lon="10.3139683"><ele>459.33333333333337</ele><time>2026-04-19T08:57:46.986Z</time></trkpt><trkpt lat="44.44494" lon="10.3138133"><ele>456.6666666666667</ele><time>2026-04-19T08:57:47.986Z</time></trkpt><trkpt lat="44.4448217" lon="10.3136617"><ele>454.0</ele><time>2026-04-19T08:57:48.986Z</time></trkpt><trkpt lat="44.4447" lon="10.313515"><ele>454.6666666666667</ele><time>2026-04-19T08:57:49.986Z</time></trkpt><trkpt lat="44.4445617" lon="10.313365"><ele>455.33333333333337</ele><time>2026-04-19T08:57:50.986Z</time></trkpt><trkpt lat="44.4444117" lon="10.3132083"><ele>456.0</ele><time>2026-04-19T08:57:51.986Z</time></trkpt><trkpt lat="44.444255" lon="10.3130583"><ele>456.0</ele><time>2026-04-19T08:57:52.986Z</time></trkpt><trkpt lat="44.4440933" lon="10.3129083"><ele>456.0</ele><time>2026-04-19T08:57:53.986Z</time></trkpt><trkpt lat="44.443925" lon="10.3127667"><ele>456.0</ele><time>2026-04-19T08:57:54.986Z</time></trkpt><trkpt lat="44.4437717" lon="10.3126467"><ele>458.66666666666663</ele><time>2026-04-19T08:57:55.986Z</time></trkpt><trkpt lat="44.4436233" lon="10.3125383"><ele>461.3333333333333</ele><time>2026-04-19T08:57:56.986Z</time></trkpt><trkpt lat="44.44347" lon="10.3124517"><ele>464.0</ele><time>2026-04-19T08:57:57.987Z</time></trkpt><trkpt lat="44.44331" lon="10.3123867"><ele>464.0</ele><time>2026-04-19T08:57:58.986Z</time></trkpt><trkpt lat="44.4431433" lon="10.312335"><ele>464.0</ele><time>2026-04-19T08:57:59.986Z</time></trkpt><trkpt lat="44.442975" lon="10.3122883"><ele>464.0</ele><time>2026-04-19T08:58:00.986Z</time></trkpt><trkpt lat="44.4428033" lon="10.3122267"><ele>462.0</ele><time>2026-04-19T08:58:01.986Z</time></trkpt><trkpt lat="44.44264" lon="10.3121367"><ele>460.0</ele><time>2026-04-19T08:58:02.986Z</time></trkpt><trkpt lat="44.4424883" lon="10.3120417"><ele>458.0</ele><time>2026-04-19T08:58:03.986Z</time></trkpt><trkpt lat="44.44237" lon="10.3119183"><ele>458.0</ele><time>2026-04-19T08:58:04.986Z</time></trkpt><trkpt lat="44.4422583" lon="10.3117767"><ele>458.0</ele><time>2026-04-19T08:58:05.986Z</time></trkpt><trkpt lat="44.442155" lon="10.3116217"><ele>458.0</ele><time>2026-04-19T08:58:06.986Z</time></trkpt><trkpt lat="44.4420567" lon="10.31148"><ele>458.0</ele><time>2026-04-19T08:58:07.986Z</time></trkpt><trkpt lat="44.441965" lon="10.311375"><ele>457.75</ele><time>2026-04-19T08:58:08.986Z</time></trkpt><trkpt lat="44.4418917" lon="10.3112617"><ele>457.5</ele><time>2026-04-19T08:58:09.986Z</time></trkpt><trkpt lat="44.441825" lon="10.3111467"><ele>457.25</ele><time>2026-04-19T08:58:10.986Z</time></trkpt><trkpt lat="44.4417783" lon="10.3110033"><ele>457.0</ele><time>2026-04-19T08:58:11.986Z</time></trkpt><trkpt lat="44.441725" lon="10.310845"><ele>457.0</ele><time>2026-04-19T08:58:12.986Z</time></trkpt><trkpt lat="44.4416583" lon="10.3106883"><ele>457.0</ele><time>2026-04-19T08:58:13.986Z</time></trkpt><trkpt lat="44.4415533" lon="10.3105483"><ele>457.0</ele><time>2026-04-19T08:58:14.986Z</time></trkpt><trkpt lat="44.4414333" lon="10.310425"><ele>457.0</ele><time>2026-04-19T08:58:15.986Z</time></trkpt><trkpt lat="44.4413033" lon="10.3103167"><ele>454.5</ele><time>2026-04-19T08:58:16.986Z</time></trkpt><trkpt lat="44.441165" lon="10.3102433"><ele>452.0</ele><time>2026-04-19T08:58:17.986Z</time></trkpt><trkpt lat="44.4410367" lon="10.3101983"><ele>449.5</ele><time>2026-04-19T08:58:18.986Z</time></trkpt><trkpt lat="44.4409" lon="10.3101933"><ele>447.0</ele><time>2026-04-19T08:58:19.986Z</time></trkpt><trkpt lat="44.4407667" lon="10.3101917"><ele>447.0</ele><time>2026-04-19T08:58:20.986Z</time></trkpt><trkpt lat="44.4406417" lon="10.3101633"><ele>447.0</ele><time>2026-04-19T08:58:21.986Z</time></trkpt><trkpt lat="44.4405283" lon="10.3101033"><ele>447.0</ele><time>2026-04-19T08:58:22.986Z</time></trkpt><trkpt lat="44.440435" lon="10.309995"><ele>447.0</ele><time>2026-04-19T08:58:23.986Z</time></trkpt><trkpt lat="44.4403533" lon="10.3098417"><ele>447.0</ele><time>2026-04-19T08:58:24.986Z</time></trkpt><trkpt lat="44.4402783" lon="10.3096833"><ele>447.0</ele><time>2026-04-19T08:58:25.986Z</time></trkpt><trkpt lat="44.4402" lon="10.3095283"><ele>447.0</ele><time>2026-04-19T08:58:26.986Z</time></trkpt><trkpt lat="44.4401267" lon="10.3093917"><ele>447.0</ele><time>2026-04-19T08:58:27.987Z</time></trkpt><trkpt lat="44.44006" lon="10.30927"><ele>447.0</ele><time>2026-04-19T08:58:28.986Z</time></trkpt><trkpt lat="44.4400017" lon="10.3091567"><ele>447.00000000000006</ele><time>2026-04-19T08:58:29.986Z</time></trkpt><trkpt lat="44.4399467" lon="10.3090567"><ele>447.00000000000006</ele><time>2026-04-19T08:58:30.986Z</time></trkpt><trkpt lat="44.439895" lon="10.3089617"><ele>447.0</ele><time>2026-04-19T08:58:31.986Z</time></trkpt><trkpt lat="44.43985" lon="10.308875"><ele>447.0</ele><time>2026-04-19T08:58:32.987Z</time></trkpt><trkpt lat="44.4397883" lon="10.3087517"><ele>447.20000000000005</ele><time>2026-04-19T08:58:34.986Z</time></trkpt><trkpt lat="44.439725" lon="10.3086817"><ele>447.40000000000003</ele><time>2026-04-19T08:58:36.986Z</time></trkpt><trkpt lat="44.43969" lon="10.3085667"><ele>447.59999999999997</ele><time>2026-04-19T09:16:36.984Z</time></trkpt><trkpt lat="44.4396517" lon="10.3083983"><ele>447.79999999999995</ele><time>2026-04-19T09:16:38.984Z</time></trkpt><trkpt lat="44.4396183" lon="10.3083067"><ele>448.0</ele><time>2026-04-19T09:16:39.984Z</time></trkpt><trkpt lat="44.439565" lon="10.308155"><ele>447.6666666666667</ele><time>2026-04-19T09:16:41.984Z</time></trkpt><trkpt lat="44.4395117" lon="10.30803"><ele>447.33333333333337</ele><time>2026-04-19T09:16:43.984Z</time></trkpt><trkpt lat="44.4394617" lon="10.3079383"><ele>447.0</ele><time>2026-04-19T09:16:45.984Z</time></trkpt><trkpt lat="44.4394167" lon="10.3078733"><ele>446.66666666666663</ele><time>2026-04-19T09:16:47.984Z</time></trkpt><trkpt lat="44.4393533" lon="10.307845"><ele>446.3333333333333</ele><time>2026-04-19T09:16:50.984Z</time></trkpt><trkpt lat="44.4392517" lon="10.30785"><ele>446.0</ele><time>2026-04-19T09:17:08.984Z</time></trkpt><trkpt lat="44.439135" lon="10.3078083"><ele>446.0</ele><time>2026-04-19T09:17:10.984Z</time></trkpt><trkpt lat="44.4390683" lon="10.307775"><ele>446.0</ele><time>2026-04-19T09:17:11.984Z</time></trkpt><trkpt lat="44.439" lon="10.3077283"><ele>446.0</ele><time>2026-04-19T09:17:12.984Z</time></trkpt><trkpt lat="44.4389433" lon="10.3076883"><ele>446.0</ele><time>2026-04-19T09:17:13.984Z</time></trkpt><trkpt lat="44.4388833" lon="10.3076367"><ele>446.0</ele><time>2026-04-19T09:17:14.984Z</time></trkpt><trkpt lat="44.4388183" lon="10.3075833"><ele>446.0</ele><time>2026-04-19T09:17:15.984Z</time></trkpt><trkpt lat="44.4387617" lon="10.307535"><ele>446.0</ele><time>2026-04-19T09:17:16.984Z</time></trkpt><trkpt lat="44.4387017" lon="10.3074917"><ele>446.4</ele><time>2026-04-19T09:17:17.984Z</time></trkpt><trkpt lat="44.4386017" lon="10.3074317"><ele>446.8</ele><time>2026-04-19T09:17:19.984Z</time></trkpt><trkpt lat="44.43851" lon="10.3073817"><ele>447.19999999999993</ele><time>2026-04-19T09:17:21.984Z</time></trkpt><trkpt lat="44.4384333" lon="10.3073033"><ele>447.59999999999997</ele><time>2026-04-19T09:17:23.984Z</time></trkpt><trkpt lat="44.4383667" lon="10.3071833"><ele>448.0</ele><time>2026-04-19T09:17:25.984Z</time></trkpt><trkpt lat="44.4383" lon="10.3070617"><ele>448.0</ele><time>2026-04-19T09:17:27.984Z</time></trkpt><trkpt lat="44.438195" lon="10.3069967"><ele>447.99999999999994</ele><time>2026-04-19T09:17:29.984Z</time></trkpt><trkpt lat="44.4381317" lon="10.3069783"><ele>447.99999999999994</ele><time>2026-04-19T09:17:30.984Z</time></trkpt><trkpt lat="44.4380667" lon="10.306965"><ele>448.0</ele><time>2026-04-19T09:17:31.984Z</time></trkpt><trkpt lat="44.4379533" lon="10.3069567"><ele>448.0</ele><time>2026-04-19T09:17:33.984Z</time></trkpt><trkpt lat="44.4378633" lon="10.3069783"><ele>449.0</ele><time>2026-04-19T09:17:35.984Z</time></trkpt><trkpt lat="44.4377917" lon="10.307015"><ele>449.99999999999994</ele><time>2026-04-19T09:17:37.984Z</time></trkpt><trkpt lat="44.4377017" lon="10.307015"><ele>450.99999999999994</ele><time>2026-04-19T09:17:39.984Z</time></trkpt><trkpt lat="44.437585" lon="10.3069783"><ele>452.0</ele><time>2026-04-19T09:17:41.984Z</time></trkpt><trkpt lat="44.43749" lon="10.3069367"><ele>453.0</ele><time>2026-04-19T09:17:43.984Z</time></trkpt><trkpt lat="44.4374033" lon="10.30688"><ele>453.0</ele><time>2026-04-19T09:17:45.984Z</time></trkpt><trkpt lat="44.4373217" lon="10.3067983"><ele>452.99999999999994</ele><time>2026-04-19T09:17:47.984Z</time></trkpt><trkpt lat="44.4372533" lon="10.3066833"><ele>452.99999999999994</ele><time>2026-04-19T09:17:49.984Z</time></trkpt><trkpt lat="44.4371983" lon="10.3065467"><ele>453.0</ele><time>2026-04-19T09:17:51.985Z</time></trkpt><trkpt lat="44.4371683" lon="10.3064667"><ele>453.0</ele><time>2026-04-19T09:17:52.984Z</time></trkpt><trkpt lat="44.4371283" lon="10.306385"><ele>454.4</ele><time>2026-04-19T09:17:53.984Z</time></trkpt><trkpt lat="44.437085" lon="10.3063067"><ele>455.79999999999995</ele><time>2026-04-19T09:17:54.984Z</time></trkpt><trkpt lat="44.43704" lon="10.3062433"><ele>457.2</ele><time>2026-04-19T09:17:55.984Z</time></trkpt><trkpt lat="44.436945" lon="10.3061333"><ele>458.6</ele><time>2026-04-19T09:17:57.984Z</time></trkpt><trkpt lat="44.4368483" lon="10.3060167"><ele>460.0</ele><time>2026-04-19T09:17:59.984Z</time></trkpt><trkpt lat="44.4368" lon="10.3059467"><ele>460.00000000000006</ele><time>2026-04-19T09:18:00.984Z</time></trkpt><trkpt lat="44.43675" lon="10.3058667"><ele>460.0</ele><time>2026-04-19T09:18:01.984Z</time></trkpt><trkpt lat="44.4367017" lon="10.3057917"><ele>460.0</ele><time>2026-04-19T09:18:02.984Z</time></trkpt><trkpt lat="44.4366367" lon="10.3056417"><ele>460.0</ele><time>2026-04-19T09:18:04.984Z</time></trkpt><trkpt lat="44.4366017" lon="10.3055667"><ele>460.00000000000006</ele><time>2026-04-19T09:18:05.984Z</time></trkpt><trkpt lat="44.43656" lon="10.3054917"><ele>460.0</ele><time>2026-04-19T09:18:06.984Z</time></trkpt><trkpt lat="44.436515" lon="10.3054083"><ele>459.83333333333337</ele><time>2026-04-19T09:18:07.984Z</time></trkpt><trkpt lat="44.4364667" lon="10.30532"><ele>459.6666666666667</ele><time>2026-04-19T09:18:08.984Z</time></trkpt><trkpt lat="44.4364233" lon="10.3052417"><ele>459.5</ele><time>2026-04-19T09:18:09.984Z</time></trkpt><trkpt lat="44.43637" lon="10.3051683"><ele>459.33333333333337</ele><time>2026-04-19T09:18:10.984Z</time></trkpt><trkpt lat="44.436315" lon="10.30511"><ele>459.1666666666667</ele><time>2026-04-19T09:18:11.984Z</time></trkpt><trkpt lat="44.4362417" lon="10.30506"><ele>459.0</ele><time>2026-04-19T09:18:12.984Z</time></trkpt><trkpt lat="44.4361617" lon="10.30503"><ele>460.0</ele><time>2026-04-19T09:18:13.984Z</time></trkpt><trkpt lat="44.4360783" lon="10.3050017"><ele>461.0</ele><time>2026-04-19T09:18:14.984Z</time></trkpt><trkpt lat="44.435995" lon="10.30497"><ele>462.0</ele><time>2026-04-19T09:18:15.984Z</time></trkpt><trkpt lat="44.4359167" lon="10.3049267"><ele>463.0</ele><time>2026-04-19T09:18:16.984Z</time></trkpt><trkpt lat="44.4358417" lon="10.3048833"><ele>464.0</ele><time>2026-04-19T09:18:17.984Z</time></trkpt><trkpt lat="44.435765" lon="10.3048467"><ele>465.0</ele><time>2026-04-19T09:18:18.984Z</time></trkpt><trkpt lat="44.43569" lon="10.30481"><ele>465.0</ele><time>2026-04-19T09:18:19.984Z</time></trkpt><trkpt lat="44.4356133" lon="10.304775"><ele>465.0</ele><time>2026-04-19T09:18:20.984Z</time></trkpt><trkpt lat="44.4355383" lon="10.3047383"><ele>465.0</ele><time>2026-04-19T09:18:21.984Z</time></trkpt><trkpt lat="44.4354717" lon="10.304685"><ele>465.0</ele><time>2026-04-19T09:18:22.984Z</time></trkpt><trkpt lat="44.4354133" lon="10.30464"><ele>465.0</ele><time>2026-04-19T09:18:23.984Z</time></trkpt><trkpt lat="44.4353517" lon="10.3045983"><ele>465.0</ele><time>2026-04-19T09:18:24.984Z</time></trkpt><trkpt lat="44.4352917" lon="10.30456"><ele>465.0</ele><time>2026-04-19T09:18:25.984Z</time></trkpt><trkpt lat="44.4352333" lon="10.304515"><ele>466.2</ele><time>2026-04-19T09:18:26.984Z</time></trkpt><trkpt lat="44.4351767" lon="10.3044583"><ele>467.4</ele><time>2026-04-19T09:18:27.984Z</time></trkpt><trkpt lat="44.4351267" lon="10.3043983"><ele>468.6</ele><time>2026-04-19T09:18:28.984Z</time></trkpt><trkpt lat="44.43504" lon="10.304275"><ele>469.8</ele><time>2026-04-19T09:18:30.984Z</time></trkpt><trkpt lat="44.4349433" lon="10.3041517"><ele>471.0</ele><time>2026-04-19T09:18:32.984Z</time></trkpt><trkpt lat="44.4348817" lon="10.3040817"><ele>471.00000000000006</ele><time>2026-04-19T09:18:33.984Z</time></trkpt><trkpt lat="44.4348183" lon="10.3040267"><ele>471.0</ele><time>2026-04-19T09:18:34.984Z</time></trkpt><trkpt lat="44.4347583" lon="10.30398"><ele>471.00000000000006</ele><time>2026-04-19T09:18:35.984Z</time></trkpt><trkpt lat="44.4347033" lon="10.3039333"><ele>471.00000000000006</ele><time>2026-04-19T09:18:36.985Z</time></trkpt><trkpt lat="44.4346417" lon="10.3038867"><ele>471.0</ele><time>2026-04-19T09:18:37.984Z</time></trkpt><trkpt lat="44.43458" lon="10.3038333"><ele>471.00000000000006</ele><time>2026-04-19T09:18:38.983Z</time></trkpt><trkpt lat="44.4345167" lon="10.3037783"><ele>471.00000000000006</ele><time>2026-04-19T09:18:39.984Z</time></trkpt><trkpt lat="44.4344567" lon="10.3037317"><ele>471.5</ele><time>2026-04-19T09:18:40.984Z</time></trkpt><trkpt lat="44.4344" lon="10.3036717"><ele>472.0</ele><time>2026-04-19T09:18:41.984Z</time></trkpt><trkpt lat="44.4343433" lon="10.3036167"><ele>472.5</ele><time>2026-04-19T09:18:42.984Z</time></trkpt><trkpt lat="44.43429" lon="10.3035583"><ele>473.0</ele><time>2026-04-19T09:18:43.984Z</time></trkpt><trkpt lat="44.4342367" lon="10.3035083"><ele>473.5</ele><time>2026-04-19T09:18:44.984Z</time></trkpt><trkpt lat="44.4341183" lon="10.303455"><ele>474.0</ele><time>2026-04-19T09:18:46.984Z</time></trkpt><trkpt lat="44.4340467" lon="10.3034483"><ele>474.0</ele><time>2026-04-19T09:18:47.984Z</time></trkpt><trkpt lat="44.43397" lon="10.3034467"><ele>474.0</ele><time>2026-04-19T09:18:48.984Z</time></trkpt><trkpt lat="44.4338933" lon="10.3034433"><ele>474.0</ele><time>2026-04-19T09:18:49.984Z</time></trkpt><trkpt lat="44.43382" lon="10.3034333"><ele>474.0</ele><time>2026-04-19T09:18:50.984Z</time></trkpt><trkpt lat="44.4337567" lon="10.3034267"><ele>474.0</ele><time>2026-04-19T09:18:51.984Z</time></trkpt><trkpt lat="44.4336567" lon="10.30341"><ele>474.0</ele><time>2026-04-19T09:18:53.984Z</time></trkpt><trkpt lat="44.4335517" lon="10.3034083"><ele>478.0</ele><time>2026-04-19T09:18:55.984Z</time></trkpt><trkpt lat="44.4334517" lon="10.3034333"><ele>478.0</ele><time>2026-04-19T09:18:57.984Z</time></trkpt><trkpt lat="44.4333683" lon="10.3034367"><ele>478.0</ele><time>2026-04-19T09:19:11.984Z</time></trkpt></trkseg><trkseg><trkpt lat="44.4335067" lon="10.3034683"><ele>478.00000000000006</ele><time>2026-04-19T09:33:38.982Z</time></trkpt><trkpt lat="44.4336" lon="10.30346"><ele>478.0</ele><time>2026-04-19T09:33:44.983Z</time></trkpt><trkpt lat="44.43369" lon="10.30346"><ele>478.0</ele><time>2026-04-19T09:33:46.982Z</time></trkpt><trkpt lat="44.4337667" lon="10.30347"><ele>478.0</ele><time>2026-04-19T09:33:48.982Z</time></trkpt><trkpt lat="44.43385" lon="10.3034767"><ele>478.00000000000006</ele><time>2026-04-19T09:33:50.982Z</time></trkpt><trkpt lat="44.43394" lon="10.3034683"><ele>478.0</ele><time>2026-04-19T09:33:52.982Z</time></trkpt><trkpt lat="44.4340467" lon="10.3034833"><ele>477.4285714285715</ele><time>2026-04-19T09:33:54.982Z</time></trkpt><trkpt lat="44.4341133" lon="10.3035017"><ele>476.8571428571429</ele><time>2026-04-19T09:33:55.982Z</time></trkpt><trkpt lat="44.4341833" lon="10.3035333"><ele>476.2857142857143</ele><time>2026-04-19T09:33:56.982Z</time></trkpt><trkpt lat="44.43426" lon="10.3035733"><ele>475.7142857142857</ele><time>2026-04-19T09:33:57.982Z</time></trkpt><trkpt lat="44.4343317" lon="10.3036283"><ele>475.1428571428571</ele><time>2026-04-19T09:33:58.982Z</time></trkpt><trkpt lat="44.4343917" lon="10.303695"><ele>474.5714285714285</ele><time>2026-04-19T09:33:59.982Z</time></trkpt><trkpt lat="44.4344467" lon="10.3037483"><ele>473.99999999999994</ele><time>2026-04-19T09:34:00.982Z</time></trkpt><trkpt lat="44.4345017" lon="10.3038017"><ele>474.0</ele><time>2026-04-19T09:34:01.982Z</time></trkpt><trkpt lat="44.4345617" lon="10.3038567"><ele>474.0</ele><time>2026-04-19T09:34:02.982Z</time></trkpt><trkpt lat="44.43462" lon="10.3039117"><ele>474.0</ele><time>2026-04-19T09:34:03.982Z</time></trkpt><trkpt lat="44.4346817" lon="10.3039567"><ele>474.0</ele><time>2026-04-19T09:34:04.982Z</time></trkpt><trkpt lat="44.4347367" lon="10.304"><ele>474.0</ele><time>2026-04-19T09:34:05.982Z</time></trkpt><trkpt lat="44.4347933" lon="10.304045"><ele>474.0</ele><time>2026-04-19T09:34:06.982Z</time></trkpt><trkpt lat="44.4348917" lon="10.3041383"><ele>473.4</ele><time>2026-04-19T09:34:08.982Z</time></trkpt><trkpt lat="44.4349917" lon="10.304245"><ele>472.79999999999995</ele><time>2026-04-19T09:34:10.982Z</time></trkpt><trkpt lat="44.435035" lon="10.3043183"><ele>472.20000000000005</ele><time>2026-04-19T09:34:11.982Z</time></trkpt><trkpt lat="44.43508" lon="10.3043867"><ele>471.6</ele><time>2026-04-19T09:34:12.982Z</time></trkpt><trkpt lat="44.4351683" lon="10.3044967"><ele>471.0</ele><time>2026-04-19T09:34:14.982Z</time></trkpt><trkpt lat="44.43527" lon="10.3045833"><ele>471.00000000000006</ele><time>2026-04-19T09:34:16.982Z</time></trkpt><trkpt lat="44.4353283" lon="10.3046217"><ele>471.0</ele><time>2026-04-19T09:34:17.982Z</time></trkpt><trkpt lat="44.43539" lon="10.3046617"><ele>471.00000000000006</ele><time>2026-04-19T09:34:18.982Z</time></trkpt><trkpt lat="44.4354517" lon="10.3047017"><ele>471.00000000000006</ele><time>2026-04-19T09:34:19.982Z</time></trkpt><trkpt lat="44.435515" lon="10.3047367"><ele>471.0</ele><time>2026-04-19T09:34:20.982Z</time></trkpt><trkpt lat="44.4355767" lon="10.3047717"><ele>471.00000000000006</ele><time>2026-04-19T09:34:21.982Z</time></trkpt><trkpt lat="44.4356817" lon="10.3048083"><ele>471.00000000000006</ele><time>2026-04-19T09:34:23.982Z</time></trkpt><trkpt lat="44.4357783" lon="10.3048667"><ele>470.0</ele><time>2026-04-19T09:34:25.982Z</time></trkpt><trkpt lat="44.4358833" lon="10.3049383"><ele>469.0</ele><time>2026-04-19T09:34:27.983Z</time></trkpt><trkpt lat="44.4359483" lon="10.3049733"><ele>468.0</ele><time>2026-04-19T09:34:28.982Z</time></trkpt><trkpt lat="44.4360183" lon="10.3049983"><ele>467.0</ele><time>2026-04-19T09:34:29.982Z</time></trkpt><trkpt lat="44.43609" lon="10.3050217"><ele>466.0</ele><time>2026-04-19T09:34:30.982Z</time></trkpt><trkpt lat="44.4361617" lon="10.30505"><ele>465.0</ele><time>2026-04-19T09:34:31.982Z</time></trkpt><trkpt lat="44.4362333" lon="10.3050883"><ele>464.0</ele><time>2026-04-19T09:34:32.982Z</time></trkpt><trkpt lat="44.436305" lon="10.3051383"><ele>463.0</ele><time>2026-04-19T09:34:33.982Z</time></trkpt><trkpt lat="44.4363633" lon="10.30519"><ele>462.0</ele><time>2026-04-19T09:34:34.982Z</time></trkpt><trkpt lat="44.4364183" lon="10.30525"><ele>461.0</ele><time>2026-04-19T09:34:35.982Z</time></trkpt><trkpt lat="44.436465" lon="10.3053267"><ele>460.0</ele><time>2026-04-19T09:34:36.982Z</time></trkpt><trkpt lat="44.4365067" lon="10.3053983"><ele>459.0</ele><time>2026-04-19T09:34:37.982Z</time></trkpt><trkpt lat="44.4365733" lon="10.3055417"><ele>459.1666666666667</ele><time>2026-04-19T09:34:39.982Z</time></trkpt><trkpt lat="44.436635" lon="10.3057017"><ele>459.33333333333337</ele><time>2026-04-19T09:34:41.982Z</time></trkpt><trkpt lat="44.4366683" lon="10.3057917"><ele>459.5</ele><time>2026-04-19T09:34:42.982Z</time></trkpt><trkpt lat="44.43671" lon="10.3058817"><ele>459.6666666666667</ele><time>2026-04-19T09:34:43.982Z</time></trkpt><trkpt lat="44.4367633" lon="10.305965"><ele>459.83333333333337</ele><time>2026-04-19T09:34:44.982Z</time></trkpt><trkpt lat="44.4368233" lon="10.3060567"><ele>460.0</ele><time>2026-04-19T09:34:45.982Z</time></trkpt><trkpt lat="44.4368917" lon="10.30614"><ele>460.00000000000006</ele><time>2026-04-19T09:34:46.982Z</time></trkpt><trkpt lat="44.4369633" lon="10.3062183"><ele>460.0</ele><time>2026-04-19T09:34:47.982Z</time></trkpt><trkpt lat="44.4370367" lon="10.30629"><ele>460.0</ele><time>2026-04-19T09:34:48.982Z</time></trkpt><trkpt lat="44.4370917" lon="10.30637"><ele>460.0</ele><time>2026-04-19T09:34:49.982Z</time></trkpt><trkpt lat="44.43714" lon="10.306455"><ele>460.00000000000006</ele><time>2026-04-19T09:34:50.982Z</time></trkpt><trkpt lat="44.4371767" lon="10.3065433"><ele>460.0</ele><time>2026-04-19T09:34:51.982Z</time></trkpt><trkpt lat="44.4372133" lon="10.3066383"><ele>458.6</ele><time>2026-04-19T09:34:52.982Z</time></trkpt><trkpt lat="44.4372483" lon="10.3067133"><ele>457.2</ele><time>2026-04-19T09:34:53.982Z</time></trkpt><trkpt lat="44.437325" lon="10.3068433"><ele>455.79999999999995</ele><time>2026-04-19T09:34:55.982Z</time></trkpt><trkpt lat="44.43743" lon="10.3069533"><ele>454.4</ele><time>2026-04-19T09:34:57.982Z</time></trkpt><trkpt lat="44.4375033" lon="10.3069917"><ele>453.0</ele><time>2026-04-19T09:34:58.982Z</time></trkpt><trkpt lat="44.4375817" lon="10.307025"><ele>453.0</ele><time>2026-04-19T09:34:59.982Z</time></trkpt><trkpt lat="44.4376517" lon="10.3070417"><ele>453.0</ele><time>2026-04-19T09:35:00.982Z</time></trkpt><trkpt lat="44.43772" lon="10.3070533"><ele>453.0</ele><time>2026-04-19T09:35:01.982Z</time></trkpt><trkpt lat="44.437845" lon="10.307035"><ele>453.0</ele><time>2026-04-19T09:35:03.982Z</time></trkpt><trkpt lat="44.4379067" lon="10.30701"><ele>453.0</ele><time>2026-04-19T09:35:04.982Z</time></trkpt><trkpt lat="44.43801" lon="10.3069667"><ele>453.0</ele><time>2026-04-19T09:35:06.982Z</time></trkpt><trkpt lat="44.4381167" lon="10.30699"><ele>452.4</ele><time>2026-04-19T09:35:08.982Z</time></trkpt><trkpt lat="44.4382133" lon="10.3070217"><ele>451.79999999999995</ele><time>2026-04-19T09:35:10.982Z</time></trkpt><trkpt lat="44.43831" lon="10.3070883"><ele>451.2</ele><time>2026-04-19T09:35:12.982Z</time></trkpt><trkpt lat="44.43838" lon="10.3072083"><ele>450.6</ele><time>2026-04-19T09:35:14.982Z</time></trkpt><trkpt lat="44.4384383" lon="10.3073317"><ele>450.0</ele><time>2026-04-19T09:35:16.982Z</time></trkpt><trkpt lat="44.4385483" lon="10.3074167"><ele>450.0</ele><time>2026-04-19T09:35:18.982Z</time></trkpt><trkpt lat="44.4386183" lon="10.307455"><ele>450.0</ele><time>2026-04-19T09:35:19.982Z</time></trkpt><trkpt lat="44.43869" lon="10.3074933"><ele>450.0</ele><time>2026-04-19T09:35:20.982Z</time></trkpt><trkpt lat="44.4387583" lon="10.30754"><ele>450.0</ele><time>2026-04-19T09:35:21.982Z</time></trkpt><trkpt lat="44.438825" lon="10.3075983"><ele>450.0</ele><time>2026-04-19T09:35:22.982Z</time></trkpt><trkpt lat="44.4388917" lon="10.30766"><ele>450.0</ele><time>2026-04-19T09:35:23.982Z</time></trkpt><trkpt lat="44.4389467" lon="10.30771"><ele>449.3333333333333</ele><time>2026-04-19T09:35:24.983Z</time></trkpt><trkpt lat="44.4390067" lon="10.3077467"><ele>448.66666666666663</ele><time>2026-04-19T09:35:25.982Z</time></trkpt><trkpt lat="44.439065" lon="10.3077833"><ele>448.0</ele><time>2026-04-19T09:35:26.982Z</time></trkpt><trkpt lat="44.4391267" lon="10.307815"><ele>447.3333333333333</ele><time>2026-04-19T09:35:27.982Z</time></trkpt><trkpt lat="44.4392233" lon="10.3078533"><ele>446.66666666666663</ele><time>2026-04-19T09:35:29.982Z</time></trkpt><trkpt lat="44.4392967" lon="10.3078867"><ele>446.0</ele><time>2026-04-19T09:35:31.982Z</time></trkpt><trkpt lat="44.4393867" lon="10.307865"><ele>446.0</ele><time>2026-04-19T09:35:52.982Z</time></trkpt><trkpt lat="44.4393867" lon="10.307755"><ele>446.0</ele><time>2026-04-19T09:35:54.982Z</time></trkpt><trkpt lat="44.4393583" lon="10.3076583"><ele>446.0</ele><time>2026-04-19T09:35:55.982Z</time></trkpt><trkpt lat="44.43932" lon="10.3075267"><ele>446.0</ele><time>2026-04-19T09:35:56.982Z</time></trkpt><trkpt lat="44.4392883" lon="10.307365"><ele>446.0</ele><time>2026-04-19T09:35:57.982Z</time></trkpt><trkpt lat="44.4392867" lon="10.307205"><ele>445.99999999999994</ele><time>2026-04-19T09:35:58.982Z</time></trkpt><trkpt lat="44.4393017" lon="10.30707"><ele>446.0</ele><time>2026-04-19T09:35:59.982Z</time></trkpt><trkpt lat="44.4393183" lon="10.30695"><ele>446.0</ele><time>2026-04-19T09:36:00.982Z</time></trkpt><trkpt lat="44.4393217" lon="10.3068367"><ele>446.0</ele><time>2026-04-19T09:36:01.982Z</time></trkpt><trkpt lat="44.43932" lon="10.3067233"><ele>445.99999999999994</ele><time>2026-04-19T09:36:02.982Z</time></trkpt><trkpt lat="44.4393133" lon="10.3065983"><ele>446.0</ele><time>2026-04-19T09:36:03.982Z</time></trkpt><trkpt lat="44.4393083" lon="10.306465"><ele>446.49999999999994</ele><time>2026-04-19T09:36:04.982Z</time></trkpt><trkpt lat="44.4392933" lon="10.3063367"><ele>447.0</ele><time>2026-04-19T09:36:05.982Z</time></trkpt><trkpt lat="44.4392767" lon="10.3062267"><ele>447.5</ele><time>2026-04-19T09:36:06.982Z</time></trkpt><trkpt lat="44.43925" lon="10.3061217"><ele>448.0</ele><time>2026-04-19T09:36:07.982Z</time></trkpt><trkpt lat="44.4392133" lon="10.3060233"><ele>448.49999999999994</ele><time>2026-04-19T09:36:08.982Z</time></trkpt><trkpt lat="44.439165" lon="10.3059183"><ele>449.0</ele><time>2026-04-19T09:36:09.982Z</time></trkpt><trkpt lat="44.4391017" lon="10.3058267"><ele>449.0</ele><time>2026-04-19T09:36:10.982Z</time></trkpt><trkpt lat="44.4390167" lon="10.3057467"><ele>449.0</ele><time>2026-04-19T09:36:11.982Z</time></trkpt><trkpt lat="44.4389267" lon="10.3056867"><ele>449.0</ele><time>2026-04-19T09:36:12.982Z</time></trkpt><trkpt lat="44.4388317" lon="10.3056317"><ele>449.0</ele><time>2026-04-19T09:36:13.982Z</time></trkpt><trkpt lat="44.4387333" lon="10.30559"><ele>449.0</ele><time>2026-04-19T09:36:14.982Z</time></trkpt><trkpt lat="44.438635" lon="10.3055533"><ele>450.2</ele><time>2026-04-19T09:36:15.982Z</time></trkpt><trkpt lat="44.4385467" lon="10.305515"><ele>451.4</ele><time>2026-04-19T09:36:16.982Z</time></trkpt><trkpt lat="44.438455" lon="10.3054817"><ele>452.6</ele><time>2026-04-19T09:36:17.982Z</time></trkpt><trkpt lat="44.4383633" lon="10.3054417"><ele>453.8</ele><time>2026-04-19T09:36:18.982Z</time></trkpt><trkpt lat="44.4382583" lon="10.3054033"><ele>455.0</ele><time>2026-04-19T09:36:19.982Z</time></trkpt><trkpt lat="44.4381483" lon="10.3053617"><ele>455.0</ele><time>2026-04-19T09:36:20.982Z</time></trkpt><trkpt lat="44.4380317" lon="10.3053"><ele>455.0</ele><time>2026-04-19T09:36:21.982Z</time></trkpt><trkpt lat="44.4379033" lon="10.3052217"><ele>455.0</ele><time>2026-04-19T09:36:22.982Z</time></trkpt><trkpt lat="44.4377767" lon="10.30511"><ele>455.0</ele><time>2026-04-19T09:36:23.982Z</time></trkpt><trkpt lat="44.4376533" lon="10.304975"><ele>456.66666666666663</ele><time>2026-04-19T09:36:24.982Z</time></trkpt><trkpt lat="44.43753" lon="10.3048317"><ele>458.33333333333337</ele><time>2026-04-19T09:36:25.982Z</time></trkpt><trkpt lat="44.4373967" lon="10.3046767"><ele>460.0</ele><time>2026-04-19T09:36:26.982Z</time></trkpt><trkpt lat="44.43726" lon="10.3045167"><ele>462.33333333333337</ele><time>2026-04-19T09:36:27.982Z</time></trkpt><trkpt lat="44.4371117" lon="10.3043467"><ele>464.66666666666663</ele><time>2026-04-19T09:36:28.982Z</time></trkpt><trkpt lat="44.436955" lon="10.3041617"><ele>467.0</ele><time>2026-04-19T09:36:29.982Z</time></trkpt><trkpt lat="44.4367967" lon="10.30397"><ele>469.0</ele><time>2026-04-19T09:36:30.982Z</time></trkpt><trkpt lat="44.4366517" lon="10.303785"><ele>471.0</ele><time>2026-04-19T09:36:31.982Z</time></trkpt><trkpt lat="44.4365217" lon="10.303585"><ele>473.0</ele><time>2026-04-19T09:36:32.982Z</time></trkpt><trkpt lat="44.4364167" lon="10.3033933"><ele>473.0</ele><time>2026-04-19T09:36:33.982Z</time></trkpt><trkpt lat="44.4363567" lon="10.303195"><ele>473.0</ele><time>2026-04-19T09:36:34.982Z</time></trkpt><trkpt lat="44.4363583" lon="10.3029917"><ele>473.0</ele><time>2026-04-19T09:36:35.982Z</time></trkpt><trkpt lat="44.43639" lon="10.302785"><ele>474.0</ele><time>2026-04-19T09:36:36.982Z</time></trkpt><trkpt lat="44.43645" lon="10.30258"><ele>475.0</ele><time>2026-04-19T09:36:37.982Z</time></trkpt><trkpt lat="44.4365117" lon="10.3023717"><ele>476.0</ele><time>2026-04-19T09:36:38.982Z</time></trkpt><trkpt lat="44.4365567" lon="10.30217"><ele>478.25</ele><time>2026-04-19T09:36:39.982Z</time></trkpt><trkpt lat="44.4365817" lon="10.3019767"><ele>480.5</ele><time>2026-04-19T09:36:40.982Z</time></trkpt><trkpt lat="44.4365783" lon="10.301795"><ele>482.75</ele><time>2026-04-19T09:36:41.982Z</time></trkpt><trkpt lat="44.4365583" lon="10.3016133"><ele>485.0</ele><time>2026-04-19T09:36:42.982Z</time></trkpt><trkpt lat="44.4365117" lon="10.3014467"><ele>485.75</ele><time>2026-04-19T09:36:43.982Z</time></trkpt><trkpt lat="44.43645" lon="10.3012933"><ele>486.5</ele><time>2026-04-19T09:36:44.982Z</time></trkpt><trkpt lat="44.4363717" lon="10.3011567"><ele>487.25</ele><time>2026-04-19T09:36:45.982Z</time></trkpt><trkpt lat="44.4362617" lon="10.3010383"><ele>488.0</ele><time>2026-04-19T09:36:46.982Z</time></trkpt><trkpt lat="44.4361383" lon="10.3009633"><ele>491.25</ele><time>2026-04-19T09:36:47.982Z</time></trkpt><trkpt lat="44.4359983" lon="10.3009267"><ele>494.5</ele><time>2026-04-19T09:36:48.982Z</time></trkpt><trkpt lat="44.4358583" lon="10.3009183"><ele>497.75</ele><time>2026-04-19T09:36:49.982Z</time></trkpt><trkpt lat="44.435705" lon="10.30093"><ele>501.0</ele><time>2026-04-19T09:36:50.982Z</time></trkpt><trkpt lat="44.4355383" lon="10.3009667"><ele>504.33333333333337</ele><time>2026-04-19T09:36:51.982Z</time></trkpt><trkpt lat="44.435365" lon="10.30101"><ele>507.6666666666667</ele><time>2026-04-19T09:36:52.982Z</time></trkpt><trkpt lat="44.435185" lon="10.30106"><ele>511.0</ele><time>2026-04-19T09:36:53.982Z</time></trkpt><trkpt lat="44.4349967" lon="10.301095"><ele>511.0</ele><time>2026-04-19T09:36:54.982Z</time></trkpt><trkpt lat="44.4348117" lon="10.3011033"><ele>511.0</ele><time>2026-04-19T09:36:55.982Z</time></trkpt><trkpt lat="44.4346283" lon="10.3010817"><ele>511.0</ele><time>2026-04-19T09:36:56.983Z</time></trkpt><trkpt lat="44.4344533" lon="10.301035"><ele>512.0</ele><time>2026-04-19T09:36:57.982Z</time></trkpt><trkpt lat="44.4342733" lon="10.3009667"><ele>513.0</ele><time>2026-04-19T09:36:58.982Z</time></trkpt><trkpt lat="44.4341" lon="10.3008783"><ele>514.0</ele><time>2026-04-19T09:36:59.982Z</time></trkpt><trkpt lat="44.4339283" lon="10.300785"><ele>513.6666666666667</ele><time>2026-04-19T09:37:00.982Z</time></trkpt><trkpt lat="44.433765" lon="10.3007"><ele>513.3333333333334</ele><time>2026-04-19T09:37:01.982Z</time></trkpt><trkpt lat="44.433615" lon="10.300615"><ele>513.0</ele><time>2026-04-19T09:37:02.982Z</time></trkpt><trkpt lat="44.433465" lon="10.300515"><ele>516.0</ele><time>2026-04-19T09:37:03.982Z</time></trkpt><trkpt lat="44.433325" lon="10.300395"><ele>519.0</ele><time>2026-04-19T09:37:04.982Z</time></trkpt><trkpt lat="44.4331917" lon="10.300245"><ele>522.0</ele><time>2026-04-19T09:37:05.982Z</time></trkpt><trkpt lat="44.4330617" lon="10.3000883"><ele>521.3333333333334</ele><time>2026-04-19T09:37:06.982Z</time></trkpt><trkpt lat="44.4329433" lon="10.2998983"><ele>520.6666666666667</ele><time>2026-04-19T09:37:07.982Z</time></trkpt><trkpt lat="44.432855" lon="10.2996733"><ele>520.0</ele><time>2026-04-19T09:37:08.982Z</time></trkpt><trkpt lat="44.4327783" lon="10.2994383"><ele>523.0</ele><time>2026-04-19T09:37:09.982Z</time></trkpt><trkpt lat="44.4327217" lon="10.29919"><ele>526.0</ele><time>2026-04-19T09:37:10.982Z</time></trkpt><trkpt lat="44.4326967" lon="10.29893"><ele>529.0</ele><time>2026-04-19T09:37:11.982Z</time></trkpt><trkpt lat="44.4326967" lon="10.29867"><ele>531.6666666666667</ele><time>2026-04-19T09:37:12.983Z</time></trkpt><trkpt lat="44.432725" lon="10.2984033"><ele>534.3333333333334</ele><time>2026-04-19T09:37:13.982Z</time></trkpt><trkpt lat="44.43278" lon="10.298125"><ele>537.0</ele><time>2026-04-19T09:37:14.982Z</time></trkpt><trkpt lat="44.4328617" lon="10.29784"><ele>538.0</ele><time>2026-04-19T09:37:15.982Z</time></trkpt><trkpt lat="44.43296" lon="10.2975317"><ele>539.0</ele><time>2026-04-19T09:37:16.982Z</time></trkpt><trkpt lat="44.4330667" lon="10.29723"><ele>539.0</ele><time>2026-04-19T09:37:17.982Z</time></trkpt><trkpt lat="44.4331683" lon="10.2969533"><ele>539.0</ele><time>2026-04-19T09:37:18.982Z</time></trkpt><trkpt lat="44.43326" lon="10.2967017"><ele>539.0</ele><time>2026-04-19T09:37:19.982Z</time></trkpt><trkpt lat="44.4333533" lon="10.2964583"><ele>540.6666666666666</ele><time>2026-04-19T09:37:20.982Z</time></trkpt><trkpt lat="44.4334383" lon="10.2962217"><ele>542.3333333333334</ele><time>2026-04-19T09:37:21.982Z</time></trkpt><trkpt lat="44.4335133" lon="10.2959917"><ele>544.0</ele><time>2026-04-19T09:37:22.982Z</time></trkpt><trkpt lat="44.4335733" lon="10.2957783"><ele>545.3333333333334</ele><time>2026-04-19T09:37:23.982Z</time></trkpt><trkpt lat="44.43361" lon="10.29556"><ele>546.6666666666666</ele><time>2026-04-19T09:37:24.982Z</time></trkpt><trkpt lat="44.43361" lon="10.29534"><ele>548.0</ele><time>2026-04-19T09:37:25.982Z</time></trkpt><trkpt lat="44.4335883" lon="10.29511"><ele>548.0</ele><time>2026-04-19T09:37:26.982Z</time></trkpt><trkpt lat="44.433525" lon="10.2948633"><ele>548.0</ele><time>2026-04-19T09:37:27.982Z</time></trkpt><trkpt lat="44.433445" lon="10.294625"><ele>548.0</ele><time>2026-04-19T09:37:28.983Z</time></trkpt><trkpt lat="44.43337" lon="10.2944033"><ele>549.3333333333333</ele><time>2026-04-19T09:37:29.982Z</time></trkpt><trkpt lat="44.4333017" lon="10.2942017"><ele>550.6666666666666</ele><time>2026-04-19T09:37:30.982Z</time></trkpt><trkpt lat="44.4332383" lon="10.2940017"><ele>552.0</ele><time>2026-04-19T09:37:31.982Z</time></trkpt><trkpt lat="44.4331733" lon="10.2937817"><ele>553.5</ele><time>2026-04-19T09:37:32.982Z</time></trkpt><trkpt lat="44.4331133" lon="10.293575"><ele>555.0</ele><time>2026-04-19T09:37:33.982Z</time></trkpt><trkpt lat="44.4330783" lon="10.2934017"><ele>556.5</ele><time>2026-04-19T09:37:34.982Z</time></trkpt><trkpt lat="44.433075" lon="10.2932533"><ele>558.0</ele><time>2026-04-19T09:37:35.982Z</time></trkpt><trkpt lat="44.433105" lon="10.2931233"><ele>558.3333333333334</ele><time>2026-04-19T09:37:36.982Z</time></trkpt><trkpt lat="44.4331467" lon="10.293005"><ele>558.6666666666666</ele><time>2026-04-19T09:37:37.982Z</time></trkpt><trkpt lat="44.4331717" lon="10.2929083"><ele>559.0</ele><time>2026-04-19T09:37:38.982Z</time></trkpt><trkpt lat="44.4331683" lon="10.2928067"><ele>559.3333333333333</ele><time>2026-04-19T09:37:39.982Z</time></trkpt><trkpt lat="44.4331333" lon="10.2927"><ele>559.6666666666666</ele><time>2026-04-19T09:37:40.982Z</time></trkpt><trkpt lat="44.4330567" lon="10.2926"><ele>560.0</ele><time>2026-04-19T09:37:41.982Z</time></trkpt><trkpt lat="44.4329683" lon="10.292475"><ele>560.25</ele><time>2026-04-19T09:37:42.982Z</time></trkpt><trkpt lat="44.4328967" lon="10.2923067"><ele>560.5</ele><time>2026-04-19T09:37:43.982Z</time></trkpt><trkpt lat="44.43284" lon="10.292125"><ele>560.75</ele><time>2026-04-19T09:37:44.982Z</time></trkpt><trkpt lat="44.4328083" lon="10.2919133"><ele>561.0</ele><time>2026-04-19T09:37:45.982Z</time></trkpt><trkpt lat="44.4327767" lon="10.2916933"><ele>561.6666666666666</ele><time>2026-04-19T09:37:46.982Z</time></trkpt><trkpt lat="44.4327133" lon="10.29147"><ele>562.3333333333333</ele><time>2026-04-19T09:37:47.982Z</time></trkpt><trkpt lat="44.4326267" lon="10.2912567"><ele>563.0</ele><time>2026-04-19T09:37:48.983Z</time></trkpt><trkpt lat="44.4325167" lon="10.2910567"><ele>563.6666666666666</ele><time>2026-04-19T09:37:49.982Z</time></trkpt><trkpt lat="44.4323967" lon="10.290855"><ele>564.3333333333334</ele><time>2026-04-19T09:37:50.982Z</time></trkpt><trkpt lat="44.4322817" lon="10.2906433"><ele>565.0</ele><time>2026-04-19T09:37:51.982Z</time></trkpt><trkpt lat="44.4321617" lon="10.2904167"><ele>565.3333333333334</ele><time>2026-04-19T09:37:52.982Z</time></trkpt><trkpt lat="44.4320433" lon="10.2901883"><ele>565.6666666666666</ele><time>2026-04-19T09:37:53.982Z</time></trkpt><trkpt lat="44.431925" lon="10.2899617"><ele>566.0</ele><time>2026-04-19T09:37:54.982Z</time></trkpt><trkpt lat="44.4318067" lon="10.2897483"><ele>567.3333333333333</ele><time>2026-04-19T09:37:55.982Z</time></trkpt><trkpt lat="44.4316883" lon="10.28954"><ele>568.6666666666666</ele><time>2026-04-19T09:37:56.982Z</time></trkpt><trkpt lat="44.4315767" lon="10.289335"><ele>570.0</ele><time>2026-04-19T09:37:57.983Z</time></trkpt><trkpt lat="44.43147" lon="10.289125"><ele>570.0</ele><time>2026-04-19T09:37:58.982Z</time></trkpt><trkpt lat="44.4313767" lon="10.28893"><ele>570.0</ele><time>2026-04-19T09:37:59.982Z</time></trkpt><trkpt lat="44.4313167" lon="10.2887083"><ele>570.0</ele><time>2026-04-19T09:38:00.982Z</time></trkpt><trkpt lat="44.4312867" lon="10.2884767"><ele>571.0</ele><time>2026-04-19T09:38:01.982Z</time></trkpt><trkpt lat="44.4312717" lon="10.2882417"><ele>572.0</ele><time>2026-04-19T09:38:02.982Z</time></trkpt><trkpt lat="44.431255" lon="10.2880183"><ele>573.0</ele><time>2026-04-19T09:38:03.982Z</time></trkpt><trkpt lat="44.4312333" lon="10.2878017"><ele>574.5</ele><time>2026-04-19T09:38:04.982Z</time></trkpt><trkpt lat="44.4312" lon="10.28762"><ele>576.0</ele><time>2026-04-19T09:38:05.982Z</time></trkpt><trkpt lat="44.4311417" lon="10.28747"><ele>577.5</ele><time>2026-04-19T09:38:06.982Z</time></trkpt><trkpt lat="44.4310583" lon="10.2873567"><ele>579.0</ele><time>2026-04-19T09:38:07.982Z</time></trkpt><trkpt lat="44.4309633" lon="10.2872867"><ele>579.0</ele><time>2026-04-19T09:38:08.982Z</time></trkpt><trkpt lat="44.4308533" lon="10.2872617"><ele>579.0</ele><time>2026-04-19T09:38:09.982Z</time></trkpt><trkpt lat="44.4307117" lon="10.2872933"><ele>579.0</ele><time>2026-04-19T09:38:10.982Z</time></trkpt><trkpt lat="44.43055" lon="10.2873667"><ele>579.0</ele><time>2026-04-19T09:38:11.982Z</time></trkpt><trkpt lat="44.43037" lon="10.2874467"><ele>579.3333333333334</ele><time>2026-04-19T09:38:12.983Z</time></trkpt><trkpt lat="44.4301817" lon="10.2875083"><ele>579.6666666666667</ele><time>2026-04-19T09:38:13.982Z</time></trkpt><trkpt lat="44.4299867" lon="10.28752"><ele>580.0</ele><time>2026-04-19T09:38:14.982Z</time></trkpt><trkpt lat="44.4298083" lon="10.287505"><ele>580.0</ele><time>2026-04-19T09:38:15.982Z</time></trkpt><trkpt lat="44.4296467" lon="10.28747"><ele>580.0</ele><time>2026-04-19T09:38:16.982Z</time></trkpt><trkpt lat="44.429475" lon="10.287425"><ele>580.0</ele><time>2026-04-19T09:38:17.982Z</time></trkpt><trkpt lat="44.4293033" lon="10.28736"><ele>581.3333333333334</ele><time>2026-04-19T09:38:18.982Z</time></trkpt><trkpt lat="44.42913" lon="10.2872717"><ele>582.6666666666666</ele><time>2026-04-19T09:38:19.982Z</time></trkpt><trkpt lat="44.42895" lon="10.2871617"><ele>584.0</ele><time>2026-04-19T09:38:20.982Z</time></trkpt><trkpt lat="44.42878" lon="10.2870533"><ele>586.6666666666666</ele><time>2026-04-19T09:38:21.982Z</time></trkpt><trkpt lat="44.4286217" lon="10.28694"><ele>589.3333333333334</ele><time>2026-04-19T09:38:22.982Z</time></trkpt><trkpt lat="44.4284667" lon="10.2868"><ele>592.0</ele><time>2026-04-19T09:38:23.982Z</time></trkpt><trkpt lat="44.4283233" lon="10.286625"><ele>593.0</ele><time>2026-04-19T09:38:24.982Z</time></trkpt><trkpt lat="44.428185" lon="10.2864183"><ele>594.0</ele><time>2026-04-19T09:38:25.982Z</time></trkpt><trkpt lat="44.428055" lon="10.2862017"><ele>595.0</ele><time>2026-04-19T09:38:26.982Z</time></trkpt><trkpt lat="44.42793" lon="10.2860067"><ele>596.3333333333334</ele><time>2026-04-19T09:38:27.982Z</time></trkpt><trkpt lat="44.4278167" lon="10.2858233"><ele>597.6666666666666</ele><time>2026-04-19T09:38:28.982Z</time></trkpt><trkpt lat="44.4277067" lon="10.285655"><ele>599.0</ele><time>2026-04-19T09:38:29.982Z</time></trkpt><trkpt lat="44.4275967" lon="10.2854817"><ele>602.0</ele><time>2026-04-19T09:38:30.982Z</time></trkpt><trkpt lat="44.4274883" lon="10.2853"><ele>605.0</ele><time>2026-04-19T09:38:31.982Z</time></trkpt><trkpt lat="44.4274017" lon="10.2851033"><ele>608.0</ele><time>2026-04-19T09:38:32.982Z</time></trkpt><trkpt lat="44.4273317" lon="10.2849083"><ele>609.3333333333333</ele><time>2026-04-19T09:38:33.982Z</time></trkpt><trkpt lat="44.42729" lon="10.2846967"><ele>610.6666666666666</ele><time>2026-04-19T09:38:34.982Z</time></trkpt><trkpt lat="44.4272717" lon="10.28448"><ele>612.0</ele><time>2026-04-19T09:38:35.982Z</time></trkpt><trkpt lat="44.4272583" lon="10.2842617"><ele>612.0</ele><time>2026-04-19T09:38:36.982Z</time></trkpt><trkpt lat="44.427245" lon="10.284065"><ele>612.0</ele><time>2026-04-19T09:38:37.982Z</time></trkpt><trkpt lat="44.427225" lon="10.2838933"><ele>612.0</ele><time>2026-04-19T09:38:38.982Z</time></trkpt><trkpt lat="44.4271767" lon="10.28375"><ele>612.0</ele><time>2026-04-19T09:38:39.982Z</time></trkpt><trkpt lat="44.427095" lon="10.2836383"><ele>614.5</ele><time>2026-04-19T09:38:40.982Z</time></trkpt><trkpt lat="44.4269783" lon="10.2835583"><ele>617.0</ele><time>2026-04-19T09:38:41.982Z</time></trkpt><trkpt lat="44.4268417" lon="10.2834917"><ele>619.5</ele><time>2026-04-19T09:38:42.982Z</time></trkpt><trkpt lat="44.4266917" lon="10.28343"><ele>622.0</ele><time>2026-04-19T09:38:43.982Z</time></trkpt><trkpt lat="44.426545" lon="10.28336"><ele>622.0</ele><time>2026-04-19T09:38:44.982Z</time></trkpt><trkpt lat="44.4264083" lon="10.2832667"><ele>622.0</ele><time>2026-04-19T09:38:45.982Z</time></trkpt><trkpt lat="44.4262733" lon="10.2831567"><ele>622.0</ele><time>2026-04-19T09:38:46.982Z</time></trkpt><trkpt lat="44.4261467" lon="10.28304"><ele>624.25</ele><time>2026-04-19T09:38:47.982Z</time></trkpt><trkpt lat="44.426025" lon="10.28293"><ele>626.5</ele><time>2026-04-19T09:38:48.982Z</time></trkpt><trkpt lat="44.42591" lon="10.2828217"><ele>628.75</ele><time>2026-04-19T09:38:49.982Z</time></trkpt><trkpt lat="44.4258017" lon="10.28272"><ele>631.0</ele><time>2026-04-19T09:38:50.982Z</time></trkpt><trkpt lat="44.4257333" lon="10.2825933"><ele>631.0</ele><time>2026-04-19T09:38:51.982Z</time></trkpt><trkpt lat="44.425695" lon="10.282435"><ele>631.0</ele><time>2026-04-19T09:38:52.982Z</time></trkpt><trkpt lat="44.4256867" lon="10.282265"><ele>631.0</ele><time>2026-04-19T09:38:53.982Z</time></trkpt><trkpt lat="44.425695" lon="10.282095"><ele>631.0</ele><time>2026-04-19T09:38:54.982Z</time></trkpt><trkpt lat="44.4257183" lon="10.2819517"><ele>632.5</ele><time>2026-04-19T09:38:55.982Z</time></trkpt><trkpt lat="44.4257633" lon="10.28182"><ele>634.0</ele><time>2026-04-19T09:38:56.982Z</time></trkpt><trkpt lat="44.425845" lon="10.2817017"><ele>635.5</ele><time>2026-04-19T09:38:57.982Z</time></trkpt><trkpt lat="44.425955" lon="10.281605"><ele>637.0</ele><time>2026-04-19T09:38:58.982Z</time></trkpt><trkpt lat="44.4260867" lon="10.2814883"><ele>638.6666666666667</ele><time>2026-04-19T09:38:59.982Z</time></trkpt><trkpt lat="44.42624" lon="10.2813683"><ele>640.3333333333334</ele><time>2026-04-19T09:39:00.982Z</time></trkpt><trkpt lat="44.426395" lon="10.281245"><ele>642.0</ele><time>2026-04-19T09:39:01.982Z</time></trkpt><trkpt lat="44.4265433" lon="10.2811233"><ele>642.75</ele><time>2026-04-19T09:39:02.982Z</time></trkpt><trkpt lat="44.4266783" lon="10.2810083"><ele>643.5</ele><time>2026-04-19T09:39:03.982Z</time></trkpt><trkpt lat="44.4267983" lon="10.2809033"><ele>644.25</ele><time>2026-04-19T09:39:04.982Z</time></trkpt><trkpt lat="44.4269117" lon="10.2807867"><ele>645.0</ele><time>2026-04-19T09:39:05.982Z</time></trkpt><trkpt lat="44.426995" lon="10.28067"><ele>646.4</ele><time>2026-04-19T09:39:06.982Z</time></trkpt><trkpt lat="44.42705" lon="10.2805383"><ele>647.8</ele><time>2026-04-19T09:39:07.982Z</time></trkpt><trkpt lat="44.4270733" lon="10.280405"><ele>649.2</ele><time>2026-04-19T09:39:08.982Z</time></trkpt><trkpt lat="44.4270567" lon="10.2802667"><ele>650.6</ele><time>2026-04-19T09:39:09.982Z</time></trkpt><trkpt lat="44.4270033" lon="10.280155"><ele>652.0</ele><time>2026-04-19T09:39:10.982Z</time></trkpt><trkpt lat="44.4269183" lon="10.2800783"><ele>652.0</ele><time>2026-04-19T09:39:11.982Z</time></trkpt><trkpt lat="44.4268083" lon="10.280035"><ele>652.0</ele><time>2026-04-19T09:39:12.982Z</time></trkpt><trkpt lat="44.4266783" lon="10.2799883"><ele>652.0</ele><time>2026-04-19T09:39:13.982Z</time></trkpt><trkpt lat="44.4265583" lon="10.2799317"><ele>652.0</ele><time>2026-04-19T09:39:14.982Z</time></trkpt><trkpt lat="44.4264583" lon="10.27985"><ele>653.75</ele><time>2026-04-19T09:39:15.982Z</time></trkpt><trkpt lat="44.42638" lon="10.2797367"><ele>655.5</ele><time>2026-04-19T09:39:16.982Z</time></trkpt><trkpt lat="44.4263283" lon="10.2795767"><ele>657.25</ele><time>2026-04-19T09:39:17.982Z</time></trkpt><trkpt lat="44.4263167" lon="10.2793767"><ele>659.0</ele><time>2026-04-19T09:39:18.982Z</time></trkpt><trkpt lat="44.4263233" lon="10.279155"><ele>659.0</ele><time>2026-04-19T09:39:19.982Z</time></trkpt><trkpt lat="44.4263267" lon="10.2789633"><ele>659.0</ele><time>2026-04-19T09:39:20.982Z</time></trkpt><trkpt lat="44.4263233" lon="10.278805"><ele>659.0</ele><time>2026-04-19T09:39:21.981Z</time></trkpt><trkpt lat="44.4263033" lon="10.2786767"><ele>659.0</ele><time>2026-04-19T09:39:22.981Z</time></trkpt><trkpt lat="44.4262617" lon="10.2785717"><ele>659.0</ele><time>2026-04-19T09:39:23.981Z</time></trkpt><trkpt lat="44.4261917" lon="10.278505"><ele>662.0</ele><time>2026-04-19T09:39:24.981Z</time></trkpt><trkpt lat="44.4260867" lon="10.27847"><ele>665.0</ele><time>2026-04-19T09:39:25.981Z</time></trkpt><trkpt lat="44.4259467" lon="10.2784717"><ele>668.0</ele><time>2026-04-19T09:39:26.981Z</time></trkpt><trkpt lat="44.42579" lon="10.278505"><ele>671.0</ele><time>2026-04-19T09:39:27.981Z</time></trkpt><trkpt lat="44.4256433" lon="10.2785933"><ele>671.0</ele><time>2026-04-19T09:39:28.981Z</time></trkpt><trkpt lat="44.42552" lon="10.2787083"><ele>671.0</ele><time>2026-04-19T09:39:29.981Z</time></trkpt><trkpt lat="44.4254083" lon="10.278825"><ele>671.0</ele><time>2026-04-19T09:39:30.981Z</time></trkpt><trkpt lat="44.4253033" lon="10.2789167"><ele>671.0</ele><time>2026-04-19T09:39:31.981Z</time></trkpt><trkpt lat="44.42521" lon="10.27898"><ele>671.0</ele><time>2026-04-19T09:39:32.981Z</time></trkpt><trkpt lat="44.4251183" lon="10.2789983"><ele>671.0</ele><time>2026-04-19T09:39:33.981Z</time></trkpt><trkpt lat="44.425025" lon="10.27896"><ele>671.0</ele><time>2026-04-19T09:39:34.981Z</time></trkpt><trkpt lat="44.4249217" lon="10.2788683"><ele>671.0</ele><time>2026-04-19T09:39:35.981Z</time></trkpt><trkpt lat="44.4248283" lon="10.27875"><ele>671.0</ele><time>2026-04-19T09:39:36.981Z</time></trkpt><trkpt lat="44.4247433" lon="10.2786517"><ele>673.0</ele><time>2026-04-19T09:39:37.981Z</time></trkpt><trkpt lat="44.4246483" lon="10.2786033"><ele>675.0</ele><time>2026-04-19T09:39:38.981Z</time></trkpt><trkpt lat="44.4245383" lon="10.2786083"><ele>677.0</ele><time>2026-04-19T09:39:39.981Z</time></trkpt><trkpt lat="44.4244433" lon="10.2786783"><ele>679.0</ele><time>2026-04-19T09:39:40.981Z</time></trkpt><trkpt lat="44.4243783" lon="10.2787817"><ele>681.0</ele><time>2026-04-19T09:39:41.981Z</time></trkpt><trkpt lat="44.42434" lon="10.2789217"><ele>684.0</ele><time>2026-04-19T09:39:42.981Z</time></trkpt><trkpt lat="44.4243" lon="10.27907"><ele>687.0</ele><time>2026-04-19T09:39:43.981Z</time></trkpt><trkpt lat="44.424245" lon="10.2792117"><ele>690.0</ele><time>2026-04-19T09:39:44.981Z</time></trkpt><trkpt lat="44.4241633" lon="10.2793367"><ele>693.0</ele><time>2026-04-19T09:39:45.981Z</time></trkpt><trkpt lat="44.4240717" lon="10.27946"><ele>693.0</ele><time>2026-04-19T09:39:46.981Z</time></trkpt><trkpt lat="44.4239783" lon="10.27959"><ele>693.0</ele><time>2026-04-19T09:39:47.981Z</time></trkpt><trkpt lat="44.4238517" lon="10.2797133"><ele>693.0</ele><time>2026-04-19T09:39:48.981Z</time></trkpt><trkpt lat="44.4237317" lon="10.27984"><ele>693.0</ele><time>2026-04-19T09:39:49.981Z</time></trkpt><trkpt lat="44.4236183" lon="10.2799717"><ele>694.0</ele><time>2026-04-19T09:39:50.981Z</time></trkpt><trkpt lat="44.4235033" lon="10.2800783"><ele>695.0</ele><time>2026-04-19T09:39:51.981Z</time></trkpt><trkpt lat="44.4233883" lon="10.2801383"><ele>696.0</ele><time>2026-04-19T09:39:52.981Z</time></trkpt><trkpt lat="44.4232867" lon="10.2801567"><ele>697.0</ele><time>2026-04-19T09:39:53.982Z</time></trkpt><trkpt lat="44.4231733" lon="10.2801317"><ele>697.0</ele><time>2026-04-19T09:39:54.981Z</time></trkpt><trkpt lat="44.4230733" lon="10.280055"><ele>697.0</ele><time>2026-04-19T09:39:55.981Z</time></trkpt><trkpt lat="44.4229817" lon="10.2799233"><ele>697.0</ele><time>2026-04-19T09:39:56.981Z</time></trkpt><trkpt lat="44.4228983" lon="10.2797567"><ele>697.0</ele><time>2026-04-19T09:39:57.981Z</time></trkpt><trkpt lat="44.42281" lon="10.2795417"><ele>699.3333333333334</ele><time>2026-04-19T09:39:58.981Z</time></trkpt><trkpt lat="44.4227083" lon="10.2793267"><ele>701.6666666666666</ele><time>2026-04-19T09:39:59.981Z</time></trkpt><trkpt lat="44.4225933" lon="10.2791167"><ele>704.0</ele><time>2026-04-19T09:40:00.981Z</time></trkpt><trkpt lat="44.4224967" lon="10.27893"><ele>711.6666666666666</ele><time>2026-04-19T09:40:01.981Z</time></trkpt><trkpt lat="44.4224" lon="10.278745"><ele>719.3333333333334</ele><time>2026-04-19T09:40:02.981Z</time></trkpt><trkpt lat="44.4222967" lon="10.2785717"><ele>727.0</ele><time>2026-04-19T09:40:03.981Z</time></trkpt><trkpt lat="44.4222033" lon="10.2784083"><ele>730.0</ele><time>2026-04-19T09:40:04.981Z</time></trkpt><trkpt lat="44.4221033" lon="10.27828"><ele>733.0</ele><time>2026-04-19T09:40:05.981Z</time></trkpt><trkpt lat="44.421985" lon="10.27818"><ele>736.0</ele><time>2026-04-19T09:40:06.981Z</time></trkpt><trkpt lat="44.4218533" lon="10.2781033"><ele>739.0</ele><time>2026-04-19T09:40:07.981Z</time></trkpt><trkpt lat="44.42169" lon="10.27806"><ele>739.0</ele><time>2026-04-19T09:40:08.981Z</time></trkpt><trkpt lat="44.4215117" lon="10.278045"><ele>739.0</ele><time>2026-04-19T09:40:09.981Z</time></trkpt><trkpt lat="44.4213483" lon="10.27805"><ele>739.0</ele><time>2026-04-19T09:40:10.981Z</time></trkpt><trkpt lat="44.4211867" lon="10.2780933"><ele>736.25</ele><time>2026-04-19T09:40:11.981Z</time></trkpt><trkpt lat="44.4210467" lon="10.2781333"><ele>733.5</ele><time>2026-04-19T09:40:12.981Z</time></trkpt><trkpt lat="44.42093" lon="10.2781417"><ele>730.75</ele><time>2026-04-19T09:40:13.981Z</time></trkpt><trkpt lat="44.4208167" lon="10.27812"><ele>728.0</ele><time>2026-04-19T09:40:14.982Z</time></trkpt><trkpt lat="44.4207" lon="10.2780483"><ele>728.0</ele><time>2026-04-19T09:40:15.981Z</time></trkpt><trkpt lat="44.4205833" lon="10.2779333"><ele>728.0</ele><time>2026-04-19T09:40:16.981Z</time></trkpt><trkpt lat="44.4204783" lon="10.2777933"><ele>728.0</ele><time>2026-04-19T09:40:17.981Z</time></trkpt><trkpt lat="44.4203767" lon="10.27766"><ele>728.0</ele><time>2026-04-19T09:40:18.981Z</time></trkpt><trkpt lat="44.420285" lon="10.277535"><ele>726.25</ele><time>2026-04-19T09:40:19.981Z</time></trkpt><trkpt lat="44.4202183" lon="10.2774017"><ele>724.5</ele><time>2026-04-19T09:40:20.981Z</time></trkpt><trkpt lat="44.4201783" lon="10.2772517"><ele>722.75</ele><time>2026-04-19T09:40:21.981Z</time></trkpt><trkpt lat="44.4201617" lon="10.277075"><ele>721.0</ele><time>2026-04-19T09:40:22.981Z</time></trkpt><trkpt lat="44.4201567" lon="10.2768917"><ele>723.8333333333334</ele><time>2026-04-19T09:40:23.981Z</time></trkpt><trkpt lat="44.4201517" lon="10.2767433"><ele>726.6666666666667</ele><time>2026-04-19T09:40:24.981Z</time></trkpt><trkpt lat="44.42014" lon="10.2766283"><ele>729.5</ele><time>2026-04-19T09:40:25.981Z</time></trkpt><trkpt lat="44.4201083" lon="10.2765167"><ele>732.3333333333334</ele><time>2026-04-19T09:40:26.981Z</time></trkpt><trkpt lat="44.4200583" lon="10.2764317"><ele>735.1666666666666</ele><time>2026-04-19T09:40:27.981Z</time></trkpt><trkpt lat="44.4199833" lon="10.27638"><ele>738.0</ele><time>2026-04-19T09:40:28.981Z</time></trkpt><trkpt lat="44.419895" lon="10.276385"><ele>738.0</ele><time>2026-04-19T09:40:29.981Z</time></trkpt><trkpt lat="44.419785" lon="10.2764767"><ele>738.0</ele><time>2026-04-19T09:40:30.981Z</time></trkpt><trkpt lat="44.4196717" lon="10.2765883"><ele>738.0</ele><time>2026-04-19T09:40:31.981Z</time></trkpt><trkpt lat="44.4195517" lon="10.27666"><ele>738.0</ele><time>2026-04-19T09:40:32.982Z</time></trkpt><trkpt lat="44.41943" lon="10.2766767"><ele>738.75</ele><time>2026-04-19T09:40:33.981Z</time></trkpt><trkpt lat="44.41931" lon="10.27664"><ele>739.5</ele><time>2026-04-19T09:40:34.981Z</time></trkpt><trkpt lat="44.4192017" lon="10.2765433"><ele>740.25</ele><time>2026-04-19T09:40:35.981Z</time></trkpt><trkpt lat="44.4190833" lon="10.2764383"><ele>741.0</ele><time>2026-04-19T09:40:36.981Z</time></trkpt><trkpt lat="44.41895" lon="10.2763317"><ele>748.0</ele><time>2026-04-19T09:40:37.981Z</time></trkpt><trkpt lat="44.4187867" lon="10.276265"><ele>755.0</ele><time>2026-04-19T09:40:38.981Z</time></trkpt><trkpt lat="44.418585" lon="10.2762133"><ele>762.0</ele><time>2026-04-19T09:40:39.981Z</time></trkpt><trkpt lat="44.4183767" lon="10.276155"><ele>762.0</ele><time>2026-04-19T09:40:40.981Z</time></trkpt><trkpt lat="44.41817" lon="10.2761033"><ele>762.0</ele><time>2026-04-19T09:40:41.981Z</time></trkpt><trkpt lat="44.4179883" lon="10.2760567"><ele>762.0</ele><time>2026-04-19T09:40:42.981Z</time></trkpt><trkpt lat="44.4178133" lon="10.2760183"><ele>760.0</ele><time>2026-04-19T09:40:43.981Z</time></trkpt><trkpt lat="44.4176533" lon="10.2759667"><ele>758.0</ele><time>2026-04-19T09:40:44.981Z</time></trkpt><trkpt lat="44.4175133" lon="10.2758967"><ele>756.0</ele><time>2026-04-19T09:40:45.981Z</time></trkpt><trkpt lat="44.4173767" lon="10.2758033"><ele>756.0</ele><time>2026-04-19T09:40:46.981Z</time></trkpt><trkpt lat="44.4172567" lon="10.2756767"><ele>756.0</ele><time>2026-04-19T09:40:47.981Z</time></trkpt><trkpt lat="44.41715" lon="10.27553"><ele>756.0</ele><time>2026-04-19T09:40:48.981Z</time></trkpt><trkpt lat="44.4170283" lon="10.2753883"><ele>761.0</ele><time>2026-04-19T09:40:49.981Z</time></trkpt><trkpt lat="44.416895" lon="10.2753017"><ele>766.0</ele><time>2026-04-19T09:40:50.981Z</time></trkpt><trkpt lat="44.4167483" lon="10.2752583"><ele>771.0</ele><time>2026-04-19T09:40:51.981Z</time></trkpt><trkpt lat="44.4165883" lon="10.27525"><ele>771.0</ele><time>2026-04-19T09:40:52.981Z</time></trkpt><trkpt lat="44.4164083" lon="10.2752783"><ele>771.0</ele><time>2026-04-19T09:40:53.981Z</time></trkpt><trkpt lat="44.41622" lon="10.275305"><ele>771.0</ele><time>2026-04-19T09:40:54.981Z</time></trkpt><trkpt lat="44.416045" lon="10.27533"><ele>771.0</ele><time>2026-04-19T09:40:55.982Z</time></trkpt><trkpt lat="44.4158983" lon="10.2753433"><ele>771.0</ele><time>2026-04-19T09:40:56.981Z</time></trkpt><trkpt lat="44.4157683" lon="10.275345"><ele>771.0</ele><time>2026-04-19T09:40:57.981Z</time></trkpt><trkpt lat="44.4156567" lon="10.27532"><ele>771.0</ele><time>2026-04-19T09:40:58.981Z</time></trkpt><trkpt lat="44.4155433" lon="10.27527"><ele>771.0</ele><time>2026-04-19T09:40:59.981Z</time></trkpt><trkpt lat="44.415445" lon="10.2751533"><ele>771.0</ele><time>2026-04-19T09:41:00.981Z</time></trkpt><trkpt lat="44.415375" lon="10.2749783"><ele>771.0</ele><time>2026-04-19T09:41:01.982Z</time></trkpt><trkpt lat="44.4153083" lon="10.274775"><ele>771.0</ele><time>2026-04-19T09:41:02.981Z</time></trkpt><trkpt lat="44.4152383" lon="10.2745833"><ele>774.0</ele><time>2026-04-19T09:41:03.981Z</time></trkpt><trkpt lat="44.4151633" lon="10.2744367"><ele>777.0</ele><time>2026-04-19T09:41:04.982Z</time></trkpt><trkpt lat="44.4150783" lon="10.274355"><ele>780.0</ele><time>2026-04-19T09:41:05.981Z</time></trkpt><trkpt lat="44.4149867" lon="10.274325"><ele>783.0</ele><time>2026-04-19T09:41:06.981Z</time></trkpt><trkpt lat="44.4148883" lon="10.2743667"><ele>786.0</ele><time>2026-04-19T09:41:07.981Z</time></trkpt><trkpt lat="44.4147833" lon="10.2744633"><ele>786.0</ele><time>2026-04-19T09:41:08.981Z</time></trkpt><trkpt lat="44.4146617" lon="10.27458"><ele>786.0</ele><time>2026-04-19T09:41:09.981Z</time></trkpt><trkpt lat="44.41455" lon="10.274685"><ele>786.0</ele><time>2026-04-19T09:41:10.981Z</time></trkpt><trkpt lat="44.41445" lon="10.2747733"><ele>786.0</ele><time>2026-04-19T09:41:11.981Z</time></trkpt><trkpt lat="44.4143367" lon="10.274835"><ele>786.5</ele><time>2026-04-19T09:41:12.981Z</time></trkpt><trkpt lat="44.4142133" lon="10.2748383"><ele>787.0</ele><time>2026-04-19T09:41:13.981Z</time></trkpt><trkpt lat="44.4141017" lon="10.2747917"><ele>787.5</ele><time>2026-04-19T09:41:14.981Z</time></trkpt><trkpt lat="44.414" lon="10.2746867"><ele>788.0</ele><time>2026-04-19T09:41:15.981Z</time></trkpt><trkpt lat="44.41392" lon="10.2745467"><ele>788.0</ele><time>2026-04-19T09:41:16.981Z</time></trkpt><trkpt lat="44.4138483" lon="10.274395"><ele>788.0</ele><time>2026-04-19T09:41:17.981Z</time></trkpt><trkpt lat="44.4137633" lon="10.2742267"><ele>788.0</ele><time>2026-04-19T09:41:18.981Z</time></trkpt><trkpt lat="44.4136833" lon="10.274075"><ele>788.0</ele><time>2026-04-19T09:41:19.981Z</time></trkpt><trkpt lat="44.4136033" lon="10.2739367"><ele>788.75</ele><time>2026-04-19T09:41:20.981Z</time></trkpt><trkpt lat="44.4135267" lon="10.2738017"><ele>789.5</ele><time>2026-04-19T09:41:21.981Z</time></trkpt><trkpt lat="44.4134483" lon="10.273665"><ele>790.25</ele><time>2026-04-19T09:41:22.981Z</time></trkpt><trkpt lat="44.4133717" lon="10.2735217"><ele>791.0</ele><time>2026-04-19T09:41:23.981Z</time></trkpt><trkpt lat="44.4132933" lon="10.2733833"><ele>791.0</ele><time>2026-04-19T09:41:24.981Z</time></trkpt><trkpt lat="44.4132033" lon="10.2732467"><ele>791.0</ele><time>2026-04-19T09:41:25.981Z</time></trkpt><trkpt lat="44.413115" lon="10.2731217"><ele>791.0</ele><time>2026-04-19T09:41:26.981Z</time></trkpt><trkpt lat="44.4130367" lon="10.2729867"><ele>791.0</ele><time>2026-04-19T09:41:27.981Z</time></trkpt><trkpt lat="44.4129517" lon="10.27286"><ele>795.25</ele><time>2026-04-19T09:41:28.981Z</time></trkpt><trkpt lat="44.41286" lon="10.27276"><ele>799.5</ele><time>2026-04-19T09:41:29.981Z</time></trkpt><trkpt lat="44.4127583" lon="10.27272"><ele>803.75</ele><time>2026-04-19T09:41:30.981Z</time></trkpt><trkpt lat="44.412645" lon="10.272735"><ele>808.0</ele><time>2026-04-19T09:41:31.981Z</time></trkpt><trkpt lat="44.41253" lon="10.2727917"><ele>808.0</ele><time>2026-04-19T09:41:32.981Z</time></trkpt><trkpt lat="44.41242" lon="10.272875"><ele>808.0</ele><time>2026-04-19T09:41:33.981Z</time></trkpt><trkpt lat="44.4123083" lon="10.2729883"><ele>808.0</ele><time>2026-04-19T09:41:34.981Z</time></trkpt><trkpt lat="44.4122017" lon="10.2731233"><ele>808.0</ele><time>2026-04-19T09:41:35.981Z</time></trkpt><trkpt lat="44.412095" lon="10.2732617"><ele>807.8</ele><time>2026-04-19T09:41:36.981Z</time></trkpt><trkpt lat="44.412" lon="10.2733817"><ele>807.5999999999999</ele><time>2026-04-19T09:41:37.981Z</time></trkpt><trkpt lat="44.411925" lon="10.273475"><ele>807.4000000000001</ele><time>2026-04-19T09:41:38.981Z</time></trkpt><trkpt lat="44.41186" lon="10.2735417"><ele>807.2</ele><time>2026-04-19T09:41:39.981Z</time></trkpt><trkpt lat="44.4118067" lon="10.2735917"><ele>807.0</ele><time>2026-04-19T09:41:40.981Z</time></trkpt><trkpt lat="44.411715" lon="10.27364"><ele>807.0</ele><time>2026-04-19T09:41:42.981Z</time></trkpt><trkpt lat="44.4116483" lon="10.2736117"><ele>807.0</ele><time>2026-04-19T09:41:44.981Z</time></trkpt><trkpt lat="44.4116283" lon="10.2735033"><ele>807.0</ele><time>2026-04-19T09:41:46.981Z</time></trkpt><trkpt lat="44.4117217" lon="10.2733167"><ele>807.0</ele><time>2026-04-19T09:41:48.981Z</time></trkpt><trkpt lat="44.4118083" lon="10.2731733"><ele>807.0</ele><time>2026-04-19T09:41:49.981Z</time></trkpt><trkpt lat="44.4118967" lon="10.2730033"><ele>807.25</ele><time>2026-04-19T09:41:50.981Z</time></trkpt><trkpt lat="44.4119883" lon="10.27283"><ele>807.5</ele><time>2026-04-19T09:41:51.981Z</time></trkpt><trkpt lat="44.4120867" lon="10.2726633"><ele>807.75</ele><time>2026-04-19T09:41:52.981Z</time></trkpt><trkpt lat="44.4121833" lon="10.272535"><ele>808.0</ele><time>2026-04-19T09:41:53.981Z</time></trkpt><trkpt lat="44.412265" lon="10.2724133"><ele>808.0</ele><time>2026-04-19T09:41:54.981Z</time></trkpt><trkpt lat="44.4123517" lon="10.2722967"><ele>808.0</ele><time>2026-04-19T09:41:55.981Z</time></trkpt><trkpt lat="44.41244" lon="10.2721767"><ele>808.0</ele><time>2026-04-19T09:41:56.981Z</time></trkpt><trkpt lat="44.412525" lon="10.2720633"><ele>808.0</ele><time>2026-04-19T09:41:57.981Z</time></trkpt><trkpt lat="44.4126083" lon="10.2719683"><ele>811.0</ele><time>2026-04-19T09:41:58.981Z</time></trkpt><trkpt lat="44.4127017" lon="10.271895"><ele>814.0</ele><time>2026-04-19T09:41:59.981Z</time></trkpt><trkpt lat="44.4127933" lon="10.27184"><ele>817.0</ele><time>2026-04-19T09:42:00.981Z</time></trkpt><trkpt lat="44.4128667" lon="10.2717783"><ele>820.0</ele><time>2026-04-19T09:42:01.981Z</time></trkpt><trkpt lat="44.4129183" lon="10.2717017"><ele>823.0</ele><time>2026-04-19T09:42:02.981Z</time></trkpt><trkpt lat="44.4129733" lon="10.2716133"><ele>823.5</ele><time>2026-04-19T09:42:03.981Z</time></trkpt><trkpt lat="44.4130017" lon="10.2714883"><ele>824.0</ele><time>2026-04-19T09:42:04.981Z</time></trkpt><trkpt lat="44.4129917" lon="10.2713117"><ele>824.5</ele><time>2026-04-19T09:42:05.981Z</time></trkpt><trkpt lat="44.4129567" lon="10.27111"><ele>825.0</ele><time>2026-04-19T09:42:06.981Z</time></trkpt><trkpt lat="44.412935" lon="10.2709267"><ele>827.0</ele><time>2026-04-19T09:42:07.981Z</time></trkpt><trkpt lat="44.41292" lon="10.2707683"><ele>829.0</ele><time>2026-04-19T09:42:08.982Z</time></trkpt><trkpt lat="44.41292" lon="10.2706333"><ele>831.0</ele><time>2026-04-19T09:42:09.981Z</time></trkpt><trkpt lat="44.4129417" lon="10.2705117"><ele>833.0</ele><time>2026-04-19T09:42:10.981Z</time></trkpt><trkpt lat="44.412985" lon="10.2704167"><ele>835.0</ele><time>2026-04-19T09:42:11.981Z</time></trkpt><trkpt lat="44.4130733" lon="10.2703567"><ele>835.5</ele><time>2026-04-19T09:42:12.981Z</time></trkpt><trkpt lat="44.4131967" lon="10.2703483"><ele>836.0</ele><time>2026-04-19T09:42:13.981Z</time></trkpt><trkpt lat="44.4133433" lon="10.27039"><ele>836.5</ele><time>2026-04-19T09:42:14.981Z</time></trkpt><trkpt lat="44.413495" lon="10.2704333"><ele>837.0</ele><time>2026-04-19T09:42:15.981Z</time></trkpt><trkpt lat="44.4136033" lon="10.2704983"><ele>837.0</ele><time>2026-04-19T09:42:16.981Z</time></trkpt><trkpt lat="44.4137233" lon="10.27056"><ele>837.0</ele><time>2026-04-19T09:42:17.981Z</time></trkpt><trkpt lat="44.4138183" lon="10.2705917"><ele>837.0</ele><time>2026-04-19T09:42:18.981Z</time></trkpt><trkpt lat="44.4139" lon="10.2705933"><ele>837.0</ele><time>2026-04-19T09:42:19.981Z</time></trkpt><trkpt lat="44.413975" lon="10.2705567"><ele>837.0</ele><time>2026-04-19T09:42:20.981Z</time></trkpt><trkpt lat="44.4140433" lon="10.2704833"><ele>836.5</ele><time>2026-04-19T09:42:21.981Z</time></trkpt><trkpt lat="44.4141233" lon="10.2703733"><ele>836.0</ele><time>2026-04-19T09:42:22.981Z</time></trkpt><trkpt lat="44.4142183" lon="10.2702233"><ele>835.5</ele><time>2026-04-19T09:42:23.981Z</time></trkpt><trkpt lat="44.4143117" lon="10.2700717"><ele>835.0</ele><time>2026-04-19T09:42:24.981Z</time></trkpt><trkpt lat="44.4143983" lon="10.2699267"><ele>835.0</ele><time>2026-04-19T09:42:25.981Z</time></trkpt><trkpt lat="44.41446" lon="10.2697883"><ele>835.0</ele><time>2026-04-19T09:42:26.981Z</time></trkpt><trkpt lat="44.41453" lon="10.2696883"><ele>835.0</ele><time>2026-04-19T09:42:27.981Z</time></trkpt><trkpt lat="44.41461" lon="10.26961"><ele>835.0</ele><time>2026-04-19T09:42:28.981Z</time></trkpt><trkpt lat="44.4147083" lon="10.2695717"><ele>835.0</ele><time>2026-04-19T09:42:29.981Z</time></trkpt><trkpt lat="44.4148183" lon="10.2695817"><ele>836.25</ele><time>2026-04-19T09:42:30.981Z</time></trkpt><trkpt lat="44.4149383" lon="10.2696433"><ele>837.5</ele><time>2026-04-19T09:42:31.981Z</time></trkpt><trkpt lat="44.4150483" lon="10.2697"><ele>838.75</ele><time>2026-04-19T09:42:32.981Z</time></trkpt><trkpt lat="44.4151517" lon="10.2697883"><ele>840.0</ele><time>2026-04-19T09:42:33.981Z</time></trkpt><trkpt lat="44.415235" lon="10.2699083"><ele>840.0</ele><time>2026-04-19T09:42:34.981Z</time></trkpt><trkpt lat="44.4152783" lon="10.27007"><ele>840.0</ele><time>2026-04-19T09:42:35.981Z</time></trkpt><trkpt lat="44.4152883" lon="10.27026"><ele>840.0</ele><time>2026-04-19T09:42:36.981Z</time></trkpt><trkpt lat="44.4152583" lon="10.270475"><ele>840.0</ele><time>2026-04-19T09:42:37.981Z</time></trkpt><trkpt lat="44.4152383" lon="10.2706883"><ele>838.2</ele><time>2026-04-19T09:42:38.981Z</time></trkpt><trkpt lat="44.41523" lon="10.2708733"><ele>836.4</ele><time>2026-04-19T09:42:39.981Z</time></trkpt><trkpt lat="44.41523" lon="10.271025"><ele>834.5999999999999</ele><time>2026-04-19T09:42:40.981Z</time></trkpt><trkpt lat="44.4152567" lon="10.2711533"><ele>832.8</ele><time>2026-04-19T09:42:41.981Z</time></trkpt><trkpt lat="44.4152933" lon="10.2712533"><ele>831.0</ele><time>2026-04-19T09:42:42.981Z</time></trkpt><trkpt lat="44.4153667" lon="10.2713033"><ele>831.0</ele><time>2026-04-19T09:42:43.981Z</time></trkpt><trkpt lat="44.4154667" lon="10.2713233"><ele>831.0</ele><time>2026-04-19T09:42:44.981Z</time></trkpt><trkpt lat="44.4156017" lon="10.2713183"><ele>831.0</ele><time>2026-04-19T09:42:45.981Z</time></trkpt><trkpt lat="44.41575" lon="10.2713"><ele>831.0</ele><time>2026-04-19T09:42:46.981Z</time></trkpt><trkpt lat="44.415885" lon="10.27128"><ele>831.75</ele><time>2026-04-19T09:42:47.981Z</time></trkpt><trkpt lat="44.4160167" lon="10.2712983"><ele>832.5</ele><time>2026-04-19T09:42:48.981Z</time></trkpt><trkpt lat="44.4161467" lon="10.27135"><ele>833.25</ele><time>2026-04-19T09:42:49.981Z</time></trkpt><trkpt lat="44.4162767" lon="10.2714517"><ele>834.0</ele><time>2026-04-19T09:42:50.981Z</time></trkpt><trkpt lat="44.41639" lon="10.2715817"><ele>838.25</ele><time>2026-04-19T09:42:51.981Z</time></trkpt><trkpt lat="44.4165017" lon="10.2716867"><ele>842.5</ele><time>2026-04-19T09:42:52.981Z</time></trkpt><trkpt lat="44.4166067" lon="10.2717883"><ele>846.75</ele><time>2026-04-19T09:42:53.981Z</time></trkpt><trkpt lat="44.4167133" lon="10.2718867"><ele>851.0</ele><time>2026-04-19T09:42:54.981Z</time></trkpt><trkpt lat="44.4168183" lon="10.2719717"><ele>851.0</ele><time>2026-04-19T09:42:55.981Z</time></trkpt><trkpt lat="44.4169417" lon="10.2720283"><ele>851.0</ele><time>2026-04-19T09:42:56.981Z</time></trkpt><trkpt lat="44.4170717" lon="10.27206"><ele>851.0</ele><time>2026-04-19T09:42:57.981Z</time></trkpt><trkpt lat="44.4172083" lon="10.2720833"><ele>851.0</ele><time>2026-04-19T09:42:58.981Z</time></trkpt><trkpt lat="44.41735" lon="10.2721033"><ele>854.25</ele><time>2026-04-19T09:42:59.981Z</time></trkpt><trkpt lat="44.4174933" lon="10.272125"><ele>857.5</ele><time>2026-04-19T09:43:00.981Z</time></trkpt><trkpt lat="44.417625" lon="10.2721517"><ele>860.75</ele><time>2026-04-19T09:43:01.981Z</time></trkpt><trkpt lat="44.4177417" lon="10.2721933"><ele>864.0</ele><time>2026-04-19T09:43:02.981Z</time></trkpt><trkpt lat="44.4178567" lon="10.27224"><ele>859.5</ele><time>2026-04-19T09:43:03.981Z</time></trkpt><trkpt lat="44.4179667" lon="10.2722933"><ele>855.0</ele><time>2026-04-19T09:43:04.981Z</time></trkpt><trkpt lat="44.41808" lon="10.27236"><ele>850.5</ele><time>2026-04-19T09:43:05.981Z</time></trkpt><trkpt lat="44.4181867" lon="10.2724417"><ele>846.0</ele><time>2026-04-19T09:43:06.981Z</time></trkpt><trkpt lat="44.4182967" lon="10.2724967"><ele>846.0</ele><time>2026-04-19T09:43:07.981Z</time></trkpt><trkpt lat="44.418415" lon="10.2725167"><ele>846.0</ele><time>2026-04-19T09:43:08.981Z</time></trkpt><trkpt lat="44.4185433" lon="10.2724933"><ele>846.0</ele><time>2026-04-19T09:43:09.982Z</time></trkpt><trkpt lat="44.41867" lon="10.2724533"><ele>846.0</ele><time>2026-04-19T09:43:10.982Z</time></trkpt><trkpt lat="44.4188" lon="10.27241"><ele>845.0</ele><time>2026-04-19T09:43:11.981Z</time></trkpt><trkpt lat="44.4189317" lon="10.2723617"><ele>844.0</ele><time>2026-04-19T09:43:12.981Z</time></trkpt><trkpt lat="44.4190567" lon="10.272315"><ele>843.0</ele><time>2026-04-19T09:43:13.981Z</time></trkpt><trkpt lat="44.4191767" lon="10.2722667"><ele>842.0</ele><time>2026-04-19T09:43:14.981Z</time></trkpt><trkpt lat="44.419285" lon="10.2722167"><ele>847.2</ele><time>2026-04-19T09:43:15.981Z</time></trkpt><trkpt lat="44.4193817" lon="10.2721667"><ele>852.4000000000001</ele><time>2026-04-19T09:43:16.981Z</time></trkpt><trkpt lat="44.4194683" lon="10.272105"><ele>857.5999999999999</ele><time>2026-04-19T09:43:17.981Z</time></trkpt><trkpt lat="44.4195417" lon="10.2720217"><ele>862.8</ele><time>2026-04-19T09:43:18.981Z</time></trkpt><trkpt lat="44.4195967" lon="10.27191"><ele>868.0</ele><time>2026-04-19T09:43:19.981Z</time></trkpt><trkpt lat="44.4196133" lon="10.2717717"><ele>868.0</ele><time>2026-04-19T09:43:20.981Z</time></trkpt><trkpt lat="44.4196083" lon="10.271625"><ele>868.0</ele><time>2026-04-19T09:43:21.981Z</time></trkpt><trkpt lat="44.419595" lon="10.2714683"><ele>868.0</ele><time>2026-04-19T09:43:22.981Z</time></trkpt><trkpt lat="44.4195867" lon="10.2713167"><ele>868.0</ele><time>2026-04-19T09:43:23.981Z</time></trkpt><trkpt lat="44.419585" lon="10.271155"><ele>868.0</ele><time>2026-04-19T09:43:24.981Z</time></trkpt><trkpt lat="44.4195883" lon="10.27099"><ele>866.8</ele><time>2026-04-19T09:43:25.981Z</time></trkpt><trkpt lat="44.4196" lon="10.270835"><ele>865.5999999999999</ele><time>2026-04-19T09:43:26.981Z</time></trkpt><trkpt lat="44.4196183" lon="10.27068"><ele>864.4000000000001</ele><time>2026-04-19T09:43:27.981Z</time></trkpt><trkpt lat="44.4196633" lon="10.2705333"><ele>863.2</ele><time>2026-04-19T09:43:28.981Z</time></trkpt><trkpt lat="44.4197167" lon="10.2704133"><ele>862.0</ele><time>2026-04-19T09:43:29.982Z</time></trkpt><trkpt lat="44.4197933" lon="10.2703067"><ele>862.0</ele><time>2026-04-19T09:43:30.981Z</time></trkpt><trkpt lat="44.4198867" lon="10.270235"><ele>862.0</ele><time>2026-04-19T09:43:31.981Z</time></trkpt><trkpt lat="44.419995" lon="10.27019"><ele>862.0</ele><time>2026-04-19T09:43:32.981Z</time></trkpt><trkpt lat="44.4201017" lon="10.2701617"><ele>862.0</ele><time>2026-04-19T09:43:33.981Z</time></trkpt><trkpt lat="44.4202033" lon="10.2701333"><ele>862.0</ele><time>2026-04-19T09:43:34.981Z</time></trkpt><trkpt lat="44.4203" lon="10.2701083"><ele>861.9999999999999</ele><time>2026-04-19T09:43:35.981Z</time></trkpt><trkpt lat="44.42039" lon="10.27008"><ele>862.0</ele><time>2026-04-19T09:43:36.981Z</time></trkpt><trkpt lat="44.420475" lon="10.27005"><ele>862.0</ele><time>2026-04-19T09:43:37.981Z</time></trkpt><trkpt lat="44.420555" lon="10.2700333"><ele>862.0</ele><time>2026-04-19T09:43:38.981Z</time></trkpt><trkpt lat="44.4206367" lon="10.2700617"><ele>861.9999999999999</ele><time>2026-04-19T09:43:39.981Z</time></trkpt><trkpt lat="44.420715" lon="10.270135"><ele>862.0</ele><time>2026-04-19T09:43:40.981Z</time></trkpt><trkpt lat="44.4207683" lon="10.27026"><ele>859.75</ele><time>2026-04-19T09:43:41.981Z</time></trkpt><trkpt lat="44.420815" lon="10.2704283"><ele>857.5</ele><time>2026-04-19T09:43:42.981Z</time></trkpt><trkpt lat="44.420865" lon="10.2706017"><ele>855.25</ele><time>2026-04-19T09:43:43.981Z</time></trkpt><trkpt lat="44.4209117" lon="10.2707683"><ele>853.0</ele><time>2026-04-19T09:43:44.981Z</time></trkpt><trkpt lat="44.4209717" lon="10.27091"><ele>853.0</ele><time>2026-04-19T09:43:45.981Z</time></trkpt><trkpt lat="44.4210517" lon="10.2710217"><ele>853.0</ele><time>2026-04-19T09:43:46.981Z</time></trkpt><trkpt lat="44.4211367" lon="10.27111"><ele>853.0</ele><time>2026-04-19T09:43:47.981Z</time></trkpt><trkpt lat="44.42123" lon="10.2711833"><ele>853.0</ele><time>2026-04-19T09:43:48.981Z</time></trkpt><trkpt lat="44.421325" lon="10.2712383"><ele>853.0</ele><time>2026-04-19T09:43:49.981Z</time></trkpt><trkpt lat="44.4214267" lon="10.2712733"><ele>858.25</ele><time>2026-04-19T09:43:50.981Z</time></trkpt><trkpt lat="44.4215367" lon="10.2712767"><ele>863.5</ele><time>2026-04-19T09:43:51.981Z</time></trkpt><trkpt lat="44.421655" lon="10.2712283"><ele>868.75</ele><time>2026-04-19T09:43:52.981Z</time></trkpt><trkpt lat="44.4217967" lon="10.2711567"><ele>874.0</ele><time>2026-04-19T09:43:53.981Z</time></trkpt><trkpt lat="44.42195" lon="10.2710817"><ele>874.0</ele><time>2026-04-19T09:43:54.981Z</time></trkpt><trkpt lat="44.422105" lon="10.271015"><ele>874.0</ele><time>2026-04-19T09:43:55.981Z</time></trkpt><trkpt lat="44.4222583" lon="10.2709733"><ele>874.0</ele><time>2026-04-19T09:43:56.981Z</time></trkpt><trkpt lat="44.4224083" lon="10.2709383"><ele>872.0</ele><time>2026-04-19T09:43:57.981Z</time></trkpt><trkpt lat="44.42255" lon="10.2708983"><ele>870.0</ele><time>2026-04-19T09:43:58.981Z</time></trkpt><trkpt lat="44.4226833" lon="10.270855"><ele>868.0</ele><time>2026-04-19T09:43:59.981Z</time></trkpt><trkpt lat="44.4228167" lon="10.27079"><ele>866.0</ele><time>2026-04-19T09:44:00.981Z</time></trkpt><trkpt lat="44.422935" lon="10.27071"><ele>866.5</ele><time>2026-04-19T09:44:01.981Z</time></trkpt><trkpt lat="44.4230467" lon="10.2706167"><ele>867.0</ele><time>2026-04-19T09:44:02.981Z</time></trkpt><trkpt lat="44.4231517" lon="10.2705"><ele>867.5</ele><time>2026-04-19T09:44:03.981Z</time></trkpt><trkpt lat="44.42326" lon="10.2703333"><ele>868.0</ele><time>2026-04-19T09:44:04.981Z</time></trkpt><trkpt lat="44.4233717" lon="10.27013"><ele>868.0</ele><time>2026-04-19T09:44:05.981Z</time></trkpt><trkpt lat="44.4234783" lon="10.26992"><ele>868.0</ele><time>2026-04-19T09:44:06.981Z</time></trkpt><trkpt lat="44.4235833" lon="10.2697333"><ele>868.0</ele><time>2026-04-19T09:44:07.981Z</time></trkpt><trkpt lat="44.42368" lon="10.2695683"><ele>869.25</ele><time>2026-04-19T09:44:08.982Z</time></trkpt><trkpt lat="44.4237567" lon="10.2694117"><ele>870.5</ele><time>2026-04-19T09:44:09.981Z</time></trkpt><trkpt lat="44.4238133" lon="10.2692367"><ele>871.75</ele><time>2026-04-19T09:44:10.981Z</time></trkpt><trkpt lat="44.42386" lon="10.2690533"><ele>873.0</ele><time>2026-04-19T09:44:11.981Z</time></trkpt><trkpt lat="44.4239133" lon="10.26886"><ele>873.0</ele><time>2026-04-19T09:44:12.981Z</time></trkpt><trkpt lat="44.4239783" lon="10.2686933"><ele>873.0</ele><time>2026-04-19T09:44:13.981Z</time></trkpt><trkpt lat="44.4240533" lon="10.2685567"><ele>873.0</ele><time>2026-04-19T09:44:14.981Z</time></trkpt><trkpt lat="44.4241283" lon="10.26844"><ele>873.0</ele><time>2026-04-19T09:44:15.981Z</time></trkpt><trkpt lat="44.42419" lon="10.2683167"><ele>873.0</ele><time>2026-04-19T09:44:16.981Z</time></trkpt><trkpt lat="44.42423" lon="10.2681983"><ele>873.0</ele><time>2026-04-19T09:44:17.981Z</time></trkpt><trkpt lat="44.4242417" lon="10.2680817"><ele>873.0</ele><time>2026-04-19T09:44:18.981Z</time></trkpt><trkpt lat="44.42426" lon="10.26796"><ele>873.0</ele><time>2026-04-19T09:44:19.981Z</time></trkpt><trkpt lat="44.4242967" lon="10.2678467"><ele>873.0</ele><time>2026-04-19T09:44:20.981Z</time></trkpt><trkpt lat="44.4243567" lon="10.26777"><ele>873.0</ele><time>2026-04-19T09:44:21.981Z</time></trkpt><trkpt lat="44.4244383" lon="10.2677267"><ele>879.25</ele><time>2026-04-19T09:44:22.981Z</time></trkpt><trkpt lat="44.4245333" lon="10.2677333"><ele>885.5</ele><time>2026-04-19T09:44:23.981Z</time></trkpt><trkpt lat="44.4246517" lon="10.2677917"><ele>891.75</ele><time>2026-04-19T09:44:24.981Z</time></trkpt><trkpt lat="44.4247617" lon="10.2678867"><ele>898.0</ele><time>2026-04-19T09:44:25.981Z</time></trkpt><trkpt lat="44.4248717" lon="10.2679717"><ele>899.0</ele><time>2026-04-19T09:44:26.981Z</time></trkpt><trkpt lat="44.42499" lon="10.268065"><ele>900.0</ele><time>2026-04-19T09:44:27.981Z</time></trkpt><trkpt lat="44.4251217" lon="10.2681517"><ele>901.0</ele><time>2026-04-19T09:44:28.981Z</time></trkpt><trkpt lat="44.42526" lon="10.2681983"><ele>902.0</ele><time>2026-04-19T09:44:29.981Z</time></trkpt><trkpt lat="44.4254083" lon="10.2682367"><ele>895.3333333333334</ele><time>2026-04-19T09:44:30.981Z</time></trkpt><trkpt lat="44.4255683" lon="10.2682617"><ele>888.6666666666667</ele><time>2026-04-19T09:44:31.981Z</time></trkpt><trkpt lat="44.425725" lon="10.2682783"><ele>882.0</ele><time>2026-04-19T09:44:32.981Z</time></trkpt><trkpt lat="44.4258833" lon="10.2683017"><ele>882.0</ele><time>2026-04-19T09:44:33.981Z</time></trkpt><trkpt lat="44.42602" lon="10.2683383"><ele>882.0</ele><time>2026-04-19T09:44:34.981Z</time></trkpt><trkpt lat="44.42615" lon="10.2684067"><ele>882.0</ele><time>2026-04-19T09:44:35.981Z</time></trkpt><trkpt lat="44.4262683" lon="10.268495"><ele>882.0</ele><time>2026-04-19T09:44:36.981Z</time></trkpt><trkpt lat="44.4264" lon="10.268595"><ele>888.0</ele><time>2026-04-19T09:44:37.981Z</time></trkpt><trkpt lat="44.4265583" lon="10.2686883"><ele>894.0</ele><time>2026-04-19T09:44:38.981Z</time></trkpt><trkpt lat="44.4267317" lon="10.2687967"><ele>900.0</ele><time>2026-04-19T09:44:39.981Z</time></trkpt><trkpt lat="44.42692" lon="10.2688817"><ele>894.0</ele><time>2026-04-19T09:44:40.981Z</time></trkpt><trkpt lat="44.427095" lon="10.2689617"><ele>888.0</ele><time>2026-04-19T09:44:41.981Z</time></trkpt><trkpt lat="44.4272583" lon="10.2690283"><ele>882.0</ele><time>2026-04-19T09:44:42.981Z</time></trkpt><trkpt lat="44.427405" lon="10.2690683"><ele>882.0</ele><time>2026-04-19T09:44:43.981Z</time></trkpt><trkpt lat="44.4275417" lon="10.2690717"><ele>882.0</ele><time>2026-04-19T09:44:44.981Z</time></trkpt><trkpt lat="44.427685" lon="10.2690433"><ele>882.0</ele><time>2026-04-19T09:44:45.981Z</time></trkpt><trkpt lat="44.4278217" lon="10.2689833"><ele>882.0</ele><time>2026-04-19T09:44:46.981Z</time></trkpt><trkpt lat="44.42794" lon="10.2688917"><ele>883.25</ele><time>2026-04-19T09:44:47.981Z</time></trkpt><trkpt lat="44.42804" lon="10.2687583"><ele>884.5</ele><time>2026-04-19T09:44:48.981Z</time></trkpt><trkpt lat="44.428125" lon="10.2685867"><ele>885.75</ele><time>2026-04-19T09:44:49.981Z</time></trkpt><trkpt lat="44.42819" lon="10.2684067"><ele>887.0</ele><time>2026-04-19T09:44:50.981Z</time></trkpt><trkpt lat="44.428265" lon="10.2682367"><ele>895.5</ele><time>2026-04-19T09:44:51.981Z</time></trkpt><trkpt lat="44.4283517" lon="10.268075"><ele>904.0</ele><time>2026-04-19T09:44:52.981Z</time></trkpt><trkpt lat="44.4284317" lon="10.26793"><ele>912.5</ele><time>2026-04-19T09:44:53.981Z</time></trkpt><trkpt lat="44.4285267" lon="10.2678067"><ele>921.0</ele><time>2026-04-19T09:44:54.981Z</time></trkpt><trkpt lat="44.428635" lon="10.2676933"><ele>921.0</ele><time>2026-04-19T09:44:55.981Z</time></trkpt><trkpt lat="44.4287433" lon="10.26757"><ele>921.0</ele><time>2026-04-19T09:44:56.981Z</time></trkpt><trkpt lat="44.4288383" lon="10.2674383"><ele>921.0</ele><time>2026-04-19T09:44:57.981Z</time></trkpt><trkpt lat="44.42893" lon="10.2672617"><ele>921.0</ele><time>2026-04-19T09:44:58.981Z</time></trkpt><trkpt lat="44.429005" lon="10.267055"><ele>915.3333333333333</ele><time>2026-04-19T09:44:59.981Z</time></trkpt><trkpt lat="44.4290833" lon="10.2668283"><ele>909.6666666666666</ele><time>2026-04-19T09:45:00.981Z</time></trkpt><trkpt lat="44.4291817" lon="10.2666233"><ele>904.0</ele><time>2026-04-19T09:45:01.981Z</time></trkpt><trkpt lat="44.4293033" lon="10.26645"><ele>906.0</ele><time>2026-04-19T09:45:02.981Z</time></trkpt><trkpt lat="44.42944" lon="10.2663117"><ele>908.0</ele><time>2026-04-19T09:45:03.981Z</time></trkpt><trkpt lat="44.4296217" lon="10.2662167"><ele>910.0</ele><time>2026-04-19T09:45:04.981Z</time></trkpt><trkpt lat="44.4298233" lon="10.26611"><ele>910.0</ele><time>2026-04-19T09:45:05.981Z</time></trkpt><trkpt lat="44.4300183" lon="10.26601"><ele>910.0</ele><time>2026-04-19T09:45:06.981Z</time></trkpt><trkpt lat="44.43019" lon="10.2659117"><ele>910.0</ele><time>2026-04-19T09:45:07.981Z</time></trkpt><trkpt lat="44.4303283" lon="10.26583"><ele>910.0</ele><time>2026-04-19T09:45:08.982Z</time></trkpt><trkpt lat="44.4304417" lon="10.2657383"><ele>910.0</ele><time>2026-04-19T09:45:09.981Z</time></trkpt><trkpt lat="44.430535" lon="10.26561"><ele>910.0</ele><time>2026-04-19T09:45:10.981Z</time></trkpt><trkpt lat="44.4306067" lon="10.2654483"><ele>910.0</ele><time>2026-04-19T09:45:11.981Z</time></trkpt><trkpt lat="44.4306367" lon="10.265255"><ele>902.0</ele><time>2026-04-19T09:45:12.981Z</time></trkpt><trkpt lat="44.430635" lon="10.2650383"><ele>894.0</ele><time>2026-04-19T09:45:13.981Z</time></trkpt><trkpt lat="44.4306017" lon="10.2648033"><ele>886.0</ele><time>2026-04-19T09:45:14.981Z</time></trkpt><trkpt lat="44.4305367" lon="10.2645667"><ele>890.6666666666666</ele><time>2026-04-19T09:45:15.981Z</time></trkpt><trkpt lat="44.4304733" lon="10.264325"><ele>895.3333333333333</ele><time>2026-04-19T09:45:16.981Z</time></trkpt><trkpt lat="44.4304033" lon="10.2640633"><ele>900.0</ele><time>2026-04-19T09:45:17.981Z</time></trkpt><trkpt lat="44.4303133" lon="10.2637967"><ele>900.0</ele><time>2026-04-19T09:45:18.981Z</time></trkpt><trkpt lat="44.4302233" lon="10.2635217"><ele>900.0</ele><time>2026-04-19T09:45:19.981Z</time></trkpt><trkpt lat="44.4301367" lon="10.263265"><ele>900.0</ele><time>2026-04-19T09:45:20.981Z</time></trkpt><trkpt lat="44.4300583" lon="10.2630183"><ele>893.6666666666667</ele><time>2026-04-19T09:45:21.981Z</time></trkpt><trkpt lat="44.4299883" lon="10.2627767"><ele>887.3333333333334</ele><time>2026-04-19T09:45:22.981Z</time></trkpt><trkpt lat="44.429925" lon="10.262545"><ele>881.0</ele><time>2026-04-19T09:45:23.981Z</time></trkpt><trkpt lat="44.4298733" lon="10.26232"><ele>877.0</ele><time>2026-04-19T09:45:24.981Z</time></trkpt><trkpt lat="44.4298267" lon="10.2620833"><ele>873.0</ele><time>2026-04-19T09:45:25.981Z</time></trkpt><trkpt lat="44.42979" lon="10.2618283"><ele>869.0</ele><time>2026-04-19T09:45:26.981Z</time></trkpt><trkpt lat="44.429755" lon="10.2615767"><ele>865.3333333333334</ele><time>2026-04-19T09:45:27.981Z</time></trkpt><trkpt lat="44.429725" lon="10.2613167"><ele>861.6666666666667</ele><time>2026-04-19T09:45:28.981Z</time></trkpt><trkpt lat="44.4297" lon="10.2610617"><ele>858.0</ele><time>2026-04-19T09:45:29.981Z</time></trkpt><trkpt lat="44.429665" lon="10.260815"><ele>871.6666666666667</ele><time>2026-04-19T09:45:30.981Z</time></trkpt><trkpt lat="44.4296183" lon="10.260585"><ele>885.3333333333334</ele><time>2026-04-19T09:45:31.981Z</time></trkpt><trkpt lat="44.42957" lon="10.2603617"><ele>899.0</ele><time>2026-04-19T09:45:32.981Z</time></trkpt><trkpt lat="44.4295233" lon="10.2601517"><ele>899.0</ele><time>2026-04-19T09:45:33.981Z</time></trkpt><trkpt lat="44.4294867" lon="10.25995"><ele>899.0</ele><time>2026-04-19T09:45:34.981Z</time></trkpt><trkpt lat="44.4294867" lon="10.2597633"><ele>899.0</ele><time>2026-04-19T09:45:35.981Z</time></trkpt><trkpt lat="44.4295117" lon="10.2595833"><ele>899.0</ele><time>2026-04-19T09:45:36.981Z</time></trkpt><trkpt lat="44.42957" lon="10.2594067"><ele>896.25</ele><time>2026-04-19T09:45:37.981Z</time></trkpt><trkpt lat="44.4296333" lon="10.2592333"><ele>893.5</ele><time>2026-04-19T09:45:38.981Z</time></trkpt><trkpt lat="44.429695" lon="10.2590617"><ele>890.75</ele><time>2026-04-19T09:45:39.981Z</time></trkpt><trkpt lat="44.4297517" lon="10.2588933"><ele>888.0</ele><time>2026-04-19T09:45:40.981Z</time></trkpt><trkpt lat="44.4298067" lon="10.258735"><ele>880.8</ele><time>2026-04-19T09:45:41.981Z</time></trkpt><trkpt lat="44.4298567" lon="10.258585"><ele>873.5999999999999</ele><time>2026-04-19T09:45:42.981Z</time></trkpt><trkpt lat="44.429885" lon="10.258445"><ele>866.4000000000001</ele><time>2026-04-19T09:45:43.981Z</time></trkpt><trkpt lat="44.4298817" lon="10.258295"><ele>859.2</ele><time>2026-04-19T09:45:44.981Z</time></trkpt><trkpt lat="44.4298467" lon="10.2581583"><ele>852.0</ele><time>2026-04-19T09:45:45.981Z</time></trkpt><trkpt lat="44.4297617" lon="10.258045"><ele>850.0</ele><time>2026-04-19T09:45:46.981Z</time></trkpt><trkpt lat="44.42965" lon="10.25797"><ele>848.0</ele><time>2026-04-19T09:45:47.981Z</time></trkpt><trkpt lat="44.42952" lon="10.2579567"><ele>846.0</ele><time>2026-04-19T09:45:48.981Z</time></trkpt><trkpt lat="44.4293783" lon="10.2579867"><ele>844.0</ele><time>2026-04-19T09:45:49.981Z</time></trkpt><trkpt lat="44.42924" lon="10.2580217"><ele>844.0</ele><time>2026-04-19T09:45:50.981Z</time></trkpt><trkpt lat="44.429105" lon="10.25801"><ele>844.0</ele><time>2026-04-19T09:45:51.981Z</time></trkpt><trkpt lat="44.4289767" lon="10.2579483"><ele>844.0</ele><time>2026-04-19T09:45:52.981Z</time></trkpt><trkpt lat="44.4288667" lon="10.257845"><ele>844.0</ele><time>2026-04-19T09:45:53.981Z</time></trkpt><trkpt lat="44.4287583" lon="10.2577167"><ele>847.5</ele><time>2026-04-19T09:45:54.981Z</time></trkpt><trkpt lat="44.4286583" lon="10.257595"><ele>851.0</ele><time>2026-04-19T09:45:55.981Z</time></trkpt><trkpt lat="44.4285683" lon="10.2574883"><ele>854.5</ele><time>2026-04-19T09:45:56.981Z</time></trkpt><trkpt lat="44.4284767" lon="10.2573867"><ele>858.0</ele><time>2026-04-19T09:45:57.981Z</time></trkpt><trkpt lat="44.42841" lon="10.2572767"><ele>858.0</ele><time>2026-04-19T09:45:58.981Z</time></trkpt><trkpt lat="44.4283617" lon="10.25715"><ele>858.0</ele><time>2026-04-19T09:45:59.981Z</time></trkpt><trkpt lat="44.4283467" lon="10.2569867"><ele>858.0</ele><time>2026-04-19T09:46:00.981Z</time></trkpt><trkpt lat="44.4283517" lon="10.2568167"><ele>858.0</ele><time>2026-04-19T09:46:01.981Z</time></trkpt><trkpt lat="44.4283583" lon="10.25665"><ele>858.0</ele><time>2026-04-19T09:46:02.981Z</time></trkpt><trkpt lat="44.4283617" lon="10.2564867"><ele>858.0</ele><time>2026-04-19T09:46:03.981Z</time></trkpt><trkpt lat="44.4283633" lon="10.2563267"><ele>858.0</ele><time>2026-04-19T09:46:04.981Z</time></trkpt><trkpt lat="44.4283767" lon="10.25615"><ele>858.0</ele><time>2026-04-19T09:46:05.981Z</time></trkpt><trkpt lat="44.4284217" lon="10.255945"><ele>859.3333333333333</ele><time>2026-04-19T09:46:06.981Z</time></trkpt><trkpt lat="44.4284883" lon="10.2557017"><ele>860.6666666666666</ele><time>2026-04-19T09:46:07.981Z</time></trkpt><trkpt lat="44.42857" lon="10.255425"><ele>862.0</ele><time>2026-04-19T09:46:08.981Z</time></trkpt><trkpt lat="44.4286633" lon="10.2551567"><ele>863.6666666666666</ele><time>2026-04-19T09:46:09.981Z</time></trkpt><trkpt lat="44.4287717" lon="10.2548983"><ele>865.3333333333333</ele><time>2026-04-19T09:46:10.981Z</time></trkpt><trkpt lat="44.4288767" lon="10.2546467"><ele>867.0</ele><time>2026-04-19T09:46:11.981Z</time></trkpt><trkpt lat="44.4289567" lon="10.254405"><ele>860.6666666666667</ele><time>2026-04-19T09:46:12.981Z</time></trkpt><trkpt lat="44.42902" lon="10.254175"><ele>854.3333333333334</ele><time>2026-04-19T09:46:13.981Z</time></trkpt><trkpt lat="44.429095" lon="10.253955"><ele>848.0</ele><time>2026-04-19T09:46:14.981Z</time></trkpt><trkpt lat="44.4291683" lon="10.2537367"><ele>848.0</ele><time>2026-04-19T09:46:15.981Z</time></trkpt><trkpt lat="44.4292367" lon="10.2535067"><ele>848.0</ele><time>2026-04-19T09:46:16.981Z</time></trkpt><trkpt lat="44.4293017" lon="10.2532717"><ele>848.0</ele><time>2026-04-19T09:46:17.981Z</time></trkpt><trkpt lat="44.4293583" lon="10.2530467"><ele>847.6666666666667</ele><time>2026-04-19T09:46:18.981Z</time></trkpt><trkpt lat="44.4294117" lon="10.2528333"><ele>847.3333333333333</ele><time>2026-04-19T09:46:19.981Z</time></trkpt><trkpt lat="44.4294533" lon="10.2526333"><ele>847.0</ele><time>2026-04-19T09:46:20.981Z</time></trkpt><trkpt lat="44.4294933" lon="10.252445"><ele>842.6</ele><time>2026-04-19T09:46:21.981Z</time></trkpt><trkpt lat="44.4295317" lon="10.2522583"><ele>838.2</ele><time>2026-04-19T09:46:22.981Z</time></trkpt><trkpt lat="44.4295683" lon="10.2520917"><ele>833.8</ele><time>2026-04-19T09:46:23.981Z</time></trkpt><trkpt lat="44.42959" lon="10.2519617"><ele>829.4</ele><time>2026-04-19T09:46:24.981Z</time></trkpt><trkpt lat="44.4295733" lon="10.2518583"><ele>825.0</ele><time>2026-04-19T09:46:25.981Z</time></trkpt><trkpt lat="44.4295317" lon="10.25179"><ele>825.0</ele><time>2026-04-19T09:46:26.981Z</time></trkpt><trkpt lat="44.4294683" lon="10.2517433"><ele>825.0</ele><time>2026-04-19T09:46:27.981Z</time></trkpt><trkpt lat="44.4293833" lon="10.2517433"><ele>825.0</ele><time>2026-04-19T09:46:28.981Z</time></trkpt><trkpt lat="44.42929" lon="10.2517833"><ele>825.0</ele><time>2026-04-19T09:46:29.981Z</time></trkpt><trkpt lat="44.429175" lon="10.2518217"><ele>825.0</ele><time>2026-04-19T09:46:30.981Z</time></trkpt><trkpt lat="44.4290317" lon="10.2518617"><ele>825.0</ele><time>2026-04-19T09:46:31.981Z</time></trkpt><trkpt lat="44.4288717" lon="10.2518883"><ele>825.0</ele><time>2026-04-19T09:46:32.981Z</time></trkpt><trkpt lat="44.4286867" lon="10.2519067"><ele>825.0</ele><time>2026-04-19T09:46:33.981Z</time></trkpt><trkpt lat="44.4284933" lon="10.2519183"><ele>823.0</ele><time>2026-04-19T09:46:34.981Z</time></trkpt><trkpt lat="44.42831" lon="10.2519517"><ele>821.0</ele><time>2026-04-19T09:46:35.981Z</time></trkpt><trkpt lat="44.428135" lon="10.251995"><ele>819.0</ele><time>2026-04-19T09:46:36.981Z</time></trkpt><trkpt lat="44.4279833" lon="10.252025"><ele>819.75</ele><time>2026-04-19T09:46:37.981Z</time></trkpt><trkpt lat="44.4278583" lon="10.252035"><ele>820.5</ele><time>2026-04-19T09:46:38.981Z</time></trkpt><trkpt lat="44.4277417" lon="10.2520317"><ele>821.25</ele><time>2026-04-19T09:46:39.981Z</time></trkpt><trkpt lat="44.4276367" lon="10.2519867"><ele>822.0</ele><time>2026-04-19T09:46:40.981Z</time></trkpt><trkpt lat="44.42753" lon="10.2519067"><ele>822.0</ele><time>2026-04-19T09:46:41.981Z</time></trkpt><trkpt lat="44.42744" lon="10.2518117"><ele>822.0</ele><time>2026-04-19T09:46:42.982Z</time></trkpt><trkpt lat="44.427345" lon="10.2517083"><ele>822.0</ele><time>2026-04-19T09:46:43.981Z</time></trkpt><trkpt lat="44.4272267" lon="10.2516383"><ele>822.0</ele><time>2026-04-19T09:46:44.981Z</time></trkpt><trkpt lat="44.427105" lon="10.2516433"><ele>822.0</ele><time>2026-04-19T09:46:45.981Z</time></trkpt><trkpt lat="44.4269767" lon="10.2517017"><ele>822.0</ele><time>2026-04-19T09:46:46.982Z</time></trkpt><trkpt lat="44.4268533" lon="10.251795"><ele>822.0</ele><time>2026-04-19T09:46:47.981Z</time></trkpt><trkpt lat="44.4267483" lon="10.251875"><ele>822.0</ele><time>2026-04-19T09:46:48.981Z</time></trkpt><trkpt lat="44.4266533" lon="10.2519217"><ele>822.0</ele><time>2026-04-19T09:46:49.981Z</time></trkpt><trkpt lat="44.426565" lon="10.251925"><ele>822.0</ele><time>2026-04-19T09:46:50.981Z</time></trkpt><trkpt lat="44.42648" lon="10.2518767"><ele>822.0</ele><time>2026-04-19T09:46:51.981Z</time></trkpt><trkpt lat="44.4264033" lon="10.2517767"><ele>822.0</ele><time>2026-04-19T09:46:52.981Z</time></trkpt><trkpt lat="44.4263533" lon="10.2516467"><ele>822.0</ele><time>2026-04-19T09:46:53.981Z</time></trkpt><trkpt lat="44.4263283" lon="10.2514633"><ele>819.3333333333333</ele><time>2026-04-19T09:46:54.981Z</time></trkpt><trkpt lat="44.4263367" lon="10.2512317"><ele>816.6666666666666</ele><time>2026-04-19T09:46:55.981Z</time></trkpt><trkpt lat="44.4263483" lon="10.250985"><ele>814.0</ele><time>2026-04-19T09:46:56.981Z</time></trkpt><trkpt lat="44.42637" lon="10.2507333"><ele>813.6666666666666</ele><time>2026-04-19T09:46:57.981Z</time></trkpt><trkpt lat="44.426385" lon="10.250485"><ele>813.3333333333333</ele><time>2026-04-19T09:46:58.981Z</time></trkpt><trkpt lat="44.4264167" lon="10.250225"><ele>813.0</ele><time>2026-04-19T09:46:59.981Z</time></trkpt><trkpt lat="44.4264617" lon="10.2499483"><ele>812.3333333333333</ele><time>2026-04-19T09:47:00.981Z</time></trkpt><trkpt lat="44.4265017" lon="10.24969"><ele>811.6666666666666</ele><time>2026-04-19T09:47:01.981Z</time></trkpt><trkpt lat="44.4265367" lon="10.24945"><ele>811.0</ele><time>2026-04-19T09:47:02.981Z</time></trkpt><trkpt lat="44.4265767" lon="10.2492117"><ele>811.0</ele><time>2026-04-19T09:47:03.981Z</time></trkpt><trkpt lat="44.4266117" lon="10.2489833"><ele>811.0</ele><time>2026-04-19T09:47:04.981Z</time></trkpt><trkpt lat="44.4266533" lon="10.2487517"><ele>811.0</ele><time>2026-04-19T09:47:05.981Z</time></trkpt><trkpt lat="44.4266867" lon="10.2485083"><ele>810.6666666666666</ele><time>2026-04-19T09:47:06.981Z</time></trkpt><trkpt lat="44.42669" lon="10.24826"><ele>810.3333333333333</ele><time>2026-04-19T09:47:07.981Z</time></trkpt><trkpt lat="44.42669" lon="10.247995"><ele>810.0</ele><time>2026-04-19T09:47:08.981Z</time></trkpt><trkpt lat="44.4266767" lon="10.2477333"><ele>808.3333333333333</ele><time>2026-04-19T09:47:09.981Z</time></trkpt><trkpt lat="44.4266633" lon="10.24748"><ele>806.6666666666666</ele><time>2026-04-19T09:47:10.981Z</time></trkpt><trkpt lat="44.426655" lon="10.2472367"><ele>805.0</ele><time>2026-04-19T09:47:11.981Z</time></trkpt><trkpt lat="44.4266417" lon="10.2469867"><ele>804.0</ele><time>2026-04-19T09:47:12.981Z</time></trkpt><trkpt lat="44.4266483" lon="10.2467317"><ele>803.0</ele><time>2026-04-19T09:47:13.981Z</time></trkpt><trkpt lat="44.426675" lon="10.24646"><ele>802.0</ele><time>2026-04-19T09:47:14.981Z</time></trkpt><trkpt lat="44.426705" lon="10.2461917"><ele>802.0</ele><time>2026-04-19T09:47:15.981Z</time></trkpt><trkpt lat="44.426725" lon="10.2459417"><ele>802.0</ele><time>2026-04-19T09:47:16.981Z</time></trkpt><trkpt lat="44.4267533" lon="10.2457"><ele>802.0</ele><time>2026-04-19T09:47:17.981Z</time></trkpt><trkpt lat="44.4268017" lon="10.245495"><ele>799.5</ele><time>2026-04-19T09:47:18.981Z</time></trkpt><trkpt lat="44.4268417" lon="10.2453067"><ele>797.0</ele><time>2026-04-19T09:47:19.981Z</time></trkpt><trkpt lat="44.426885" lon="10.2451383"><ele>794.5</ele><time>2026-04-19T09:47:20.981Z</time></trkpt><trkpt lat="44.4269067" lon="10.244985"><ele>792.0</ele><time>2026-04-19T09:47:21.981Z</time></trkpt><trkpt lat="44.4269033" lon="10.24484"><ele>786.75</ele><time>2026-04-19T09:47:22.981Z</time></trkpt><trkpt lat="44.4268583" lon="10.244715"><ele>781.5</ele><time>2026-04-19T09:47:23.981Z</time></trkpt><trkpt lat="44.4267817" lon="10.24462"><ele>776.25</ele><time>2026-04-19T09:47:24.981Z</time></trkpt><trkpt lat="44.4266633" lon="10.2445733"><ele>771.0</ele><time>2026-04-19T09:47:25.981Z</time></trkpt><trkpt lat="44.4265333" lon="10.2445667"><ele>771.0</ele><time>2026-04-19T09:47:26.981Z</time></trkpt><trkpt lat="44.4263833" lon="10.2446067"><ele>771.0</ele><time>2026-04-19T09:47:27.981Z</time></trkpt><trkpt lat="44.426235" lon="10.2446483"><ele>771.0</ele><time>2026-04-19T09:47:28.981Z</time></trkpt><trkpt lat="44.4260867" lon="10.24466"><ele>771.25</ele><time>2026-04-19T09:47:29.981Z</time></trkpt><trkpt lat="44.4259483" lon="10.2446533"><ele>771.5</ele><time>2026-04-19T09:47:30.981Z</time></trkpt><trkpt lat="44.425815" lon="10.2446017"><ele>771.75</ele><time>2026-04-19T09:47:31.982Z</time></trkpt><trkpt lat="44.4256833" lon="10.244525"><ele>772.0</ele><time>2026-04-19T09:47:32.981Z</time></trkpt><trkpt lat="44.4255583" lon="10.2444767"><ele>770.25</ele><time>2026-04-19T09:47:33.981Z</time></trkpt><trkpt lat="44.4254317" lon="10.244465"><ele>768.5</ele><time>2026-04-19T09:47:34.981Z</time></trkpt><trkpt lat="44.425305" lon="10.2445033"><ele>766.75</ele><time>2026-04-19T09:47:35.981Z</time></trkpt><trkpt lat="44.425175" lon="10.2445817"><ele>765.0</ele><time>2026-04-19T09:47:36.981Z</time></trkpt><trkpt lat="44.4250517" lon="10.2446783"><ele>765.0</ele><time>2026-04-19T09:47:37.981Z</time></trkpt><trkpt lat="44.42493" lon="10.2447583"><ele>765.0</ele><time>2026-04-19T09:47:38.981Z</time></trkpt><trkpt lat="44.4248083" lon="10.2448117"><ele>765.0</ele><time>2026-04-19T09:47:39.981Z</time></trkpt><trkpt lat="44.4246917" lon="10.24482"><ele>765.0</ele><time>2026-04-19T09:47:40.981Z</time></trkpt><trkpt lat="44.4245617" lon="10.2447983"><ele>764.75</ele><time>2026-04-19T09:47:41.981Z</time></trkpt><trkpt lat="44.4244267" lon="10.2447633"><ele>764.5</ele><time>2026-04-19T09:47:42.981Z</time></trkpt><trkpt lat="44.42428" lon="10.24471"><ele>764.25</ele><time>2026-04-19T09:47:43.981Z</time></trkpt><trkpt lat="44.4241367" lon="10.24466"><ele>764.0</ele><time>2026-04-19T09:47:44.981Z</time></trkpt><trkpt lat="44.4240067" lon="10.2446067"><ele>764.0</ele><time>2026-04-19T09:47:45.981Z</time></trkpt><trkpt lat="44.4238917" lon="10.244545"><ele>764.0</ele><time>2026-04-19T09:47:46.981Z</time></trkpt><trkpt lat="44.4237917" lon="10.2444767"><ele>764.0</ele><time>2026-04-19T09:47:47.981Z</time></trkpt><trkpt lat="44.4236933" lon="10.244385"><ele>764.0</ele><time>2026-04-19T09:47:48.981Z</time></trkpt><trkpt lat="44.4236" lon="10.2442633"><ele>763.0</ele><time>2026-04-19T09:47:49.981Z</time></trkpt><trkpt lat="44.4235133" lon="10.2441283"><ele>762.0</ele><time>2026-04-19T09:47:50.981Z</time></trkpt><trkpt lat="44.423425" lon="10.2439867"><ele>761.0</ele><time>2026-04-19T09:47:51.981Z</time></trkpt><trkpt lat="44.42333" lon="10.243845"><ele>760.0</ele><time>2026-04-19T09:47:52.981Z</time></trkpt><trkpt lat="44.42322" lon="10.243725"><ele>760.0</ele><time>2026-04-19T09:47:53.981Z</time></trkpt><trkpt lat="44.423095" lon="10.2436283"><ele>760.0</ele><time>2026-04-19T09:47:54.981Z</time></trkpt><trkpt lat="44.4229517" lon="10.2435467"><ele>760.0</ele><time>2026-04-19T09:47:55.981Z</time></trkpt><trkpt lat="44.42282" lon="10.2434567"><ele>760.0</ele><time>2026-04-19T09:47:56.981Z</time></trkpt><trkpt lat="44.4226967" lon="10.2433433"><ele>762.75</ele><time>2026-04-19T09:47:57.981Z</time></trkpt><trkpt lat="44.422595" lon="10.243205"><ele>765.5</ele><time>2026-04-19T09:47:58.981Z</time></trkpt><trkpt lat="44.4225183" lon="10.2430583"><ele>768.25</ele><time>2026-04-19T09:47:59.981Z</time></trkpt><trkpt lat="44.4224367" lon="10.24292"><ele>771.0</ele><time>2026-04-19T09:48:00.981Z</time></trkpt><trkpt lat="44.4223333" lon="10.242805"><ele>764.5</ele><time>2026-04-19T09:48:01.981Z</time></trkpt><trkpt lat="44.4222083" lon="10.2427467"><ele>758.0</ele><time>2026-04-19T09:48:02.981Z</time></trkpt><trkpt lat="44.4220717" lon="10.2427367"><ele>751.5</ele><time>2026-04-19T09:48:03.981Z</time></trkpt><trkpt lat="44.4219333" lon="10.2427733"><ele>745.0</ele><time>2026-04-19T09:48:04.981Z</time></trkpt><trkpt lat="44.4217867" lon="10.2428467"><ele>744.3333333333334</ele><time>2026-04-19T09:48:05.982Z</time></trkpt><trkpt lat="44.4216383" lon="10.2429433"><ele>743.6666666666666</ele><time>2026-04-19T09:48:06.981Z</time></trkpt><trkpt lat="44.4214983" lon="10.2430583"><ele>743.0</ele><time>2026-04-19T09:48:07.981Z</time></trkpt><trkpt lat="44.421365" lon="10.2431633"><ele>744.0</ele><time>2026-04-19T09:48:08.981Z</time></trkpt><trkpt lat="44.4212533" lon="10.243265"><ele>745.0</ele><time>2026-04-19T09:48:09.981Z</time></trkpt><trkpt lat="44.4211533" lon="10.2433717"><ele>746.0</ele><time>2026-04-19T09:48:10.981Z</time></trkpt><trkpt lat="44.42107" lon="10.2435033"><ele>747.0</ele><time>2026-04-19T09:48:11.981Z</time></trkpt><trkpt lat="44.4209917" lon="10.243655"><ele>747.0</ele><time>2026-04-19T09:48:12.982Z</time></trkpt><trkpt lat="44.4208867" lon="10.2437833"><ele>747.0</ele><time>2026-04-19T09:48:13.981Z</time></trkpt><trkpt lat="44.420765" lon="10.2438917"><ele>747.0</ele><time>2026-04-19T09:48:14.981Z</time></trkpt><trkpt lat="44.4206433" lon="10.243985"><ele>747.0</ele><time>2026-04-19T09:48:15.981Z</time></trkpt><trkpt lat="44.4205317" lon="10.2440633"><ele>747.0</ele><time>2026-04-19T09:48:16.981Z</time></trkpt><trkpt lat="44.4204167" lon="10.2441117"><ele>747.0</ele><time>2026-04-19T09:48:17.981Z</time></trkpt><trkpt lat="44.4203033" lon="10.2440967"><ele>747.0</ele><time>2026-04-19T09:48:18.981Z</time></trkpt><trkpt lat="44.4201833" lon="10.24402"><ele>747.0</ele><time>2026-04-19T09:48:19.981Z</time></trkpt><trkpt lat="44.42007" lon="10.2439017"><ele>747.0</ele><time>2026-04-19T09:48:20.981Z</time></trkpt><trkpt lat="44.4199533" lon="10.2438017"><ele>747.0</ele><time>2026-04-19T09:48:21.981Z</time></trkpt><trkpt lat="44.4198217" lon="10.2437283"><ele>747.0</ele><time>2026-04-19T09:48:22.982Z</time></trkpt><trkpt lat="44.4196883" lon="10.2436883"><ele>747.0</ele><time>2026-04-19T09:48:23.981Z</time></trkpt><trkpt lat="44.4195483" lon="10.2436967"><ele>745.0</ele><time>2026-04-19T09:48:24.981Z</time></trkpt><trkpt lat="44.419425" lon="10.2437367"><ele>743.0</ele><time>2026-04-19T09:48:25.981Z</time></trkpt><trkpt lat="44.419315" lon="10.243795"><ele>741.0</ele><time>2026-04-19T09:48:26.981Z</time></trkpt><trkpt lat="44.4192017" lon="10.243855"><ele>739.0</ele><time>2026-04-19T09:48:27.981Z</time></trkpt><trkpt lat="44.419085" lon="10.2439117"><ele>739.0</ele><time>2026-04-19T09:48:28.981Z</time></trkpt><trkpt lat="44.41896" lon="10.2439183"><ele>739.0</ele><time>2026-04-19T09:48:29.981Z</time></trkpt><trkpt lat="44.41884" lon="10.2438517"><ele>739.0</ele><time>2026-04-19T09:48:30.981Z</time></trkpt><trkpt lat="44.4187367" lon="10.24376"><ele>739.0</ele><time>2026-04-19T09:48:31.981Z</time></trkpt><trkpt lat="44.41863" lon="10.2436917"><ele>738.75</ele><time>2026-04-19T09:48:32.981Z</time></trkpt><trkpt lat="44.41852" lon="10.243655"><ele>738.5</ele><time>2026-04-19T09:48:33.981Z</time></trkpt><trkpt lat="44.4183967" lon="10.2436583"><ele>738.25</ele><time>2026-04-19T09:48:34.981Z</time></trkpt><trkpt lat="44.418265" lon="10.2436767"><ele>738.0</ele><time>2026-04-19T09:48:35.981Z</time></trkpt><trkpt lat="44.4181417" lon="10.2436983"><ele>738.0</ele><time>2026-04-19T09:48:36.981Z</time></trkpt><trkpt lat="44.4180167" lon="10.2436983"><ele>738.0</ele><time>2026-04-19T09:48:37.981Z</time></trkpt><trkpt lat="44.4179067" lon="10.243655"><ele>738.0</ele><time>2026-04-19T09:48:38.981Z</time></trkpt><trkpt lat="44.4178133" lon="10.24358"><ele>738.0</ele><time>2026-04-19T09:48:39.981Z</time></trkpt><trkpt lat="44.41776" lon="10.24345"><ele>743.25</ele><time>2026-04-19T09:48:40.981Z</time></trkpt><trkpt lat="44.4177483" lon="10.2432833"><ele>748.5</ele><time>2026-04-19T09:48:41.981Z</time></trkpt><trkpt lat="44.41777" lon="10.243095"><ele>753.75</ele><time>2026-04-19T09:48:42.981Z</time></trkpt><trkpt lat="44.41781" lon="10.2428783"><ele>759.0</ele><time>2026-04-19T09:48:43.981Z</time></trkpt><trkpt lat="44.4178467" lon="10.2426517"><ele>759.0</ele><time>2026-04-19T09:48:44.981Z</time></trkpt><trkpt lat="44.417875" lon="10.242425"><ele>759.0</ele><time>2026-04-19T09:48:45.981Z</time></trkpt><trkpt lat="44.417895" lon="10.2422033"><ele>759.0</ele><time>2026-04-19T09:48:46.981Z</time></trkpt><trkpt lat="44.417895" lon="10.2419917"><ele>754.5</ele><time>2026-04-19T09:48:47.981Z</time></trkpt><trkpt lat="44.41788" lon="10.2418167"><ele>750.0</ele><time>2026-04-19T09:48:48.981Z</time></trkpt><trkpt lat="44.4178317" lon="10.2416683"><ele>745.5</ele><time>2026-04-19T09:48:49.981Z</time></trkpt><trkpt lat="44.41775" lon="10.2415383"><ele>741.0</ele><time>2026-04-19T09:48:50.981Z</time></trkpt><trkpt lat="44.41764" lon="10.2414233"><ele>735.3333333333334</ele><time>2026-04-19T09:48:51.981Z</time></trkpt><trkpt lat="44.4175033" lon="10.24131"><ele>729.6666666666667</ele><time>2026-04-19T09:48:52.981Z</time></trkpt><trkpt lat="44.4173383" lon="10.241195"><ele>724.0</ele><time>2026-04-19T09:48:53.982Z</time></trkpt><trkpt lat="44.417165" lon="10.2410683"><ele>726.6666666666667</ele><time>2026-04-19T09:48:54.981Z</time></trkpt><trkpt lat="44.4170017" lon="10.240945"><ele>729.3333333333334</ele><time>2026-04-19T09:48:55.981Z</time></trkpt><trkpt lat="44.4168517" lon="10.2408317"><ele>732.0</ele><time>2026-04-19T09:48:56.981Z</time></trkpt><trkpt lat="44.4167067" lon="10.2407133"><ele>731.3333333333334</ele><time>2026-04-19T09:48:57.981Z</time></trkpt><trkpt lat="44.416565" lon="10.2406017"><ele>730.6666666666667</ele><time>2026-04-19T09:48:58.981Z</time></trkpt><trkpt lat="44.4164383" lon="10.240495"><ele>730.0</ele><time>2026-04-19T09:48:59.981Z</time></trkpt><trkpt lat="44.4163117" lon="10.2403967"><ele>730.0</ele><time>2026-04-19T09:49:00.981Z</time></trkpt><trkpt lat="44.416185" lon="10.2403083"><ele>730.0</ele><time>2026-04-19T09:49:01.981Z</time></trkpt><trkpt lat="44.41605" lon="10.2402117"><ele>730.0</ele><time>2026-04-19T09:49:02.981Z</time></trkpt><trkpt lat="44.4159217" lon="10.2401367"><ele>730.0</ele><time>2026-04-19T09:49:03.981Z</time></trkpt><trkpt lat="44.41579" lon="10.2400683"><ele>730.0</ele><time>2026-04-19T09:49:04.981Z</time></trkpt><trkpt lat="44.4156633" lon="10.2400133"><ele>730.0</ele><time>2026-04-19T09:49:05.981Z</time></trkpt><trkpt lat="44.4155467" lon="10.239935"><ele>730.0</ele><time>2026-04-19T09:49:06.981Z</time></trkpt><trkpt lat="44.4154533" lon="10.2398467"><ele>730.0</ele><time>2026-04-19T09:49:07.981Z</time></trkpt><trkpt lat="44.41539" lon="10.2397233"><ele>730.75</ele><time>2026-04-19T09:49:08.981Z</time></trkpt><trkpt lat="44.41535" lon="10.23957"><ele>731.5</ele><time>2026-04-19T09:49:09.981Z</time></trkpt><trkpt lat="44.415315" lon="10.239385"><ele>732.25</ele><time>2026-04-19T09:49:10.981Z</time></trkpt><trkpt lat="44.41526" lon="10.2392"><ele>733.0</ele><time>2026-04-19T09:49:11.981Z</time></trkpt><trkpt lat="44.4152117" lon="10.2390167"><ele>725.3333333333334</ele><time>2026-04-19T09:49:12.981Z</time></trkpt><trkpt lat="44.415125" lon="10.238845"><ele>717.6666666666666</ele><time>2026-04-19T09:49:13.981Z</time></trkpt><trkpt lat="44.4150167" lon="10.2386733"><ele>710.0</ele><time>2026-04-19T09:49:14.981Z</time></trkpt><trkpt lat="44.4148567" lon="10.2385267"><ele>710.0</ele><time>2026-04-19T09:49:15.982Z</time></trkpt><trkpt lat="44.4146867" lon="10.2383933"><ele>710.0</ele><time>2026-04-19T09:49:16.981Z</time></trkpt><trkpt lat="44.4145467" lon="10.2382533"><ele>710.0</ele><time>2026-04-19T09:49:17.981Z</time></trkpt><trkpt lat="44.4144217" lon="10.2381017"><ele>711.6666666666666</ele><time>2026-04-19T09:49:18.981Z</time></trkpt><trkpt lat="44.4143067" lon="10.237945"><ele>713.3333333333334</ele><time>2026-04-19T09:49:19.981Z</time></trkpt><trkpt lat="44.414205" lon="10.2377767"><ele>715.0</ele><time>2026-04-19T09:49:20.981Z</time></trkpt><trkpt lat="44.4141" lon="10.2375983"><ele>715.0</ele><time>2026-04-19T09:49:21.981Z</time></trkpt><trkpt lat="44.413995" lon="10.2374217"><ele>715.0</ele><time>2026-04-19T09:49:22.981Z</time></trkpt><trkpt lat="44.4138883" lon="10.23725"><ele>715.0</ele><time>2026-04-19T09:49:23.981Z</time></trkpt><trkpt lat="44.41379" lon="10.23709"><ele>714.5</ele><time>2026-04-19T09:49:24.981Z</time></trkpt><trkpt lat="44.4136983" lon="10.23693"><ele>714.0</ele><time>2026-04-19T09:49:25.981Z</time></trkpt><trkpt lat="44.41364" lon="10.2367467"><ele>713.5</ele><time>2026-04-19T09:49:26.981Z</time></trkpt><trkpt lat="44.4135917" lon="10.236575"><ele>713.0</ele><time>2026-04-19T09:49:27.981Z</time></trkpt><trkpt lat="44.4135567" lon="10.2364233"><ele>713.0</ele><time>2026-04-19T09:49:28.981Z</time></trkpt><trkpt lat="44.4135267" lon="10.236275"><ele>713.0</ele><time>2026-04-19T09:49:29.981Z</time></trkpt><trkpt lat="44.413505" lon="10.236125"><ele>713.0</ele><time>2026-04-19T09:49:30.981Z</time></trkpt><trkpt lat="44.4134833" lon="10.235985"><ele>713.0</ele><time>2026-04-19T09:49:31.981Z</time></trkpt><trkpt lat="44.4134333" lon="10.2358533"><ele>713.0</ele><time>2026-04-19T09:49:32.981Z</time></trkpt><trkpt lat="44.41336" lon="10.23576"><ele>713.0</ele><time>2026-04-19T09:49:33.981Z</time></trkpt><trkpt lat="44.4132683" lon="10.2357117"><ele>713.0</ele><time>2026-04-19T09:49:34.981Z</time></trkpt><trkpt lat="44.4131683" lon="10.2357217"><ele>713.0</ele><time>2026-04-19T09:49:35.981Z</time></trkpt><trkpt lat="44.4130667" lon="10.2357983"><ele>713.0</ele><time>2026-04-19T09:49:36.981Z</time></trkpt><trkpt lat="44.4129567" lon="10.2359217"><ele>714.75</ele><time>2026-04-19T09:49:37.981Z</time></trkpt><trkpt lat="44.412855" lon="10.23607"><ele>716.5</ele><time>2026-04-19T09:49:38.981Z</time></trkpt><trkpt lat="44.4127683" lon="10.23621"><ele>718.25</ele><time>2026-04-19T09:49:39.981Z</time></trkpt><trkpt lat="44.4126817" lon="10.2363567"><ele>720.0</ele><time>2026-04-19T09:49:40.981Z</time></trkpt><trkpt lat="44.412615" lon="10.236495"><ele>720.0</ele><time>2026-04-19T09:49:41.981Z</time></trkpt><trkpt lat="44.4125533" lon="10.2366517"><ele>720.0</ele><time>2026-04-19T09:49:42.981Z</time></trkpt><trkpt lat="44.412505" lon="10.2368033"><ele>720.0</ele><time>2026-04-19T09:49:43.981Z</time></trkpt><trkpt lat="44.4124433" lon="10.236955"><ele>720.0</ele><time>2026-04-19T09:49:44.981Z</time></trkpt><trkpt lat="44.4123683" lon="10.2370767"><ele>720.0</ele><time>2026-04-19T09:49:45.981Z</time></trkpt><trkpt lat="44.4122783" lon="10.2371683"><ele>720.0</ele><time>2026-04-19T09:49:46.981Z</time></trkpt><trkpt lat="44.4121817" lon="10.2372267"><ele>720.0</ele><time>2026-04-19T09:49:47.981Z</time></trkpt><trkpt lat="44.4120733" lon="10.23723"><ele>720.0</ele><time>2026-04-19T09:49:48.981Z</time></trkpt><trkpt lat="44.4119567" lon="10.2372183"><ele>720.0</ele><time>2026-04-19T09:49:49.981Z</time></trkpt><trkpt lat="44.41183" lon="10.2372367"><ele>722.25</ele><time>2026-04-19T09:49:50.981Z</time></trkpt><trkpt lat="44.411715" lon="10.237305"><ele>724.5</ele><time>2026-04-19T09:49:51.981Z</time></trkpt><trkpt lat="44.411605" lon="10.2374183"><ele>726.75</ele><time>2026-04-19T09:49:52.981Z</time></trkpt><trkpt lat="44.4114983" lon="10.2375783"><ele>729.0</ele><time>2026-04-19T09:49:53.981Z</time></trkpt><trkpt lat="44.411385" lon="10.23774"><ele>722.3333333333334</ele><time>2026-04-19T09:49:54.981Z</time></trkpt><trkpt lat="44.41125" lon="10.2378867"><ele>715.6666666666667</ele><time>2026-04-19T09:49:55.981Z</time></trkpt><trkpt lat="44.41111" lon="10.23801"><ele>709.0</ele><time>2026-04-19T09:49:56.98Z</time></trkpt><trkpt lat="44.410965" lon="10.2381267"><ele>712.25</ele><time>2026-04-19T09:49:57.98Z</time></trkpt><trkpt lat="44.410815" lon="10.2382133"><ele>715.5</ele><time>2026-04-19T09:49:58.98Z</time></trkpt><trkpt lat="44.41067" lon="10.2382733"><ele>718.75</ele><time>2026-04-19T09:49:59.98Z</time></trkpt><trkpt lat="44.4105433" lon="10.23833"><ele>722.0</ele><time>2026-04-19T09:50:00.98Z</time></trkpt><trkpt lat="44.4104333" lon="10.2384067"><ele>722.0</ele><time>2026-04-19T09:50:01.98Z</time></trkpt><trkpt lat="44.4103233" lon="10.2385117"><ele>722.0</ele><time>2026-04-19T09:50:02.98Z</time></trkpt><trkpt lat="44.4102217" lon="10.2386667"><ele>722.0</ele><time>2026-04-19T09:50:03.98Z</time></trkpt><trkpt lat="44.4101383" lon="10.2388567"><ele>722.0</ele><time>2026-04-19T09:50:04.98Z</time></trkpt><trkpt lat="44.4100783" lon="10.23906"><ele>726.5</ele><time>2026-04-19T09:50:05.98Z</time></trkpt><trkpt lat="44.4100133" lon="10.2392567"><ele>731.0</ele><time>2026-04-19T09:50:06.98Z</time></trkpt><trkpt lat="44.4099417" lon="10.23941"><ele>735.5</ele><time>2026-04-19T09:50:07.98Z</time></trkpt><trkpt lat="44.409865" lon="10.2395333"><ele>740.0</ele><time>2026-04-19T09:50:08.98Z</time></trkpt><trkpt lat="44.4097533" lon="10.2396017"><ele>738.25</ele><time>2026-04-19T09:50:09.98Z</time></trkpt><trkpt lat="44.409635" lon="10.2395967"><ele>736.5</ele><time>2026-04-19T09:50:10.98Z</time></trkpt><trkpt lat="44.409505" lon="10.239555"><ele>734.75</ele><time>2026-04-19T09:50:11.98Z</time></trkpt><trkpt lat="44.4093733" lon="10.2395433"><ele>733.0</ele><time>2026-04-19T09:50:12.98Z</time></trkpt><trkpt lat="44.409245" lon="10.2396067"><ele>733.0</ele><time>2026-04-19T09:50:13.98Z</time></trkpt><trkpt lat="44.4091117" lon="10.2397167"><ele>733.0</ele><time>2026-04-19T09:50:14.98Z</time></trkpt><trkpt lat="44.4089917" lon="10.2398567"><ele>733.0</ele><time>2026-04-19T09:50:15.98Z</time></trkpt><trkpt lat="44.4088733" lon="10.24001"><ele>736.75</ele><time>2026-04-19T09:50:16.98Z</time></trkpt><trkpt lat="44.4087633" lon="10.2401467"><ele>740.5</ele><time>2026-04-19T09:50:17.98Z</time></trkpt><trkpt lat="44.4086617" lon="10.2402567"><ele>744.25</ele><time>2026-04-19T09:50:18.98Z</time></trkpt><trkpt lat="44.4085667" lon="10.2403333"><ele>748.0</ele><time>2026-04-19T09:50:19.98Z</time></trkpt><trkpt lat="44.4084767" lon="10.2403733"><ele>748.0</ele><time>2026-04-19T09:50:20.98Z</time></trkpt><trkpt lat="44.4083933" lon="10.2403733"><ele>748.0</ele><time>2026-04-19T09:50:21.98Z</time></trkpt><trkpt lat="44.4083117" lon="10.2403283"><ele>748.0</ele><time>2026-04-19T09:50:22.98Z</time></trkpt><trkpt lat="44.4082633" lon="10.240215"><ele>748.0</ele><time>2026-04-19T09:50:23.977Z</time></trkpt><trkpt lat="44.4082433" lon="10.2400667"><ele>748.0</ele><time>2026-04-19T09:50:24.98Z</time></trkpt><trkpt lat="44.4082833" lon="10.23987"><ele>748.5</ele><time>2026-04-19T09:50:25.98Z</time></trkpt><trkpt lat="44.4083383" lon="10.2396783"><ele>749.0</ele><time>2026-04-19T09:50:26.98Z</time></trkpt><trkpt lat="44.4083783" lon="10.2395117"><ele>749.5</ele><time>2026-04-19T09:50:27.98Z</time></trkpt><trkpt lat="44.408395" lon="10.2393683"><ele>750.0</ele><time>2026-04-19T09:50:28.98Z</time></trkpt><trkpt lat="44.4083983" lon="10.23924"><ele>750.0</ele><time>2026-04-19T09:50:29.98Z</time></trkpt><trkpt lat="44.4083717" lon="10.23912"><ele>750.0</ele><time>2026-04-19T09:50:30.98Z</time></trkpt><trkpt lat="44.4083133" lon="10.23902"><ele>750.0</ele><time>2026-04-19T09:50:31.98Z</time></trkpt><trkpt lat="44.4082333" lon="10.23892"><ele>750.0</ele><time>2026-04-19T09:50:32.98Z</time></trkpt><trkpt lat="44.4081533" lon="10.2388067"><ele>750.0</ele><time>2026-04-19T09:50:33.98Z</time></trkpt><trkpt lat="44.4080633" lon="10.2386933"><ele>750.5</ele><time>2026-04-19T09:50:34.98Z</time></trkpt><trkpt lat="44.4079733" lon="10.2385683"><ele>751.0</ele><time>2026-04-19T09:50:35.98Z</time></trkpt><trkpt lat="44.4078967" lon="10.2384467"><ele>751.5</ele><time>2026-04-19T09:50:36.98Z</time></trkpt><trkpt lat="44.407815" lon="10.2383333"><ele>752.0</ele><time>2026-04-19T09:50:37.98Z</time></trkpt><trkpt lat="44.4077267" lon="10.2382467"><ele>752.0</ele><time>2026-04-19T09:50:38.98Z</time></trkpt><trkpt lat="44.4076283" lon="10.2381917"><ele>752.0</ele><time>2026-04-19T09:50:39.98Z</time></trkpt><trkpt lat="44.4075133" lon="10.23817"><ele>752.0</ele><time>2026-04-19T09:50:40.98Z</time></trkpt><trkpt lat="44.4073783" lon="10.238165"><ele>752.0</ele><time>2026-04-19T09:50:41.98Z</time></trkpt><trkpt lat="44.4072433" lon="10.2381517"><ele>749.75</ele><time>2026-04-19T09:50:42.98Z</time></trkpt><trkpt lat="44.40711" lon="10.2381167"><ele>747.5</ele><time>2026-04-19T09:50:43.98Z</time></trkpt><trkpt lat="44.4069733" lon="10.2380667"><ele>745.25</ele><time>2026-04-19T09:50:44.98Z</time></trkpt><trkpt lat="44.406845" lon="10.2380067"><ele>743.0</ele><time>2026-04-19T09:50:45.98Z</time></trkpt><trkpt lat="44.4067067" lon="10.2379533"><ele>743.0</ele><time>2026-04-19T09:50:46.98Z</time></trkpt><trkpt lat="44.4065633" lon="10.2379333"><ele>743.0</ele><time>2026-04-19T09:50:47.98Z</time></trkpt><trkpt lat="44.406405" lon="10.2379483"><ele>743.0</ele><time>2026-04-19T09:50:48.98Z</time></trkpt><trkpt lat="44.4062417" lon="10.2379617"><ele>744.0</ele><time>2026-04-19T09:50:49.98Z</time></trkpt><trkpt lat="44.4060833" lon="10.2379683"><ele>745.0</ele><time>2026-04-19T09:50:50.98Z</time></trkpt><trkpt lat="44.4059333" lon="10.2379417"><ele>746.0</ele><time>2026-04-19T09:50:51.981Z</time></trkpt><trkpt lat="44.405775" lon="10.237895"><ele>746.0</ele><time>2026-04-19T09:50:52.98Z</time></trkpt><trkpt lat="44.4056233" lon="10.2378283"><ele>746.0</ele><time>2026-04-19T09:50:53.98Z</time></trkpt><trkpt lat="44.405485" lon="10.2377583"><ele>746.0</ele><time>2026-04-19T09:50:54.98Z</time></trkpt><trkpt lat="44.4053683" lon="10.2376667"><ele>746.0</ele><time>2026-04-19T09:50:55.98Z</time></trkpt><trkpt lat="44.40526" lon="10.2375717"><ele>747.0</ele><time>2026-04-19T09:50:56.98Z</time></trkpt><trkpt lat="44.405185" lon="10.2374633"><ele>748.0</ele><time>2026-04-19T09:50:57.98Z</time></trkpt><trkpt lat="44.40514" lon="10.2373217"><ele>749.0</ele><time>2026-04-19T09:50:58.98Z</time></trkpt><trkpt lat="44.4051283" lon="10.2371367"><ele>750.0</ele><time>2026-04-19T09:50:59.98Z</time></trkpt><trkpt lat="44.4051567" lon="10.236885"><ele>750.0</ele><time>2026-04-19T09:51:00.98Z</time></trkpt><trkpt lat="44.405175" lon="10.23661"><ele>750.0</ele><time>2026-04-19T09:51:01.98Z</time></trkpt><trkpt lat="44.40519" lon="10.23636"><ele>750.0</ele><time>2026-04-19T09:51:02.98Z</time></trkpt><trkpt lat="44.4051733" lon="10.2361433"><ele>749.0</ele><time>2026-04-19T09:51:03.98Z</time></trkpt><trkpt lat="44.4051283" lon="10.235955"><ele>748.0</ele><time>2026-04-19T09:51:04.98Z</time></trkpt><trkpt lat="44.4050433" lon="10.2358033"><ele>747.0</ele><time>2026-04-19T09:51:05.98Z</time></trkpt><trkpt lat="44.404915" lon="10.235685"><ele>746.0</ele><time>2026-04-19T09:51:06.98Z</time></trkpt><trkpt lat="44.4047917" lon="10.23559"><ele>744.0</ele><time>2026-04-19T09:51:07.98Z</time></trkpt><trkpt lat="44.40468" lon="10.23548"><ele>742.0</ele><time>2026-04-19T09:51:08.98Z</time></trkpt><trkpt lat="44.4046067" lon="10.2353517"><ele>740.0</ele><time>2026-04-19T09:51:09.98Z</time></trkpt><trkpt lat="44.4045683" lon="10.2351983"><ele>738.0</ele><time>2026-04-19T09:51:10.98Z</time></trkpt><trkpt lat="44.4045667" lon="10.2350333"><ele>738.5</ele><time>2026-04-19T09:51:11.98Z</time></trkpt><trkpt lat="44.4045867" lon="10.2348417"><ele>739.0</ele><time>2026-04-19T09:51:12.98Z</time></trkpt><trkpt lat="44.40462" lon="10.2346367"><ele>739.5</ele><time>2026-04-19T09:51:13.98Z</time></trkpt><trkpt lat="44.4046533" lon="10.2344283"><ele>740.0</ele><time>2026-04-19T09:51:14.98Z</time></trkpt><trkpt lat="44.4047017" lon="10.2342033"><ele>740.0</ele><time>2026-04-19T09:51:15.98Z</time></trkpt><trkpt lat="44.4047533" lon="10.2339917"><ele>740.0</ele><time>2026-04-19T09:51:16.98Z</time></trkpt><trkpt lat="44.4048067" lon="10.2338017"><ele>740.0</ele><time>2026-04-19T09:51:17.98Z</time></trkpt><trkpt lat="44.404855" lon="10.2336283"><ele>740.0</ele><time>2026-04-19T09:51:18.98Z</time></trkpt><trkpt lat="44.404905" lon="10.2334467"><ele>742.75</ele><time>2026-04-19T09:51:19.98Z</time></trkpt><trkpt lat="44.404945" lon="10.2332617"><ele>745.5</ele><time>2026-04-19T09:51:20.98Z</time></trkpt><trkpt lat="44.4049833" lon="10.2330717"><ele>748.25</ele><time>2026-04-19T09:51:21.98Z</time></trkpt><trkpt lat="44.4050217" lon="10.2328717"><ele>751.0</ele><time>2026-04-19T09:51:22.98Z</time></trkpt><trkpt lat="44.4050633" lon="10.23269"><ele>753.6666666666667</ele><time>2026-04-19T09:51:23.98Z</time></trkpt><trkpt lat="44.40511" lon="10.2324983"><ele>756.3333333333334</ele><time>2026-04-19T09:51:24.98Z</time></trkpt><trkpt lat="44.405155" lon="10.2323017"><ele>759.0</ele><time>2026-04-19T09:51:25.98Z</time></trkpt><trkpt lat="44.40518" lon="10.2320833"><ele>760.3333333333334</ele><time>2026-04-19T09:51:26.98Z</time></trkpt><trkpt lat="44.4051883" lon="10.2318517"><ele>761.6666666666667</ele><time>2026-04-19T09:51:27.98Z</time></trkpt><trkpt lat="44.4051767" lon="10.2316117"><ele>763.0</ele><time>2026-04-19T09:51:28.98Z</time></trkpt><trkpt lat="44.40517" lon="10.231375"><ele>763.3333333333334</ele><time>2026-04-19T09:51:29.98Z</time></trkpt><trkpt lat="44.4051567" lon="10.23114"><ele>763.6666666666666</ele><time>2026-04-19T09:51:30.98Z</time></trkpt><trkpt lat="44.4051583" lon="10.2309067"><ele>764.0</ele><time>2026-04-19T09:51:31.98Z</time></trkpt><trkpt lat="44.40519" lon="10.23069"><ele>763.3333333333333</ele><time>2026-04-19T09:51:32.98Z</time></trkpt><trkpt lat="44.4052317" lon="10.2304733"><ele>762.6666666666666</ele><time>2026-04-19T09:51:33.98Z</time></trkpt><trkpt lat="44.4052583" lon="10.2302683"><ele>762.0</ele><time>2026-04-19T09:51:34.98Z</time></trkpt><trkpt lat="44.4052533" lon="10.2300633"><ele>762.0</ele><time>2026-04-19T09:51:35.98Z</time></trkpt><trkpt lat="44.4052383" lon="10.229875"><ele>762.0</ele><time>2026-04-19T09:51:36.98Z</time></trkpt><trkpt lat="44.40519" lon="10.2296867"><ele>762.0</ele><time>2026-04-19T09:51:37.98Z</time></trkpt><trkpt lat="44.4050983" lon="10.2295167"><ele>762.0</ele><time>2026-04-19T09:51:38.98Z</time></trkpt><trkpt lat="44.4049883" lon="10.22936"><ele>760.3333333333334</ele><time>2026-04-19T09:51:39.98Z</time></trkpt><trkpt lat="44.4048667" lon="10.2291917"><ele>758.6666666666667</ele><time>2026-04-19T09:51:40.98Z</time></trkpt><trkpt lat="44.40474" lon="10.2290167"><ele>757.0</ele><time>2026-04-19T09:51:41.98Z</time></trkpt><trkpt lat="44.4046217" lon="10.2288267"><ele>757.0</ele><time>2026-04-19T09:51:42.981Z</time></trkpt><trkpt lat="44.4045033" lon="10.2286483"><ele>757.0</ele><time>2026-04-19T09:51:43.98Z</time></trkpt><trkpt lat="44.4043783" lon="10.2285"><ele>757.0</ele><time>2026-04-19T09:51:44.98Z</time></trkpt><trkpt lat="44.4042517" lon="10.2283767"><ele>757.0</ele><time>2026-04-19T09:51:45.98Z</time></trkpt><trkpt lat="44.4041433" lon="10.2282767"><ele>757.0</ele><time>2026-04-19T09:51:46.98Z</time></trkpt><trkpt lat="44.4040617" lon="10.2281717"><ele>757.0</ele><time>2026-04-19T09:51:47.98Z</time></trkpt><trkpt lat="44.404" lon="10.2280433"><ele>757.0</ele><time>2026-04-19T09:51:48.98Z</time></trkpt><trkpt lat="44.4039683" lon="10.22788"><ele>754.75</ele><time>2026-04-19T09:51:49.98Z</time></trkpt><trkpt lat="44.40394" lon="10.2276933"><ele>752.5</ele><time>2026-04-19T09:51:50.98Z</time></trkpt><trkpt lat="44.4039233" lon="10.227485"><ele>750.25</ele><time>2026-04-19T09:51:51.98Z</time></trkpt><trkpt lat="44.40389" lon="10.227285"><ele>748.0</ele><time>2026-04-19T09:51:52.98Z</time></trkpt><trkpt lat="44.4038517" lon="10.227105"><ele>750.75</ele><time>2026-04-19T09:51:53.98Z</time></trkpt><trkpt lat="44.4038217" lon="10.2269333"><ele>753.5</ele><time>2026-04-19T09:51:54.98Z</time></trkpt><trkpt lat="44.4037917" lon="10.2267583"><ele>756.25</ele><time>2026-04-19T09:51:55.98Z</time></trkpt><trkpt lat="44.403765" lon="10.22658"><ele>759.0</ele><time>2026-04-19T09:51:56.98Z</time></trkpt><trkpt lat="44.4037317" lon="10.2263883"><ele>759.0</ele><time>2026-04-19T09:51:57.98Z</time></trkpt><trkpt lat="44.4037083" lon="10.226205"><ele>759.0</ele><time>2026-04-19T09:51:58.98Z</time></trkpt><trkpt lat="44.403655" lon="10.2260183"><ele>759.0</ele><time>2026-04-19T09:51:59.98Z</time></trkpt><trkpt lat="44.4035833" lon="10.2258517"><ele>759.0</ele><time>2026-04-19T09:52:00.98Z</time></trkpt><trkpt lat="44.4034933" lon="10.22569"><ele>755.75</ele><time>2026-04-19T09:52:01.98Z</time></trkpt><trkpt lat="44.4033967" lon="10.22554"><ele>752.5</ele><time>2026-04-19T09:52:02.98Z</time></trkpt><trkpt lat="44.4033033" lon="10.2254"><ele>749.25</ele><time>2026-04-19T09:52:03.98Z</time></trkpt><trkpt lat="44.4032133" lon="10.225275"><ele>746.0</ele><time>2026-04-19T09:52:04.98Z</time></trkpt><trkpt lat="44.40311" lon="10.2251533"><ele>748.5</ele><time>2026-04-19T09:52:05.98Z</time></trkpt><trkpt lat="44.4029933" lon="10.225045"><ele>751.0</ele><time>2026-04-19T09:52:06.98Z</time></trkpt><trkpt lat="44.4028733" lon="10.2249233"><ele>753.5</ele><time>2026-04-19T09:52:07.98Z</time></trkpt><trkpt lat="44.4027617" lon="10.224775"><ele>756.0</ele><time>2026-04-19T09:52:08.98Z</time></trkpt><trkpt lat="44.4026717" lon="10.224595"><ele>756.0</ele><time>2026-04-19T09:52:09.98Z</time></trkpt><trkpt lat="44.4026167" lon="10.2243933"><ele>756.0</ele><time>2026-04-19T09:52:10.98Z</time></trkpt><trkpt lat="44.402555" lon="10.2241783"><ele>756.0</ele><time>2026-04-19T09:52:11.981Z</time></trkpt><trkpt lat="44.402485" lon="10.2239717"><ele>756.5</ele><time>2026-04-19T09:52:12.98Z</time></trkpt><trkpt lat="44.402415" lon="10.223795"><ele>757.0</ele><time>2026-04-19T09:52:13.98Z</time></trkpt><trkpt lat="44.40234" lon="10.223625"><ele>757.5</ele><time>2026-04-19T09:52:14.98Z</time></trkpt><trkpt lat="44.4022417" lon="10.22348"><ele>758.0</ele><time>2026-04-19T09:52:15.98Z</time></trkpt><trkpt lat="44.4021267" lon="10.2233567"><ele>758.0</ele><time>2026-04-19T09:52:16.98Z</time></trkpt><trkpt lat="44.40197" lon="10.2232867"><ele>758.0</ele><time>2026-04-19T09:52:17.98Z</time></trkpt><trkpt lat="44.4018217" lon="10.223225"><ele>758.0</ele><time>2026-04-19T09:52:18.98Z</time></trkpt><trkpt lat="44.4016683" lon="10.2231933"><ele>758.0</ele><time>2026-04-19T09:52:19.98Z</time></trkpt><trkpt lat="44.4015" lon="10.2231717"><ele>758.0</ele><time>2026-04-19T09:52:20.98Z</time></trkpt><trkpt lat="44.401345" lon="10.223145"><ele>758.0</ele><time>2026-04-19T09:52:21.979Z</time></trkpt><trkpt lat="44.401195" lon="10.2231033"><ele>753.5</ele><time>2026-04-19T09:52:22.98Z</time></trkpt><trkpt lat="44.4010517" lon="10.2230517"><ele>749.0</ele><time>2026-04-19T09:52:23.98Z</time></trkpt><trkpt lat="44.4009117" lon="10.2230217"><ele>744.5</ele><time>2026-04-19T09:52:24.98Z</time></trkpt><trkpt lat="44.4007533" lon="10.22301"><ele>740.0</ele><time>2026-04-19T09:52:25.98Z</time></trkpt><trkpt lat="44.4005967" lon="10.2230183"><ele>738.3333333333333</ele><time>2026-04-19T09:52:26.98Z</time></trkpt><trkpt lat="44.4004317" lon="10.2230517"><ele>736.6666666666666</ele><time>2026-04-19T09:52:27.981Z</time></trkpt><trkpt lat="44.4002683" lon="10.22309"><ele>735.0</ele><time>2026-04-19T09:52:28.98Z</time></trkpt><trkpt lat="44.400105" lon="10.2231417"><ele>739.3333333333334</ele><time>2026-04-19T09:52:29.98Z</time></trkpt><trkpt lat="44.3999383" lon="10.2232017"><ele>743.6666666666667</ele><time>2026-04-19T09:52:30.98Z</time></trkpt><trkpt lat="44.3997817" lon="10.22328"><ele>748.0</ele><time>2026-04-19T09:52:31.98Z</time></trkpt><trkpt lat="44.3996367" lon="10.2233583"><ele>748.0</ele><time>2026-04-19T09:52:32.98Z</time></trkpt><trkpt lat="44.3995067" lon="10.2234383"><ele>748.0</ele><time>2026-04-19T09:52:33.98Z</time></trkpt><trkpt lat="44.3993767" lon="10.2235"><ele>748.0</ele><time>2026-04-19T09:52:34.98Z</time></trkpt><trkpt lat="44.3992533" lon="10.2235383"><ele>748.0</ele><time>2026-04-19T09:52:35.98Z</time></trkpt><trkpt lat="44.3991367" lon="10.2235317"><ele>748.0</ele><time>2026-04-19T09:52:36.98Z</time></trkpt><trkpt lat="44.3990083" lon="10.2234967"><ele>748.0</ele><time>2026-04-19T09:52:37.98Z</time></trkpt><trkpt lat="44.398865" lon="10.2234567"><ele>748.0</ele><time>2026-04-19T09:52:38.98Z</time></trkpt><trkpt lat="44.3987167" lon="10.2234183"><ele>748.0</ele><time>2026-04-19T09:52:39.98Z</time></trkpt><trkpt lat="44.3985717" lon="10.22336"><ele>749.0</ele><time>2026-04-19T09:52:40.98Z</time></trkpt><trkpt lat="44.3984417" lon="10.2232767"><ele>750.0</ele><time>2026-04-19T09:52:41.98Z</time></trkpt><trkpt lat="44.3983283" lon="10.22314"><ele>751.0</ele><time>2026-04-19T09:52:42.98Z</time></trkpt><trkpt lat="44.3982483" lon="10.22297"><ele>752.0</ele><time>2026-04-19T09:52:43.98Z</time></trkpt><trkpt lat="44.39818" lon="10.2227883"><ele>752.0</ele><time>2026-04-19T09:52:44.98Z</time></trkpt><trkpt lat="44.3981183" lon="10.222615"><ele>752.0</ele><time>2026-04-19T09:52:45.98Z</time></trkpt><trkpt lat="44.3980633" lon="10.2224617"><ele>752.0</ele><time>2026-04-19T09:52:46.98Z</time></trkpt><trkpt lat="44.39801" lon="10.22232"><ele>752.0</ele><time>2026-04-19T09:52:47.98Z</time></trkpt><trkpt lat="44.39796" lon="10.2221733"><ele>752.0</ele><time>2026-04-19T09:52:48.98Z</time></trkpt><trkpt lat="44.39791" lon="10.222005"><ele>752.0</ele><time>2026-04-19T09:52:49.98Z</time></trkpt><trkpt lat="44.3978567" lon="10.2218283"><ele>752.0</ele><time>2026-04-19T09:52:50.98Z</time></trkpt><trkpt lat="44.3978067" lon="10.2216617"><ele>752.0</ele><time>2026-04-19T09:52:51.98Z</time></trkpt><trkpt lat="44.3977567" lon="10.2215"><ele>748.75</ele><time>2026-04-19T09:52:52.98Z</time></trkpt><trkpt lat="44.3976983" lon="10.22134"><ele>745.5</ele><time>2026-04-19T09:52:53.98Z</time></trkpt><trkpt lat="44.39762" lon="10.2211867"><ele>742.25</ele><time>2026-04-19T09:52:54.98Z</time></trkpt><trkpt lat="44.3975083" lon="10.2210433"><ele>739.0</ele><time>2026-04-19T09:52:55.98Z</time></trkpt><trkpt lat="44.397365" lon="10.220925"><ele>739.0</ele><time>2026-04-19T09:52:56.98Z</time></trkpt><trkpt lat="44.3972267" lon="10.22081"><ele>739.0</ele><time>2026-04-19T09:52:57.98Z</time></trkpt><trkpt lat="44.39711" lon="10.22066"><ele>739.0</ele><time>2026-04-19T09:52:58.98Z</time></trkpt><trkpt lat="44.3970033" lon="10.2204983"><ele>742.0</ele><time>2026-04-19T09:52:59.98Z</time></trkpt><trkpt lat="44.3969183" lon="10.220305"><ele>745.0</ele><time>2026-04-19T09:53:00.98Z</time></trkpt><trkpt lat="44.3968533" lon="10.2201133"><ele>748.0</ele><time>2026-04-19T09:53:01.981Z</time></trkpt><trkpt lat="44.3968067" lon="10.219915"><ele>747.0</ele><time>2026-04-19T09:53:02.98Z</time></trkpt><trkpt lat="44.3968033" lon="10.219725"><ele>746.0</ele><time>2026-04-19T09:53:03.98Z</time></trkpt><trkpt lat="44.39684" lon="10.21954"><ele>745.0</ele><time>2026-04-19T09:53:04.98Z</time></trkpt><trkpt lat="44.3969117" lon="10.219365"><ele>744.0</ele><time>2026-04-19T09:53:05.98Z</time></trkpt><trkpt lat="44.3970067" lon="10.2191883"><ele>744.0</ele><time>2026-04-19T09:53:06.98Z</time></trkpt><trkpt lat="44.3970983" lon="10.21902"><ele>744.0</ele><time>2026-04-19T09:53:07.98Z</time></trkpt><trkpt lat="44.397175" lon="10.2188667"><ele>744.0</ele><time>2026-04-19T09:53:08.98Z</time></trkpt><trkpt lat="44.3972483" lon="10.218715"><ele>744.0</ele><time>2026-04-19T09:53:09.98Z</time></trkpt><trkpt lat="44.3973167" lon="10.21857"><ele>742.0</ele><time>2026-04-19T09:53:10.98Z</time></trkpt><trkpt lat="44.3973867" lon="10.2184267"><ele>740.0</ele><time>2026-04-19T09:53:11.98Z</time></trkpt><trkpt lat="44.3974517" lon="10.218275"><ele>738.0</ele><time>2026-04-19T09:53:12.981Z</time></trkpt><trkpt lat="44.3974983" lon="10.21811"><ele>736.0</ele><time>2026-04-19T09:53:13.98Z</time></trkpt><trkpt lat="44.3975417" lon="10.217925"><ele>736.0</ele><time>2026-04-19T09:53:14.98Z</time></trkpt><trkpt lat="44.3976017" lon="10.2177417"><ele>736.0</ele><time>2026-04-19T09:53:15.98Z</time></trkpt><trkpt lat="44.3976917" lon="10.2175667"><ele>736.0</ele><time>2026-04-19T09:53:16.98Z</time></trkpt><trkpt lat="44.3978083" lon="10.2173867"><ele>737.0</ele><time>2026-04-19T09:53:17.98Z</time></trkpt><trkpt lat="44.3979383" lon="10.2172183"><ele>738.0</ele><time>2026-04-19T09:53:18.981Z</time></trkpt><trkpt lat="44.39807" lon="10.2170533"><ele>739.0</ele><time>2026-04-19T09:53:19.98Z</time></trkpt><trkpt lat="44.3981933" lon="10.2168983"><ele>736.25</ele><time>2026-04-19T09:53:20.98Z</time></trkpt><trkpt lat="44.3983067" lon="10.21675"><ele>733.5</ele><time>2026-04-19T09:53:21.98Z</time></trkpt><trkpt lat="44.3984017" lon="10.2166183"><ele>730.75</ele><time>2026-04-19T09:53:22.98Z</time></trkpt><trkpt lat="44.3984783" lon="10.2165117"><ele>728.0</ele><time>2026-04-19T09:53:23.98Z</time></trkpt><trkpt lat="44.3985433" lon="10.2164033"><ele>724.0</ele><time>2026-04-19T09:53:24.98Z</time></trkpt><trkpt lat="44.398585" lon="10.21629"><ele>720.0</ele><time>2026-04-19T09:53:25.98Z</time></trkpt><trkpt lat="44.3985883" lon="10.2161617"><ele>716.0</ele><time>2026-04-19T09:53:26.98Z</time></trkpt><trkpt lat="44.3985367" lon="10.216025"><ele>712.0</ele><time>2026-04-19T09:53:27.98Z</time></trkpt><trkpt lat="44.3984417" lon="10.2159117"><ele>708.0</ele><time>2026-04-19T09:53:28.98Z</time></trkpt><trkpt lat="44.3983133" lon="10.2158067"><ele>708.0</ele><time>2026-04-19T09:53:29.98Z</time></trkpt><trkpt lat="44.39819" lon="10.215725"><ele>708.0</ele><time>2026-04-19T09:53:30.981Z</time></trkpt><trkpt lat="44.3980683" lon="10.2156717"><ele>708.0</ele><time>2026-04-19T09:53:31.98Z</time></trkpt><trkpt lat="44.3979433" lon="10.2156483"><ele>708.0</ele><time>2026-04-19T09:53:32.98Z</time></trkpt><trkpt lat="44.3978033" lon="10.2156867"><ele>708.0</ele><time>2026-04-19T09:53:33.98Z</time></trkpt><trkpt lat="44.39765" lon="10.2157633"><ele>708.0</ele><time>2026-04-19T09:53:34.98Z</time></trkpt><trkpt lat="44.397495" lon="10.215865"><ele>708.0</ele><time>2026-04-19T09:53:35.98Z</time></trkpt><trkpt lat="44.3973467" lon="10.21598"><ele>708.0</ele><time>2026-04-19T09:53:36.98Z</time></trkpt><trkpt lat="44.3972" lon="10.2160567"><ele>708.0</ele><time>2026-04-19T09:53:37.98Z</time></trkpt><trkpt lat="44.3970633" lon="10.2161117"><ele>708.0</ele><time>2026-04-19T09:53:38.98Z</time></trkpt><trkpt lat="44.39692" lon="10.2161567"><ele>708.0</ele><time>2026-04-19T09:53:39.98Z</time></trkpt><trkpt lat="44.3967767" lon="10.2162167"><ele>712.0</ele><time>2026-04-19T09:53:40.98Z</time></trkpt><trkpt lat="44.396625" lon="10.21632"><ele>716.0</ele><time>2026-04-19T09:53:41.98Z</time></trkpt><trkpt lat="44.3964767" lon="10.2164483"><ele>720.0</ele><time>2026-04-19T09:53:42.98Z</time></trkpt><trkpt lat="44.3963467" lon="10.216575"><ele>713.25</ele><time>2026-04-19T09:53:43.98Z</time></trkpt><trkpt lat="44.3962183" lon="10.2166817"><ele>706.5</ele><time>2026-04-19T09:53:44.98Z</time></trkpt><trkpt lat="44.3960983" lon="10.2167833"><ele>699.75</ele><time>2026-04-19T09:53:45.98Z</time></trkpt><trkpt lat="44.3959733" lon="10.2168533"><ele>693.0</ele><time>2026-04-19T09:53:46.98Z</time></trkpt><trkpt lat="44.3958633" lon="10.21691"><ele>693.0</ele><time>2026-04-19T09:53:47.98Z</time></trkpt><trkpt lat="44.3957467" lon="10.2169517"><ele>693.0</ele><time>2026-04-19T09:53:48.98Z</time></trkpt><trkpt lat="44.39562" lon="10.2169783"><ele>693.0</ele><time>2026-04-19T09:53:49.981Z</time></trkpt><trkpt lat="44.395495" lon="10.217005"><ele>693.0</ele><time>2026-04-19T09:53:50.98Z</time></trkpt><trkpt lat="44.39538" lon="10.2170483"><ele>693.25</ele><time>2026-04-19T09:53:51.98Z</time></trkpt><trkpt lat="44.3952633" lon="10.2171217"><ele>693.5</ele><time>2026-04-19T09:53:52.98Z</time></trkpt><trkpt lat="44.3951533" lon="10.2172217"><ele>693.75</ele><time>2026-04-19T09:53:53.98Z</time></trkpt><trkpt lat="44.3950817" lon="10.2173733"><ele>694.0</ele><time>2026-04-19T09:53:54.98Z</time></trkpt><trkpt lat="44.3950167" lon="10.2175533"><ele>694.0</ele><time>2026-04-19T09:53:55.98Z</time></trkpt><trkpt lat="44.3949483" lon="10.2177483"><ele>694.0</ele><time>2026-04-19T09:53:56.98Z</time></trkpt><trkpt lat="44.3948767" lon="10.2179583"><ele>694.0</ele><time>2026-04-19T09:53:57.98Z</time></trkpt><trkpt lat="44.394815" lon="10.21817"><ele>697.75</ele><time>2026-04-19T09:53:58.98Z</time></trkpt><trkpt lat="44.3947483" lon="10.2183633"><ele>701.5</ele><time>2026-04-19T09:53:59.98Z</time></trkpt><trkpt lat="44.3946767" lon="10.2185383"><ele>705.25</ele><time>2026-04-19T09:54:00.98Z</time></trkpt><trkpt lat="44.3946083" lon="10.218715"><ele>709.0</ele><time>2026-04-19T09:54:01.98Z</time></trkpt><trkpt lat="44.394535" lon="10.2188733"><ele>702.0</ele><time>2026-04-19T09:54:02.98Z</time></trkpt><trkpt lat="44.3944383" lon="10.2190367"><ele>695.0</ele><time>2026-04-19T09:54:03.98Z</time></trkpt><trkpt lat="44.39431" lon="10.2191783"><ele>688.0</ele><time>2026-04-19T09:54:04.98Z</time></trkpt><trkpt lat="44.39416" lon="10.219305"><ele>688.0</ele><time>2026-04-19T09:54:05.98Z</time></trkpt><trkpt lat="44.39401" lon="10.21943"><ele>688.0</ele><time>2026-04-19T09:54:06.98Z</time></trkpt><trkpt lat="44.393865" lon="10.21955"><ele>688.0</ele><time>2026-04-19T09:54:07.98Z</time></trkpt><trkpt lat="44.3937317" lon="10.21967"><ele>681.3333333333334</ele><time>2026-04-19T09:54:08.98Z</time></trkpt><trkpt lat="44.3936117" lon="10.2198117"><ele>674.6666666666666</ele><time>2026-04-19T09:54:09.98Z</time></trkpt><trkpt lat="44.3935033" lon="10.2199867"><ele>668.0</ele><time>2026-04-19T09:54:10.98Z</time></trkpt><trkpt lat="44.3934133" lon="10.2201833"><ele>668.0</ele><time>2026-04-19T09:54:11.98Z</time></trkpt><trkpt lat="44.3933433" lon="10.2203833"><ele>668.0</ele><time>2026-04-19T09:54:12.98Z</time></trkpt><trkpt lat="44.3932717" lon="10.22057"><ele>668.0</ele><time>2026-04-19T09:54:13.98Z</time></trkpt><trkpt lat="44.39318" lon="10.220745"><ele>673.0</ele><time>2026-04-19T09:54:14.98Z</time></trkpt><trkpt lat="44.3930667" lon="10.2209117"><ele>678.0</ele><time>2026-04-19T09:54:15.98Z</time></trkpt><trkpt lat="44.3929383" lon="10.2210717"><ele>683.0</ele><time>2026-04-19T09:54:16.98Z</time></trkpt><trkpt lat="44.3928117" lon="10.2212267"><ele>676.6666666666666</ele><time>2026-04-19T09:54:17.98Z</time></trkpt><trkpt lat="44.3926967" lon="10.2214"><ele>670.3333333333334</ele><time>2026-04-19T09:54:18.98Z</time></trkpt><trkpt lat="44.3926033" lon="10.221575"><ele>664.0</ele><time>2026-04-19T09:54:19.98Z</time></trkpt><trkpt lat="44.39253" lon="10.2217433"><ele>664.0</ele><time>2026-04-19T09:54:20.98Z</time></trkpt><trkpt lat="44.3924583" lon="10.2218883"><ele>664.0</ele><time>2026-04-19T09:54:21.98Z</time></trkpt><trkpt lat="44.3923767" lon="10.222"><ele>664.0</ele><time>2026-04-19T09:54:22.98Z</time></trkpt><trkpt lat="44.392265" lon="10.222085"><ele>664.0</ele><time>2026-04-19T09:54:23.98Z</time></trkpt><trkpt lat="44.3921483" lon="10.2221283"><ele>658.3333333333334</ele><time>2026-04-19T09:54:24.98Z</time></trkpt><trkpt lat="44.3919967" lon="10.2221383"><ele>652.6666666666666</ele><time>2026-04-19T09:54:25.98Z</time></trkpt><trkpt lat="44.3918267" lon="10.2221567"><ele>647.0</ele><time>2026-04-19T09:54:26.98Z</time></trkpt><trkpt lat="44.3916567" lon="10.222175"><ele>647.0</ele><time>2026-04-19T09:54:27.98Z</time></trkpt><trkpt lat="44.3915" lon="10.2221983"><ele>647.0</ele><time>2026-04-19T09:54:28.98Z</time></trkpt><trkpt lat="44.3913467" lon="10.22225"><ele>647.0</ele><time>2026-04-19T09:54:29.98Z</time></trkpt><trkpt lat="44.391205" lon="10.222305"><ele>652.0</ele><time>2026-04-19T09:54:30.98Z</time></trkpt><trkpt lat="44.3910683" lon="10.2223567"><ele>657.0</ele><time>2026-04-19T09:54:31.98Z</time></trkpt><trkpt lat="44.3909483" lon="10.2223917"><ele>662.0</ele><time>2026-04-19T09:54:32.98Z</time></trkpt><trkpt lat="44.390825" lon="10.2224117"><ele>667.0</ele><time>2026-04-19T09:54:33.98Z</time></trkpt><trkpt lat="44.3907017" lon="10.222415"><ele>667.0</ele><time>2026-04-19T09:54:34.98Z</time></trkpt><trkpt lat="44.3905817" lon="10.2223983"><ele>667.0</ele><time>2026-04-19T09:54:35.98Z</time></trkpt><trkpt lat="44.390475" lon="10.2223433"><ele>667.0</ele><time>2026-04-19T09:54:36.98Z</time></trkpt><trkpt lat="44.3903917" lon="10.2222683"><ele>667.0</ele><time>2026-04-19T09:54:37.98Z</time></trkpt><trkpt lat="44.3903367" lon="10.2221417"><ele>667.0</ele><time>2026-04-19T09:54:38.98Z</time></trkpt><trkpt lat="44.39032" lon="10.22198"><ele>666.4000000000001</ele><time>2026-04-19T09:54:39.98Z</time></trkpt><trkpt lat="44.390315" lon="10.22181"><ele>665.8000000000001</ele><time>2026-04-19T09:54:40.98Z</time></trkpt><trkpt lat="44.390325" lon="10.221665"><ele>665.2</ele><time>2026-04-19T09:54:41.98Z</time></trkpt><trkpt lat="44.3903617" lon="10.2215383"><ele>664.6</ele><time>2026-04-19T09:54:42.98Z</time></trkpt><trkpt lat="44.3904267" lon="10.2214133"><ele>664.0</ele><time>2026-04-19T09:54:43.98Z</time></trkpt><trkpt lat="44.3905367" lon="10.2212983"><ele>664.0</ele><time>2026-04-19T09:54:44.98Z</time></trkpt><trkpt lat="44.39068" lon="10.2211917"><ele>664.0</ele><time>2026-04-19T09:54:45.98Z</time></trkpt><trkpt lat="44.3908333" lon="10.2210767"><ele>664.0</ele><time>2026-04-19T09:54:46.98Z</time></trkpt><trkpt lat="44.3909917" lon="10.220945"><ele>664.0</ele><time>2026-04-19T09:54:47.98Z</time></trkpt><trkpt lat="44.3911367" lon="10.2208183"><ele>664.0</ele><time>2026-04-19T09:54:48.98Z</time></trkpt><trkpt lat="44.39125" lon="10.2206833"><ele>664.0</ele><time>2026-04-19T09:54:49.98Z</time></trkpt><trkpt lat="44.3913483" lon="10.22055"><ele>659.75</ele><time>2026-04-19T09:54:50.981Z</time></trkpt><trkpt lat="44.3914433" lon="10.220405"><ele>655.5</ele><time>2026-04-19T09:54:51.98Z</time></trkpt><trkpt lat="44.3915217" lon="10.220275"><ele>651.25</ele><time>2026-04-19T09:54:52.98Z</time></trkpt><trkpt lat="44.3915783" lon="10.2201533"><ele>647.0</ele><time>2026-04-19T09:54:53.98Z</time></trkpt><trkpt lat="44.391605" lon="10.2200183"><ele>647.0</ele><time>2026-04-19T09:54:54.98Z</time></trkpt><trkpt lat="44.3915983" lon="10.2198917"><ele>647.0</ele><time>2026-04-19T09:54:55.98Z</time></trkpt><trkpt lat="44.391535" lon="10.2197833"><ele>647.0</ele><time>2026-04-19T09:54:56.98Z</time></trkpt><trkpt lat="44.391445" lon="10.219695"><ele>647.0</ele><time>2026-04-19T09:54:57.98Z</time></trkpt><trkpt lat="44.3913417" lon="10.2196117"><ele>647.0</ele><time>2026-04-19T09:54:58.98Z</time></trkpt><trkpt lat="44.39123" lon="10.2195383"><ele>652.2</ele><time>2026-04-19T09:54:59.98Z</time></trkpt><trkpt lat="44.391125" lon="10.2194767"><ele>657.4000000000001</ele><time>2026-04-19T09:55:00.98Z</time></trkpt><trkpt lat="44.3910417" lon="10.2194183"><ele>662.5999999999999</ele><time>2026-04-19T09:55:01.98Z</time></trkpt><trkpt lat="44.3909717" lon="10.2193483"><ele>667.8</ele><time>2026-04-19T09:55:02.98Z</time></trkpt><trkpt lat="44.390915" lon="10.219275"><ele>673.0</ele><time>2026-04-19T09:55:03.98Z</time></trkpt><trkpt lat="44.390905" lon="10.2191617"><ele>673.0</ele><time>2026-04-19T09:55:04.98Z</time></trkpt><trkpt lat="44.3909267" lon="10.2190317"><ele>673.0</ele><time>2026-04-19T09:55:05.98Z</time></trkpt><trkpt lat="44.3909817" lon="10.2189183"><ele>673.0</ele><time>2026-04-19T09:55:06.98Z</time></trkpt><trkpt lat="44.3910533" lon="10.21883"><ele>673.0</ele><time>2026-04-19T09:55:07.98Z</time></trkpt><trkpt lat="44.3911733" lon="10.2187617"><ele>673.0</ele><time>2026-04-19T09:55:08.98Z</time></trkpt><trkpt lat="44.391295" lon="10.2187183"><ele>670.5999999999999</ele><time>2026-04-19T09:55:09.98Z</time></trkpt><trkpt lat="44.3914167" lon="10.2186783"><ele>668.1999999999999</ele><time>2026-04-19T09:55:10.98Z</time></trkpt><trkpt lat="44.391515" lon="10.2186233"><ele>665.8</ele><time>2026-04-19T09:55:11.98Z</time></trkpt><trkpt lat="44.3915933" lon="10.21853"><ele>663.4</ele><time>2026-04-19T09:55:12.98Z</time></trkpt><trkpt lat="44.3916533" lon="10.2184117"><ele>661.0</ele><time>2026-04-19T09:55:13.98Z</time></trkpt><trkpt lat="44.3916917" lon="10.2182533"><ele>663.25</ele><time>2026-04-19T09:55:14.98Z</time></trkpt><trkpt lat="44.3917017" lon="10.2180817"><ele>665.5</ele><time>2026-04-19T09:55:15.98Z</time></trkpt><trkpt lat="44.3916983" lon="10.2178767"><ele>667.75</ele><time>2026-04-19T09:55:16.98Z</time></trkpt><trkpt lat="44.391685" lon="10.2176667"><ele>670.0</ele><time>2026-04-19T09:55:17.98Z</time></trkpt><trkpt lat="44.3916783" lon="10.2174667"><ele>672.5</ele><time>2026-04-19T09:55:18.98Z</time></trkpt><trkpt lat="44.39168" lon="10.2172833"><ele>675.0</ele><time>2026-04-19T09:55:19.98Z</time></trkpt><trkpt lat="44.3917033" lon="10.2170917"><ele>677.5</ele><time>2026-04-19T09:55:20.981Z</time></trkpt><trkpt lat="44.39173" lon="10.2168967"><ele>680.0</ele><time>2026-04-19T09:55:21.98Z</time></trkpt><trkpt lat="44.3917517" lon="10.216705"><ele>680.0</ele><time>2026-04-19T09:55:22.98Z</time></trkpt><trkpt lat="44.3917733" lon="10.2165283"><ele>680.0</ele><time>2026-04-19T09:55:23.98Z</time></trkpt><trkpt lat="44.39177" lon="10.2163617"><ele>680.0</ele><time>2026-04-19T09:55:24.98Z</time></trkpt><trkpt lat="44.3917717" lon="10.216205"><ele>680.0</ele><time>2026-04-19T09:55:25.98Z</time></trkpt><trkpt lat="44.3917933" lon="10.2160667"><ele>684.5</ele><time>2026-04-19T09:55:26.98Z</time></trkpt><trkpt lat="44.3918483" lon="10.2159283"><ele>689.0</ele><time>2026-04-19T09:55:27.98Z</time></trkpt><trkpt lat="44.3919283" lon="10.21579"><ele>693.5</ele><time>2026-04-19T09:55:28.98Z</time></trkpt><trkpt lat="44.3920383" lon="10.215645"><ele>698.0</ele><time>2026-04-19T09:55:29.98Z</time></trkpt><trkpt lat="44.392165" lon="10.2155017"><ele>695.6666666666666</ele><time>2026-04-19T09:55:30.98Z</time></trkpt><trkpt lat="44.3923" lon="10.2153883"><ele>693.3333333333334</ele><time>2026-04-19T09:55:31.98Z</time></trkpt><trkpt lat="44.39245" lon="10.2153083"><ele>691.0</ele><time>2026-04-19T09:55:32.98Z</time></trkpt><trkpt lat="44.3926133" lon="10.215245"><ele>691.0</ele><time>2026-04-19T09:55:33.98Z</time></trkpt><trkpt lat="44.3927633" lon="10.2151917"><ele>691.0</ele><time>2026-04-19T09:55:34.98Z</time></trkpt><trkpt lat="44.3928983" lon="10.215145"><ele>691.0</ele><time>2026-04-19T09:55:35.98Z</time></trkpt><trkpt lat="44.393025" lon="10.2150917"><ele>691.0</ele><time>2026-04-19T09:55:36.98Z</time></trkpt><trkpt lat="44.3931517" lon="10.2150417"><ele>692.1999999999999</ele><time>2026-04-19T09:55:37.98Z</time></trkpt><trkpt lat="44.393275" lon="10.2149983"><ele>693.4</ele><time>2026-04-19T09:55:38.98Z</time></trkpt><trkpt lat="44.3933767" lon="10.2149517"><ele>694.6</ele><time>2026-04-19T09:55:39.98Z</time></trkpt><trkpt lat="44.393465" lon="10.2148833"><ele>695.8</ele><time>2026-04-19T09:55:40.98Z</time></trkpt><trkpt lat="44.393545" lon="10.21477"><ele>697.0</ele><time>2026-04-19T09:55:41.98Z</time></trkpt><trkpt lat="44.3935983" lon="10.21463"><ele>697.0</ele><time>2026-04-19T09:55:42.98Z</time></trkpt><trkpt lat="44.3936317" lon="10.2144767"><ele>697.0</ele><time>2026-04-19T09:55:43.98Z</time></trkpt><trkpt lat="44.393665" lon="10.214295"><ele>697.0</ele><time>2026-04-19T09:55:44.98Z</time></trkpt><trkpt lat="44.39372" lon="10.21413"><ele>697.0</ele><time>2026-04-19T09:55:45.98Z</time></trkpt><trkpt lat="44.3938017" lon="10.2139833"><ele>697.5</ele><time>2026-04-19T09:55:46.98Z</time></trkpt><trkpt lat="44.3938983" lon="10.213865"><ele>698.0</ele><time>2026-04-19T09:55:47.98Z</time></trkpt><trkpt lat="44.3940067" lon="10.2137717"><ele>698.5</ele><time>2026-04-19T09:55:48.98Z</time></trkpt><trkpt lat="44.3941333" lon="10.2136917"><ele>699.0</ele><time>2026-04-19T09:55:49.98Z</time></trkpt><trkpt lat="44.3942633" lon="10.2136067"><ele>699.0</ele><time>2026-04-19T09:55:50.98Z</time></trkpt><trkpt lat="44.3943917" lon="10.21353"><ele>699.0</ele><time>2026-04-19T09:55:51.98Z</time></trkpt><trkpt lat="44.39452" lon="10.21345"><ele>699.0</ele><time>2026-04-19T09:55:52.981Z</time></trkpt><trkpt lat="44.39464" lon="10.2133767"><ele>699.0</ele><time>2026-04-19T09:55:53.98Z</time></trkpt><trkpt lat="44.39475" lon="10.2133083"><ele>698.0</ele><time>2026-04-19T09:55:54.98Z</time></trkpt><trkpt lat="44.3948567" lon="10.2132033"><ele>697.0</ele><time>2026-04-19T09:55:55.98Z</time></trkpt><trkpt lat="44.3949483" lon="10.21307"><ele>696.0</ele><time>2026-04-19T09:55:56.98Z</time></trkpt><trkpt lat="44.3950317" lon="10.2129367"><ele>695.0</ele><time>2026-04-19T09:55:57.98Z</time></trkpt><trkpt lat="44.3950967" lon="10.2127833"><ele>695.0</ele><time>2026-04-19T09:55:58.98Z</time></trkpt><trkpt lat="44.39513" lon="10.2126433"><ele>695.0</ele><time>2026-04-19T09:55:59.98Z</time></trkpt><trkpt lat="44.3951383" lon="10.2125183"><ele>695.0</ele><time>2026-04-19T09:56:00.98Z</time></trkpt><trkpt lat="44.3951017" lon="10.2124"><ele>695.0</ele><time>2026-04-19T09:56:01.98Z</time></trkpt><trkpt lat="44.3950217" lon="10.2122817"><ele>695.0</ele><time>2026-04-19T09:56:02.98Z</time></trkpt><trkpt lat="44.3949117" lon="10.2121883"><ele>690.25</ele><time>2026-04-19T09:56:03.98Z</time></trkpt><trkpt lat="44.394785" lon="10.21213"><ele>685.5</ele><time>2026-04-19T09:56:04.98Z</time></trkpt><trkpt lat="44.3946533" lon="10.2121217"><ele>680.75</ele><time>2026-04-19T09:56:05.98Z</time></trkpt><trkpt lat="44.3945183" lon="10.2121517"><ele>676.0</ele><time>2026-04-19T09:56:06.98Z</time></trkpt><trkpt lat="44.3943867" lon="10.212245"><ele>681.5</ele><time>2026-04-19T09:56:07.98Z</time></trkpt><trkpt lat="44.39427" lon="10.21239"><ele>687.0</ele><time>2026-04-19T09:56:08.98Z</time></trkpt><trkpt lat="44.3941583" lon="10.21253"><ele>692.5</ele><time>2026-04-19T09:56:09.98Z</time></trkpt><trkpt lat="44.394045" lon="10.2126267"><ele>698.0</ele><time>2026-04-19T09:56:10.98Z</time></trkpt><trkpt lat="44.3939317" lon="10.2126817"><ele>698.25</ele><time>2026-04-19T09:56:11.98Z</time></trkpt><trkpt lat="44.3938183" lon="10.21267"><ele>698.5</ele><time>2026-04-19T09:56:12.98Z</time></trkpt><trkpt lat="44.3936867" lon="10.2125617"><ele>698.75</ele><time>2026-04-19T09:56:13.98Z</time></trkpt><trkpt lat="44.393575" lon="10.2124517"><ele>699.0</ele><time>2026-04-19T09:56:14.98Z</time></trkpt><trkpt lat="44.393475" lon="10.2123767"><ele>699.0</ele><time>2026-04-19T09:56:15.98Z</time></trkpt><trkpt lat="44.3933533" lon="10.2123517"><ele>699.0</ele><time>2026-04-19T09:56:16.98Z</time></trkpt><trkpt lat="44.3932167" lon="10.21235"><ele>699.0</ele><time>2026-04-19T09:56:17.98Z</time></trkpt><trkpt lat="44.393065" lon="10.2123733"><ele>699.0</ele><time>2026-04-19T09:56:18.98Z</time></trkpt><trkpt lat="44.3929133" lon="10.212415"><ele>698.5</ele><time>2026-04-19T09:56:19.98Z</time></trkpt><trkpt lat="44.392765" lon="10.21246"><ele>698.0</ele><time>2026-04-19T09:56:20.98Z</time></trkpt><trkpt lat="44.39263" lon="10.21249"><ele>697.5</ele><time>2026-04-19T09:56:21.98Z</time></trkpt><trkpt lat="44.3924983" lon="10.2125133"><ele>697.0</ele><time>2026-04-19T09:56:22.98Z</time></trkpt><trkpt lat="44.3923733" lon="10.2125033"><ele>697.0</ele><time>2026-04-19T09:56:23.98Z</time></trkpt><trkpt lat="44.3922433" lon="10.21246"><ele>697.0</ele><time>2026-04-19T09:56:24.98Z</time></trkpt><trkpt lat="44.3921067" lon="10.2123933"><ele>697.0</ele><time>2026-04-19T09:56:25.98Z</time></trkpt><trkpt lat="44.3919667" lon="10.2123233"><ele>697.0</ele><time>2026-04-19T09:56:26.98Z</time></trkpt><trkpt lat="44.3918317" lon="10.2122333"><ele>693.5</ele><time>2026-04-19T09:56:27.98Z</time></trkpt><trkpt lat="44.3917067" lon="10.2121583"><ele>690.0</ele><time>2026-04-19T09:56:28.98Z</time></trkpt><trkpt lat="44.3915817" lon="10.2120767"><ele>686.5</ele><time>2026-04-19T09:56:29.98Z</time></trkpt><trkpt lat="44.3914717" lon="10.2119867"><ele>683.0</ele><time>2026-04-19T09:56:30.98Z</time></trkpt><trkpt lat="44.3913567" lon="10.211925"><ele>684.75</ele><time>2026-04-19T09:56:31.98Z</time></trkpt><trkpt lat="44.391235" lon="10.2118867"><ele>686.5</ele><time>2026-04-19T09:56:32.98Z</time></trkpt><trkpt lat="44.3910967" lon="10.2118833"><ele>688.25</ele><time>2026-04-19T09:56:33.98Z</time></trkpt><trkpt lat="44.3909483" lon="10.2118867"><ele>690.0</ele><time>2026-04-19T09:56:34.98Z</time></trkpt><trkpt lat="44.3908033" lon="10.21188"><ele>690.0</ele><time>2026-04-19T09:56:35.98Z</time></trkpt><trkpt lat="44.3906667" lon="10.211865"><ele>690.0</ele><time>2026-04-19T09:56:36.98Z</time></trkpt><trkpt lat="44.3905367" lon="10.2118017"><ele>690.0</ele><time>2026-04-19T09:56:37.98Z</time></trkpt><trkpt lat="44.390435" lon="10.2116783"><ele>690.0</ele><time>2026-04-19T09:56:38.98Z</time></trkpt><trkpt lat="44.390365" lon="10.2115233"><ele>690.0</ele><time>2026-04-19T09:56:39.98Z</time></trkpt><trkpt lat="44.3902917" lon="10.211345"><ele>690.0</ele><time>2026-04-19T09:56:40.98Z</time></trkpt><trkpt lat="44.39022" lon="10.2111633"><ele>690.0</ele><time>2026-04-19T09:56:41.98Z</time></trkpt><trkpt lat="44.3901417" lon="10.2110083"><ele>690.0</ele><time>2026-04-19T09:56:42.98Z</time></trkpt><trkpt lat="44.3900383" lon="10.2108733"><ele>690.0</ele><time>2026-04-19T09:56:43.98Z</time></trkpt><trkpt lat="44.38992" lon="10.2107717"><ele>690.0</ele><time>2026-04-19T09:56:44.981Z</time></trkpt><trkpt lat="44.389785" lon="10.2107117"><ele>690.0</ele><time>2026-04-19T09:56:45.98Z</time></trkpt><trkpt lat="44.38965" lon="10.2106883"><ele>690.0</ele><time>2026-04-19T09:56:46.98Z</time></trkpt><trkpt lat="44.3895233" lon="10.2106917"><ele>690.6</ele><time>2026-04-19T09:56:47.98Z</time></trkpt><trkpt lat="44.3894083" lon="10.210715"><ele>691.2</ele><time>2026-04-19T09:56:48.981Z</time></trkpt><trkpt lat="44.3893067" lon="10.2107533"><ele>691.8</ele><time>2026-04-19T09:56:49.98Z</time></trkpt><trkpt lat="44.3891967" lon="10.2107533"><ele>692.4</ele><time>2026-04-19T09:56:50.98Z</time></trkpt><trkpt lat="44.389095" lon="10.2106833"><ele>693.0</ele><time>2026-04-19T09:56:51.98Z</time></trkpt><trkpt lat="44.3890183" lon="10.210565"><ele>693.0</ele><time>2026-04-19T09:56:52.98Z</time></trkpt><trkpt lat="44.388965" lon="10.2104383"><ele>693.0</ele><time>2026-04-19T09:56:53.98Z</time></trkpt><trkpt lat="44.3889533" lon="10.21028"><ele>693.0</ele><time>2026-04-19T09:56:54.98Z</time></trkpt><trkpt lat="44.3889567" lon="10.2101133"><ele>693.0</ele><time>2026-04-19T09:56:55.98Z</time></trkpt><trkpt lat="44.388985" lon="10.2099267"><ele>694.6666666666666</ele><time>2026-04-19T09:56:56.98Z</time></trkpt><trkpt lat="44.3890017" lon="10.2097133"><ele>696.3333333333333</ele><time>2026-04-19T09:56:57.98Z</time></trkpt><trkpt lat="44.38902" lon="10.2094867"><ele>698.0</ele><time>2026-04-19T09:56:58.98Z</time></trkpt><trkpt lat="44.38904" lon="10.20925"><ele>698.0</ele><time>2026-04-19T09:56:59.98Z</time></trkpt><trkpt lat="44.3890683" lon="10.2090167"><ele>698.0</ele><time>2026-04-19T09:57:00.98Z</time></trkpt><trkpt lat="44.38909" lon="10.2087867"><ele>698.0</ele><time>2026-04-19T09:57:01.98Z</time></trkpt><trkpt lat="44.389135" lon="10.2085433"><ele>700.6666666666666</ele><time>2026-04-19T09:57:02.98Z</time></trkpt><trkpt lat="44.3891967" lon="10.2082783"><ele>703.3333333333334</ele><time>2026-04-19T09:57:03.98Z</time></trkpt><trkpt lat="44.3892667" lon="10.2080117"><ele>706.0</ele><time>2026-04-19T09:57:04.98Z</time></trkpt><trkpt lat="44.3893367" lon="10.207755"><ele>711.0</ele><time>2026-04-19T09:57:05.98Z</time></trkpt><trkpt lat="44.3893883" lon="10.20752"><ele>716.0</ele><time>2026-04-19T09:57:06.98Z</time></trkpt><trkpt lat="44.38943" lon="10.2072967"><ele>721.0</ele><time>2026-04-19T09:57:07.98Z</time></trkpt><trkpt lat="44.38946" lon="10.207075"><ele>722.0</ele><time>2026-04-19T09:57:08.98Z</time></trkpt><trkpt lat="44.389475" lon="10.206855"><ele>723.0</ele><time>2026-04-19T09:57:09.98Z</time></trkpt><trkpt lat="44.38948" lon="10.2066283"><ele>724.0</ele><time>2026-04-19T09:57:10.98Z</time></trkpt><trkpt lat="44.3894833" lon="10.2063883"><ele>724.0</ele><time>2026-04-19T09:57:11.98Z</time></trkpt><trkpt lat="44.3894767" lon="10.2061433"><ele>724.0</ele><time>2026-04-19T09:57:12.98Z</time></trkpt><trkpt lat="44.38946" lon="10.2059017"><ele>724.0</ele><time>2026-04-19T09:57:13.98Z</time></trkpt><trkpt lat="44.38944" lon="10.2056533"><ele>722.6666666666667</ele><time>2026-04-19T09:57:14.98Z</time></trkpt><trkpt lat="44.3894167" lon="10.2054"><ele>721.3333333333334</ele><time>2026-04-19T09:57:15.98Z</time></trkpt><trkpt lat="44.3893833" lon="10.2051633"><ele>720.0</ele><time>2026-04-19T09:57:16.98Z</time></trkpt><trkpt lat="44.3893467" lon="10.2049517"><ele>719.0</ele><time>2026-04-19T09:57:17.98Z</time></trkpt><trkpt lat="44.3893183" lon="10.204755"><ele>718.0</ele><time>2026-04-19T09:57:18.98Z</time></trkpt><trkpt lat="44.3892833" lon="10.2045833"><ele>717.0</ele><time>2026-04-19T09:57:19.98Z</time></trkpt><trkpt lat="44.389215" lon="10.2044383"><ele>716.0</ele><time>2026-04-19T09:57:20.98Z</time></trkpt><trkpt lat="44.3891233" lon="10.2043167"><ele>716.0</ele><time>2026-04-19T09:57:21.98Z</time></trkpt><trkpt lat="44.3890183" lon="10.20423"><ele>716.0</ele><time>2026-04-19T09:57:22.98Z</time></trkpt><trkpt lat="44.3889133" lon="10.2041383"><ele>716.0</ele><time>2026-04-19T09:57:23.98Z</time></trkpt><trkpt lat="44.388825" lon="10.2040133"><ele>716.0</ele><time>2026-04-19T09:57:24.98Z</time></trkpt><trkpt lat="44.3887583" lon="10.2038333"><ele>717.3333333333333</ele><time>2026-04-19T09:57:25.98Z</time></trkpt><trkpt lat="44.3887117" lon="10.2036167"><ele>718.6666666666666</ele><time>2026-04-19T09:57:26.98Z</time></trkpt><trkpt lat="44.388665" lon="10.203365"><ele>720.0</ele><time>2026-04-19T09:57:27.98Z</time></trkpt><trkpt lat="44.388645" lon="10.2030833"><ele>721.3333333333334</ele><time>2026-04-19T09:57:28.98Z</time></trkpt><trkpt lat="44.3886117" lon="10.2028033"><ele>722.6666666666667</ele><time>2026-04-19T09:57:29.98Z</time></trkpt><trkpt lat="44.3885733" lon="10.202535"><ele>724.0</ele><time>2026-04-19T09:57:30.98Z</time></trkpt><trkpt lat="44.38854" lon="10.2022933"><ele>725.6666666666667</ele><time>2026-04-19T09:57:31.98Z</time></trkpt><trkpt lat="44.3885083" lon="10.2020717"><ele>727.3333333333334</ele><time>2026-04-19T09:57:32.98Z</time></trkpt><trkpt lat="44.3884733" lon="10.2018633"><ele>729.0</ele><time>2026-04-19T09:57:33.98Z</time></trkpt><trkpt lat="44.388435" lon="10.2016417"><ele>729.0</ele><time>2026-04-19T09:57:34.981Z</time></trkpt><trkpt lat="44.3883667" lon="10.2014333"><ele>729.0</ele><time>2026-04-19T09:57:35.98Z</time></trkpt><trkpt lat="44.3882583" lon="10.20125"><ele>729.0</ele><time>2026-04-19T09:57:36.98Z</time></trkpt><trkpt lat="44.388135" lon="10.2010783"><ele>729.0</ele><time>2026-04-19T09:57:37.98Z</time></trkpt><trkpt lat="44.3880133" lon="10.2009083"><ele>729.0</ele><time>2026-04-19T09:57:38.98Z</time></trkpt><trkpt lat="44.3879033" lon="10.2007283"><ele>729.0</ele><time>2026-04-19T09:57:39.98Z</time></trkpt><trkpt lat="44.38781" lon="10.200525"><ele>730.6666666666666</ele><time>2026-04-19T09:57:40.98Z</time></trkpt><trkpt lat="44.3877217" lon="10.2003083"><ele>732.3333333333333</ele><time>2026-04-19T09:57:41.981Z</time></trkpt><trkpt lat="44.3876417" lon="10.2000733"><ele>734.0</ele><time>2026-04-19T09:57:42.98Z</time></trkpt><trkpt lat="44.38757" lon="10.199845"><ele>735.0</ele><time>2026-04-19T09:57:43.98Z</time></trkpt><trkpt lat="44.387495" lon="10.199625"><ele>736.0</ele><time>2026-04-19T09:57:44.98Z</time></trkpt><trkpt lat="44.38744" lon="10.1994217"><ele>737.0</ele><time>2026-04-19T09:57:45.98Z</time></trkpt><trkpt lat="44.3874317" lon="10.19921"><ele>740.6666666666666</ele><time>2026-04-19T09:57:46.98Z</time></trkpt><trkpt lat="44.38746" lon="10.1989967"><ele>744.3333333333334</ele><time>2026-04-19T09:57:47.98Z</time></trkpt><trkpt lat="44.3875283" lon="10.198765"><ele>748.0</ele><time>2026-04-19T09:57:48.98Z</time></trkpt><trkpt lat="44.387615" lon="10.1985183"><ele>748.0</ele><time>2026-04-19T09:57:49.98Z</time></trkpt><trkpt lat="44.3876867" lon="10.198265"><ele>748.0</ele><time>2026-04-19T09:57:50.98Z</time></trkpt><trkpt lat="44.3877483" lon="10.1980183"><ele>748.0</ele><time>2026-04-19T09:57:51.98Z</time></trkpt><trkpt lat="44.38779" lon="10.19781"><ele>749.5</ele><time>2026-04-19T09:57:52.98Z</time></trkpt><trkpt lat="44.3878217" lon="10.19762"><ele>751.0</ele><time>2026-04-19T09:57:53.98Z</time></trkpt><trkpt lat="44.3878333" lon="10.1974517"><ele>752.5</ele><time>2026-04-19T09:57:54.98Z</time></trkpt><trkpt lat="44.3878017" lon="10.1972933"><ele>754.0</ele><time>2026-04-19T09:57:55.98Z</time></trkpt><trkpt lat="44.3877433" lon="10.1971633"><ele>750.0</ele><time>2026-04-19T09:57:56.98Z</time></trkpt><trkpt lat="44.3876567" lon="10.1970533"><ele>746.0</ele><time>2026-04-19T09:57:57.98Z</time></trkpt><trkpt lat="44.3875383" lon="10.196955"><ele>742.0</ele><time>2026-04-19T09:57:58.98Z</time></trkpt><trkpt lat="44.3874083" lon="10.1968383"><ele>738.0</ele><time>2026-04-19T09:57:59.98Z</time></trkpt><trkpt lat="44.3872833" lon="10.1966883"><ele>737.6666666666666</ele><time>2026-04-19T09:58:00.98Z</time></trkpt><trkpt lat="44.387165" lon="10.1965317"><ele>737.3333333333333</ele><time>2026-04-19T09:58:01.98Z</time></trkpt><trkpt lat="44.3870517" lon="10.196395"><ele>737.0</ele><time>2026-04-19T09:58:02.98Z</time></trkpt><trkpt lat="44.386925" lon="10.1962967"><ele>737.0</ele><time>2026-04-19T09:58:03.98Z</time></trkpt><trkpt lat="44.3867817" lon="10.1962433"><ele>737.0</ele><time>2026-04-19T09:58:04.98Z</time></trkpt><trkpt lat="44.38662" lon="10.1962067"><ele>737.0</ele><time>2026-04-19T09:58:05.98Z</time></trkpt><trkpt lat="44.3864367" lon="10.1961567"><ele>746.6666666666666</ele><time>2026-04-19T09:58:06.98Z</time></trkpt><trkpt lat="44.38627" lon="10.19608"><ele>756.3333333333334</ele><time>2026-04-19T09:58:07.98Z</time></trkpt><trkpt lat="44.3860967" lon="10.1959767"><ele>766.0</ele><time>2026-04-19T09:58:08.98Z</time></trkpt><trkpt lat="44.3859133" lon="10.1958667"><ele>766.0</ele><time>2026-04-19T09:58:09.98Z</time></trkpt><trkpt lat="44.385725" lon="10.195745"><ele>766.0</ele><time>2026-04-19T09:58:10.98Z</time></trkpt><trkpt lat="44.3855467" lon="10.1956333"><ele>766.0</ele><time>2026-04-19T09:58:11.98Z</time></trkpt><trkpt lat="44.3853817" lon="10.1955267"><ele>764.0</ele><time>2026-04-19T09:58:12.98Z</time></trkpt><trkpt lat="44.385245" lon="10.1954133"><ele>762.0</ele><time>2026-04-19T09:58:13.98Z</time></trkpt><trkpt lat="44.3851233" lon="10.195315"><ele>760.0</ele><time>2026-04-19T09:58:14.98Z</time></trkpt><trkpt lat="44.3850117" lon="10.1952217"><ele>758.0</ele><time>2026-04-19T09:58:15.98Z</time></trkpt><trkpt lat="44.3848883" lon="10.1951517"><ele>758.0</ele><time>2026-04-19T09:58:16.98Z</time></trkpt><trkpt lat="44.3847517" lon="10.19509"><ele>758.0</ele><time>2026-04-19T09:58:17.98Z</time></trkpt><trkpt lat="44.3846217" lon="10.19503"><ele>758.0</ele><time>2026-04-19T09:58:18.98Z</time></trkpt><trkpt lat="44.38449" lon="10.1949433"><ele>758.0</ele><time>2026-04-19T09:58:19.98Z</time></trkpt><trkpt lat="44.384365" lon="10.1948483"><ele>761.6666666666666</ele><time>2026-04-19T09:58:20.981Z</time></trkpt><trkpt lat="44.3842683" lon="10.19472"><ele>765.3333333333333</ele><time>2026-04-19T09:58:21.98Z</time></trkpt><trkpt lat="44.38416" lon="10.1945617"><ele>769.0</ele><time>2026-04-19T09:58:22.981Z</time></trkpt><trkpt lat="44.3840783" lon="10.194355"><ele>769.0</ele><time>2026-04-19T09:58:23.98Z</time></trkpt><trkpt lat="44.3840033" lon="10.1941283"><ele>769.0</ele><time>2026-04-19T09:58:24.98Z</time></trkpt><trkpt lat="44.3839333" lon="10.193865"><ele>769.0</ele><time>2026-04-19T09:58:25.98Z</time></trkpt><trkpt lat="44.3838717" lon="10.1935717"><ele>775.0</ele><time>2026-04-19T09:58:26.98Z</time></trkpt><trkpt lat="44.3837967" lon="10.19332"><ele>781.0</ele><time>2026-04-19T09:58:27.981Z</time></trkpt><trkpt lat="44.3837367" lon="10.1930717"><ele>787.0</ele><time>2026-04-19T09:58:28.98Z</time></trkpt><trkpt lat="44.3836933" lon="10.1928083"><ele>787.0</ele><time>2026-04-19T09:58:29.98Z</time></trkpt><trkpt lat="44.3836683" lon="10.19252"><ele>787.0</ele><time>2026-04-19T09:58:30.98Z</time></trkpt><trkpt lat="44.3836483" lon="10.1922133"><ele>787.0</ele><time>2026-04-19T09:58:31.98Z</time></trkpt><trkpt lat="44.3836267" lon="10.1919133"><ele>786.0</ele><time>2026-04-19T09:58:32.98Z</time></trkpt><trkpt lat="44.3835983" lon="10.19164"><ele>785.0</ele><time>2026-04-19T09:58:33.98Z</time></trkpt><trkpt lat="44.3835617" lon="10.1913867"><ele>784.0</ele><time>2026-04-19T09:58:34.98Z</time></trkpt><trkpt lat="44.3835333" lon="10.191155"><ele>783.3333333333333</ele><time>2026-04-19T09:58:35.98Z</time></trkpt><trkpt lat="44.3835067" lon="10.1909383"><ele>782.6666666666667</ele><time>2026-04-19T09:58:36.98Z</time></trkpt><trkpt lat="44.3834467" lon="10.1907333"><ele>782.0</ele><time>2026-04-19T09:58:37.98Z</time></trkpt><trkpt lat="44.3833633" lon="10.1905417"><ele>780.0</ele><time>2026-04-19T09:58:38.98Z</time></trkpt><trkpt lat="44.3832517" lon="10.190365"><ele>778.0</ele><time>2026-04-19T09:58:39.98Z</time></trkpt><trkpt lat="44.3831317" lon="10.190185"><ele>776.0</ele><time>2026-04-19T09:58:40.98Z</time></trkpt><trkpt lat="44.3830167" lon="10.1899833"><ele>782.0</ele><time>2026-04-19T09:58:41.981Z</time></trkpt><trkpt lat="44.3829383" lon="10.18976"><ele>788.0</ele><time>2026-04-19T09:58:42.98Z</time></trkpt><trkpt lat="44.3829033" lon="10.1895283"><ele>794.0</ele><time>2026-04-19T09:58:43.98Z</time></trkpt><trkpt lat="44.3828917" lon="10.1892917"><ele>794.0</ele><time>2026-04-19T09:58:44.98Z</time></trkpt><trkpt lat="44.382905" lon="10.1890633"><ele>794.0</ele><time>2026-04-19T09:58:45.98Z</time></trkpt><trkpt lat="44.3829117" lon="10.1888433"><ele>794.0</ele><time>2026-04-19T09:58:46.98Z</time></trkpt><trkpt lat="44.3829133" lon="10.1886533"><ele>792.75</ele><time>2026-04-19T09:58:47.98Z</time></trkpt><trkpt lat="44.382905" lon="10.188475"><ele>791.5</ele><time>2026-04-19T09:58:48.98Z</time></trkpt><trkpt lat="44.3829" lon="10.188315"><ele>790.25</ele><time>2026-04-19T09:58:49.98Z</time></trkpt><trkpt lat="44.3828617" lon="10.1881783"><ele>789.0</ele><time>2026-04-19T09:58:50.98Z</time></trkpt><trkpt lat="44.3827867" lon="10.188055"><ele>784.25</ele><time>2026-04-19T09:58:51.98Z</time></trkpt><trkpt lat="44.3827017" lon="10.187965"><ele>779.5</ele><time>2026-04-19T09:58:52.98Z</time></trkpt><trkpt lat="44.3826033" lon="10.1879217"><ele>774.75</ele><time>2026-04-19T09:58:53.98Z</time></trkpt><trkpt lat="44.38248" lon="10.1879217"><ele>770.0</ele><time>2026-04-19T09:58:54.98Z</time></trkpt><trkpt lat="44.3823367" lon="10.1879633"><ele>767.0</ele><time>2026-04-19T09:58:55.98Z</time></trkpt><trkpt lat="44.3821733" lon="10.18803"><ele>764.0</ele><time>2026-04-19T09:58:56.98Z</time></trkpt><trkpt lat="44.382" lon="10.1881"><ele>761.0</ele><time>2026-04-19T09:58:57.98Z</time></trkpt><trkpt lat="44.381845" lon="10.1881483"><ele>766.25</ele><time>2026-04-19T09:58:58.98Z</time></trkpt><trkpt lat="44.3817033" lon="10.1882033"><ele>771.5</ele><time>2026-04-19T09:58:59.98Z</time></trkpt><trkpt lat="44.3815767" lon="10.1882617"><ele>776.75</ele><time>2026-04-19T09:59:00.98Z</time></trkpt><trkpt lat="44.3814583" lon="10.1883183"><ele>782.0</ele><time>2026-04-19T09:59:01.98Z</time></trkpt><trkpt lat="44.3813517" lon="10.188375"><ele>779.0</ele><time>2026-04-19T09:59:02.98Z</time></trkpt><trkpt lat="44.381245" lon="10.1884317"><ele>776.0</ele><time>2026-04-19T09:59:03.98Z</time></trkpt><trkpt lat="44.3811367" lon="10.1884817"><ele>773.0</ele><time>2026-04-19T09:59:04.98Z</time></trkpt><trkpt lat="44.3810283" lon="10.1885317"><ele>770.0</ele><time>2026-04-19T09:59:05.98Z</time></trkpt><trkpt lat="44.380925" lon="10.1885783"><ele>770.0</ele><time>2026-04-19T09:59:06.98Z</time></trkpt><trkpt lat="44.38083" lon="10.18863"><ele>770.0</ele><time>2026-04-19T09:59:07.98Z</time></trkpt><trkpt lat="44.3807283" lon="10.1886817"><ele>770.0</ele><time>2026-04-19T09:59:08.981Z</time></trkpt><trkpt lat="44.3806217" lon="10.1887333"><ele>770.0</ele><time>2026-04-19T09:59:09.98Z</time></trkpt><trkpt lat="44.380515" lon="10.1887867"><ele>770.0</ele><time>2026-04-19T09:59:10.98Z</time></trkpt><trkpt lat="44.3804183" lon="10.188845"><ele>771.4</ele><time>2026-04-19T09:59:11.98Z</time></trkpt><trkpt lat="44.3803367" lon="10.1889067"><ele>772.8</ele><time>2026-04-19T09:59:12.98Z</time></trkpt><trkpt lat="44.380255" lon="10.1889633"><ele>774.2</ele><time>2026-04-19T09:59:13.98Z</time></trkpt><trkpt lat="44.380175" lon="10.1890167"><ele>775.6</ele><time>2026-04-19T09:59:14.98Z</time></trkpt><trkpt lat="44.3800767" lon="10.1890783"><ele>777.0</ele><time>2026-04-19T09:59:15.98Z</time></trkpt><trkpt lat="44.3799717" lon="10.1891617"><ele>777.0</ele><time>2026-04-19T09:59:16.98Z</time></trkpt><trkpt lat="44.3798733" lon="10.1892567"><ele>777.0</ele><time>2026-04-19T09:59:17.98Z</time></trkpt><trkpt lat="44.3797717" lon="10.1893767"><ele>777.0</ele><time>2026-04-19T09:59:18.98Z</time></trkpt><trkpt lat="44.3796733" lon="10.1895283"><ele>777.0</ele><time>2026-04-19T09:59:19.98Z</time></trkpt><trkpt lat="44.37959" lon="10.1897183"><ele>773.6666666666666</ele><time>2026-04-19T09:59:20.98Z</time></trkpt><trkpt lat="44.3795133" lon="10.1899083"><ele>770.3333333333333</ele><time>2026-04-19T09:59:21.98Z</time></trkpt><trkpt lat="44.3794383" lon="10.19009"><ele>767.0</ele><time>2026-04-19T09:59:22.98Z</time></trkpt><trkpt lat="44.37934" lon="10.190255"><ele>767.0</ele><time>2026-04-19T09:59:23.98Z</time></trkpt><trkpt lat="44.379235" lon="10.1903933"><ele>767.0</ele><time>2026-04-19T09:59:24.981Z</time></trkpt><trkpt lat="44.379135" lon="10.1905183"><ele>767.0</ele><time>2026-04-19T09:59:25.98Z</time></trkpt><trkpt lat="44.3790433" lon="10.190625"><ele>767.0</ele><time>2026-04-19T09:59:26.98Z</time></trkpt><trkpt lat="44.3789583" lon="10.190745"><ele>765.0</ele><time>2026-04-19T09:59:27.98Z</time></trkpt><trkpt lat="44.3788917" lon="10.1908767"><ele>763.0</ele><time>2026-04-19T09:59:28.98Z</time></trkpt><trkpt lat="44.3788367" lon="10.191015"><ele>761.0</ele><time>2026-04-19T09:59:29.98Z</time></trkpt><trkpt lat="44.3788" lon="10.19115"><ele>759.0</ele><time>2026-04-19T09:59:30.98Z</time></trkpt><trkpt lat="44.378765" lon="10.19128"><ele>757.0</ele><time>2026-04-19T09:59:31.98Z</time></trkpt><trkpt lat="44.37873" lon="10.1914"><ele>758.6</ele><time>2026-04-19T09:59:32.98Z</time></trkpt><trkpt lat="44.3786867" lon="10.1915183"><ele>760.2</ele><time>2026-04-19T09:59:33.981Z</time></trkpt><trkpt lat="44.37863" lon="10.1916267"><ele>761.8</ele><time>2026-04-19T09:59:34.98Z</time></trkpt><trkpt lat="44.37856" lon="10.1917267"><ele>763.4</ele><time>2026-04-19T09:59:35.98Z</time></trkpt><trkpt lat="44.3784867" lon="10.1918333"><ele>765.0</ele><time>2026-04-19T09:59:36.98Z</time></trkpt><trkpt lat="44.37841" lon="10.1919383"><ele>765.0</ele><time>2026-04-19T09:59:37.98Z</time></trkpt><trkpt lat="44.3783283" lon="10.1920533"><ele>765.0</ele><time>2026-04-19T09:59:38.98Z</time></trkpt><trkpt lat="44.3782417" lon="10.1921717"><ele>765.0</ele><time>2026-04-19T09:59:39.98Z</time></trkpt><trkpt lat="44.37815" lon="10.1922917"><ele>765.0</ele><time>2026-04-19T09:59:40.98Z</time></trkpt><trkpt lat="44.3780567" lon="10.19242"><ele>762.75</ele><time>2026-04-19T09:59:41.98Z</time></trkpt><trkpt lat="44.3779633" lon="10.1925617"><ele>760.5</ele><time>2026-04-19T09:59:42.98Z</time></trkpt><trkpt lat="44.3778667" lon="10.1926917"><ele>758.25</ele><time>2026-04-19T09:59:43.98Z</time></trkpt><trkpt lat="44.37777" lon="10.1928067"><ele>756.0</ele><time>2026-04-19T09:59:44.98Z</time></trkpt><trkpt lat="44.3776683" lon="10.1929017"><ele>756.0</ele><time>2026-04-19T09:59:45.98Z</time></trkpt><trkpt lat="44.3775567" lon="10.1929917"><ele>756.0</ele><time>2026-04-19T09:59:46.98Z</time></trkpt><trkpt lat="44.3774483" lon="10.1930817"><ele>756.0</ele><time>2026-04-19T09:59:47.98Z</time></trkpt><trkpt lat="44.3773517" lon="10.1931667"><ele>756.0</ele><time>2026-04-19T09:59:48.98Z</time></trkpt><trkpt lat="44.37725" lon="10.19325"><ele>757.25</ele><time>2026-04-19T09:59:49.98Z</time></trkpt><trkpt lat="44.3771483" lon="10.1933333"><ele>758.5</ele><time>2026-04-19T09:59:50.98Z</time></trkpt><trkpt lat="44.3770483" lon="10.19342"><ele>759.75</ele><time>2026-04-19T09:59:51.98Z</time></trkpt><trkpt lat="44.3769567" lon="10.1935167"><ele>761.0</ele><time>2026-04-19T09:59:52.98Z</time></trkpt><trkpt lat="44.376875" lon="10.1936267"><ele>761.0</ele><time>2026-04-19T09:59:53.98Z</time></trkpt><trkpt lat="44.3768" lon="10.1937633"><ele>761.0</ele><time>2026-04-19T09:59:54.98Z</time></trkpt><trkpt lat="44.3767217" lon="10.1939083"><ele>761.0</ele><time>2026-04-19T09:59:55.98Z</time></trkpt><trkpt lat="44.376645" lon="10.19405"><ele>761.0</ele><time>2026-04-19T09:59:56.98Z</time></trkpt><trkpt lat="44.3765633" lon="10.1941967"><ele>763.25</ele><time>2026-04-19T09:59:57.98Z</time></trkpt><trkpt lat="44.376485" lon="10.194335"><ele>765.5</ele><time>2026-04-19T09:59:58.98Z</time></trkpt><trkpt lat="44.37641" lon="10.1944717"><ele>767.75</ele><time>2026-04-19T09:59:59.98Z</time></trkpt><trkpt lat="44.37632" lon="10.1945967"><ele>770.0</ele><time>2026-04-19T10:00:00.98Z</time></trkpt><trkpt lat="44.3762133" lon="10.1947083"><ele>770.0</ele><time>2026-04-19T10:00:01.98Z</time></trkpt><trkpt lat="44.3760933" lon="10.1948017"><ele>770.0</ele><time>2026-04-19T10:00:02.98Z</time></trkpt><trkpt lat="44.37597" lon="10.1948883"><ele>770.0</ele><time>2026-04-19T10:00:03.98Z</time></trkpt><trkpt lat="44.3758383" lon="10.1949733"><ele>770.0</ele><time>2026-04-19T10:00:04.98Z</time></trkpt><trkpt lat="44.3757067" lon="10.1950667"><ele>773.25</ele><time>2026-04-19T10:00:05.98Z</time></trkpt><trkpt lat="44.3755767" lon="10.195145"><ele>776.5</ele><time>2026-04-19T10:00:06.98Z</time></trkpt><trkpt lat="44.37545" lon="10.19523"><ele>779.75</ele><time>2026-04-19T10:00:07.98Z</time></trkpt><trkpt lat="44.3753233" lon="10.1953067"><ele>783.0</ele><time>2026-04-19T10:00:08.98Z</time></trkpt><trkpt lat="44.37521" lon="10.1953817"><ele>783.0</ele><time>2026-04-19T10:00:09.98Z</time></trkpt><trkpt lat="44.37511" lon="10.1954433"><ele>783.0</ele><time>2026-04-19T10:00:10.98Z</time></trkpt><trkpt lat="44.3750183" lon="10.1954917"><ele>783.0</ele><time>2026-04-19T10:00:11.98Z</time></trkpt><trkpt lat="44.3749317" lon="10.1955317"><ele>783.0</ele><time>2026-04-19T10:00:12.98Z</time></trkpt><trkpt lat="44.374845" lon="10.19556"><ele>783.0</ele><time>2026-04-19T10:00:13.98Z</time></trkpt><trkpt lat="44.3747483" lon="10.1955833"><ele>783.25</ele><time>2026-04-19T10:00:14.98Z</time></trkpt><trkpt lat="44.3746383" lon="10.1956067"><ele>783.5</ele><time>2026-04-19T10:00:15.98Z</time></trkpt><trkpt lat="44.3745333" lon="10.1956267"><ele>783.75</ele><time>2026-04-19T10:00:16.98Z</time></trkpt><trkpt lat="44.3744167" lon="10.1956483"><ele>784.0</ele><time>2026-04-19T10:00:17.98Z</time></trkpt><trkpt lat="44.37429" lon="10.195685"><ele>785.5</ele><time>2026-04-19T10:00:18.98Z</time></trkpt><trkpt lat="44.3741633" lon="10.1957083"><ele>787.0</ele><time>2026-04-19T10:00:19.98Z</time></trkpt><trkpt lat="44.3740417" lon="10.19572"><ele>788.5</ele><time>2026-04-19T10:00:20.98Z</time></trkpt><trkpt lat="44.373925" lon="10.1956867"><ele>790.0</ele><time>2026-04-19T10:00:21.98Z</time></trkpt><trkpt lat="44.373805" lon="10.1956417"><ele>790.0</ele><time>2026-04-19T10:00:22.98Z</time></trkpt><trkpt lat="44.3736883" lon="10.1955783"><ele>790.0</ele><time>2026-04-19T10:00:23.98Z</time></trkpt><trkpt lat="44.3735833" lon="10.1955183"><ele>790.0</ele><time>2026-04-19T10:00:24.98Z</time></trkpt><trkpt lat="44.37347" lon="10.19546"><ele>790.0</ele><time>2026-04-19T10:00:25.98Z</time></trkpt><trkpt lat="44.3733617" lon="10.1954217"><ele>790.0</ele><time>2026-04-19T10:00:26.98Z</time></trkpt><trkpt lat="44.37326" lon="10.1954017"><ele>790.0</ele><time>2026-04-19T10:00:27.98Z</time></trkpt><trkpt lat="44.37316" lon="10.1953817"><ele>790.0</ele><time>2026-04-19T10:00:28.98Z</time></trkpt><trkpt lat="44.3730633" lon="10.1953633"><ele>790.0</ele><time>2026-04-19T10:00:29.98Z</time></trkpt><trkpt lat="44.372985" lon="10.1953283"><ele>790.0</ele><time>2026-04-19T10:00:30.98Z</time></trkpt><trkpt lat="44.37292" lon="10.1952867"><ele>791.6</ele><time>2026-04-19T10:00:31.98Z</time></trkpt><trkpt lat="44.3728733" lon="10.195165"><ele>793.2</ele><time>2026-04-19T10:00:33.98Z</time></trkpt><trkpt lat="44.37289" lon="10.1950567"><ele>794.8</ele><time>2026-04-19T10:00:35.98Z</time></trkpt><trkpt lat="44.372925" lon="10.1949667"><ele>796.4</ele><time>2026-04-19T10:00:38.98Z</time></trkpt><trkpt lat="44.3729633" lon="10.1947717"><ele>798.0</ele><time>2026-04-19T10:01:27.98Z</time></trkpt><trkpt lat="44.3729483" lon="10.1946167"><ele>798.3333333333334</ele><time>2026-04-19T10:01:29.98Z</time></trkpt><trkpt lat="44.3729267" lon="10.1944517"><ele>798.6666666666667</ele><time>2026-04-19T10:01:31.98Z</time></trkpt><trkpt lat="44.3728883" lon="10.19437"><ele>799.0</ele><time>2026-04-19T10:01:32.98Z</time></trkpt><trkpt lat="44.3728417" lon="10.1942967"><ele>799.3333333333334</ele><time>2026-04-19T10:01:33.98Z</time></trkpt><trkpt lat="44.372785" lon="10.194225"><ele>799.6666666666667</ele><time>2026-04-19T10:01:34.98Z</time></trkpt><trkpt lat="44.3727283" lon="10.1941483"><ele>800.0</ele><time>2026-04-19T10:01:35.98Z</time></trkpt><trkpt lat="44.372685" lon="10.1940817"><ele>800.0000000000001</ele><time>2026-04-19T10:01:36.98Z</time></trkpt><trkpt lat="44.372615" lon="10.1939967"><ele>800.0</ele><time>2026-04-19T10:01:38.98Z</time></trkpt><trkpt lat="44.3725417" lon="10.1939233"><ele>800.0</ele><time>2026-04-19T10:01:40.98Z</time></trkpt><trkpt lat="44.372475" lon="10.1939017"><ele>800.0</ele><time>2026-04-19T10:01:43.98Z</time></trkpt><trkpt lat="44.37248" lon="10.194045"><ele>800.0000000000001</ele><time>2026-04-19T10:02:47.98Z</time></trkpt><trkpt lat="44.3725617" lon="10.1940183"><ele>800.0</ele><time>2026-04-19T10:02:57.98Z</time></trkpt><trkpt lat="44.3726317" lon="10.19404"><ele>800.0000000000001</ele><time>2026-04-19T10:03:00.98Z</time></trkpt><trkpt lat="44.3726833" lon="10.1940983"><ele>800.0</ele><time>2026-04-19T10:03:02.98Z</time></trkpt><trkpt lat="44.3727233" lon="10.1941717"><ele>800.0</ele><time>2026-04-19T10:03:04.98Z</time></trkpt><trkpt lat="44.37277" lon="10.1942733"><ele>800.0</ele><time>2026-04-19T10:03:07.98Z</time></trkpt><trkpt lat="44.3727983" lon="10.194375"><ele>800.0000000000001</ele><time>2026-04-19T10:03:11.98Z</time></trkpt><trkpt lat="44.3728467" lon="10.1944983"><ele>800.0</ele><time>2026-04-19T10:15:02.978Z</time></trkpt><trkpt lat="44.37293" lon="10.1945133"><ele>800.8</ele><time>2026-04-19T10:15:04.978Z</time></trkpt><trkpt lat="44.373025" lon="10.1944683"><ele>801.6</ele><time>2026-04-19T10:15:06.978Z</time></trkpt><trkpt lat="44.3730883" lon="10.1944067"><ele>802.4000000000001</ele><time>2026-04-19T10:15:07.978Z</time></trkpt><trkpt lat="44.37317" lon="10.19433"><ele>803.2</ele><time>2026-04-19T10:15:08.978Z</time></trkpt><trkpt lat="44.3732717" lon="10.19425"><ele>804.0</ele><time>2026-04-19T10:15:09.978Z</time></trkpt><trkpt lat="44.373385" lon="10.1941933"><ele>804.0</ele><time>2026-04-19T10:15:10.978Z</time></trkpt><trkpt lat="44.3734983" lon="10.19414"><ele>804.0</ele><time>2026-04-19T10:15:11.978Z</time></trkpt><trkpt lat="44.37362" lon="10.1940767"><ele>804.0</ele><time>2026-04-19T10:15:12.978Z</time></trkpt><trkpt lat="44.3737433" lon="10.1940167"><ele>804.0</ele><time>2026-04-19T10:15:13.978Z</time></trkpt><trkpt lat="44.3738667" lon="10.19395"><ele>810.6666666666667</ele><time>2026-04-19T10:15:14.978Z</time></trkpt><trkpt lat="44.373985" lon="10.1938833"><ele>817.3333333333334</ele><time>2026-04-19T10:15:15.978Z</time></trkpt><trkpt lat="44.3742117" lon="10.1937633"><ele>824.0</ele><time>2026-04-19T10:15:17.978Z</time></trkpt><trkpt lat="44.3743183" lon="10.1936783"><ele>824.0</ele><time>2026-04-19T10:15:18.978Z</time></trkpt><trkpt lat="44.3744167" lon="10.1935817"><ele>824.0</ele><time>2026-04-19T10:15:19.978Z</time></trkpt><trkpt lat="44.374505" lon="10.19346"><ele>824.0</ele><time>2026-04-19T10:15:20.978Z</time></trkpt><trkpt lat="44.3745717" lon="10.1933117"><ele>824.0</ele><time>2026-04-19T10:15:21.978Z</time></trkpt><trkpt lat="44.3746217" lon="10.193135"><ele>826.5</ele><time>2026-04-19T10:15:22.978Z</time></trkpt><trkpt lat="44.374635" lon="10.1929467"><ele>829.0</ele><time>2026-04-19T10:15:23.979Z</time></trkpt><trkpt lat="44.374625" lon="10.1927483"><ele>831.5</ele><time>2026-04-19T10:15:24.978Z</time></trkpt><trkpt lat="44.3746183" lon="10.1925567"><ele>834.0</ele><time>2026-04-19T10:15:25.978Z</time></trkpt><trkpt lat="44.3746067" lon="10.1923817"><ele>834.25</ele><time>2026-04-19T10:15:26.978Z</time></trkpt><trkpt lat="44.3745867" lon="10.1922283"><ele>834.5</ele><time>2026-04-19T10:15:27.978Z</time></trkpt><trkpt lat="44.37456" lon="10.1920783"><ele>834.75</ele><time>2026-04-19T10:15:28.978Z</time></trkpt><trkpt lat="44.3745383" lon="10.1919067"><ele>835.0</ele><time>2026-04-19T10:15:29.978Z</time></trkpt><trkpt lat="44.3745217" lon="10.191725"><ele>835.0</ele><time>2026-04-19T10:15:30.978Z</time></trkpt><trkpt lat="44.3745133" lon="10.19153"><ele>835.0</ele><time>2026-04-19T10:15:31.978Z</time></trkpt><trkpt lat="44.3744967" lon="10.191335"><ele>835.0</ele><time>2026-04-19T10:15:32.978Z</time></trkpt><trkpt lat="44.374505" lon="10.1911483"><ele>835.0</ele><time>2026-04-19T10:15:33.978Z</time></trkpt><trkpt lat="44.3745217" lon="10.190965"><ele>832.5</ele><time>2026-04-19T10:15:34.978Z</time></trkpt><trkpt lat="44.3745667" lon="10.1907867"><ele>830.0</ele><time>2026-04-19T10:15:35.978Z</time></trkpt><trkpt lat="44.3746383" lon="10.190615"><ele>827.5</ele><time>2026-04-19T10:15:36.978Z</time></trkpt><trkpt lat="44.3747283" lon="10.1904417"><ele>825.0</ele><time>2026-04-19T10:15:37.978Z</time></trkpt><trkpt lat="44.3748283" lon="10.1902733"><ele>825.0</ele><time>2026-04-19T10:15:38.978Z</time></trkpt><trkpt lat="44.3749167" lon="10.1901183"><ele>825.0</ele><time>2026-04-19T10:15:39.978Z</time></trkpt><trkpt lat="44.3749983" lon="10.1899767"><ele>825.0</ele><time>2026-04-19T10:15:40.978Z</time></trkpt><trkpt lat="44.37507" lon="10.18984"><ele>825.0</ele><time>2026-04-19T10:15:41.978Z</time></trkpt><trkpt lat="44.375125" lon="10.1897"><ele>827.0</ele><time>2026-04-19T10:15:42.978Z</time></trkpt><trkpt lat="44.3751667" lon="10.1895483"><ele>829.0</ele><time>2026-04-19T10:15:43.978Z</time></trkpt><trkpt lat="44.37512" lon="10.1890517"><ele>825.5</ele><time>2026-04-19T10:15:46.978Z</time></trkpt><trkpt lat="44.3750517" lon="10.1888967"><ele>822.0</ele><time>2026-04-19T10:15:47.978Z</time></trkpt><trkpt lat="44.37497" lon="10.1887617"><ele>818.5</ele><time>2026-04-19T10:15:48.978Z</time></trkpt><trkpt lat="44.3748817" lon="10.18864"><ele>815.0</ele><time>2026-04-19T10:15:49.978Z</time></trkpt><trkpt lat="44.37478" lon="10.188565"><ele>822.0</ele><time>2026-04-19T10:15:50.978Z</time></trkpt><trkpt lat="44.374665" lon="10.1885183"><ele>829.0</ele><time>2026-04-19T10:15:51.978Z</time></trkpt><trkpt lat="44.3745383" lon="10.1885017"><ele>836.0</ele><time>2026-04-19T10:15:52.978Z</time></trkpt><trkpt lat="44.3744217" lon="10.1885"><ele>843.0</ele><time>2026-04-19T10:15:53.978Z</time></trkpt><trkpt lat="44.3743183" lon="10.1884667"><ele>843.0</ele><time>2026-04-19T10:15:54.978Z</time></trkpt><trkpt lat="44.37422" lon="10.1884067"><ele>843.0</ele><time>2026-04-19T10:15:55.978Z</time></trkpt><trkpt lat="44.3741233" lon="10.1883333"><ele>843.0</ele><time>2026-04-19T10:15:56.978Z</time></trkpt><trkpt lat="44.3740233" lon="10.18823"><ele>843.0</ele><time>2026-04-19T10:15:57.978Z</time></trkpt><trkpt lat="44.3739167" lon="10.188105"><ele>849.0</ele><time>2026-04-19T10:15:58.979Z</time></trkpt><trkpt lat="44.3738133" lon="10.1879617"><ele>855.0</ele><time>2026-04-19T10:15:59.978Z</time></trkpt><trkpt lat="44.3737017" lon="10.1877983"><ele>861.0</ele><time>2026-04-19T10:16:00.978Z</time></trkpt><trkpt lat="44.3735933" lon="10.1876017"><ele>861.0</ele><time>2026-04-19T10:16:01.978Z</time></trkpt><trkpt lat="44.3734833" lon="10.1873833"><ele>861.0</ele><time>2026-04-19T10:16:02.978Z</time></trkpt><trkpt lat="44.3733883" lon="10.187165"><ele>861.0</ele><time>2026-04-19T10:16:03.978Z</time></trkpt><trkpt lat="44.373305" lon="10.18696"><ele>856.5</ele><time>2026-04-19T10:16:04.978Z</time></trkpt><trkpt lat="44.373235" lon="10.18678"><ele>852.0</ele><time>2026-04-19T10:16:05.978Z</time></trkpt><trkpt lat="44.37317" lon="10.18661"><ele>847.5</ele><time>2026-04-19T10:16:06.978Z</time></trkpt><trkpt lat="44.3731033" lon="10.1864483"><ele>843.0</ele><time>2026-04-19T10:16:07.978Z</time></trkpt><trkpt lat="44.3730433" lon="10.1862883"><ele>845.75</ele><time>2026-04-19T10:16:08.978Z</time></trkpt><trkpt lat="44.372965" lon="10.1861433"><ele>848.5</ele><time>2026-04-19T10:16:09.978Z</time></trkpt><trkpt lat="44.372865" lon="10.186"><ele>851.25</ele><time>2026-04-19T10:16:10.978Z</time></trkpt><trkpt lat="44.372745" lon="10.18587"><ele>854.0</ele><time>2026-04-19T10:16:11.978Z</time></trkpt><trkpt lat="44.37259" lon="10.18576"><ele>850.6666666666667</ele><time>2026-04-19T10:16:12.978Z</time></trkpt><trkpt lat="44.372435" lon="10.1856567"><ele>847.3333333333333</ele><time>2026-04-19T10:16:13.978Z</time></trkpt><trkpt lat="44.3722933" lon="10.185565"><ele>844.0</ele><time>2026-04-19T10:16:14.978Z</time></trkpt><trkpt lat="44.3721583" lon="10.1854983"><ele>844.0</ele><time>2026-04-19T10:16:15.978Z</time></trkpt><trkpt lat="44.3720267" lon="10.1854333"><ele>844.0</ele><time>2026-04-19T10:16:16.978Z</time></trkpt><trkpt lat="44.3718833" lon="10.185385"><ele>844.0</ele><time>2026-04-19T10:16:17.978Z</time></trkpt><trkpt lat="44.371735" lon="10.1853683"><ele>844.0</ele><time>2026-04-19T10:16:18.978Z</time></trkpt><trkpt lat="44.3715917" lon="10.1853817"><ele>844.0</ele><time>2026-04-19T10:16:19.978Z</time></trkpt><trkpt lat="44.37146" lon="10.1854033"><ele>844.0</ele><time>2026-04-19T10:16:20.978Z</time></trkpt><trkpt lat="44.37133" lon="10.1854417"><ele>844.0</ele><time>2026-04-19T10:16:21.978Z</time></trkpt><trkpt lat="44.37122" lon="10.1854383"><ele>844.0</ele><time>2026-04-19T10:16:22.978Z</time></trkpt><trkpt lat="44.3711267" lon="10.18542"><ele>848.4000000000001</ele><time>2026-04-19T10:16:23.979Z</time></trkpt><trkpt lat="44.3710467" lon="10.18537"><ele>852.8</ele><time>2026-04-19T10:16:24.978Z</time></trkpt><trkpt lat="44.370995" lon="10.1852783"><ele>857.1999999999999</ele><time>2026-04-19T10:16:25.978Z</time></trkpt><trkpt lat="44.37099" lon="10.1851333"><ele>861.5999999999999</ele><time>2026-04-19T10:16:26.978Z</time></trkpt><trkpt lat="44.3710083" lon="10.1849617"><ele>866.0</ele><time>2026-04-19T10:16:27.978Z</time></trkpt><trkpt lat="44.371025" lon="10.1847567"><ele>866.0</ele><time>2026-04-19T10:16:28.978Z</time></trkpt><trkpt lat="44.3710317" lon="10.18458"><ele>865.9999999999999</ele><time>2026-04-19T10:16:29.978Z</time></trkpt><trkpt lat="44.3710483" lon="10.1844283"><ele>865.9999999999999</ele><time>2026-04-19T10:16:30.978Z</time></trkpt><trkpt lat="44.3710733" lon="10.1842917"><ele>866.0</ele><time>2026-04-19T10:16:31.978Z</time></trkpt><trkpt lat="44.3711" lon="10.1841733"><ele>866.0</ele><time>2026-04-19T10:16:32.978Z</time></trkpt><trkpt lat="44.3711167" lon="10.1840533"><ele>865.8333333333334</ele><time>2026-04-19T10:16:33.978Z</time></trkpt><trkpt lat="44.3711383" lon="10.1839433"><ele>865.6666666666667</ele><time>2026-04-19T10:16:34.978Z</time></trkpt><trkpt lat="44.3711817" lon="10.183855"><ele>865.5</ele><time>2026-04-19T10:16:35.978Z</time></trkpt><trkpt lat="44.3712483" lon="10.183805"><ele>865.3333333333333</ele><time>2026-04-19T10:16:36.978Z</time></trkpt><trkpt lat="44.3713483" lon="10.1838117"><ele>865.1666666666666</ele><time>2026-04-19T10:16:37.978Z</time></trkpt><trkpt lat="44.3714617" lon="10.183835"><ele>865.0</ele><time>2026-04-19T10:16:38.978Z</time></trkpt><trkpt lat="44.3715783" lon="10.18385"><ele>865.0</ele><time>2026-04-19T10:16:39.978Z</time></trkpt><trkpt lat="44.3716817" lon="10.1838367"><ele>865.0</ele><time>2026-04-19T10:16:40.978Z</time></trkpt><trkpt lat="44.3717833" lon="10.1837917"><ele>865.0</ele><time>2026-04-19T10:16:41.978Z</time></trkpt><trkpt lat="44.37189" lon="10.18372"><ele>865.0</ele><time>2026-04-19T10:16:42.978Z</time></trkpt><trkpt lat="44.3720017" lon="10.1836117"><ele>865.0</ele><time>2026-04-19T10:16:43.978Z</time></trkpt><trkpt lat="44.3721033" lon="10.1835083"><ele>865.0</ele><time>2026-04-19T10:16:44.978Z</time></trkpt><trkpt lat="44.372195" lon="10.1834017"><ele>865.0</ele><time>2026-04-19T10:16:45.978Z</time></trkpt><trkpt lat="44.3722817" lon="10.1832967"><ele>865.0</ele><time>2026-04-19T10:16:46.978Z</time></trkpt><trkpt lat="44.37237" lon="10.183215"><ele>864.8</ele><time>2026-04-19T10:16:47.978Z</time></trkpt><trkpt lat="44.3724617" lon="10.183165"><ele>864.6</ele><time>2026-04-19T10:16:48.978Z</time></trkpt><trkpt lat="44.3725583" lon="10.1831483"><ele>864.4000000000001</ele><time>2026-04-19T10:16:49.978Z</time></trkpt><trkpt lat="44.37268" lon="10.183155"><ele>864.2</ele><time>2026-04-19T10:16:50.978Z</time></trkpt><trkpt lat="44.3728033" lon="10.183205"><ele>864.0</ele><time>2026-04-19T10:16:51.978Z</time></trkpt><trkpt lat="44.3729267" lon="10.183265"><ele>865.6</ele><time>2026-04-19T10:16:52.978Z</time></trkpt><trkpt lat="44.3730317" lon="10.1833317"><ele>867.2</ele><time>2026-04-19T10:16:53.978Z</time></trkpt><trkpt lat="44.37313" lon="10.1833983"><ele>868.8000000000001</ele><time>2026-04-19T10:16:54.978Z</time></trkpt><trkpt lat="44.3732283" lon="10.183465"><ele>870.4000000000001</ele><time>2026-04-19T10:16:55.978Z</time></trkpt><trkpt lat="44.3733167" lon="10.1835167"><ele>872.0</ele><time>2026-04-19T10:16:56.978Z</time></trkpt><trkpt lat="44.3733967" lon="10.1835617"><ele>872.0000000000001</ele><time>2026-04-19T10:16:57.978Z</time></trkpt><trkpt lat="44.373475" lon="10.18359"><ele>872.0</ele><time>2026-04-19T10:16:58.978Z</time></trkpt><trkpt lat="44.373555" lon="10.1836"><ele>872.0</ele><time>2026-04-19T10:16:59.978Z</time></trkpt><trkpt lat="44.3736367" lon="10.1835767"><ele>872.0</ele><time>2026-04-19T10:17:00.978Z</time></trkpt><trkpt lat="44.3737117" lon="10.183505"><ele>872.0000000000001</ele><time>2026-04-19T10:17:01.978Z</time></trkpt><trkpt lat="44.37377" lon="10.1833867"><ele>872.0</ele><time>2026-04-19T10:17:02.978Z</time></trkpt><trkpt lat="44.373805" lon="10.1832233"><ele>878.6666666666667</ele><time>2026-04-19T10:17:03.978Z</time></trkpt><trkpt lat="44.37382" lon="10.183035"><ele>885.3333333333333</ele><time>2026-04-19T10:17:04.978Z</time></trkpt><trkpt lat="44.373825" lon="10.182815"><ele>892.0</ele><time>2026-04-19T10:17:05.978Z</time></trkpt><trkpt lat="44.37383" lon="10.1825767"><ele>895.0</ele><time>2026-04-19T10:17:06.978Z</time></trkpt><trkpt lat="44.3738517" lon="10.182315"><ele>898.0</ele><time>2026-04-19T10:17:07.978Z</time></trkpt><trkpt lat="44.37389" lon="10.1820783"><ele>901.0</ele><time>2026-04-19T10:17:08.978Z</time></trkpt><trkpt lat="44.3739283" lon="10.1818483"><ele>896.6666666666666</ele><time>2026-04-19T10:17:09.978Z</time></trkpt><trkpt lat="44.37397" lon="10.1816267"><ele>892.3333333333333</ele><time>2026-04-19T10:17:10.978Z</time></trkpt><trkpt lat="44.3740117" lon="10.1814183"><ele>888.0</ele><time>2026-04-19T10:17:11.978Z</time></trkpt><trkpt lat="44.37406" lon="10.1812283"><ele>888.0</ele><time>2026-04-19T10:17:12.978Z</time></trkpt><trkpt lat="44.3741333" lon="10.1810783"><ele>888.0</ele><time>2026-04-19T10:17:13.978Z</time></trkpt><trkpt lat="44.3742183" lon="10.1809533"><ele>888.0</ele><time>2026-04-19T10:17:14.978Z</time></trkpt><trkpt lat="44.37432" lon="10.1808633"><ele>888.0</ele><time>2026-04-19T10:17:15.978Z</time></trkpt><trkpt lat="44.3744517" lon="10.1808333"><ele>888.0</ele><time>2026-04-19T10:17:16.978Z</time></trkpt><trkpt lat="44.3746083" lon="10.1808417"><ele>888.0</ele><time>2026-04-19T10:17:17.978Z</time></trkpt><trkpt lat="44.3747733" lon="10.1808683"><ele>888.0</ele><time>2026-04-19T10:17:18.978Z</time></trkpt><trkpt lat="44.3749367" lon="10.1808833"><ele>888.0</ele><time>2026-04-19T10:17:19.978Z</time></trkpt><trkpt lat="44.3750767" lon="10.1808733"><ele>888.0</ele><time>2026-04-19T10:17:20.978Z</time></trkpt><trkpt lat="44.375205" lon="10.1808367"><ele>888.0</ele><time>2026-04-19T10:17:21.979Z</time></trkpt><trkpt lat="44.3753017" lon="10.180765"><ele>888.0</ele><time>2026-04-19T10:17:22.978Z</time></trkpt><trkpt lat="44.3753783" lon="10.18064"><ele>890.5</ele><time>2026-04-19T10:17:23.978Z</time></trkpt><trkpt lat="44.3754267" lon="10.180485"><ele>893.0</ele><time>2026-04-19T10:17:24.978Z</time></trkpt><trkpt lat="44.3754533" lon="10.1802917"><ele>895.5</ele><time>2026-04-19T10:17:25.978Z</time></trkpt><trkpt lat="44.3754683" lon="10.1800883"><ele>898.0</ele><time>2026-04-19T10:17:26.978Z</time></trkpt><trkpt lat="44.3754617" lon="10.17987"><ele>899.6666666666666</ele><time>2026-04-19T10:17:27.978Z</time></trkpt><trkpt lat="44.3754333" lon="10.1796567"><ele>901.3333333333333</ele><time>2026-04-19T10:17:28.978Z</time></trkpt><trkpt lat="44.3753933" lon="10.1794417"><ele>903.0</ele><time>2026-04-19T10:17:29.978Z</time></trkpt><trkpt lat="44.3753583" lon="10.1792383"><ele>903.0</ele><time>2026-04-19T10:17:30.978Z</time></trkpt><trkpt lat="44.3753233" lon="10.1790533"><ele>903.0</ele><time>2026-04-19T10:17:31.978Z</time></trkpt><trkpt lat="44.3752833" lon="10.1788733"><ele>903.0</ele><time>2026-04-19T10:17:32.978Z</time></trkpt><trkpt lat="44.3752467" lon="10.178695"><ele>903.0</ele><time>2026-04-19T10:17:33.978Z</time></trkpt><trkpt lat="44.37521" lon="10.1785167"><ele>903.75</ele><time>2026-04-19T10:17:34.978Z</time></trkpt><trkpt lat="44.3751667" lon="10.178335"><ele>904.5</ele><time>2026-04-19T10:17:35.978Z</time></trkpt><trkpt lat="44.37513" lon="10.178145"><ele>905.25</ele><time>2026-04-19T10:17:36.978Z</time></trkpt><trkpt lat="44.375105" lon="10.177965"><ele>906.0</ele><time>2026-04-19T10:17:37.978Z</time></trkpt><trkpt lat="44.37511" lon="10.1777617"><ele>907.3333333333333</ele><time>2026-04-19T10:17:38.978Z</time></trkpt><trkpt lat="44.37512" lon="10.1775517"><ele>908.6666666666666</ele><time>2026-04-19T10:17:39.978Z</time></trkpt><trkpt lat="44.375145" lon="10.1773367"><ele>910.0</ele><time>2026-04-19T10:17:40.978Z</time></trkpt><trkpt lat="44.375175" lon="10.1771267"><ele>910.5</ele><time>2026-04-19T10:17:41.978Z</time></trkpt><trkpt lat="44.3751917" lon="10.1769283"><ele>911.0</ele><time>2026-04-19T10:17:42.978Z</time></trkpt><trkpt lat="44.3752117" lon="10.1767383"><ele>911.5</ele><time>2026-04-19T10:17:43.978Z</time></trkpt><trkpt lat="44.3752233" lon="10.17656"><ele>912.0</ele><time>2026-04-19T10:17:44.978Z</time></trkpt><trkpt lat="44.3752317" lon="10.1763733"><ele>912.75</ele><time>2026-04-19T10:17:45.979Z</time></trkpt><trkpt lat="44.3752267" lon="10.176205"><ele>913.5</ele><time>2026-04-19T10:17:46.978Z</time></trkpt><trkpt lat="44.3751867" lon="10.1760383"><ele>914.25</ele><time>2026-04-19T10:17:47.979Z</time></trkpt><trkpt lat="44.3751133" lon="10.1758933"><ele>915.0</ele><time>2026-04-19T10:17:48.978Z</time></trkpt><trkpt lat="44.3750217" lon="10.17577"><ele>917.0</ele><time>2026-04-19T10:17:49.978Z</time></trkpt><trkpt lat="44.3749167" lon="10.17566"><ele>919.0</ele><time>2026-04-19T10:17:50.978Z</time></trkpt><trkpt lat="44.37482" lon="10.175565"><ele>921.0</ele><time>2026-04-19T10:17:51.979Z</time></trkpt><trkpt lat="44.3747333" lon="10.1754617"><ele>923.0</ele><time>2026-04-19T10:17:52.978Z</time></trkpt><trkpt lat="44.3746733" lon="10.1753467"><ele>923.0</ele><time>2026-04-19T10:17:53.979Z</time></trkpt><trkpt lat="44.374655" lon="10.175215"><ele>923.0</ele><time>2026-04-19T10:17:54.978Z</time></trkpt><trkpt lat="44.3746767" lon="10.1750817"><ele>923.0</ele><time>2026-04-19T10:17:55.978Z</time></trkpt><trkpt lat="44.3747433" lon="10.1749517"><ele>923.0</ele><time>2026-04-19T10:17:56.978Z</time></trkpt><trkpt lat="44.3748567" lon="10.17484"><ele>923.0</ele><time>2026-04-19T10:17:57.978Z</time></trkpt><trkpt lat="44.37499" lon="10.1747267"><ele>927.75</ele><time>2026-04-19T10:17:58.978Z</time></trkpt><trkpt lat="44.37512" lon="10.1745983"><ele>932.5</ele><time>2026-04-19T10:17:59.978Z</time></trkpt><trkpt lat="44.3752383" lon="10.17448"><ele>937.25</ele><time>2026-04-19T10:18:00.978Z</time></trkpt><trkpt lat="44.3753383" lon="10.17438"><ele>942.0</ele><time>2026-04-19T10:18:01.978Z</time></trkpt><trkpt lat="44.375435" lon="10.1743033"><ele>940.0</ele><time>2026-04-19T10:18:02.978Z</time></trkpt><trkpt lat="44.37555" lon="10.1742283"><ele>938.0</ele><time>2026-04-19T10:18:03.978Z</time></trkpt><trkpt lat="44.3756667" lon="10.1742117"><ele>936.0</ele><time>2026-04-19T10:18:04.978Z</time></trkpt><trkpt lat="44.3757733" lon="10.1742667"><ele>934.0</ele><time>2026-04-19T10:18:05.978Z</time></trkpt><trkpt lat="44.37588" lon="10.17437"><ele>934.0</ele><time>2026-04-19T10:18:06.978Z</time></trkpt><trkpt lat="44.3759783" lon="10.1744883"><ele>934.0000000000001</ele><time>2026-04-19T10:18:07.978Z</time></trkpt><trkpt lat="44.37606" lon="10.174595"><ele>934.0000000000001</ele><time>2026-04-19T10:18:08.978Z</time></trkpt><trkpt lat="44.3761367" lon="10.17469"><ele>934.0</ele><time>2026-04-19T10:18:09.978Z</time></trkpt><trkpt lat="44.3762233" lon="10.17477"><ele>934.0</ele><time>2026-04-19T10:18:10.978Z</time></trkpt><trkpt lat="44.376325" lon="10.1748217"><ele>937.25</ele><time>2026-04-19T10:18:11.978Z</time></trkpt><trkpt lat="44.3764283" lon="10.174835"><ele>940.5</ele><time>2026-04-19T10:18:12.978Z</time></trkpt><trkpt lat="44.3765383" lon="10.17481"><ele>943.75</ele><time>2026-04-19T10:18:13.978Z</time></trkpt><trkpt lat="44.3766567" lon="10.174755"><ele>947.0</ele><time>2026-04-19T10:18:14.978Z</time></trkpt><trkpt lat="44.3767933" lon="10.1746633"><ele>947.0</ele><time>2026-04-19T10:18:15.978Z</time></trkpt><trkpt lat="44.3769367" lon="10.1745633"><ele>947.0</ele><time>2026-04-19T10:18:16.979Z</time></trkpt><trkpt lat="44.3770733" lon="10.1744717"><ele>947.0</ele><time>2026-04-19T10:18:17.978Z</time></trkpt><trkpt lat="44.3771933" lon="10.1743867"><ele>947.0</ele><time>2026-04-19T10:18:18.978Z</time></trkpt><trkpt lat="44.37729" lon="10.1742917"><ele>946.0</ele><time>2026-04-19T10:18:19.978Z</time></trkpt><trkpt lat="44.3773617" lon="10.174175"><ele>945.0</ele><time>2026-04-19T10:18:20.978Z</time></trkpt><trkpt lat="44.3774083" lon="10.1740467"><ele>944.0</ele><time>2026-04-19T10:18:21.978Z</time></trkpt><trkpt lat="44.37742" lon="10.1739133"><ele>943.0</ele><time>2026-04-19T10:18:22.978Z</time></trkpt><trkpt lat="44.377395" lon="10.1737633"><ele>942.0</ele><time>2026-04-19T10:18:23.978Z</time></trkpt><trkpt lat="44.3773483" lon="10.1736"><ele>943.3333333333333</ele><time>2026-04-19T10:18:24.978Z</time></trkpt><trkpt lat="44.3772667" lon="10.1734367"><ele>944.6666666666666</ele><time>2026-04-19T10:18:25.978Z</time></trkpt><trkpt lat="44.3771617" lon="10.1732517"><ele>946.0</ele><time>2026-04-19T10:18:26.978Z</time></trkpt><trkpt lat="44.3770467" lon="10.1730567"><ele>946.0</ele><time>2026-04-19T10:18:27.978Z</time></trkpt><trkpt lat="44.3769167" lon="10.1728683"><ele>946.0</ele><time>2026-04-19T10:18:28.978Z</time></trkpt><trkpt lat="44.3768033" lon="10.1726917"><ele>946.0</ele><time>2026-04-19T10:18:29.978Z</time></trkpt><trkpt lat="44.376705" lon="10.172515"><ele>943.0</ele><time>2026-04-19T10:18:30.978Z</time></trkpt><trkpt lat="44.3766133" lon="10.172325"><ele>940.0</ele><time>2026-04-19T10:18:31.978Z</time></trkpt><trkpt lat="44.376525" lon="10.1721283"><ele>937.0</ele><time>2026-04-19T10:18:32.978Z</time></trkpt><trkpt lat="44.3764283" lon="10.171935"><ele>937.0</ele><time>2026-04-19T10:18:33.978Z</time></trkpt><trkpt lat="44.3763567" lon="10.1717517"><ele>937.0</ele><time>2026-04-19T10:18:34.978Z</time></trkpt><trkpt lat="44.3762833" lon="10.1715633"><ele>937.0</ele><time>2026-04-19T10:18:35.977Z</time></trkpt><trkpt lat="44.3762083" lon="10.1714017"><ele>937.0</ele><time>2026-04-19T10:18:36.977Z</time></trkpt><trkpt lat="44.3761183" lon="10.1712583"><ele>940.0</ele><time>2026-04-19T10:18:37.977Z</time></trkpt><trkpt lat="44.3760033" lon="10.17114"><ele>943.0</ele><time>2026-04-19T10:18:38.977Z</time></trkpt><trkpt lat="44.3758733" lon="10.1710733"><ele>946.0</ele><time>2026-04-19T10:18:39.977Z</time></trkpt><trkpt lat="44.3757317" lon="10.1710417"><ele>949.0</ele><time>2026-04-19T10:18:40.977Z</time></trkpt><trkpt lat="44.375575" lon="10.1710517"><ele>951.6666666666666</ele><time>2026-04-19T10:18:41.977Z</time></trkpt><trkpt lat="44.3754033" lon="10.1710717"><ele>954.3333333333333</ele><time>2026-04-19T10:18:42.977Z</time></trkpt><trkpt lat="44.3752483" lon="10.1710833"><ele>957.0</ele><time>2026-04-19T10:18:43.977Z</time></trkpt><trkpt lat="44.3751117" lon="10.1710733"><ele>957.0</ele><time>2026-04-19T10:18:44.977Z</time></trkpt><trkpt lat="44.3749983" lon="10.1710133"><ele>957.0</ele><time>2026-04-19T10:18:45.977Z</time></trkpt><trkpt lat="44.3749117" lon="10.170905"><ele>957.0</ele><time>2026-04-19T10:18:46.977Z</time></trkpt><trkpt lat="44.3748517" lon="10.1707483"><ele>957.0</ele><time>2026-04-19T10:18:47.977Z</time></trkpt><trkpt lat="44.3748167" lon="10.1705417"><ele>954.6666666666667</ele><time>2026-04-19T10:18:48.977Z</time></trkpt><trkpt lat="44.3747717" lon="10.1703483"><ele>952.3333333333334</ele><time>2026-04-19T10:18:49.977Z</time></trkpt><trkpt lat="44.3747" lon="10.1701633"><ele>950.0</ele><time>2026-04-19T10:18:50.977Z</time></trkpt><trkpt lat="44.3746033" lon="10.1699883"><ele>956.0</ele><time>2026-04-19T10:18:51.977Z</time></trkpt><trkpt lat="44.3744733" lon="10.1698233"><ele>962.0</ele><time>2026-04-19T10:18:52.977Z</time></trkpt><trkpt lat="44.374355" lon="10.16966"><ele>968.0</ele><time>2026-04-19T10:18:53.977Z</time></trkpt><trkpt lat="44.3742417" lon="10.1695167"><ele>968.0</ele><time>2026-04-19T10:18:54.977Z</time></trkpt><trkpt lat="44.374145" lon="10.1693683"><ele>968.0</ele><time>2026-04-19T10:18:55.977Z</time></trkpt><trkpt lat="44.3740683" lon="10.1692033"><ele>968.0</ele><time>2026-04-19T10:18:56.977Z</time></trkpt><trkpt lat="44.374035" lon="10.169005"><ele>968.0</ele><time>2026-04-19T10:18:57.977Z</time></trkpt><trkpt lat="44.3740267" lon="10.1688133"><ele>966.5</ele><time>2026-04-19T10:18:58.977Z</time></trkpt><trkpt lat="44.3740267" lon="10.1686283"><ele>965.0</ele><time>2026-04-19T10:18:59.977Z</time></trkpt><trkpt lat="44.374035" lon="10.168465"><ele>963.5</ele><time>2026-04-19T10:19:00.977Z</time></trkpt><trkpt lat="44.374025" lon="10.1683"><ele>962.0</ele><time>2026-04-19T10:19:01.977Z</time></trkpt><trkpt lat="44.374005" lon="10.1681317"><ele>960.75</ele><time>2026-04-19T10:19:02.977Z</time></trkpt><trkpt lat="44.3739633" lon="10.1679567"><ele>959.5</ele><time>2026-04-19T10:19:03.977Z</time></trkpt><trkpt lat="44.3739017" lon="10.16778"><ele>958.25</ele><time>2026-04-19T10:19:04.977Z</time></trkpt><trkpt lat="44.3738333" lon="10.1676183"><ele>957.0</ele><time>2026-04-19T10:19:05.977Z</time></trkpt><trkpt lat="44.373765" lon="10.167455"><ele>964.5</ele><time>2026-04-19T10:19:06.977Z</time></trkpt><trkpt lat="44.3737017" lon="10.1672917"><ele>972.0</ele><time>2026-04-19T10:19:07.977Z</time></trkpt><trkpt lat="44.3736567" lon="10.1671333"><ele>979.5</ele><time>2026-04-19T10:19:08.977Z</time></trkpt><trkpt lat="44.37364" lon="10.1669517"><ele>987.0</ele><time>2026-04-19T10:19:09.977Z</time></trkpt><trkpt lat="44.3736517" lon="10.1667733"><ele>987.0</ele><time>2026-04-19T10:19:10.977Z</time></trkpt><trkpt lat="44.3736733" lon="10.166605"><ele>987.0</ele><time>2026-04-19T10:19:11.977Z</time></trkpt><trkpt lat="44.3736817" lon="10.16644"><ele>987.0</ele><time>2026-04-19T10:19:12.977Z</time></trkpt><trkpt lat="44.3736717" lon="10.1662883"><ele>987.0</ele><time>2026-04-19T10:19:13.977Z</time></trkpt><trkpt lat="44.373645" lon="10.1661367"><ele>984.25</ele><time>2026-04-19T10:19:14.977Z</time></trkpt><trkpt lat="44.3736067" lon="10.1659983"><ele>981.5</ele><time>2026-04-19T10:19:15.977Z</time></trkpt><trkpt lat="44.373545" lon="10.16588"><ele>978.75</ele><time>2026-04-19T10:19:16.977Z</time></trkpt><trkpt lat="44.37346" lon="10.1657717"><ele>976.0</ele><time>2026-04-19T10:19:17.977Z</time></trkpt><trkpt lat="44.3733533" lon="10.1656833"><ele>974.25</ele><time>2026-04-19T10:19:18.977Z</time></trkpt><trkpt lat="44.37324" lon="10.1656083"><ele>972.5</ele><time>2026-04-19T10:19:19.977Z</time></trkpt><trkpt lat="44.3731033" lon="10.1655467"><ele>970.75</ele><time>2026-04-19T10:19:20.977Z</time></trkpt><trkpt lat="44.3729633" lon="10.165485"><ele>969.0</ele><time>2026-04-19T10:19:21.977Z</time></trkpt><trkpt lat="44.372815" lon="10.1654283"><ele>969.0</ele><time>2026-04-19T10:19:22.977Z</time></trkpt><trkpt lat="44.37267" lon="10.1653783"><ele>969.0</ele><time>2026-04-19T10:19:23.977Z</time></trkpt><trkpt lat="44.3725133" lon="10.165335"><ele>969.0</ele><time>2026-04-19T10:19:24.977Z</time></trkpt><trkpt lat="44.37234" lon="10.1653133"><ele>972.0</ele><time>2026-04-19T10:19:25.977Z</time></trkpt><trkpt lat="44.3721517" lon="10.1653"><ele>975.0</ele><time>2026-04-19T10:19:26.977Z</time></trkpt><trkpt lat="44.37196" lon="10.16529"><ele>978.0</ele><time>2026-04-19T10:19:27.977Z</time></trkpt><trkpt lat="44.3717817" lon="10.1652767"><ele>978.0</ele><time>2026-04-19T10:19:28.977Z</time></trkpt><trkpt lat="44.371615" lon="10.165265"><ele>978.0</ele><time>2026-04-19T10:19:29.977Z</time></trkpt><trkpt lat="44.371465" lon="10.1652467"><ele>978.0</ele><time>2026-04-19T10:19:30.977Z</time></trkpt><trkpt lat="44.37134" lon="10.165195"><ele>978.0</ele><time>2026-04-19T10:19:31.977Z</time></trkpt><trkpt lat="44.37122" lon="10.1651067"><ele>980.25</ele><time>2026-04-19T10:19:32.977Z</time></trkpt><trkpt lat="44.37111" lon="10.164995"><ele>982.5</ele><time>2026-04-19T10:19:33.977Z</time></trkpt><trkpt lat="44.3710133" lon="10.1648533"><ele>984.75</ele><time>2026-04-19T10:19:34.977Z</time></trkpt><trkpt lat="44.37094" lon="10.1646833"><ele>987.0</ele><time>2026-04-19T10:19:35.977Z</time></trkpt><trkpt lat="44.3708767" lon="10.1644817"><ele>987.0</ele><time>2026-04-19T10:19:36.977Z</time></trkpt><trkpt lat="44.37081" lon="10.1642833"><ele>987.0</ele><time>2026-04-19T10:19:37.977Z</time></trkpt><trkpt lat="44.370735" lon="10.164085"><ele>987.0</ele><time>2026-04-19T10:19:38.977Z</time></trkpt><trkpt lat="44.37065" lon="10.1639067"><ele>988.3333333333333</ele><time>2026-04-19T10:19:39.977Z</time></trkpt><trkpt lat="44.370535" lon="10.1637567"><ele>989.6666666666666</ele><time>2026-04-19T10:19:40.977Z</time></trkpt><trkpt lat="44.3704" lon="10.1636333"><ele>991.0</ele><time>2026-04-19T10:19:41.977Z</time></trkpt><trkpt lat="44.370245" lon="10.1635217"><ele>991.0</ele><time>2026-04-19T10:19:42.977Z</time></trkpt><trkpt lat="44.37008" lon="10.1634167"><ele>991.0</ele><time>2026-04-19T10:19:43.977Z</time></trkpt><trkpt lat="44.3699167" lon="10.1633067"><ele>991.0</ele><time>2026-04-19T10:19:44.977Z</time></trkpt><trkpt lat="44.369765" lon="10.1631967"><ele>995.0</ele><time>2026-04-19T10:19:45.977Z</time></trkpt><trkpt lat="44.3696167" lon="10.1630817"><ele>999.0</ele><time>2026-04-19T10:19:46.977Z</time></trkpt><trkpt lat="44.3694883" lon="10.16294"><ele>1003.0</ele><time>2026-04-19T10:19:47.977Z</time></trkpt><trkpt lat="44.36937" lon="10.1627633"><ele>1003.0</ele><time>2026-04-19T10:19:48.977Z</time></trkpt><trkpt lat="44.36928" lon="10.162565"><ele>1003.0</ele><time>2026-04-19T10:19:49.977Z</time></trkpt><trkpt lat="44.369205" lon="10.1623667"><ele>1003.0</ele><time>2026-04-19T10:19:50.977Z</time></trkpt><trkpt lat="44.3691417" lon="10.1621783"><ele>1003.25</ele><time>2026-04-19T10:19:51.977Z</time></trkpt><trkpt lat="44.36907" lon="10.162"><ele>1003.5</ele><time>2026-04-19T10:19:52.977Z</time></trkpt><trkpt lat="44.3689933" lon="10.16184"><ele>1003.75</ele><time>2026-04-19T10:19:53.977Z</time></trkpt><trkpt lat="44.3688983" lon="10.161705"><ele>1004.0</ele><time>2026-04-19T10:19:54.977Z</time></trkpt><trkpt lat="44.3687783" lon="10.1616283"><ele>1004.0</ele><time>2026-04-19T10:19:55.977Z</time></trkpt><trkpt lat="44.368655" lon="10.1615933"><ele>1004.0</ele><time>2026-04-19T10:19:56.977Z</time></trkpt><trkpt lat="44.3685117" lon="10.1616017"><ele>1004.0</ele><time>2026-04-19T10:19:57.977Z</time></trkpt><trkpt lat="44.3683483" lon="10.16165"><ele>1004.0</ele><time>2026-04-19T10:19:58.977Z</time></trkpt><trkpt lat="44.36819" lon="10.1617033"><ele>1004.0</ele><time>2026-04-19T10:19:59.977Z</time></trkpt><trkpt lat="44.36804" lon="10.1617533"><ele>1004.0</ele><time>2026-04-19T10:20:00.977Z</time></trkpt><trkpt lat="44.3679083" lon="10.161755"><ele>1004.0</ele><time>2026-04-19T10:20:01.977Z</time></trkpt><trkpt lat="44.3677833" lon="10.1617383"><ele>1004.0</ele><time>2026-04-19T10:20:02.977Z</time></trkpt><trkpt lat="44.3676433" lon="10.1616733"><ele>1006.6666666666667</ele><time>2026-04-19T10:20:03.978Z</time></trkpt><trkpt lat="44.36752" lon="10.1615467"><ele>1009.3333333333333</ele><time>2026-04-19T10:20:04.977Z</time></trkpt><trkpt lat="44.3673933" lon="10.161385"><ele>1012.0</ele><time>2026-04-19T10:20:05.977Z</time></trkpt><trkpt lat="44.3672783" lon="10.1612167"><ele>1011.25</ele><time>2026-04-19T10:20:06.977Z</time></trkpt><trkpt lat="44.367165" lon="10.1610767"><ele>1010.5</ele><time>2026-04-19T10:20:07.977Z</time></trkpt><trkpt lat="44.36703" lon="10.1609817"><ele>1009.75</ele><time>2026-04-19T10:20:08.977Z</time></trkpt><trkpt lat="44.36689" lon="10.1609283"><ele>1009.0</ele><time>2026-04-19T10:20:09.977Z</time></trkpt><trkpt lat="44.3667333" lon="10.1609083"><ele>1009.0</ele><time>2026-04-19T10:20:10.977Z</time></trkpt><trkpt lat="44.3665817" lon="10.1609233"><ele>1009.0</ele><time>2026-04-19T10:20:11.977Z</time></trkpt><trkpt lat="44.3664333" lon="10.1609367"><ele>1009.0</ele><time>2026-04-19T10:20:12.977Z</time></trkpt><trkpt lat="44.3662933" lon="10.16094"><ele>1009.0</ele><time>2026-04-19T10:20:13.977Z</time></trkpt><trkpt lat="44.366165" lon="10.1609483"><ele>1011.25</ele><time>2026-04-19T10:20:14.977Z</time></trkpt><trkpt lat="44.3660467" lon="10.1609567"><ele>1013.5</ele><time>2026-04-19T10:20:15.977Z</time></trkpt><trkpt lat="44.3659317" lon="10.1609433"><ele>1015.75</ele><time>2026-04-19T10:20:16.977Z</time></trkpt><trkpt lat="44.365825" lon="10.1608817"><ele>1018.0</ele><time>2026-04-19T10:20:17.977Z</time></trkpt><trkpt lat="44.365725" lon="10.16078"><ele>1016.75</ele><time>2026-04-19T10:20:18.977Z</time></trkpt><trkpt lat="44.365625" lon="10.16064"><ele>1015.5</ele><time>2026-04-19T10:20:19.977Z</time></trkpt><trkpt lat="44.3655633" lon="10.1604667"><ele>1014.25</ele><time>2026-04-19T10:20:20.977Z</time></trkpt><trkpt lat="44.3654933" lon="10.1603017"><ele>1013.0</ele><time>2026-04-19T10:20:21.977Z</time></trkpt><trkpt lat="44.3654167" lon="10.1601233"><ele>1020.6666666666667</ele><time>2026-04-19T10:20:22.977Z</time></trkpt><trkpt lat="44.3653417" lon="10.1599267"><ele>1028.3333333333333</ele><time>2026-04-19T10:20:23.977Z</time></trkpt><trkpt lat="44.3653033" lon="10.1596983"><ele>1036.0</ele><time>2026-04-19T10:20:24.977Z</time></trkpt><trkpt lat="44.3652917" lon="10.1594483"><ele>1037.6666666666665</ele><time>2026-04-19T10:20:25.977Z</time></trkpt><trkpt lat="44.36528" lon="10.1592133"><ele>1039.3333333333333</ele><time>2026-04-19T10:20:26.977Z</time></trkpt><trkpt lat="44.3652717" lon="10.15896"><ele>1041.0</ele><time>2026-04-19T10:20:27.977Z</time></trkpt><trkpt lat="44.3652683" lon="10.1587117"><ele>1041.0</ele><time>2026-04-19T10:20:28.977Z</time></trkpt><trkpt lat="44.3652667" lon="10.1584583"><ele>1041.0</ele><time>2026-04-19T10:20:29.977Z</time></trkpt><trkpt lat="44.36527" lon="10.1582233"><ele>1041.0</ele><time>2026-04-19T10:20:30.977Z</time></trkpt><trkpt lat="44.3652717" lon="10.1580183"><ele>1039.75</ele><time>2026-04-19T10:20:31.977Z</time></trkpt><trkpt lat="44.3652633" lon="10.1578333"><ele>1038.5</ele><time>2026-04-19T10:20:32.977Z</time></trkpt><trkpt lat="44.3652483" lon="10.157655"><ele>1037.25</ele><time>2026-04-19T10:20:33.977Z</time></trkpt><trkpt lat="44.3652033" lon="10.1574867"><ele>1036.0</ele><time>2026-04-19T10:20:34.977Z</time></trkpt><trkpt lat="44.3651317" lon="10.1573433"><ele>1033.0</ele><time>2026-04-19T10:20:35.977Z</time></trkpt><trkpt lat="44.365025" lon="10.1572367"><ele>1030.0</ele><time>2026-04-19T10:20:36.977Z</time></trkpt><trkpt lat="44.3649033" lon="10.157165"><ele>1027.0</ele><time>2026-04-19T10:20:37.977Z</time></trkpt><trkpt lat="44.3647767" lon="10.1571267"><ele>1024.0</ele><time>2026-04-19T10:20:38.977Z</time></trkpt><trkpt lat="44.3646367" lon="10.1571433"><ele>1023.6666666666666</ele><time>2026-04-19T10:20:39.977Z</time></trkpt><trkpt lat="44.3644883" lon="10.1572017"><ele>1023.3333333333333</ele><time>2026-04-19T10:20:40.977Z</time></trkpt><trkpt lat="44.3643517" lon="10.157295"><ele>1023.0</ele><time>2026-04-19T10:20:41.977Z</time></trkpt><trkpt lat="44.3642133" lon="10.1574233"><ele>1028.0</ele><time>2026-04-19T10:20:42.977Z</time></trkpt><trkpt lat="44.3640733" lon="10.1575417"><ele>1033.0</ele><time>2026-04-19T10:20:43.977Z</time></trkpt><trkpt lat="44.3639233" lon="10.1576383"><ele>1038.0</ele><time>2026-04-19T10:20:44.977Z</time></trkpt><trkpt lat="44.36377" lon="10.1577133"><ele>1038.3333333333333</ele><time>2026-04-19T10:20:45.977Z</time></trkpt><trkpt lat="44.3636083" lon="10.157755"><ele>1038.6666666666665</ele><time>2026-04-19T10:20:46.977Z</time></trkpt><trkpt lat="44.363425" lon="10.1577717"><ele>1039.0</ele><time>2026-04-19T10:20:47.977Z</time></trkpt><trkpt lat="44.36325" lon="10.1577767"><ele>1039.0</ele><time>2026-04-19T10:20:48.977Z</time></trkpt><trkpt lat="44.3631" lon="10.1577733"><ele>1039.0</ele><time>2026-04-19T10:20:49.977Z</time></trkpt><trkpt lat="44.362965" lon="10.157775"><ele>1039.0</ele><time>2026-04-19T10:20:50.977Z</time></trkpt><trkpt lat="44.3628383" lon="10.15778"><ele>1039.0</ele><time>2026-04-19T10:20:51.977Z</time></trkpt><trkpt lat="44.3627033" lon="10.1578017"><ele>1040.75</ele><time>2026-04-19T10:20:52.977Z</time></trkpt><trkpt lat="44.362575" lon="10.157795"><ele>1042.5</ele><time>2026-04-19T10:20:53.977Z</time></trkpt><trkpt lat="44.3624383" lon="10.1577733"><ele>1044.25</ele><time>2026-04-19T10:20:54.977Z</time></trkpt><trkpt lat="44.36232" lon="10.1577167"><ele>1046.0</ele><time>2026-04-19T10:20:55.977Z</time></trkpt><trkpt lat="44.3622167" lon="10.1576083"><ele>1051.75</ele><time>2026-04-19T10:20:56.977Z</time></trkpt><trkpt lat="44.3621333" lon="10.1574567"><ele>1057.5</ele><time>2026-04-19T10:20:57.977Z</time></trkpt><trkpt lat="44.36208" lon="10.1572833"><ele>1063.25</ele><time>2026-04-19T10:20:58.977Z</time></trkpt><trkpt lat="44.3620533" lon="10.1570933"><ele>1069.0</ele><time>2026-04-19T10:20:59.977Z</time></trkpt><trkpt lat="44.3620467" lon="10.156885"><ele>1068.0</ele><time>2026-04-19T10:21:00.977Z</time></trkpt><trkpt lat="44.362025" lon="10.1566883"><ele>1067.0</ele><time>2026-04-19T10:21:01.977Z</time></trkpt><trkpt lat="44.362" lon="10.1564917"><ele>1066.0</ele><time>2026-04-19T10:21:02.977Z</time></trkpt><trkpt lat="44.3619733" lon="10.1562917"><ele>1065.0</ele><time>2026-04-19T10:21:03.977Z</time></trkpt><trkpt lat="44.3619233" lon="10.156095"><ele>1065.0</ele><time>2026-04-19T10:21:04.977Z</time></trkpt><trkpt lat="44.36186" lon="10.1559133"><ele>1065.0</ele><time>2026-04-19T10:21:05.977Z</time></trkpt><trkpt lat="44.3617833" lon="10.155725"><ele>1065.0</ele><time>2026-04-19T10:21:06.977Z</time></trkpt><trkpt lat="44.3617067" lon="10.155525"><ele>1059.3333333333333</ele><time>2026-04-19T10:21:07.977Z</time></trkpt><trkpt lat="44.3616217" lon="10.1553317"><ele>1053.6666666666665</ele><time>2026-04-19T10:21:08.977Z</time></trkpt><trkpt lat="44.3615383" lon="10.1551433"><ele>1048.0</ele><time>2026-04-19T10:21:09.977Z</time></trkpt><trkpt lat="44.361465" lon="10.1549533"><ele>1046.75</ele><time>2026-04-19T10:21:10.977Z</time></trkpt><trkpt lat="44.3613867" lon="10.1547733"><ele>1045.5</ele><time>2026-04-19T10:21:11.977Z</time></trkpt><trkpt lat="44.3613083" lon="10.1546"><ele>1044.25</ele><time>2026-04-19T10:21:12.977Z</time></trkpt><trkpt lat="44.361215" lon="10.1544533"><ele>1043.0</ele><time>2026-04-19T10:21:13.977Z</time></trkpt><trkpt lat="44.36111" lon="10.1543467"><ele>1047.75</ele><time>2026-04-19T10:21:14.977Z</time></trkpt><trkpt lat="44.3609933" lon="10.1542817"><ele>1052.5</ele><time>2026-04-19T10:21:15.977Z</time></trkpt><trkpt lat="44.3608633" lon="10.1542583"><ele>1057.25</ele><time>2026-04-19T10:21:16.977Z</time></trkpt><trkpt lat="44.360725" lon="10.1542767"><ele>1062.0</ele><time>2026-04-19T10:21:17.977Z</time></trkpt><trkpt lat="44.36059" lon="10.1543333"><ele>1058.3333333333333</ele><time>2026-04-19T10:21:18.977Z</time></trkpt><trkpt lat="44.3604667" lon="10.1544283"><ele>1054.6666666666665</ele><time>2026-04-19T10:21:19.977Z</time></trkpt><trkpt lat="44.3603433" lon="10.1545617"><ele>1051.0</ele><time>2026-04-19T10:21:20.977Z</time></trkpt><trkpt lat="44.3602283" lon="10.154725"><ele>1057.0</ele><time>2026-04-19T10:21:21.977Z</time></trkpt><trkpt lat="44.3601183" lon="10.1548867"><ele>1063.0</ele><time>2026-04-19T10:21:22.977Z</time></trkpt><trkpt lat="44.36002" lon="10.1550733"><ele>1069.0</ele><time>2026-04-19T10:21:23.977Z</time></trkpt><trkpt lat="44.3599017" lon="10.155245"><ele>1069.0</ele><time>2026-04-19T10:21:24.977Z</time></trkpt><trkpt lat="44.3597833" lon="10.155405"><ele>1069.0</ele><time>2026-04-19T10:21:25.977Z</time></trkpt><trkpt lat="44.359645" lon="10.1555433"><ele>1069.0</ele><time>2026-04-19T10:21:26.977Z</time></trkpt><trkpt lat="44.3594767" lon="10.155675"><ele>1046.0</ele><time>2026-04-19T10:21:27.977Z</time></trkpt><trkpt lat="44.362965" lon="10.157775"><ele>1046.0</ele><time>2026-04-19T10:20:50.977Z</time></trkpt><trkpt lat="44.3628383" lon="10.15778"><ele>1046.0</ele><time>2026-04-19T10:20:51.977Z</time></trkpt><trkpt lat="44.3627033" lon="10.1578017"><ele>1046.0</ele><time>2026-04-19T10:20:52.977Z</time></trkpt><trkpt lat="44.362575" lon="10.157795"><ele>1046.0</ele><time>2026-04-19T10:20:53.977Z</time></trkpt><trkpt lat="44.3624383" lon="10.1577733"><ele>1046.0</ele><time>2026-04-19T10:20:54.977Z</time></trkpt><trkpt lat="44.36232" lon="10.1577167"><ele>1046.0</ele><time>2026-04-19T10:20:55.977Z</time></trkpt><trkpt lat="44.3622167" lon="10.1576083"><ele>1046.0</ele><time>2026-04-19T10:20:56.977Z</time></trkpt><trkpt lat="44.3621333" lon="10.1574567"><ele>1046.0</ele><time>2026-04-19T10:20:57.977Z</time></trkpt><trkpt lat="44.36208" lon="10.1572833"><ele>1050.75</ele><time>2026-04-19T10:20:58.977Z</time></trkpt><trkpt lat="44.3620533" lon="10.1570933"><ele>1055.5</ele><time>2026-04-19T10:20:59.977Z</time></trkpt><trkpt lat="44.3620467" lon="10.156885"><ele>1060.25</ele><time>2026-04-19T10:21:00.977Z</time></trkpt><trkpt lat="44.362025" lon="10.1566883"><ele>1065.0</ele><time>2026-04-19T10:21:01.977Z</time></trkpt><trkpt lat="44.362" lon="10.1564917"><ele>1065.0</ele><time>2026-04-19T10:21:02.977Z</time></trkpt><trkpt lat="44.3619733" lon="10.1562917"><ele>1065.0</ele><time>2026-04-19T10:21:03.977Z</time></trkpt><trkpt lat="44.3619233" lon="10.156095"><ele>1065.0</ele><time>2026-04-19T10:21:04.977Z</time></trkpt><trkpt lat="44.36186" lon="10.1559133"><ele>1065.0</ele><time>2026-04-19T10:21:05.977Z</time></trkpt><trkpt lat="44.3617833" lon="10.155725"><ele>1059.3333333333333</ele><time>2026-04-19T10:21:06.977Z</time></trkpt><trkpt lat="44.3617067" lon="10.155525"><ele>1053.6666666666665</ele><time>2026-04-19T10:21:07.977Z</time></trkpt><trkpt lat="44.3616217" lon="10.1553317"><ele>1048.0</ele><time>2026-04-19T10:21:08.977Z</time></trkpt><trkpt lat="44.3615383" lon="10.1551433"><ele>1048.0</ele><time>2026-04-19T10:21:09.977Z</time></trkpt><trkpt lat="44.361465" lon="10.1549533"><ele>1048.0</ele><time>2026-04-19T10:21:10.977Z</time></trkpt><trkpt lat="44.3613867" lon="10.1547733"><ele>1048.0</ele><time>2026-04-19T10:21:11.977Z</time></trkpt><trkpt lat="44.3613083" lon="10.1546"><ele>1051.5</ele><time>2026-04-19T10:21:12.977Z</time></trkpt><trkpt lat="44.361215" lon="10.1544533"><ele>1055.0</ele><time>2026-04-19T10:21:13.977Z</time></trkpt><trkpt lat="44.36111" lon="10.1543467"><ele>1058.5</ele><time>2026-04-19T10:21:14.977Z</time></trkpt><trkpt lat="44.3609933" lon="10.1542817"><ele>1062.0</ele><time>2026-04-19T10:21:15.977Z</time></trkpt><trkpt lat="44.3608633" lon="10.1542583"><ele>1062.0</ele><time>2026-04-19T10:21:16.977Z</time></trkpt><trkpt lat="44.360725" lon="10.1542767"><ele>1062.0</ele><time>2026-04-19T10:21:17.977Z</time></trkpt><trkpt lat="44.36059" lon="10.1543333"><ele>1062.0</ele><time>2026-04-19T10:21:18.977Z</time></trkpt><trkpt lat="44.3604667" lon="10.1544283"><ele>1062.0</ele><time>2026-04-19T10:21:19.977Z</time></trkpt><trkpt lat="44.3603433" lon="10.1545617"><ele>1064.3333333333333</ele><time>2026-04-19T10:21:20.977Z</time></trkpt><trkpt lat="44.3602283" lon="10.154725"><ele>1066.6666666666665</ele><time>2026-04-19T10:21:21.977Z</time></trkpt><trkpt lat="44.3601183" lon="10.1548867"><ele>1069.0</ele><time>2026-04-19T10:21:22.977Z</time></trkpt><trkpt lat="44.36002" lon="10.1550733"><ele>1069.0</ele><time>2026-04-19T10:21:23.977Z</time></trkpt><trkpt lat="44.3599017" lon="10.155245"><ele>1069.0</ele><time>2026-04-19T10:21:24.977Z</time></trkpt><trkpt lat="44.3597833" lon="10.155405"><ele>1069.0</ele><time>2026-04-19T10:21:25.977Z</time></trkpt><trkpt lat="44.359645" lon="10.1555433"><ele>1071.6666666666665</ele><time>2026-04-19T10:21:26.977Z</time></trkpt><trkpt lat="44.3594767" lon="10.155675"><ele>1074.3333333333333</ele><time>2026-04-19T10:21:27.977Z</time></trkpt><trkpt lat="44.35932" lon="10.15575"><ele>1077.0</ele><time>2026-04-19T10:21:28.977Z</time></trkpt><trkpt lat="44.3591667" lon="10.155805"><ele>1077.0</ele><time>2026-04-19T10:21:29.977Z</time></trkpt><trkpt lat="44.359015" lon="10.1558967"><ele>1077.0</ele><time>2026-04-19T10:21:30.977Z</time></trkpt><trkpt lat="44.35886" lon="10.15603"><ele>1077.0</ele><time>2026-04-19T10:21:31.977Z</time></trkpt><trkpt lat="44.3587317" lon="10.1561833"><ele>1074.0</ele><time>2026-04-19T10:21:32.977Z</time></trkpt><trkpt lat="44.3586017" lon="10.1563533"><ele>1071.0</ele><time>2026-04-19T10:21:33.977Z</time></trkpt><trkpt lat="44.3584733" lon="10.1565183"><ele>1068.0</ele><time>2026-04-19T10:21:34.977Z</time></trkpt><trkpt lat="44.3583383" lon="10.1566633"><ele>1074.6666666666667</ele><time>2026-04-19T10:21:35.978Z</time></trkpt><trkpt lat="44.3581767" lon="10.1567417"><ele>1081.3333333333335</ele><time>2026-04-19T10:21:36.977Z</time></trkpt><trkpt lat="44.3580283" lon="10.1567983"><ele>1088.0</ele><time>2026-04-19T10:21:37.977Z</time></trkpt><trkpt lat="44.3578583" lon="10.1568233"><ele>1088.3333333333335</ele><time>2026-04-19T10:21:38.977Z</time></trkpt><trkpt lat="44.357685" lon="10.156815"><ele>1088.6666666666667</ele><time>2026-04-19T10:21:39.977Z</time></trkpt><trkpt lat="44.357495" lon="10.1567817"><ele>1089.0</ele><time>2026-04-19T10:21:40.977Z</time></trkpt><trkpt lat="44.3573217" lon="10.15673"><ele>1091.5</ele><time>2026-04-19T10:21:41.977Z</time></trkpt><trkpt lat="44.3571617" lon="10.1567033"><ele>1094.0</ele><time>2026-04-19T10:21:42.977Z</time></trkpt><trkpt lat="44.35702" lon="10.1566933"><ele>1096.5</ele><time>2026-04-19T10:21:43.977Z</time></trkpt><trkpt lat="44.3568933" lon="10.15667"><ele>1099.0</ele><time>2026-04-19T10:21:44.977Z</time></trkpt><trkpt lat="44.3567767" lon="10.156625"><ele>1099.0</ele><time>2026-04-19T10:21:45.977Z</time></trkpt><trkpt lat="44.3566717" lon="10.156555"><ele>1099.0</ele><time>2026-04-19T10:21:46.977Z</time></trkpt><trkpt lat="44.3565883" lon="10.1564733"><ele>1099.0</ele><time>2026-04-19T10:21:47.977Z</time></trkpt><trkpt lat="44.356535" lon="10.1563567"><ele>1099.0</ele><time>2026-04-19T10:21:48.977Z</time></trkpt><trkpt lat="44.3565" lon="10.15622"><ele>1099.0</ele><time>2026-04-19T10:21:49.977Z</time></trkpt><trkpt lat="44.3564883" lon="10.1560567"><ele>1099.75</ele><time>2026-04-19T10:21:50.977Z</time></trkpt><trkpt lat="44.3564883" lon="10.15588"><ele>1100.5</ele><time>2026-04-19T10:21:51.977Z</time></trkpt><trkpt lat="44.356495" lon="10.1556867"><ele>1101.25</ele><time>2026-04-19T10:21:52.977Z</time></trkpt><trkpt lat="44.35651" lon="10.15547"><ele>1102.0</ele><time>2026-04-19T10:21:53.977Z</time></trkpt><trkpt lat="44.356535" lon="10.1552617"><ele>1102.0</ele><time>2026-04-19T10:21:54.978Z</time></trkpt><trkpt lat="44.35655" lon="10.1550617"><ele>1102.0</ele><time>2026-04-19T10:21:55.977Z</time></trkpt><trkpt lat="44.35658" lon="10.154865"><ele>1102.0</ele><time>2026-04-19T10:21:56.977Z</time></trkpt><trkpt lat="44.3566267" lon="10.1546817"><ele>1102.0</ele><time>2026-04-19T10:21:57.977Z</time></trkpt><trkpt lat="44.3566983" lon="10.1545083"><ele>1107.6666666666665</ele><time>2026-04-19T10:21:58.977Z</time></trkpt><trkpt lat="44.3568067" lon="10.1543317"><ele>1113.3333333333333</ele><time>2026-04-19T10:21:59.977Z</time></trkpt><trkpt lat="44.3569317" lon="10.1541767"><ele>1119.0</ele><time>2026-04-19T10:22:00.977Z</time></trkpt><trkpt lat="44.35705" lon="10.15402"><ele>1114.6666666666667</ele><time>2026-04-19T10:22:01.977Z</time></trkpt><trkpt lat="44.35717" lon="10.1538733"><ele>1110.3333333333335</ele><time>2026-04-19T10:22:02.977Z</time></trkpt><trkpt lat="44.3572667" lon="10.15371"><ele>1106.0</ele><time>2026-04-19T10:22:03.977Z</time></trkpt><trkpt lat="44.3573283" lon="10.15352"><ele>1106.0</ele><time>2026-04-19T10:22:04.977Z</time></trkpt><trkpt lat="44.3573767" lon="10.1533183"><ele>1106.0</ele><time>2026-04-19T10:22:05.977Z</time></trkpt><trkpt lat="44.3574067" lon="10.1531183"><ele>1106.0</ele><time>2026-04-19T10:22:06.977Z</time></trkpt><trkpt lat="44.3574217" lon="10.152945"><ele>1106.0</ele><time>2026-04-19T10:22:07.977Z</time></trkpt><trkpt lat="44.357415" lon="10.1527817"><ele>1106.25</ele><time>2026-04-19T10:22:08.977Z</time></trkpt><trkpt lat="44.3573817" lon="10.1526367"><ele>1106.5</ele><time>2026-04-19T10:22:09.977Z</time></trkpt><trkpt lat="44.3573217" lon="10.1525"><ele>1106.75</ele><time>2026-04-19T10:22:10.977Z</time></trkpt><trkpt lat="44.3572333" lon="10.152395"><ele>1107.0</ele><time>2026-04-19T10:22:11.978Z</time></trkpt><trkpt lat="44.3571267" lon="10.15233"><ele>1109.75</ele><time>2026-04-19T10:22:12.977Z</time></trkpt><trkpt lat="44.357005" lon="10.1523033"><ele>1112.5</ele><time>2026-04-19T10:22:13.977Z</time></trkpt><trkpt lat="44.35686" lon="10.1523283"><ele>1115.25</ele><time>2026-04-19T10:22:14.977Z</time></trkpt><trkpt lat="44.356705" lon="10.1523717"><ele>1118.0</ele><time>2026-04-19T10:22:15.977Z</time></trkpt><trkpt lat="44.3565433" lon="10.152435"><ele>1118.0</ele><time>2026-04-19T10:22:16.977Z</time></trkpt><trkpt lat="44.356385" lon="10.152485"><ele>1118.0</ele><time>2026-04-19T10:22:17.977Z</time></trkpt><trkpt lat="44.356245" lon="10.1525083"><ele>1118.0</ele><time>2026-04-19T10:22:18.977Z</time></trkpt><trkpt lat="44.3561117" lon="10.1525183"><ele>1118.0</ele><time>2026-04-19T10:22:19.977Z</time></trkpt><trkpt lat="44.35598" lon="10.1525"><ele>1116.25</ele><time>2026-04-19T10:22:20.977Z</time></trkpt><trkpt lat="44.355855" lon="10.15244"><ele>1114.5</ele><time>2026-04-19T10:22:21.977Z</time></trkpt><trkpt lat="44.3557367" lon="10.152325"><ele>1112.75</ele><time>2026-04-19T10:22:22.977Z</time></trkpt><trkpt lat="44.3556467" lon="10.1521617"><ele>1111.0</ele><time>2026-04-19T10:22:23.977Z</time></trkpt><trkpt lat="44.355565" lon="10.1519733"><ele>1123.3333333333333</ele><time>2026-04-19T10:22:24.977Z</time></trkpt><trkpt lat="44.3555233" lon="10.151745"><ele>1135.6666666666667</ele><time>2026-04-19T10:22:25.977Z</time></trkpt><trkpt lat="44.3554783" lon="10.1515267"><ele>1148.0</ele><time>2026-04-19T10:22:26.977Z</time></trkpt><trkpt lat="44.3554383" lon="10.151315"><ele>1148.6666666666667</ele><time>2026-04-19T10:22:27.977Z</time></trkpt><trkpt lat="44.3553983" lon="10.151105"><ele>1149.3333333333333</ele><time>2026-04-19T10:22:28.977Z</time></trkpt><trkpt lat="44.3553533" lon="10.1509017"><ele>1150.0</ele><time>2026-04-19T10:22:29.977Z</time></trkpt><trkpt lat="44.35532" lon="10.1506933"><ele>1151.3333333333333</ele><time>2026-04-19T10:22:30.977Z</time></trkpt><trkpt lat="44.3553" lon="10.150465"><ele>1152.6666666666667</ele><time>2026-04-19T10:22:31.977Z</time></trkpt><trkpt lat="44.3552717" lon="10.15024"><ele>1154.0</ele><time>2026-04-19T10:22:32.977Z</time></trkpt><trkpt lat="44.3552433" lon="10.1499817"><ele>1152.6666666666667</ele><time>2026-04-19T10:22:33.977Z</time></trkpt><trkpt lat="44.3552083" lon="10.1497067"><ele>1151.3333333333333</ele><time>2026-04-19T10:22:34.977Z</time></trkpt><trkpt lat="44.3551817" lon="10.149385"><ele>1150.0</ele><time>2026-04-19T10:22:35.977Z</time></trkpt><trkpt lat="44.355155" lon="10.1490733"><ele>1149.3333333333333</ele><time>2026-04-19T10:22:36.977Z</time></trkpt><trkpt lat="44.355135" lon="10.148765"><ele>1148.6666666666667</ele><time>2026-04-19T10:22:37.977Z</time></trkpt><trkpt lat="44.3551217" lon="10.1484883"><ele>1148.0</ele><time>2026-04-19T10:22:38.977Z</time></trkpt><trkpt lat="44.3551183" lon="10.14821"><ele>1147.6666666666667</ele><time>2026-04-19T10:22:39.977Z</time></trkpt><trkpt lat="44.355115" lon="10.1479517"><ele>1147.3333333333333</ele><time>2026-04-19T10:22:40.978Z</time></trkpt><trkpt lat="44.3551" lon="10.1477117"><ele>1147.0</ele><time>2026-04-19T10:22:41.977Z</time></trkpt><trkpt lat="44.3550767" lon="10.1474667"><ele>1146.0</ele><time>2026-04-19T10:22:42.977Z</time></trkpt><trkpt lat="44.3550383" lon="10.1472167"><ele>1145.0</ele><time>2026-04-19T10:22:43.977Z</time></trkpt><trkpt lat="44.355" lon="10.14696"><ele>1144.0</ele><time>2026-04-19T10:22:44.977Z</time></trkpt><trkpt lat="44.3549517" lon="10.1466933"><ele>1142.3333333333333</ele><time>2026-04-19T10:22:45.977Z</time></trkpt><trkpt lat="44.3548883" lon="10.1464267"><ele>1140.6666666666667</ele><time>2026-04-19T10:22:46.977Z</time></trkpt><trkpt lat="44.3548383" lon="10.1461633"><ele>1139.0</ele><time>2026-04-19T10:22:47.977Z</time></trkpt><trkpt lat="44.3547867" lon="10.1459133"><ele>1136.3333333333335</ele><time>2026-04-19T10:22:48.977Z</time></trkpt><trkpt lat="44.3547383" lon="10.14567"><ele>1133.6666666666667</ele><time>2026-04-19T10:22:49.977Z</time></trkpt><trkpt lat="44.3546983" lon="10.145445"><ele>1131.0</ele><time>2026-04-19T10:22:50.977Z</time></trkpt><trkpt lat="44.3546567" lon="10.145235"><ele>1135.0</ele><time>2026-04-19T10:22:51.977Z</time></trkpt><trkpt lat="44.3546283" lon="10.145025"><ele>1139.0</ele><time>2026-04-19T10:22:52.977Z</time></trkpt><trkpt lat="44.3545783" lon="10.14483"><ele>1143.0</ele><time>2026-04-19T10:22:53.977Z</time></trkpt><trkpt lat="44.3545067" lon="10.1446467"><ele>1143.0</ele><time>2026-04-19T10:22:54.977Z</time></trkpt><trkpt lat="44.3544033" lon="10.1444733"><ele>1143.0</ele><time>2026-04-19T10:22:55.978Z</time></trkpt><trkpt lat="44.3542767" lon="10.1443383"><ele>1143.0</ele><time>2026-04-19T10:22:56.977Z</time></trkpt><trkpt lat="44.3541267" lon="10.14422"><ele>1143.0</ele><time>2026-04-19T10:22:57.977Z</time></trkpt><trkpt lat="44.3539717" lon="10.14412"><ele>1143.0</ele><time>2026-04-19T10:22:58.977Z</time></trkpt><trkpt lat="44.35381" lon="10.1440233"><ele>1143.0</ele><time>2026-04-19T10:22:59.977Z</time></trkpt><trkpt lat="44.3536533" lon="10.1439317"><ele>1140.3333333333333</ele><time>2026-04-19T10:23:00.977Z</time></trkpt><trkpt lat="44.3535033" lon="10.1438367"><ele>1137.6666666666665</ele><time>2026-04-19T10:23:01.977Z</time></trkpt><trkpt lat="44.3533483" lon="10.143735"><ele>1135.0</ele><time>2026-04-19T10:23:02.977Z</time></trkpt><trkpt lat="44.35319" lon="10.1436383"><ele>1144.0</ele><time>2026-04-19T10:23:03.977Z</time></trkpt><trkpt lat="44.3530333" lon="10.143545"><ele>1153.0</ele><time>2026-04-19T10:23:04.977Z</time></trkpt><trkpt lat="44.352895" lon="10.1434533"><ele>1162.0</ele><time>2026-04-19T10:23:05.977Z</time></trkpt><trkpt lat="44.352765" lon="10.1433717"><ele>1162.0</ele><time>2026-04-19T10:23:06.977Z</time></trkpt><trkpt lat="44.3526417" lon="10.1432983"><ele>1162.0</ele><time>2026-04-19T10:23:07.977Z</time></trkpt><trkpt lat="44.3525283" lon="10.1432217"><ele>1162.0</ele><time>2026-04-19T10:23:08.977Z</time></trkpt><trkpt lat="44.35242" lon="10.1431367"><ele>1162.0</ele><time>2026-04-19T10:23:09.977Z</time></trkpt><trkpt lat="44.3523033" lon="10.143045"><ele>1162.5</ele><time>2026-04-19T10:23:10.977Z</time></trkpt><trkpt lat="44.3521917" lon="10.1429467"><ele>1163.0</ele><time>2026-04-19T10:23:11.977Z</time></trkpt><trkpt lat="44.3520883" lon="10.1428417"><ele>1163.5</ele><time>2026-04-19T10:23:12.977Z</time></trkpt><trkpt lat="44.3519917" lon="10.1427283"><ele>1164.0</ele><time>2026-04-19T10:23:13.977Z</time></trkpt><trkpt lat="44.3518933" lon="10.14261"><ele>1164.0</ele><time>2026-04-19T10:23:14.977Z</time></trkpt><trkpt lat="44.351795" lon="10.14249"><ele>1164.0</ele><time>2026-04-19T10:23:15.977Z</time></trkpt><trkpt lat="44.3517067" lon="10.1423833"><ele>1164.0</ele><time>2026-04-19T10:23:16.977Z</time></trkpt><trkpt lat="44.35162" lon="10.14229"><ele>1164.0</ele><time>2026-04-19T10:23:17.977Z</time></trkpt><trkpt lat="44.3515367" lon="10.1422033"><ele>1165.5</ele><time>2026-04-19T10:23:18.977Z</time></trkpt><trkpt lat="44.3514617" lon="10.142125"><ele>1167.0</ele><time>2026-04-19T10:23:19.977Z</time></trkpt><trkpt lat="44.3513917" lon="10.1420433"><ele>1168.5</ele><time>2026-04-19T10:23:20.977Z</time></trkpt><trkpt lat="44.3513267" lon="10.141955"><ele>1170.0</ele><time>2026-04-19T10:23:21.977Z</time></trkpt><trkpt lat="44.351265" lon="10.1418767"><ele>1171.5</ele><time>2026-04-19T10:23:22.977Z</time></trkpt><trkpt lat="44.3512217" lon="10.141795"><ele>1173.0</ele><time>2026-04-19T10:23:23.977Z</time></trkpt><trkpt lat="44.351195" lon="10.1416983"><ele>1173.0</ele><time>2026-04-19T10:23:24.977Z</time></trkpt><trkpt lat="44.35119" lon="10.1415933"><ele>1173.0</ele><time>2026-04-19T10:23:25.977Z</time></trkpt><trkpt lat="44.3512" lon="10.1414833"><ele>1173.0</ele><time>2026-04-19T10:23:26.977Z</time></trkpt><trkpt lat="44.35122" lon="10.14138"><ele>1173.0</ele><time>2026-04-19T10:23:27.977Z</time></trkpt><trkpt lat="44.3512633" lon="10.1412433"><ele>1173.0</ele><time>2026-04-19T10:23:29.977Z</time></trkpt><trkpt lat="44.3512967" lon="10.1411417"><ele>1173.0</ele><time>2026-04-19T10:23:31.977Z</time></trkpt><trkpt lat="44.3513217" lon="10.14105"><ele>1169.8</ele><time>2026-04-19T10:23:33.977Z</time></trkpt><trkpt lat="44.3513467" lon="10.1409567"><ele>1166.6</ele><time>2026-04-19T10:23:35.977Z</time></trkpt><trkpt lat="44.3513867" lon="10.1408533"><ele>1163.4</ele><time>2026-04-19T10:23:38.977Z</time></trkpt><trkpt lat="44.3514417" lon="10.140685"><ele>1160.2</ele><time>2026-04-19T10:24:49.977Z</time></trkpt><trkpt lat="44.351485" lon="10.1405233"><ele>1157.0</ele><time>2026-04-19T10:24:51.977Z</time></trkpt><trkpt lat="44.3515117" lon="10.140435"><ele>1156.8333333333335</ele><time>2026-04-19T10:24:52.977Z</time></trkpt><trkpt lat="44.3515417" lon="10.14034"><ele>1156.6666666666667</ele><time>2026-04-19T10:24:53.977Z</time></trkpt><trkpt lat="44.351575" lon="10.1402433"><ele>1156.5</ele><time>2026-04-19T10:24:54.978Z</time></trkpt><trkpt lat="44.351605" lon="10.140155"><ele>1156.3333333333333</ele><time>2026-04-19T10:24:55.977Z</time></trkpt><trkpt lat="44.35165" lon="10.1400333"><ele>1156.1666666666665</ele><time>2026-04-19T10:24:57.977Z</time></trkpt><trkpt lat="44.3516833" lon="10.1399267"><ele>1156.0</ele><time>2026-04-19T10:25:20.977Z</time></trkpt><trkpt lat="44.3516983" lon="10.1398317"><ele>1160.2</ele><time>2026-04-19T10:25:25.977Z</time></trkpt><trkpt lat="44.3516533" lon="10.1396917"><ele>1164.3999999999999</ele><time>2026-04-19T10:25:27.977Z</time></trkpt><trkpt lat="44.351605" lon="10.1395933"><ele>1168.6</ele><time>2026-04-19T10:25:28.977Z</time></trkpt><trkpt lat="44.35156" lon="10.1394683"><ele>1172.8</ele><time>2026-04-19T10:25:29.977Z</time></trkpt><trkpt lat="44.3515083" lon="10.1393283"><ele>1177.0</ele><time>2026-04-19T10:25:30.977Z</time></trkpt><trkpt lat="44.35146" lon="10.1391733"><ele>1174.5</ele><time>2026-04-19T10:25:31.977Z</time></trkpt><trkpt lat="44.3514067" lon="10.139025"><ele>1172.0</ele><time>2026-04-19T10:25:32.978Z</time></trkpt><trkpt lat="44.3513533" lon="10.1388817"><ele>1169.5</ele><time>2026-04-19T10:25:33.977Z</time></trkpt><trkpt lat="44.3512933" lon="10.13873"><ele>1167.0</ele><time>2026-04-19T10:25:34.977Z</time></trkpt><trkpt lat="44.3512233" lon="10.1386017"><ele>1167.0</ele><time>2026-04-19T10:25:35.977Z</time></trkpt><trkpt lat="44.3511433" lon="10.13848"><ele>1167.0</ele><time>2026-04-19T10:25:36.977Z</time></trkpt><trkpt lat="44.3510367" lon="10.1383733"><ele>1167.0</ele><time>2026-04-19T10:25:37.977Z</time></trkpt><trkpt lat="44.35091" lon="10.138295"><ele>1167.0</ele><time>2026-04-19T10:25:38.977Z</time></trkpt><trkpt lat="44.3507767" lon="10.138205"><ele>1169.3333333333333</ele><time>2026-04-19T10:25:39.977Z</time></trkpt><trkpt lat="44.3506183" lon="10.1381317"><ele>1171.6666666666665</ele><time>2026-04-19T10:25:40.977Z</time></trkpt><trkpt lat="44.3504617" lon="10.1380467"><ele>1174.0</ele><time>2026-04-19T10:25:41.977Z</time></trkpt><trkpt lat="44.350315" lon="10.1379683"><ele>1174.0</ele><time>2026-04-19T10:25:42.977Z</time></trkpt><trkpt lat="44.3501733" lon="10.137885"><ele>1174.0</ele><time>2026-04-19T10:25:43.977Z</time></trkpt><trkpt lat="44.3500317" lon="10.1377967"><ele>1174.0</ele><time>2026-04-19T10:25:44.977Z</time></trkpt><trkpt lat="44.3499033" lon="10.137705"><ele>1174.0</ele><time>2026-04-19T10:25:45.977Z</time></trkpt><trkpt lat="44.3497733" lon="10.1376267"><ele>1174.0</ele><time>2026-04-19T10:25:46.977Z</time></trkpt><trkpt lat="44.3496467" lon="10.1375533"><ele>1174.0</ele><time>2026-04-19T10:25:47.977Z</time></trkpt><trkpt lat="44.3495217" lon="10.13749"><ele>1174.0</ele><time>2026-04-19T10:25:48.977Z</time></trkpt><trkpt lat="44.34939" lon="10.1374633"><ele>1173.6666666666665</ele><time>2026-04-19T10:25:49.977Z</time></trkpt><trkpt lat="44.3492433" lon="10.13746"><ele>1173.3333333333333</ele><time>2026-04-19T10:25:50.977Z</time></trkpt><trkpt lat="44.349095" lon="10.1374667"><ele>1173.0</ele><time>2026-04-19T10:25:51.977Z</time></trkpt><trkpt lat="44.34893" lon="10.1375"><ele>1173.6666666666667</ele><time>2026-04-19T10:25:52.977Z</time></trkpt><trkpt lat="44.3487617" lon="10.1375567"><ele>1174.3333333333335</ele><time>2026-04-19T10:25:53.977Z</time></trkpt><trkpt lat="44.3485883" lon="10.137605"><ele>1175.0</ele><time>2026-04-19T10:25:54.977Z</time></trkpt><trkpt lat="44.3484167" lon="10.1376433"><ele>1175.0</ele><time>2026-04-19T10:25:55.977Z</time></trkpt><trkpt lat="44.348255" lon="10.137685"><ele>1175.0</ele><time>2026-04-19T10:25:56.977Z</time></trkpt><trkpt lat="44.3481067" lon="10.1377033"><ele>1175.0</ele><time>2026-04-19T10:25:57.977Z</time></trkpt><trkpt lat="44.34796" lon="10.1377417"><ele>1176.75</ele><time>2026-04-19T10:25:58.977Z</time></trkpt><trkpt lat="44.3478283" lon="10.1377633"><ele>1178.5</ele><time>2026-04-19T10:25:59.977Z</time></trkpt><trkpt lat="44.3477033" lon="10.13778"><ele>1180.25</ele><time>2026-04-19T10:26:00.977Z</time></trkpt><trkpt lat="44.347575" lon="10.1378"><ele>1182.0</ele><time>2026-04-19T10:26:01.977Z</time></trkpt><trkpt lat="44.34744" lon="10.1377933"><ele>1182.0</ele><time>2026-04-19T10:26:02.977Z</time></trkpt><trkpt lat="44.3473117" lon="10.1377717"><ele>1182.0</ele><time>2026-04-19T10:26:03.977Z</time></trkpt><trkpt lat="44.34718" lon="10.1376933"><ele>1182.0</ele><time>2026-04-19T10:26:04.977Z</time></trkpt><trkpt lat="44.3470517" lon="10.1375817"><ele>1182.0</ele><time>2026-04-19T10:26:05.977Z</time></trkpt><trkpt lat="44.3469217" lon="10.13743"><ele>1183.0</ele><time>2026-04-19T10:26:06.977Z</time></trkpt><trkpt lat="44.34679" lon="10.1372683"><ele>1184.0</ele><time>2026-04-19T10:26:07.977Z</time></trkpt><trkpt lat="44.3466683" lon="10.1371167"><ele>1185.0</ele><time>2026-04-19T10:26:08.977Z</time></trkpt><trkpt lat="44.3465667" lon="10.136975"><ele>1185.0</ele><time>2026-04-19T10:26:09.977Z</time></trkpt><trkpt lat="44.3464883" lon="10.1368"><ele>1185.0</ele><time>2026-04-19T10:26:10.977Z</time></trkpt><trkpt lat="44.346425" lon="10.1366167"><ele>1185.0</ele><time>2026-04-19T10:26:11.977Z</time></trkpt><trkpt lat="44.3463967" lon="10.1364217"><ele>1185.0</ele><time>2026-04-19T10:26:12.977Z</time></trkpt><trkpt lat="44.34639" lon="10.1362017"><ele>1185.5</ele><time>2026-04-19T10:26:13.977Z</time></trkpt><trkpt lat="44.3463783" lon="10.1359867"><ele>1186.0</ele><time>2026-04-19T10:26:14.977Z</time></trkpt><trkpt lat="44.346355" lon="10.1357917"><ele>1186.5</ele><time>2026-04-19T10:26:15.977Z</time></trkpt><trkpt lat="44.346305" lon="10.1356183"><ele>1187.0</ele><time>2026-04-19T10:26:16.977Z</time></trkpt><trkpt lat="44.346225" lon="10.135445"><ele>1187.0</ele><time>2026-04-19T10:26:17.978Z</time></trkpt><trkpt lat="44.34613" lon="10.1352717"><ele>1187.0</ele><time>2026-04-19T10:26:18.977Z</time></trkpt><trkpt lat="44.3460317" lon="10.135105"><ele>1187.0</ele><time>2026-04-19T10:26:19.977Z</time></trkpt><trkpt lat="44.3459267" lon="10.134965"><ele>1189.5</ele><time>2026-04-19T10:26:20.977Z</time></trkpt><trkpt lat="44.3458283" lon="10.13482"><ele>1192.0</ele><time>2026-04-19T10:26:21.977Z</time></trkpt><trkpt lat="44.3457367" lon="10.1346833"><ele>1194.5</ele><time>2026-04-19T10:26:22.977Z</time></trkpt><trkpt lat="44.345655" lon="10.13457"><ele>1197.0</ele><time>2026-04-19T10:26:23.977Z</time></trkpt><trkpt lat="44.345565" lon="10.1344767"><ele>1197.75</ele><time>2026-04-19T10:26:24.977Z</time></trkpt><trkpt lat="44.3454717" lon="10.1344117"><ele>1198.5</ele><time>2026-04-19T10:26:25.977Z</time></trkpt><trkpt lat="44.345365" lon="10.1343933"><ele>1199.25</ele><time>2026-04-19T10:26:26.977Z</time></trkpt><trkpt lat="44.3452517" lon="10.1343883"><ele>1200.0</ele><time>2026-04-19T10:26:27.977Z</time></trkpt><trkpt lat="44.3451233" lon="10.1344133"><ele>1200.0</ele><time>2026-04-19T10:26:28.977Z</time></trkpt><trkpt lat="44.344995" lon="10.1344633"><ele>1200.0</ele><time>2026-04-19T10:26:29.977Z</time></trkpt><trkpt lat="44.344865" lon="10.1344967"><ele>1200.0</ele><time>2026-04-19T10:26:30.977Z</time></trkpt><trkpt lat="44.3447467" lon="10.1344783"><ele>1200.0</ele><time>2026-04-19T10:26:31.977Z</time></trkpt><trkpt lat="44.3446383" lon="10.1344117"><ele>1200.5</ele><time>2026-04-19T10:26:32.977Z</time></trkpt><trkpt lat="44.3445583" lon="10.1342983"><ele>1201.0</ele><time>2026-04-19T10:26:33.977Z</time></trkpt><trkpt lat="44.3445017" lon="10.134135"><ele>1201.5</ele><time>2026-04-19T10:26:34.977Z</time></trkpt><trkpt lat="44.3444433" lon="10.133955"><ele>1202.0</ele><time>2026-04-19T10:26:35.977Z</time></trkpt><trkpt lat="44.3443783" lon="10.1337633"><ele>1202.0</ele><time>2026-04-19T10:26:36.977Z</time></trkpt><trkpt lat="44.344325" lon="10.1336033"><ele>1202.0</ele><time>2026-04-19T10:26:37.977Z</time></trkpt><trkpt lat="44.3442817" lon="10.133515"><ele>1202.0</ele><time>2026-04-19T10:26:38.977Z</time></trkpt><trkpt lat="44.3442233" lon="10.133455"><ele>1202.0</ele><time>2026-04-19T10:26:40.977Z</time></trkpt><trkpt lat="44.3439267" lon="10.13331"><ele>1203.0</ele><time>2026-04-19T10:27:18.977Z</time></trkpt><trkpt lat="44.3437917" lon="10.133245"><ele>1204.0</ele><time>2026-04-19T10:27:19.977Z</time></trkpt><trkpt lat="44.3436467" lon="10.1331583"><ele>1205.0</ele><time>2026-04-19T10:27:20.977Z</time></trkpt><trkpt lat="44.3435017" lon="10.13307"><ele>1205.0</ele><time>2026-04-19T10:27:21.977Z</time></trkpt><trkpt lat="44.3433617" lon="10.1329733"><ele>1205.0</ele><time>2026-04-19T10:27:22.977Z</time></trkpt><trkpt lat="44.3432283" lon="10.13288"><ele>1205.0</ele><time>2026-04-19T10:27:23.977Z</time></trkpt><trkpt lat="44.3430967" lon="10.1327883"><ele>1204.75</ele><time>2026-04-19T10:27:24.977Z</time></trkpt><trkpt lat="44.3429667" lon="10.1327083"><ele>1204.5</ele><time>2026-04-19T10:27:25.977Z</time></trkpt><trkpt lat="44.3428333" lon="10.132635"><ele>1204.25</ele><time>2026-04-19T10:27:26.977Z</time></trkpt><trkpt lat="44.3427167" lon="10.1325633"><ele>1204.0</ele><time>2026-04-19T10:27:27.977Z</time></trkpt><trkpt lat="44.3425867" lon="10.1325133"><ele>1204.0</ele><time>2026-04-19T10:27:28.977Z</time></trkpt><trkpt lat="44.3424583" lon="10.1325083"><ele>1204.0</ele><time>2026-04-19T10:27:29.977Z</time></trkpt><trkpt lat="44.34233" lon="10.13252"><ele>1204.0</ele><time>2026-04-19T10:27:30.977Z</time></trkpt><trkpt lat="44.3422017" lon="10.132575"><ele>1204.0</ele><time>2026-04-19T10:27:31.977Z</time></trkpt><trkpt lat="44.3420817" lon="10.1326383"><ele>1204.5</ele><time>2026-04-19T10:27:32.977Z</time></trkpt><trkpt lat="44.3419783" lon="10.1327417"><ele>1205.0</ele><time>2026-04-19T10:27:33.977Z</time></trkpt><trkpt lat="44.34188" lon="10.1328467"><ele>1205.5</ele><time>2026-04-19T10:27:34.977Z</time></trkpt><trkpt lat="44.3417817" lon="10.13296"><ele>1206.0</ele><time>2026-04-19T10:27:35.977Z</time></trkpt><trkpt lat="44.341665" lon="10.1330617"><ele>1206.0</ele><time>2026-04-19T10:27:36.977Z</time></trkpt><trkpt lat="44.341565" lon="10.1331183"><ele>1206.0</ele><time>2026-04-19T10:27:37.978Z</time></trkpt><trkpt lat="44.3414383" lon="10.133115"><ele>1206.0</ele><time>2026-04-19T10:27:38.977Z</time></trkpt><trkpt lat="44.3413167" lon="10.1330517"><ele>1206.0</ele><time>2026-04-19T10:27:39.977Z</time></trkpt><trkpt lat="44.341205" lon="10.1329383"><ele>1204.25</ele><time>2026-04-19T10:27:40.977Z</time></trkpt><trkpt lat="44.3411483" lon="10.132755"><ele>1202.5</ele><time>2026-04-19T10:27:41.978Z</time></trkpt><trkpt lat="44.3411317" lon="10.1325583"><ele>1200.75</ele><time>2026-04-19T10:27:42.977Z</time></trkpt><trkpt lat="44.341155" lon="10.1323583"><ele>1199.0</ele><time>2026-04-19T10:27:43.977Z</time></trkpt><trkpt lat="44.3411533" lon="10.1321417"><ele>1199.0</ele><time>2026-04-19T10:27:44.977Z</time></trkpt><trkpt lat="44.341145" lon="10.13193"><ele>1199.0</ele><time>2026-04-19T10:27:45.977Z</time></trkpt><trkpt lat="44.3411" lon="10.13173"><ele>1199.0</ele><time>2026-04-19T10:27:46.977Z</time></trkpt><trkpt lat="44.3410283" lon="10.1315367"><ele>1203.0</ele><time>2026-04-19T10:27:47.977Z</time></trkpt><trkpt lat="44.34093" lon="10.131335"><ele>1207.0</ele><time>2026-04-19T10:27:48.977Z</time></trkpt><trkpt lat="44.3408167" lon="10.1311217"><ele>1211.0</ele><time>2026-04-19T10:27:49.977Z</time></trkpt><trkpt lat="44.34071" lon="10.1309517"><ele>1211.0</ele><time>2026-04-19T10:27:50.977Z</time></trkpt><trkpt lat="44.3405967" lon="10.1307917"><ele>1211.0</ele><time>2026-04-19T10:27:51.977Z</time></trkpt><trkpt lat="44.340505" lon="10.1306283"><ele>1211.0</ele><time>2026-04-19T10:27:52.977Z</time></trkpt><trkpt lat="44.34044" lon="10.1304717"><ele>1211.0</ele><time>2026-04-19T10:27:53.977Z</time></trkpt><trkpt lat="44.3403767" lon="10.130325"><ele>1209.2</ele><time>2026-04-19T10:27:54.977Z</time></trkpt><trkpt lat="44.3403483" lon="10.1301783"><ele>1207.3999999999999</ele><time>2026-04-19T10:27:55.977Z</time></trkpt><trkpt lat="44.3403367" lon="10.1300483"><ele>1205.6</ele><time>2026-04-19T10:27:56.977Z</time></trkpt><trkpt lat="44.340335" lon="10.1299367"><ele>1203.8</ele><time>2026-04-19T10:27:57.977Z</time></trkpt><trkpt lat="44.3403267" lon="10.1298383"><ele>1202.0</ele><time>2026-04-19T10:27:58.977Z</time></trkpt><trkpt lat="44.3402817" lon="10.1297083"><ele>1202.0</ele><time>2026-04-19T10:28:00.977Z</time></trkpt><trkpt lat="44.34019" lon="10.1297067"><ele>1202.0</ele><time>2026-04-19T10:28:03.977Z</time></trkpt><trkpt lat="44.3400983" lon="10.129775"><ele>1202.0</ele><time>2026-04-19T10:28:05.977Z</time></trkpt><trkpt lat="44.340035" lon="10.1298417"><ele>1202.0</ele><time>2026-04-19T10:28:07.977Z</time></trkpt><trkpt lat="44.33997" lon="10.129905"><ele>1202.0</ele><time>2026-04-19T10:28:09.977Z</time></trkpt><trkpt lat="44.3398933" lon="10.1299983"><ele>1202.0</ele><time>2026-04-19T10:28:11.977Z</time></trkpt><trkpt lat="44.3398467" lon="10.1300583"><ele>1202.0</ele><time>2026-04-19T10:28:12.977Z</time></trkpt><trkpt lat="44.3397883" lon="10.130135"><ele>1202.0</ele><time>2026-04-19T10:28:13.977Z</time></trkpt><trkpt lat="44.3397183" lon="10.1302217"><ele>1202.0</ele><time>2026-04-19T10:28:14.977Z</time></trkpt><trkpt lat="44.33964" lon="10.13031"><ele>1202.0</ele><time>2026-04-19T10:28:15.977Z</time></trkpt><trkpt lat="44.33956" lon="10.1304017"><ele>1202.0</ele><time>2026-04-19T10:28:16.977Z</time></trkpt><trkpt lat="44.33947" lon="10.1305"><ele>1203.2</ele><time>2026-04-19T10:28:17.977Z</time></trkpt><trkpt lat="44.3393733" lon="10.1306"><ele>1204.4</ele><time>2026-04-19T10:28:18.977Z</time></trkpt><trkpt lat="44.3392833" lon="10.1307017"><ele>1205.6</ele><time>2026-04-19T10:28:19.977Z</time></trkpt><trkpt lat="44.33921" lon="10.1307833"><ele>1206.8</ele><time>2026-04-19T10:28:20.977Z</time></trkpt><trkpt lat="44.339155" lon="10.130845"><ele>1208.0</ele><time>2026-04-19T10:28:21.977Z</time></trkpt><trkpt lat="44.3390817" lon="10.1309167"><ele>1208.0000000000002</ele><time>2026-04-19T10:28:23.977Z</time></trkpt><trkpt lat="44.3390517" lon="10.1310017"><ele>1208.0</ele><time>2026-04-19T10:28:25.977Z</time></trkpt><trkpt lat="44.3390283" lon="10.13114"><ele>1208.0</ele><time>2026-04-19T10:28:27.977Z</time></trkpt><trkpt lat="44.3390167" lon="10.1312283"><ele>1208.0</ele><time>2026-04-19T10:28:28.977Z</time></trkpt><trkpt lat="44.33901" lon="10.1313233"><ele>1208.0</ele><time>2026-04-19T10:28:29.977Z</time></trkpt><trkpt lat="44.33901" lon="10.13142"><ele>1208.0000000000002</ele><time>2026-04-19T10:28:30.977Z</time></trkpt><trkpt lat="44.3390083" lon="10.1315133"><ele>1208.0</ele><time>2026-04-19T10:28:31.977Z</time></trkpt><trkpt lat="44.3390017" lon="10.1316067"><ele>1208.8333333333335</ele><time>2026-04-19T10:28:32.977Z</time></trkpt><trkpt lat="44.338995" lon="10.1317017"><ele>1209.6666666666667</ele><time>2026-04-19T10:28:33.977Z</time></trkpt><trkpt lat="44.3389667" lon="10.1317967"><ele>1210.5</ele><time>2026-04-19T10:28:34.977Z</time></trkpt><trkpt lat="44.3389167" lon="10.13188"><ele>1211.3333333333333</ele><time>2026-04-19T10:28:35.977Z</time></trkpt><trkpt lat="44.3388483" lon="10.131935"><ele>1212.1666666666665</ele><time>2026-04-19T10:28:36.977Z</time></trkpt><trkpt lat="44.3387683" lon="10.1319717"><ele>1213.0</ele><time>2026-04-19T10:28:37.977Z</time></trkpt><trkpt lat="44.3386767" lon="10.1319867"><ele>1216.0</ele><time>2026-04-19T10:28:38.977Z</time></trkpt><trkpt lat="44.3385767" lon="10.1319867"><ele>1219.0</ele><time>2026-04-19T10:28:39.977Z</time></trkpt><trkpt lat="44.338475" lon="10.1319783"><ele>1222.0</ele><time>2026-04-19T10:28:40.977Z</time></trkpt><trkpt lat="44.3383733" lon="10.131955"><ele>1225.0</ele><time>2026-04-19T10:28:41.977Z</time></trkpt><trkpt lat="44.3382767" lon="10.131925"><ele>1228.0</ele><time>2026-04-19T10:28:42.977Z</time></trkpt><trkpt lat="44.3381933" lon="10.1318767"><ele>1228.0</ele><time>2026-04-19T10:28:43.977Z</time></trkpt><trkpt lat="44.338125" lon="10.1318117"><ele>1228.0</ele><time>2026-04-19T10:28:44.977Z</time></trkpt><trkpt lat="44.338065" lon="10.1317317"><ele>1228.0</ele><time>2026-04-19T10:28:45.977Z</time></trkpt><trkpt lat="44.3380117" lon="10.131665"><ele>1228.0</ele><time>2026-04-19T10:28:46.977Z</time></trkpt><trkpt lat="44.3379517" lon="10.1316217"><ele>1228.0</ele><time>2026-04-19T10:28:47.977Z</time></trkpt><trkpt lat="44.3378717" lon="10.1316133"><ele>1228.0</ele><time>2026-04-19T10:28:48.977Z</time></trkpt><trkpt lat="44.3377817" lon="10.1316233"><ele>1229.0</ele><time>2026-04-19T10:28:49.977Z</time></trkpt><trkpt lat="44.3376767" lon="10.1316383"><ele>1230.0</ele><time>2026-04-19T10:28:50.977Z</time></trkpt><trkpt lat="44.3375667" lon="10.13166"><ele>1231.0</ele><time>2026-04-19T10:28:51.977Z</time></trkpt><trkpt lat="44.337445" lon="10.1316733"><ele>1232.0</ele><time>2026-04-19T10:28:52.977Z</time></trkpt><trkpt lat="44.3373267" lon="10.1317"><ele>1230.0</ele><time>2026-04-19T10:28:53.977Z</time></trkpt><trkpt lat="44.3372" lon="10.1317533"><ele>1228.0</ele><time>2026-04-19T10:28:54.977Z</time></trkpt><trkpt lat="44.3370767" lon="10.1318167"><ele>1226.0</ele><time>2026-04-19T10:28:55.977Z</time></trkpt><trkpt lat="44.3369533" lon="10.131895"><ele>1224.0</ele><time>2026-04-19T10:28:56.977Z</time></trkpt><trkpt lat="44.3368433" lon="10.13197"><ele>1224.0</ele><time>2026-04-19T10:28:57.977Z</time></trkpt><trkpt lat="44.3367433" lon="10.1320583"><ele>1224.0</ele><time>2026-04-19T10:28:58.977Z</time></trkpt><trkpt lat="44.336655" lon="10.132155"><ele>1224.0</ele><time>2026-04-19T10:28:59.977Z</time></trkpt><trkpt lat="44.3365767" lon="10.1322667"><ele>1224.0</ele><time>2026-04-19T10:29:00.977Z</time></trkpt><trkpt lat="44.3365117" lon="10.132375"><ele>1224.0</ele><time>2026-04-19T10:29:01.977Z</time></trkpt><trkpt lat="44.336455" lon="10.1324783"><ele>1224.6000000000001</ele><time>2026-04-19T10:29:02.977Z</time></trkpt><trkpt lat="44.3363833" lon="10.1325633"><ele>1225.2</ele><time>2026-04-19T10:29:03.977Z</time></trkpt><trkpt lat="44.3363" lon="10.1326233"><ele>1225.8000000000002</ele><time>2026-04-19T10:29:04.977Z</time></trkpt><trkpt lat="44.3362067" lon="10.1326633"><ele>1226.4</ele><time>2026-04-19T10:29:05.977Z</time></trkpt><trkpt lat="44.3361233" lon="10.1327133"><ele>1227.0</ele><time>2026-04-19T10:29:06.977Z</time></trkpt><trkpt lat="44.3360433" lon="10.1327833"><ele>1227.0</ele><time>2026-04-19T10:29:07.977Z</time></trkpt><trkpt lat="44.3359733" lon="10.1328817"><ele>1227.0</ele><time>2026-04-19T10:29:08.977Z</time></trkpt><trkpt lat="44.3359033" lon="10.1329783"><ele>1227.0</ele><time>2026-04-19T10:29:09.977Z</time></trkpt><trkpt lat="44.3358233" lon="10.13307"><ele>1227.0</ele><time>2026-04-19T10:29:10.977Z</time></trkpt><trkpt lat="44.335725" lon="10.1331383"><ele>1227.0</ele><time>2026-04-19T10:29:11.977Z</time></trkpt><trkpt lat="44.3356167" lon="10.1331683"><ele>1225.6</ele><time>2026-04-19T10:29:12.977Z</time></trkpt><trkpt lat="44.33551" lon="10.1331817"><ele>1224.2</ele><time>2026-04-19T10:29:13.977Z</time></trkpt><trkpt lat="44.3353983" lon="10.1331833"><ele>1222.8</ele><time>2026-04-19T10:29:14.977Z</time></trkpt><trkpt lat="44.3353" lon="10.1331967"><ele>1221.4</ele><time>2026-04-19T10:29:15.977Z</time></trkpt><trkpt lat="44.3352067" lon="10.1332267"><ele>1220.0</ele><time>2026-04-19T10:29:16.977Z</time></trkpt><trkpt lat="44.33511" lon="10.1332733"><ele>1223.75</ele><time>2026-04-19T10:29:17.977Z</time></trkpt><trkpt lat="44.335015" lon="10.1333517"><ele>1227.5</ele><time>2026-04-19T10:29:18.977Z</time></trkpt><trkpt lat="44.334925" lon="10.1334367"><ele>1231.25</ele><time>2026-04-19T10:29:19.978Z</time></trkpt><trkpt lat="44.3348283" lon="10.1335383"><ele>1235.0</ele><time>2026-04-19T10:29:20.977Z</time></trkpt><trkpt lat="44.334715" lon="10.1336383"><ele>1236.25</ele><time>2026-04-19T10:29:21.977Z</time></trkpt><trkpt lat="44.3345917" lon="10.1337533"><ele>1237.5</ele><time>2026-04-19T10:29:22.977Z</time></trkpt><trkpt lat="44.334475" lon="10.1338417"><ele>1238.75</ele><time>2026-04-19T10:29:23.977Z</time></trkpt><trkpt lat="44.334375" lon="10.133915"><ele>1240.0</ele><time>2026-04-19T10:29:24.977Z</time></trkpt><trkpt lat="44.334275" lon="10.13398"><ele>1240.0</ele><time>2026-04-19T10:29:25.977Z</time></trkpt><trkpt lat="44.3341733" lon="10.13405"><ele>1240.0</ele><time>2026-04-19T10:29:26.977Z</time></trkpt><trkpt lat="44.33407" lon="10.1341267"><ele>1240.0</ele><time>2026-04-19T10:29:27.977Z</time></trkpt><trkpt lat="44.3339583" lon="10.1342"><ele>1240.0</ele><time>2026-04-19T10:29:28.977Z</time></trkpt><trkpt lat="44.33383" lon="10.1342533"><ele>1240.75</ele><time>2026-04-19T10:29:29.977Z</time></trkpt><trkpt lat="44.3336967" lon="10.1342867"><ele>1241.5</ele><time>2026-04-19T10:29:30.977Z</time></trkpt><trkpt lat="44.3335633" lon="10.1342933"><ele>1242.25</ele><time>2026-04-19T10:29:31.977Z</time></trkpt><trkpt lat="44.3334567" lon="10.13425"><ele>1243.0</ele><time>2026-04-19T10:29:32.977Z</time></trkpt><trkpt lat="44.3333383" lon="10.1342"><ele>1243.0</ele><time>2026-04-19T10:29:33.976Z</time></trkpt><trkpt lat="44.3332167" lon="10.13414"><ele>1243.0</ele><time>2026-04-19T10:29:34.976Z</time></trkpt><trkpt lat="44.333085" lon="10.1340883"><ele>1243.0</ele><time>2026-04-19T10:29:35.976Z</time></trkpt><trkpt lat="44.3329467" lon="10.1340533"><ele>1243.0</ele><time>2026-04-19T10:29:36.976Z</time></trkpt><trkpt lat="44.3327867" lon="10.134025"><ele>1241.0</ele><time>2026-04-19T10:29:37.976Z</time></trkpt><trkpt lat="44.33264" lon="10.1339767"><ele>1239.0</ele><time>2026-04-19T10:29:38.976Z</time></trkpt><trkpt lat="44.33249" lon="10.1338833"><ele>1237.0</ele><time>2026-04-19T10:29:39.976Z</time></trkpt><trkpt lat="44.332355" lon="10.1337933"><ele>1237.0</ele><time>2026-04-19T10:29:40.976Z</time></trkpt><trkpt lat="44.3322333" lon="10.1337183"><ele>1237.0</ele><time>2026-04-19T10:29:41.976Z</time></trkpt><trkpt lat="44.3321183" lon="10.13368"><ele>1237.0</ele><time>2026-04-19T10:29:42.976Z</time></trkpt><trkpt lat="44.3320183" lon="10.1336533"><ele>1237.0</ele><time>2026-04-19T10:29:43.976Z</time></trkpt><trkpt lat="44.33192" lon="10.1336433"><ele>1238.8</ele><time>2026-04-19T10:29:44.976Z</time></trkpt><trkpt lat="44.3318217" lon="10.1336567"><ele>1240.6</ele><time>2026-04-19T10:29:45.976Z</time></trkpt><trkpt lat="44.33173" lon="10.1336917"><ele>1242.3999999999999</ele><time>2026-04-19T10:29:46.976Z</time></trkpt><trkpt lat="44.3316417" lon="10.1337433"><ele>1244.2</ele><time>2026-04-19T10:29:47.976Z</time></trkpt><trkpt lat="44.3315467" lon="10.1337967"><ele>1246.0</ele><time>2026-04-19T10:29:48.976Z</time></trkpt><trkpt lat="44.3314533" lon="10.13385"><ele>1245.6</ele><time>2026-04-19T10:29:49.976Z</time></trkpt><trkpt lat="44.33136" lon="10.1339"><ele>1245.1999999999998</ele><time>2026-04-19T10:29:50.976Z</time></trkpt><trkpt lat="44.331265" lon="10.13392"><ele>1244.8000000000002</ele><time>2026-04-19T10:29:51.976Z</time></trkpt><trkpt lat="44.3311683" lon="10.13392"><ele>1244.4</ele><time>2026-04-19T10:29:52.976Z</time></trkpt><trkpt lat="44.33107" lon="10.1339183"><ele>1244.0</ele><time>2026-04-19T10:29:53.976Z</time></trkpt><trkpt lat="44.3309683" lon="10.133935"><ele>1244.0</ele><time>2026-04-19T10:29:54.976Z</time></trkpt><trkpt lat="44.33086" lon="10.13399"><ele>1244.0</ele><time>2026-04-19T10:29:55.976Z</time></trkpt><trkpt lat="44.3307483" lon="10.1340983"><ele>1244.0</ele><time>2026-04-19T10:29:56.976Z</time></trkpt><trkpt lat="44.3306483" lon="10.1342483"><ele>1244.0</ele><time>2026-04-19T10:29:57.976Z</time></trkpt><trkpt lat="44.3305467" lon="10.13439"><ele>1249.75</ele><time>2026-04-19T10:29:58.977Z</time></trkpt><trkpt lat="44.33042" lon="10.1344917"><ele>1255.5</ele><time>2026-04-19T10:29:59.976Z</time></trkpt><trkpt lat="44.3302817" lon="10.13455"><ele>1261.25</ele><time>2026-04-19T10:30:00.976Z</time></trkpt><trkpt lat="44.33015" lon="10.1345567"><ele>1267.0</ele><time>2026-04-19T10:30:01.976Z</time></trkpt><trkpt lat="44.3300183" lon="10.1345317"><ele>1267.0</ele><time>2026-04-19T10:30:02.976Z</time></trkpt><trkpt lat="44.3298883" lon="10.1345067"><ele>1267.0</ele><time>2026-04-19T10:30:03.976Z</time></trkpt><trkpt lat="44.3297617" lon="10.1344767"><ele>1267.0</ele><time>2026-04-19T10:30:04.976Z</time></trkpt><trkpt lat="44.3296367" lon="10.1344433"><ele>1267.0</ele><time>2026-04-19T10:30:05.976Z</time></trkpt><trkpt lat="44.3295183" lon="10.1343967"><ele>1266.75</ele><time>2026-04-19T10:30:06.976Z</time></trkpt><trkpt lat="44.3294" lon="10.13436"><ele>1266.5</ele><time>2026-04-19T10:30:07.976Z</time></trkpt><trkpt lat="44.329285" lon="10.13431"><ele>1266.25</ele><time>2026-04-19T10:30:08.976Z</time></trkpt><trkpt lat="44.329155" lon="10.1343167"><ele>1266.0</ele><time>2026-04-19T10:30:09.976Z</time></trkpt><trkpt lat="44.3290133" lon="10.1343483"><ele>1271.0</ele><time>2026-04-19T10:30:10.976Z</time></trkpt><trkpt lat="44.328865" lon="10.134415"><ele>1276.0</ele><time>2026-04-19T10:30:11.977Z</time></trkpt><trkpt lat="44.3287167" lon="10.1345033"><ele>1281.0</ele><time>2026-04-19T10:30:12.976Z</time></trkpt><trkpt lat="44.32859" lon="10.1345967"><ele>1281.0</ele><time>2026-04-19T10:30:13.976Z</time></trkpt><trkpt lat="44.3284717" lon="10.1346983"><ele>1281.0</ele><time>2026-04-19T10:30:14.976Z</time></trkpt><trkpt lat="44.3283683" lon="10.1348083"><ele>1281.0</ele><time>2026-04-19T10:30:15.976Z</time></trkpt><trkpt lat="44.3282983" lon="10.1349317"><ele>1281.0</ele><time>2026-04-19T10:30:16.976Z</time></trkpt><trkpt lat="44.3282633" lon="10.1350817"><ele>1278.8</ele><time>2026-04-19T10:30:17.976Z</time></trkpt><trkpt lat="44.3282483" lon="10.1352483"><ele>1276.6</ele><time>2026-04-19T10:30:18.976Z</time></trkpt><trkpt lat="44.3282517" lon="10.135405"><ele>1274.4</ele><time>2026-04-19T10:30:19.976Z</time></trkpt><trkpt lat="44.3282567" lon="10.1355583"><ele>1272.2</ele><time>2026-04-19T10:30:20.976Z</time></trkpt><trkpt lat="44.328245" lon="10.1356767"><ele>1270.0</ele><time>2026-04-19T10:30:21.976Z</time></trkpt><trkpt lat="44.3282183" lon="10.1357617"><ele>1268.8</ele><time>2026-04-19T10:30:22.976Z</time></trkpt><trkpt lat="44.328195" lon="10.135845"><ele>1267.6</ele><time>2026-04-19T10:30:23.976Z</time></trkpt><trkpt lat="44.3281267" lon="10.1359333"><ele>1266.4</ele><time>2026-04-19T10:30:25.976Z</time></trkpt><trkpt lat="44.3280167" lon="10.13588"><ele>1265.2</ele><time>2026-04-19T10:30:27.976Z</time></trkpt><trkpt lat="44.3280117" lon="10.1357117"><ele>1264.0</ele><time>2026-04-19T10:30:29.976Z</time></trkpt><trkpt lat="44.32803" lon="10.135625"><ele>1264.0</ele><time>2026-04-19T10:30:30.976Z</time></trkpt><trkpt lat="44.3280583" lon="10.1354517"><ele>1264.0</ele><time>2026-04-19T10:30:32.976Z</time></trkpt><trkpt lat="44.3280433" lon="10.1353617"><ele>1264.0</ele><time>2026-04-19T10:30:33.976Z</time></trkpt><trkpt lat="44.3280133" lon="10.1352633"><ele>1264.0</ele><time>2026-04-19T10:30:34.976Z</time></trkpt><trkpt lat="44.3279667" lon="10.1351567"><ele>1264.0</ele><time>2026-04-19T10:30:35.976Z</time></trkpt><trkpt lat="44.327895" lon="10.13504"><ele>1264.0</ele><time>2026-04-19T10:30:36.976Z</time></trkpt><trkpt lat="44.3278083" lon="10.134905"><ele>1264.0</ele><time>2026-04-19T10:30:37.976Z</time></trkpt><trkpt lat="44.32774" lon="10.1347783"><ele>1264.0</ele><time>2026-04-19T10:30:38.976Z</time></trkpt><trkpt lat="44.32768" lon="10.134665"><ele>1264.0</ele><time>2026-04-19T10:30:39.976Z</time></trkpt><trkpt lat="44.327635" lon="10.13455"><ele>1264.0</ele><time>2026-04-19T10:30:40.976Z</time></trkpt><trkpt lat="44.3275883" lon="10.134425"><ele>1266.3333333333333</ele><time>2026-04-19T10:30:41.976Z</time></trkpt><trkpt lat="44.3275583" lon="10.1343183"><ele>1268.6666666666665</ele><time>2026-04-19T10:30:42.976Z</time></trkpt><trkpt lat="44.3275233" lon="10.1342333"><ele>1271.0</ele><time>2026-04-19T10:30:43.976Z</time></trkpt><trkpt lat="44.3275067" lon="10.1341167"><ele>1273.3333333333333</ele><time>2026-04-19T10:30:45.976Z</time></trkpt><trkpt lat="44.327545" lon="10.1339817"><ele>1275.6666666666667</ele><time>2026-04-19T10:30:47.976Z</time></trkpt><trkpt lat="44.3275767" lon="10.1338967"><ele>1278.0</ele><time>2026-04-19T10:30:48.976Z</time></trkpt><trkpt lat="44.3276083" lon="10.1338167"><ele>1278.857142857143</ele><time>2026-04-19T10:30:49.976Z</time></trkpt><trkpt lat="44.32763" lon="10.1337283"><ele>1279.7142857142858</ele><time>2026-04-19T10:30:50.976Z</time></trkpt><trkpt lat="44.327635" lon="10.1336283"><ele>1280.5714285714284</ele><time>2026-04-19T10:30:51.976Z</time></trkpt><trkpt lat="44.327635" lon="10.1335367"><ele>1281.4285714285716</ele><time>2026-04-19T10:30:52.976Z</time></trkpt><trkpt lat="44.3276167" lon="10.1334433"><ele>1282.2857142857142</ele><time>2026-04-19T10:30:53.976Z</time></trkpt><trkpt lat="44.3275933" lon="10.133355"><ele>1283.142857142857</ele><time>2026-04-19T10:30:54.976Z</time></trkpt><trkpt lat="44.3275583" lon="10.1332717"><ele>1284.0</ele><time>2026-04-19T10:30:55.976Z</time></trkpt><trkpt lat="44.327515" lon="10.1331933"><ele>1284.0</ele><time>2026-04-19T10:30:56.976Z</time></trkpt><trkpt lat="44.3274667" lon="10.13312"><ele>1284.0</ele><time>2026-04-19T10:30:57.976Z</time></trkpt><trkpt lat="44.3274167" lon="10.1330483"><ele>1284.0</ele><time>2026-04-19T10:30:58.976Z</time></trkpt><trkpt lat="44.3273683" lon="10.1329717"><ele>1284.0</ele><time>2026-04-19T10:30:59.976Z</time></trkpt><trkpt lat="44.32731" lon="10.1328817"><ele>1284.0</ele><time>2026-04-19T10:31:00.976Z</time></trkpt><trkpt lat="44.3272633" lon="10.1327933"><ele>1284.0</ele><time>2026-04-19T10:31:01.976Z</time></trkpt><trkpt lat="44.3272233" lon="10.13269"><ele>1284.0</ele><time>2026-04-19T10:31:02.976Z</time></trkpt><trkpt lat="44.327185" lon="10.132585"><ele>1284.0</ele><time>2026-04-19T10:31:03.976Z</time></trkpt><trkpt lat="44.3271517" lon="10.132505"><ele>1284.0</ele><time>2026-04-19T10:31:04.976Z</time></trkpt><trkpt lat="44.3271033" lon="10.1323933"><ele>1284.0</ele><time>2026-04-19T10:31:06.976Z</time></trkpt><trkpt lat="44.3270533" lon="10.1322667"><ele>1284.0</ele><time>2026-04-19T10:31:08.976Z</time></trkpt><trkpt lat="44.32699" lon="10.132125"><ele>1286.4</ele><time>2026-04-19T10:31:10.976Z</time></trkpt><trkpt lat="44.326955" lon="10.1320483"><ele>1288.8000000000002</ele><time>2026-04-19T10:31:11.976Z</time></trkpt><trkpt lat="44.326875" lon="10.1319317"><ele>1291.1999999999998</ele><time>2026-04-19T10:31:13.976Z</time></trkpt><trkpt lat="44.3267783" lon="10.1318417"><ele>1293.6</ele><time>2026-04-19T10:31:15.976Z</time></trkpt><trkpt lat="44.3266883" lon="10.1318"><ele>1296.0</ele><time>2026-04-19T10:31:17.976Z</time></trkpt><trkpt lat="44.3265833" lon="10.1318067"><ele>1296.0</ele><time>2026-04-19T10:31:19.976Z</time></trkpt><trkpt lat="44.326475" lon="10.1318267"><ele>1296.0</ele><time>2026-04-19T10:31:21.976Z</time></trkpt><trkpt lat="44.3263667" lon="10.13182"><ele>1296.0</ele><time>2026-04-19T10:31:23.976Z</time></trkpt><trkpt lat="44.326245" lon="10.1317867"><ele>1296.0</ele><time>2026-04-19T10:31:25.976Z</time></trkpt><trkpt lat="44.32618" lon="10.1317667"><ele>1296.0</ele><time>2026-04-19T10:31:26.976Z</time></trkpt><trkpt lat="44.3260783" lon="10.1317433"><ele>1298.1999999999998</ele><time>2026-04-19T10:31:28.976Z</time></trkpt><trkpt lat="44.3259733" lon="10.13172"><ele>1300.3999999999999</ele><time>2026-04-19T10:31:30.976Z</time></trkpt><trkpt lat="44.32588" lon="10.1316967"><ele>1302.6</ele><time>2026-04-19T10:31:32.976Z</time></trkpt><trkpt lat="44.3257867" lon="10.13171"><ele>1304.8</ele><time>2026-04-19T10:31:34.976Z</time></trkpt><trkpt lat="44.3256883" lon="10.1317567"><ele>1307.0</ele><time>2026-04-19T10:31:36.976Z</time></trkpt><trkpt lat="44.3255833" lon="10.13183"><ele>1311.1999999999998</ele><time>2026-04-19T10:31:38.976Z</time></trkpt><trkpt lat="44.3255267" lon="10.1318733"><ele>1315.4</ele><time>2026-04-19T10:31:39.976Z</time></trkpt><trkpt lat="44.3254233" lon="10.1319617"><ele>1319.6</ele><time>2026-04-19T10:31:41.976Z</time></trkpt><trkpt lat="44.3253233" lon="10.1320317"><ele>1323.8000000000002</ele><time>2026-04-19T10:31:43.976Z</time></trkpt><trkpt lat="44.3252417" lon="10.132085"><ele>1328.0</ele><time>2026-04-19T10:31:45.976Z</time></trkpt><trkpt lat="44.325175" lon="10.132165"><ele>1328.0</ele><time>2026-04-19T10:31:47.976Z</time></trkpt><trkpt lat="44.3250917" lon="10.1322367"><ele>1328.0</ele><time>2026-04-19T10:31:49.976Z</time></trkpt><trkpt lat="44.3250033" lon="10.13226"><ele>1328.0</ele><time>2026-04-19T10:31:51.976Z</time></trkpt><trkpt lat="44.3249317" lon="10.1322667"><ele>1328.0</ele><time>2026-04-19T10:31:53.976Z</time></trkpt><trkpt lat="44.3248417" lon="10.1322683"><ele>1328.0</ele><time>2026-04-19T10:31:55.976Z</time></trkpt><trkpt lat="44.3247417" lon="10.1322667"><ele>1329.1666666666667</ele><time>2026-04-19T10:31:57.976Z</time></trkpt><trkpt lat="44.3246183" lon="10.1322133"><ele>1330.3333333333335</ele><time>2026-04-19T10:31:59.976Z</time></trkpt><trkpt lat="44.32455" lon="10.1321667"><ele>1331.5</ele><time>2026-04-19T10:32:00.976Z</time></trkpt><trkpt lat="44.324485" lon="10.132115"><ele>1332.6666666666667</ele><time>2026-04-19T10:32:01.976Z</time></trkpt><trkpt lat="44.324415" lon="10.1320767"><ele>1333.8333333333333</ele><time>2026-04-19T10:32:02.976Z</time></trkpt><trkpt lat="44.3243517" lon="10.132055"><ele>1335.0</ele><time>2026-04-19T10:32:03.976Z</time></trkpt><trkpt lat="44.3242883" lon="10.132045"><ele>1335.0</ele><time>2026-04-19T10:32:04.976Z</time></trkpt><trkpt lat="44.3241867" lon="10.1320417"><ele>1335.0</ele><time>2026-04-19T10:32:06.976Z</time></trkpt><trkpt lat="44.3240617" lon="10.1320683"><ele>1335.0</ele><time>2026-04-19T10:32:08.976Z</time></trkpt><trkpt lat="44.3239983" lon="10.132085"><ele>1335.0</ele><time>2026-04-19T10:32:09.976Z</time></trkpt><trkpt lat="44.32393" lon="10.1321117"><ele>1335.0</ele><time>2026-04-19T10:32:10.976Z</time></trkpt><trkpt lat="44.323855" lon="10.132145"><ele>1335.0</ele><time>2026-04-19T10:32:11.976Z</time></trkpt><trkpt lat="44.32378" lon="10.1321683"><ele>1335.8</ele><time>2026-04-19T10:32:12.976Z</time></trkpt><trkpt lat="44.32371" lon="10.1322017"><ele>1336.6</ele><time>2026-04-19T10:32:13.976Z</time></trkpt><trkpt lat="44.323605" lon="10.1322417"><ele>1337.4</ele><time>2026-04-19T10:32:15.976Z</time></trkpt><trkpt lat="44.3235017" lon="10.1322483"><ele>1338.2</ele><time>2026-04-19T10:32:17.976Z</time></trkpt><trkpt lat="44.32338" lon="10.13222"><ele>1339.0</ele><time>2026-04-19T10:32:19.976Z</time></trkpt><trkpt lat="44.3233" lon="10.1322017"><ele>1339.0</ele><time>2026-04-19T10:32:20.977Z</time></trkpt><trkpt lat="44.3232167" lon="10.1321767"><ele>1339.0</ele><time>2026-04-19T10:32:21.976Z</time></trkpt><trkpt lat="44.3231383" lon="10.1321433"><ele>1339.0</ele><time>2026-04-19T10:32:22.976Z</time></trkpt><trkpt lat="44.323065" lon="10.132095"><ele>1339.0</ele><time>2026-04-19T10:32:23.976Z</time></trkpt><trkpt lat="44.3229983" lon="10.1320317"><ele>1339.0</ele><time>2026-04-19T10:32:24.976Z</time></trkpt><trkpt lat="44.3229383" lon="10.1319683"><ele>1339.0</ele><time>2026-04-19T10:32:25.976Z</time></trkpt><trkpt lat="44.3228867" lon="10.1318933"><ele>1341.2</ele><time>2026-04-19T10:32:26.976Z</time></trkpt><trkpt lat="44.3228383" lon="10.13182"><ele>1343.4</ele><time>2026-04-19T10:32:27.976Z</time></trkpt><trkpt lat="44.3227467" lon="10.1317017"><ele>1345.6</ele><time>2026-04-19T10:32:29.976Z</time></trkpt><trkpt lat="44.3226517" lon="10.1315967"><ele>1347.8</ele><time>2026-04-19T10:32:31.976Z</time></trkpt><trkpt lat="44.3225967" lon="10.13153"><ele>1350.0</ele><time>2026-04-19T10:32:32.976Z</time></trkpt><trkpt lat="44.3225433" lon="10.13147"><ele>1350.0</ele><time>2026-04-19T10:32:33.976Z</time></trkpt><trkpt lat="44.3224467" lon="10.13137"><ele>1350.0</ele><time>2026-04-19T10:32:35.976Z</time></trkpt><trkpt lat="44.32235" lon="10.1312717"><ele>1350.0</ele><time>2026-04-19T10:32:37.976Z</time></trkpt><trkpt lat="44.3222483" lon="10.1311667"><ele>1350.0</ele><time>2026-04-19T10:32:39.976Z</time></trkpt><trkpt lat="44.3221967" lon="10.1311133"><ele>1350.0</ele><time>2026-04-19T10:32:40.976Z</time></trkpt><trkpt lat="44.322145" lon="10.13106"><ele>1349.1666666666667</ele><time>2026-04-19T10:32:41.976Z</time></trkpt><trkpt lat="44.3220883" lon="10.1310033"><ele>1348.3333333333333</ele><time>2026-04-19T10:32:42.976Z</time></trkpt><trkpt lat="44.32198" lon="10.1309533"><ele>1347.5</ele><time>2026-04-19T10:32:44.976Z</time></trkpt><trkpt lat="44.32188" lon="10.1309617"><ele>1346.6666666666665</ele><time>2026-04-19T10:32:46.976Z</time></trkpt><trkpt lat="44.3218083" lon="10.130985"><ele>1345.8333333333333</ele><time>2026-04-19T10:32:47.976Z</time></trkpt><trkpt lat="44.321735" lon="10.1310017"><ele>1345.0</ele><time>2026-04-19T10:32:48.976Z</time></trkpt><trkpt lat="44.321665" lon="10.1310167"><ele>1345.0</ele><time>2026-04-19T10:32:49.976Z</time></trkpt><trkpt lat="44.3215933" lon="10.131025"><ele>1345.0</ele><time>2026-04-19T10:32:50.976Z</time></trkpt><trkpt lat="44.321525" lon="10.1310133"><ele>1345.0</ele><time>2026-04-19T10:32:51.976Z</time></trkpt><trkpt lat="44.32146" lon="10.1310017"><ele>1345.0</ele><time>2026-04-19T10:32:52.976Z</time></trkpt><trkpt lat="44.3213967" lon="10.13098"><ele>1345.0</ele><time>2026-04-19T10:32:53.976Z</time></trkpt><trkpt lat="44.3213383" lon="10.130945"><ele>1345.0</ele><time>2026-04-19T10:32:54.976Z</time></trkpt><trkpt lat="44.3212633" lon="10.1308933"><ele>1345.0</ele><time>2026-04-19T10:32:55.976Z</time></trkpt><trkpt lat="44.3212017" lon="10.1308533"><ele>1343.2</ele><time>2026-04-19T10:32:56.976Z</time></trkpt><trkpt lat="44.32114" lon="10.1308017"><ele>1341.4</ele><time>2026-04-19T10:32:57.976Z</time></trkpt><trkpt lat="44.32109" lon="10.1307417"><ele>1339.6</ele><time>2026-04-19T10:32:58.976Z</time></trkpt><trkpt lat="44.3210017" lon="10.1306217"><ele>1337.8</ele><time>2026-04-19T10:33:00.976Z</time></trkpt><trkpt lat="44.3209533" lon="10.1305517"><ele>1336.0</ele><time>2026-04-19T10:33:01.976Z</time></trkpt><trkpt lat="44.3208733" lon="10.1304183"><ele>1340.1999999999998</ele><time>2026-04-19T10:33:03.976Z</time></trkpt><trkpt lat="44.320835" lon="10.1303433"><ele>1344.3999999999999</ele><time>2026-04-19T10:33:04.976Z</time></trkpt><trkpt lat="44.3207683" lon="10.1301917"><ele>1348.6</ele><time>2026-04-19T10:33:06.976Z</time></trkpt><trkpt lat="44.3207067" lon="10.1300517"><ele>1352.8</ele><time>2026-04-19T10:33:08.976Z</time></trkpt><trkpt lat="44.3206417" lon="10.129935"><ele>1357.0</ele><time>2026-04-19T10:33:10.976Z</time></trkpt><trkpt lat="44.3206083" lon="10.1298583"><ele>1356.8333333333333</ele><time>2026-04-19T10:33:11.976Z</time></trkpt><trkpt lat="44.320565" lon="10.1297817"><ele>1356.6666666666665</ele><time>2026-04-19T10:33:12.976Z</time></trkpt><trkpt lat="44.3205233" lon="10.1296933"><ele>1356.5</ele><time>2026-04-19T10:33:13.976Z</time></trkpt><trkpt lat="44.3204733" lon="10.1296067"><ele>1356.3333333333333</ele><time>2026-04-19T10:33:14.976Z</time></trkpt><trkpt lat="44.3204217" lon="10.1295317"><ele>1356.1666666666667</ele><time>2026-04-19T10:33:15.976Z</time></trkpt><trkpt lat="44.3203633" lon="10.1294633"><ele>1356.0</ele><time>2026-04-19T10:33:16.976Z</time></trkpt><trkpt lat="44.3203" lon="10.1294017"><ele>1356.0</ele><time>2026-04-19T10:33:17.976Z</time></trkpt><trkpt lat="44.32023" lon="10.1293483"><ele>1356.0</ele><time>2026-04-19T10:33:18.976Z</time></trkpt><trkpt lat="44.32016" lon="10.1292917"><ele>1356.0</ele><time>2026-04-19T10:33:19.976Z</time></trkpt><trkpt lat="44.320085" lon="10.1292417"><ele>1356.0</ele><time>2026-04-19T10:33:20.976Z</time></trkpt><trkpt lat="44.3200117" lon="10.12918"><ele>1356.0</ele><time>2026-04-19T10:33:21.976Z</time></trkpt><trkpt lat="44.31993" lon="10.1291133"><ele>1356.0</ele><time>2026-04-19T10:33:22.976Z</time></trkpt><trkpt lat="44.3198517" lon="10.1290633"><ele>1359.1666666666667</ele><time>2026-04-19T10:33:23.976Z</time></trkpt><trkpt lat="44.319775" lon="10.1290017"><ele>1362.3333333333333</ele><time>2026-04-19T10:33:24.976Z</time></trkpt><trkpt lat="44.3197017" lon="10.128945"><ele>1365.5</ele><time>2026-04-19T10:33:25.976Z</time></trkpt><trkpt lat="44.31963" lon="10.1289"><ele>1368.6666666666665</ele><time>2026-04-19T10:33:26.976Z</time></trkpt><trkpt lat="44.319575" lon="10.128845"><ele>1371.8333333333333</ele><time>2026-04-19T10:33:27.976Z</time></trkpt><trkpt lat="44.31946" lon="10.128805"><ele>1375.0</ele><time>2026-04-19T10:33:29.976Z</time></trkpt><trkpt lat="44.3193367" lon="10.1287633"><ele>1375.0</ele><time>2026-04-19T10:33:31.977Z</time></trkpt><trkpt lat="44.3192283" lon="10.1287333"><ele>1375.0</ele><time>2026-04-19T10:33:33.976Z</time></trkpt><trkpt lat="44.31913" lon="10.128695"><ele>1375.0</ele><time>2026-04-19T10:33:35.977Z</time></trkpt><trkpt lat="44.3190833" lon="10.1285833"><ele>1375.0</ele><time>2026-04-19T10:33:37.976Z</time></trkpt><trkpt lat="44.3191567" lon="10.1284967"><ele>1375.0</ele><time>2026-04-19T10:33:39.976Z</time></trkpt><trkpt lat="44.3192333" lon="10.1284967"><ele>1375.0</ele><time>2026-04-19T10:33:40.976Z</time></trkpt><trkpt lat="44.3193183" lon="10.1285167"><ele>1375.0</ele><time>2026-04-19T10:33:41.976Z</time></trkpt><trkpt lat="44.3194067" lon="10.12854"><ele>1375.0</ele><time>2026-04-19T10:33:42.976Z</time></trkpt><trkpt lat="44.3195033" lon="10.12856"><ele>1375.0</ele><time>2026-04-19T10:33:43.977Z</time></trkpt><trkpt lat="44.3196033" lon="10.1285833"><ele>1375.0</ele><time>2026-04-19T10:33:44.976Z</time></trkpt><trkpt lat="44.3197017" lon="10.1286033"><ele>1377.4</ele><time>2026-04-19T10:33:45.976Z</time></trkpt><trkpt lat="44.3198017" lon="10.1286183"><ele>1379.8</ele><time>2026-04-19T10:33:46.976Z</time></trkpt><trkpt lat="44.3198967" lon="10.1286317"><ele>1382.1999999999998</ele><time>2026-04-19T10:33:47.976Z</time></trkpt><trkpt lat="44.3199867" lon="10.1286567"><ele>1384.6</ele><time>2026-04-19T10:33:48.976Z</time></trkpt><trkpt lat="44.32007" lon="10.128695"><ele>1387.0</ele><time>2026-04-19T10:33:49.976Z</time></trkpt><trkpt lat="44.32015" lon="10.128755"><ele>1387.0</ele><time>2026-04-19T10:33:50.976Z</time></trkpt><trkpt lat="44.3202267" lon="10.1288133"><ele>1387.0</ele><time>2026-04-19T10:33:51.976Z</time></trkpt><trkpt lat="44.320295" lon="10.1288783"><ele>1387.0</ele><time>2026-04-19T10:33:52.976Z</time></trkpt><trkpt lat="44.3203633" lon="10.1289283"><ele>1387.0</ele><time>2026-04-19T10:33:53.976Z</time></trkpt><trkpt lat="44.3204333" lon="10.1289783"><ele>1387.0</ele><time>2026-04-19T10:33:54.976Z</time></trkpt><trkpt lat="44.320505" lon="10.1290217"><ele>1387.0</ele><time>2026-04-19T10:33:55.976Z</time></trkpt><trkpt lat="44.32058" lon="10.1290833"><ele>1385.3999999999999</ele><time>2026-04-19T10:33:56.976Z</time></trkpt><trkpt lat="44.3206583" lon="10.12915"><ele>1383.8</ele><time>2026-04-19T10:33:57.976Z</time></trkpt><trkpt lat="44.3207417" lon="10.12922"><ele>1382.2</ele><time>2026-04-19T10:33:58.976Z</time></trkpt><trkpt lat="44.3208217" lon="10.1292783"><ele>1380.6</ele><time>2026-04-19T10:33:59.976Z</time></trkpt><trkpt lat="44.3208967" lon="10.129345"><ele>1379.0</ele><time>2026-04-19T10:34:00.976Z</time></trkpt><trkpt lat="44.320965" lon="10.1294083"><ele>1379.0</ele><time>2026-04-19T10:34:01.976Z</time></trkpt><trkpt lat="44.3210317" lon="10.12948"><ele>1379.0</ele><time>2026-04-19T10:34:02.976Z</time></trkpt><trkpt lat="44.32109" lon="10.12955"><ele>1379.0</ele><time>2026-04-19T10:34:03.976Z</time></trkpt><trkpt lat="44.3211483" lon="10.12961"><ele>1379.0</ele><time>2026-04-19T10:34:04.976Z</time></trkpt><trkpt lat="44.3212017" lon="10.1296617"><ele>1379.0</ele><time>2026-04-19T10:34:05.976Z</time></trkpt><trkpt lat="44.32129" lon="10.1297383"><ele>1379.0</ele><time>2026-04-19T10:34:07.976Z</time></trkpt><trkpt lat="44.3214067" lon="10.1297783"><ele>1381.6666666666667</ele><time>2026-04-19T10:34:09.976Z</time></trkpt><trkpt lat="44.32147" lon="10.1297617"><ele>1384.3333333333335</ele><time>2026-04-19T10:34:10.976Z</time></trkpt><trkpt lat="44.32154" lon="10.12971"><ele>1387.0</ele><time>2026-04-19T10:34:11.976Z</time></trkpt><trkpt lat="44.321615" lon="10.12965"><ele>1389.6666666666667</ele><time>2026-04-19T10:34:12.976Z</time></trkpt><trkpt lat="44.3216917" lon="10.12959"><ele>1392.3333333333333</ele><time>2026-04-19T10:34:13.976Z</time></trkpt><trkpt lat="44.32177" lon="10.1295183"><ele>1395.0</ele><time>2026-04-19T10:34:14.976Z</time></trkpt><trkpt lat="44.32185" lon="10.129445"><ele>1395.0</ele><time>2026-04-19T10:34:15.976Z</time></trkpt><trkpt lat="44.3219283" lon="10.129385"><ele>1395.0</ele><time>2026-04-19T10:34:16.976Z</time></trkpt><trkpt lat="44.3220067" lon="10.1293217"><ele>1395.0</ele><time>2026-04-19T10:34:17.976Z</time></trkpt><trkpt lat="44.3220817" lon="10.1292683"><ele>1395.0</ele><time>2026-04-19T10:34:18.976Z</time></trkpt><trkpt lat="44.3221433" lon="10.1292283"><ele>1395.0</ele><time>2026-04-19T10:34:19.976Z</time></trkpt><trkpt lat="44.3222033" lon="10.1291967"><ele>1395.0</ele><time>2026-04-19T10:34:20.976Z</time></trkpt><trkpt lat="44.3223217" lon="10.1292333"><ele>1395.6</ele><time>2026-04-19T10:34:22.976Z</time></trkpt><trkpt lat="44.32238" lon="10.12933"><ele>1396.2</ele><time>2026-04-19T10:34:23.976Z</time></trkpt><trkpt lat="44.322445" lon="10.1294267"><ele>1396.8000000000002</ele><time>2026-04-19T10:34:24.976Z</time></trkpt><trkpt lat="44.3225117" lon="10.129525"><ele>1397.4</ele><time>2026-04-19T10:34:25.976Z</time></trkpt><trkpt lat="44.3225883" lon="10.1296183"><ele>1398.0</ele><time>2026-04-19T10:34:26.976Z</time></trkpt><trkpt lat="44.3226617" lon="10.1297017"><ele>1398.0</ele><time>2026-04-19T10:34:27.976Z</time></trkpt><trkpt lat="44.3227433" lon="10.129765"><ele>1398.0</ele><time>2026-04-19T10:34:28.976Z</time></trkpt><trkpt lat="44.3228217" lon="10.12982"><ele>1398.0</ele><time>2026-04-19T10:34:29.976Z</time></trkpt><trkpt lat="44.322895" lon="10.1298617"><ele>1398.0</ele><time>2026-04-19T10:34:30.976Z</time></trkpt><trkpt lat="44.32297" lon="10.1298817"><ele>1398.0</ele><time>2026-04-19T10:34:31.976Z</time></trkpt><trkpt lat="44.32306" lon="10.129895"><ele>1398.0</ele><time>2026-04-19T10:34:32.976Z</time></trkpt><trkpt lat="44.3231467" lon="10.1298833"><ele>1400.6000000000001</ele><time>2026-04-19T10:34:33.976Z</time></trkpt><trkpt lat="44.32324" lon="10.1298633"><ele>1403.2</ele><time>2026-04-19T10:34:34.976Z</time></trkpt><trkpt lat="44.323335" lon="10.1298417"><ele>1405.8</ele><time>2026-04-19T10:34:35.976Z</time></trkpt><trkpt lat="44.3234433" lon="10.1298033"><ele>1408.4</ele><time>2026-04-19T10:34:36.976Z</time></trkpt><trkpt lat="44.323535" lon="10.1297467"><ele>1411.0</ele><time>2026-04-19T10:34:37.976Z</time></trkpt><trkpt lat="44.3236283" lon="10.1296833"><ele>1411.0</ele><time>2026-04-19T10:34:38.976Z</time></trkpt><trkpt lat="44.323715" lon="10.129625"><ele>1411.0</ele><time>2026-04-19T10:34:39.976Z</time></trkpt><trkpt lat="44.323805" lon="10.1295533"><ele>1411.0</ele><time>2026-04-19T10:34:40.977Z</time></trkpt><trkpt lat="44.323885" lon="10.1294767"><ele>1411.0</ele><time>2026-04-19T10:34:41.976Z</time></trkpt><trkpt lat="44.3239633" lon="10.1293933"><ele>1411.0</ele><time>2026-04-19T10:34:42.976Z</time></trkpt><trkpt lat="44.324035" lon="10.1293167"><ele>1409.8333333333333</ele><time>2026-04-19T10:34:43.976Z</time></trkpt><trkpt lat="44.324095" lon="10.1292483"><ele>1408.6666666666665</ele><time>2026-04-19T10:34:44.976Z</time></trkpt><trkpt lat="44.3241583" lon="10.129195"><ele>1407.5</ele><time>2026-04-19T10:34:45.976Z</time></trkpt><trkpt lat="44.3242267" lon="10.1291533"><ele>1406.3333333333333</ele><time>2026-04-19T10:34:46.976Z</time></trkpt><trkpt lat="44.3243117" lon="10.1291117"><ele>1405.1666666666667</ele><time>2026-04-19T10:34:47.976Z</time></trkpt><trkpt lat="44.3244083" lon="10.1290833"><ele>1404.0</ele><time>2026-04-19T10:34:48.976Z</time></trkpt><trkpt lat="44.324505" lon="10.1290517"><ele>1405.6</ele><time>2026-04-19T10:34:49.976Z</time></trkpt><trkpt lat="44.3245783" lon="10.1289833"><ele>1407.2</ele><time>2026-04-19T10:34:50.976Z</time></trkpt><trkpt lat="44.324645" lon="10.1288967"><ele>1408.8</ele><time>2026-04-19T10:34:51.976Z</time></trkpt><trkpt lat="44.3246983" lon="10.1288117"><ele>1410.3999999999999</ele><time>2026-04-19T10:34:52.976Z</time></trkpt><trkpt lat="44.3247417" lon="10.1287367"><ele>1412.0</ele><time>2026-04-19T10:34:53.976Z</time></trkpt><trkpt lat="44.32483" lon="10.1286117"><ele>1412.0</ele><time>2026-04-19T10:34:55.976Z</time></trkpt><trkpt lat="44.32491" lon="10.1284917"><ele>1412.0</ele><time>2026-04-19T10:34:57.976Z</time></trkpt><trkpt lat="44.32493" lon="10.12837"><ele>1412.0</ele><time>2026-04-19T10:34:59.976Z</time></trkpt><trkpt lat="44.3248783" lon="10.1282917"><ele>1412.0</ele><time>2026-04-19T10:35:01.976Z</time></trkpt><trkpt lat="44.32479" lon="10.1282733"><ele>1412.0</ele><time>2026-04-19T10:35:03.976Z</time></trkpt><trkpt lat="44.324695" lon="10.1283483"><ele>1414.8</ele><time>2026-04-19T10:35:05.976Z</time></trkpt><trkpt lat="44.3246017" lon="10.12845"><ele>1417.6</ele><time>2026-04-19T10:35:07.976Z</time></trkpt><trkpt lat="44.324525" lon="10.1285583"><ele>1420.3999999999999</ele><time>2026-04-19T10:35:09.976Z</time></trkpt><trkpt lat="44.324455" lon="10.1286483"><ele>1423.1999999999998</ele><time>2026-04-19T10:35:11.976Z</time></trkpt><trkpt lat="44.3243533" lon="10.128675"><ele>1426.0</ele><time>2026-04-19T10:35:13.976Z</time></trkpt><trkpt lat="44.32423" lon="10.1286717"><ele>1426.0</ele><time>2026-04-19T10:35:15.976Z</time></trkpt><trkpt lat="44.3241667" lon="10.12866"><ele>1426.0</ele><time>2026-04-19T10:35:16.976Z</time></trkpt><trkpt lat="44.3241" lon="10.1286683"><ele>1426.0</ele><time>2026-04-19T10:35:17.976Z</time></trkpt><trkpt lat="44.3239833" lon="10.128665"><ele>1426.0</ele><time>2026-04-19T10:35:19.976Z</time></trkpt><trkpt lat="44.3239117" lon="10.128675"><ele>1426.0</ele><time>2026-04-19T10:35:20.976Z</time></trkpt><trkpt lat="44.3238317" lon="10.1286983"><ele>1426.0</ele><time>2026-04-19T10:35:21.976Z</time></trkpt><trkpt lat="44.3237533" lon="10.128725"><ele>1426.8333333333333</ele><time>2026-04-19T10:35:22.976Z</time></trkpt><trkpt lat="44.32367" lon="10.1287417"><ele>1427.6666666666665</ele><time>2026-04-19T10:35:23.977Z</time></trkpt><trkpt lat="44.3235917" lon="10.1287367"><ele>1428.5</ele><time>2026-04-19T10:35:24.976Z</time></trkpt><trkpt lat="44.3235117" lon="10.128725"><ele>1429.3333333333333</ele><time>2026-04-19T10:35:25.976Z</time></trkpt><trkpt lat="44.3234183" lon="10.128715"><ele>1430.1666666666667</ele><time>2026-04-19T10:35:26.976Z</time></trkpt><trkpt lat="44.323335" lon="10.1287"><ele>1431.0</ele><time>2026-04-19T10:35:27.976Z</time></trkpt><trkpt lat="44.3232567" lon="10.1286717"><ele>1431.0</ele><time>2026-04-19T10:35:28.976Z</time></trkpt><trkpt lat="44.3231833" lon="10.128635"><ele>1431.0</ele><time>2026-04-19T10:35:29.976Z</time></trkpt><trkpt lat="44.3231117" lon="10.128585"><ele>1431.0</ele><time>2026-04-19T10:35:30.976Z</time></trkpt><trkpt lat="44.3230467" lon="10.1285167"><ele>1431.0</ele><time>2026-04-19T10:35:31.976Z</time></trkpt><trkpt lat="44.322985" lon="10.1284417"><ele>1431.0</ele><time>2026-04-19T10:35:32.976Z</time></trkpt><trkpt lat="44.3229367" lon="10.1283533"><ele>1431.0</ele><time>2026-04-19T10:35:33.976Z</time></trkpt><trkpt lat="44.3228967" lon="10.128265"><ele>1431.8333333333333</ele><time>2026-04-19T10:35:34.976Z</time></trkpt><trkpt lat="44.32286" lon="10.12817"><ele>1432.6666666666667</ele><time>2026-04-19T10:35:35.976Z</time></trkpt><trkpt lat="44.32283" lon="10.12807"><ele>1433.5</ele><time>2026-04-19T10:35:36.976Z</time></trkpt><trkpt lat="44.3227983" lon="10.1279733"><ele>1434.3333333333335</ele><time>2026-04-19T10:35:37.976Z</time></trkpt><trkpt lat="44.32277" lon="10.1278833"><ele>1435.1666666666667</ele><time>2026-04-19T10:35:38.976Z</time></trkpt><trkpt lat="44.3227383" lon="10.1277983"><ele>1436.0</ele><time>2026-04-19T10:35:39.976Z</time></trkpt><trkpt lat="44.3226717" lon="10.1276583"><ele>1436.0</ele><time>2026-04-19T10:35:41.976Z</time></trkpt><trkpt lat="44.3225933" lon="10.12756"><ele>1436.0</ele><time>2026-04-19T10:35:43.976Z</time></trkpt><trkpt lat="44.32249" lon="10.12752"><ele>1436.0</ele><time>2026-04-19T10:35:45.976Z</time></trkpt><trkpt lat="44.3224217" lon="10.1275283"><ele>1436.0</ele><time>2026-04-19T10:35:46.976Z</time></trkpt><trkpt lat="44.32234" lon="10.1275517"><ele>1436.0</ele><time>2026-04-19T10:35:47.976Z</time></trkpt><trkpt lat="44.3222683" lon="10.1275867"><ele>1436.0</ele><time>2026-04-19T10:35:48.976Z</time></trkpt><trkpt lat="44.3221917" lon="10.12762"><ele>1437.0</ele><time>2026-04-19T10:35:49.976Z</time></trkpt><trkpt lat="44.3221" lon="10.1276517"><ele>1438.0</ele><time>2026-04-19T10:35:50.976Z</time></trkpt><trkpt lat="44.322015" lon="10.127685"><ele>1439.0</ele><time>2026-04-19T10:35:51.976Z</time></trkpt><trkpt lat="44.3219433" lon="10.1277067"><ele>1440.0</ele><time>2026-04-19T10:35:52.976Z</time></trkpt><trkpt lat="44.3218733" lon="10.127715"><ele>1441.0</ele><time>2026-04-19T10:35:53.976Z</time></trkpt><trkpt lat="44.3218017" lon="10.12771"><ele>1442.0</ele><time>2026-04-19T10:35:54.976Z</time></trkpt><trkpt lat="44.3217267" lon="10.127715"><ele>1442.0</ele><time>2026-04-19T10:35:55.976Z</time></trkpt><trkpt lat="44.3216483" lon="10.1277267"><ele>1442.0</ele><time>2026-04-19T10:35:56.976Z</time></trkpt><trkpt lat="44.3215633" lon="10.1277417"><ele>1442.0</ele><time>2026-04-19T10:35:57.976Z</time></trkpt><trkpt lat="44.3214767" lon="10.1277517"><ele>1442.0</ele><time>2026-04-19T10:35:58.976Z</time></trkpt><trkpt lat="44.3213917" lon="10.1277533"><ele>1442.0</ele><time>2026-04-19T10:35:59.976Z</time></trkpt><trkpt lat="44.3213117" lon="10.1277367"><ele>1442.0</ele><time>2026-04-19T10:36:00.976Z</time></trkpt><trkpt lat="44.3212383" lon="10.127705"><ele>1440.7142857142858</ele><time>2026-04-19T10:36:01.976Z</time></trkpt><trkpt lat="44.321165" lon="10.1276517"><ele>1439.4285714285716</ele><time>2026-04-19T10:36:02.976Z</time></trkpt><trkpt lat="44.3210983" lon="10.1275983"><ele>1438.142857142857</ele><time>2026-04-19T10:36:03.976Z</time></trkpt><trkpt lat="44.3210433" lon="10.12754"><ele>1436.857142857143</ele><time>2026-04-19T10:36:04.976Z</time></trkpt><trkpt lat="44.3209867" lon="10.1274733"><ele>1435.5714285714287</ele><time>2026-04-19T10:36:05.976Z</time></trkpt><trkpt lat="44.32093" lon="10.12741"><ele>1434.2857142857142</ele><time>2026-04-19T10:36:06.976Z</time></trkpt><trkpt lat="44.32088" lon="10.1273467"><ele>1433.0</ele><time>2026-04-19T10:36:07.976Z</time></trkpt><trkpt lat="44.3208283" lon="10.1272867"><ele>1435.5714285714284</ele><time>2026-04-19T10:36:08.976Z</time></trkpt><trkpt lat="44.3207783" lon="10.1272233"><ele>1438.1428571428573</ele><time>2026-04-19T10:36:09.976Z</time></trkpt><trkpt lat="44.3207283" lon="10.1271583"><ele>1440.7142857142858</ele><time>2026-04-19T10:36:10.976Z</time></trkpt><trkpt lat="44.3206733" lon="10.127085"><ele>1443.2857142857142</ele><time>2026-04-19T10:36:11.976Z</time></trkpt><trkpt lat="44.3206133" lon="10.1270117"><ele>1445.8571428571427</ele><time>2026-04-19T10:36:12.976Z</time></trkpt><trkpt lat="44.320555" lon="10.1269433"><ele>1448.4285714285716</ele><time>2026-04-19T10:36:13.976Z</time></trkpt><trkpt lat="44.32049" lon="10.12689"><ele>1451.0</ele><time>2026-04-19T10:36:14.976Z</time></trkpt><trkpt lat="44.3204233" lon="10.1268467"><ele>1451.0</ele><time>2026-04-19T10:36:15.976Z</time></trkpt><trkpt lat="44.3203517" lon="10.1268067"><ele>1451.0</ele><time>2026-04-19T10:36:16.976Z</time></trkpt><trkpt lat="44.3202717" lon="10.1267733"><ele>1451.0</ele><time>2026-04-19T10:36:17.976Z</time></trkpt><trkpt lat="44.3201917" lon="10.126725"><ele>1451.0</ele><time>2026-04-19T10:36:18.976Z</time></trkpt><trkpt lat="44.32012" lon="10.1266817"><ele>1451.0</ele><time>2026-04-19T10:36:19.976Z</time></trkpt><trkpt lat="44.3200583" lon="10.1266383"><ele>1451.0</ele><time>2026-04-19T10:36:20.976Z</time></trkpt><trkpt lat="44.3199883" lon="10.12661"><ele>1452.0</ele><time>2026-04-19T10:36:21.976Z</time></trkpt><trkpt lat="44.3198683" lon="10.1265533"><ele>1453.0</ele><time>2026-04-19T10:36:23.976Z</time></trkpt><trkpt lat="44.319805" lon="10.1265267"><ele>1454.0</ele><time>2026-04-19T10:36:24.976Z</time></trkpt><trkpt lat="44.31974" lon="10.126495"><ele>1455.0</ele><time>2026-04-19T10:36:25.976Z</time></trkpt><trkpt lat="44.3196733" lon="10.1264733"><ele>1456.0</ele><time>2026-04-19T10:36:26.976Z</time></trkpt><trkpt lat="44.3195617" lon="10.12643"><ele>1457.0</ele><time>2026-04-19T10:36:28.976Z</time></trkpt><trkpt lat="44.3194433" lon="10.1263567"><ele>1457.0</ele><time>2026-04-19T10:36:30.976Z</time></trkpt><trkpt lat="44.3193883" lon="10.1263133"><ele>1457.0</ele><time>2026-04-19T10:36:31.976Z</time></trkpt><trkpt lat="44.3192983" lon="10.1262333"><ele>1457.0</ele><time>2026-04-19T10:36:33.976Z</time></trkpt><trkpt lat="44.3192633" lon="10.1261117"><ele>1457.0</ele><time>2026-04-19T10:36:35.977Z</time></trkpt><trkpt lat="44.3193317" lon="10.12602"><ele>1457.0</ele><time>2026-04-19T10:36:37.976Z</time></trkpt><trkpt lat="44.3193967" lon="10.1260233"><ele>1457.0</ele><time>2026-04-19T10:36:38.976Z</time></trkpt><trkpt lat="44.31947" lon="10.1260667"><ele>1457.0</ele><time>2026-04-19T10:36:39.976Z</time></trkpt><trkpt lat="44.3195517" lon="10.12613"><ele>1457.0</ele><time>2026-04-19T10:36:40.976Z</time></trkpt><trkpt lat="44.3196417" lon="10.126195"><ele>1457.0</ele><time>2026-04-19T10:36:41.976Z</time></trkpt><trkpt lat="44.3197333" lon="10.12624"><ele>1457.0</ele><time>2026-04-19T10:36:42.976Z</time></trkpt><trkpt lat="44.31982" lon="10.12627"><ele>1457.0</ele><time>2026-04-19T10:36:43.976Z</time></trkpt><trkpt lat="44.3199033" lon="10.1262783"><ele>1460.6666666666667</ele><time>2026-04-19T10:36:44.976Z</time></trkpt><trkpt lat="44.3199867" lon="10.12629"><ele>1464.3333333333335</ele><time>2026-04-19T10:36:45.976Z</time></trkpt><trkpt lat="44.320065" lon="10.1263117"><ele>1468.0</ele><time>2026-04-19T10:36:46.976Z</time></trkpt><trkpt lat="44.3201483" lon="10.1263283"><ele>1471.6666666666667</ele><time>2026-04-19T10:36:47.976Z</time></trkpt><trkpt lat="44.32024" lon="10.12634"><ele>1475.3333333333333</ele><time>2026-04-19T10:36:48.976Z</time></trkpt><trkpt lat="44.3203317" lon="10.1263467"><ele>1479.0</ele><time>2026-04-19T10:36:49.976Z</time></trkpt><trkpt lat="44.3204117" lon="10.126365"><ele>1479.0</ele><time>2026-04-19T10:36:50.976Z</time></trkpt><trkpt lat="44.320485" lon="10.1263933"><ele>1479.0</ele><time>2026-04-19T10:36:51.976Z</time></trkpt><trkpt lat="44.3205683" lon="10.1264217"><ele>1479.0</ele><time>2026-04-19T10:36:52.976Z</time></trkpt><trkpt lat="44.3206467" lon="10.1264483"><ele>1479.0</ele><time>2026-04-19T10:36:53.976Z</time></trkpt><trkpt lat="44.3207233" lon="10.1264767"><ele>1479.0</ele><time>2026-04-19T10:36:54.976Z</time></trkpt><trkpt lat="44.320805" lon="10.1265083"><ele>1479.0</ele><time>2026-04-19T10:36:55.976Z</time></trkpt><trkpt lat="44.3208917" lon="10.1265517"><ele>1475.6</ele><time>2026-04-19T10:36:56.976Z</time></trkpt><trkpt lat="44.32097" lon="10.1266083"><ele>1472.2</ele><time>2026-04-19T10:36:57.976Z</time></trkpt><trkpt lat="44.3210583" lon="10.1266633"><ele>1468.8</ele><time>2026-04-19T10:36:58.976Z</time></trkpt><trkpt lat="44.321145" lon="10.1266967"><ele>1465.3999999999999</ele><time>2026-04-19T10:36:59.976Z</time></trkpt><trkpt lat="44.3212333" lon="10.1267267"><ele>1462.0</ele><time>2026-04-19T10:37:00.976Z</time></trkpt><trkpt lat="44.3213217" lon="10.1267383"><ele>1462.6666666666665</ele><time>2026-04-19T10:37:01.976Z</time></trkpt><trkpt lat="44.3214083" lon="10.126735"><ele>1463.3333333333333</ele><time>2026-04-19T10:37:02.976Z</time></trkpt><trkpt lat="44.3214933" lon="10.1266983"><ele>1464.0</ele><time>2026-04-19T10:37:03.976Z</time></trkpt><trkpt lat="44.3215717" lon="10.1266467"><ele>1464.6666666666667</ele><time>2026-04-19T10:37:04.976Z</time></trkpt><trkpt lat="44.3216417" lon="10.1266033"><ele>1465.3333333333335</ele><time>2026-04-19T10:37:05.976Z</time></trkpt><trkpt lat="44.321715" lon="10.126545"><ele>1466.0</ele><time>2026-04-19T10:37:06.976Z</time></trkpt><trkpt lat="44.3217867" lon="10.12647"><ele>1469.6666666666667</ele><time>2026-04-19T10:37:07.976Z</time></trkpt><trkpt lat="44.32186" lon="10.126385"><ele>1473.3333333333335</ele><time>2026-04-19T10:37:08.976Z</time></trkpt><trkpt lat="44.3219267" lon="10.126285"><ele>1477.0</ele><time>2026-04-19T10:37:09.976Z</time></trkpt><trkpt lat="44.3219833" lon="10.1261867"><ele>1480.6666666666667</ele><time>2026-04-19T10:37:10.976Z</time></trkpt><trkpt lat="44.3220167" lon="10.126095"><ele>1484.3333333333333</ele><time>2026-04-19T10:37:11.976Z</time></trkpt><trkpt lat="44.32206" lon="10.1260083"><ele>1488.0</ele><time>2026-04-19T10:37:12.976Z</time></trkpt><trkpt lat="44.3221017" lon="10.1259283"><ele>1488.0000000000002</ele><time>2026-04-19T10:37:13.976Z</time></trkpt><trkpt lat="44.32214" lon="10.125845"><ele>1488.0</ele><time>2026-04-19T10:37:14.976Z</time></trkpt><trkpt lat="44.32218" lon="10.125775"><ele>1488.0</ele><time>2026-04-19T10:37:15.976Z</time></trkpt><trkpt lat="44.32223" lon="10.125705"><ele>1488.0</ele><time>2026-04-19T10:37:16.976Z</time></trkpt><trkpt lat="44.3222917" lon="10.1256533"><ele>1488.0</ele><time>2026-04-19T10:37:17.976Z</time></trkpt><trkpt lat="44.32236" lon="10.1256267"><ele>1488.0000000000002</ele><time>2026-04-19T10:37:18.976Z</time></trkpt><trkpt lat="44.3224333" lon="10.1256183"><ele>1488.0</ele><time>2026-04-19T10:37:19.976Z</time></trkpt><trkpt lat="44.322505" lon="10.1256233"><ele>1486.8000000000002</ele><time>2026-04-19T10:37:20.976Z</time></trkpt><trkpt lat="44.322615" lon="10.125585"><ele>1485.6</ele><time>2026-04-19T10:37:22.976Z</time></trkpt><trkpt lat="44.3227017" lon="10.1254817"><ele>1484.4</ele><time>2026-04-19T10:37:24.976Z</time></trkpt><trkpt lat="44.3227033" lon="10.1253467"><ele>1483.1999999999998</ele><time>2026-04-19T10:37:26.976Z</time></trkpt><trkpt lat="44.32264" lon="10.1252717"><ele>1482.0</ele><time>2026-04-19T10:37:28.976Z</time></trkpt><trkpt lat="44.322535" lon="10.1252683"><ele>1482.0</ele><time>2026-04-19T10:37:30.976Z</time></trkpt><trkpt lat="44.3224633" lon="10.12527"><ele>1482.0</ele><time>2026-04-19T10:37:31.976Z</time></trkpt><trkpt lat="44.3223783" lon="10.1252767"><ele>1482.0</ele><time>2026-04-19T10:37:32.976Z</time></trkpt><trkpt lat="44.32228" lon="10.12529"><ele>1482.0</ele><time>2026-04-19T10:37:33.976Z</time></trkpt><trkpt lat="44.32218" lon="10.1253117"><ele>1482.0</ele><time>2026-04-19T10:37:34.976Z</time></trkpt><trkpt lat="44.3220917" lon="10.1253383"><ele>1482.0</ele><time>2026-04-19T10:37:35.976Z</time></trkpt><trkpt lat="44.3220283" lon="10.1253667"><ele>1494.0</ele><time>2026-04-19T10:37:36.976Z</time></trkpt><trkpt lat="44.3219483" lon="10.1254217"><ele>1494.0</ele><time>2026-04-19T10:37:38.976Z</time></trkpt><trkpt lat="44.32189" lon="10.125465"><ele>1494.0</ele><time>2026-04-19T10:37:40.976Z</time></trkpt><trkpt lat="44.3219317" lon="10.12557"><ele>1494.0</ele><time>2026-04-19T10:38:52.976Z</time></trkpt></trkseg><trkseg><trkpt lat="44.32191" lon="10.12546"><ele>1494.0</ele><time>2026-04-19T11:06:47.975Z</time></trkpt><trkpt lat="44.32199" lon="10.1253767"><ele>1494.0</ele><time>2026-04-19T11:06:50.975Z</time></trkpt><trkpt lat="44.3220883" lon="10.1253367"><ele>1494.0</ele><time>2026-04-19T11:06:52.975Z</time></trkpt><trkpt lat="44.3222" lon="10.1253233"><ele>1494.0</ele><time>2026-04-19T11:06:54.975Z</time></trkpt><trkpt lat="44.3223" lon="10.12531"><ele>1494.0</ele><time>2026-04-19T11:06:56.975Z</time></trkpt><trkpt lat="44.32239" lon="10.1253033"><ele>1492.0</ele><time>2026-04-19T11:06:58.975Z</time></trkpt><trkpt lat="44.3224783" lon="10.1253033"><ele>1490.0</ele><time>2026-04-19T11:07:00.975Z</time></trkpt><trkpt lat="44.3225517" lon="10.1253117"><ele>1488.0</ele><time>2026-04-19T11:07:02.975Z</time></trkpt><trkpt lat="44.322605" lon="10.125395"><ele>1486.0</ele><time>2026-04-19T11:07:05.975Z</time></trkpt><trkpt lat="44.3225567" lon="10.1255133"><ele>1484.0</ele><time>2026-04-19T11:07:08.975Z</time></trkpt><trkpt lat="44.322495" lon="10.12557"><ele>1482.0</ele><time>2026-04-19T11:07:10.975Z</time></trkpt><trkpt lat="44.3224317" lon="10.1256167"><ele>1482.0</ele><time>2026-04-19T11:07:12.976Z</time></trkpt><trkpt lat="44.3223517" lon="10.12564"><ele>1482.0</ele><time>2026-04-19T11:07:14.975Z</time></trkpt><trkpt lat="44.3222583" lon="10.125675"><ele>1482.0</ele><time>2026-04-19T11:07:16.975Z</time></trkpt><trkpt lat="44.3221767" lon="10.12576"><ele>1482.0</ele><time>2026-04-19T11:07:18.975Z</time></trkpt><trkpt lat="44.3221067" lon="10.12586"><ele>1482.0</ele><time>2026-04-19T11:07:20.975Z</time></trkpt><trkpt lat="44.3220467" lon="10.1259583"><ele>1483.0</ele><time>2026-04-19T11:07:22.975Z</time></trkpt><trkpt lat="44.3219983" lon="10.1260683"><ele>1484.0</ele><time>2026-04-19T11:07:24.975Z</time></trkpt><trkpt lat="44.3219483" lon="10.126165"><ele>1485.0</ele><time>2026-04-19T11:07:26.975Z</time></trkpt><trkpt lat="44.321895" lon="10.1262583"><ele>1486.0</ele><time>2026-04-19T11:07:28.975Z</time></trkpt><trkpt lat="44.321825" lon="10.1263633"><ele>1487.0</ele><time>2026-04-19T11:07:30.975Z</time></trkpt><trkpt lat="44.3217617" lon="10.1264383"><ele>1488.0</ele><time>2026-04-19T11:07:32.975Z</time></trkpt><trkpt lat="44.32168" lon="10.1265133"><ele>1483.6000000000001</ele><time>2026-04-19T11:07:34.975Z</time></trkpt><trkpt lat="44.321595" lon="10.1265667"><ele>1479.2</ele><time>2026-04-19T11:07:36.975Z</time></trkpt><trkpt lat="44.321515" lon="10.1266217"><ele>1474.8</ele><time>2026-04-19T11:07:38.975Z</time></trkpt><trkpt lat="44.3214233" lon="10.12667"><ele>1470.4</ele><time>2026-04-19T11:07:40.975Z</time></trkpt><trkpt lat="44.3213333" lon="10.126685"><ele>1466.0</ele><time>2026-04-19T11:07:42.975Z</time></trkpt><trkpt lat="44.3212217" lon="10.1266683"><ele>1465.4285714285713</ele><time>2026-04-19T11:07:44.975Z</time></trkpt><trkpt lat="44.3211533" lon="10.126655"><ele>1464.857142857143</ele><time>2026-04-19T11:07:45.975Z</time></trkpt><trkpt lat="44.32108" lon="10.1266267"><ele>1464.2857142857142</ele><time>2026-04-19T11:07:46.975Z</time></trkpt><trkpt lat="44.321005" lon="10.1266"><ele>1463.7142857142858</ele><time>2026-04-19T11:07:47.975Z</time></trkpt><trkpt lat="44.32093" lon="10.12657"><ele>1463.142857142857</ele><time>2026-04-19T11:07:48.975Z</time></trkpt><trkpt lat="44.3208617" lon="10.1265383"><ele>1462.5714285714284</ele><time>2026-04-19T11:07:49.975Z</time></trkpt><trkpt lat="44.3207967" lon="10.1265167"><ele>1462.0</ele><time>2026-04-19T11:07:50.975Z</time></trkpt><trkpt lat="44.3207333" lon="10.1265017"><ele>1464.4285714285713</ele><time>2026-04-19T11:07:51.975Z</time></trkpt><trkpt lat="44.3206667" lon="10.1264767"><ele>1466.8571428571427</ele><time>2026-04-19T11:07:52.975Z</time></trkpt><trkpt lat="44.3205967" lon="10.12645"><ele>1469.2857142857142</ele><time>2026-04-19T11:07:53.975Z</time></trkpt><trkpt lat="44.32053" lon="10.1264283"><ele>1471.7142857142858</ele><time>2026-04-19T11:07:54.976Z</time></trkpt><trkpt lat="44.320465" lon="10.126405"><ele>1474.142857142857</ele><time>2026-04-19T11:07:55.975Z</time></trkpt><trkpt lat="44.3204017" lon="10.1263867"><ele>1476.5714285714287</ele><time>2026-04-19T11:07:56.975Z</time></trkpt><trkpt lat="44.3203383" lon="10.1263667"><ele>1479.0</ele><time>2026-04-19T11:07:57.975Z</time></trkpt><trkpt lat="44.320275" lon="10.126355"><ele>1479.0</ele><time>2026-04-19T11:07:58.975Z</time></trkpt><trkpt lat="44.3202017" lon="10.126355"><ele>1479.0</ele><time>2026-04-19T11:07:59.975Z</time></trkpt><trkpt lat="44.320135" lon="10.126345"><ele>1479.0</ele><time>2026-04-19T11:08:00.975Z</time></trkpt><trkpt lat="44.3200667" lon="10.1263333"><ele>1479.0</ele><time>2026-04-19T11:08:01.975Z</time></trkpt><trkpt lat="44.31995" lon="10.1263183"><ele>1479.0</ele><time>2026-04-19T11:08:03.975Z</time></trkpt><trkpt lat="44.319885" lon="10.12631"><ele>1479.0</ele><time>2026-04-19T11:08:04.975Z</time></trkpt><trkpt lat="44.31982" lon="10.12628"><ele>1473.5</ele><time>2026-04-19T11:08:05.975Z</time></trkpt><trkpt lat="44.3197117" lon="10.1262333"><ele>1468.0</ele><time>2026-04-19T11:08:07.976Z</time></trkpt><trkpt lat="44.3196017" lon="10.126175"><ele>1462.5</ele><time>2026-04-19T11:08:09.975Z</time></trkpt><trkpt lat="44.3195017" lon="10.1260983"><ele>1457.0</ele><time>2026-04-19T11:08:11.975Z</time></trkpt><trkpt lat="44.3193983" lon="10.1260333"><ele>1457.0</ele><time>2026-04-19T11:08:13.975Z</time></trkpt><trkpt lat="44.319305" lon="10.1260133"><ele>1457.0</ele><time>2026-04-19T11:08:15.975Z</time></trkpt><trkpt lat="44.3192417" lon="10.12607"><ele>1457.0</ele><time>2026-04-19T11:08:17.975Z</time></trkpt><trkpt lat="44.3192467" lon="10.126215"><ele>1457.0</ele><time>2026-04-19T11:08:19.975Z</time></trkpt><trkpt lat="44.3193367" lon="10.1263183"><ele>1457.0</ele><time>2026-04-19T11:08:21.975Z</time></trkpt><trkpt lat="44.3194317" lon="10.1263717"><ele>1457.0</ele><time>2026-04-19T11:08:23.975Z</time></trkpt><trkpt lat="44.3195133" lon="10.1264117"><ele>1457.0</ele><time>2026-04-19T11:08:25.975Z</time></trkpt><trkpt lat="44.3195767" lon="10.126435"><ele>1457.0</ele><time>2026-04-19T11:08:27.975Z</time></trkpt><trkpt lat="44.3196867" lon="10.1264717"><ele>1457.0</ele><time>2026-04-19T11:08:30.975Z</time></trkpt><trkpt lat="44.3198083" lon="10.12652"><ele>1457.0</ele><time>2026-04-19T11:08:32.975Z</time></trkpt><trkpt lat="44.3198783" lon="10.12654"><ele>1456.142857142857</ele><time>2026-04-19T11:08:33.975Z</time></trkpt><trkpt lat="44.3199517" lon="10.1265633"><ele>1455.2857142857142</ele><time>2026-04-19T11:08:34.975Z</time></trkpt><trkpt lat="44.320035" lon="10.126585"><ele>1454.4285714285716</ele><time>2026-04-19T11:08:35.975Z</time></trkpt><trkpt lat="44.3201117" lon="10.1266083"><ele>1453.5714285714284</ele><time>2026-04-19T11:08:36.975Z</time></trkpt><trkpt lat="44.3201867" lon="10.1266317"><ele>1452.7142857142856</ele><time>2026-04-19T11:08:37.975Z</time></trkpt><trkpt lat="44.32025" lon="10.1266667"><ele>1451.857142857143</ele><time>2026-04-19T11:08:38.975Z</time></trkpt><trkpt lat="44.32031" lon="10.1267017"><ele>1451.0</ele><time>2026-04-19T11:08:39.975Z</time></trkpt><trkpt lat="44.3204083" lon="10.1267667"><ele>1451.0</ele><time>2026-04-19T11:08:41.975Z</time></trkpt><trkpt lat="44.3205033" lon="10.1268333"><ele>1451.0</ele><time>2026-04-19T11:08:43.975Z</time></trkpt><trkpt lat="44.3206" lon="10.1269367"><ele>1451.0</ele><time>2026-04-19T11:08:45.975Z</time></trkpt><trkpt lat="44.3206533" lon="10.1269983"><ele>1451.0</ele><time>2026-04-19T11:08:46.975Z</time></trkpt><trkpt lat="44.3207067" lon="10.12706"><ele>1451.0</ele><time>2026-04-19T11:08:47.975Z</time></trkpt><trkpt lat="44.3207567" lon="10.12712"><ele>1451.0</ele><time>2026-04-19T11:08:48.975Z</time></trkpt><trkpt lat="44.3208417" lon="10.1272333"><ele>1453.1999999999998</ele><time>2026-04-19T11:08:50.975Z</time></trkpt><trkpt lat="44.320925" lon="10.12734"><ele>1455.3999999999999</ele><time>2026-04-19T11:08:52.975Z</time></trkpt><trkpt lat="44.3210133" lon="10.1274533"><ele>1457.6</ele><time>2026-04-19T11:08:54.975Z</time></trkpt><trkpt lat="44.3210683" lon="10.1275133"><ele>1459.8</ele><time>2026-04-19T11:08:55.975Z</time></trkpt><trkpt lat="44.3211283" lon="10.1275833"><ele>1462.0</ele><time>2026-04-19T11:08:56.975Z</time></trkpt><trkpt lat="44.3211983" lon="10.127645"><ele>1458.6666666666665</ele><time>2026-04-19T11:08:57.975Z</time></trkpt><trkpt lat="44.3212717" lon="10.1276967"><ele>1455.3333333333333</ele><time>2026-04-19T11:08:58.975Z</time></trkpt><trkpt lat="44.32135" lon="10.1277383"><ele>1452.0</ele><time>2026-04-19T11:08:59.975Z</time></trkpt><trkpt lat="44.3214267" lon="10.1277667"><ele>1448.6666666666667</ele><time>2026-04-19T11:09:00.975Z</time></trkpt><trkpt lat="44.3215017" lon="10.1277717"><ele>1445.3333333333335</ele><time>2026-04-19T11:09:01.975Z</time></trkpt><trkpt lat="44.3215717" lon="10.1277633"><ele>1442.0</ele><time>2026-04-19T11:09:02.975Z</time></trkpt><trkpt lat="44.3216383" lon="10.1277583"><ele>1442.0</ele><time>2026-04-19T11:09:03.975Z</time></trkpt><trkpt lat="44.3217017" lon="10.127755"><ele>1442.0</ele><time>2026-04-19T11:09:04.975Z</time></trkpt><trkpt lat="44.321815" lon="10.127755"><ele>1442.0</ele><time>2026-04-19T11:09:06.975Z</time></trkpt><trkpt lat="44.321885" lon="10.1277483"><ele>1442.0</ele><time>2026-04-19T11:09:07.975Z</time></trkpt><trkpt lat="44.321955" lon="10.12773"><ele>1442.0</ele><time>2026-04-19T11:09:08.975Z</time></trkpt><trkpt lat="44.322025" lon="10.1277067"><ele>1442.0</ele><time>2026-04-19T11:09:09.976Z</time></trkpt><trkpt lat="44.3220967" lon="10.127675"><ele>1442.0</ele><time>2026-04-19T11:09:10.975Z</time></trkpt><trkpt lat="44.3221633" lon="10.127645"><ele>1442.0</ele><time>2026-04-19T11:09:11.975Z</time></trkpt><trkpt lat="44.32222" lon="10.127605"><ele>1442.0</ele><time>2026-04-19T11:09:12.975Z</time></trkpt><trkpt lat="44.32232" lon="10.1275333"><ele>1442.0</ele><time>2026-04-19T11:09:14.975Z</time></trkpt><trkpt lat="44.3224117" lon="10.1274983"><ele>1442.0</ele><time>2026-04-19T11:09:16.975Z</time></trkpt><trkpt lat="44.3225283" lon="10.1275667"><ele>1441.142857142857</ele><time>2026-04-19T11:09:19.975Z</time></trkpt><trkpt lat="44.3225667" lon="10.1276383"><ele>1440.2857142857142</ele><time>2026-04-19T11:09:20.975Z</time></trkpt><trkpt lat="44.3226083" lon="10.1277133"><ele>1439.4285714285716</ele><time>2026-04-19T11:09:21.975Z</time></trkpt><trkpt lat="44.32265" lon="10.1278083"><ele>1438.5714285714284</ele><time>2026-04-19T11:09:22.975Z</time></trkpt><trkpt lat="44.3226867" lon="10.1278983"><ele>1437.7142857142858</ele><time>2026-04-19T11:09:23.975Z</time></trkpt><trkpt lat="44.3227183" lon="10.1279917"><ele>1436.857142857143</ele><time>2026-04-19T11:09:24.975Z</time></trkpt><trkpt lat="44.32275" lon="10.1280767"><ele>1436.0</ele><time>2026-04-19T11:09:25.975Z</time></trkpt><trkpt lat="44.322815" lon="10.128225"><ele>1435.0</ele><time>2026-04-19T11:09:27.975Z</time></trkpt><trkpt lat="44.3228917" lon="10.1283717"><ele>1434.0</ele><time>2026-04-19T11:09:29.975Z</time></trkpt><trkpt lat="44.32295" lon="10.1284517"><ele>1433.0</ele><time>2026-04-19T11:09:30.975Z</time></trkpt><trkpt lat="44.3230167" lon="10.1285333"><ele>1432.0</ele><time>2026-04-19T11:09:31.975Z</time></trkpt><trkpt lat="44.323095" lon="10.1286083"><ele>1431.0</ele><time>2026-04-19T11:09:32.975Z</time></trkpt><trkpt lat="44.3231817" lon="10.12867"><ele>1431.0</ele><time>2026-04-19T11:09:33.975Z</time></trkpt><trkpt lat="44.3232917" lon="10.1287233"><ele>1431.0</ele><time>2026-04-19T11:09:34.975Z</time></trkpt><trkpt lat="44.3233967" lon="10.1287517"><ele>1431.0</ele><time>2026-04-19T11:09:35.975Z</time></trkpt><trkpt lat="44.3234967" lon="10.1287667"><ele>1431.0</ele><time>2026-04-19T11:09:36.975Z</time></trkpt><trkpt lat="44.3235917" lon="10.1287633"><ele>1431.0</ele><time>2026-04-19T11:09:37.975Z</time></trkpt><trkpt lat="44.3236917" lon="10.128755"><ele>1431.0</ele><time>2026-04-19T11:09:38.975Z</time></trkpt><trkpt lat="44.3237783" lon="10.1287383"><ele>1431.0</ele><time>2026-04-19T11:09:39.975Z</time></trkpt><trkpt lat="44.3238617" lon="10.1287183"><ele>1431.0</ele><time>2026-04-19T11:09:40.975Z</time></trkpt><trkpt lat="44.323935" lon="10.128705"><ele>1431.0</ele><time>2026-04-19T11:09:41.975Z</time></trkpt><trkpt lat="44.32401" lon="10.128695"><ele>1431.0</ele><time>2026-04-19T11:09:42.975Z</time></trkpt><trkpt lat="44.3240733" lon="10.12869"><ele>1431.0</ele><time>2026-04-19T11:09:43.975Z</time></trkpt><trkpt lat="44.3241383" lon="10.1286933"><ele>1430.0</ele><time>2026-04-19T11:09:44.975Z</time></trkpt><trkpt lat="44.3242033" lon="10.1287083"><ele>1429.0</ele><time>2026-04-19T11:09:45.975Z</time></trkpt><trkpt lat="44.3243233" lon="10.1287183"><ele>1428.0</ele><time>2026-04-19T11:09:47.975Z</time></trkpt><trkpt lat="44.32443" lon="10.12869"><ele>1427.0</ele><time>2026-04-19T11:09:49.975Z</time></trkpt><trkpt lat="44.3245283" lon="10.1286"><ele>1426.0</ele><time>2026-04-19T11:09:51.975Z</time></trkpt><trkpt lat="44.3246" lon="10.128505"><ele>1426.0</ele><time>2026-04-19T11:09:53.975Z</time></trkpt><trkpt lat="44.3246617" lon="10.1284117"><ele>1426.0</ele><time>2026-04-19T11:09:55.975Z</time></trkpt><trkpt lat="44.3247317" lon="10.12833"><ele>1426.0</ele><time>2026-04-19T11:09:57.975Z</time></trkpt><trkpt lat="44.32481" lon="10.1282967"><ele>1426.0</ele><time>2026-04-19T11:09:59.975Z</time></trkpt><trkpt lat="44.3248783" lon="10.12834"><ele>1426.0</ele><time>2026-04-19T11:10:01.975Z</time></trkpt><trkpt lat="44.3248933" lon="10.1284433"><ele>1426.0</ele><time>2026-04-19T11:10:03.975Z</time></trkpt><trkpt lat="44.32484" lon="10.1285817"><ele>1426.0</ele><time>2026-04-19T11:10:05.976Z</time></trkpt><trkpt lat="44.3247617" lon="10.1286933"><ele>1426.0</ele><time>2026-04-19T11:10:07.975Z</time></trkpt><trkpt lat="44.324675" lon="10.1287983"><ele>1426.0</ele><time>2026-04-19T11:10:09.975Z</time></trkpt><trkpt lat="44.3246067" lon="10.128895"><ele>1426.0</ele><time>2026-04-19T11:10:11.975Z</time></trkpt><trkpt lat="44.324525" lon="10.128985"><ele>1426.0</ele><time>2026-04-19T11:10:13.975Z</time></trkpt><trkpt lat="44.3244283" lon="10.1290367"><ele>1421.6</ele><time>2026-04-19T11:10:15.975Z</time></trkpt><trkpt lat="44.324305" lon="10.1290783"><ele>1417.1999999999998</ele><time>2026-04-19T11:10:17.975Z</time></trkpt><trkpt lat="44.3242417" lon="10.129115"><ele>1412.8000000000002</ele><time>2026-04-19T11:10:18.975Z</time></trkpt><trkpt lat="44.3241767" lon="10.1291583"><ele>1408.4</ele><time>2026-04-19T11:10:19.975Z</time></trkpt><trkpt lat="44.324075" lon="10.129235"><ele>1404.0</ele><time>2026-04-19T11:10:21.975Z</time></trkpt><trkpt lat="44.3240183" lon="10.1292933"><ele>1404.0</ele><time>2026-04-19T11:10:22.975Z</time></trkpt><trkpt lat="44.323955" lon="10.12935"><ele>1404.0</ele><time>2026-04-19T11:10:23.975Z</time></trkpt><trkpt lat="44.323895" lon="10.1294117"><ele>1404.0</ele><time>2026-04-19T11:10:24.975Z</time></trkpt><trkpt lat="44.3238283" lon="10.129475"><ele>1404.0</ele><time>2026-04-19T11:10:25.975Z</time></trkpt><trkpt lat="44.3237483" lon="10.1295367"><ele>1404.0</ele><time>2026-04-19T11:10:26.975Z</time></trkpt><trkpt lat="44.3236533" lon="10.1296"><ele>1404.0</ele><time>2026-04-19T11:10:27.975Z</time></trkpt><trkpt lat="44.3235683" lon="10.12964"><ele>1405.1666666666667</ele><time>2026-04-19T11:10:28.975Z</time></trkpt><trkpt lat="44.3234883" lon="10.1296733"><ele>1406.3333333333333</ele><time>2026-04-19T11:10:29.975Z</time></trkpt><trkpt lat="44.3234167" lon="10.12971"><ele>1407.5</ele><time>2026-04-19T11:10:30.975Z</time></trkpt><trkpt lat="44.32334" lon="10.1297367"><ele>1408.6666666666665</ele><time>2026-04-19T11:10:31.975Z</time></trkpt><trkpt lat="44.3232583" lon="10.12975"><ele>1409.8333333333333</ele><time>2026-04-19T11:10:32.975Z</time></trkpt><trkpt lat="44.3231783" lon="10.1297533"><ele>1411.0</ele><time>2026-04-19T11:10:33.975Z</time></trkpt><trkpt lat="44.3230933" lon="10.129765"><ele>1408.4</ele><time>2026-04-19T11:10:34.975Z</time></trkpt><trkpt lat="44.3230067" lon="10.12977"><ele>1405.8</ele><time>2026-04-19T11:10:35.975Z</time></trkpt><trkpt lat="44.3229083" lon="10.12975"><ele>1403.2</ele><time>2026-04-19T11:10:36.975Z</time></trkpt><trkpt lat="44.3228167" lon="10.1297167"><ele>1400.6000000000001</ele><time>2026-04-19T11:10:37.975Z</time></trkpt><trkpt lat="44.32273" lon="10.1296867"><ele>1398.0</ele><time>2026-04-19T11:10:38.975Z</time></trkpt><trkpt lat="44.32264" lon="10.1296383"><ele>1398.0</ele><time>2026-04-19T11:10:39.975Z</time></trkpt><trkpt lat="44.3225683" lon="10.1295683"><ele>1398.0</ele><time>2026-04-19T11:10:40.975Z</time></trkpt><trkpt lat="44.322505" lon="10.1294883"><ele>1398.0</ele><time>2026-04-19T11:10:41.975Z</time></trkpt><trkpt lat="44.3224517" lon="10.1294133"><ele>1398.0</ele><time>2026-04-19T11:10:42.975Z</time></trkpt><trkpt lat="44.32241" lon="10.1293333"><ele>1398.0</ele><time>2026-04-19T11:10:43.975Z</time></trkpt><trkpt lat="44.322325" lon="10.1292083"><ele>1398.0</ele><time>2026-04-19T11:10:45.975Z</time></trkpt><trkpt lat="44.32227" lon="10.129165"><ele>1397.4</ele><time>2026-04-19T11:10:46.975Z</time></trkpt><trkpt lat="44.322145" lon="10.1291917"><ele>1396.8000000000002</ele><time>2026-04-19T11:10:48.975Z</time></trkpt><trkpt lat="44.32206" lon="10.1292583"><ele>1396.2</ele><time>2026-04-19T11:10:49.975Z</time></trkpt><trkpt lat="44.3219733" lon="10.1293367"><ele>1395.6</ele><time>2026-04-19T11:10:50.975Z</time></trkpt><trkpt lat="44.3218817" lon="10.1294083"><ele>1395.0</ele><time>2026-04-19T11:10:51.975Z</time></trkpt><trkpt lat="44.3217883" lon="10.1294883"><ele>1395.0</ele><time>2026-04-19T11:10:52.975Z</time></trkpt><trkpt lat="44.321695" lon="10.1295617"><ele>1395.0</ele><time>2026-04-19T11:10:53.975Z</time></trkpt><trkpt lat="44.321605" lon="10.1296283"><ele>1395.0</ele><time>2026-04-19T11:10:54.975Z</time></trkpt><trkpt lat="44.3215133" lon="10.1296933"><ele>1395.0</ele><time>2026-04-19T11:10:55.975Z</time></trkpt><trkpt lat="44.321425" lon="10.1297317"><ele>1395.0</ele><time>2026-04-19T11:10:56.975Z</time></trkpt><trkpt lat="44.3213367" lon="10.1297417"><ele>1392.3333333333333</ele><time>2026-04-19T11:10:57.975Z</time></trkpt><trkpt lat="44.321265" lon="10.1297217"><ele>1389.6666666666667</ele><time>2026-04-19T11:10:58.975Z</time></trkpt><trkpt lat="44.321195" lon="10.129675"><ele>1387.0</ele><time>2026-04-19T11:10:59.975Z</time></trkpt><trkpt lat="44.3211233" lon="10.1296183"><ele>1384.3333333333335</ele><time>2026-04-19T11:11:00.975Z</time></trkpt><trkpt lat="44.3210483" lon="10.1295583"><ele>1381.6666666666667</ele><time>2026-04-19T11:11:01.975Z</time></trkpt><trkpt lat="44.3209717" lon="10.1294933"><ele>1379.0</ele><time>2026-04-19T11:11:02.975Z</time></trkpt><trkpt lat="44.3208967" lon="10.1294333"><ele>1379.0</ele><time>2026-04-19T11:11:03.975Z</time></trkpt><trkpt lat="44.3208333" lon="10.1293667"><ele>1379.0</ele><time>2026-04-19T11:11:04.975Z</time></trkpt><trkpt lat="44.3207767" lon="10.129305"><ele>1379.0</ele><time>2026-04-19T11:11:05.975Z</time></trkpt><trkpt lat="44.3207133" lon="10.12925"><ele>1379.0</ele><time>2026-04-19T11:11:06.975Z</time></trkpt><trkpt lat="44.3206483" lon="10.12919"><ele>1379.0</ele><time>2026-04-19T11:11:07.975Z</time></trkpt><trkpt lat="44.3205867" lon="10.1291317"><ele>1379.0</ele><time>2026-04-19T11:11:08.975Z</time></trkpt><trkpt lat="44.3205283" lon="10.12908"><ele>1379.0</ele><time>2026-04-19T11:11:09.975Z</time></trkpt><trkpt lat="44.3204233" lon="10.1289867"><ele>1380.3333333333335</ele><time>2026-04-19T11:11:11.975Z</time></trkpt><trkpt lat="44.320355" lon="10.1289517"><ele>1381.6666666666667</ele><time>2026-04-19T11:11:12.975Z</time></trkpt><trkpt lat="44.3202833" lon="10.1289217"><ele>1383.0</ele><time>2026-04-19T11:11:13.975Z</time></trkpt><trkpt lat="44.3202067" lon="10.1288967"><ele>1384.3333333333333</ele><time>2026-04-19T11:11:14.975Z</time></trkpt><trkpt lat="44.32012" lon="10.128865"><ele>1385.6666666666665</ele><time>2026-04-19T11:11:15.975Z</time></trkpt><trkpt lat="44.320015" lon="10.1288217"><ele>1387.0</ele><time>2026-04-19T11:11:16.975Z</time></trkpt><trkpt lat="44.3199133" lon="10.12877"><ele>1387.0</ele><time>2026-04-19T11:11:17.975Z</time></trkpt><trkpt lat="44.31981" lon="10.128725"><ele>1387.0</ele><time>2026-04-19T11:11:18.975Z</time></trkpt><trkpt lat="44.3197033" lon="10.1287033"><ele>1387.0</ele><time>2026-04-19T11:11:19.975Z</time></trkpt><trkpt lat="44.3195983" lon="10.128695"><ele>1387.0</ele><time>2026-04-19T11:11:20.975Z</time></trkpt><trkpt lat="44.3194983" lon="10.1286783"><ele>1387.0</ele><time>2026-04-19T11:11:21.975Z</time></trkpt><trkpt lat="44.3194117" lon="10.1286533"><ele>1385.0</ele><time>2026-04-19T11:11:22.975Z</time></trkpt><trkpt lat="44.3193333" lon="10.1286183"><ele>1383.0</ele><time>2026-04-19T11:11:23.975Z</time></trkpt><trkpt lat="44.319255" lon="10.1285917"><ele>1381.0</ele><time>2026-04-19T11:11:24.975Z</time></trkpt><trkpt lat="44.3191967" lon="10.12855"><ele>1379.0</ele><time>2026-04-19T11:11:25.975Z</time></trkpt><trkpt lat="44.3190883" lon="10.1285"><ele>1377.0</ele><time>2026-04-19T11:11:27.975Z</time></trkpt><trkpt lat="44.319055" lon="10.1286"><ele>1375.0</ele><time>2026-04-19T11:11:30.975Z</time></trkpt><trkpt lat="44.3191133" lon="10.1286717"><ele>1375.0</ele><time>2026-04-19T11:11:32.975Z</time></trkpt><trkpt lat="44.31921" lon="10.128715"><ele>1375.0</ele><time>2026-04-19T11:11:34.975Z</time></trkpt><trkpt lat="44.3193167" lon="10.128735"><ele>1375.0</ele><time>2026-04-19T11:11:36.975Z</time></trkpt><trkpt lat="44.3194333" lon="10.1287683"><ele>1375.0</ele><time>2026-04-19T11:11:38.975Z</time></trkpt><trkpt lat="44.3195" lon="10.1287917"><ele>1375.0</ele><time>2026-04-19T11:11:39.976Z</time></trkpt><trkpt lat="44.3195683" lon="10.1288317"><ele>1375.0</ele><time>2026-04-19T11:11:40.975Z</time></trkpt><trkpt lat="44.3196333" lon="10.1288683"><ele>1375.0</ele><time>2026-04-19T11:11:41.975Z</time></trkpt><trkpt lat="44.3197117" lon="10.1289117"><ele>1375.0</ele><time>2026-04-19T11:11:42.975Z</time></trkpt><trkpt lat="44.3197883" lon="10.1289667"><ele>1375.0</ele><time>2026-04-19T11:11:43.975Z</time></trkpt><trkpt lat="44.3198633" lon="10.1290183"><ele>1375.0</ele><time>2026-04-19T11:11:44.975Z</time></trkpt><trkpt lat="44.3199383" lon="10.1290767"><ele>1375.0</ele><time>2026-04-19T11:11:45.975Z</time></trkpt><trkpt lat="44.320005" lon="10.129145"><ele>1370.25</ele><time>2026-04-19T11:11:46.975Z</time></trkpt><trkpt lat="44.320095" lon="10.1292367"><ele>1365.5</ele><time>2026-04-19T11:11:47.975Z</time></trkpt><trkpt lat="44.3202017" lon="10.129325"><ele>1360.75</ele><time>2026-04-19T11:11:48.975Z</time></trkpt><trkpt lat="44.3202983" lon="10.129425"><ele>1356.0</ele><time>2026-04-19T11:11:49.975Z</time></trkpt><trkpt lat="44.32039" lon="10.129515"><ele>1356.0</ele><time>2026-04-19T11:11:50.975Z</time></trkpt><trkpt lat="44.3204633" lon="10.1296"><ele>1356.0</ele><time>2026-04-19T11:11:51.975Z</time></trkpt><trkpt lat="44.3205267" lon="10.1296983"><ele>1356.0</ele><time>2026-04-19T11:11:52.975Z</time></trkpt><trkpt lat="44.32058" lon="10.129785"><ele>1356.0</ele><time>2026-04-19T11:11:53.975Z</time></trkpt><trkpt lat="44.320625" lon="10.12988"><ele>1356.0</ele><time>2026-04-19T11:11:54.975Z</time></trkpt><trkpt lat="44.320675" lon="10.1299717"><ele>1356.0</ele><time>2026-04-19T11:11:55.975Z</time></trkpt><trkpt lat="44.320725" lon="10.1300683"><ele>1356.1666666666667</ele><time>2026-04-19T11:11:56.975Z</time></trkpt><trkpt lat="44.3207767" lon="10.1301567"><ele>1356.3333333333333</ele><time>2026-04-19T11:11:57.975Z</time></trkpt><trkpt lat="44.3208317" lon="10.13024"><ele>1356.5</ele><time>2026-04-19T11:11:58.975Z</time></trkpt><trkpt lat="44.32088" lon="10.1303267"><ele>1356.6666666666665</ele><time>2026-04-19T11:11:59.975Z</time></trkpt><trkpt lat="44.3209267" lon="10.13043"><ele>1356.8333333333333</ele><time>2026-04-19T11:12:00.975Z</time></trkpt><trkpt lat="44.3209733" lon="10.1305317"><ele>1357.0</ele><time>2026-04-19T11:12:01.975Z</time></trkpt><trkpt lat="44.3210317" lon="10.1306233"><ele>1357.0</ele><time>2026-04-19T11:12:02.975Z</time></trkpt><trkpt lat="44.3210983" lon="10.1306983"><ele>1357.0</ele><time>2026-04-19T11:12:03.975Z</time></trkpt><trkpt lat="44.321175" lon="10.1307633"><ele>1357.0</ele><time>2026-04-19T11:12:04.975Z</time></trkpt><trkpt lat="44.32126" lon="10.13082"><ele>1357.0</ele><time>2026-04-19T11:12:05.975Z</time></trkpt><trkpt lat="44.3213433" lon="10.1308817"><ele>1357.0</ele><time>2026-04-19T11:12:06.975Z</time></trkpt><trkpt lat="44.3214217" lon="10.13094"><ele>1355.0</ele><time>2026-04-19T11:12:07.975Z</time></trkpt><trkpt lat="44.3215017" lon="10.1309767"><ele>1353.0</ele><time>2026-04-19T11:12:08.975Z</time></trkpt><trkpt lat="44.32159" lon="10.1309933"><ele>1351.0</ele><time>2026-04-19T11:12:09.975Z</time></trkpt><trkpt lat="44.3216867" lon="10.1309783"><ele>1349.0</ele><time>2026-04-19T11:12:10.975Z</time></trkpt><trkpt lat="44.3217733" lon="10.1309333"><ele>1347.0</ele><time>2026-04-19T11:12:11.975Z</time></trkpt><trkpt lat="44.3218483" lon="10.130875"><ele>1345.0</ele><time>2026-04-19T11:12:12.975Z</time></trkpt><trkpt lat="44.3219283" lon="10.130845"><ele>1345.0</ele><time>2026-04-19T11:12:13.975Z</time></trkpt><trkpt lat="44.322005" lon="10.1308617"><ele>1345.0</ele><time>2026-04-19T11:12:14.975Z</time></trkpt><trkpt lat="44.3220867" lon="10.1309067"><ele>1345.0</ele><time>2026-04-19T11:12:15.975Z</time></trkpt><trkpt lat="44.3221633" lon="10.1309767"><ele>1345.0</ele><time>2026-04-19T11:12:16.975Z</time></trkpt><trkpt lat="44.322235" lon="10.1310417"><ele>1345.0</ele><time>2026-04-19T11:12:17.975Z</time></trkpt><trkpt lat="44.3222967" lon="10.1311083"><ele>1345.0</ele><time>2026-04-19T11:12:18.975Z</time></trkpt><trkpt lat="44.32236" lon="10.1311833"><ele>1346.0</ele><time>2026-04-19T11:12:19.975Z</time></trkpt><trkpt lat="44.3224283" lon="10.1312733"><ele>1347.0</ele><time>2026-04-19T11:12:20.975Z</time></trkpt><trkpt lat="44.3225033" lon="10.1313683"><ele>1348.0</ele><time>2026-04-19T11:12:21.975Z</time></trkpt><trkpt lat="44.32256" lon="10.13145"><ele>1349.0</ele><time>2026-04-19T11:12:22.975Z</time></trkpt><trkpt lat="44.3226267" lon="10.1315383"><ele>1350.0</ele><time>2026-04-19T11:12:23.976Z</time></trkpt><trkpt lat="44.3226917" lon="10.131625"><ele>1346.0</ele><time>2026-04-19T11:12:24.975Z</time></trkpt><trkpt lat="44.3227533" lon="10.1317083"><ele>1342.0</ele><time>2026-04-19T11:12:25.975Z</time></trkpt><trkpt lat="44.32281" lon="10.13179"><ele>1338.0</ele><time>2026-04-19T11:12:26.975Z</time></trkpt><trkpt lat="44.3228633" lon="10.1318783"><ele>1334.0</ele><time>2026-04-19T11:12:27.975Z</time></trkpt><trkpt lat="44.3229383" lon="10.1319683"><ele>1330.0</ele><time>2026-04-19T11:12:28.975Z</time></trkpt><trkpt lat="44.3229967" lon="10.1320383"><ele>1326.0</ele><time>2026-04-19T11:12:29.975Z</time></trkpt><trkpt lat="44.3230517" lon="10.132105"><ele>1328.6</ele><time>2026-04-19T11:12:30.975Z</time></trkpt><trkpt lat="44.3231217" lon="10.132155"><ele>1331.1999999999998</ele><time>2026-04-19T11:12:31.975Z</time></trkpt><trkpt lat="44.3232" lon="10.1322017"><ele>1333.8000000000002</ele><time>2026-04-19T11:12:32.975Z</time></trkpt><trkpt lat="44.3232867" lon="10.1322417"><ele>1336.4</ele><time>2026-04-19T11:12:33.975Z</time></trkpt><trkpt lat="44.3233767" lon="10.13228"><ele>1339.0</ele><time>2026-04-19T11:12:34.975Z</time></trkpt><trkpt lat="44.3234817" lon="10.1322833"><ele>1339.0</ele><time>2026-04-19T11:12:35.975Z</time></trkpt><trkpt lat="44.3235933" lon="10.13226"><ele>1339.0</ele><time>2026-04-19T11:12:36.976Z</time></trkpt><trkpt lat="44.3237033" lon="10.1322133"><ele>1339.0</ele><time>2026-04-19T11:12:37.975Z</time></trkpt><trkpt lat="44.3238033" lon="10.1321533"><ele>1339.0</ele><time>2026-04-19T11:12:38.975Z</time></trkpt><trkpt lat="44.3238967" lon="10.1320917"><ele>1339.0</ele><time>2026-04-19T11:12:39.975Z</time></trkpt><trkpt lat="44.3239867" lon="10.1320567"><ele>1338.3333333333333</ele><time>2026-04-19T11:12:40.975Z</time></trkpt><trkpt lat="44.3240733" lon="10.13203"><ele>1337.6666666666665</ele><time>2026-04-19T11:12:41.975Z</time></trkpt><trkpt lat="44.3241567" lon="10.1320133"><ele>1337.0</ele><time>2026-04-19T11:12:42.975Z</time></trkpt><trkpt lat="44.32424" lon="10.1320133"><ele>1336.3333333333333</ele><time>2026-04-19T11:12:43.975Z</time></trkpt><trkpt lat="44.32432" lon="10.1320333"><ele>1335.6666666666667</ele><time>2026-04-19T11:12:44.975Z</time></trkpt><trkpt lat="44.324405" lon="10.13208"><ele>1335.0</ele><time>2026-04-19T11:12:45.975Z</time></trkpt><trkpt lat="44.32449" lon="10.1321483"><ele>1335.0</ele><time>2026-04-19T11:12:46.975Z</time></trkpt><trkpt lat="44.32457" lon="10.1322167"><ele>1335.0</ele><time>2026-04-19T11:12:47.976Z</time></trkpt><trkpt lat="44.3246417" lon="10.1322817"><ele>1335.0</ele><time>2026-04-19T11:12:48.975Z</time></trkpt><trkpt lat="44.3247033" lon="10.1323283"><ele>1335.0</ele><time>2026-04-19T11:12:49.975Z</time></trkpt><trkpt lat="44.324825" lon="10.1323567"><ele>1335.0</ele><time>2026-04-19T11:12:51.975Z</time></trkpt><trkpt lat="44.3248883" lon="10.1323483"><ele>1335.0</ele><time>2026-04-19T11:12:52.975Z</time></trkpt><trkpt lat="44.3249517" lon="10.132335"><ele>1333.8333333333333</ele><time>2026-04-19T11:12:53.975Z</time></trkpt><trkpt lat="44.3250683" lon="10.1322983"><ele>1332.6666666666667</ele><time>2026-04-19T11:12:55.975Z</time></trkpt><trkpt lat="44.325125" lon="10.1322483"><ele>1331.5</ele><time>2026-04-19T11:12:56.976Z</time></trkpt><trkpt lat="44.325195" lon="10.132185"><ele>1330.3333333333335</ele><time>2026-04-19T11:12:57.975Z</time></trkpt><trkpt lat="44.3252533" lon="10.1321217"><ele>1329.1666666666667</ele><time>2026-04-19T11:12:58.975Z</time></trkpt><trkpt lat="44.325315" lon="10.1320617"><ele>1328.0</ele><time>2026-04-19T11:12:59.975Z</time></trkpt><trkpt lat="44.32538" lon="10.1320083"><ele>1328.0</ele><time>2026-04-19T11:13:00.975Z</time></trkpt><trkpt lat="44.3254433" lon="10.131955"><ele>1328.0</ele><time>2026-04-19T11:13:01.975Z</time></trkpt><trkpt lat="44.3254967" lon="10.1318983"><ele>1328.0</ele><time>2026-04-19T11:13:02.975Z</time></trkpt><trkpt lat="44.32559" lon="10.13181"><ele>1328.0</ele><time>2026-04-19T11:13:04.975Z</time></trkpt><trkpt lat="44.3256733" lon="10.131755"><ele>1328.0</ele><time>2026-04-19T11:13:06.975Z</time></trkpt><trkpt lat="44.3257533" lon="10.13172"><ele>1328.0</ele><time>2026-04-19T11:13:08.975Z</time></trkpt><trkpt lat="44.3258533" lon="10.1317167"><ele>1324.5</ele><time>2026-04-19T11:13:10.975Z</time></trkpt><trkpt lat="44.3259633" lon="10.1317583"><ele>1321.0</ele><time>2026-04-19T11:13:12.975Z</time></trkpt><trkpt lat="44.32606" lon="10.13183"><ele>1317.5</ele><time>2026-04-19T11:13:14.975Z</time></trkpt><trkpt lat="44.326125" lon="10.13188"><ele>1314.0</ele><time>2026-04-19T11:13:15.975Z</time></trkpt><trkpt lat="44.326195" lon="10.1319"><ele>1310.5</ele><time>2026-04-19T11:13:16.975Z</time></trkpt><trkpt lat="44.3262633" lon="10.1319183"><ele>1307.0</ele><time>2026-04-19T11:13:17.975Z</time></trkpt><trkpt lat="44.3263833" lon="10.1319267"><ele>1305.1666666666667</ele><time>2026-04-19T11:13:19.975Z</time></trkpt><trkpt lat="44.3264967" lon="10.13191"><ele>1303.3333333333335</ele><time>2026-04-19T11:13:21.975Z</time></trkpt><trkpt lat="44.326585" lon="10.131905"><ele>1301.5</ele><time>2026-04-19T11:13:23.975Z</time></trkpt><trkpt lat="44.32666" lon="10.1318967"><ele>1299.6666666666667</ele><time>2026-04-19T11:13:25.975Z</time></trkpt><trkpt lat="44.326755" lon="10.1319267"><ele>1297.8333333333333</ele><time>2026-04-19T11:13:28.975Z</time></trkpt><trkpt lat="44.3268133" lon="10.1319633"><ele>1296.0</ele><time>2026-04-19T11:13:30.975Z</time></trkpt><trkpt lat="44.3268667" lon="10.1320517"><ele>1296.0</ele><time>2026-04-19T11:13:52.976Z</time></trkpt><trkpt lat="44.3269083" lon="10.1321333"><ele>1296.0</ele><time>2026-04-19T11:13:54.975Z</time></trkpt><trkpt lat="44.3269567" lon="10.1322283"><ele>1296.0</ele><time>2026-04-19T11:13:56.975Z</time></trkpt><trkpt lat="44.3270067" lon="10.13234"><ele>1296.0</ele><time>2026-04-19T11:13:58.975Z</time></trkpt><trkpt lat="44.327055" lon="10.1324567"><ele>1296.0</ele><time>2026-04-19T11:14:00.975Z</time></trkpt><trkpt lat="44.32711" lon="10.1325717"><ele>1296.0</ele><time>2026-04-19T11:14:02.975Z</time></trkpt><trkpt lat="44.3271633" lon="10.1326783"><ele>1293.25</ele><time>2026-04-19T11:14:04.975Z</time></trkpt><trkpt lat="44.3272267" lon="10.1327883"><ele>1290.5</ele><time>2026-04-19T11:14:06.975Z</time></trkpt><trkpt lat="44.3273" lon="10.1329167"><ele>1287.75</ele><time>2026-04-19T11:14:08.976Z</time></trkpt><trkpt lat="44.327375" lon="10.1330417"><ele>1285.0</ele><time>2026-04-19T11:14:10.975Z</time></trkpt><trkpt lat="44.32745" lon="10.1331633"><ele>1284.8</ele><time>2026-04-19T11:14:12.975Z</time></trkpt><trkpt lat="44.327485" lon="10.1332367"><ele>1284.6</ele><time>2026-04-19T11:14:13.975Z</time></trkpt><trkpt lat="44.327535" lon="10.13339"><ele>1284.4</ele><time>2026-04-19T11:14:15.975Z</time></trkpt><trkpt lat="44.3275533" lon="10.1335383"><ele>1284.2</ele><time>2026-04-19T11:14:17.975Z</time></trkpt><trkpt lat="44.327545" lon="10.133655"><ele>1284.0</ele><time>2026-04-19T11:14:19.975Z</time></trkpt><trkpt lat="44.3275217" lon="10.1337583"><ele>1284.0</ele><time>2026-04-19T11:14:21.975Z</time></trkpt><trkpt lat="44.3274767" lon="10.13387"><ele>1284.0</ele><time>2026-04-19T11:14:24.975Z</time></trkpt><trkpt lat="44.3274383" lon="10.13397"><ele>1284.0</ele><time>2026-04-19T11:14:27.975Z</time></trkpt><trkpt lat="44.3274483" lon="10.134125"><ele>1284.0</ele><time>2026-04-19T11:14:36.975Z</time></trkpt><trkpt lat="44.3274967" lon="10.1342533"><ele>1284.0</ele><time>2026-04-19T11:14:38.975Z</time></trkpt><trkpt lat="44.32753" lon="10.13434"><ele>1283.0</ele><time>2026-04-19T11:14:39.975Z</time></trkpt><trkpt lat="44.327565" lon="10.1344367"><ele>1282.0</ele><time>2026-04-19T11:14:40.975Z</time></trkpt><trkpt lat="44.3275917" lon="10.134535"><ele>1281.0</ele><time>2026-04-19T11:14:41.976Z</time></trkpt><trkpt lat="44.3276183" lon="10.13465"><ele>1280.0</ele><time>2026-04-19T11:14:42.975Z</time></trkpt><trkpt lat="44.327665" lon="10.134765"><ele>1279.0</ele><time>2026-04-19T11:14:43.975Z</time></trkpt><trkpt lat="44.32773" lon="10.134875"><ele>1278.0</ele><time>2026-04-19T11:14:44.975Z</time></trkpt><trkpt lat="44.3277833" lon="10.1349783"><ele>1275.6666666666667</ele><time>2026-04-19T11:14:45.975Z</time></trkpt><trkpt lat="44.3278433" lon="10.135065"><ele>1273.3333333333333</ele><time>2026-04-19T11:14:46.975Z</time></trkpt><trkpt lat="44.327895" lon="10.13514"><ele>1271.0</ele><time>2026-04-19T11:14:47.975Z</time></trkpt><trkpt lat="44.3279467" lon="10.13521"><ele>1268.6666666666665</ele><time>2026-04-19T11:14:48.975Z</time></trkpt><trkpt lat="44.3279883" lon="10.13528"><ele>1266.3333333333333</ele><time>2026-04-19T11:14:49.975Z</time></trkpt><trkpt lat="44.3280417" lon="10.13543"><ele>1264.0</ele><time>2026-04-19T11:14:51.975Z</time></trkpt><trkpt lat="44.32805" lon="10.13552"><ele>1264.0</ele><time>2026-04-19T11:14:52.975Z</time></trkpt><trkpt lat="44.3280283" lon="10.1356833"><ele>1264.0</ele><time>2026-04-19T11:14:54.975Z</time></trkpt><trkpt lat="44.328005" lon="10.1358167"><ele>1264.0</ele><time>2026-04-19T11:14:56.975Z</time></trkpt><trkpt lat="44.328025" lon="10.135925"><ele>1264.0</ele><time>2026-04-19T11:14:58.975Z</time></trkpt><trkpt lat="44.3281067" lon="10.1359617"><ele>1264.0</ele><time>2026-04-19T11:15:00.976Z</time></trkpt><trkpt lat="44.3281917" lon="10.1358517"><ele>1263.3333333333333</ele><time>2026-04-19T11:15:02.975Z</time></trkpt><trkpt lat="44.3282117" lon="10.13576"><ele>1262.6666666666665</ele><time>2026-04-19T11:15:03.975Z</time></trkpt><trkpt lat="44.3282317" lon="10.1356667"><ele>1262.0</ele><time>2026-04-19T11:15:04.975Z</time></trkpt><trkpt lat="44.328255" lon="10.135555"><ele>1261.3333333333333</ele><time>2026-04-19T11:15:05.975Z</time></trkpt><trkpt lat="44.3282733" lon="10.1354217"><ele>1260.6666666666667</ele><time>2026-04-19T11:15:06.975Z</time></trkpt><trkpt lat="44.328285" lon="10.135295"><ele>1260.0</ele><time>2026-04-19T11:15:07.975Z</time></trkpt><trkpt lat="44.328285" lon="10.13518"><ele>1261.6666666666667</ele><time>2026-04-19T11:15:08.975Z</time></trkpt><trkpt lat="44.328285" lon="10.1350833"><ele>1263.3333333333333</ele><time>2026-04-19T11:15:09.975Z</time></trkpt><trkpt lat="44.3283033" lon="10.134995"><ele>1265.0</ele><time>2026-04-19T11:15:10.975Z</time></trkpt><trkpt lat="44.32834" lon="10.1349033"><ele>1266.6666666666665</ele><time>2026-04-19T11:15:11.975Z</time></trkpt><trkpt lat="44.3283917" lon="10.1348167"><ele>1268.3333333333333</ele><time>2026-04-19T11:15:12.975Z</time></trkpt><trkpt lat="44.328455" lon="10.134725"><ele>1270.0</ele><time>2026-04-19T11:15:13.975Z</time></trkpt><trkpt lat="44.3285417" lon="10.1346383"><ele>1269.2</ele><time>2026-04-19T11:15:14.975Z</time></trkpt><trkpt lat="44.3286383" lon="10.1345567"><ele>1268.4</ele><time>2026-04-19T11:15:15.975Z</time></trkpt><trkpt lat="44.328735" lon="10.134485"><ele>1267.6</ele><time>2026-04-19T11:15:16.975Z</time></trkpt><trkpt lat="44.3288333" lon="10.1344217"><ele>1266.8</ele><time>2026-04-19T11:15:17.975Z</time></trkpt><trkpt lat="44.3289333" lon="10.1343783"><ele>1266.0</ele><time>2026-04-19T11:15:18.975Z</time></trkpt><trkpt lat="44.32903" lon="10.1343483"><ele>1266.0</ele><time>2026-04-19T11:15:19.975Z</time></trkpt><trkpt lat="44.3291267" lon="10.134315"><ele>1266.0</ele><time>2026-04-19T11:15:20.975Z</time></trkpt><trkpt lat="44.329225" lon="10.1342983"><ele>1266.0</ele><time>2026-04-19T11:15:21.975Z</time></trkpt><trkpt lat="44.3293283" lon="10.1343267"><ele>1266.0</ele><time>2026-04-19T11:15:22.975Z</time></trkpt><trkpt lat="44.329425" lon="10.1343733"><ele>1266.0</ele><time>2026-04-19T11:15:23.975Z</time></trkpt><trkpt lat="44.329525" lon="10.1344267"><ele>1266.0</ele><time>2026-04-19T11:15:24.975Z</time></trkpt><trkpt lat="44.3296317" lon="10.134475"><ele>1266.0</ele><time>2026-04-19T11:15:25.975Z</time></trkpt><trkpt lat="44.3297533" lon="10.1345067"><ele>1266.0</ele><time>2026-04-19T11:15:26.975Z</time></trkpt><trkpt lat="44.3298833" lon="10.1345367"><ele>1266.0</ele><time>2026-04-19T11:15:27.975Z</time></trkpt><trkpt lat="44.330015" lon="10.1345633"><ele>1266.25</ele><time>2026-04-19T11:15:28.976Z</time></trkpt><trkpt lat="44.33014" lon="10.1345817"><ele>1266.5</ele><time>2026-04-19T11:15:29.975Z</time></trkpt><trkpt lat="44.3302633" lon="10.13459"><ele>1266.75</ele><time>2026-04-19T11:15:30.975Z</time></trkpt><trkpt lat="44.3303667" lon="10.13458"><ele>1267.0</ele><time>2026-04-19T11:15:31.975Z</time></trkpt><trkpt lat="44.3304717" lon="10.1345333"><ele>1264.5</ele><time>2026-04-19T11:15:32.975Z</time></trkpt><trkpt lat="44.3305733" lon="10.1344383"><ele>1262.0</ele><time>2026-04-19T11:15:33.975Z</time></trkpt><trkpt lat="44.33067" lon="10.13431"><ele>1259.5</ele><time>2026-04-19T11:15:34.975Z</time></trkpt><trkpt lat="44.3307583" lon="10.134185"><ele>1257.0</ele><time>2026-04-19T11:15:35.975Z</time></trkpt><trkpt lat="44.3308433" lon="10.1340517"><ele>1254.4</ele><time>2026-04-19T11:15:36.975Z</time></trkpt><trkpt lat="44.3309283" lon="10.1339567"><ele>1251.8000000000002</ele><time>2026-04-19T11:15:37.975Z</time></trkpt><trkpt lat="44.3310283" lon="10.1338917"><ele>1249.2</ele><time>2026-04-19T11:15:38.975Z</time></trkpt><trkpt lat="44.3311433" lon="10.133885"><ele>1246.6000000000001</ele><time>2026-04-19T11:15:39.975Z</time></trkpt><trkpt lat="44.3312517" lon="10.1338933"><ele>1244.0</ele><time>2026-04-19T11:15:40.975Z</time></trkpt><trkpt lat="44.33136" lon="10.1339"><ele>1244.5</ele><time>2026-04-19T11:15:41.975Z</time></trkpt><trkpt lat="44.3314667" lon="10.133875"><ele>1245.0</ele><time>2026-04-19T11:15:42.975Z</time></trkpt><trkpt lat="44.33158" lon="10.1338083"><ele>1245.5</ele><time>2026-04-19T11:15:43.975Z</time></trkpt><trkpt lat="44.3316983" lon="10.1337433"><ele>1246.0</ele><time>2026-04-19T11:15:44.975Z</time></trkpt><trkpt lat="44.3318033" lon="10.1336883"><ele>1246.0</ele><time>2026-04-19T11:15:45.975Z</time></trkpt><trkpt lat="44.3319133" lon="10.1336583"><ele>1246.0</ele><time>2026-04-19T11:15:46.975Z</time></trkpt><trkpt lat="44.3320117" lon="10.133665"><ele>1246.0</ele><time>2026-04-19T11:15:47.976Z</time></trkpt><trkpt lat="44.3321133" lon="10.1336967"><ele>1246.0</ele><time>2026-04-19T11:15:48.975Z</time></trkpt><trkpt lat="44.33222" lon="10.1337467"><ele>1246.0</ele><time>2026-04-19T11:15:49.975Z</time></trkpt><trkpt lat="44.3323233" lon="10.1337883"><ele>1244.2</ele><time>2026-04-19T11:15:50.976Z</time></trkpt><trkpt lat="44.3324217" lon="10.1338467"><ele>1242.3999999999999</ele><time>2026-04-19T11:15:51.975Z</time></trkpt><trkpt lat="44.332515" lon="10.133915"><ele>1240.6</ele><time>2026-04-19T11:15:52.975Z</time></trkpt><trkpt lat="44.3326217" lon="10.1339717"><ele>1238.8</ele><time>2026-04-19T11:15:53.975Z</time></trkpt><trkpt lat="44.332735" lon="10.13401"><ele>1237.0</ele><time>2026-04-19T11:15:54.975Z</time></trkpt><trkpt lat="44.3328533" lon="10.1340367"><ele>1237.0</ele><time>2026-04-19T11:15:55.975Z</time></trkpt><trkpt lat="44.3329617" lon="10.1340467"><ele>1237.0</ele><time>2026-04-19T11:15:56.975Z</time></trkpt><trkpt lat="44.3330517" lon="10.1340517"><ele>1237.0</ele><time>2026-04-19T11:15:57.975Z</time></trkpt><trkpt lat="44.3331283" lon="10.1340717"><ele>1237.0</ele><time>2026-04-19T11:15:58.975Z</time></trkpt><trkpt lat="44.3332017" lon="10.1341"><ele>1237.0</ele><time>2026-04-19T11:15:59.975Z</time></trkpt><trkpt lat="44.333285" lon="10.134145"><ele>1237.0</ele><time>2026-04-19T11:16:00.975Z</time></trkpt><trkpt lat="44.3333733" lon="10.1342"><ele>1238.5</ele><time>2026-04-19T11:16:01.975Z</time></trkpt><trkpt lat="44.3334833" lon="10.13426"><ele>1240.0</ele><time>2026-04-19T11:16:02.975Z</time></trkpt><trkpt lat="44.3336" lon="10.1343083"><ele>1241.5</ele><time>2026-04-19T11:16:03.975Z</time></trkpt><trkpt lat="44.3337083" lon="10.13434"><ele>1243.0</ele><time>2026-04-19T11:16:04.975Z</time></trkpt><trkpt lat="44.3338183" lon="10.1343267"><ele>1243.0</ele><time>2026-04-19T11:16:05.975Z</time></trkpt><trkpt lat="44.33392" lon="10.1342817"><ele>1243.0</ele><time>2026-04-19T11:16:06.975Z</time></trkpt><trkpt lat="44.3340217" lon="10.1342067"><ele>1243.0</ele><time>2026-04-19T11:16:07.975Z</time></trkpt><trkpt lat="44.3341217" lon="10.13412"><ele>1243.0</ele><time>2026-04-19T11:16:08.975Z</time></trkpt><trkpt lat="44.33423" lon="10.1340367"><ele>1242.25</ele><time>2026-04-19T11:16:09.975Z</time></trkpt><trkpt lat="44.3343567" lon="10.1339483"><ele>1241.5</ele><time>2026-04-19T11:16:10.975Z</time></trkpt><trkpt lat="44.3344817" lon="10.13387"><ele>1240.75</ele><time>2026-04-19T11:16:11.975Z</time></trkpt><trkpt lat="44.3346017" lon="10.1338"><ele>1240.0</ele><time>2026-04-19T11:16:12.975Z</time></trkpt><trkpt lat="44.3347233" lon="10.1337217"><ele>1238.75</ele><time>2026-04-19T11:16:13.975Z</time></trkpt><trkpt lat="44.3348367" lon="10.133635"><ele>1237.5</ele><time>2026-04-19T11:16:14.975Z</time></trkpt><trkpt lat="44.33494" lon="10.1335467"><ele>1236.25</ele><time>2026-04-19T11:16:15.975Z</time></trkpt><trkpt lat="44.3350367" lon="10.13346"><ele>1235.0</ele><time>2026-04-19T11:16:16.975Z</time></trkpt><trkpt lat="44.33513" lon="10.1333717"><ele>1235.0</ele><time>2026-04-19T11:16:17.975Z</time></trkpt><trkpt lat="44.33524" lon="10.133295"><ele>1235.0</ele><time>2026-04-19T11:16:18.975Z</time></trkpt><trkpt lat="44.3353483" lon="10.13323"><ele>1235.0</ele><time>2026-04-19T11:16:19.975Z</time></trkpt><trkpt lat="44.33545" lon="10.133195"><ele>1235.0</ele><time>2026-04-19T11:16:20.975Z</time></trkpt><trkpt lat="44.3355567" lon="10.1331833"><ele>1233.4</ele><time>2026-04-19T11:16:21.975Z</time></trkpt><trkpt lat="44.335665" lon="10.1331783"><ele>1231.8</ele><time>2026-04-19T11:16:22.975Z</time></trkpt><trkpt lat="44.3357683" lon="10.1331633"><ele>1230.2</ele><time>2026-04-19T11:16:23.975Z</time></trkpt><trkpt lat="44.3358633" lon="10.1331333"><ele>1228.6</ele><time>2026-04-19T11:16:24.975Z</time></trkpt><trkpt lat="44.3359483" lon="10.13308"><ele>1227.0</ele><time>2026-04-19T11:16:25.975Z</time></trkpt><trkpt lat="44.3360233" lon="10.133"><ele>1227.0</ele><time>2026-04-19T11:16:26.975Z</time></trkpt><trkpt lat="44.336085" lon="10.1329067"><ele>1227.0</ele><time>2026-04-19T11:16:27.975Z</time></trkpt><trkpt lat="44.336145" lon="10.1328167"><ele>1227.0</ele><time>2026-04-19T11:16:28.975Z</time></trkpt><trkpt lat="44.3362183" lon="10.13275"><ele>1227.0</ele><time>2026-04-19T11:16:29.975Z</time></trkpt><trkpt lat="44.3363033" lon="10.1327083"><ele>1227.0</ele><time>2026-04-19T11:16:30.975Z</time></trkpt><trkpt lat="44.3363867" lon="10.1326717"><ele>1227.0</ele><time>2026-04-19T11:16:31.975Z</time></trkpt><trkpt lat="44.3364683" lon="10.1326017"><ele>1226.4</ele><time>2026-04-19T11:16:32.975Z</time></trkpt><trkpt lat="44.3365417" lon="10.1325067"><ele>1225.8000000000002</ele><time>2026-04-19T11:16:33.975Z</time></trkpt><trkpt lat="44.3366117" lon="10.1323967"><ele>1225.2</ele><time>2026-04-19T11:16:34.975Z</time></trkpt><trkpt lat="44.33668" lon="10.13226"><ele>1224.6000000000001</ele><time>2026-04-19T11:16:35.976Z</time></trkpt><trkpt lat="44.3367567" lon="10.1321383"><ele>1224.0</ele><time>2026-04-19T11:16:36.975Z</time></trkpt><trkpt lat="44.3368383" lon="10.1320283"><ele>1224.0</ele><time>2026-04-19T11:16:37.975Z</time></trkpt><trkpt lat="44.3369333" lon="10.1319167"><ele>1224.0</ele><time>2026-04-19T11:16:38.975Z</time></trkpt><trkpt lat="44.3370333" lon="10.1318267"><ele>1224.0</ele><time>2026-04-19T11:16:39.975Z</time></trkpt><trkpt lat="44.3371417" lon="10.131755"><ele>1224.0</ele><time>2026-04-19T11:16:40.975Z</time></trkpt><trkpt lat="44.3372517" lon="10.1317233"><ele>1225.6000000000001</ele><time>2026-04-19T11:16:41.975Z</time></trkpt><trkpt lat="44.3373617" lon="10.131705"><ele>1227.2</ele><time>2026-04-19T11:16:42.975Z</time></trkpt><trkpt lat="44.33747" lon="10.131695"><ele>1228.8000000000002</ele><time>2026-04-19T11:16:43.975Z</time></trkpt><trkpt lat="44.3375733" lon="10.1316867"><ele>1230.4</ele><time>2026-04-19T11:16:44.975Z</time></trkpt><trkpt lat="44.337675" lon="10.131665"><ele>1232.0</ele><time>2026-04-19T11:16:45.975Z</time></trkpt><trkpt lat="44.337765" lon="10.1316417"><ele>1232.0</ele><time>2026-04-19T11:16:46.975Z</time></trkpt><trkpt lat="44.3378467" lon="10.1316167"><ele>1232.0</ele><time>2026-04-19T11:16:47.975Z</time></trkpt><trkpt lat="44.3379233" lon="10.1316117"><ele>1232.0</ele><time>2026-04-19T11:16:48.975Z</time></trkpt><trkpt lat="44.3379933" lon="10.1316117"><ele>1232.0</ele><time>2026-04-19T11:16:49.975Z</time></trkpt><trkpt lat="44.3380617" lon="10.1316533"><ele>1232.0</ele><time>2026-04-19T11:16:50.975Z</time></trkpt><trkpt lat="44.3381183" lon="10.1317133"><ele>1232.0</ele><time>2026-04-19T11:16:51.975Z</time></trkpt><trkpt lat="44.338175" lon="10.1317933"><ele>1231.2</ele><time>2026-04-19T11:16:52.975Z</time></trkpt><trkpt lat="44.338245" lon="10.131875"><ele>1230.4</ele><time>2026-04-19T11:16:53.975Z</time></trkpt><trkpt lat="44.3383367" lon="10.1319633"><ele>1229.6</ele><time>2026-04-19T11:16:54.975Z</time></trkpt><trkpt lat="44.3384367" lon="10.13202"><ele>1228.8</ele><time>2026-04-19T11:16:55.975Z</time></trkpt><trkpt lat="44.3385433" lon="10.13206"><ele>1228.0</ele><time>2026-04-19T11:16:56.975Z</time></trkpt><trkpt lat="44.3386483" lon="10.1320767"><ele>1228.0</ele><time>2026-04-19T11:16:57.975Z</time></trkpt><trkpt lat="44.3387433" lon="10.1320717"><ele>1228.0</ele><time>2026-04-19T11:16:58.975Z</time></trkpt><trkpt lat="44.33883" lon="10.1320467"><ele>1228.0</ele><time>2026-04-19T11:16:59.975Z</time></trkpt><trkpt lat="44.33891" lon="10.1319933"><ele>1228.0</ele><time>2026-04-19T11:17:00.975Z</time></trkpt><trkpt lat="44.3389817" lon="10.1319167"><ele>1228.0</ele><time>2026-04-19T11:17:01.975Z</time></trkpt><trkpt lat="44.3390267" lon="10.13183"><ele>1228.0</ele><time>2026-04-19T11:17:02.975Z</time></trkpt><trkpt lat="44.3390467" lon="10.1317167"><ele>1225.5</ele><time>2026-04-19T11:17:03.975Z</time></trkpt><trkpt lat="44.3390517" lon="10.13159"><ele>1223.0</ele><time>2026-04-19T11:17:04.975Z</time></trkpt><trkpt lat="44.3390517" lon="10.1314667"><ele>1220.5</ele><time>2026-04-19T11:17:05.975Z</time></trkpt><trkpt lat="44.3390517" lon="10.1313467"><ele>1218.0</ele><time>2026-04-19T11:17:06.975Z</time></trkpt><trkpt lat="44.3390533" lon="10.131245"><ele>1215.5</ele><time>2026-04-19T11:17:07.975Z</time></trkpt><trkpt lat="44.339065" lon="10.131155"><ele>1213.0</ele><time>2026-04-19T11:17:08.975Z</time></trkpt><trkpt lat="44.339095" lon="10.1310617"><ele>1212.0</ele><time>2026-04-19T11:17:09.975Z</time></trkpt><trkpt lat="44.3391367" lon="10.130965"><ele>1211.0</ele><time>2026-04-19T11:17:10.975Z</time></trkpt><trkpt lat="44.3391967" lon="10.1308667"><ele>1210.0</ele><time>2026-04-19T11:17:11.975Z</time></trkpt><trkpt lat="44.3392633" lon="10.1307733"><ele>1209.0</ele><time>2026-04-19T11:17:12.976Z</time></trkpt><trkpt lat="44.3393433" lon="10.1306833"><ele>1208.0</ele><time>2026-04-19T11:17:13.975Z</time></trkpt><trkpt lat="44.3394317" lon="10.13059"><ele>1206.8</ele><time>2026-04-19T11:17:14.975Z</time></trkpt><trkpt lat="44.3395217" lon="10.1304883"><ele>1205.6</ele><time>2026-04-19T11:17:15.975Z</time></trkpt><trkpt lat="44.3396033" lon="10.1303867"><ele>1204.4</ele><time>2026-04-19T11:17:16.975Z</time></trkpt><trkpt lat="44.3396767" lon="10.1302917"><ele>1203.2</ele><time>2026-04-19T11:17:17.975Z</time></trkpt><trkpt lat="44.339745" lon="10.1301967"><ele>1202.0</ele><time>2026-04-19T11:17:18.975Z</time></trkpt><trkpt lat="44.33981" lon="10.1300967"><ele>1202.0</ele><time>2026-04-19T11:17:19.975Z</time></trkpt><trkpt lat="44.33987" lon="10.129995"><ele>1202.0</ele><time>2026-04-19T11:17:20.975Z</time></trkpt><trkpt lat="44.3399333" lon="10.1299067"><ele>1202.0</ele><time>2026-04-19T11:17:21.975Z</time></trkpt><trkpt lat="44.339985" lon="10.1298433"><ele>1202.0</ele><time>2026-04-19T11:17:22.975Z</time></trkpt><trkpt lat="44.3400383" lon="10.1297917"><ele>1202.0</ele><time>2026-04-19T11:17:23.975Z</time></trkpt><trkpt lat="44.34012" lon="10.1297517"><ele>1202.0</ele><time>2026-04-19T11:17:25.975Z</time></trkpt><trkpt lat="44.340185" lon="10.1297433"><ele>1200.8</ele><time>2026-04-19T11:17:27.975Z</time></trkpt><trkpt lat="44.340245" lon="10.1296517"><ele>1199.6</ele><time>2026-04-19T11:17:29.975Z</time></trkpt><trkpt lat="44.3402583" lon="10.1295317"><ele>1198.3999999999999</ele><time>2026-04-19T11:17:30.975Z</time></trkpt><trkpt lat="44.3402567" lon="10.1293617"><ele>1197.2</ele><time>2026-04-19T11:17:31.975Z</time></trkpt><trkpt lat="44.340245" lon="10.129185"><ele>1196.0</ele><time>2026-04-19T11:17:32.975Z</time></trkpt><trkpt lat="44.340235" lon="10.1289883"><ele>1194.0</ele><time>2026-04-19T11:17:33.975Z</time></trkpt><trkpt lat="44.3402367" lon="10.1287967"><ele>1192.0</ele><time>2026-04-19T11:17:34.975Z</time></trkpt><trkpt lat="44.3402533" lon="10.1286167"><ele>1190.0</ele><time>2026-04-19T11:17:35.975Z</time></trkpt><trkpt lat="44.3402817" lon="10.1284333"><ele>1188.0</ele><time>2026-04-19T11:17:36.975Z</time></trkpt><trkpt lat="44.34033" lon="10.1282533"><ele>1187.0</ele><time>2026-04-19T11:17:37.975Z</time></trkpt><trkpt lat="44.3404117" lon="10.128095"><ele>1186.0</ele><time>2026-04-19T11:17:38.975Z</time></trkpt><trkpt lat="44.3404883" lon="10.127945"><ele>1185.0</ele><time>2026-04-19T11:17:39.975Z</time></trkpt><trkpt lat="44.3405717" lon="10.1277967"><ele>1184.0</ele><time>2026-04-19T11:17:40.975Z</time></trkpt><trkpt lat="44.3406517" lon="10.1276667"><ele>1184.0</ele><time>2026-04-19T11:17:41.976Z</time></trkpt><trkpt lat="44.34074" lon="10.1275467"><ele>1184.0</ele><time>2026-04-19T11:17:42.975Z</time></trkpt><trkpt lat="44.3408433" lon="10.1274383"><ele>1184.0</ele><time>2026-04-19T11:17:43.975Z</time></trkpt><trkpt lat="44.3409483" lon="10.1273583"><ele>1184.0</ele><time>2026-04-19T11:17:44.975Z</time></trkpt><trkpt lat="44.3410717" lon="10.1273217"><ele>1183.25</ele><time>2026-04-19T11:17:45.975Z</time></trkpt><trkpt lat="44.3411983" lon="10.127315"><ele>1182.5</ele><time>2026-04-19T11:17:46.975Z</time></trkpt><trkpt lat="44.3413233" lon="10.127345"><ele>1181.75</ele><time>2026-04-19T11:17:47.975Z</time></trkpt><trkpt lat="44.3414667" lon="10.1274067"><ele>1181.0</ele><time>2026-04-19T11:17:48.975Z</time></trkpt><trkpt lat="44.3416233" lon="10.127485"><ele>1181.0</ele><time>2026-04-19T11:17:49.975Z</time></trkpt><trkpt lat="44.3417583" lon="10.1275383"><ele>1181.0</ele><time>2026-04-19T11:17:50.975Z</time></trkpt><trkpt lat="44.3419033" lon="10.12759"><ele>1181.0</ele><time>2026-04-19T11:17:51.975Z</time></trkpt><trkpt lat="44.342035" lon="10.1276217"><ele>1181.0</ele><time>2026-04-19T11:17:52.975Z</time></trkpt><trkpt lat="44.342155" lon="10.1276317"><ele>1180.0</ele><time>2026-04-19T11:17:53.975Z</time></trkpt><trkpt lat="44.3422633" lon="10.127625"><ele>1179.0</ele><time>2026-04-19T11:17:54.975Z</time></trkpt><trkpt lat="44.3423683" lon="10.12758"><ele>1178.0</ele><time>2026-04-19T11:17:55.975Z</time></trkpt><trkpt lat="44.3424917" lon="10.1275017"><ele>1177.0</ele><time>2026-04-19T11:17:56.975Z</time></trkpt><trkpt lat="44.3426033" lon="10.1273733"><ele>1171.3333333333333</ele><time>2026-04-19T11:17:57.975Z</time></trkpt><trkpt lat="44.342715" lon="10.1272283"><ele>1165.6666666666667</ele><time>2026-04-19T11:17:58.975Z</time></trkpt><trkpt lat="44.3428167" lon="10.1270767"><ele>1160.0</ele><time>2026-04-19T11:17:59.975Z</time></trkpt><trkpt lat="44.342905" lon="10.1269017"><ele>1160.0</ele><time>2026-04-19T11:18:00.975Z</time></trkpt><trkpt lat="44.34299" lon="10.126715"><ele>1160.0</ele><time>2026-04-19T11:18:01.975Z</time></trkpt><trkpt lat="44.3430767" lon="10.1265317"><ele>1160.0</ele><time>2026-04-19T11:18:02.975Z</time></trkpt><trkpt lat="44.3431583" lon="10.12636"><ele>1160.25</ele><time>2026-04-19T11:18:03.975Z</time></trkpt><trkpt lat="44.3432433" lon="10.1261883"><ele>1160.5</ele><time>2026-04-19T11:18:04.975Z</time></trkpt><trkpt lat="44.3433283" lon="10.1260633"><ele>1160.75</ele><time>2026-04-19T11:18:05.975Z</time></trkpt><trkpt lat="44.34341" lon="10.1259183"><ele>1161.0</ele><time>2026-04-19T11:18:06.975Z</time></trkpt><trkpt lat="44.3434867" lon="10.1257783"><ele>1161.0</ele><time>2026-04-19T11:18:07.975Z</time></trkpt><trkpt lat="44.343545" lon="10.125665"><ele>1161.0</ele><time>2026-04-19T11:18:08.975Z</time></trkpt><trkpt lat="44.34359" lon="10.1255667"><ele>1161.0</ele><time>2026-04-19T11:18:09.975Z</time></trkpt><trkpt lat="44.3436167" lon="10.125455"><ele>1161.0</ele><time>2026-04-19T11:18:10.975Z</time></trkpt><trkpt lat="44.3436117" lon="10.12536"><ele>1161.0</ele><time>2026-04-19T11:18:11.975Z</time></trkpt><trkpt lat="44.3435717" lon="10.1252867"><ele>1161.0</ele><time>2026-04-19T11:18:12.975Z</time></trkpt><trkpt lat="44.34344" lon="10.12527"><ele>1161.0</ele><time>2026-04-19T11:18:14.975Z</time></trkpt><trkpt lat="44.3433633" lon="10.1253383"><ele>1161.0</ele><time>2026-04-19T11:18:15.975Z</time></trkpt><trkpt lat="44.343295" lon="10.1254633"><ele>1161.0</ele><time>2026-04-19T11:18:16.975Z</time></trkpt><trkpt lat="44.3432367" lon="10.1256117"><ele>1161.0</ele><time>2026-04-19T11:18:17.975Z</time></trkpt><trkpt lat="44.3431617" lon="10.12574"><ele>1161.0</ele><time>2026-04-19T11:18:18.975Z</time></trkpt><trkpt lat="44.3430617" lon="10.12584"><ele>1156.6666666666667</ele><time>2026-04-19T11:18:19.975Z</time></trkpt><trkpt lat="44.34294" lon="10.125895"><ele>1152.3333333333335</ele><time>2026-04-19T11:18:20.975Z</time></trkpt><trkpt lat="44.34279" lon="10.1259417"><ele>1148.0</ele><time>2026-04-19T11:18:21.975Z</time></trkpt><trkpt lat="44.3426083" lon="10.1260133"><ele>1148.0</ele><time>2026-04-19T11:18:22.975Z</time></trkpt><trkpt lat="44.34242" lon="10.126085"><ele>1148.0</ele><time>2026-04-19T11:18:23.975Z</time></trkpt><trkpt lat="44.3422467" lon="10.1261483"><ele>1148.0</ele><time>2026-04-19T11:18:24.975Z</time></trkpt><trkpt lat="44.342085" lon="10.126205"><ele>1144.0</ele><time>2026-04-19T11:18:25.975Z</time></trkpt><trkpt lat="44.3419317" lon="10.126255"><ele>1140.0</ele><time>2026-04-19T11:18:26.975Z</time></trkpt><trkpt lat="44.3417833" lon="10.1262733"><ele>1136.0</ele><time>2026-04-19T11:18:27.975Z</time></trkpt><trkpt lat="44.3416433" lon="10.1263167"><ele>1136.0</ele><time>2026-04-19T11:18:28.975Z</time></trkpt><trkpt lat="44.3415417" lon="10.1263183"><ele>1136.0</ele><time>2026-04-19T11:18:29.975Z</time></trkpt><trkpt lat="44.3414367" lon="10.1263333"><ele>1136.0</ele><time>2026-04-19T11:18:30.975Z</time></trkpt><trkpt lat="44.3413133" lon="10.1263267"><ele>1136.0</ele><time>2026-04-19T11:18:31.975Z</time></trkpt><trkpt lat="44.341185" lon="10.12629"><ele>1133.5</ele><time>2026-04-19T11:18:32.975Z</time></trkpt><trkpt lat="44.3410517" lon="10.12624"><ele>1131.0</ele><time>2026-04-19T11:18:33.975Z</time></trkpt><trkpt lat="44.340905" lon="10.1261917"><ele>1128.5</ele><time>2026-04-19T11:18:34.975Z</time></trkpt><trkpt lat="44.3407733" lon="10.1261533"><ele>1126.0</ele><time>2026-04-19T11:18:35.975Z</time></trkpt><trkpt lat="44.3406517" lon="10.126125"><ele>1122.25</ele><time>2026-04-19T11:18:36.975Z</time></trkpt><trkpt lat="44.340535" lon="10.12609"><ele>1118.5</ele><time>2026-04-19T11:18:37.975Z</time></trkpt><trkpt lat="44.3404233" lon="10.1260917"><ele>1114.75</ele><time>2026-04-19T11:18:38.975Z</time></trkpt><trkpt lat="44.3403117" lon="10.1261217"><ele>1111.0</ele><time>2026-04-19T11:18:39.975Z</time></trkpt><trkpt lat="44.3401983" lon="10.126195"><ele>1111.0</ele><time>2026-04-19T11:18:40.975Z</time></trkpt><trkpt lat="44.34009" lon="10.1263"><ele>1111.0</ele><time>2026-04-19T11:18:41.975Z</time></trkpt><trkpt lat="44.33998" lon="10.1264333"><ele>1111.0</ele><time>2026-04-19T11:18:42.976Z</time></trkpt><trkpt lat="44.33987" lon="10.1265717"><ele>1111.0</ele><time>2026-04-19T11:18:43.975Z</time></trkpt><trkpt lat="44.3397633" lon="10.126725"><ele>1109.3333333333333</ele><time>2026-04-19T11:18:44.975Z</time></trkpt><trkpt lat="44.3396567" lon="10.1268817"><ele>1107.6666666666667</ele><time>2026-04-19T11:18:45.975Z</time></trkpt><trkpt lat="44.33954" lon="10.127025"><ele>1106.0</ele><time>2026-04-19T11:18:46.975Z</time></trkpt><trkpt lat="44.3394167" lon="10.12713"><ele>1106.0</ele><time>2026-04-19T11:18:47.975Z</time></trkpt><trkpt lat="44.3392833" lon="10.1272033"><ele>1106.0</ele><time>2026-04-19T11:18:48.975Z</time></trkpt><trkpt lat="44.33915" lon="10.127255"><ele>1106.0</ele><time>2026-04-19T11:18:49.975Z</time></trkpt><trkpt lat="44.3390083" lon="10.1272717"><ele>1106.0</ele><time>2026-04-19T11:18:50.975Z</time></trkpt><trkpt lat="44.33887" lon="10.1272833"><ele>1103.0</ele><time>2026-04-19T11:18:51.975Z</time></trkpt><trkpt lat="44.33873" lon="10.1272717"><ele>1100.0</ele><time>2026-04-19T11:18:52.975Z</time></trkpt><trkpt lat="44.3385933" lon="10.127245"><ele>1097.0</ele><time>2026-04-19T11:18:53.975Z</time></trkpt><trkpt lat="44.338465" lon="10.1272133"><ele>1094.0</ele><time>2026-04-19T11:18:54.975Z</time></trkpt><trkpt lat="44.3383567" lon="10.12718"><ele>1094.0</ele><time>2026-04-19T11:18:55.975Z</time></trkpt><trkpt lat="44.338265" lon="10.1271717"><ele>1094.0</ele><time>2026-04-19T11:18:56.975Z</time></trkpt><trkpt lat="44.338185" lon="10.1272117"><ele>1094.0</ele><time>2026-04-19T11:18:57.975Z</time></trkpt><trkpt lat="44.3381083" lon="10.12727"><ele>1094.0</ele><time>2026-04-19T11:18:58.975Z</time></trkpt><trkpt lat="44.33804" lon="10.1273183"><ele>1094.0</ele><time>2026-04-19T11:18:59.975Z</time></trkpt><trkpt lat="44.3379767" lon="10.1273183"><ele>1094.0</ele><time>2026-04-19T11:19:00.975Z</time></trkpt><trkpt lat="44.33792" lon="10.1272683"><ele>1094.0</ele><time>2026-04-19T11:19:01.975Z</time></trkpt><trkpt lat="44.3379" lon="10.1271817"><ele>1094.0</ele><time>2026-04-19T11:19:02.975Z</time></trkpt><trkpt lat="44.3379267" lon="10.12709"><ele>1094.0</ele><time>2026-04-19T11:19:03.975Z</time></trkpt><trkpt lat="44.3379967" lon="10.1270233"><ele>1094.0</ele><time>2026-04-19T11:19:04.975Z</time></trkpt><trkpt lat="44.3381117" lon="10.127"><ele>1094.0</ele><time>2026-04-19T11:19:05.975Z</time></trkpt><trkpt lat="44.338265" lon="10.1270017"><ele>1094.0</ele><time>2026-04-19T11:19:06.975Z</time></trkpt><trkpt lat="44.338425" lon="10.1269817"><ele>1094.0</ele><time>2026-04-19T11:19:07.975Z</time></trkpt><trkpt lat="44.3385867" lon="10.1269333"><ele>1094.0</ele><time>2026-04-19T11:19:08.975Z</time></trkpt><trkpt lat="44.33874" lon="10.1268667"><ele>1094.0</ele><time>2026-04-19T11:19:09.975Z</time></trkpt><trkpt lat="44.3388817" lon="10.12679"><ele>1094.0</ele><time>2026-04-19T11:19:10.975Z</time></trkpt><trkpt lat="44.3390117" lon="10.1267133"><ele>1094.0</ele><time>2026-04-19T11:19:11.975Z</time></trkpt><trkpt lat="44.33912" lon="10.1266383"><ele>1094.0</ele><time>2026-04-19T11:19:12.976Z</time></trkpt><trkpt lat="44.3392283" lon="10.126575"><ele>1092.8333333333335</ele><time>2026-04-19T11:19:13.975Z</time></trkpt><trkpt lat="44.3393133" lon="10.126495"><ele>1091.6666666666667</ele><time>2026-04-19T11:19:14.975Z</time></trkpt><trkpt lat="44.339355" lon="10.126405"><ele>1090.5</ele><time>2026-04-19T11:19:15.975Z</time></trkpt><trkpt lat="44.3393533" lon="10.1263017"><ele>1089.3333333333333</ele><time>2026-04-19T11:19:16.975Z</time></trkpt><trkpt lat="44.33931" lon="10.1262067"><ele>1088.1666666666665</ele><time>2026-04-19T11:19:17.975Z</time></trkpt><trkpt lat="44.3392367" lon="10.12616"><ele>1087.0</ele><time>2026-04-19T11:19:18.975Z</time></trkpt><trkpt lat="44.3391333" lon="10.12617"><ele>1087.0</ele><time>2026-04-19T11:19:19.975Z</time></trkpt><trkpt lat="44.339" lon="10.1262283"><ele>1087.0</ele><time>2026-04-19T11:19:20.975Z</time></trkpt><trkpt lat="44.3388533" lon="10.1263117"><ele>1087.0</ele><time>2026-04-19T11:19:21.975Z</time></trkpt><trkpt lat="44.338715" lon="10.1263967"><ele>1087.0</ele><time>2026-04-19T11:19:22.975Z</time></trkpt><trkpt lat="44.3385833" lon="10.1264533"><ele>1084.5</ele><time>2026-04-19T11:19:23.975Z</time></trkpt><trkpt lat="44.3384533" lon="10.1264517"><ele>1082.0</ele><time>2026-04-19T11:19:24.975Z</time></trkpt><trkpt lat="44.3383267" lon="10.1263783"><ele>1079.5</ele><time>2026-04-19T11:19:25.975Z</time></trkpt><trkpt lat="44.3382083" lon="10.1262867"><ele>1077.0</ele><time>2026-04-19T11:19:26.975Z</time></trkpt><trkpt lat="44.33808" lon="10.1262283"><ele>1073.3333333333333</ele><time>2026-04-19T11:19:27.975Z</time></trkpt><trkpt lat="44.337935" lon="10.1262133"><ele>1069.6666666666665</ele><time>2026-04-19T11:19:28.975Z</time></trkpt><trkpt lat="44.3377717" lon="10.1262317"><ele>1066.0</ele><time>2026-04-19T11:19:29.975Z</time></trkpt><trkpt lat="44.3376117" lon="10.1262717"><ele>1066.0</ele><time>2026-04-19T11:19:30.975Z</time></trkpt><trkpt lat="44.33745" lon="10.126285"><ele>1066.0</ele><time>2026-04-19T11:19:31.975Z</time></trkpt><trkpt lat="44.3372933" lon="10.1262883"><ele>1066.0</ele><time>2026-04-19T11:19:32.975Z</time></trkpt><trkpt lat="44.3371467" lon="10.1262817"><ele>1063.5</ele><time>2026-04-19T11:19:33.975Z</time></trkpt><trkpt lat="44.3370067" lon="10.1263033"><ele>1061.0</ele><time>2026-04-19T11:19:34.975Z</time></trkpt><trkpt lat="44.3368717" lon="10.126355"><ele>1058.5</ele><time>2026-04-19T11:19:35.975Z</time></trkpt><trkpt lat="44.3367283" lon="10.1264317"><ele>1056.0</ele><time>2026-04-19T11:19:36.975Z</time></trkpt><trkpt lat="44.3366" lon="10.1265083"><ele>1056.0</ele><time>2026-04-19T11:19:37.975Z</time></trkpt><trkpt lat="44.3364833" lon="10.1265483"><ele>1056.0</ele><time>2026-04-19T11:19:38.975Z</time></trkpt><trkpt lat="44.3363733" lon="10.1265217"><ele>1056.0</ele><time>2026-04-19T11:19:39.975Z</time></trkpt><trkpt lat="44.3362783" lon="10.12643"><ele>1056.0</ele><time>2026-04-19T11:19:40.976Z</time></trkpt><trkpt lat="44.3361767" lon="10.12631"><ele>1056.75</ele><time>2026-04-19T11:19:41.975Z</time></trkpt><trkpt lat="44.3360617" lon="10.1262183"><ele>1057.5</ele><time>2026-04-19T11:19:42.975Z</time></trkpt><trkpt lat="44.3359317" lon="10.12615"><ele>1058.25</ele><time>2026-04-19T11:19:43.975Z</time></trkpt><trkpt lat="44.3358033" lon="10.126075"><ele>1059.0</ele><time>2026-04-19T11:19:44.975Z</time></trkpt><trkpt lat="44.3356717" lon="10.1259717"><ele>1059.0</ele><time>2026-04-19T11:19:45.975Z</time></trkpt><trkpt lat="44.3355567" lon="10.1258517"><ele>1059.0</ele><time>2026-04-19T11:19:46.975Z</time></trkpt><trkpt lat="44.33547" lon="10.125725"><ele>1059.0</ele><time>2026-04-19T11:19:47.975Z</time></trkpt><trkpt lat="44.3353883" lon="10.1256067"><ele>1059.0</ele><time>2026-04-19T11:19:48.975Z</time></trkpt><trkpt lat="44.33531" lon="10.1254717"><ele>1059.75</ele><time>2026-04-19T11:19:49.975Z</time></trkpt><trkpt lat="44.335235" lon="10.12532"><ele>1060.5</ele><time>2026-04-19T11:19:50.975Z</time></trkpt><trkpt lat="44.3351917" lon="10.1251417"><ele>1061.25</ele><time>2026-04-19T11:19:51.975Z</time></trkpt><trkpt lat="44.3351583" lon="10.1249533"><ele>1062.0</ele><time>2026-04-19T11:19:52.975Z</time></trkpt><trkpt lat="44.33512" lon="10.1247617"><ele>1062.0</ele><time>2026-04-19T11:19:53.975Z</time></trkpt><trkpt lat="44.33509" lon="10.124565"><ele>1062.0</ele><time>2026-04-19T11:19:54.975Z</time></trkpt><trkpt lat="44.3350733" lon="10.12437"><ele>1062.0</ele><time>2026-04-19T11:19:55.976Z</time></trkpt><trkpt lat="44.33507" lon="10.12416"><ele>1062.0</ele><time>2026-04-19T11:19:56.975Z</time></trkpt><trkpt lat="44.3350767" lon="10.12395"><ele>1060.6666666666667</ele><time>2026-04-19T11:19:57.975Z</time></trkpt><trkpt lat="44.3350767" lon="10.12374"><ele>1059.3333333333335</ele><time>2026-04-19T11:19:58.975Z</time></trkpt><trkpt lat="44.33506" lon="10.123515"><ele>1058.0</ele><time>2026-04-19T11:19:59.975Z</time></trkpt><trkpt lat="44.3350283" lon="10.1232883"><ele>1053.0</ele><time>2026-04-19T11:20:00.975Z</time></trkpt><trkpt lat="44.3349967" lon="10.123045"><ele>1048.0</ele><time>2026-04-19T11:20:01.975Z</time></trkpt><trkpt lat="44.3349633" lon="10.12284"><ele>1043.0</ele><time>2026-04-19T11:20:02.975Z</time></trkpt><trkpt lat="44.334935" lon="10.1226367"><ele>1043.0</ele><time>2026-04-19T11:20:03.975Z</time></trkpt><trkpt lat="44.3348783" lon="10.1224367"><ele>1043.0</ele><time>2026-04-19T11:20:04.975Z</time></trkpt><trkpt lat="44.3347817" lon="10.1222367"><ele>1043.0</ele><time>2026-04-19T11:20:05.975Z</time></trkpt><trkpt lat="44.3346767" lon="10.1220317"><ele>1043.0</ele><time>2026-04-19T11:20:06.975Z</time></trkpt><trkpt lat="44.3345717" lon="10.12182"><ele>1043.0</ele><time>2026-04-19T11:20:07.975Z</time></trkpt><trkpt lat="44.334485" lon="10.1216083"><ele>1043.0</ele><time>2026-04-19T11:20:08.975Z</time></trkpt><trkpt lat="44.334435" lon="10.1213917"><ele>1043.0</ele><time>2026-04-19T11:20:09.975Z</time></trkpt><trkpt lat="44.334405" lon="10.1211617"><ele>1043.0</ele><time>2026-04-19T11:20:10.975Z</time></trkpt><trkpt lat="44.334355" lon="10.1209217"><ele>1043.0</ele><time>2026-04-19T11:20:11.975Z</time></trkpt><trkpt lat="44.33429" lon="10.1206883"><ele>1035.0</ele><time>2026-04-19T11:20:12.975Z</time></trkpt><trkpt lat="44.3342033" lon="10.12046"><ele>1027.0</ele><time>2026-04-19T11:20:13.975Z</time></trkpt><trkpt lat="44.334095" lon="10.1202567"><ele>1019.0</ele><time>2026-04-19T11:20:14.975Z</time></trkpt><trkpt lat="44.3339767" lon="10.12006"><ele>1019.6666666666667</ele><time>2026-04-19T11:20:15.975Z</time></trkpt><trkpt lat="44.33384" lon="10.1198633"><ele>1020.3333333333333</ele><time>2026-04-19T11:20:16.975Z</time></trkpt><trkpt lat="44.3337017" lon="10.119675"><ele>1021.0</ele><time>2026-04-19T11:20:17.975Z</time></trkpt><trkpt lat="44.3335617" lon="10.1194933"><ele>1021.0</ele><time>2026-04-19T11:20:18.975Z</time></trkpt><trkpt lat="44.333425" lon="10.1193117"><ele>1021.0</ele><time>2026-04-19T11:20:19.975Z</time></trkpt><trkpt lat="44.3332883" lon="10.1191417"><ele>1021.0</ele><time>2026-04-19T11:20:20.975Z</time></trkpt><trkpt lat="44.3331483" lon="10.11898"><ele>1022.6666666666666</ele><time>2026-04-19T11:20:21.975Z</time></trkpt><trkpt lat="44.3330217" lon="10.118805"><ele>1024.3333333333333</ele><time>2026-04-19T11:20:22.975Z</time></trkpt><trkpt lat="44.3328883" lon="10.1186283"><ele>1026.0</ele><time>2026-04-19T11:20:23.975Z</time></trkpt><trkpt lat="44.3327617" lon="10.1184683"><ele>1026.0</ele><time>2026-04-19T11:20:24.975Z</time></trkpt><trkpt lat="44.3326317" lon="10.1183283"><ele>1026.0</ele><time>2026-04-19T11:20:25.975Z</time></trkpt><trkpt lat="44.3325083" lon="10.1182083"><ele>1026.0</ele><time>2026-04-19T11:20:26.975Z</time></trkpt><trkpt lat="44.3324" lon="10.1180783"><ele>1026.5</ele><time>2026-04-19T11:20:27.975Z</time></trkpt><trkpt lat="44.33232" lon="10.1179317"><ele>1027.0</ele><time>2026-04-19T11:20:28.975Z</time></trkpt><trkpt lat="44.3322517" lon="10.117795"><ele>1027.5</ele><time>2026-04-19T11:20:29.975Z</time></trkpt><trkpt lat="44.3321917" lon="10.1176583"><ele>1028.0</ele><time>2026-04-19T11:20:30.975Z</time></trkpt><trkpt lat="44.3321217" lon="10.11753"><ele>1028.0</ele><time>2026-04-19T11:20:31.975Z</time></trkpt><trkpt lat="44.332035" lon="10.11742"><ele>1028.0</ele><time>2026-04-19T11:20:32.975Z</time></trkpt><trkpt lat="44.3319183" lon="10.1172967"><ele>1028.0</ele><time>2026-04-19T11:20:33.975Z</time></trkpt><trkpt lat="44.3317983" lon="10.1171517"><ele>1028.0</ele><time>2026-04-19T11:20:34.975Z</time></trkpt><trkpt lat="44.33169" lon="10.1169983"><ele>1024.6666666666667</ele><time>2026-04-19T11:20:35.975Z</time></trkpt><trkpt lat="44.3315767" lon="10.11686"><ele>1021.3333333333333</ele><time>2026-04-19T11:20:36.975Z</time></trkpt><trkpt lat="44.331435" lon="10.11673"><ele>1018.0</ele><time>2026-04-19T11:20:37.975Z</time></trkpt><trkpt lat="44.33128" lon="10.1166"><ele>1005.0</ele><time>2026-04-19T11:20:38.975Z</time></trkpt><trkpt lat="44.3310967" lon="10.11647"><ele>992.0</ele><time>2026-04-19T11:20:39.975Z</time></trkpt><trkpt lat="44.3309317" lon="10.1163133"><ele>979.0</ele><time>2026-04-19T11:20:40.975Z</time></trkpt><trkpt lat="44.330775" lon="10.116145"><ele>979.0</ele><time>2026-04-19T11:20:41.975Z</time></trkpt><trkpt lat="44.3306367" lon="10.11598"><ele>979.0</ele><time>2026-04-19T11:20:42.975Z</time></trkpt><trkpt lat="44.330515" lon="10.115825"><ele>979.0</ele><time>2026-04-19T11:20:43.975Z</time></trkpt><trkpt lat="44.3304033" lon="10.1156883"><ele>977.0</ele><time>2026-04-19T11:20:44.975Z</time></trkpt><trkpt lat="44.330275" lon="10.1156033"><ele>975.0</ele><time>2026-04-19T11:20:45.975Z</time></trkpt><trkpt lat="44.3301517" lon="10.115565"><ele>973.0</ele><time>2026-04-19T11:20:46.975Z</time></trkpt><trkpt lat="44.3300367" lon="10.115565"><ele>971.0</ele><time>2026-04-19T11:20:47.975Z</time></trkpt><trkpt lat="44.32993" lon="10.115545"><ele>971.0</ele><time>2026-04-19T11:20:48.975Z</time></trkpt><trkpt lat="44.3298467" lon="10.1154667"><ele>970.9999999999999</ele><time>2026-04-19T11:20:49.975Z</time></trkpt><trkpt lat="44.32979" lon="10.115355"><ele>970.9999999999999</ele><time>2026-04-19T11:20:50.975Z</time></trkpt><trkpt lat="44.3297733" lon="10.1152133"><ele>971.0</ele><time>2026-04-19T11:20:51.975Z</time></trkpt><trkpt lat="44.32977" lon="10.1150417"><ele>971.0</ele><time>2026-04-19T11:20:52.975Z</time></trkpt><trkpt lat="44.3297383" lon="10.1148667"><ele>974.0</ele><time>2026-04-19T11:20:53.975Z</time></trkpt><trkpt lat="44.3296533" lon="10.1147"><ele>977.0</ele><time>2026-04-19T11:20:54.975Z</time></trkpt><trkpt lat="44.32952" lon="10.1145317"><ele>980.0</ele><time>2026-04-19T11:20:55.975Z</time></trkpt><trkpt lat="44.3293733" lon="10.1143533"><ele>980.0</ele><time>2026-04-19T11:20:56.975Z</time></trkpt><trkpt lat="44.3292217" lon="10.114185"><ele>980.0</ele><time>2026-04-19T11:20:57.975Z</time></trkpt><trkpt lat="44.3290733" lon="10.114015"><ele>980.0</ele><time>2026-04-19T11:20:58.975Z</time></trkpt><trkpt lat="44.3289267" lon="10.1138517"><ele>979.6666666666667</ele><time>2026-04-19T11:20:59.975Z</time></trkpt><trkpt lat="44.3288" lon="10.113685"><ele>979.3333333333333</ele><time>2026-04-19T11:21:00.975Z</time></trkpt><trkpt lat="44.328695" lon="10.1135083"><ele>979.0</ele><time>2026-04-19T11:21:01.975Z</time></trkpt><trkpt lat="44.3285983" lon="10.113335"><ele>970.0</ele><time>2026-04-19T11:21:02.975Z</time></trkpt><trkpt lat="44.3284983" lon="10.1131667"><ele>961.0</ele><time>2026-04-19T11:21:03.975Z</time></trkpt><trkpt lat="44.328375" lon="10.1129867"><ele>952.0</ele><time>2026-04-19T11:21:04.975Z</time></trkpt><trkpt lat="44.3282217" lon="10.1128217"><ele>952.0</ele><time>2026-04-19T11:21:05.975Z</time></trkpt><trkpt lat="44.328075" lon="10.11267"><ele>952.0</ele><time>2026-04-19T11:21:06.975Z</time></trkpt><trkpt lat="44.3279217" lon="10.1125033"><ele>952.0</ele><time>2026-04-19T11:21:07.975Z</time></trkpt><trkpt lat="44.32778" lon="10.1123333"><ele>948.3333333333333</ele><time>2026-04-19T11:21:08.975Z</time></trkpt><trkpt lat="44.3276383" lon="10.112165"><ele>944.6666666666667</ele><time>2026-04-19T11:21:09.975Z</time></trkpt><trkpt lat="44.3274883" lon="10.1120283"><ele>941.0</ele><time>2026-04-19T11:21:10.975Z</time></trkpt><trkpt lat="44.32733" lon="10.11194"><ele>939.3333333333334</ele><time>2026-04-19T11:21:11.975Z</time></trkpt><trkpt lat="44.32717" lon="10.111875"><ele>937.6666666666667</ele><time>2026-04-19T11:21:12.975Z</time></trkpt><trkpt lat="44.3270083" lon="10.1118383"><ele>936.0</ele><time>2026-04-19T11:21:13.975Z</time></trkpt><trkpt lat="44.3268583" lon="10.1118333"><ele>936.0</ele><time>2026-04-19T11:21:14.975Z</time></trkpt><trkpt lat="44.32671" lon="10.1118583"><ele>936.0</ele><time>2026-04-19T11:21:15.975Z</time></trkpt><trkpt lat="44.326565" lon="10.1119317"><ele>936.0</ele><time>2026-04-19T11:21:16.975Z</time></trkpt><trkpt lat="44.3264133" lon="10.1120317"><ele>929.25</ele><time>2026-04-19T11:21:17.975Z</time></trkpt><trkpt lat="44.3262817" lon="10.11215"><ele>922.5</ele><time>2026-04-19T11:21:18.975Z</time></trkpt><trkpt lat="44.3261667" lon="10.112245"><ele>915.75</ele><time>2026-04-19T11:21:19.975Z</time></trkpt><trkpt lat="44.3260683" lon="10.1123117"><ele>909.0</ele><time>2026-04-19T11:21:20.975Z</time></trkpt><trkpt lat="44.3259867" lon="10.112365"><ele>909.0</ele><time>2026-04-19T11:21:21.975Z</time></trkpt><trkpt lat="44.3259083" lon="10.112405"><ele>909.0</ele><time>2026-04-19T11:21:22.975Z</time></trkpt><trkpt lat="44.3258383" lon="10.112385"><ele>909.0</ele><time>2026-04-19T11:21:23.975Z</time></trkpt><trkpt lat="44.3257933" lon="10.1123183"><ele>909.0</ele><time>2026-04-19T11:21:24.976Z</time></trkpt><trkpt lat="44.325805" lon="10.11221"><ele>909.0</ele><time>2026-04-19T11:21:25.975Z</time></trkpt><trkpt lat="44.3258717" lon="10.1121033"><ele>909.0</ele><time>2026-04-19T11:21:26.975Z</time></trkpt><trkpt lat="44.325975" lon="10.112035"><ele>909.0</ele><time>2026-04-19T11:21:27.975Z</time></trkpt><trkpt lat="44.3261067" lon="10.1119983"><ele>909.0</ele><time>2026-04-19T11:21:28.975Z</time></trkpt><trkpt lat="44.3262383" lon="10.11194"><ele>909.0</ele><time>2026-04-19T11:21:29.975Z</time></trkpt><trkpt lat="44.3263533" lon="10.1118167"><ele>909.0</ele><time>2026-04-19T11:21:30.975Z</time></trkpt><trkpt lat="44.3264667" lon="10.1116367"><ele>905.3333333333333</ele><time>2026-04-19T11:21:31.975Z</time></trkpt><trkpt lat="44.3265967" lon="10.1114783"><ele>901.6666666666666</ele><time>2026-04-19T11:21:32.975Z</time></trkpt><trkpt lat="44.3267217" lon="10.1113433"><ele>898.0</ele><time>2026-04-19T11:21:33.976Z</time></trkpt><trkpt lat="44.3268483" lon="10.1112533"><ele>898.0</ele><time>2026-04-19T11:21:34.975Z</time></trkpt><trkpt lat="44.3269967" lon="10.111175"><ele>898.0</ele><time>2026-04-19T11:21:35.975Z</time></trkpt><trkpt lat="44.32716" lon="10.1111267"><ele>898.0</ele><time>2026-04-19T11:21:36.975Z</time></trkpt><trkpt lat="44.3273233" lon="10.1111067"><ele>901.3333333333333</ele><time>2026-04-19T11:21:37.975Z</time></trkpt><trkpt lat="44.32749" lon="10.1111"><ele>904.6666666666667</ele><time>2026-04-19T11:21:38.975Z</time></trkpt><trkpt lat="44.3276683" lon="10.11114"><ele>908.0</ele><time>2026-04-19T11:21:39.975Z</time></trkpt><trkpt lat="44.3278733" lon="10.1112533"><ele>908.0</ele><time>2026-04-19T11:21:40.975Z</time></trkpt><trkpt lat="44.3280533" lon="10.1113433"><ele>908.0</ele><time>2026-04-19T11:21:41.975Z</time></trkpt><trkpt lat="44.3282233" lon="10.1114667"><ele>908.0</ele><time>2026-04-19T11:21:42.975Z</time></trkpt><trkpt lat="44.328385" lon="10.1115883"><ele>913.0</ele><time>2026-04-19T11:21:43.975Z</time></trkpt><trkpt lat="44.3285233" lon="10.1116917"><ele>918.0</ele><time>2026-04-19T11:21:44.975Z</time></trkpt><trkpt lat="44.3286567" lon="10.111775"><ele>923.0</ele><time>2026-04-19T11:21:45.975Z</time></trkpt><trkpt lat="44.3288083" lon="10.1118383"><ele>915.3333333333334</ele><time>2026-04-19T11:21:46.975Z</time></trkpt><trkpt lat="44.3289667" lon="10.1118883"><ele>907.6666666666667</ele><time>2026-04-19T11:21:47.975Z</time></trkpt><trkpt lat="44.3291267" lon="10.1119017"><ele>900.0</ele><time>2026-04-19T11:21:48.975Z</time></trkpt><trkpt lat="44.329275" lon="10.1119217"><ele>900.0</ele><time>2026-04-19T11:21:49.975Z</time></trkpt><trkpt lat="44.32942" lon="10.1119833"><ele>900.0</ele><time>2026-04-19T11:21:50.975Z</time></trkpt><trkpt lat="44.329535" lon="10.1120533"><ele>900.0</ele><time>2026-04-19T11:21:51.975Z</time></trkpt><trkpt lat="44.3296133" lon="10.112175"><ele>900.0</ele><time>2026-04-19T11:21:52.975Z</time></trkpt><trkpt lat="44.3296783" lon="10.11233"><ele>898.0</ele><time>2026-04-19T11:21:53.975Z</time></trkpt><trkpt lat="44.32971" lon="10.11252"><ele>896.0</ele><time>2026-04-19T11:21:54.975Z</time></trkpt><trkpt lat="44.3297417" lon="10.1126967"><ele>894.0</ele><time>2026-04-19T11:21:55.975Z</time></trkpt><trkpt lat="44.3297833" lon="10.1128333"><ele>892.0</ele><time>2026-04-19T11:21:56.975Z</time></trkpt><trkpt lat="44.32983" lon="10.1129467"><ele>892.0</ele><time>2026-04-19T11:21:57.975Z</time></trkpt><trkpt lat="44.329875" lon="10.11302"><ele>892.0</ele><time>2026-04-19T11:21:58.975Z</time></trkpt><trkpt lat="44.3299883" lon="10.1130267"><ele>892.0</ele><time>2026-04-19T11:22:00.975Z</time></trkpt><trkpt lat="44.33005" lon="10.112885"><ele>892.0</ele><time>2026-04-19T11:22:02.975Z</time></trkpt><trkpt lat="44.330025" lon="10.1127417"><ele>892.0</ele><time>2026-04-19T11:22:03.975Z</time></trkpt><trkpt lat="44.3299633" lon="10.112555"><ele>894.6666666666666</ele><time>2026-04-19T11:22:04.975Z</time></trkpt><trkpt lat="44.3298833" lon="10.1123583"><ele>897.3333333333333</ele><time>2026-04-19T11:22:05.975Z</time></trkpt><trkpt lat="44.3298067" lon="10.112165"><ele>900.0</ele><time>2026-04-19T11:22:06.975Z</time></trkpt><trkpt lat="44.3297167" lon="10.1119667"><ele>900.0</ele><time>2026-04-19T11:22:07.975Z</time></trkpt><trkpt lat="44.32963" lon="10.1118"><ele>900.0</ele><time>2026-04-19T11:22:08.975Z</time></trkpt><trkpt lat="44.32954" lon="10.1116667"><ele>900.0</ele><time>2026-04-19T11:22:09.975Z</time></trkpt><trkpt lat="44.3294283" lon="10.1115667"><ele>900.0</ele><time>2026-04-19T11:22:10.975Z</time></trkpt><trkpt lat="44.3293" lon="10.1114917"><ele>897.75</ele><time>2026-04-19T11:22:11.975Z</time></trkpt><trkpt lat="44.329165" lon="10.1114217"><ele>895.5</ele><time>2026-04-19T11:22:12.975Z</time></trkpt><trkpt lat="44.32903" lon="10.1113267"><ele>893.25</ele><time>2026-04-19T11:22:13.975Z</time></trkpt><trkpt lat="44.3288983" lon="10.1112167"><ele>891.0</ele><time>2026-04-19T11:22:14.975Z</time></trkpt><trkpt lat="44.3287617" lon="10.1110733"><ele>891.0</ele><time>2026-04-19T11:22:15.975Z</time></trkpt><trkpt lat="44.3286317" lon="10.1109117"><ele>891.0</ele><time>2026-04-19T11:22:16.975Z</time></trkpt><trkpt lat="44.3284933" lon="10.1107483"><ele>891.0</ele><time>2026-04-19T11:22:17.975Z</time></trkpt><trkpt lat="44.328355" lon="10.1105933"><ele>884.0</ele><time>2026-04-19T11:22:18.975Z</time></trkpt><trkpt lat="44.328225" lon="10.11043"><ele>877.0</ele><time>2026-04-19T11:22:19.975Z</time></trkpt><trkpt lat="44.328105" lon="10.11028"><ele>870.0</ele><time>2026-04-19T11:22:20.975Z</time></trkpt><trkpt lat="44.3279833" lon="10.11015"><ele>870.0</ele><time>2026-04-19T11:22:21.975Z</time></trkpt><trkpt lat="44.3278517" lon="10.110035"><ele>870.0</ele><time>2026-04-19T11:22:22.975Z</time></trkpt><trkpt lat="44.3277067" lon="10.1099583"><ele>870.0</ele><time>2026-04-19T11:22:23.975Z</time></trkpt><trkpt lat="44.3275567" lon="10.1099133"><ele>859.6666666666667</ele><time>2026-04-19T11:22:24.975Z</time></trkpt><trkpt lat="44.3273983" lon="10.109885"><ele>849.3333333333334</ele><time>2026-04-19T11:22:25.976Z</time></trkpt><trkpt lat="44.3272283" lon="10.1098733"><ele>839.0</ele><time>2026-04-19T11:22:26.975Z</time></trkpt><trkpt lat="44.3270783" lon="10.1099"><ele>846.0</ele><time>2026-04-19T11:22:27.975Z</time></trkpt><trkpt lat="44.32692" lon="10.1099233"><ele>853.0</ele><time>2026-04-19T11:22:28.975Z</time></trkpt><trkpt lat="44.3267717" lon="10.109955"><ele>860.0</ele><time>2026-04-19T11:22:29.975Z</time></trkpt><trkpt lat="44.3266183" lon="10.1100133"><ele>860.0</ele><time>2026-04-19T11:22:30.975Z</time></trkpt><trkpt lat="44.3264767" lon="10.1100917"><ele>860.0</ele><time>2026-04-19T11:22:31.975Z</time></trkpt><trkpt lat="44.3263467" lon="10.1102017"><ele>860.0</ele><time>2026-04-19T11:22:32.975Z</time></trkpt><trkpt lat="44.326215" lon="10.1103317"><ele>862.3333333333334</ele><time>2026-04-19T11:22:33.976Z</time></trkpt><trkpt lat="44.32609" lon="10.11048"><ele>864.6666666666667</ele><time>2026-04-19T11:22:34.975Z</time></trkpt><trkpt lat="44.32598" lon="10.110625"><ele>867.0</ele><time>2026-04-19T11:22:35.975Z</time></trkpt><trkpt lat="44.3258767" lon="10.1107533"><ele>867.0</ele><time>2026-04-19T11:22:36.975Z</time></trkpt><trkpt lat="44.3257433" lon="10.1108367"><ele>867.0</ele><time>2026-04-19T11:22:37.975Z</time></trkpt><trkpt lat="44.3255983" lon="10.1109017"><ele>867.0</ele><time>2026-04-19T11:22:38.975Z</time></trkpt><trkpt lat="44.3254667" lon="10.1109667"><ele>867.0</ele><time>2026-04-19T11:22:39.975Z</time></trkpt><trkpt lat="44.3253467" lon="10.11103"><ele>868.6666666666666</ele><time>2026-04-19T11:22:40.975Z</time></trkpt><trkpt lat="44.3252467" lon="10.11108"><ele>870.3333333333333</ele><time>2026-04-19T11:22:41.975Z</time></trkpt><trkpt lat="44.3251717" lon="10.111085"><ele>872.0</ele><time>2026-04-19T11:22:42.976Z</time></trkpt><trkpt lat="44.3251033" lon="10.11105"><ele>873.6666666666666</ele><time>2026-04-19T11:22:43.975Z</time></trkpt><trkpt lat="44.3250383" lon="10.1109867"><ele>875.3333333333333</ele><time>2026-04-19T11:22:44.975Z</time></trkpt><trkpt lat="44.3250067" lon="10.1109017"><ele>877.0</ele><time>2026-04-19T11:22:45.975Z</time></trkpt><trkpt lat="44.3250333" lon="10.110795"><ele>874.25</ele><time>2026-04-19T11:22:46.975Z</time></trkpt><trkpt lat="44.3250933" lon="10.1106717"><ele>871.5</ele><time>2026-04-19T11:22:47.975Z</time></trkpt><trkpt lat="44.3251733" lon="10.1105083"><ele>868.75</ele><time>2026-04-19T11:22:48.975Z</time></trkpt><trkpt lat="44.3252433" lon="10.1103"><ele>866.0</ele><time>2026-04-19T11:22:49.975Z</time></trkpt><trkpt lat="44.325265" lon="10.110045"><ele>859.0</ele><time>2026-04-19T11:22:50.975Z</time></trkpt><trkpt lat="44.3252283" lon="10.1098"><ele>852.0</ele><time>2026-04-19T11:22:51.975Z</time></trkpt><trkpt lat="44.325165" lon="10.109565"><ele>845.0</ele><time>2026-04-19T11:22:52.975Z</time></trkpt><trkpt lat="44.3250833" lon="10.1093567"><ele>845.0</ele><time>2026-04-19T11:22:53.975Z</time></trkpt><trkpt lat="44.3249983" lon="10.1091517"><ele>845.0</ele><time>2026-04-19T11:22:54.975Z</time></trkpt><trkpt lat="44.3249017" lon="10.1089883"><ele>845.0</ele><time>2026-04-19T11:22:55.975Z</time></trkpt><trkpt lat="44.324795" lon="10.1088417"><ele>838.3333333333334</ele><time>2026-04-19T11:22:56.975Z</time></trkpt><trkpt lat="44.32465" lon="10.1087483"><ele>831.6666666666667</ele><time>2026-04-19T11:22:57.975Z</time></trkpt><trkpt lat="44.3245017" lon="10.1086867"><ele>825.0</ele><time>2026-04-19T11:22:58.975Z</time></trkpt><trkpt lat="44.3243383" lon="10.108645"><ele>825.0</ele><time>2026-04-19T11:22:59.975Z</time></trkpt><trkpt lat="44.32417" lon="10.1085817"><ele>825.0</ele><time>2026-04-19T11:23:00.975Z</time></trkpt><trkpt lat="44.3240083" lon="10.1084933"><ele>825.0</ele><time>2026-04-19T11:23:01.975Z</time></trkpt><trkpt lat="44.323865" lon="10.108375"><ele>826.25</ele><time>2026-04-19T11:23:02.975Z</time></trkpt><trkpt lat="44.32374" lon="10.1082517"><ele>827.5</ele><time>2026-04-19T11:23:03.975Z</time></trkpt><trkpt lat="44.3236183" lon="10.1081783"><ele>828.75</ele><time>2026-04-19T11:23:04.975Z</time></trkpt><trkpt lat="44.32349" lon="10.1081283"><ele>830.0</ele><time>2026-04-19T11:23:05.975Z</time></trkpt><trkpt lat="44.3233633" lon="10.1081367"><ele>824.8</ele><time>2026-04-19T11:23:06.976Z</time></trkpt><trkpt lat="44.3232367" lon="10.108205"><ele>819.6</ele><time>2026-04-19T11:23:07.975Z</time></trkpt><trkpt lat="44.323155" lon="10.1082217"><ele>814.4000000000001</ele><time>2026-04-19T11:23:08.975Z</time></trkpt><trkpt lat="44.32308" lon="10.1082267"><ele>809.2</ele><time>2026-04-19T11:23:09.975Z</time></trkpt><trkpt lat="44.32302" lon="10.1081883"><ele>804.0</ele><time>2026-04-19T11:23:10.975Z</time></trkpt><trkpt lat="44.323015" lon="10.1080167"><ele>801.4000000000001</ele><time>2026-04-19T11:23:12.975Z</time></trkpt><trkpt lat="44.32308" lon="10.10793"><ele>798.8</ele><time>2026-04-19T11:23:13.975Z</time></trkpt><trkpt lat="44.3231717" lon="10.1078867"><ele>796.2</ele><time>2026-04-19T11:23:14.976Z</time></trkpt><trkpt lat="44.3232933" lon="10.1078933"><ele>793.5999999999999</ele><time>2026-04-19T11:23:15.975Z</time></trkpt><trkpt lat="44.3234283" lon="10.1079117"><ele>791.0</ele><time>2026-04-19T11:23:16.975Z</time></trkpt><trkpt lat="44.3235667" lon="10.1079267"><ele>791.0</ele><time>2026-04-19T11:23:17.975Z</time></trkpt><trkpt lat="44.3237217" lon="10.1079483"><ele>791.0</ele><time>2026-04-19T11:23:18.975Z</time></trkpt><trkpt lat="44.3238867" lon="10.1079483"><ele>791.0</ele><time>2026-04-19T11:23:19.975Z</time></trkpt><trkpt lat="44.32406" lon="10.107925"><ele>791.0</ele><time>2026-04-19T11:23:20.975Z</time></trkpt><trkpt lat="44.3242367" lon="10.10788"><ele>791.0</ele><time>2026-04-19T11:23:21.975Z</time></trkpt><trkpt lat="44.32439" lon="10.1078317"><ele>791.0</ele><time>2026-04-19T11:23:22.975Z</time></trkpt><trkpt lat="44.32455" lon="10.1078117"><ele>791.0</ele><time>2026-04-19T11:23:23.975Z</time></trkpt><trkpt lat="44.3247083" lon="10.1078317"><ele>791.0</ele><time>2026-04-19T11:23:24.975Z</time></trkpt><trkpt lat="44.3248483" lon="10.1079"><ele>791.0</ele><time>2026-04-19T11:23:25.975Z</time></trkpt><trkpt lat="44.32499" lon="10.1080133"><ele>791.75</ele><time>2026-04-19T11:23:26.975Z</time></trkpt><trkpt lat="44.3251033" lon="10.1081817"><ele>792.5</ele><time>2026-04-19T11:23:27.975Z</time></trkpt><trkpt lat="44.3251917" lon="10.1083367"><ele>793.25</ele><time>2026-04-19T11:23:28.975Z</time></trkpt><trkpt lat="44.3252617" lon="10.1084583"><ele>794.0</ele><time>2026-04-19T11:23:29.975Z</time></trkpt><trkpt lat="44.3253183" lon="10.1085567"><ele>797.1666666666667</ele><time>2026-04-19T11:23:30.975Z</time></trkpt><trkpt lat="44.3253733" lon="10.1086317"><ele>800.3333333333334</ele><time>2026-04-19T11:23:31.975Z</time></trkpt><trkpt lat="44.32544" lon="10.108675"><ele>803.5</ele><time>2026-04-19T11:23:32.975Z</time></trkpt><trkpt lat="44.325505" lon="10.1086533"><ele>806.6666666666667</ele><time>2026-04-19T11:23:33.975Z</time></trkpt><trkpt lat="44.3255467" lon="10.1085717"><ele>809.8333333333334</ele><time>2026-04-19T11:23:34.975Z</time></trkpt><trkpt lat="44.3255583" lon="10.108435"><ele>813.0</ele><time>2026-04-19T11:23:35.975Z</time></trkpt><trkpt lat="44.3255017" lon="10.1082783"><ele>806.6666666666667</ele><time>2026-04-19T11:23:36.975Z</time></trkpt><trkpt lat="44.32541" lon="10.1081067"><ele>800.3333333333334</ele><time>2026-04-19T11:23:37.975Z</time></trkpt><trkpt lat="44.3253033" lon="10.10793"><ele>794.0</ele><time>2026-04-19T11:23:38.975Z</time></trkpt><trkpt lat="44.3251867" lon="10.1077417"><ele>794.0</ele><time>2026-04-19T11:23:39.975Z</time></trkpt><trkpt lat="44.3250883" lon="10.107585"><ele>794.0</ele><time>2026-04-19T11:23:40.975Z</time></trkpt><trkpt lat="44.3249767" lon="10.10744"><ele>794.0</ele><time>2026-04-19T11:23:41.975Z</time></trkpt><trkpt lat="44.3248517" lon="10.107325"><ele>784.3333333333334</ele><time>2026-04-19T11:23:42.975Z</time></trkpt><trkpt lat="44.3247133" lon="10.1072417"><ele>774.6666666666667</ele><time>2026-04-19T11:23:43.975Z</time></trkpt><trkpt lat="44.3245567" lon="10.10721"><ele>765.0</ele><time>2026-04-19T11:23:44.975Z</time></trkpt><trkpt lat="44.3244" lon="10.1072117"><ele>765.0</ele><time>2026-04-19T11:23:45.975Z</time></trkpt><trkpt lat="44.3242467" lon="10.1072533"><ele>765.0</ele><time>2026-04-19T11:23:46.975Z</time></trkpt><trkpt lat="44.3240883" lon="10.1073267"><ele>765.0</ele><time>2026-04-19T11:23:47.975Z</time></trkpt><trkpt lat="44.3239183" lon="10.10737"><ele>762.6666666666666</ele><time>2026-04-19T11:23:48.975Z</time></trkpt><trkpt lat="44.3237567" lon="10.107365"><ele>760.3333333333333</ele><time>2026-04-19T11:23:49.975Z</time></trkpt><trkpt lat="44.3236" lon="10.10733"><ele>758.0</ele><time>2026-04-19T11:23:50.975Z</time></trkpt><trkpt lat="44.323455" lon="10.1072583"><ele>758.0</ele><time>2026-04-19T11:23:51.975Z</time></trkpt><trkpt lat="44.323325" lon="10.107175"><ele>758.0</ele><time>2026-04-19T11:23:52.975Z</time></trkpt><trkpt lat="44.3232067" lon="10.1071033"><ele>758.0</ele><time>2026-04-19T11:23:53.975Z</time></trkpt><trkpt lat="44.3230867" lon="10.107055"><ele>758.0</ele><time>2026-04-19T11:23:54.976Z</time></trkpt><trkpt lat="44.3229767" lon="10.10705"><ele>763.0</ele><time>2026-04-19T11:23:55.975Z</time></trkpt><trkpt lat="44.3228783" lon="10.1070867"><ele>768.0</ele><time>2026-04-19T11:23:56.975Z</time></trkpt><trkpt lat="44.32279" lon="10.107155"><ele>773.0</ele><time>2026-04-19T11:23:57.975Z</time></trkpt><trkpt lat="44.3227117" lon="10.1072583"><ele>778.0</ele><time>2026-04-19T11:23:58.975Z</time></trkpt><trkpt lat="44.3226433" lon="10.107335"><ele>783.0</ele><time>2026-04-19T11:23:59.975Z</time></trkpt><trkpt lat="44.3225867" lon="10.1073833"><ele>783.0</ele><time>2026-04-19T11:24:00.975Z</time></trkpt><trkpt lat="44.3224917" lon="10.107335"><ele>783.0</ele><time>2026-04-19T11:24:02.975Z</time></trkpt><trkpt lat="44.32247" lon="10.1072217"><ele>783.0</ele><time>2026-04-19T11:24:03.975Z</time></trkpt><trkpt lat="44.322465" lon="10.1069983"><ele>783.0</ele><time>2026-04-19T11:24:04.975Z</time></trkpt><trkpt lat="44.32247" lon="10.1067517"><ele>776.6666666666666</ele><time>2026-04-19T11:24:05.975Z</time></trkpt><trkpt lat="44.3224567" lon="10.1064833"><ele>770.3333333333333</ele><time>2026-04-19T11:24:06.975Z</time></trkpt><trkpt lat="44.3224483" lon="10.1062217"><ele>764.0</ele><time>2026-04-19T11:24:07.975Z</time></trkpt><trkpt lat="44.32241" lon="10.1059633"><ele>759.0</ele><time>2026-04-19T11:24:08.976Z</time></trkpt><trkpt lat="44.3223633" lon="10.1057133"><ele>754.0</ele><time>2026-04-19T11:24:09.975Z</time></trkpt><trkpt lat="44.3223117" lon="10.1054767"><ele>749.0</ele><time>2026-04-19T11:24:10.975Z</time></trkpt><trkpt lat="44.322265" lon="10.1052567"><ele>746.25</ele><time>2026-04-19T11:24:11.975Z</time></trkpt><trkpt lat="44.3222183" lon="10.10505"><ele>743.5</ele><time>2026-04-19T11:24:12.975Z</time></trkpt><trkpt lat="44.3221633" lon="10.1048567"><ele>740.75</ele><time>2026-04-19T11:24:13.975Z</time></trkpt><trkpt lat="44.3220867" lon="10.1047067"><ele>738.0</ele><time>2026-04-19T11:24:14.975Z</time></trkpt><trkpt lat="44.321995" lon="10.104585"><ele>738.0</ele><time>2026-04-19T11:24:15.975Z</time></trkpt><trkpt lat="44.3218967" lon="10.1045"><ele>738.0</ele><time>2026-04-19T11:24:16.975Z</time></trkpt><trkpt lat="44.3217767" lon="10.1044517"><ele>738.0</ele><time>2026-04-19T11:24:17.975Z</time></trkpt><trkpt lat="44.3216217" lon="10.1044533"><ele>738.0</ele><time>2026-04-19T11:24:18.975Z</time></trkpt><trkpt lat="44.3214767" lon="10.10444"><ele>739.25</ele><time>2026-04-19T11:24:19.975Z</time></trkpt><trkpt lat="44.32134" lon="10.1044317"><ele>740.5</ele><time>2026-04-19T11:24:20.975Z</time></trkpt><trkpt lat="44.3212133" lon="10.104465"><ele>741.75</ele><time>2026-04-19T11:24:21.975Z</time></trkpt><trkpt lat="44.32111" lon="10.1045267"><ele>743.0</ele><time>2026-04-19T11:24:22.975Z</time></trkpt><trkpt lat="44.3210167" lon="10.1045667"><ele>743.0</ele><time>2026-04-19T11:24:23.975Z</time></trkpt><trkpt lat="44.3209133" lon="10.1045717"><ele>743.0</ele><time>2026-04-19T11:24:24.975Z</time></trkpt><trkpt lat="44.3207983" lon="10.1045533"><ele>743.0</ele><time>2026-04-19T11:24:25.975Z</time></trkpt><trkpt lat="44.320665" lon="10.104515"><ele>743.0</ele><time>2026-04-19T11:24:26.975Z</time></trkpt><trkpt lat="44.3205467" lon="10.1044867"><ele>750.2</ele><time>2026-04-19T11:24:27.975Z</time></trkpt><trkpt lat="44.3204583" lon="10.1044233"><ele>757.4</ele><time>2026-04-19T11:24:28.975Z</time></trkpt><trkpt lat="44.3204067" lon="10.104335"><ele>764.6</ele><time>2026-04-19T11:24:29.975Z</time></trkpt><trkpt lat="44.32038" lon="10.1042167"><ele>771.8000000000001</ele><time>2026-04-19T11:24:30.976Z</time></trkpt><trkpt lat="44.3203967" lon="10.104065"><ele>779.0</ele><time>2026-04-19T11:24:31.975Z</time></trkpt><trkpt lat="44.3204433" lon="10.1038933"><ele>779.0</ele><time>2026-04-19T11:24:32.975Z</time></trkpt><trkpt lat="44.3204867" lon="10.103715"><ele>779.0</ele><time>2026-04-19T11:24:33.975Z</time></trkpt><trkpt lat="44.3205217" lon="10.10353"><ele>779.0</ele><time>2026-04-19T11:24:34.975Z</time></trkpt><trkpt lat="44.32053" lon="10.10335"><ele>779.0</ele><time>2026-04-19T11:24:35.975Z</time></trkpt><trkpt lat="44.3205117" lon="10.1031567"><ele>773.75</ele><time>2026-04-19T11:24:36.975Z</time></trkpt><trkpt lat="44.3204617" lon="10.1029633"><ele>768.5</ele><time>2026-04-19T11:24:37.975Z</time></trkpt><trkpt lat="44.3203983" lon="10.1027733"><ele>763.25</ele><time>2026-04-19T11:24:38.975Z</time></trkpt><trkpt lat="44.3203267" lon="10.1025867"><ele>758.0</ele><time>2026-04-19T11:24:39.975Z</time></trkpt><trkpt lat="44.320255" lon="10.1024383"><ele>753.8</ele><time>2026-04-19T11:24:40.975Z</time></trkpt><trkpt lat="44.3201833" lon="10.1023233"><ele>749.5999999999999</ele><time>2026-04-19T11:24:41.976Z</time></trkpt><trkpt lat="44.3201217" lon="10.102235"><ele>745.4000000000001</ele><time>2026-04-19T11:24:42.975Z</time></trkpt><trkpt lat="44.3200717" lon="10.10215"><ele>741.2</ele><time>2026-04-19T11:24:43.975Z</time></trkpt><trkpt lat="44.3201017" lon="10.1020033"><ele>737.0</ele><time>2026-04-19T11:24:45.975Z</time></trkpt><trkpt lat="44.3202267" lon="10.1020383"><ele>737.0</ele><time>2026-04-19T11:24:47.975Z</time></trkpt><trkpt lat="44.3202767" lon="10.1021533"><ele>737.0</ele><time>2026-04-19T11:24:48.975Z</time></trkpt><trkpt lat="44.3203183" lon="10.10232"><ele>737.0</ele><time>2026-04-19T11:24:49.975Z</time></trkpt><trkpt lat="44.3203867" lon="10.1025317"><ele>737.0</ele><time>2026-04-19T11:24:50.975Z</time></trkpt><trkpt lat="44.3204767" lon="10.1027367"><ele>735.75</ele><time>2026-04-19T11:24:51.975Z</time></trkpt><trkpt lat="44.3205717" lon="10.102895"><ele>734.5</ele><time>2026-04-19T11:24:52.975Z</time></trkpt><trkpt lat="44.3206567" lon="10.1030267"><ele>733.25</ele><time>2026-04-19T11:24:53.975Z</time></trkpt><trkpt lat="44.320735" lon="10.1031667"><ele>732.0</ele><time>2026-04-19T11:24:54.975Z</time></trkpt><trkpt lat="44.3207733" lon="10.10331"><ele>732.0</ele><time>2026-04-19T11:24:55.975Z</time></trkpt><trkpt lat="44.3207817" lon="10.10347"><ele>732.0</ele><time>2026-04-19T11:24:56.975Z</time></trkpt><trkpt lat="44.3207717" lon="10.10362"><ele>732.0</ele><time>2026-04-19T11:24:57.975Z</time></trkpt><trkpt lat="44.32077" lon="10.1037567"><ele>732.0</ele><time>2026-04-19T11:24:58.975Z</time></trkpt><trkpt lat="44.32079" lon="10.1038633"><ele>732.0</ele><time>2026-04-19T11:24:59.975Z</time></trkpt><trkpt lat="44.3208433" lon="10.1039483"><ele>732.0</ele><time>2026-04-19T11:25:00.975Z</time></trkpt><trkpt lat="44.3209267" lon="10.1039933"><ele>732.0</ele><time>2026-04-19T11:25:01.975Z</time></trkpt><trkpt lat="44.3210367" lon="10.104005"><ele>732.0</ele><time>2026-04-19T11:25:02.975Z</time></trkpt><trkpt lat="44.3211767" lon="10.1039517"><ele>732.0</ele><time>2026-04-19T11:25:03.975Z</time></trkpt><trkpt lat="44.32133" lon="10.1038033"><ele>723.6666666666666</ele><time>2026-04-19T11:25:04.975Z</time></trkpt><trkpt lat="44.3215067" lon="10.1036517"><ele>715.3333333333333</ele><time>2026-04-19T11:25:05.975Z</time></trkpt><trkpt lat="44.32169" lon="10.1035217"><ele>707.0</ele><time>2026-04-19T11:25:06.975Z</time></trkpt><trkpt lat="44.3218583" lon="10.1034417"><ele>707.0</ele><time>2026-04-19T11:25:07.975Z</time></trkpt><trkpt lat="44.32201" lon="10.1033817"><ele>707.0</ele><time>2026-04-19T11:25:08.975Z</time></trkpt><trkpt lat="44.32215" lon="10.1033483"><ele>707.0</ele><time>2026-04-19T11:25:09.975Z</time></trkpt><trkpt lat="44.3222833" lon="10.1033467"><ele>707.0</ele><time>2026-04-19T11:25:10.975Z</time></trkpt><trkpt lat="44.3224233" lon="10.10337"><ele>703.0</ele><time>2026-04-19T11:25:11.975Z</time></trkpt><trkpt lat="44.322565" lon="10.103455"><ele>699.0</ele><time>2026-04-19T11:25:12.975Z</time></trkpt><trkpt lat="44.3227033" lon="10.1036"><ele>695.0</ele><time>2026-04-19T11:25:13.975Z</time></trkpt><trkpt lat="44.32284" lon="10.103755"><ele>695.0</ele><time>2026-04-19T11:25:14.975Z</time></trkpt><trkpt lat="44.3229933" lon="10.1039133"><ele>695.0</ele><time>2026-04-19T11:25:15.975Z</time></trkpt><trkpt lat="44.32316" lon="10.1040817"><ele>695.0</ele><time>2026-04-19T11:25:16.975Z</time></trkpt><trkpt lat="44.3233183" lon="10.1042367"><ele>693.6666666666666</ele><time>2026-04-19T11:25:17.975Z</time></trkpt><trkpt lat="44.3234717" lon="10.10437"><ele>692.3333333333334</ele><time>2026-04-19T11:25:18.975Z</time></trkpt><trkpt lat="44.3236167" lon="10.104495"><ele>691.0</ele><time>2026-04-19T11:25:19.975Z</time></trkpt><trkpt lat="44.323755" lon="10.104605"><ele>691.0</ele><time>2026-04-19T11:25:20.975Z</time></trkpt><trkpt lat="44.3238933" lon="10.1046767"><ele>691.0</ele><time>2026-04-19T11:25:21.975Z</time></trkpt><trkpt lat="44.3240533" lon="10.1047267"><ele>691.0</ele><time>2026-04-19T11:25:22.975Z</time></trkpt><trkpt lat="44.3242217" lon="10.1047833"><ele>692.6666666666667</ele><time>2026-04-19T11:25:23.975Z</time></trkpt><trkpt lat="44.3243733" lon="10.104855"><ele>694.3333333333334</ele><time>2026-04-19T11:25:24.975Z</time></trkpt><trkpt lat="44.32453" lon="10.1049233"><ele>696.0</ele><time>2026-04-19T11:25:25.975Z</time></trkpt><trkpt lat="44.3246883" lon="10.104975"><ele>695.25</ele><time>2026-04-19T11:25:26.975Z</time></trkpt><trkpt lat="44.3248417" lon="10.1050017"><ele>694.5</ele><time>2026-04-19T11:25:27.976Z</time></trkpt><trkpt lat="44.3249833" lon="10.1050033"><ele>693.75</ele><time>2026-04-19T11:25:28.975Z</time></trkpt><trkpt lat="44.3251" lon="10.1049917"><ele>693.0</ele><time>2026-04-19T11:25:29.975Z</time></trkpt><trkpt lat="44.325205" lon="10.1049767"><ele>693.0</ele><time>2026-04-19T11:25:30.975Z</time></trkpt><trkpt lat="44.3253" lon="10.104925"><ele>693.0</ele><time>2026-04-19T11:25:31.975Z</time></trkpt><trkpt lat="44.325375" lon="10.10483"><ele>693.0</ele><time>2026-04-19T11:25:32.975Z</time></trkpt><trkpt lat="44.32543" lon="10.1047017"><ele>693.0</ele><time>2026-04-19T11:25:33.975Z</time></trkpt><trkpt lat="44.3254683" lon="10.10456"><ele>693.0</ele><time>2026-04-19T11:25:34.975Z</time></trkpt><trkpt lat="44.325505" lon="10.1044417"><ele>691.6666666666666</ele><time>2026-04-19T11:25:35.975Z</time></trkpt><trkpt lat="44.3255483" lon="10.1043317"><ele>690.3333333333334</ele><time>2026-04-19T11:25:36.975Z</time></trkpt><trkpt lat="44.3255917" lon="10.1042233"><ele>689.0</ele><time>2026-04-19T11:25:37.975Z</time></trkpt><trkpt lat="44.3256417" lon="10.1041067"><ele>687.6666666666667</ele><time>2026-04-19T11:25:38.975Z</time></trkpt><trkpt lat="44.3256833" lon="10.1039867"><ele>686.3333333333334</ele><time>2026-04-19T11:25:39.975Z</time></trkpt><trkpt lat="44.3257" lon="10.1038833"><ele>685.0</ele><time>2026-04-19T11:25:40.975Z</time></trkpt><trkpt lat="44.3257" lon="10.1037683"><ele>682.75</ele><time>2026-04-19T11:25:41.975Z</time></trkpt><trkpt lat="44.32568" lon="10.1036367"><ele>680.5</ele><time>2026-04-19T11:25:42.975Z</time></trkpt><trkpt lat="44.3256233" lon="10.1034867"><ele>678.25</ele><time>2026-04-19T11:25:43.975Z</time></trkpt><trkpt lat="44.3255217" lon="10.1033517"><ele>676.0</ele><time>2026-04-19T11:25:44.975Z</time></trkpt><trkpt lat="44.32538" lon="10.1032417"><ele>688.6666666666667</ele><time>2026-04-19T11:25:45.976Z</time></trkpt><trkpt lat="44.3251967" lon="10.1031333"><ele>701.3333333333334</ele><time>2026-04-19T11:25:46.975Z</time></trkpt><trkpt lat="44.3250133" lon="10.1030033"><ele>714.0</ele><time>2026-04-19T11:25:47.975Z</time></trkpt><trkpt lat="44.3248517" lon="10.1029033"><ele>698.6666666666666</ele><time>2026-04-19T11:25:48.975Z</time></trkpt><trkpt lat="44.3247017" lon="10.1027967"><ele>683.3333333333333</ele><time>2026-04-19T11:25:49.976Z</time></trkpt><trkpt lat="44.3245633" lon="10.1026933"><ele>668.0</ele><time>2026-04-19T11:25:50.975Z</time></trkpt><trkpt lat="44.3244317" lon="10.102585"><ele>668.0</ele><time>2026-04-19T11:25:51.975Z</time></trkpt><trkpt lat="44.3243133" lon="10.1024533"><ele>668.0</ele><time>2026-04-19T11:25:52.975Z</time></trkpt><trkpt lat="44.3242033" lon="10.1022967"><ele>668.0</ele><time>2026-04-19T11:25:53.975Z</time></trkpt><trkpt lat="44.324105" lon="10.1021167"><ele>667.3333333333333</ele><time>2026-04-19T11:25:54.975Z</time></trkpt><trkpt lat="44.3240017" lon="10.1019383"><ele>666.6666666666666</ele><time>2026-04-19T11:25:55.975Z</time></trkpt><trkpt lat="44.323905" lon="10.1017617"><ele>666.0</ele><time>2026-04-19T11:25:56.975Z</time></trkpt><trkpt lat="44.32382" lon="10.1015683"><ele>666.0</ele><time>2026-04-19T11:25:57.975Z</time></trkpt><trkpt lat="44.32374" lon="10.1013633"><ele>666.0</ele><time>2026-04-19T11:25:58.975Z</time></trkpt><trkpt lat="44.32366" lon="10.1011667"><ele>666.0</ele><time>2026-04-19T11:25:59.975Z</time></trkpt><trkpt lat="44.3235767" lon="10.10099"><ele>666.0</ele><time>2026-04-19T11:26:00.975Z</time></trkpt><trkpt lat="44.3234867" lon="10.100855"><ele>666.0</ele><time>2026-04-19T11:26:01.975Z</time></trkpt><trkpt lat="44.3233833" lon="10.100745"><ele>666.0</ele><time>2026-04-19T11:26:02.975Z</time></trkpt><trkpt lat="44.32329" lon="10.100635"><ele>666.0</ele><time>2026-04-19T11:26:03.975Z</time></trkpt><trkpt lat="44.323215" lon="10.1004983"><ele>668.5</ele><time>2026-04-19T11:26:04.975Z</time></trkpt><trkpt lat="44.3231517" lon="10.1003517"><ele>671.0</ele><time>2026-04-19T11:26:05.975Z</time></trkpt><trkpt lat="44.3231183" lon="10.1001883"><ele>673.5</ele><time>2026-04-19T11:26:06.975Z</time></trkpt><trkpt lat="44.323125" lon="10.10002"><ele>676.0</ele><time>2026-04-19T11:26:07.975Z</time></trkpt><trkpt lat="44.323115" lon="10.0998717"><ele>678.75</ele><time>2026-04-19T11:26:08.975Z</time></trkpt><trkpt lat="44.3230733" lon="10.099715"><ele>681.5</ele><time>2026-04-19T11:26:09.975Z</time></trkpt><trkpt lat="44.32301" lon="10.09954"><ele>684.25</ele><time>2026-04-19T11:26:10.975Z</time></trkpt><trkpt lat="44.3229183" lon="10.09936"><ele>687.0</ele><time>2026-04-19T11:26:11.975Z</time></trkpt><trkpt lat="44.3228417" lon="10.099175"><ele>669.6666666666666</ele><time>2026-04-19T11:26:12.975Z</time></trkpt><trkpt lat="44.32278" lon="10.0989717"><ele>652.3333333333333</ele><time>2026-04-19T11:26:13.975Z</time></trkpt><trkpt lat="44.3227367" lon="10.0987633"><ele>635.0</ele><time>2026-04-19T11:26:14.975Z</time></trkpt><trkpt lat="44.322705" lon="10.098565"><ele>635.0</ele><time>2026-04-19T11:26:15.975Z</time></trkpt><trkpt lat="44.322685" lon="10.098395"><ele>635.0</ele><time>2026-04-19T11:26:16.975Z</time></trkpt><trkpt lat="44.3226817" lon="10.0982467"><ele>635.0</ele><time>2026-04-19T11:26:17.975Z</time></trkpt><trkpt lat="44.3227183" lon="10.0981067"><ele>635.0</ele><time>2026-04-19T11:26:18.975Z</time></trkpt><trkpt lat="44.32277" lon="10.097975"><ele>635.0</ele><time>2026-04-19T11:26:19.975Z</time></trkpt><trkpt lat="44.322815" lon="10.0978467"><ele>635.8</ele><time>2026-04-19T11:26:20.975Z</time></trkpt><trkpt lat="44.3228433" lon="10.0977167"><ele>636.6</ele><time>2026-04-19T11:26:21.975Z</time></trkpt><trkpt lat="44.3228317" lon="10.097585"><ele>637.4</ele><time>2026-04-19T11:26:22.975Z</time></trkpt><trkpt lat="44.3227567" lon="10.0974783"><ele>638.2</ele><time>2026-04-19T11:26:23.975Z</time></trkpt><trkpt lat="44.3226567" lon="10.0973583"><ele>639.0</ele><time>2026-04-19T11:26:24.975Z</time></trkpt><trkpt lat="44.32253" lon="10.0972183"><ele>645.6666666666666</ele><time>2026-04-19T11:26:25.975Z</time></trkpt><trkpt lat="44.322395" lon="10.0970283"><ele>652.3333333333333</ele><time>2026-04-19T11:26:26.975Z</time></trkpt><trkpt lat="44.32226" lon="10.0968"><ele>659.0</ele><time>2026-04-19T11:26:27.975Z</time></trkpt><trkpt lat="44.3221233" lon="10.09659"><ele>655.3333333333333</ele><time>2026-04-19T11:26:28.975Z</time></trkpt><trkpt lat="44.321995" lon="10.0963933"><ele>651.6666666666666</ele><time>2026-04-19T11:26:29.975Z</time></trkpt><trkpt lat="44.3218367" lon="10.0962283"><ele>648.0</ele><time>2026-04-19T11:26:30.975Z</time></trkpt><trkpt lat="44.321685" lon="10.09609"><ele>648.0</ele><time>2026-04-19T11:26:31.975Z</time></trkpt><trkpt lat="44.3215367" lon="10.0959783"><ele>648.0</ele><time>2026-04-19T11:26:32.975Z</time></trkpt><trkpt lat="44.321415" lon="10.0958667"><ele>648.0</ele><time>2026-04-19T11:26:33.975Z</time></trkpt><trkpt lat="44.321305" lon="10.09576"><ele>648.0</ele><time>2026-04-19T11:26:34.975Z</time></trkpt><trkpt lat="44.3212183" lon="10.0956533"><ele>643.1999999999999</ele><time>2026-04-19T11:26:35.975Z</time></trkpt><trkpt lat="44.3211633" lon="10.0954983"><ele>638.4</ele><time>2026-04-19T11:26:36.975Z</time></trkpt><trkpt lat="44.321135" lon="10.0953317"><ele>633.5999999999999</ele><time>2026-04-19T11:26:37.975Z</time></trkpt><trkpt lat="44.3211117" lon="10.09519"><ele>628.8</ele><time>2026-04-19T11:26:38.975Z</time></trkpt><trkpt lat="44.32107" lon="10.095075"><ele>624.0</ele><time>2026-04-19T11:26:39.975Z</time></trkpt><trkpt lat="44.320985" lon="10.0950017"><ele>624.0</ele><time>2026-04-19T11:26:40.975Z</time></trkpt><trkpt lat="44.32088" lon="10.0949517"><ele>624.0</ele><time>2026-04-19T11:26:41.975Z</time></trkpt><trkpt lat="44.3207717" lon="10.0949283"><ele>624.0</ele><time>2026-04-19T11:26:42.975Z</time></trkpt><trkpt lat="44.32063" lon="10.0949283"><ele>624.0</ele><time>2026-04-19T11:26:43.975Z</time></trkpt><trkpt lat="44.3204733" lon="10.09492"><ele>618.75</ele><time>2026-04-19T11:26:44.975Z</time></trkpt><trkpt lat="44.32033" lon="10.09487"><ele>613.5</ele><time>2026-04-19T11:26:45.975Z</time></trkpt><trkpt lat="44.3202" lon="10.0947767"><ele>608.25</ele><time>2026-04-19T11:26:46.975Z</time></trkpt><trkpt lat="44.320095" lon="10.09464"><ele>603.0</ele><time>2026-04-19T11:26:47.975Z</time></trkpt><trkpt lat="44.3200117" lon="10.09449"><ele>603.0</ele><time>2026-04-19T11:26:48.975Z</time></trkpt><trkpt lat="44.3199517" lon="10.0943283"><ele>603.0</ele><time>2026-04-19T11:26:49.975Z</time></trkpt><trkpt lat="44.319945" lon="10.0941067"><ele>603.0</ele><time>2026-04-19T11:26:50.976Z</time></trkpt><trkpt lat="44.3199383" lon="10.09387"><ele>606.6666666666666</ele><time>2026-04-19T11:26:51.975Z</time></trkpt><trkpt lat="44.3199283" lon="10.09363"><ele>610.3333333333333</ele><time>2026-04-19T11:26:52.975Z</time></trkpt><trkpt lat="44.3199233" lon="10.0934"><ele>614.0</ele><time>2026-04-19T11:26:53.975Z</time></trkpt><trkpt lat="44.319905" lon="10.0931817"><ele>614.25</ele><time>2026-04-19T11:26:54.975Z</time></trkpt><trkpt lat="44.319875" lon="10.09297"><ele>614.5</ele><time>2026-04-19T11:26:55.975Z</time></trkpt><trkpt lat="44.319845" lon="10.0927717"><ele>614.75</ele><time>2026-04-19T11:26:56.975Z</time></trkpt><trkpt lat="44.3198133" lon="10.0925883"><ele>615.0</ele><time>2026-04-19T11:26:57.975Z</time></trkpt><trkpt lat="44.3197967" lon="10.0923917"><ele>615.5</ele><time>2026-04-19T11:26:58.975Z</time></trkpt><trkpt lat="44.3198133" lon="10.0922167"><ele>616.0</ele><time>2026-04-19T11:26:59.975Z</time></trkpt><trkpt lat="44.31985" lon="10.0920617"><ele>616.5</ele><time>2026-04-19T11:27:00.975Z</time></trkpt><trkpt lat="44.3199117" lon="10.0919167"><ele>617.0</ele><time>2026-04-19T11:27:01.975Z</time></trkpt><trkpt lat="44.3199783" lon="10.09179"><ele>617.0</ele><time>2026-04-19T11:27:02.975Z</time></trkpt><trkpt lat="44.3200133" lon="10.0916883"><ele>617.0</ele><time>2026-04-19T11:27:03.975Z</time></trkpt><trkpt lat="44.3200167" lon="10.0915933"><ele>617.0</ele><time>2026-04-19T11:27:04.975Z</time></trkpt><trkpt lat="44.3199917" lon="10.09151"><ele>617.0</ele><time>2026-04-19T11:27:05.975Z</time></trkpt><trkpt lat="44.319925" lon="10.0914767"><ele>617.0</ele><time>2026-04-19T11:27:06.975Z</time></trkpt><trkpt lat="44.3198067" lon="10.0914883"><ele>617.0</ele><time>2026-04-19T11:27:07.975Z</time></trkpt><trkpt lat="44.31966" lon="10.0915417"><ele>609.3333333333333</ele><time>2026-04-19T11:27:08.975Z</time></trkpt><trkpt lat="44.3194733" lon="10.0916433"><ele>601.6666666666666</ele><time>2026-04-19T11:27:09.975Z</time></trkpt><trkpt lat="44.3193117" lon="10.0916667"><ele>594.0</ele><time>2026-04-19T11:27:10.975Z</time></trkpt><trkpt lat="44.3191583" lon="10.0916667"><ele>594.0</ele><time>2026-04-19T11:27:11.975Z</time></trkpt><trkpt lat="44.3190183" lon="10.0916333"><ele>594.0</ele><time>2026-04-19T11:27:12.975Z</time></trkpt><trkpt lat="44.3189033" lon="10.0915817"><ele>594.0</ele><time>2026-04-19T11:27:13.975Z</time></trkpt><trkpt lat="44.3187867" lon="10.091515"><ele>594.0</ele><time>2026-04-19T11:27:14.975Z</time></trkpt><trkpt lat="44.318665" lon="10.0914933"><ele>598.75</ele><time>2026-04-19T11:27:15.975Z</time></trkpt><trkpt lat="44.3185217" lon="10.0914767"><ele>603.5</ele><time>2026-04-19T11:27:16.975Z</time></trkpt><trkpt lat="44.31838" lon="10.091435"><ele>608.25</ele><time>2026-04-19T11:27:17.975Z</time></trkpt><trkpt lat="44.3182417" lon="10.0913983"><ele>613.0</ele><time>2026-04-19T11:27:18.975Z</time></trkpt><trkpt lat="44.3181133" lon="10.0913217"><ele>603.0</ele><time>2026-04-19T11:27:19.975Z</time></trkpt><trkpt lat="44.3180017" lon="10.0912267"><ele>593.0</ele><time>2026-04-19T11:27:20.975Z</time></trkpt><trkpt lat="44.3178867" lon="10.09109"><ele>583.0</ele><time>2026-04-19T11:27:21.975Z</time></trkpt><trkpt lat="44.3177567" lon="10.0909133"><ele>598.3333333333334</ele><time>2026-04-19T11:27:22.976Z</time></trkpt><trkpt lat="44.3176317" lon="10.0907283"><ele>613.6666666666666</ele><time>2026-04-19T11:27:23.975Z</time></trkpt><trkpt lat="44.317505" lon="10.0906017"><ele>629.0</ele><time>2026-04-19T11:27:24.975Z</time></trkpt><trkpt lat="44.3173783" lon="10.0905"><ele>629.0</ele><time>2026-04-19T11:27:25.975Z</time></trkpt><trkpt lat="44.31725" lon="10.0904133"><ele>629.0</ele><time>2026-04-19T11:27:26.975Z</time></trkpt><trkpt lat="44.3171067" lon="10.09037"><ele>629.0</ele><time>2026-04-19T11:27:27.975Z</time></trkpt><trkpt lat="44.31695" lon="10.0903517"><ele>629.0</ele><time>2026-04-19T11:27:28.975Z</time></trkpt><trkpt lat="44.3167917" lon="10.0903383"><ele>620.6666666666666</ele><time>2026-04-19T11:27:29.975Z</time></trkpt><trkpt lat="44.3166317" lon="10.09033"><ele>612.3333333333334</ele><time>2026-04-19T11:27:30.975Z</time></trkpt><trkpt lat="44.316475" lon="10.090325"><ele>604.0</ele><time>2026-04-19T11:27:31.975Z</time></trkpt><trkpt lat="44.316315" lon="10.090315"><ele>595.0</ele><time>2026-04-19T11:27:32.975Z</time></trkpt><trkpt lat="44.3161667" lon="10.090265"><ele>586.0</ele><time>2026-04-19T11:27:33.975Z</time></trkpt><trkpt lat="44.3160167" lon="10.0901717"><ele>577.0</ele><time>2026-04-19T11:27:34.975Z</time></trkpt><trkpt lat="44.3158583" lon="10.0900817"><ele>577.0</ele><time>2026-04-19T11:27:35.975Z</time></trkpt><trkpt lat="44.3157133" lon="10.089995"><ele>577.0</ele><time>2026-04-19T11:27:36.975Z</time></trkpt><trkpt lat="44.315575" lon="10.089945"><ele>577.0</ele><time>2026-04-19T11:27:37.975Z</time></trkpt><trkpt lat="44.3154467" lon="10.0898917"><ele>577.0</ele><time>2026-04-19T11:27:38.975Z</time></trkpt><trkpt lat="44.31531" lon="10.0898667"><ele>581.3333333333334</ele><time>2026-04-19T11:27:39.975Z</time></trkpt><trkpt lat="44.3151633" lon="10.0898417"><ele>585.6666666666666</ele><time>2026-04-19T11:27:40.975Z</time></trkpt><trkpt lat="44.3150167" lon="10.0897583"><ele>590.0</ele><time>2026-04-19T11:27:41.975Z</time></trkpt><trkpt lat="44.314865" lon="10.0896583"><ele>580.6666666666666</ele><time>2026-04-19T11:27:42.975Z</time></trkpt><trkpt lat="44.3147183" lon="10.0895283"><ele>571.3333333333334</ele><time>2026-04-19T11:27:43.975Z</time></trkpt><trkpt lat="44.3145667" lon="10.0894167"><ele>562.0</ele><time>2026-04-19T11:27:44.975Z</time></trkpt><trkpt lat="44.3144017" lon="10.089335"><ele>562.0</ele><time>2026-04-19T11:27:45.975Z</time></trkpt><trkpt lat="44.3142383" lon="10.0892633"><ele>562.0</ele><time>2026-04-19T11:27:46.975Z</time></trkpt><trkpt lat="44.3140817" lon="10.08921"><ele>562.0</ele><time>2026-04-19T11:27:47.975Z</time></trkpt><trkpt lat="44.3139383" lon="10.089175"><ele>555.0</ele><time>2026-04-19T11:27:48.975Z</time></trkpt><trkpt lat="44.3138033" lon="10.089135"><ele>548.0</ele><time>2026-04-19T11:27:49.975Z</time></trkpt><trkpt lat="44.313685" lon="10.089095"><ele>541.0</ele><time>2026-04-19T11:27:50.975Z</time></trkpt><trkpt lat="44.3135783" lon="10.0890333"><ele>534.0</ele><time>2026-04-19T11:27:51.975Z</time></trkpt><trkpt lat="44.3134967" lon="10.0889317"><ele>534.0</ele><time>2026-04-19T11:27:52.975Z</time></trkpt><trkpt lat="44.313445" lon="10.0888067"><ele>534.0</ele><time>2026-04-19T11:27:53.975Z</time></trkpt><trkpt lat="44.3134617" lon="10.0886333"><ele>534.0</ele><time>2026-04-19T11:27:54.975Z</time></trkpt><trkpt lat="44.31353" lon="10.0884467"><ele>534.0</ele><time>2026-04-19T11:27:55.975Z</time></trkpt><trkpt lat="44.3135983" lon="10.0882483"><ele>535.3333333333334</ele><time>2026-04-19T11:27:56.975Z</time></trkpt><trkpt lat="44.3136483" lon="10.0880433"><ele>536.6666666666667</ele><time>2026-04-19T11:27:57.975Z</time></trkpt><trkpt lat="44.313665" lon="10.0878333"><ele>538.0</ele><time>2026-04-19T11:27:58.975Z</time></trkpt><trkpt lat="44.313665" lon="10.087605"><ele>542.0</ele><time>2026-04-19T11:27:59.975Z</time></trkpt><trkpt lat="44.3136567" lon="10.0874033"><ele>546.0</ele><time>2026-04-19T11:28:00.975Z</time></trkpt><trkpt lat="44.313645" lon="10.0872067"><ele>550.0</ele><time>2026-04-19T11:28:01.975Z</time></trkpt><trkpt lat="44.3136283" lon="10.08705"><ele>554.0</ele><time>2026-04-19T11:28:02.975Z</time></trkpt><trkpt lat="44.3135667" lon="10.0869233"><ele>554.0</ele><time>2026-04-19T11:28:03.975Z</time></trkpt><trkpt lat="44.313465" lon="10.0868217"><ele>554.0</ele><time>2026-04-19T11:28:04.975Z</time></trkpt><trkpt lat="44.3133333" lon="10.08679"><ele>554.0</ele><time>2026-04-19T11:28:05.975Z</time></trkpt><trkpt lat="44.3131717" lon="10.08681"><ele>554.0</ele><time>2026-04-19T11:28:06.975Z</time></trkpt><trkpt lat="44.313" lon="10.08687"><ele>553.3333333333333</ele><time>2026-04-19T11:28:07.975Z</time></trkpt><trkpt lat="44.3128267" lon="10.0869333"><ele>552.6666666666666</ele><time>2026-04-19T11:28:08.975Z</time></trkpt><trkpt lat="44.3126517" lon="10.087035"><ele>552.0</ele><time>2026-04-19T11:28:09.975Z</time></trkpt><trkpt lat="44.3124733" lon="10.0871667"><ele>552.0</ele><time>2026-04-19T11:28:10.975Z</time></trkpt><trkpt lat="44.31232" lon="10.087285"><ele>552.0</ele><time>2026-04-19T11:28:11.975Z</time></trkpt><trkpt lat="44.3121617" lon="10.0873833"><ele>552.0</ele><time>2026-04-19T11:28:12.975Z</time></trkpt><trkpt lat="44.3120017" lon="10.087475"><ele>543.3333333333334</ele><time>2026-04-19T11:28:13.975Z</time></trkpt><trkpt lat="44.3118417" lon="10.0875183"><ele>534.6666666666667</ele><time>2026-04-19T11:28:14.975Z</time></trkpt><trkpt lat="44.3116833" lon="10.08751"><ele>526.0</ele><time>2026-04-19T11:28:15.975Z</time></trkpt><trkpt lat="44.3115217" lon="10.0874433"><ele>525.0</ele><time>2026-04-19T11:28:16.976Z</time></trkpt><trkpt lat="44.3113483" lon="10.087345"><ele>524.0</ele><time>2026-04-19T11:28:17.975Z</time></trkpt><trkpt lat="44.3111717" lon="10.087255"><ele>523.0</ele><time>2026-04-19T11:28:18.975Z</time></trkpt><trkpt lat="44.311005" lon="10.0871533"><ele>523.0</ele><time>2026-04-19T11:28:19.975Z</time></trkpt><trkpt lat="44.3108483" lon="10.0870433"><ele>523.0</ele><time>2026-04-19T11:28:20.975Z</time></trkpt><trkpt lat="44.3107" lon="10.086915"><ele>523.0</ele><time>2026-04-19T11:28:21.975Z</time></trkpt><trkpt lat="44.3105767" lon="10.0867783"><ele>516.3333333333334</ele><time>2026-04-19T11:28:22.975Z</time></trkpt><trkpt lat="44.3104717" lon="10.0866217"><ele>509.66666666666663</ele><time>2026-04-19T11:28:23.975Z</time></trkpt><trkpt lat="44.3103967" lon="10.0864333"><ele>503.0</ele><time>2026-04-19T11:28:24.975Z</time></trkpt><trkpt lat="44.3103517" lon="10.0862383"><ele>503.0</ele><time>2026-04-19T11:28:25.975Z</time></trkpt><trkpt lat="44.3103483" lon="10.0860583"><ele>503.0</ele><time>2026-04-19T11:28:26.975Z</time></trkpt><trkpt lat="44.3103867" lon="10.0859"><ele>503.0</ele><time>2026-04-19T11:28:27.975Z</time></trkpt><trkpt lat="44.3104267" lon="10.0857467"><ele>503.0</ele><time>2026-04-19T11:28:28.975Z</time></trkpt><trkpt lat="44.3104467" lon="10.0855983"><ele>503.4</ele><time>2026-04-19T11:28:29.975Z</time></trkpt><trkpt lat="44.310425" lon="10.0854717"><ele>503.79999999999995</ele><time>2026-04-19T11:28:30.975Z</time></trkpt><trkpt lat="44.310355" lon="10.0854"><ele>504.2</ele><time>2026-04-19T11:28:31.975Z</time></trkpt><trkpt lat="44.3102633" lon="10.085395"><ele>504.6</ele><time>2026-04-19T11:28:32.975Z</time></trkpt><trkpt lat="44.3101733" lon="10.085435"><ele>505.0</ele><time>2026-04-19T11:28:33.975Z</time></trkpt><trkpt lat="44.3101067" lon="10.08553"><ele>505.0</ele><time>2026-04-19T11:28:34.975Z</time></trkpt><trkpt lat="44.31007" lon="10.0856883"><ele>505.0</ele><time>2026-04-19T11:28:35.975Z</time></trkpt><trkpt lat="44.310055" lon="10.08589"><ele>505.0</ele><time>2026-04-19T11:28:36.975Z</time></trkpt><trkpt lat="44.3100533" lon="10.08611"><ele>505.0</ele><time>2026-04-19T11:28:37.975Z</time></trkpt><trkpt lat="44.3100733" lon="10.0863233"><ele>504.5</ele><time>2026-04-19T11:28:38.975Z</time></trkpt><trkpt lat="44.3101183" lon="10.0865083"><ele>504.0</ele><time>2026-04-19T11:28:39.975Z</time></trkpt><trkpt lat="44.3101817" lon="10.08667"><ele>503.5</ele><time>2026-04-19T11:28:40.975Z</time></trkpt><trkpt lat="44.31025" lon="10.0867983"><ele>503.0</ele><time>2026-04-19T11:28:41.975Z</time></trkpt><trkpt lat="44.3103133" lon="10.086905"><ele>502.59999999999997</ele><time>2026-04-19T11:28:42.975Z</time></trkpt><trkpt lat="44.31035" lon="10.08701"><ele>502.19999999999993</ele><time>2026-04-19T11:28:43.975Z</time></trkpt><trkpt lat="44.31034" lon="10.0871783"><ele>501.8</ele><time>2026-04-19T11:28:45.975Z</time></trkpt><trkpt lat="44.3102683" lon="10.0872383"><ele>501.4</ele><time>2026-04-19T11:28:46.975Z</time></trkpt><trkpt lat="44.310175" lon="10.0872583"><ele>501.0</ele><time>2026-04-19T11:28:47.975Z</time></trkpt><trkpt lat="44.3100933" lon="10.0872033"><ele>501.0</ele><time>2026-04-19T11:28:48.975Z</time></trkpt><trkpt lat="44.31002" lon="10.087105"><ele>501.0</ele><time>2026-04-19T11:28:49.975Z</time></trkpt><trkpt lat="44.3100083" lon="10.08696"><ele>501.0</ele><time>2026-04-19T11:28:50.975Z</time></trkpt><trkpt lat="44.3100117" lon="10.08678"><ele>501.0</ele><time>2026-04-19T11:28:51.975Z</time></trkpt><trkpt lat="44.3099933" lon="10.0865767"><ele>501.66666666666663</ele><time>2026-04-19T11:28:52.975Z</time></trkpt><trkpt lat="44.30993" lon="10.086375"><ele>502.3333333333333</ele><time>2026-04-19T11:28:53.975Z</time></trkpt><trkpt lat="44.309835" lon="10.0861783"><ele>503.0</ele><time>2026-04-19T11:28:54.975Z</time></trkpt><trkpt lat="44.309705" lon="10.0859767"><ele>499.0</ele><time>2026-04-19T11:28:55.975Z</time></trkpt><trkpt lat="44.3095667" lon="10.0857783"><ele>495.0</ele><time>2026-04-19T11:28:56.975Z</time></trkpt><trkpt lat="44.309445" lon="10.0856067"><ele>491.0</ele><time>2026-04-19T11:28:57.975Z</time></trkpt><trkpt lat="44.3093183" lon="10.0854517"><ele>491.0</ele><time>2026-04-19T11:28:58.975Z</time></trkpt><trkpt lat="44.3091933" lon="10.0853083"><ele>491.0</ele><time>2026-04-19T11:28:59.975Z</time></trkpt><trkpt lat="44.3090767" lon="10.0851717"><ele>491.0</ele><time>2026-04-19T11:29:00.975Z</time></trkpt><trkpt lat="44.3089617" lon="10.085045"><ele>486.0</ele><time>2026-04-19T11:29:01.975Z</time></trkpt><trkpt lat="44.3088567" lon="10.0849017"><ele>481.0</ele><time>2026-04-19T11:29:02.975Z</time></trkpt><trkpt lat="44.3087717" lon="10.0847317"><ele>476.0</ele><time>2026-04-19T11:29:03.975Z</time></trkpt><trkpt lat="44.3087117" lon="10.0845117"><ele>476.0</ele><time>2026-04-19T11:29:04.975Z</time></trkpt><trkpt lat="44.308645" lon="10.0842567"><ele>476.0</ele><time>2026-04-19T11:29:05.975Z</time></trkpt><trkpt lat="44.3085767" lon="10.0839683"><ele>476.0</ele><time>2026-04-19T11:29:06.975Z</time></trkpt><trkpt lat="44.3084883" lon="10.0836667"><ele>477.0</ele><time>2026-04-19T11:29:07.976Z</time></trkpt><trkpt lat="44.30839" lon="10.083345"><ele>478.0</ele><time>2026-04-19T11:29:08.975Z</time></trkpt><trkpt lat="44.3082917" lon="10.0830233"><ele>478.5</ele><time>2026-04-19T11:29:09.975Z</time></trkpt><trkpt lat="44.3082017" lon="10.08272"><ele>479.0</ele><time>2026-04-19T11:29:10.975Z</time></trkpt><trkpt lat="44.3081267" lon="10.0824367"><ele>473.3333333333333</ele><time>2026-04-19T11:29:11.975Z</time></trkpt><trkpt lat="44.3080617" lon="10.0821533"><ele>467.66666666666663</ele><time>2026-04-19T11:29:12.975Z</time></trkpt><trkpt lat="44.308005" lon="10.0819017"><ele>462.0</ele><time>2026-04-19T11:29:13.975Z</time></trkpt><trkpt lat="44.307955" lon="10.081675"><ele>462.25</ele><time>2026-04-19T11:29:14.975Z</time></trkpt><trkpt lat="44.3079017" lon="10.0814733"><ele>462.5</ele><time>2026-04-19T11:29:15.975Z</time></trkpt><trkpt lat="44.3078517" lon="10.081295"><ele>462.75</ele><time>2026-04-19T11:29:16.975Z</time></trkpt><trkpt lat="44.3077983" lon="10.0811433"><ele>463.0</ele><time>2026-04-19T11:29:17.975Z</time></trkpt><trkpt lat="44.3077217" lon="10.081015"><ele>463.0</ele><time>2026-04-19T11:29:18.975Z</time></trkpt><trkpt lat="44.3076167" lon="10.0809183"><ele>463.0</ele><time>2026-04-19T11:29:19.975Z</time></trkpt><trkpt lat="44.30749" lon="10.0808767"><ele>463.0</ele><time>2026-04-19T11:29:20.975Z</time></trkpt><trkpt lat="44.307345" lon="10.0809033"><ele>463.0</ele><time>2026-04-19T11:29:21.975Z</time></trkpt><trkpt lat="44.3072083" lon="10.08098"><ele>459.0</ele><time>2026-04-19T11:29:22.975Z</time></trkpt><trkpt lat="44.3070967" lon="10.0810867"><ele>455.0</ele><time>2026-04-19T11:29:23.975Z</time></trkpt><trkpt lat="44.307015" lon="10.0812283"><ele>451.0</ele><time>2026-04-19T11:29:24.975Z</time></trkpt><trkpt lat="44.3069767" lon="10.081405"><ele>447.0</ele><time>2026-04-19T11:29:25.975Z</time></trkpt><trkpt lat="44.306975" lon="10.081605"><ele>444.75</ele><time>2026-04-19T11:29:26.975Z</time></trkpt><trkpt lat="44.307015" lon="10.0818033"><ele>442.5</ele><time>2026-04-19T11:29:27.975Z</time></trkpt><trkpt lat="44.3070867" lon="10.0819833"><ele>440.25</ele><time>2026-04-19T11:29:28.975Z</time></trkpt><trkpt lat="44.3071567" lon="10.0821183"><ele>438.0</ele><time>2026-04-19T11:29:29.975Z</time></trkpt><trkpt lat="44.3072133" lon="10.0822183"><ele>438.0</ele><time>2026-04-19T11:29:30.975Z</time></trkpt><trkpt lat="44.3072483" lon="10.0822983"><ele>437.99999999999994</ele><time>2026-04-19T11:29:31.975Z</time></trkpt><trkpt lat="44.307185" lon="10.082405"><ele>437.99999999999994</ele><time>2026-04-19T11:29:33.975Z</time></trkpt><trkpt lat="44.3070667" lon="10.0823517"><ele>438.0</ele><time>2026-04-19T11:29:35.975Z</time></trkpt><trkpt lat="44.3070067" lon="10.08217"><ele>438.0</ele><time>2026-04-19T11:29:36.975Z</time></trkpt><trkpt lat="44.3069433" lon="10.08197"><ele>438.0</ele><time>2026-04-19T11:29:37.975Z</time></trkpt><trkpt lat="44.30687" lon="10.081745"><ele>438.0</ele><time>2026-04-19T11:29:38.975Z</time></trkpt><trkpt lat="44.306795" lon="10.0815183"><ele>438.0</ele><time>2026-04-19T11:29:39.975Z</time></trkpt><trkpt lat="44.3066983" lon="10.0813017"><ele>435.33333333333337</ele><time>2026-04-19T11:29:40.975Z</time></trkpt><trkpt lat="44.3066033" lon="10.0810617"><ele>432.6666666666667</ele><time>2026-04-19T11:29:41.975Z</time></trkpt><trkpt lat="44.3064933" lon="10.0808317"><ele>430.0</ele><time>2026-04-19T11:29:42.975Z</time></trkpt><trkpt lat="44.30636" lon="10.0806217"><ele>430.0</ele><time>2026-04-19T11:29:43.975Z</time></trkpt><trkpt lat="44.3062267" lon="10.0804233"><ele>430.0</ele><time>2026-04-19T11:29:44.975Z</time></trkpt><trkpt lat="44.3061083" lon="10.0802583"><ele>430.0</ele><time>2026-04-19T11:29:45.975Z</time></trkpt><trkpt lat="44.3060167" lon="10.0801033"><ele>430.0</ele><time>2026-04-19T11:29:46.975Z</time></trkpt><trkpt lat="44.3059467" lon="10.0799583"><ele>430.0</ele><time>2026-04-19T11:29:47.975Z</time></trkpt><trkpt lat="44.3058967" lon="10.0798067"><ele>430.0</ele><time>2026-04-19T11:29:48.975Z</time></trkpt><trkpt lat="44.3058467" lon="10.0796817"><ele>430.0</ele><time>2026-04-19T11:29:49.976Z</time></trkpt><trkpt lat="44.3057783" lon="10.0796133"><ele>430.0</ele><time>2026-04-19T11:29:50.975Z</time></trkpt><trkpt lat="44.30569" lon="10.0796117"><ele>430.0</ele><time>2026-04-19T11:29:51.975Z</time></trkpt><trkpt lat="44.3056167" lon="10.0796767"><ele>430.0</ele><time>2026-04-19T11:29:52.975Z</time></trkpt><trkpt lat="44.3055717" lon="10.079785"><ele>430.0</ele><time>2026-04-19T11:29:53.975Z</time></trkpt><trkpt lat="44.3055817" lon="10.0799133"><ele>430.0</ele><time>2026-04-19T11:29:54.975Z</time></trkpt><trkpt lat="44.3056367" lon="10.0800383"><ele>430.0</ele><time>2026-04-19T11:29:55.975Z</time></trkpt><trkpt lat="44.3057283" lon="10.0801633"><ele>430.0</ele><time>2026-04-19T11:29:56.975Z</time></trkpt><trkpt lat="44.305845" lon="10.08028"><ele>430.0</ele><time>2026-04-19T11:29:57.975Z</time></trkpt><trkpt lat="44.3059467" lon="10.08038"><ele>430.0</ele><time>2026-04-19T11:29:58.975Z</time></trkpt><trkpt lat="44.3060267" lon="10.08047"><ele>430.0</ele><time>2026-04-19T11:29:59.975Z</time></trkpt><trkpt lat="44.3060817" lon="10.0805567"><ele>430.00000000000006</ele><time>2026-04-19T11:30:00.975Z</time></trkpt><trkpt lat="44.3061067" lon="10.0806467"><ele>430.0</ele><time>2026-04-19T11:30:01.975Z</time></trkpt><trkpt lat="44.3060983" lon="10.08074"><ele>430.0</ele><time>2026-04-19T11:30:02.975Z</time></trkpt><trkpt lat="44.3060283" lon="10.0807967"><ele>430.0</ele><time>2026-04-19T11:30:03.975Z</time></trkpt><trkpt lat="44.3059367" lon="10.0807767"><ele>430.00000000000006</ele><time>2026-04-19T11:30:04.975Z</time></trkpt><trkpt lat="44.3058317" lon="10.08069"><ele>430.0</ele><time>2026-04-19T11:30:05.975Z</time></trkpt><trkpt lat="44.3057233" lon="10.0805433"><ele>430.0</ele><time>2026-04-19T11:30:06.975Z</time></trkpt><trkpt lat="44.30562" lon="10.0803717"><ele>430.0</ele><time>2026-04-19T11:30:07.975Z</time></trkpt><trkpt lat="44.3055017" lon="10.0801917"><ele>430.0</ele><time>2026-04-19T11:30:08.975Z</time></trkpt><trkpt lat="44.3054" lon="10.08002"><ele>425.75</ele><time>2026-04-19T11:30:09.976Z</time></trkpt><trkpt lat="44.3053183" lon="10.07987"><ele>421.5</ele><time>2026-04-19T11:30:10.975Z</time></trkpt><trkpt lat="44.3052717" lon="10.0797167"><ele>417.25</ele><time>2026-04-19T11:30:11.975Z</time></trkpt><trkpt lat="44.3052667" lon="10.0795633"><ele>413.0</ele><time>2026-04-19T11:30:12.975Z</time></trkpt><trkpt lat="44.3052867" lon="10.079415"><ele>413.0</ele><time>2026-04-19T11:30:13.975Z</time></trkpt><trkpt lat="44.3053483" lon="10.0792867"><ele>413.0</ele><time>2026-04-19T11:30:14.975Z</time></trkpt><trkpt lat="44.30544" lon="10.0791833"><ele>413.0</ele><time>2026-04-19T11:30:15.975Z</time></trkpt><trkpt lat="44.305545" lon="10.07912"><ele>413.0</ele><time>2026-04-19T11:30:16.975Z</time></trkpt><trkpt lat="44.3056683" lon="10.07911"><ele>411.0</ele><time>2026-04-19T11:30:17.976Z</time></trkpt><trkpt lat="44.3058033" lon="10.0791117"><ele>409.0</ele><time>2026-04-19T11:30:18.975Z</time></trkpt><trkpt lat="44.305935" lon="10.0790617"><ele>407.0</ele><time>2026-04-19T11:30:19.975Z</time></trkpt><trkpt lat="44.306045" lon="10.078945"><ele>405.0</ele><time>2026-04-19T11:30:20.975Z</time></trkpt><trkpt lat="44.3061333" lon="10.078785"><ele>405.0</ele><time>2026-04-19T11:30:21.975Z</time></trkpt><trkpt lat="44.3062" lon="10.0786"><ele>405.0</ele><time>2026-04-19T11:30:22.975Z</time></trkpt><trkpt lat="44.3062567" lon="10.078415"><ele>405.0</ele><time>2026-04-19T11:30:23.975Z</time></trkpt><trkpt lat="44.3062967" lon="10.07822"><ele>405.0</ele><time>2026-04-19T11:30:24.975Z</time></trkpt><trkpt lat="44.3062917" lon="10.0780317"><ele>407.0</ele><time>2026-04-19T11:30:25.975Z</time></trkpt><trkpt lat="44.3062783" lon="10.0778517"><ele>409.0</ele><time>2026-04-19T11:30:26.975Z</time></trkpt><trkpt lat="44.3062467" lon="10.0777167"><ele>411.0</ele><time>2026-04-19T11:30:27.975Z</time></trkpt><trkpt lat="44.3062033" lon="10.0776017"><ele>413.0</ele><time>2026-04-19T11:30:28.975Z</time></trkpt><trkpt lat="44.3061333" lon="10.0775433"><ele>415.0</ele><time>2026-04-19T11:30:29.975Z</time></trkpt><trkpt lat="44.3060333" lon="10.07754"><ele>415.0</ele><time>2026-04-19T11:30:30.975Z</time></trkpt><trkpt lat="44.3059067" lon="10.0776017"><ele>415.0</ele><time>2026-04-19T11:30:31.975Z</time></trkpt><trkpt lat="44.305755" lon="10.07769"><ele>415.0</ele><time>2026-04-19T11:30:32.975Z</time></trkpt><trkpt lat="44.3055883" lon="10.0777467"><ele>418.33333333333337</ele><time>2026-04-19T11:30:33.975Z</time></trkpt><trkpt lat="44.3054117" lon="10.0777817"><ele>421.66666666666663</ele><time>2026-04-19T11:30:34.975Z</time></trkpt><trkpt lat="44.30521" lon="10.0777867"><ele>425.0</ele><time>2026-04-19T11:30:35.975Z</time></trkpt><trkpt lat="44.3050167" lon="10.0777783"><ele>425.0</ele><time>2026-04-19T11:30:36.975Z</time></trkpt><trkpt lat="44.3048367" lon="10.07774"><ele>425.0</ele><time>2026-04-19T11:30:37.975Z</time></trkpt><trkpt lat="44.3046783" lon="10.0776883"><ele>425.0</ele><time>2026-04-19T11:30:38.975Z</time></trkpt><trkpt lat="44.3045333" lon="10.0776417"><ele>423.75</ele><time>2026-04-19T11:30:39.975Z</time></trkpt><trkpt lat="44.3044083" lon="10.0775983"><ele>422.5</ele><time>2026-04-19T11:30:40.975Z</time></trkpt><trkpt lat="44.3042883" lon="10.0775517"><ele>421.25</ele><time>2026-04-19T11:30:41.975Z</time></trkpt><trkpt lat="44.3041833" lon="10.077475"><ele>420.0</ele><time>2026-04-19T11:30:42.975Z</time></trkpt><trkpt lat="44.3040833" lon="10.077375"><ele>419.0</ele><time>2026-04-19T11:30:43.975Z</time></trkpt><trkpt lat="44.303985" lon="10.0772767"><ele>418.0</ele><time>2026-04-19T11:30:44.975Z</time></trkpt><trkpt lat="44.3038883" lon="10.0771783"><ele>417.0</ele><time>2026-04-19T11:30:45.975Z</time></trkpt><trkpt lat="44.303805" lon="10.077085"><ele>416.0</ele><time>2026-04-19T11:30:46.975Z</time></trkpt><trkpt lat="44.3037217" lon="10.0769833"><ele>415.99999999999994</ele><time>2026-04-19T11:30:47.975Z</time></trkpt><trkpt lat="44.303645" lon="10.0768933"><ele>416.0</ele><time>2026-04-19T11:30:48.975Z</time></trkpt><trkpt lat="44.3035767" lon="10.0768183"><ele>416.0</ele><time>2026-04-19T11:30:49.975Z</time></trkpt><trkpt lat="44.30351" lon="10.07675"><ele>416.0</ele><time>2026-04-19T11:30:50.975Z</time></trkpt><trkpt lat="44.3034467" lon="10.07669"><ele>415.99999999999994</ele><time>2026-04-19T11:30:51.975Z</time></trkpt><trkpt lat="44.3033967" lon="10.0766217"><ele>416.0</ele><time>2026-04-19T11:30:52.975Z</time></trkpt><trkpt lat="44.3033417" lon="10.0765433"><ele>416.49999999999994</ele><time>2026-04-19T11:30:53.975Z</time></trkpt><trkpt lat="44.303285" lon="10.0764817"><ele>417.0</ele><time>2026-04-19T11:30:54.975Z</time></trkpt><trkpt lat="44.3032283" lon="10.0764167"><ele>417.5</ele><time>2026-04-19T11:30:55.975Z</time></trkpt><trkpt lat="44.303165" lon="10.0763533"><ele>418.0</ele><time>2026-04-19T11:30:56.975Z</time></trkpt><trkpt lat="44.3031083" lon="10.0762767"><ele>418.49999999999994</ele><time>2026-04-19T11:30:57.975Z</time></trkpt><trkpt lat="44.303035" lon="10.0761967"><ele>419.0</ele><time>2026-04-19T11:30:58.975Z</time></trkpt><trkpt lat="44.3029583" lon="10.07613"><ele>417.16666666666663</ele><time>2026-04-19T11:30:59.975Z</time></trkpt><trkpt lat="44.30289" lon="10.07607"><ele>415.3333333333333</ele><time>2026-04-19T11:31:00.975Z</time></trkpt><trkpt lat="44.3028317" lon="10.0760067"><ele>413.5</ele><time>2026-04-19T11:31:01.975Z</time></trkpt><trkpt lat="44.3027667" lon="10.0759483"><ele>411.66666666666663</ele><time>2026-04-19T11:31:02.975Z</time></trkpt><trkpt lat="44.30269" lon="10.0758967"><ele>409.8333333333333</ele><time>2026-04-19T11:31:03.975Z</time></trkpt><trkpt lat="44.302635" lon="10.075835"><ele>408.0</ele><time>2026-04-19T11:31:04.975Z</time></trkpt><trkpt lat="44.3025683" lon="10.0757733"><ele>407.6666666666667</ele><time>2026-04-19T11:31:05.975Z</time></trkpt><trkpt lat="44.302505" lon="10.0757083"><ele>407.33333333333337</ele><time>2026-04-19T11:31:06.975Z</time></trkpt><trkpt lat="44.30245" lon="10.075635"><ele>407.0</ele><time>2026-04-19T11:31:07.975Z</time></trkpt><trkpt lat="44.3023917" lon="10.07556"><ele>406.6666666666667</ele><time>2026-04-19T11:31:08.975Z</time></trkpt><trkpt lat="44.302325" lon="10.0754783"><ele>406.33333333333337</ele><time>2026-04-19T11:31:09.975Z</time></trkpt><trkpt lat="44.3022533" lon="10.0754067"><ele>406.0</ele><time>2026-04-19T11:31:10.975Z</time></trkpt><trkpt lat="44.30218" lon="10.0753317"><ele>406.00000000000006</ele><time>2026-04-19T11:31:11.975Z</time></trkpt><trkpt lat="44.3021083" lon="10.0752567"><ele>406.0</ele><time>2026-04-19T11:31:12.975Z</time></trkpt><trkpt lat="44.3020333" lon="10.0751933"><ele>406.0</ele><time>2026-04-19T11:31:13.975Z</time></trkpt><trkpt lat="44.3019567" lon="10.0751283"><ele>406.0</ele><time>2026-04-19T11:31:14.975Z</time></trkpt><trkpt lat="44.3018933" lon="10.0750517"><ele>406.00000000000006</ele><time>2026-04-19T11:31:15.975Z</time></trkpt><trkpt lat="44.301835" lon="10.0750033"><ele>406.0</ele><time>2026-04-19T11:31:16.975Z</time></trkpt><trkpt lat="44.3017483" lon="10.07493"><ele>406.33333333333337</ele><time>2026-04-19T11:31:18.975Z</time></trkpt><trkpt lat="44.3016833" lon="10.0748683"><ele>406.6666666666667</ele><time>2026-04-19T11:31:20.975Z</time></trkpt><trkpt lat="44.301625" lon="10.074825"><ele>407.0</ele><time>2026-04-19T11:31:22.975Z</time></trkpt><trkpt lat="44.3015633" lon="10.0747583"><ele>407.33333333333337</ele><time>2026-04-19T11:31:25.975Z</time></trkpt><trkpt lat="44.3014983" lon="10.0747033"><ele>407.6666666666667</ele><time>2026-04-19T11:31:28.975Z</time></trkpt><trkpt lat="44.3014233" lon="10.0746517"><ele>408.0</ele><time>2026-04-19T11:31:31.975Z</time></trkpt><trkpt lat="44.3013483" lon="10.0746517"><ele>408.0</ele><time>2026-04-19T11:31:34.975Z</time></trkpt><trkpt lat="44.3014483" lon="10.074605"><ele>408.0</ele><time>2026-04-19T11:35:55.974Z</time></trkpt><trkpt lat="44.3013644" lon="10.07466"><ele>408.0</ele><time>2026-04-19T11:35:58.006Z</time></trkpt><trkpt lat="44.3013284" lon="10.0745869"><ele>408.0</ele><time>2026-04-19T11:36:08.974Z</time></trkpt><trkpt lat="44.3013966" lon="10.0745572"><ele>408.0</ele><time>2026-04-19T11:36:22.048Z</time></trkpt><trkpt lat="44.3014258" lon="10.0744789"><ele>408.0</ele><time>2026-04-19T11:36:42.974Z</time></trkpt><trkpt lat="44.30143" lon="10.0747983"><ele>404.79999999999995</ele><time>2026-04-19T11:43:27.973Z</time></trkpt><trkpt lat="44.3013497" lon="10.0746104"><ele>401.6</ele><time>2026-04-19T11:43:30.973Z</time></trkpt><trkpt lat="44.3013432" lon="10.0746979"><ele>398.4</ele><time>2026-04-19T11:45:13.069Z</time></trkpt><trkpt lat="44.3013428" lon="10.0745701"><ele>395.20000000000005</ele><time>2026-04-19T11:48:56.081Z</time></trkpt><trkpt lat="44.3013638" lon="10.0744838"><ele>392.0</ele><time>2026-04-19T11:49:12.067Z</time></trkpt><trkpt lat="44.3013405" lon="10.0743343"><ele>391.99999999999994</ele><time>2026-04-19T11:49:19.005Z</time></trkpt><trkpt lat="44.301309" lon="10.0742495"><ele>392.0</ele><time>2026-04-19T11:50:04.048Z</time></trkpt><trkpt lat="44.3012509" lon="10.0742897"><ele>392.0</ele><time>2026-04-19T11:50:17.018Z</time></trkpt><trkpt lat="44.3013646" lon="10.0743291"><ele>392.0</ele><time>2026-04-19T11:52:55.07Z</time></trkpt><trkpt lat="44.301368" lon="10.0744187"><ele>391.99999999999994</ele><time>2026-04-19T12:02:16.08Z</time></trkpt><trkpt lat="44.3013855" lon="10.0745047"><ele>392.0</ele><time>2026-04-19T12:13:28.077Z</time></trkpt><trkpt lat="44.3013871" lon="10.0746245"><ele>391.99999999999994</ele><time>2026-04-19T12:24:30.008Z</time></trkpt><trkpt lat="44.3014583" lon="10.074475"><ele>392.0</ele><time>2026-04-19T12:27:43.971Z</time></trkpt><trkpt lat="44.3013874" lon="10.0744399"><ele>392.0</ele><time>2026-04-19T12:27:44.971Z</time></trkpt><trkpt lat="44.3013993" lon="10.0745493"><ele>392.0</ele><time>2026-04-19T12:33:35.038Z</time></trkpt><trkpt lat="44.3014" lon="10.0746067"><ele>391.99999999999994</ele><time>2026-04-19T12:40:24.971Z</time></trkpt><trkpt lat="44.3013467" lon="10.07452"><ele>392.0</ele><time>2026-04-19T12:40:26.971Z</time></trkpt><trkpt lat="44.3013017" lon="10.074455"><ele>391.99999999999994</ele><time>2026-04-19T12:40:27.971Z</time></trkpt><trkpt lat="44.301255" lon="10.07439"><ele>392.0</ele><time>2026-04-19T12:40:28.971Z</time></trkpt><trkpt lat="44.3012" lon="10.0743333"><ele>392.0</ele><time>2026-04-19T12:40:29.971Z</time></trkpt><trkpt lat="44.301145" lon="10.0742833"><ele>392.0</ele><time>2026-04-19T12:40:30.971Z</time></trkpt><trkpt lat="44.3010433" lon="10.07419"><ele>391.99999999999994</ele><time>2026-04-19T12:40:32.971Z</time></trkpt><trkpt lat="44.3009833" lon="10.0741367"><ele>392.0</ele><time>2026-04-19T12:40:33.971Z</time></trkpt><trkpt lat="44.3009133" lon="10.07408"><ele>390.8</ele><time>2026-04-19T12:40:34.971Z</time></trkpt><trkpt lat="44.30084" lon="10.0740167"><ele>389.6</ele><time>2026-04-19T12:40:35.971Z</time></trkpt><trkpt lat="44.3007667" lon="10.0739433"><ele>388.40000000000003</ele><time>2026-04-19T12:40:36.971Z</time></trkpt><trkpt lat="44.3006967" lon="10.07388"><ele>387.20000000000005</ele><time>2026-04-19T12:40:37.971Z</time></trkpt><trkpt lat="44.3006167" lon="10.0738133"><ele>386.0</ele><time>2026-04-19T12:40:38.971Z</time></trkpt><trkpt lat="44.3005283" lon="10.07374"><ele>386.0</ele><time>2026-04-19T12:40:39.971Z</time></trkpt><trkpt lat="44.3004517" lon="10.0736633"><ele>386.0</ele><time>2026-04-19T12:40:40.971Z</time></trkpt><trkpt lat="44.3003983" lon="10.0735417"><ele>386.0</ele><time>2026-04-19T12:40:41.971Z</time></trkpt><trkpt lat="44.3003633" lon="10.0734017"><ele>386.0</ele><time>2026-04-19T12:40:42.971Z</time></trkpt><trkpt lat="44.3003433" lon="10.0732617"><ele>386.0</ele><time>2026-04-19T12:40:43.971Z</time></trkpt><trkpt lat="44.300335" lon="10.0731283"><ele>386.75</ele><time>2026-04-19T12:40:44.971Z</time></trkpt><trkpt lat="44.300325" lon="10.0729933"><ele>387.5</ele><time>2026-04-19T12:40:45.971Z</time></trkpt><trkpt lat="44.3003" lon="10.0727367"><ele>388.25</ele><time>2026-04-19T12:40:47.971Z</time></trkpt><trkpt lat="44.3002783" lon="10.0725817"><ele>389.0</ele><time>2026-04-19T12:40:48.971Z</time></trkpt><trkpt lat="44.3002283" lon="10.0724383"><ele>395.5</ele><time>2026-04-19T12:40:49.971Z</time></trkpt><trkpt lat="44.3001567" lon="10.0723017"><ele>402.0</ele><time>2026-04-19T12:40:50.971Z</time></trkpt><trkpt lat="44.3000633" lon="10.0721817"><ele>408.5</ele><time>2026-04-19T12:40:51.971Z</time></trkpt><trkpt lat="44.29997" lon="10.0721"><ele>415.0</ele><time>2026-04-19T12:40:52.971Z</time></trkpt><trkpt lat="44.29986" lon="10.0720433"><ele>415.0</ele><time>2026-04-19T12:40:53.972Z</time></trkpt><trkpt lat="44.2997567" lon="10.0720067"><ele>415.0</ele><time>2026-04-19T12:40:54.971Z</time></trkpt><trkpt lat="44.2996617" lon="10.072005"><ele>415.0</ele><time>2026-04-19T12:40:55.971Z</time></trkpt><trkpt lat="44.2995683" lon="10.0720283"><ele>415.0</ele><time>2026-04-19T12:40:56.971Z</time></trkpt><trkpt lat="44.2994967" lon="10.0720817"><ele>415.0</ele><time>2026-04-19T12:40:57.971Z</time></trkpt><trkpt lat="44.2994283" lon="10.072195"><ele>414.5</ele><time>2026-04-19T12:40:58.971Z</time></trkpt><trkpt lat="44.2993483" lon="10.0723517"><ele>414.0</ele><time>2026-04-19T12:40:59.971Z</time></trkpt><trkpt lat="44.2992583" lon="10.0725017"><ele>413.5</ele><time>2026-04-19T12:41:00.971Z</time></trkpt><trkpt lat="44.29919" lon="10.0726317"><ele>413.0</ele><time>2026-04-19T12:41:01.971Z</time></trkpt><trkpt lat="44.2990883" lon="10.0727217"><ele>410.3333333333333</ele><time>2026-04-19T12:41:02.971Z</time></trkpt><trkpt lat="44.2989883" lon="10.072775"><ele>407.66666666666663</ele><time>2026-04-19T12:41:03.971Z</time></trkpt><trkpt lat="44.2988867" lon="10.0727783"><ele>405.0</ele><time>2026-04-19T12:41:04.971Z</time></trkpt><trkpt lat="44.298805" lon="10.0727583"><ele>402.33333333333337</ele><time>2026-04-19T12:41:05.972Z</time></trkpt><trkpt lat="44.2987283" lon="10.0727367"><ele>399.6666666666667</ele><time>2026-04-19T12:41:06.971Z</time></trkpt><trkpt lat="44.2986633" lon="10.0727467"><ele>397.0</ele><time>2026-04-19T12:41:07.971Z</time></trkpt><trkpt lat="44.2986167" lon="10.0728083"><ele>397.00000000000006</ele><time>2026-04-19T12:41:08.971Z</time></trkpt><trkpt lat="44.2985917" lon="10.0729033"><ele>397.0</ele><time>2026-04-19T12:41:09.972Z</time></trkpt><trkpt lat="44.2985967" lon="10.0730233"><ele>397.0</ele><time>2026-04-19T12:41:10.971Z</time></trkpt><trkpt lat="44.2986233" lon="10.07313"><ele>397.0</ele><time>2026-04-19T12:41:11.971Z</time></trkpt><trkpt lat="44.2986317" lon="10.0732467"><ele>397.00000000000006</ele><time>2026-04-19T12:41:12.971Z</time></trkpt><trkpt lat="44.298615" lon="10.0733467"><ele>397.0</ele><time>2026-04-19T12:41:13.971Z</time></trkpt><trkpt lat="44.2985717" lon="10.073425"><ele>392.8</ele><time>2026-04-19T12:41:14.971Z</time></trkpt><trkpt lat="44.2984733" lon="10.07348"><ele>388.6</ele><time>2026-04-19T12:41:15.971Z</time></trkpt><trkpt lat="44.2983483" lon="10.07354"><ele>384.40000000000003</ele><time>2026-04-19T12:41:16.971Z</time></trkpt><trkpt lat="44.2982533" lon="10.0735867"><ele>380.20000000000005</ele><time>2026-04-19T12:41:17.971Z</time></trkpt><trkpt lat="44.2981533" lon="10.0736483"><ele>376.0</ele><time>2026-04-19T12:41:18.971Z</time></trkpt><trkpt lat="44.2980533" lon="10.0736967"><ele>376.0</ele><time>2026-04-19T12:41:19.971Z</time></trkpt><trkpt lat="44.297945" lon="10.0737417"><ele>376.0</ele><time>2026-04-19T12:41:20.971Z</time></trkpt><trkpt lat="44.2978217" lon="10.0737667"><ele>376.0</ele><time>2026-04-19T12:41:21.971Z</time></trkpt><trkpt lat="44.29771" lon="10.0737633"><ele>376.0</ele><time>2026-04-19T12:41:22.972Z</time></trkpt><trkpt lat="44.2976183" lon="10.0737583"><ele>376.0</ele><time>2026-04-19T12:41:23.971Z</time></trkpt><trkpt lat="44.297545" lon="10.0737567"><ele>376.0</ele><time>2026-04-19T12:41:24.971Z</time></trkpt><trkpt lat="44.29747" lon="10.0737367"><ele>376.0</ele><time>2026-04-19T12:41:25.971Z</time></trkpt><trkpt lat="44.2973783" lon="10.07371"><ele>376.0</ele><time>2026-04-19T12:41:26.971Z</time></trkpt><trkpt lat="44.2972883" lon="10.07367"><ele>376.0</ele><time>2026-04-19T12:41:27.971Z</time></trkpt><trkpt lat="44.29719" lon="10.0736233"><ele>376.0</ele><time>2026-04-19T12:41:28.971Z</time></trkpt><trkpt lat="44.29708" lon="10.0736033"><ele>379.75</ele><time>2026-04-19T12:41:29.971Z</time></trkpt><trkpt lat="44.2969717" lon="10.073635"><ele>383.5</ele><time>2026-04-19T12:41:30.971Z</time></trkpt><trkpt lat="44.2968633" lon="10.07372"><ele>387.25</ele><time>2026-04-19T12:41:31.971Z</time></trkpt><trkpt lat="44.2967617" lon="10.0738333"><ele>391.0</ele><time>2026-04-19T12:41:32.971Z</time></trkpt><trkpt lat="44.296675" lon="10.0739433"><ele>391.0</ele><time>2026-04-19T12:41:33.971Z</time></trkpt><trkpt lat="44.2966" lon="10.0740633"><ele>391.0</ele><time>2026-04-19T12:41:34.971Z</time></trkpt><trkpt lat="44.2965317" lon="10.0741817"><ele>391.0</ele><time>2026-04-19T12:41:35.971Z</time></trkpt><trkpt lat="44.2964433" lon="10.0742933"><ele>391.0</ele><time>2026-04-19T12:41:36.971Z</time></trkpt><trkpt lat="44.296355" lon="10.0744033"><ele>390.25</ele><time>2026-04-19T12:41:37.971Z</time></trkpt><trkpt lat="44.296255" lon="10.07451"><ele>389.5</ele><time>2026-04-19T12:41:38.971Z</time></trkpt><trkpt lat="44.296155" lon="10.0746117"><ele>388.75</ele><time>2026-04-19T12:41:39.971Z</time></trkpt><trkpt lat="44.2960533" lon="10.07471"><ele>388.0</ele><time>2026-04-19T12:41:40.971Z</time></trkpt><trkpt lat="44.2959467" lon="10.0748067"><ele>388.0</ele><time>2026-04-19T12:41:41.971Z</time></trkpt><trkpt lat="44.2958333" lon="10.0748983"><ele>388.0</ele><time>2026-04-19T12:41:42.971Z</time></trkpt><trkpt lat="44.2957183" lon="10.0749733"><ele>388.0</ele><time>2026-04-19T12:41:43.971Z</time></trkpt><trkpt lat="44.2955983" lon="10.0750283"><ele>388.0</ele><time>2026-04-19T12:41:44.971Z</time></trkpt><trkpt lat="44.29548" lon="10.0750817"><ele>383.75</ele><time>2026-04-19T12:41:45.971Z</time></trkpt><trkpt lat="44.2953733" lon="10.0751533"><ele>379.5</ele><time>2026-04-19T12:41:46.971Z</time></trkpt><trkpt lat="44.29527" lon="10.0752217"><ele>375.25</ele><time>2026-04-19T12:41:47.971Z</time></trkpt><trkpt lat="44.29517" lon="10.0752933"><ele>371.0</ele><time>2026-04-19T12:41:48.971Z</time></trkpt><trkpt lat="44.2950683" lon="10.0753583"><ele>371.0</ele><time>2026-04-19T12:41:49.971Z</time></trkpt><trkpt lat="44.2949717" lon="10.0754183"><ele>371.0</ele><time>2026-04-19T12:41:50.971Z</time></trkpt><trkpt lat="44.2948717" lon="10.075485"><ele>371.0</ele><time>2026-04-19T12:41:51.971Z</time></trkpt><trkpt lat="44.29475" lon="10.0755517"><ele>371.0</ele><time>2026-04-19T12:41:52.971Z</time></trkpt><trkpt lat="44.2946167" lon="10.0756117"><ele>369.33333333333337</ele><time>2026-04-19T12:41:53.971Z</time></trkpt><trkpt lat="44.2944633" lon="10.07565"><ele>367.6666666666667</ele><time>2026-04-19T12:41:54.971Z</time></trkpt><trkpt lat="44.2942867" lon="10.0756367"><ele>366.0</ele><time>2026-04-19T12:41:55.971Z</time></trkpt><trkpt lat="44.2941183" lon="10.075635"><ele>366.0</ele><time>2026-04-19T12:41:56.971Z</time></trkpt><trkpt lat="44.2939517" lon="10.07559"><ele>366.0</ele><time>2026-04-19T12:41:57.971Z</time></trkpt><trkpt lat="44.2937983" lon="10.07557"><ele>366.0</ele><time>2026-04-19T12:41:58.971Z</time></trkpt><trkpt lat="44.2936533" lon="10.0755833"><ele>364.5</ele><time>2026-04-19T12:41:59.971Z</time></trkpt><trkpt lat="44.29353" lon="10.0755883"><ele>363.0</ele><time>2026-04-19T12:42:00.971Z</time></trkpt><trkpt lat="44.2934083" lon="10.075605"><ele>361.5</ele><time>2026-04-19T12:42:01.971Z</time></trkpt><trkpt lat="44.2932967" lon="10.0756417"><ele>360.0</ele><time>2026-04-19T12:42:02.971Z</time></trkpt><trkpt lat="44.2931933" lon="10.0756967"><ele>357.0</ele><time>2026-04-19T12:42:03.971Z</time></trkpt><trkpt lat="44.29309" lon="10.0757933"><ele>354.0</ele><time>2026-04-19T12:42:04.971Z</time></trkpt><trkpt lat="44.2930067" lon="10.0759267"><ele>351.0</ele><time>2026-04-19T12:42:05.971Z</time></trkpt><trkpt lat="44.29293" lon="10.0760917"><ele>348.0</ele><time>2026-04-19T12:42:06.971Z</time></trkpt><trkpt lat="44.2928533" lon="10.0762583"><ele>348.0</ele><time>2026-04-19T12:42:07.971Z</time></trkpt><trkpt lat="44.2927817" lon="10.0764217"><ele>348.0</ele><time>2026-04-19T12:42:08.971Z</time></trkpt><trkpt lat="44.2927017" lon="10.07658"><ele>348.0</ele><time>2026-04-19T12:42:09.971Z</time></trkpt><trkpt lat="44.2926117" lon="10.07672"><ele>348.0</ele><time>2026-04-19T12:42:10.971Z</time></trkpt><trkpt lat="44.292515" lon="10.0768433"><ele>346.25</ele><time>2026-04-19T12:42:11.971Z</time></trkpt><trkpt lat="44.292415" lon="10.0769617"><ele>344.5</ele><time>2026-04-19T12:42:12.971Z</time></trkpt><trkpt lat="44.2923183" lon="10.0770633"><ele>342.75</ele><time>2026-04-19T12:42:13.971Z</time></trkpt><trkpt lat="44.2921967" lon="10.0771533"><ele>341.0</ele><time>2026-04-19T12:42:14.972Z</time></trkpt><trkpt lat="44.2920667" lon="10.0772367"><ele>341.0</ele><time>2026-04-19T12:42:15.971Z</time></trkpt><trkpt lat="44.2919533" lon="10.07731"><ele>341.0</ele><time>2026-04-19T12:42:16.971Z</time></trkpt><trkpt lat="44.2918533" lon="10.0773783"><ele>341.0</ele><time>2026-04-19T12:42:17.971Z</time></trkpt><trkpt lat="44.2917367" lon="10.07744"><ele>341.0</ele><time>2026-04-19T12:42:18.971Z</time></trkpt><trkpt lat="44.29161" lon="10.0774983"><ele>338.25</ele><time>2026-04-19T12:42:19.971Z</time></trkpt><trkpt lat="44.2914717" lon="10.0775317"><ele>335.5</ele><time>2026-04-19T12:42:20.971Z</time></trkpt><trkpt lat="44.291325" lon="10.0775383"><ele>332.75</ele><time>2026-04-19T12:42:21.971Z</time></trkpt><trkpt lat="44.2911767" lon="10.0775083"><ele>330.0</ele><time>2026-04-19T12:42:22.971Z</time></trkpt><trkpt lat="44.2910367" lon="10.07747"><ele>332.0</ele><time>2026-04-19T12:42:23.971Z</time></trkpt><trkpt lat="44.2908967" lon="10.0774333"><ele>334.0</ele><time>2026-04-19T12:42:24.971Z</time></trkpt><trkpt lat="44.2907617" lon="10.0773967"><ele>336.0</ele><time>2026-04-19T12:42:25.971Z</time></trkpt><trkpt lat="44.29063" lon="10.077365"><ele>338.0</ele><time>2026-04-19T12:42:26.972Z</time></trkpt><trkpt lat="44.29051" lon="10.0773183"><ele>340.5</ele><time>2026-04-19T12:42:27.971Z</time></trkpt><trkpt lat="44.2904083" lon="10.0772267"><ele>343.0</ele><time>2026-04-19T12:42:28.971Z</time></trkpt><trkpt lat="44.2903117" lon="10.07711"><ele>345.5</ele><time>2026-04-19T12:42:29.971Z</time></trkpt><trkpt lat="44.2902083" lon="10.077025"><ele>348.0</ele><time>2026-04-19T12:42:30.971Z</time></trkpt><trkpt lat="44.290095" lon="10.0769783"><ele>348.0</ele><time>2026-04-19T12:42:31.971Z</time></trkpt><trkpt lat="44.2899733" lon="10.07699"><ele>348.0</ele><time>2026-04-19T12:42:32.971Z</time></trkpt><trkpt lat="44.289845" lon="10.07704"><ele>348.0</ele><time>2026-04-19T12:42:33.971Z</time></trkpt><trkpt lat="44.2897317" lon="10.0771167"><ele>348.0</ele><time>2026-04-19T12:42:34.971Z</time></trkpt><trkpt lat="44.2896167" lon="10.0772083"><ele>344.75</ele><time>2026-04-19T12:42:35.971Z</time></trkpt><trkpt lat="44.2895083" lon="10.0773017"><ele>341.5</ele><time>2026-04-19T12:42:36.971Z</time></trkpt><trkpt lat="44.28941" lon="10.077405"><ele>338.25</ele><time>2026-04-19T12:42:37.971Z</time></trkpt><trkpt lat="44.2893067" lon="10.0774983"><ele>335.0</ele><time>2026-04-19T12:42:38.971Z</time></trkpt><trkpt lat="44.289195" lon="10.077575"><ele>335.0</ele><time>2026-04-19T12:42:39.971Z</time></trkpt><trkpt lat="44.2890817" lon="10.0776317"><ele>335.0</ele><time>2026-04-19T12:42:40.971Z</time></trkpt><trkpt lat="44.2889583" lon="10.077695"><ele>335.0</ele><time>2026-04-19T12:42:41.971Z</time></trkpt><trkpt lat="44.2888367" lon="10.07775"><ele>335.0</ele><time>2026-04-19T12:42:42.971Z</time></trkpt><trkpt lat="44.28871" lon="10.0778083"><ele>337.75</ele><time>2026-04-19T12:42:43.971Z</time></trkpt><trkpt lat="44.2885833" lon="10.0778667"><ele>340.5</ele><time>2026-04-19T12:42:44.971Z</time></trkpt><trkpt lat="44.28845" lon="10.07792"><ele>343.25</ele><time>2026-04-19T12:42:45.971Z</time></trkpt><trkpt lat="44.2883183" lon="10.0779683"><ele>346.0</ele><time>2026-04-19T12:42:46.971Z</time></trkpt><trkpt lat="44.2881783" lon="10.0780233"><ele>350.3333333333333</ele><time>2026-04-19T12:42:47.971Z</time></trkpt><trkpt lat="44.288035" lon="10.078085"><ele>354.6666666666667</ele><time>2026-04-19T12:42:48.971Z</time></trkpt><trkpt lat="44.2878867" lon="10.0781383"><ele>359.0</ele><time>2026-04-19T12:42:49.971Z</time></trkpt><trkpt lat="44.28774" lon="10.0781917"><ele>359.0</ele><time>2026-04-19T12:42:50.971Z</time></trkpt><trkpt lat="44.28759" lon="10.07823"><ele>359.0</ele><time>2026-04-19T12:42:51.971Z</time></trkpt><trkpt lat="44.2874467" lon="10.0782733"><ele>359.0</ele><time>2026-04-19T12:42:52.972Z</time></trkpt><trkpt lat="44.2873" lon="10.0783317"><ele>349.6666666666667</ele><time>2026-04-19T12:42:53.971Z</time></trkpt><trkpt lat="44.2871417" lon="10.0783833"><ele>340.3333333333333</ele><time>2026-04-19T12:42:54.971Z</time></trkpt><trkpt lat="44.2869833" lon="10.0784467"><ele>331.0</ele><time>2026-04-19T12:42:55.971Z</time></trkpt><trkpt lat="44.2868267" lon="10.0785117"><ele>331.0</ele><time>2026-04-19T12:42:56.971Z</time></trkpt><trkpt lat="44.2866783" lon="10.0785733"><ele>331.0</ele><time>2026-04-19T12:42:57.971Z</time></trkpt><trkpt lat="44.28654" lon="10.0786317"><ele>331.0</ele><time>2026-04-19T12:42:58.971Z</time></trkpt><trkpt lat="44.2864133" lon="10.0786783"><ele>331.0</ele><time>2026-04-19T12:42:59.971Z</time></trkpt><trkpt lat="44.28628" lon="10.0787233"><ele>329.5</ele><time>2026-04-19T12:43:00.971Z</time></trkpt><trkpt lat="44.286145" lon="10.0787717"><ele>328.0</ele><time>2026-04-19T12:43:01.971Z</time></trkpt><trkpt lat="44.2860217" lon="10.07879"><ele>326.5</ele><time>2026-04-19T12:43:02.971Z</time></trkpt><trkpt lat="44.2858967" lon="10.0787983"><ele>325.0</ele><time>2026-04-19T12:43:03.972Z</time></trkpt><trkpt lat="44.2857717" lon="10.0787817"><ele>325.0</ele><time>2026-04-19T12:43:04.971Z</time></trkpt><trkpt lat="44.2856467" lon="10.078735"><ele>325.0</ele><time>2026-04-19T12:43:05.971Z</time></trkpt><trkpt lat="44.2855383" lon="10.0786433"><ele>325.0</ele><time>2026-04-19T12:43:06.971Z</time></trkpt><trkpt lat="44.2854467" lon="10.0785117"><ele>325.0</ele><time>2026-04-19T12:43:07.971Z</time></trkpt><trkpt lat="44.2853617" lon="10.0783633"><ele>322.25</ele><time>2026-04-19T12:43:08.971Z</time></trkpt><trkpt lat="44.28526" lon="10.07823"><ele>319.5</ele><time>2026-04-19T12:43:09.971Z</time></trkpt><trkpt lat="44.28514" lon="10.0781167"><ele>316.75</ele><time>2026-04-19T12:43:10.971Z</time></trkpt><trkpt lat="44.2850167" lon="10.0780167"><ele>314.0</ele><time>2026-04-19T12:43:11.971Z</time></trkpt><trkpt lat="44.2848983" lon="10.0778967"><ele>314.0</ele><time>2026-04-19T12:43:12.971Z</time></trkpt><trkpt lat="44.284795" lon="10.077765"><ele>314.0</ele><time>2026-04-19T12:43:13.971Z</time></trkpt><trkpt lat="44.2846983" lon="10.0776217"><ele>314.0</ele><time>2026-04-19T12:43:14.971Z</time></trkpt><trkpt lat="44.284615" lon="10.0774717"><ele>314.0</ele><time>2026-04-19T12:43:15.971Z</time></trkpt><trkpt lat="44.2845483" lon="10.0773083"><ele>309.25</ele><time>2026-04-19T12:43:16.971Z</time></trkpt><trkpt lat="44.2844917" lon="10.0771433"><ele>304.5</ele><time>2026-04-19T12:43:17.971Z</time></trkpt><trkpt lat="44.2844433" lon="10.0769783"><ele>299.75</ele><time>2026-04-19T12:43:18.971Z</time></trkpt><trkpt lat="44.2844117" lon="10.0768233"><ele>295.0</ele><time>2026-04-19T12:43:19.971Z</time></trkpt><trkpt lat="44.2843767" lon="10.0766633"><ele>296.25</ele><time>2026-04-19T12:43:20.971Z</time></trkpt><trkpt lat="44.2843517" lon="10.0764883"><ele>297.5</ele><time>2026-04-19T12:43:21.971Z</time></trkpt><trkpt lat="44.2843367" lon="10.0763017"><ele>298.75</ele><time>2026-04-19T12:43:22.971Z</time></trkpt><trkpt lat="44.2843267" lon="10.0761167"><ele>300.0</ele><time>2026-04-19T12:43:23.971Z</time></trkpt><trkpt lat="44.284325" lon="10.075935"><ele>301.25</ele><time>2026-04-19T12:43:24.971Z</time></trkpt><trkpt lat="44.2843267" lon="10.0757483"><ele>302.5</ele><time>2026-04-19T12:43:25.971Z</time></trkpt><trkpt lat="44.28428" lon="10.075585"><ele>303.75</ele><time>2026-04-19T12:43:26.971Z</time></trkpt><trkpt lat="44.28423" lon="10.0754333"><ele>305.0</ele><time>2026-04-19T12:43:27.971Z</time></trkpt><trkpt lat="44.2841633" lon="10.0753183"><ele>305.0</ele><time>2026-04-19T12:43:28.971Z</time></trkpt><trkpt lat="44.2840783" lon="10.0752117"><ele>305.0</ele><time>2026-04-19T12:43:29.971Z</time></trkpt><trkpt lat="44.2840067" lon="10.0750933"><ele>305.0</ele><time>2026-04-19T12:43:30.971Z</time></trkpt><trkpt lat="44.2839617" lon="10.0749567"><ele>305.0</ele><time>2026-04-19T12:43:31.971Z</time></trkpt><trkpt lat="44.2839283" lon="10.0748083"><ele>305.0</ele><time>2026-04-19T12:43:32.971Z</time></trkpt><trkpt lat="44.283915" lon="10.0746533"><ele>304.8</ele><time>2026-04-19T12:43:33.971Z</time></trkpt><trkpt lat="44.2839317" lon="10.0745033"><ele>304.6</ele><time>2026-04-19T12:43:34.971Z</time></trkpt><trkpt lat="44.2839667" lon="10.0743533"><ele>304.4</ele><time>2026-04-19T12:43:35.971Z</time></trkpt><trkpt lat="44.284015" lon="10.0742033"><ele>304.2</ele><time>2026-04-19T12:43:36.971Z</time></trkpt><trkpt lat="44.284065" lon="10.0740717"><ele>304.0</ele><time>2026-04-19T12:43:37.971Z</time></trkpt><trkpt lat="44.284125" lon="10.073975"><ele>303.4</ele><time>2026-04-19T12:43:38.971Z</time></trkpt><trkpt lat="44.28417" lon="10.0738883"><ele>302.79999999999995</ele><time>2026-04-19T12:43:39.971Z</time></trkpt><trkpt lat="44.284225" lon="10.0737583"><ele>302.20000000000005</ele><time>2026-04-19T12:43:41.971Z</time></trkpt><trkpt lat="44.2842183" lon="10.07364"><ele>301.6</ele><time>2026-04-19T12:43:43.971Z</time></trkpt><trkpt lat="44.284135" lon="10.073645"><ele>301.0</ele><time>2026-04-19T12:43:46.971Z</time></trkpt><trkpt lat="44.2840533" lon="10.07379"><ele>301.0</ele><time>2026-04-19T12:43:48.971Z</time></trkpt><trkpt lat="44.2840033" lon="10.0739"><ele>301.0</ele><time>2026-04-19T12:43:49.971Z</time></trkpt><trkpt lat="44.2839433" lon="10.0740233"><ele>301.0</ele><time>2026-04-19T12:43:50.971Z</time></trkpt><trkpt lat="44.28387" lon="10.0741717"><ele>301.0</ele><time>2026-04-19T12:43:51.971Z</time></trkpt><trkpt lat="44.283805" lon="10.0743183"><ele>297.5</ele><time>2026-04-19T12:43:52.971Z</time></trkpt><trkpt lat="44.2837733" lon="10.0744983"><ele>294.0</ele><time>2026-04-19T12:43:53.971Z</time></trkpt><trkpt lat="44.2837583" lon="10.0746867"><ele>290.5</ele><time>2026-04-19T12:43:54.971Z</time></trkpt><trkpt lat="44.2837583" lon="10.0748967"><ele>287.0</ele><time>2026-04-19T12:43:55.971Z</time></trkpt><trkpt lat="44.283775" lon="10.0751167"><ele>287.0</ele><time>2026-04-19T12:43:56.971Z</time></trkpt><trkpt lat="44.2837917" lon="10.0753317"><ele>287.0</ele><time>2026-04-19T12:43:57.971Z</time></trkpt><trkpt lat="44.2838133" lon="10.075535"><ele>287.0</ele><time>2026-04-19T12:43:58.971Z</time></trkpt><trkpt lat="44.2838267" lon="10.075725"><ele>287.0</ele><time>2026-04-19T12:43:59.971Z</time></trkpt><trkpt lat="44.2838517" lon="10.075915"><ele>285.0</ele><time>2026-04-19T12:44:00.971Z</time></trkpt><trkpt lat="44.2838917" lon="10.07612"><ele>283.0</ele><time>2026-04-19T12:44:01.971Z</time></trkpt><trkpt lat="44.2839267" lon="10.076325"><ele>281.0</ele><time>2026-04-19T12:44:02.971Z</time></trkpt><trkpt lat="44.283975" lon="10.0765317"><ele>284.5</ele><time>2026-04-19T12:44:03.971Z</time></trkpt><trkpt lat="44.2840233" lon="10.0767283"><ele>288.0</ele><time>2026-04-19T12:44:04.971Z</time></trkpt><trkpt lat="44.2840667" lon="10.0769133"><ele>291.5</ele><time>2026-04-19T12:44:05.972Z</time></trkpt><trkpt lat="44.2841133" lon="10.0770917"><ele>295.0</ele><time>2026-04-19T12:44:06.971Z</time></trkpt><trkpt lat="44.2841683" lon="10.077265"><ele>295.0</ele><time>2026-04-19T12:44:07.971Z</time></trkpt><trkpt lat="44.284235" lon="10.0774283"><ele>295.0</ele><time>2026-04-19T12:44:08.971Z</time></trkpt><trkpt lat="44.284325" lon="10.07759"><ele>295.0</ele><time>2026-04-19T12:44:09.971Z</time></trkpt><trkpt lat="44.2844267" lon="10.0777433"><ele>295.0</ele><time>2026-04-19T12:44:10.971Z</time></trkpt><trkpt lat="44.284525" lon="10.077885"><ele>294.2</ele><time>2026-04-19T12:44:11.971Z</time></trkpt><trkpt lat="44.28462" lon="10.077995"><ele>293.4</ele><time>2026-04-19T12:44:12.971Z</time></trkpt><trkpt lat="44.28469" lon="10.0781017"><ele>292.6</ele><time>2026-04-19T12:44:13.971Z</time></trkpt><trkpt lat="44.2847217" lon="10.07821"><ele>291.8</ele><time>2026-04-19T12:44:14.971Z</time></trkpt><trkpt lat="44.28472" lon="10.0783167"><ele>291.0</ele><time>2026-04-19T12:44:15.971Z</time></trkpt><trkpt lat="44.2846833" lon="10.0784167"><ele>290.6</ele><time>2026-04-19T12:44:16.971Z</time></trkpt><trkpt lat="44.2846117" lon="10.078515"><ele>290.20000000000005</ele><time>2026-04-19T12:44:17.971Z</time></trkpt><trkpt lat="44.2845167" lon="10.0785983"><ele>289.79999999999995</ele><time>2026-04-19T12:44:18.971Z</time></trkpt><trkpt lat="44.2844167" lon="10.07867"><ele>289.4</ele><time>2026-04-19T12:44:19.971Z</time></trkpt><trkpt lat="44.2843017" lon="10.0786883"><ele>289.0</ele><time>2026-04-19T12:44:20.971Z</time></trkpt><trkpt lat="44.284185" lon="10.0786683"><ele>289.0</ele><time>2026-04-19T12:44:21.971Z</time></trkpt><trkpt lat="44.2840767" lon="10.0786"><ele>289.0</ele><time>2026-04-19T12:44:22.971Z</time></trkpt><trkpt lat="44.283985" lon="10.0784667"><ele>289.0</ele><time>2026-04-19T12:44:23.971Z</time></trkpt><trkpt lat="44.2838933" lon="10.078305"><ele>289.0</ele><time>2026-04-19T12:44:24.971Z</time></trkpt><trkpt lat="44.283805" lon="10.078145"><ele>289.16666666666663</ele><time>2026-04-19T12:44:25.971Z</time></trkpt><trkpt lat="44.28373" lon="10.0780217"><ele>289.3333333333333</ele><time>2026-04-19T12:44:26.971Z</time></trkpt><trkpt lat="44.283665" lon="10.077925"><ele>289.5</ele><time>2026-04-19T12:44:27.971Z</time></trkpt><trkpt lat="44.2836083" lon="10.0778517"><ele>289.6666666666667</ele><time>2026-04-19T12:44:28.971Z</time></trkpt><trkpt lat="44.2835417" lon="10.0778233"><ele>289.83333333333337</ele><time>2026-04-19T12:44:29.971Z</time></trkpt><trkpt lat="44.2834767" lon="10.07783"><ele>290.0</ele><time>2026-04-19T12:44:30.971Z</time></trkpt><trkpt lat="44.283425" lon="10.0779017"><ele>290.0</ele><time>2026-04-19T12:44:31.971Z</time></trkpt><trkpt lat="44.2834033" lon="10.078015"><ele>290.0</ele><time>2026-04-19T12:44:32.971Z</time></trkpt><trkpt lat="44.2834233" lon="10.0781417"><ele>290.0</ele><time>2026-04-19T12:44:33.971Z</time></trkpt><trkpt lat="44.2834533" lon="10.0782867"><ele>290.0</ele><time>2026-04-19T12:44:34.971Z</time></trkpt><trkpt lat="44.2835133" lon="10.0784567"><ele>290.0</ele><time>2026-04-19T12:44:35.971Z</time></trkpt><trkpt lat="44.2835817" lon="10.0786367"><ele>292.0</ele><time>2026-04-19T12:44:36.971Z</time></trkpt><trkpt lat="44.2836617" lon="10.07881"><ele>294.0</ele><time>2026-04-19T12:44:37.971Z</time></trkpt><trkpt lat="44.283765" lon="10.07898"><ele>296.0</ele><time>2026-04-19T12:44:38.971Z</time></trkpt><trkpt lat="44.2838817" lon="10.07916"><ele>296.0</ele><time>2026-04-19T12:44:39.971Z</time></trkpt><trkpt lat="44.2840167" lon="10.0793367"><ele>296.0</ele><time>2026-04-19T12:44:40.971Z</time></trkpt><trkpt lat="44.2841633" lon="10.07948"><ele>296.0</ele><time>2026-04-19T12:44:41.971Z</time></trkpt><trkpt lat="44.284305" lon="10.079605"><ele>296.0</ele><time>2026-04-19T12:44:42.971Z</time></trkpt><trkpt lat="44.2844383" lon="10.07971"><ele>296.0</ele><time>2026-04-19T12:44:43.971Z</time></trkpt><trkpt lat="44.2845633" lon="10.0798083"><ele>296.0</ele><time>2026-04-19T12:44:44.971Z</time></trkpt><trkpt lat="44.2846833" lon="10.0798933"><ele>296.0</ele><time>2026-04-19T12:44:45.971Z</time></trkpt><trkpt lat="44.28479" lon="10.0799733"><ele>298.0</ele><time>2026-04-19T12:44:46.971Z</time></trkpt><trkpt lat="44.28488" lon="10.08007"><ele>300.0</ele><time>2026-04-19T12:44:47.971Z</time></trkpt><trkpt lat="44.2849533" lon="10.08019"><ele>302.0</ele><time>2026-04-19T12:44:48.971Z</time></trkpt><trkpt lat="44.285005" lon="10.0803317"><ele>304.0</ele><time>2026-04-19T12:44:49.971Z</time></trkpt><trkpt lat="44.28505" lon="10.0805083"><ele>304.0</ele><time>2026-04-19T12:44:50.972Z</time></trkpt><trkpt lat="44.285085" lon="10.0807167"><ele>304.0</ele><time>2026-04-19T12:44:51.971Z</time></trkpt><trkpt lat="44.2851133" lon="10.0809583"><ele>304.0</ele><time>2026-04-19T12:44:52.971Z</time></trkpt><trkpt lat="44.285145" lon="10.0812033"><ele>305.3333333333333</ele><time>2026-04-19T12:44:53.971Z</time></trkpt><trkpt lat="44.2851717" lon="10.0814283"><ele>306.6666666666667</ele><time>2026-04-19T12:44:54.971Z</time></trkpt><trkpt lat="44.2852" lon="10.0816517"><ele>308.0</ele><time>2026-04-19T12:44:55.971Z</time></trkpt><trkpt lat="44.2852317" lon="10.0818783"><ele>308.33333333333337</ele><time>2026-04-19T12:44:56.971Z</time></trkpt><trkpt lat="44.2852867" lon="10.0821183"><ele>308.6666666666667</ele><time>2026-04-19T12:44:57.971Z</time></trkpt><trkpt lat="44.2853533" lon="10.0823617"><ele>309.0</ele><time>2026-04-19T12:44:58.971Z</time></trkpt><trkpt lat="44.28543" lon="10.08262"><ele>309.3333333333333</ele><time>2026-04-19T12:44:59.971Z</time></trkpt><trkpt lat="44.2855167" lon="10.08286"><ele>309.66666666666663</ele><time>2026-04-19T12:45:00.971Z</time></trkpt><trkpt lat="44.2856" lon="10.0830783"><ele>310.0</ele><time>2026-04-19T12:45:01.971Z</time></trkpt><trkpt lat="44.2856783" lon="10.083285"><ele>313.0</ele><time>2026-04-19T12:45:02.971Z</time></trkpt><trkpt lat="44.28576" lon="10.0834883"><ele>316.0</ele><time>2026-04-19T12:45:03.971Z</time></trkpt><trkpt lat="44.285835" lon="10.0837083"><ele>319.0</ele><time>2026-04-19T12:45:04.971Z</time></trkpt><trkpt lat="44.28591" lon="10.0839417"><ele>316.66666666666663</ele><time>2026-04-19T12:45:05.971Z</time></trkpt><trkpt lat="44.2859817" lon="10.0841733"><ele>314.3333333333333</ele><time>2026-04-19T12:45:06.971Z</time></trkpt><trkpt lat="44.286065" lon="10.0843867"><ele>312.0</ele><time>2026-04-19T12:45:07.971Z</time></trkpt><trkpt lat="44.2861433" lon="10.0845917"><ele>312.0</ele><time>2026-04-19T12:45:08.971Z</time></trkpt><trkpt lat="44.2862217" lon="10.084805"><ele>312.0</ele><time>2026-04-19T12:45:09.971Z</time></trkpt><trkpt lat="44.2862933" lon="10.0850183"><ele>312.0</ele><time>2026-04-19T12:45:10.971Z</time></trkpt><trkpt lat="44.286365" lon="10.0852367"><ele>317.6666666666667</ele><time>2026-04-19T12:45:11.971Z</time></trkpt><trkpt lat="44.2864333" lon="10.0854467"><ele>323.33333333333337</ele><time>2026-04-19T12:45:12.971Z</time></trkpt><trkpt lat="44.2865" lon="10.08564"><ele>329.0</ele><time>2026-04-19T12:45:13.971Z</time></trkpt><trkpt lat="44.2865417" lon="10.0858467"><ele>329.0</ele><time>2026-04-19T12:45:14.971Z</time></trkpt><trkpt lat="44.2866033" lon="10.0860767"><ele>329.0</ele><time>2026-04-19T12:45:15.971Z</time></trkpt><trkpt lat="44.2866467" lon="10.0863217"><ele>329.0</ele><time>2026-04-19T12:45:16.971Z</time></trkpt><trkpt lat="44.2866767" lon="10.086575"><ele>328.33333333333337</ele><time>2026-04-19T12:45:17.971Z</time></trkpt><trkpt lat="44.2866967" lon="10.0868183"><ele>327.6666666666667</ele><time>2026-04-19T12:45:18.971Z</time></trkpt><trkpt lat="44.2867183" lon="10.0870667"><ele>327.0</ele><time>2026-04-19T12:45:19.971Z</time></trkpt><trkpt lat="44.2867383" lon="10.0873"><ele>327.0</ele><time>2026-04-19T12:45:20.971Z</time></trkpt><trkpt lat="44.2867633" lon="10.0875283"><ele>327.0</ele><time>2026-04-19T12:45:21.971Z</time></trkpt><trkpt lat="44.2867867" lon="10.0877583"><ele>327.0</ele><time>2026-04-19T12:45:22.971Z</time></trkpt><trkpt lat="44.2868033" lon="10.0879917"><ele>327.0</ele><time>2026-04-19T12:45:23.971Z</time></trkpt><trkpt lat="44.2868283" lon="10.0882167"><ele>327.0</ele><time>2026-04-19T12:45:24.971Z</time></trkpt><trkpt lat="44.2868583" lon="10.0884483"><ele>327.0</ele><time>2026-04-19T12:45:25.971Z</time></trkpt><trkpt lat="44.2868867" lon="10.0886783"><ele>327.3333333333333</ele><time>2026-04-19T12:45:26.971Z</time></trkpt><trkpt lat="44.286915" lon="10.0889017"><ele>327.66666666666663</ele><time>2026-04-19T12:45:27.971Z</time></trkpt><trkpt lat="44.28696" lon="10.0891167"><ele>328.0</ele><time>2026-04-19T12:45:28.971Z</time></trkpt><trkpt lat="44.2869917" lon="10.0893167"><ele>326.75</ele><time>2026-04-19T12:45:29.971Z</time></trkpt><trkpt lat="44.2870167" lon="10.089505"><ele>325.5</ele><time>2026-04-19T12:45:30.971Z</time></trkpt><trkpt lat="44.28702" lon="10.0896967"><ele>324.25</ele><time>2026-04-19T12:45:31.971Z</time></trkpt><trkpt lat="44.28701" lon="10.0899133"><ele>323.0</ele><time>2026-04-19T12:45:32.971Z</time></trkpt><trkpt lat="44.2869933" lon="10.0901433"><ele>323.33333333333337</ele><time>2026-04-19T12:45:33.972Z</time></trkpt><trkpt lat="44.286975" lon="10.0903783"><ele>323.6666666666667</ele><time>2026-04-19T12:45:34.971Z</time></trkpt><trkpt lat="44.2869417" lon="10.0906033"><ele>324.0</ele><time>2026-04-19T12:45:35.971Z</time></trkpt><trkpt lat="44.2869233" lon="10.0908233"><ele>324.0</ele><time>2026-04-19T12:45:36.972Z</time></trkpt><trkpt lat="44.2869083" lon="10.0910233"><ele>324.0</ele><time>2026-04-19T12:45:37.971Z</time></trkpt><trkpt lat="44.2868733" lon="10.0911983"><ele>324.0</ele><time>2026-04-19T12:45:38.971Z</time></trkpt><trkpt lat="44.286845" lon="10.0913617"><ele>324.0</ele><time>2026-04-19T12:45:39.971Z</time></trkpt><trkpt lat="44.2868067" lon="10.0915033"><ele>325.5</ele><time>2026-04-19T12:45:40.971Z</time></trkpt><trkpt lat="44.2867367" lon="10.091635"><ele>327.0</ele><time>2026-04-19T12:45:41.971Z</time></trkpt><trkpt lat="44.2866567" lon="10.09176"><ele>328.5</ele><time>2026-04-19T12:45:42.971Z</time></trkpt><trkpt lat="44.2865983" lon="10.0919033"><ele>330.0</ele><time>2026-04-19T12:45:43.971Z</time></trkpt><trkpt lat="44.2865417" lon="10.0920533"><ele>330.0</ele><time>2026-04-19T12:45:44.971Z</time></trkpt><trkpt lat="44.2865083" lon="10.0922117"><ele>330.0</ele><time>2026-04-19T12:45:45.971Z</time></trkpt><trkpt lat="44.2864867" lon="10.09237"><ele>330.0</ele><time>2026-04-19T12:45:46.971Z</time></trkpt><trkpt lat="44.28647" lon="10.092545"><ele>330.0</ele><time>2026-04-19T12:45:47.971Z</time></trkpt><trkpt lat="44.2864633" lon="10.0927417"><ele>330.5</ele><time>2026-04-19T12:45:48.972Z</time></trkpt><trkpt lat="44.2864717" lon="10.0929333"><ele>331.0</ele><time>2026-04-19T12:45:49.971Z</time></trkpt><trkpt lat="44.2865033" lon="10.09313"><ele>331.5</ele><time>2026-04-19T12:45:50.971Z</time></trkpt><trkpt lat="44.2865667" lon="10.0933333"><ele>332.0</ele><time>2026-04-19T12:45:51.971Z</time></trkpt><trkpt lat="44.2866467" lon="10.0935417"><ele>332.0</ele><time>2026-04-19T12:45:52.971Z</time></trkpt><trkpt lat="44.2867233" lon="10.09373"><ele>332.0</ele><time>2026-04-19T12:45:53.971Z</time></trkpt><trkpt lat="44.286805" lon="10.0938867"><ele>332.0</ele><time>2026-04-19T12:45:54.971Z</time></trkpt><trkpt lat="44.2868833" lon="10.0940333"><ele>332.0</ele><time>2026-04-19T12:45:55.971Z</time></trkpt><trkpt lat="44.2869567" lon="10.0941817"><ele>332.0</ele><time>2026-04-19T12:45:56.971Z</time></trkpt><trkpt lat="44.2870317" lon="10.094335"><ele>332.0</ele><time>2026-04-19T12:45:57.971Z</time></trkpt><trkpt lat="44.287095" lon="10.0945"><ele>332.0</ele><time>2026-04-19T12:45:58.971Z</time></trkpt><trkpt lat="44.2871433" lon="10.0946733"><ele>332.0</ele><time>2026-04-19T12:45:59.971Z</time></trkpt><trkpt lat="44.2871667" lon="10.0948533"><ele>332.25</ele><time>2026-04-19T12:46:00.971Z</time></trkpt><trkpt lat="44.2871817" lon="10.095035"><ele>332.5</ele><time>2026-04-19T12:46:01.971Z</time></trkpt><trkpt lat="44.2871917" lon="10.0952267"><ele>332.75</ele><time>2026-04-19T12:46:02.971Z</time></trkpt><trkpt lat="44.2872133" lon="10.0954233"><ele>333.0</ele><time>2026-04-19T12:46:03.971Z</time></trkpt><trkpt lat="44.2872533" lon="10.0956217"><ele>337.3333333333333</ele><time>2026-04-19T12:46:04.971Z</time></trkpt><trkpt lat="44.287305" lon="10.0958217"><ele>341.66666666666663</ele><time>2026-04-19T12:46:05.971Z</time></trkpt><trkpt lat="44.2873683" lon="10.0960267"><ele>346.0</ele><time>2026-04-19T12:46:06.971Z</time></trkpt><trkpt lat="44.2874333" lon="10.09623"><ele>346.0</ele><time>2026-04-19T12:46:07.971Z</time></trkpt><trkpt lat="44.287495" lon="10.096415"><ele>346.0</ele><time>2026-04-19T12:46:08.971Z</time></trkpt><trkpt lat="44.2875533" lon="10.0965917"><ele>346.0</ele><time>2026-04-19T12:46:09.971Z</time></trkpt><trkpt lat="44.2876167" lon="10.09675"><ele>346.0</ele><time>2026-04-19T12:46:10.971Z</time></trkpt><trkpt lat="44.2876883" lon="10.0969067"><ele>346.0</ele><time>2026-04-19T12:46:11.971Z</time></trkpt><trkpt lat="44.2877683" lon="10.0970533"><ele>346.0</ele><time>2026-04-19T12:46:12.971Z</time></trkpt><trkpt lat="44.28785" lon="10.0972017"><ele>346.0</ele><time>2026-04-19T12:46:13.971Z</time></trkpt><trkpt lat="44.2879233" lon="10.0973333"><ele>346.0</ele><time>2026-04-19T12:46:14.971Z</time></trkpt><trkpt lat="44.2879933" lon="10.0974483"><ele>345.20000000000005</ele><time>2026-04-19T12:46:15.971Z</time></trkpt><trkpt lat="44.28806" lon="10.09758"><ele>344.40000000000003</ele><time>2026-04-19T12:46:16.971Z</time></trkpt><trkpt lat="44.2881267" lon="10.097705"><ele>343.6</ele><time>2026-04-19T12:46:17.971Z</time></trkpt><trkpt lat="44.2881883" lon="10.097825"><ele>342.8</ele><time>2026-04-19T12:46:18.971Z</time></trkpt><trkpt lat="44.28824" lon="10.0979283"><ele>342.0</ele><time>2026-04-19T12:46:19.971Z</time></trkpt><trkpt lat="44.2882867" lon="10.0980417"><ele>344.25</ele><time>2026-04-19T12:46:20.971Z</time></trkpt><trkpt lat="44.28831" lon="10.0982067"><ele>346.5</ele><time>2026-04-19T12:46:21.971Z</time></trkpt><trkpt lat="44.288335" lon="10.0983917"><ele>348.75</ele><time>2026-04-19T12:46:22.971Z</time></trkpt><trkpt lat="44.28836" lon="10.098585"><ele>351.0</ele><time>2026-04-19T12:46:23.971Z</time></trkpt><trkpt lat="44.2884017" lon="10.0987817"><ele>351.0</ele><time>2026-04-19T12:46:24.971Z</time></trkpt><trkpt lat="44.288435" lon="10.0989633"><ele>351.0</ele><time>2026-04-19T12:46:25.971Z</time></trkpt><trkpt lat="44.28846" lon="10.09913"><ele>351.0</ele><time>2026-04-19T12:46:26.971Z</time></trkpt><trkpt lat="44.288485" lon="10.09928"><ele>351.0</ele><time>2026-04-19T12:46:27.971Z</time></trkpt><trkpt lat="44.2885083" lon="10.09942"><ele>349.75</ele><time>2026-04-19T12:46:28.971Z</time></trkpt><trkpt lat="44.2885217" lon="10.099565"><ele>348.5</ele><time>2026-04-19T12:46:29.971Z</time></trkpt><trkpt lat="44.2885183" lon="10.0997167"><ele>347.25</ele><time>2026-04-19T12:46:30.971Z</time></trkpt><trkpt lat="44.2884883" lon="10.0998783"><ele>346.0</ele><time>2026-04-19T12:46:31.971Z</time></trkpt><trkpt lat="44.2884383" lon="10.1000283"><ele>346.0</ele><time>2026-04-19T12:46:32.971Z</time></trkpt><trkpt lat="44.288335" lon="10.1001667"><ele>346.0</ele><time>2026-04-19T12:46:33.971Z</time></trkpt><trkpt lat="44.2882633" lon="10.100325"><ele>346.0</ele><time>2026-04-19T12:46:34.971Z</time></trkpt><trkpt lat="44.2881983" lon="10.1004833"><ele>346.0</ele><time>2026-04-19T12:46:35.971Z</time></trkpt><trkpt lat="44.2881317" lon="10.10063"><ele>347.0</ele><time>2026-04-19T12:46:36.971Z</time></trkpt><trkpt lat="44.28806" lon="10.1007717"><ele>348.0</ele><time>2026-04-19T12:46:37.971Z</time></trkpt><trkpt lat="44.2879917" lon="10.10091"><ele>349.0</ele><time>2026-04-19T12:46:38.971Z</time></trkpt><trkpt lat="44.28794" lon="10.1010633"><ele>350.0</ele><time>2026-04-19T12:46:39.971Z</time></trkpt><trkpt lat="44.28791" lon="10.1012167"><ele>350.0</ele><time>2026-04-19T12:46:40.971Z</time></trkpt><trkpt lat="44.2879" lon="10.1013833"><ele>350.0</ele><time>2026-04-19T12:46:41.971Z</time></trkpt><trkpt lat="44.2879183" lon="10.10156"><ele>350.0</ele><time>2026-04-19T12:46:42.971Z</time></trkpt><trkpt lat="44.2879783" lon="10.1017483"><ele>350.0</ele><time>2026-04-19T12:46:43.971Z</time></trkpt><trkpt lat="44.2880467" lon="10.1019217"><ele>351.0</ele><time>2026-04-19T12:46:44.971Z</time></trkpt><trkpt lat="44.2881117" lon="10.1020933"><ele>352.0</ele><time>2026-04-19T12:46:45.971Z</time></trkpt><trkpt lat="44.2881633" lon="10.1022567"><ele>353.0</ele><time>2026-04-19T12:46:46.971Z</time></trkpt><trkpt lat="44.288205" lon="10.1024267"><ele>354.0</ele><time>2026-04-19T12:46:47.971Z</time></trkpt><trkpt lat="44.28823" lon="10.1026067"><ele>354.0</ele><time>2026-04-19T12:46:48.971Z</time></trkpt><trkpt lat="44.28825" lon="10.102795"><ele>354.0</ele><time>2026-04-19T12:46:49.971Z</time></trkpt><trkpt lat="44.28824" lon="10.1029883"><ele>354.0</ele><time>2026-04-19T12:46:50.971Z</time></trkpt><trkpt lat="44.2882033" lon="10.1031783"><ele>354.0</ele><time>2026-04-19T12:46:51.972Z</time></trkpt><trkpt lat="44.28814" lon="10.103375"><ele>356.25</ele><time>2026-04-19T12:46:52.971Z</time></trkpt><trkpt lat="44.28808" lon="10.10357"><ele>358.5</ele><time>2026-04-19T12:46:53.971Z</time></trkpt><trkpt lat="44.2880133" lon="10.1037583"><ele>360.75</ele><time>2026-04-19T12:46:54.971Z</time></trkpt><trkpt lat="44.2879567" lon="10.103935"><ele>363.0</ele><time>2026-04-19T12:46:55.971Z</time></trkpt><trkpt lat="44.2879033" lon="10.1041083"><ele>365.5</ele><time>2026-04-19T12:46:56.971Z</time></trkpt><trkpt lat="44.28788" lon="10.1042683"><ele>368.0</ele><time>2026-04-19T12:46:57.971Z</time></trkpt><trkpt lat="44.287885" lon="10.1044267"><ele>370.5</ele><time>2026-04-19T12:46:58.971Z</time></trkpt><trkpt lat="44.2879167" lon="10.10459"><ele>373.0</ele><time>2026-04-19T12:46:59.971Z</time></trkpt><trkpt lat="44.2879783" lon="10.10474"><ele>373.0</ele><time>2026-04-19T12:47:00.971Z</time></trkpt><trkpt lat="44.2880433" lon="10.1048917"><ele>373.0</ele><time>2026-04-19T12:47:01.971Z</time></trkpt><trkpt lat="44.28813" lon="10.1050517"><ele>373.0</ele><time>2026-04-19T12:47:02.971Z</time></trkpt><trkpt lat="44.2882483" lon="10.10521"><ele>373.0</ele><time>2026-04-19T12:47:03.971Z</time></trkpt><trkpt lat="44.2883517" lon="10.105375"><ele>370.3333333333333</ele><time>2026-04-19T12:47:04.971Z</time></trkpt><trkpt lat="44.2884533" lon="10.1055667"><ele>367.6666666666667</ele><time>2026-04-19T12:47:05.971Z</time></trkpt><trkpt lat="44.2885283" lon="10.1057817"><ele>365.0</ele><time>2026-04-19T12:47:06.971Z</time></trkpt><trkpt lat="44.28859" lon="10.1059983"><ele>364.6666666666667</ele><time>2026-04-19T12:47:07.971Z</time></trkpt><trkpt lat="44.288655" lon="10.1062067"><ele>364.3333333333333</ele><time>2026-04-19T12:47:08.971Z</time></trkpt><trkpt lat="44.288705" lon="10.1064033"><ele>364.0</ele><time>2026-04-19T12:47:09.971Z</time></trkpt><trkpt lat="44.28876" lon="10.106595"><ele>365.66666666666663</ele><time>2026-04-19T12:47:10.971Z</time></trkpt><trkpt lat="44.2888117" lon="10.1067917"><ele>367.3333333333333</ele><time>2026-04-19T12:47:11.971Z</time></trkpt><trkpt lat="44.28886" lon="10.1069883"><ele>369.0</ele><time>2026-04-19T12:47:12.971Z</time></trkpt><trkpt lat="44.288895" lon="10.107205"><ele>369.6666666666667</ele><time>2026-04-19T12:47:13.971Z</time></trkpt><trkpt lat="44.2889233" lon="10.1074167"><ele>370.33333333333337</ele><time>2026-04-19T12:47:14.971Z</time></trkpt><trkpt lat="44.2889533" lon="10.1076367"><ele>371.0</ele><time>2026-04-19T12:47:15.971Z</time></trkpt><trkpt lat="44.2889917" lon="10.10785"><ele>376.33333333333337</ele><time>2026-04-19T12:47:16.971Z</time></trkpt><trkpt lat="44.2890267" lon="10.1080633"><ele>381.6666666666667</ele><time>2026-04-19T12:47:17.971Z</time></trkpt><trkpt lat="44.28907" lon="10.10828"><ele>387.0</ele><time>2026-04-19T12:47:18.971Z</time></trkpt><trkpt lat="44.289115" lon="10.1084933"><ele>387.0</ele><time>2026-04-19T12:47:19.971Z</time></trkpt><trkpt lat="44.2891633" lon="10.1086983"><ele>387.0</ele><time>2026-04-19T12:47:20.971Z</time></trkpt><trkpt lat="44.289205" lon="10.1088967"><ele>387.0</ele><time>2026-04-19T12:47:21.971Z</time></trkpt><trkpt lat="44.28925" lon="10.109095"><ele>385.75</ele><time>2026-04-19T12:47:22.971Z</time></trkpt><trkpt lat="44.2893" lon="10.1092867"><ele>384.5</ele><time>2026-04-19T12:47:23.971Z</time></trkpt><trkpt lat="44.289345" lon="10.1094717"><ele>383.25</ele><time>2026-04-19T12:47:24.971Z</time></trkpt><trkpt lat="44.2894067" lon="10.1096617"><ele>382.0</ele><time>2026-04-19T12:47:25.971Z</time></trkpt><trkpt lat="44.2894883" lon="10.1098383"><ele>380.66666666666663</ele><time>2026-04-19T12:47:26.972Z</time></trkpt><trkpt lat="44.2895833" lon="10.1100167"><ele>379.3333333333333</ele><time>2026-04-19T12:47:27.971Z</time></trkpt><trkpt lat="44.289675" lon="10.110195"><ele>378.0</ele><time>2026-04-19T12:47:28.971Z</time></trkpt><trkpt lat="44.2897567" lon="10.1103667"><ele>382.25</ele><time>2026-04-19T12:47:29.971Z</time></trkpt><trkpt lat="44.2898367" lon="10.110535"><ele>386.5</ele><time>2026-04-19T12:47:30.971Z</time></trkpt><trkpt lat="44.2899183" lon="10.1107067"><ele>390.75</ele><time>2026-04-19T12:47:31.971Z</time></trkpt><trkpt lat="44.2900033" lon="10.1108633"><ele>395.0</ele><time>2026-04-19T12:47:32.971Z</time></trkpt><trkpt lat="44.2900817" lon="10.111"><ele>395.0</ele><time>2026-04-19T12:47:33.971Z</time></trkpt><trkpt lat="44.2901567" lon="10.1111117"><ele>395.0</ele><time>2026-04-19T12:47:34.971Z</time></trkpt><trkpt lat="44.29023" lon="10.111205"><ele>395.0</ele><time>2026-04-19T12:47:35.971Z</time></trkpt><trkpt lat="44.2902967" lon="10.1112983"><ele>395.0</ele><time>2026-04-19T12:47:36.971Z</time></trkpt><trkpt lat="44.2903433" lon="10.1113933"><ele>395.0</ele><time>2026-04-19T12:47:37.971Z</time></trkpt><trkpt lat="44.2903717" lon="10.1115217"><ele>392.75</ele><time>2026-04-19T12:47:38.971Z</time></trkpt><trkpt lat="44.2903733" lon="10.1116617"><ele>390.5</ele><time>2026-04-19T12:47:39.971Z</time></trkpt><trkpt lat="44.2903617" lon="10.1118267"><ele>388.25</ele><time>2026-04-19T12:47:40.972Z</time></trkpt><trkpt lat="44.2903417" lon="10.1120017"><ele>386.0</ele><time>2026-04-19T12:47:41.971Z</time></trkpt><trkpt lat="44.2903383" lon="10.11218"><ele>386.0</ele><time>2026-04-19T12:47:42.971Z</time></trkpt><trkpt lat="44.2903617" lon="10.1123817"><ele>386.0</ele><time>2026-04-19T12:47:43.971Z</time></trkpt><trkpt lat="44.2904183" lon="10.1125817"><ele>386.0</ele><time>2026-04-19T12:47:44.971Z</time></trkpt><trkpt lat="44.2904683" lon="10.1128017"><ele>386.66666666666663</ele><time>2026-04-19T12:47:45.971Z</time></trkpt><trkpt lat="44.2905167" lon="10.1130217"><ele>387.33333333333337</ele><time>2026-04-19T12:47:46.971Z</time></trkpt><trkpt lat="44.290565" lon="10.1132483"><ele>388.0</ele><time>2026-04-19T12:47:47.971Z</time></trkpt><trkpt lat="44.2906067" lon="10.1134667"><ele>399.0</ele><time>2026-04-19T12:47:48.971Z</time></trkpt><trkpt lat="44.290645" lon="10.1136767"><ele>410.0</ele><time>2026-04-19T12:47:49.971Z</time></trkpt><trkpt lat="44.2906817" lon="10.1138867"><ele>421.0</ele><time>2026-04-19T12:47:50.971Z</time></trkpt><trkpt lat="44.2907167" lon="10.11409"><ele>421.0</ele><time>2026-04-19T12:47:51.971Z</time></trkpt><trkpt lat="44.2907383" lon="10.1142967"><ele>421.0</ele><time>2026-04-19T12:47:52.971Z</time></trkpt><trkpt lat="44.29076" lon="10.1145083"><ele>421.0</ele><time>2026-04-19T12:47:53.971Z</time></trkpt><trkpt lat="44.29078" lon="10.1147017"><ele>421.0</ele><time>2026-04-19T12:47:54.971Z</time></trkpt><trkpt lat="44.2907767" lon="10.1148783"><ele>420.25</ele><time>2026-04-19T12:47:55.971Z</time></trkpt><trkpt lat="44.2907783" lon="10.1150317"><ele>419.5</ele><time>2026-04-19T12:47:56.971Z</time></trkpt><trkpt lat="44.2907967" lon="10.1151883"><ele>418.75</ele><time>2026-04-19T12:47:57.972Z</time></trkpt><trkpt lat="44.29085" lon="10.1153467"><ele>418.0</ele><time>2026-04-19T12:47:58.971Z</time></trkpt><trkpt lat="44.29093" lon="10.1154933"><ele>418.0</ele><time>2026-04-19T12:47:59.971Z</time></trkpt><trkpt lat="44.2910233" lon="10.1156233"><ele>418.0</ele><time>2026-04-19T12:48:00.971Z</time></trkpt><trkpt lat="44.2911117" lon="10.1157417"><ele>418.0</ele><time>2026-04-19T12:48:01.971Z</time></trkpt><trkpt lat="44.2911867" lon="10.115845"><ele>418.0</ele><time>2026-04-19T12:48:02.971Z</time></trkpt><trkpt lat="44.2912617" lon="10.1159333"><ele>417.4</ele><time>2026-04-19T12:48:03.971Z</time></trkpt><trkpt lat="44.2913383" lon="10.1159883"><ele>416.79999999999995</ele><time>2026-04-19T12:48:04.971Z</time></trkpt><trkpt lat="44.2914183" lon="10.11601"><ele>416.2</ele><time>2026-04-19T12:48:05.971Z</time></trkpt><trkpt lat="44.291515" lon="10.1160067"><ele>415.6</ele><time>2026-04-19T12:48:06.971Z</time></trkpt><trkpt lat="44.2916183" lon="10.1159733"><ele>415.0</ele><time>2026-04-19T12:48:07.971Z</time></trkpt><trkpt lat="44.2917267" lon="10.1158983"><ele>419.2</ele><time>2026-04-19T12:48:08.971Z</time></trkpt><trkpt lat="44.2918417" lon="10.1158117"><ele>423.4</ele><time>2026-04-19T12:48:09.971Z</time></trkpt><trkpt lat="44.2919433" lon="10.1157467"><ele>427.6</ele><time>2026-04-19T12:48:10.971Z</time></trkpt><trkpt lat="44.2920333" lon="10.1156933"><ele>431.8</ele><time>2026-04-19T12:48:11.971Z</time></trkpt><trkpt lat="44.29212" lon="10.1156867"><ele>436.0</ele><time>2026-04-19T12:48:12.971Z</time></trkpt><trkpt lat="44.2922033" lon="10.1157267"><ele>436.0</ele><time>2026-04-19T12:48:13.971Z</time></trkpt><trkpt lat="44.29227" lon="10.11582"><ele>436.0</ele><time>2026-04-19T12:48:14.971Z</time></trkpt><trkpt lat="44.2923083" lon="10.11593"><ele>436.0</ele><time>2026-04-19T12:48:15.971Z</time></trkpt><trkpt lat="44.29233" lon="10.11604"><ele>436.0</ele><time>2026-04-19T12:48:16.971Z</time></trkpt><trkpt lat="44.292245" lon="10.116185"><ele>436.0</ele><time>2026-04-19T12:48:18.971Z</time></trkpt><trkpt lat="44.2921767" lon="10.11624"><ele>436.0</ele><time>2026-04-19T12:48:19.971Z</time></trkpt><trkpt lat="44.2920633" lon="10.1162867"><ele>436.0</ele><time>2026-04-19T12:48:20.971Z</time></trkpt><trkpt lat="44.291925" lon="10.1163667"><ele>436.0</ele><time>2026-04-19T12:48:21.971Z</time></trkpt><trkpt lat="44.29178" lon="10.1164667"><ele>436.0</ele><time>2026-04-19T12:48:22.971Z</time></trkpt><trkpt lat="44.2916333" lon="10.1165683"><ele>437.4</ele><time>2026-04-19T12:48:23.971Z</time></trkpt><trkpt lat="44.29149" lon="10.1166417"><ele>438.8</ele><time>2026-04-19T12:48:24.971Z</time></trkpt><trkpt lat="44.2913733" lon="10.1166867"><ele>440.19999999999993</ele><time>2026-04-19T12:48:25.971Z</time></trkpt><trkpt lat="44.29128" lon="10.1167267"><ele>441.59999999999997</ele><time>2026-04-19T12:48:26.971Z</time></trkpt><trkpt lat="44.29121" lon="10.1167683"><ele>443.0</ele><time>2026-04-19T12:48:27.971Z</time></trkpt><trkpt lat="44.2911433" lon="10.11682"><ele>439.4</ele><time>2026-04-19T12:48:28.971Z</time></trkpt><trkpt lat="44.2910967" lon="10.1169167"><ele>435.79999999999995</ele><time>2026-04-19T12:48:29.971Z</time></trkpt><trkpt lat="44.2910883" lon="10.1170367"><ele>432.2</ele><time>2026-04-19T12:48:30.971Z</time></trkpt><trkpt lat="44.2911283" lon="10.117195"><ele>428.6</ele><time>2026-04-19T12:48:31.971Z</time></trkpt><trkpt lat="44.2911917" lon="10.1173833"><ele>425.0</ele><time>2026-04-19T12:48:32.971Z</time></trkpt><trkpt lat="44.29124" lon="10.1175883"><ele>425.0</ele><time>2026-04-19T12:48:33.971Z</time></trkpt><trkpt lat="44.2912833" lon="10.117805"><ele>425.0</ele><time>2026-04-19T12:48:34.971Z</time></trkpt><trkpt lat="44.2913383" lon="10.1180567"><ele>425.0</ele><time>2026-04-19T12:48:35.971Z</time></trkpt><trkpt lat="44.2913633" lon="10.1182967"><ele>425.3333333333333</ele><time>2026-04-19T12:48:36.971Z</time></trkpt><trkpt lat="44.2913917" lon="10.11851"><ele>425.66666666666663</ele><time>2026-04-19T12:48:37.971Z</time></trkpt><trkpt lat="44.29141" lon="10.1187317"><ele>426.0</ele><time>2026-04-19T12:48:38.971Z</time></trkpt><trkpt lat="44.2914267" lon="10.1189417"><ele>441.33333333333337</ele><time>2026-04-19T12:48:39.971Z</time></trkpt><trkpt lat="44.2914433" lon="10.11916"><ele>456.6666666666667</ele><time>2026-04-19T12:48:40.971Z</time></trkpt><trkpt lat="44.2914433" lon="10.1193733"><ele>472.0</ele><time>2026-04-19T12:48:41.971Z</time></trkpt><trkpt lat="44.2914667" lon="10.119595"><ele>472.0</ele><time>2026-04-19T12:48:42.972Z</time></trkpt><trkpt lat="44.2914767" lon="10.119805"><ele>472.0</ele><time>2026-04-19T12:48:43.971Z</time></trkpt><trkpt lat="44.2914967" lon="10.1200117"><ele>472.0</ele><time>2026-04-19T12:48:44.971Z</time></trkpt><trkpt lat="44.2915233" lon="10.1201983"><ele>472.0</ele><time>2026-04-19T12:48:45.971Z</time></trkpt><trkpt lat="44.2915583" lon="10.1203833"><ele>471.25</ele><time>2026-04-19T12:48:46.971Z</time></trkpt><trkpt lat="44.2915933" lon="10.1205733"><ele>470.5</ele><time>2026-04-19T12:48:47.971Z</time></trkpt><trkpt lat="44.291625" lon="10.12076"><ele>469.75</ele><time>2026-04-19T12:48:48.971Z</time></trkpt><trkpt lat="44.2916367" lon="10.1209483"><ele>469.0</ele><time>2026-04-19T12:48:49.971Z</time></trkpt><trkpt lat="44.2916367" lon="10.1211517"><ele>469.0</ele><time>2026-04-19T12:48:50.971Z</time></trkpt><trkpt lat="44.2916167" lon="10.1213567"><ele>469.0</ele><time>2026-04-19T12:48:51.971Z</time></trkpt><trkpt lat="44.2915867" lon="10.1215717"><ele>469.0</ele><time>2026-04-19T12:48:52.971Z</time></trkpt><trkpt lat="44.291545" lon="10.12179"><ele>470.6666666666667</ele><time>2026-04-19T12:48:53.971Z</time></trkpt><trkpt lat="44.2914917" lon="10.1220217"><ele>472.33333333333337</ele><time>2026-04-19T12:48:54.971Z</time></trkpt><trkpt lat="44.29144" lon="10.1222533"><ele>474.0</ele><time>2026-04-19T12:48:55.971Z</time></trkpt><trkpt lat="44.2914067" lon="10.122475"><ele>471.75</ele><time>2026-04-19T12:48:56.971Z</time></trkpt><trkpt lat="44.2913667" lon="10.1226683"><ele>469.5</ele><time>2026-04-19T12:48:57.971Z</time></trkpt><trkpt lat="44.2913283" lon="10.1228583"><ele>467.25</ele><time>2026-04-19T12:48:58.971Z</time></trkpt><trkpt lat="44.2913" lon="10.123055"><ele>465.0</ele><time>2026-04-19T12:48:59.971Z</time></trkpt><trkpt lat="44.2912667" lon="10.1232533"><ele>465.0</ele><time>2026-04-19T12:49:00.971Z</time></trkpt><trkpt lat="44.2912517" lon="10.1234667"><ele>465.0</ele><time>2026-04-19T12:49:01.971Z</time></trkpt><trkpt lat="44.2912483" lon="10.1236767"><ele>465.0</ele><time>2026-04-19T12:49:02.971Z</time></trkpt><trkpt lat="44.2912533" lon="10.123895"><ele>466.25</ele><time>2026-04-19T12:49:03.971Z</time></trkpt><trkpt lat="44.2912667" lon="10.1240817"><ele>467.5</ele><time>2026-04-19T12:49:04.971Z</time></trkpt><trkpt lat="44.291285" lon="10.1242467"><ele>468.75</ele><time>2026-04-19T12:49:05.971Z</time></trkpt><trkpt lat="44.2913217" lon="10.1244133"><ele>470.0</ele><time>2026-04-19T12:49:06.971Z</time></trkpt><trkpt lat="44.29138" lon="10.1245833"><ele>476.25</ele><time>2026-04-19T12:49:07.971Z</time></trkpt><trkpt lat="44.2914417" lon="10.1247283"><ele>482.5</ele><time>2026-04-19T12:49:08.971Z</time></trkpt><trkpt lat="44.29151" lon="10.1248617"><ele>488.75</ele><time>2026-04-19T12:49:09.971Z</time></trkpt><trkpt lat="44.2915733" lon="10.1249917"><ele>495.0</ele><time>2026-04-19T12:49:10.971Z</time></trkpt><trkpt lat="44.2916283" lon="10.12514"><ele>495.0</ele><time>2026-04-19T12:49:11.971Z</time></trkpt><trkpt lat="44.29168" lon="10.12529"><ele>495.0</ele><time>2026-04-19T12:49:12.971Z</time></trkpt><trkpt lat="44.2917283" lon="10.1254483"><ele>495.0</ele><time>2026-04-19T12:49:13.971Z</time></trkpt><trkpt lat="44.2917817" lon="10.1256017"><ele>495.0</ele><time>2026-04-19T12:49:14.971Z</time></trkpt><trkpt lat="44.29184" lon="10.125745"><ele>494.5</ele><time>2026-04-19T12:49:15.971Z</time></trkpt><trkpt lat="44.2919017" lon="10.1258583"><ele>494.0</ele><time>2026-04-19T12:49:16.971Z</time></trkpt><trkpt lat="44.2919883" lon="10.1259633"><ele>493.5</ele><time>2026-04-19T12:49:17.971Z</time></trkpt><trkpt lat="44.2920917" lon="10.12603"><ele>493.0</ele><time>2026-04-19T12:49:18.971Z</time></trkpt><trkpt lat="44.2922083" lon="10.126065"><ele>497.79999999999995</ele><time>2026-04-19T12:49:19.971Z</time></trkpt><trkpt lat="44.2923317" lon="10.1260783"><ele>502.59999999999997</ele><time>2026-04-19T12:49:20.971Z</time></trkpt><trkpt lat="44.2924517" lon="10.1260817"><ele>507.40000000000003</ele><time>2026-04-19T12:49:21.971Z</time></trkpt><trkpt lat="44.2925533" lon="10.12609"><ele>512.2</ele><time>2026-04-19T12:49:22.971Z</time></trkpt><trkpt lat="44.2926367" lon="10.126115"><ele>517.0</ele><time>2026-04-19T12:49:23.971Z</time></trkpt><trkpt lat="44.2927" lon="10.1261667"><ele>517.0</ele><time>2026-04-19T12:49:24.971Z</time></trkpt><trkpt lat="44.2927417" lon="10.1262333"><ele>517.0</ele><time>2026-04-19T12:49:25.971Z</time></trkpt><trkpt lat="44.2927633" lon="10.1263167"><ele>517.0</ele><time>2026-04-19T12:49:26.971Z</time></trkpt><trkpt lat="44.29274" lon="10.1264117"><ele>517.0</ele><time>2026-04-19T12:49:27.971Z</time></trkpt><trkpt lat="44.292675" lon="10.126495"><ele>517.0</ele><time>2026-04-19T12:49:28.971Z</time></trkpt><trkpt lat="44.2925867" lon="10.1265733"><ele>517.0</ele><time>2026-04-19T12:49:29.971Z</time></trkpt><trkpt lat="44.2924867" lon="10.1266767"><ele>514.75</ele><time>2026-04-19T12:49:30.971Z</time></trkpt><trkpt lat="44.2923667" lon="10.12677"><ele>512.5</ele><time>2026-04-19T12:49:31.971Z</time></trkpt><trkpt lat="44.2922233" lon="10.126835"><ele>510.25</ele><time>2026-04-19T12:49:32.971Z</time></trkpt><trkpt lat="44.2920933" lon="10.12688"><ele>508.0</ele><time>2026-04-19T12:49:33.971Z</time></trkpt><trkpt lat="44.2919783" lon="10.1268983"><ele>508.0</ele><time>2026-04-19T12:49:34.971Z</time></trkpt><trkpt lat="44.2918433" lon="10.1268833"><ele>508.0</ele><time>2026-04-19T12:49:35.971Z</time></trkpt><trkpt lat="44.291725" lon="10.1268517"><ele>508.0</ele><time>2026-04-19T12:49:36.971Z</time></trkpt><trkpt lat="44.291615" lon="10.1267967"><ele>508.0</ele><time>2026-04-19T12:49:37.971Z</time></trkpt><trkpt lat="44.2915267" lon="10.1267217"><ele>508.00000000000006</ele><time>2026-04-19T12:49:38.971Z</time></trkpt><trkpt lat="44.2914383" lon="10.1266583"><ele>508.0</ele><time>2026-04-19T12:49:39.971Z</time></trkpt><trkpt lat="44.2913633" lon="10.1266067"><ele>508.0</ele><time>2026-04-19T12:49:40.971Z</time></trkpt><trkpt lat="44.291275" lon="10.126595"><ele>508.0</ele><time>2026-04-19T12:49:41.971Z</time></trkpt><trkpt lat="44.29119" lon="10.1266167"><ele>508.00000000000006</ele><time>2026-04-19T12:49:42.971Z</time></trkpt><trkpt lat="44.2911133" lon="10.126675"><ele>508.0</ele><time>2026-04-19T12:49:43.971Z</time></trkpt><trkpt lat="44.291055" lon="10.12679"><ele>507.25</ele><time>2026-04-19T12:49:44.971Z</time></trkpt><trkpt lat="44.2910017" lon="10.126915"><ele>506.5</ele><time>2026-04-19T12:49:45.971Z</time></trkpt><trkpt lat="44.2909533" lon="10.1270633"><ele>505.75</ele><time>2026-04-19T12:49:46.971Z</time></trkpt><trkpt lat="44.290905" lon="10.1272233"><ele>505.0</ele><time>2026-04-19T12:49:47.971Z</time></trkpt><trkpt lat="44.2908633" lon="10.1273733"><ele>507.6</ele><time>2026-04-19T12:49:48.971Z</time></trkpt><trkpt lat="44.2908233" lon="10.12751"><ele>510.2</ele><time>2026-04-19T12:49:49.971Z</time></trkpt><trkpt lat="44.2907933" lon="10.1276567"><ele>512.8</ele><time>2026-04-19T12:49:50.971Z</time></trkpt><trkpt lat="44.2907683" lon="10.1277767"><ele>515.4</ele><time>2026-04-19T12:49:51.971Z</time></trkpt><trkpt lat="44.290745" lon="10.1278967"><ele>518.0</ele><time>2026-04-19T12:49:52.971Z</time></trkpt><trkpt lat="44.29075" lon="10.1280217"><ele>518.0</ele><time>2026-04-19T12:49:53.971Z</time></trkpt><trkpt lat="44.2907633" lon="10.1281533"><ele>518.0</ele><time>2026-04-19T12:49:54.971Z</time></trkpt><trkpt lat="44.2907983" lon="10.1283033"><ele>518.0</ele><time>2026-04-19T12:49:55.971Z</time></trkpt><trkpt lat="44.290835" lon="10.1284483"><ele>518.0</ele><time>2026-04-19T12:49:56.971Z</time></trkpt><trkpt lat="44.290875" lon="10.1285867"><ele>518.0</ele><time>2026-04-19T12:49:57.971Z</time></trkpt><trkpt lat="44.2909133" lon="10.1287233"><ele>518.8333333333333</ele><time>2026-04-19T12:49:58.971Z</time></trkpt><trkpt lat="44.2909517" lon="10.1288483"><ele>519.6666666666666</ele><time>2026-04-19T12:49:59.971Z</time></trkpt><trkpt lat="44.29098" lon="10.128955"><ele>520.5</ele><time>2026-04-19T12:50:00.971Z</time></trkpt><trkpt lat="44.2909933" lon="10.1290667"><ele>521.3333333333334</ele><time>2026-04-19T12:50:01.972Z</time></trkpt><trkpt lat="44.29101" lon="10.1291883"><ele>522.1666666666667</ele><time>2026-04-19T12:50:02.971Z</time></trkpt><trkpt lat="44.2910233" lon="10.12931"><ele>523.0</ele><time>2026-04-19T12:50:03.971Z</time></trkpt><trkpt lat="44.2910367" lon="10.1294267"><ele>523.3333333333334</ele><time>2026-04-19T12:50:04.971Z</time></trkpt><trkpt lat="44.29106" lon="10.1295417"><ele>523.6666666666667</ele><time>2026-04-19T12:50:05.971Z</time></trkpt><trkpt lat="44.2910967" lon="10.1296517"><ele>524.0</ele><time>2026-04-19T12:50:06.971Z</time></trkpt><trkpt lat="44.2911483" lon="10.1297683"><ele>524.3333333333334</ele><time>2026-04-19T12:50:07.971Z</time></trkpt><trkpt lat="44.2912" lon="10.129875"><ele>524.6666666666666</ele><time>2026-04-19T12:50:08.971Z</time></trkpt><trkpt lat="44.2912483" lon="10.12997"><ele>525.0</ele><time>2026-04-19T12:50:09.971Z</time></trkpt><trkpt lat="44.29128" lon="10.1300467"><ele>525.6666666666666</ele><time>2026-04-19T12:50:10.971Z</time></trkpt><trkpt lat="44.2913367" lon="10.1301817"><ele>526.3333333333334</ele><time>2026-04-19T12:50:12.971Z</time></trkpt><trkpt lat="44.2913933" lon="10.130305"><ele>527.0</ele><time>2026-04-19T12:50:14.971Z</time></trkpt><trkpt lat="44.2914483" lon="10.130385"><ele>527.6666666666667</ele><time>2026-04-19T12:50:16.972Z</time></trkpt><trkpt lat="44.2915017" lon="10.1304383"><ele>528.3333333333334</ele><time>2026-04-19T12:50:18.971Z</time></trkpt><trkpt lat="44.2915833" lon="10.13046"><ele>529.0</ele><time>2026-04-19T12:50:22.971Z</time></trkpt><trkpt lat="44.2916517" lon="10.1304717"><ele>529.8</ele><time>2026-04-19T12:50:47.97Z</time></trkpt><trkpt lat="44.2917217" lon="10.1305267"><ele>530.5999999999999</ele><time>2026-04-19T12:50:50.97Z</time></trkpt><trkpt lat="44.2917383" lon="10.1306133"><ele>531.4</ele><time>2026-04-19T12:50:52.97Z</time></trkpt><trkpt lat="44.2916883" lon="10.1307567"><ele>532.1999999999999</ele><time>2026-04-19T12:50:54.97Z</time></trkpt><trkpt lat="44.2916383" lon="10.1308433"><ele>533.0</ele><time>2026-04-19T12:50:55.97Z</time></trkpt><trkpt lat="44.2915517" lon="10.1310433"><ele>533.0</ele><time>2026-04-19T12:50:57.97Z</time></trkpt><trkpt lat="44.2915083" lon="10.1311633"><ele>533.0</ele><time>2026-04-19T12:50:58.97Z</time></trkpt><trkpt lat="44.29147" lon="10.1312783"><ele>533.0</ele><time>2026-04-19T12:50:59.97Z</time></trkpt><trkpt lat="44.2914283" lon="10.1314083"><ele>533.0</ele><time>2026-04-19T12:51:00.97Z</time></trkpt><trkpt lat="44.291405" lon="10.1315467"><ele>533.0</ele><time>2026-04-19T12:51:01.97Z</time></trkpt><trkpt lat="44.2913983" lon="10.1316933"><ele>530.8333333333333</ele><time>2026-04-19T12:51:02.97Z</time></trkpt><trkpt lat="44.291395" lon="10.13184"><ele>528.6666666666666</ele><time>2026-04-19T12:51:03.97Z</time></trkpt><trkpt lat="44.29141" lon="10.1319733"><ele>526.5</ele><time>2026-04-19T12:51:04.97Z</time></trkpt><trkpt lat="44.2914267" lon="10.13208"><ele>524.3333333333334</ele><time>2026-04-19T12:51:05.97Z</time></trkpt><trkpt lat="44.2914417" lon="10.13217"><ele>522.1666666666667</ele><time>2026-04-19T12:51:06.97Z</time></trkpt><trkpt lat="44.29146" lon="10.1323117"><ele>520.0</ele><time>2026-04-19T12:51:08.97Z</time></trkpt><trkpt lat="44.2914817" lon="10.1324183"><ele>519.0</ele><time>2026-04-19T12:51:10.97Z</time></trkpt><trkpt lat="44.2915133" lon="10.1325217"><ele>518.0</ele><time>2026-04-19T12:51:13.97Z</time></trkpt><trkpt lat="44.2915517" lon="10.1325917"><ele>517.0</ele><time>2026-04-19T12:51:19.97Z</time></trkpt><trkpt lat="44.2916333" lon="10.1326667"><ele>516.0</ele><time>2026-04-19T12:51:22.97Z</time></trkpt><trkpt lat="44.2917233" lon="10.1327617"><ele>515.0</ele><time>2026-04-19T12:51:24.97Z</time></trkpt><trkpt lat="44.291795" lon="10.1328217"><ele>514.0</ele><time>2026-04-19T12:51:26.97Z</time></trkpt><trkpt lat="44.291855" lon="10.1328567"><ele>514.0</ele><time>2026-04-19T12:51:30.97Z</time></trkpt><trkpt lat="44.2918683" lon="10.132945"><ele>514.0</ele><time>2026-04-19T12:51:33.97Z</time></trkpt><trkpt lat="44.291785" lon="10.1329867"><ele>514.0</ele><time>2026-04-19T12:51:36.97Z</time></trkpt><trkpt lat="44.2916933" lon="10.1330083"><ele>514.0</ele><time>2026-04-19T12:51:38.97Z</time></trkpt><trkpt lat="44.291585" lon="10.1330583"><ele>514.0</ele><time>2026-04-19T12:51:40.97Z</time></trkpt><trkpt lat="44.2915217" lon="10.133085"><ele>514.0</ele><time>2026-04-19T12:51:41.97Z</time></trkpt><trkpt lat="44.2914517" lon="10.1331183"><ele>512.8</ele><time>2026-04-19T12:51:42.97Z</time></trkpt><trkpt lat="44.2913733" lon="10.1331467"><ele>511.59999999999997</ele><time>2026-04-19T12:51:43.97Z</time></trkpt><trkpt lat="44.2912867" lon="10.1331733"><ele>510.4</ele><time>2026-04-19T12:51:44.97Z</time></trkpt><trkpt lat="44.2911933" lon="10.1331983"><ele>509.2</ele><time>2026-04-19T12:51:45.97Z</time></trkpt><trkpt lat="44.2910983" lon="10.133225"><ele>508.0</ele><time>2026-04-19T12:51:46.97Z</time></trkpt><trkpt lat="44.29101" lon="10.1332483"><ele>507.6666666666667</ele><time>2026-04-19T12:51:47.97Z</time></trkpt><trkpt lat="44.2909283" lon="10.1332767"><ele>507.33333333333337</ele><time>2026-04-19T12:51:48.97Z</time></trkpt><trkpt lat="44.29085" lon="10.13331"><ele>507.0</ele><time>2026-04-19T12:51:49.97Z</time></trkpt><trkpt lat="44.2907833" lon="10.1333583"><ele>506.66666666666663</ele><time>2026-04-19T12:51:50.97Z</time></trkpt><trkpt lat="44.29072" lon="10.1334233"><ele>506.3333333333333</ele><time>2026-04-19T12:51:51.971Z</time></trkpt><trkpt lat="44.29067" lon="10.1335183"><ele>506.0</ele><time>2026-04-19T12:51:52.97Z</time></trkpt><trkpt lat="44.2906383" lon="10.133625"><ele>505.99999999999994</ele><time>2026-04-19T12:51:53.97Z</time></trkpt><trkpt lat="44.2906367" lon="10.1337433"><ele>506.0</ele><time>2026-04-19T12:51:54.97Z</time></trkpt><trkpt lat="44.2906517" lon="10.1338617"><ele>506.0</ele><time>2026-04-19T12:51:55.97Z</time></trkpt><trkpt lat="44.290675" lon="10.1339667"><ele>506.0</ele><time>2026-04-19T12:51:56.97Z</time></trkpt><trkpt lat="44.290715" lon="10.13406"><ele>505.99999999999994</ele><time>2026-04-19T12:51:57.97Z</time></trkpt><trkpt lat="44.2907683" lon="10.134145"><ele>506.0</ele><time>2026-04-19T12:51:58.97Z</time></trkpt><trkpt lat="44.2908417" lon="10.13421"><ele>505.20000000000005</ele><time>2026-04-19T12:51:59.97Z</time></trkpt><trkpt lat="44.2909383" lon="10.13421"><ele>504.40000000000003</ele><time>2026-04-19T12:52:00.97Z</time></trkpt><trkpt lat="44.2910417" lon="10.1342067"><ele>503.6</ele><time>2026-04-19T12:52:01.97Z</time></trkpt><trkpt lat="44.291155" lon="10.134175"><ele>502.8</ele><time>2026-04-19T12:52:02.97Z</time></trkpt><trkpt lat="44.2912583" lon="10.13415"><ele>502.0</ele><time>2026-04-19T12:52:03.97Z</time></trkpt><trkpt lat="44.291425" lon="10.1341067"><ele>502.0</ele><time>2026-04-19T12:52:05.97Z</time></trkpt><trkpt lat="44.2915033" lon="10.1341217"><ele>502.00000000000006</ele><time>2026-04-19T12:52:06.97Z</time></trkpt><trkpt lat="44.29158" lon="10.134175"><ele>502.00000000000006</ele><time>2026-04-19T12:52:07.97Z</time></trkpt><trkpt lat="44.2916583" lon="10.134255"><ele>502.0</ele><time>2026-04-19T12:52:08.97Z</time></trkpt><trkpt lat="44.291725" lon="10.1343683"><ele>502.0</ele><time>2026-04-19T12:52:09.97Z</time></trkpt><trkpt lat="44.2917883" lon="10.1344917"><ele>502.0</ele><time>2026-04-19T12:52:10.97Z</time></trkpt><trkpt lat="44.291845" lon="10.1346067"><ele>502.00000000000006</ele><time>2026-04-19T12:52:11.97Z</time></trkpt><trkpt lat="44.2918817" lon="10.1347183"><ele>502.00000000000006</ele><time>2026-04-19T12:52:12.97Z</time></trkpt><trkpt lat="44.291905" lon="10.13484"><ele>502.0</ele><time>2026-04-19T12:52:13.97Z</time></trkpt><trkpt lat="44.2919133" lon="10.1349733"><ele>502.0</ele><time>2026-04-19T12:52:14.97Z</time></trkpt><trkpt lat="44.291915" lon="10.1351183"><ele>500.40000000000003</ele><time>2026-04-19T12:52:15.97Z</time></trkpt><trkpt lat="44.2919" lon="10.1352517"><ele>498.80000000000007</ele><time>2026-04-19T12:52:16.97Z</time></trkpt><trkpt lat="44.2918717" lon="10.1353717"><ele>497.2</ele><time>2026-04-19T12:52:17.97Z</time></trkpt><trkpt lat="44.29183" lon="10.1354867"><ele>495.6</ele><time>2026-04-19T12:52:18.97Z</time></trkpt><trkpt lat="44.2917883" lon="10.1356133"><ele>494.0</ele><time>2026-04-19T12:52:19.97Z</time></trkpt><trkpt lat="44.2917417" lon="10.135735"><ele>492.8333333333333</ele><time>2026-04-19T12:52:20.97Z</time></trkpt><trkpt lat="44.2917" lon="10.1358533"><ele>491.66666666666663</ele><time>2026-04-19T12:52:21.97Z</time></trkpt><trkpt lat="44.29168" lon="10.13596"><ele>490.5</ele><time>2026-04-19T12:52:22.97Z</time></trkpt><trkpt lat="44.2916733" lon="10.1360633"><ele>489.33333333333337</ele><time>2026-04-19T12:52:23.97Z</time></trkpt><trkpt lat="44.2916817" lon="10.13616"><ele>488.1666666666667</ele><time>2026-04-19T12:52:24.97Z</time></trkpt><trkpt lat="44.2917217" lon="10.1362783"><ele>487.0</ele><time>2026-04-19T12:52:25.97Z</time></trkpt><trkpt lat="44.2917767" lon="10.136405"><ele>487.0</ele><time>2026-04-19T12:52:26.97Z</time></trkpt><trkpt lat="44.29181" lon="10.136525"><ele>487.00000000000006</ele><time>2026-04-19T12:52:27.97Z</time></trkpt><trkpt lat="44.29182" lon="10.13664"><ele>487.00000000000006</ele><time>2026-04-19T12:52:28.97Z</time></trkpt><trkpt lat="44.2917983" lon="10.1367367"><ele>487.0</ele><time>2026-04-19T12:52:29.97Z</time></trkpt><trkpt lat="44.2917317" lon="10.136835"><ele>487.0</ele><time>2026-04-19T12:52:30.97Z</time></trkpt><trkpt lat="44.291645" lon="10.1369417"><ele>486.0</ele><time>2026-04-19T12:52:31.97Z</time></trkpt><trkpt lat="44.291545" lon="10.137045"><ele>485.00000000000006</ele><time>2026-04-19T12:52:32.97Z</time></trkpt><trkpt lat="44.2914433" lon="10.13713"><ele>484.00000000000006</ele><time>2026-04-19T12:52:33.97Z</time></trkpt><trkpt lat="44.2913517" lon="10.1372"><ele>483.0</ele><time>2026-04-19T12:52:34.97Z</time></trkpt><trkpt lat="44.2912633" lon="10.13726"><ele>482.0</ele><time>2026-04-19T12:52:35.97Z</time></trkpt><trkpt lat="44.29119" lon="10.1373317"><ele>479.8333333333333</ele><time>2026-04-19T12:52:36.97Z</time></trkpt><trkpt lat="44.2911317" lon="10.1374133"><ele>477.66666666666663</ele><time>2026-04-19T12:52:37.97Z</time></trkpt><trkpt lat="44.2910883" lon="10.1375017"><ele>475.5</ele><time>2026-04-19T12:52:38.97Z</time></trkpt><trkpt lat="44.291065" lon="10.137595"><ele>473.33333333333337</ele><time>2026-04-19T12:52:39.97Z</time></trkpt><trkpt lat="44.29105" lon="10.137755"><ele>471.1666666666667</ele><time>2026-04-19T12:52:41.971Z</time></trkpt><trkpt lat="44.2910283" lon="10.1378767"><ele>469.0</ele><time>2026-04-19T12:52:43.97Z</time></trkpt><trkpt lat="44.290975" lon="10.1379967"><ele>469.0</ele><time>2026-04-19T12:52:45.97Z</time></trkpt><trkpt lat="44.290885" lon="10.1381067"><ele>469.0</ele><time>2026-04-19T12:52:47.97Z</time></trkpt><trkpt lat="44.2908267" lon="10.13817"><ele>469.0</ele><time>2026-04-19T12:52:48.97Z</time></trkpt><trkpt lat="44.2907383" lon="10.1382833"><ele>469.0</ele><time>2026-04-19T12:52:50.97Z</time></trkpt><trkpt lat="44.29064" lon="10.1384033"><ele>469.0</ele><time>2026-04-19T12:52:52.97Z</time></trkpt><trkpt lat="44.2905883" lon="10.1384717"><ele>470.0</ele><time>2026-04-19T12:52:53.97Z</time></trkpt><trkpt lat="44.2905333" lon="10.138535"><ele>471.0</ele><time>2026-04-19T12:52:54.97Z</time></trkpt><trkpt lat="44.2904667" lon="10.1385933"><ele>472.0</ele><time>2026-04-19T12:52:55.97Z</time></trkpt><trkpt lat="44.2904017" lon="10.1386417"><ele>473.0</ele><time>2026-04-19T12:52:56.97Z</time></trkpt><trkpt lat="44.290335" lon="10.13868"><ele>474.0</ele><time>2026-04-19T12:52:57.97Z</time></trkpt><trkpt lat="44.29026" lon="10.1386783"><ele>475.0</ele><time>2026-04-19T12:52:58.97Z</time></trkpt><trkpt lat="44.2901917" lon="10.1386417"><ele>476.0</ele><time>2026-04-19T12:52:59.97Z</time></trkpt><trkpt lat="44.2901233" lon="10.1385833"><ele>475.99999999999994</ele><time>2026-04-19T12:53:00.97Z</time></trkpt><trkpt lat="44.29006" lon="10.1384917"><ele>476.0</ele><time>2026-04-19T12:53:01.97Z</time></trkpt><trkpt lat="44.2899967" lon="10.13841"><ele>476.0</ele><time>2026-04-19T12:53:02.97Z</time></trkpt><trkpt lat="44.28994" lon="10.1383517"><ele>476.0</ele><time>2026-04-19T12:53:03.97Z</time></trkpt><trkpt lat="44.2898733" lon="10.1383217"><ele>475.99999999999994</ele><time>2026-04-19T12:53:04.97Z</time></trkpt><trkpt lat="44.2898033" lon="10.138315"><ele>476.0</ele><time>2026-04-19T12:53:05.97Z</time></trkpt><trkpt lat="44.2897117" lon="10.1383267"><ele>477.6</ele><time>2026-04-19T12:53:06.97Z</time></trkpt><trkpt lat="44.28962" lon="10.138345"><ele>479.20000000000005</ele><time>2026-04-19T12:53:07.97Z</time></trkpt><trkpt lat="44.2895283" lon="10.13837"><ele>480.79999999999995</ele><time>2026-04-19T12:53:08.97Z</time></trkpt><trkpt lat="44.289425" lon="10.1383967"><ele>482.4</ele><time>2026-04-19T12:53:09.97Z</time></trkpt><trkpt lat="44.2893283" lon="10.1384133"><ele>484.0</ele><time>2026-04-19T12:53:10.97Z</time></trkpt><trkpt lat="44.2892267" lon="10.1384283"><ele>484.0</ele><time>2026-04-19T12:53:11.97Z</time></trkpt><trkpt lat="44.2891183" lon="10.1384417"><ele>484.0</ele><time>2026-04-19T12:53:12.97Z</time></trkpt><trkpt lat="44.28902" lon="10.1384667"><ele>484.0</ele><time>2026-04-19T12:53:13.97Z</time></trkpt><trkpt lat="44.2889267" lon="10.1384883"><ele>484.0</ele><time>2026-04-19T12:53:14.97Z</time></trkpt><trkpt lat="44.288835" lon="10.138505"><ele>484.0</ele><time>2026-04-19T12:53:15.97Z</time></trkpt><trkpt lat="44.28874" lon="10.1384967"><ele>486.2</ele><time>2026-04-19T12:53:16.97Z</time></trkpt><trkpt lat="44.2886417" lon="10.13848"><ele>488.4</ele><time>2026-04-19T12:53:17.97Z</time></trkpt><trkpt lat="44.2885367" lon="10.1384633"><ele>490.6</ele><time>2026-04-19T12:53:18.97Z</time></trkpt><trkpt lat="44.28845" lon="10.138395"><ele>492.8</ele><time>2026-04-19T12:53:19.97Z</time></trkpt><trkpt lat="44.2883733" lon="10.13829"><ele>495.0</ele><time>2026-04-19T12:53:20.97Z</time></trkpt><trkpt lat="44.2883067" lon="10.1381517"><ele>495.0</ele><time>2026-04-19T12:53:21.97Z</time></trkpt><trkpt lat="44.2882433" lon="10.137995"><ele>495.0</ele><time>2026-04-19T12:53:22.97Z</time></trkpt><trkpt lat="44.2881767" lon="10.1378383"><ele>495.0</ele><time>2026-04-19T12:53:23.97Z</time></trkpt><trkpt lat="44.2880717" lon="10.1376933"><ele>495.0</ele><time>2026-04-19T12:53:24.97Z</time></trkpt><trkpt lat="44.28796" lon="10.1375533"><ele>500.75</ele><time>2026-04-19T12:53:25.97Z</time></trkpt><trkpt lat="44.2878533" lon="10.1374233"><ele>506.5</ele><time>2026-04-19T12:53:26.97Z</time></trkpt><trkpt lat="44.2877567" lon="10.1373017"><ele>512.25</ele><time>2026-04-19T12:53:27.97Z</time></trkpt><trkpt lat="44.2876783" lon="10.137205"><ele>518.0</ele><time>2026-04-19T12:53:28.97Z</time></trkpt><trkpt lat="44.2876067" lon="10.137105"><ele>518.0</ele><time>2026-04-19T12:53:29.97Z</time></trkpt><trkpt lat="44.2875433" lon="10.1370017"><ele>518.0</ele><time>2026-04-19T12:53:30.97Z</time></trkpt><trkpt lat="44.2874783" lon="10.136895"><ele>518.0</ele><time>2026-04-19T12:53:31.97Z</time></trkpt><trkpt lat="44.28746" lon="10.1367867"><ele>518.0</ele><time>2026-04-19T12:53:32.97Z</time></trkpt><trkpt lat="44.2874383" lon="10.1366817"><ele>518.0</ele><time>2026-04-19T12:53:33.97Z</time></trkpt><trkpt lat="44.287395" lon="10.13659"><ele>518.0</ele><time>2026-04-19T12:53:34.97Z</time></trkpt><trkpt lat="44.2873483" lon="10.13652"><ele>517.8333333333333</ele><time>2026-04-19T12:53:35.97Z</time></trkpt><trkpt lat="44.287285" lon="10.1364667"><ele>517.6666666666666</ele><time>2026-04-19T12:53:36.97Z</time></trkpt><trkpt lat="44.28721" lon="10.136435"><ele>517.5</ele><time>2026-04-19T12:53:37.97Z</time></trkpt><trkpt lat="44.2871283" lon="10.136425"><ele>517.3333333333334</ele><time>2026-04-19T12:53:38.97Z</time></trkpt><trkpt lat="44.2870417" lon="10.1364133"><ele>517.1666666666667</ele><time>2026-04-19T12:53:39.97Z</time></trkpt><trkpt lat="44.2869533" lon="10.1364067"><ele>517.0</ele><time>2026-04-19T12:53:40.97Z</time></trkpt><trkpt lat="44.28685" lon="10.136395"><ele>517.0</ele><time>2026-04-19T12:53:41.97Z</time></trkpt><trkpt lat="44.2867383" lon="10.1363717"><ele>517.0</ele><time>2026-04-19T12:53:42.97Z</time></trkpt><trkpt lat="44.2866233" lon="10.1363417"><ele>517.0</ele><time>2026-04-19T12:53:43.97Z</time></trkpt><trkpt lat="44.2865083" lon="10.136305"><ele>517.0</ele><time>2026-04-19T12:53:44.97Z</time></trkpt><trkpt lat="44.2863983" lon="10.13628"><ele>520.2</ele><time>2026-04-19T12:53:45.97Z</time></trkpt><trkpt lat="44.2862833" lon="10.1362667"><ele>523.4000000000001</ele><time>2026-04-19T12:53:46.97Z</time></trkpt><trkpt lat="44.2861717" lon="10.13627"><ele>526.5999999999999</ele><time>2026-04-19T12:53:47.97Z</time></trkpt><trkpt lat="44.2860633" lon="10.1362983"><ele>529.8</ele><time>2026-04-19T12:53:48.97Z</time></trkpt><trkpt lat="44.2859617" lon="10.1363417"><ele>533.0</ele><time>2026-04-19T12:53:49.97Z</time></trkpt><trkpt lat="44.285865" lon="10.1364"><ele>533.0</ele><time>2026-04-19T12:53:50.97Z</time></trkpt><trkpt lat="44.2857933" lon="10.1364917"><ele>533.0</ele><time>2026-04-19T12:53:51.97Z</time></trkpt><trkpt lat="44.2857333" lon="10.136605"><ele>533.0</ele><time>2026-04-19T12:53:52.97Z</time></trkpt><trkpt lat="44.2856933" lon="10.1367233"><ele>533.0</ele><time>2026-04-19T12:53:53.97Z</time></trkpt><trkpt lat="44.2856617" lon="10.1368567"><ele>533.0</ele><time>2026-04-19T12:53:54.97Z</time></trkpt><trkpt lat="44.2856333" lon="10.1369833"><ele>534.3333333333333</ele><time>2026-04-19T12:53:55.97Z</time></trkpt><trkpt lat="44.2856067" lon="10.137115"><ele>535.6666666666666</ele><time>2026-04-19T12:53:56.97Z</time></trkpt><trkpt lat="44.2855817" lon="10.1372333"><ele>537.0</ele><time>2026-04-19T12:53:57.97Z</time></trkpt><trkpt lat="44.2855683" lon="10.1373383"><ele>538.3333333333334</ele><time>2026-04-19T12:53:58.97Z</time></trkpt><trkpt lat="44.2855833" lon="10.1374283"><ele>539.6666666666667</ele><time>2026-04-19T12:53:59.97Z</time></trkpt><trkpt lat="44.2856167" lon="10.1375183"><ele>541.0</ele><time>2026-04-19T12:54:00.97Z</time></trkpt><trkpt lat="44.2856683" lon="10.1376033"><ele>544.0</ele><time>2026-04-19T12:54:01.97Z</time></trkpt><trkpt lat="44.28574" lon="10.1376817"><ele>547.0</ele><time>2026-04-19T12:54:02.97Z</time></trkpt><trkpt lat="44.2858233" lon="10.1377583"><ele>550.0</ele><time>2026-04-19T12:54:03.97Z</time></trkpt><trkpt lat="44.2859133" lon="10.1378367"><ele>553.0</ele><time>2026-04-19T12:54:04.97Z</time></trkpt><trkpt lat="44.2859983" lon="10.13791"><ele>556.0</ele><time>2026-04-19T12:54:05.97Z</time></trkpt><trkpt lat="44.2860767" lon="10.1379817"><ele>556.0</ele><time>2026-04-19T12:54:06.97Z</time></trkpt><trkpt lat="44.2861467" lon="10.1380383"><ele>556.0</ele><time>2026-04-19T12:54:07.97Z</time></trkpt><trkpt lat="44.2862117" lon="10.13807"><ele>556.0</ele><time>2026-04-19T12:54:08.97Z</time></trkpt><trkpt lat="44.2862767" lon="10.1380617"><ele>556.0</ele><time>2026-04-19T12:54:09.97Z</time></trkpt><trkpt lat="44.286385" lon="10.1380017"><ele>556.0</ele><time>2026-04-19T12:54:11.97Z</time></trkpt><trkpt lat="44.28649" lon="10.1379717"><ele>556.0</ele><time>2026-04-19T12:54:13.97Z</time></trkpt><trkpt lat="44.286545" lon="10.1380617"><ele>556.0</ele><time>2026-04-19T12:54:15.97Z</time></trkpt><trkpt lat="44.2864867" lon="10.1381467"><ele>556.0</ele><time>2026-04-19T12:54:17.97Z</time></trkpt><trkpt lat="44.2864183" lon="10.13819"><ele>556.0</ele><time>2026-04-19T12:54:18.97Z</time></trkpt><trkpt lat="44.2863433" lon="10.1382183"><ele>556.0</ele><time>2026-04-19T12:54:19.97Z</time></trkpt><trkpt lat="44.2862517" lon="10.138235"><ele>556.0</ele><time>2026-04-19T12:54:20.97Z</time></trkpt><trkpt lat="44.2861067" lon="10.13824"><ele>564.0</ele><time>2026-04-19T12:54:21.97Z</time></trkpt><trkpt lat="44.2859567" lon="10.1382617"><ele>572.0</ele><time>2026-04-19T12:54:22.97Z</time></trkpt><trkpt lat="44.2858083" lon="10.1382983"><ele>580.0</ele><time>2026-04-19T12:54:23.97Z</time></trkpt><trkpt lat="44.28565" lon="10.1383483"><ele>584.3333333333334</ele><time>2026-04-19T12:54:24.97Z</time></trkpt><trkpt lat="44.285495" lon="10.1384033"><ele>588.6666666666666</ele><time>2026-04-19T12:54:25.97Z</time></trkpt><trkpt lat="44.2853383" lon="10.1384483"><ele>593.0</ele><time>2026-04-19T12:54:26.97Z</time></trkpt><trkpt lat="44.2851783" lon="10.138485"><ele>593.0</ele><time>2026-04-19T12:54:27.97Z</time></trkpt><trkpt lat="44.2850317" lon="10.138535"><ele>593.0</ele><time>2026-04-19T12:54:28.97Z</time></trkpt><trkpt lat="44.2848917" lon="10.1385967"><ele>593.0</ele><time>2026-04-19T12:54:29.97Z</time></trkpt><trkpt lat="44.2847367" lon="10.1386167"><ele>598.25</ele><time>2026-04-19T12:54:30.97Z</time></trkpt><trkpt lat="44.28461" lon="10.138665"><ele>603.5</ele><time>2026-04-19T12:54:31.97Z</time></trkpt><trkpt lat="44.2844833" lon="10.1386983"><ele>608.75</ele><time>2026-04-19T12:54:32.97Z</time></trkpt><trkpt lat="44.2843417" lon="10.138705"><ele>614.0</ele><time>2026-04-19T12:54:33.97Z</time></trkpt><trkpt lat="44.28422" lon="10.1387533"><ele>614.0</ele><time>2026-04-19T12:54:34.97Z</time></trkpt><trkpt lat="44.2840983" lon="10.1387983"><ele>614.0</ele><time>2026-04-19T12:54:35.97Z</time></trkpt><trkpt lat="44.2839867" lon="10.1388433"><ele>614.0</ele><time>2026-04-19T12:54:36.97Z</time></trkpt><trkpt lat="44.2839" lon="10.1389067"><ele>614.0</ele><time>2026-04-19T12:54:37.97Z</time></trkpt><trkpt lat="44.2838117" lon="10.138985"><ele>614.0</ele><time>2026-04-19T12:54:38.97Z</time></trkpt><trkpt lat="44.283735" lon="10.1390867"><ele>617.8333333333333</ele><time>2026-04-19T12:54:39.97Z</time></trkpt><trkpt lat="44.2836583" lon="10.139185"><ele>621.6666666666666</ele><time>2026-04-19T12:54:40.97Z</time></trkpt><trkpt lat="44.2835967" lon="10.1392783"><ele>625.5</ele><time>2026-04-19T12:54:41.97Z</time></trkpt><trkpt lat="44.2835467" lon="10.1393483"><ele>629.3333333333334</ele><time>2026-04-19T12:54:42.97Z</time></trkpt><trkpt lat="44.2834917" lon="10.1394167"><ele>633.1666666666667</ele><time>2026-04-19T12:54:43.97Z</time></trkpt><trkpt lat="44.2834217" lon="10.1394967"><ele>637.0</ele><time>2026-04-19T12:54:45.97Z</time></trkpt><trkpt lat="44.28334" lon="10.1394533"><ele>637.0</ele><time>2026-04-19T12:54:47.97Z</time></trkpt><trkpt lat="44.283275" lon="10.1393533"><ele>637.0</ele><time>2026-04-19T12:54:49.97Z</time></trkpt><trkpt lat="44.2832667" lon="10.1392533"><ele>637.0</ele><time>2026-04-19T12:54:50.97Z</time></trkpt><trkpt lat="44.2833033" lon="10.138975"><ele>637.0</ele><time>2026-04-19T12:54:51.97Z</time></trkpt><trkpt lat="44.2833283" lon="10.1388033"><ele>638.2</ele><time>2026-04-19T12:54:52.97Z</time></trkpt><trkpt lat="44.2833583" lon="10.1386667"><ele>639.4000000000001</ele><time>2026-04-19T12:54:53.97Z</time></trkpt><trkpt lat="44.283425" lon="10.1385367"><ele>640.5999999999999</ele><time>2026-04-19T12:54:54.97Z</time></trkpt><trkpt lat="44.28347" lon="10.1383967"><ele>641.8</ele><time>2026-04-19T12:54:55.97Z</time></trkpt><trkpt lat="44.2834867" lon="10.1382417"><ele>643.0</ele><time>2026-04-19T12:54:56.97Z</time></trkpt><trkpt lat="44.2834683" lon="10.13808"><ele>646.2</ele><time>2026-04-19T12:54:57.971Z</time></trkpt><trkpt lat="44.2834467" lon="10.13793"><ele>649.4</ele><time>2026-04-19T12:54:58.97Z</time></trkpt><trkpt lat="44.2834367" lon="10.1377867"><ele>652.6</ele><time>2026-04-19T12:54:59.97Z</time></trkpt><trkpt lat="44.2834417" lon="10.1376283"><ele>655.8000000000001</ele><time>2026-04-19T12:55:00.97Z</time></trkpt><trkpt lat="44.28346" lon="10.13747"><ele>659.0</ele><time>2026-04-19T12:55:01.97Z</time></trkpt><trkpt lat="44.28349" lon="10.137335"><ele>663.0</ele><time>2026-04-19T12:55:02.97Z</time></trkpt><trkpt lat="44.283535" lon="10.137235"><ele>667.0</ele><time>2026-04-19T12:55:03.97Z</time></trkpt><trkpt lat="44.2835767" lon="10.1371533"><ele>671.0</ele><time>2026-04-19T12:55:04.97Z</time></trkpt><trkpt lat="44.2836983" lon="10.1370583"><ele>675.0</ele><time>2026-04-19T12:55:06.97Z</time></trkpt><trkpt lat="44.2837667" lon="10.1370383"><ele>679.0</ele><time>2026-04-19T12:55:07.97Z</time></trkpt><trkpt lat="44.2838433" lon="10.137"><ele>683.0</ele><time>2026-04-19T12:55:08.97Z</time></trkpt><trkpt lat="44.283905" lon="10.1369417"><ele>687.0</ele><time>2026-04-19T12:55:09.97Z</time></trkpt><trkpt lat="44.2839367" lon="10.1368483"><ele>691.0</ele><time>2026-04-19T12:55:10.97Z</time></trkpt><trkpt lat="44.28396" lon="10.1367233"><ele>695.0</ele><time>2026-04-19T12:55:11.97Z</time></trkpt><trkpt lat="44.283955" lon="10.1365867"><ele>699.0</ele><time>2026-04-19T12:55:12.97Z</time></trkpt><trkpt lat="44.28394" lon="10.1364317"><ele>703.0</ele><time>2026-04-19T12:55:13.97Z</time></trkpt><trkpt lat="44.2839283" lon="10.1362567"><ele>703.0</ele><time>2026-04-19T12:55:14.97Z</time></trkpt><trkpt lat="44.2839217" lon="10.1360567"><ele>703.0</ele><time>2026-04-19T12:55:15.97Z</time></trkpt><trkpt lat="44.2839267" lon="10.13587"><ele>703.0</ele><time>2026-04-19T12:55:16.97Z</time></trkpt><trkpt lat="44.283925" lon="10.135695"><ele>703.0</ele><time>2026-04-19T12:55:17.97Z</time></trkpt><trkpt lat="44.2839183" lon="10.1355267"><ele>704.2</ele><time>2026-04-19T12:55:18.97Z</time></trkpt><trkpt lat="44.2839083" lon="10.1353633"><ele>705.4</ele><time>2026-04-19T12:55:19.97Z</time></trkpt><trkpt lat="44.2838883" lon="10.1352317"><ele>706.6</ele><time>2026-04-19T12:55:20.97Z</time></trkpt><trkpt lat="44.2838583" lon="10.13512"><ele>707.8000000000001</ele><time>2026-04-19T12:55:21.97Z</time></trkpt><trkpt lat="44.28383" lon="10.1350333"><ele>709.0</ele><time>2026-04-19T12:55:22.97Z</time></trkpt><trkpt lat="44.28377" lon="10.13494"><ele>709.0</ele><time>2026-04-19T12:55:24.97Z</time></trkpt><trkpt lat="44.283705" lon="10.134925"><ele>709.0</ele><time>2026-04-19T12:55:26.97Z</time></trkpt><trkpt lat="44.283655" lon="10.1349883"><ele>709.0</ele><time>2026-04-19T12:55:28.97Z</time></trkpt><trkpt lat="44.2836617" lon="10.13513"><ele>709.0</ele><time>2026-04-19T12:55:31.97Z</time></trkpt><trkpt lat="44.2836867" lon="10.135325"><ele>709.0</ele><time>2026-04-19T12:55:33.97Z</time></trkpt><trkpt lat="44.28369" lon="10.1354683"><ele>709.0</ele><time>2026-04-19T12:55:34.97Z</time></trkpt><trkpt lat="44.28367" lon="10.13562"><ele>709.0</ele><time>2026-04-19T12:55:35.97Z</time></trkpt><trkpt lat="44.2836333" lon="10.1357567"><ele>709.0</ele><time>2026-04-19T12:55:36.97Z</time></trkpt><trkpt lat="44.28359" lon="10.1358833"><ele>709.0</ele><time>2026-04-19T12:55:37.97Z</time></trkpt><trkpt lat="44.283545" lon="10.1359867"><ele>709.0</ele><time>2026-04-19T12:55:38.97Z</time></trkpt><trkpt lat="44.2835017" lon="10.1360633"><ele>707.8000000000001</ele><time>2026-04-19T12:55:39.97Z</time></trkpt><trkpt lat="44.2834283" lon="10.1361617"><ele>706.6</ele><time>2026-04-19T12:55:41.97Z</time></trkpt><trkpt lat="44.283355" lon="10.1362083"><ele>705.4</ele><time>2026-04-19T12:55:43.97Z</time></trkpt><trkpt lat="44.28341" lon="10.1360667"><ele>704.2</ele><time>2026-04-19T12:55:47.97Z</time></trkpt><trkpt lat="44.28348" lon="10.1360017"><ele>703.0</ele><time>2026-04-19T12:55:48.97Z</time></trkpt><trkpt lat="44.2835283" lon="10.135925"><ele>703.0</ele><time>2026-04-19T12:55:49.97Z</time></trkpt><trkpt lat="44.28354" lon="10.1358217"><ele>703.0</ele><time>2026-04-19T12:55:50.97Z</time></trkpt><trkpt lat="44.28354" lon="10.135715"><ele>703.0</ele><time>2026-04-19T12:55:51.97Z</time></trkpt><trkpt lat="44.2835183" lon="10.1355833"><ele>703.0</ele><time>2026-04-19T12:55:52.97Z</time></trkpt><trkpt lat="44.2834767" lon="10.135425"><ele>703.0</ele><time>2026-04-19T12:55:53.97Z</time></trkpt><trkpt lat="44.2834483" lon="10.1352517"><ele>703.75</ele><time>2026-04-19T12:55:54.97Z</time></trkpt><trkpt lat="44.283405" lon="10.135095"><ele>704.5</ele><time>2026-04-19T12:55:55.97Z</time></trkpt><trkpt lat="44.2833583" lon="10.1349267"><ele>705.25</ele><time>2026-04-19T12:55:56.97Z</time></trkpt><trkpt lat="44.2833133" lon="10.1347433"><ele>706.0</ele><time>2026-04-19T12:55:57.97Z</time></trkpt><trkpt lat="44.2832833" lon="10.1345767"><ele>706.0</ele><time>2026-04-19T12:55:58.97Z</time></trkpt><trkpt lat="44.2832583" lon="10.1344133"><ele>706.0</ele><time>2026-04-19T12:55:59.97Z</time></trkpt><trkpt lat="44.283235" lon="10.1342433"><ele>706.0</ele><time>2026-04-19T12:56:00.97Z</time></trkpt><trkpt lat="44.2831967" lon="10.1340567"><ele>706.0</ele><time>2026-04-19T12:56:01.97Z</time></trkpt><trkpt lat="44.2831483" lon="10.1338917"><ele>708.0</ele><time>2026-04-19T12:56:02.97Z</time></trkpt><trkpt lat="44.283115" lon="10.133725"><ele>710.0</ele><time>2026-04-19T12:56:03.97Z</time></trkpt><trkpt lat="44.283115" lon="10.133545"><ele>712.0</ele><time>2026-04-19T12:56:04.97Z</time></trkpt><trkpt lat="44.283125" lon="10.1333617"><ele>714.0</ele><time>2026-04-19T12:56:05.97Z</time></trkpt><trkpt lat="44.283135" lon="10.133195"><ele>714.2</ele><time>2026-04-19T12:56:06.97Z</time></trkpt><trkpt lat="44.2831433" lon="10.1330267"><ele>714.4000000000001</ele><time>2026-04-19T12:56:07.97Z</time></trkpt><trkpt lat="44.2831483" lon="10.1328817"><ele>714.6</ele><time>2026-04-19T12:56:08.97Z</time></trkpt><trkpt lat="44.28315" lon="10.1327517"><ele>714.8</ele><time>2026-04-19T12:56:09.97Z</time></trkpt><trkpt lat="44.2831467" lon="10.1326317"><ele>715.0</ele><time>2026-04-19T12:56:10.97Z</time></trkpt><trkpt lat="44.2831583" lon="10.1325267"><ele>715.0</ele><time>2026-04-19T12:56:11.97Z</time></trkpt><trkpt lat="44.2831433" lon="10.132435"><ele>715.0</ele><time>2026-04-19T12:56:12.97Z</time></trkpt><trkpt lat="44.283115" lon="10.1323383"><ele>715.0</ele><time>2026-04-19T12:56:13.97Z</time></trkpt><trkpt lat="44.2830683" lon="10.1322417"><ele>715.0</ele><time>2026-04-19T12:56:14.97Z</time></trkpt><trkpt lat="44.2830233" lon="10.1321517"><ele>715.0</ele><time>2026-04-19T12:56:15.97Z</time></trkpt><trkpt lat="44.2829883" lon="10.132045"><ele>715.0</ele><time>2026-04-19T12:56:16.97Z</time></trkpt><trkpt lat="44.28298" lon="10.13192"><ele>730.0</ele><time>2026-04-19T12:56:17.97Z</time></trkpt><trkpt lat="44.2829933" lon="10.1317767"><ele>745.0</ele><time>2026-04-19T12:56:18.97Z</time></trkpt><trkpt lat="44.2830117" lon="10.1316183"><ele>760.0</ele><time>2026-04-19T12:56:19.97Z</time></trkpt><trkpt lat="44.2830383" lon="10.131455"><ele>775.0</ele><time>2026-04-19T12:56:20.97Z</time></trkpt><trkpt lat="44.283055" lon="10.131275"><ele>775.0</ele><time>2026-04-19T12:56:21.971Z</time></trkpt><trkpt lat="44.2830783" lon="10.131115"><ele>775.0</ele><time>2026-04-19T12:56:22.97Z</time></trkpt><trkpt lat="44.2831117" lon="10.1309783"><ele>775.0</ele><time>2026-04-19T12:56:23.97Z</time></trkpt><trkpt lat="44.2831533" lon="10.1308533"><ele>775.0</ele><time>2026-04-19T12:56:24.97Z</time></trkpt><trkpt lat="44.2831967" lon="10.1307417"><ele>775.0</ele><time>2026-04-19T12:56:25.97Z</time></trkpt><trkpt lat="44.2832383" lon="10.1306333"><ele>768.0</ele><time>2026-04-19T12:56:26.97Z</time></trkpt><trkpt lat="44.28325" lon="10.1305167"><ele>761.0</ele><time>2026-04-19T12:56:27.97Z</time></trkpt><trkpt lat="44.283255" lon="10.1303967"><ele>754.0</ele><time>2026-04-19T12:56:28.97Z</time></trkpt><trkpt lat="44.283215" lon="10.13026"><ele>747.0</ele><time>2026-04-19T12:56:29.97Z</time></trkpt><trkpt lat="44.2831683" lon="10.1301183"><ele>740.0</ele><time>2026-04-19T12:56:30.97Z</time></trkpt><trkpt lat="44.2831017" lon="10.1299733"><ele>742.4</ele><time>2026-04-19T12:56:31.97Z</time></trkpt><trkpt lat="44.2830333" lon="10.1298283"><ele>744.8</ele><time>2026-04-19T12:56:32.97Z</time></trkpt><trkpt lat="44.2829717" lon="10.12971"><ele>747.2</ele><time>2026-04-19T12:56:33.97Z</time></trkpt><trkpt lat="44.2828983" lon="10.1296117"><ele>749.6</ele><time>2026-04-19T12:56:34.97Z</time></trkpt><trkpt lat="44.28283" lon="10.1295367"><ele>752.0</ele><time>2026-04-19T12:56:35.97Z</time></trkpt><trkpt lat="44.282755" lon="10.129495"><ele>752.0</ele><time>2026-04-19T12:56:36.97Z</time></trkpt><trkpt lat="44.282675" lon="10.1294867"><ele>752.0</ele><time>2026-04-19T12:56:37.97Z</time></trkpt><trkpt lat="44.2826" lon="10.129505"><ele>752.0</ele><time>2026-04-19T12:56:38.97Z</time></trkpt><trkpt lat="44.2825433" lon="10.1295667"><ele>752.0</ele><time>2026-04-19T12:56:39.97Z</time></trkpt><trkpt lat="44.2825" lon="10.1296683"><ele>752.0</ele><time>2026-04-19T12:56:40.97Z</time></trkpt><trkpt lat="44.28247" lon="10.129795"><ele>752.0</ele><time>2026-04-19T12:56:41.97Z</time></trkpt><trkpt lat="44.2824483" lon="10.1299367"><ele>753.5</ele><time>2026-04-19T12:56:42.97Z</time></trkpt><trkpt lat="44.28242" lon="10.13007"><ele>755.0</ele><time>2026-04-19T12:56:43.97Z</time></trkpt><trkpt lat="44.2823917" lon="10.130165"><ele>756.5</ele><time>2026-04-19T12:56:44.971Z</time></trkpt><trkpt lat="44.2823483" lon="10.13023"><ele>758.0</ele><time>2026-04-19T12:56:45.97Z</time></trkpt><trkpt lat="44.2822867" lon="10.130265"><ele>759.5</ele><time>2026-04-19T12:56:46.97Z</time></trkpt><trkpt lat="44.2822033" lon="10.130275"><ele>761.0</ele><time>2026-04-19T12:56:47.97Z</time></trkpt><trkpt lat="44.2820983" lon="10.1302867"><ele>763.1999999999999</ele><time>2026-04-19T12:56:48.97Z</time></trkpt><trkpt lat="44.2820017" lon="10.1303083"><ele>765.4</ele><time>2026-04-19T12:56:49.97Z</time></trkpt><trkpt lat="44.28191" lon="10.1303533"><ele>767.6</ele><time>2026-04-19T12:56:50.97Z</time></trkpt><trkpt lat="44.281835" lon="10.130415"><ele>769.8</ele><time>2026-04-19T12:56:51.97Z</time></trkpt><trkpt lat="44.2817717" lon="10.1305267"><ele>772.0</ele><time>2026-04-19T12:56:52.97Z</time></trkpt><trkpt lat="44.2817367" lon="10.13065"><ele>774.2</ele><time>2026-04-19T12:56:53.97Z</time></trkpt><trkpt lat="44.2817067" lon="10.130775"><ele>776.4000000000001</ele><time>2026-04-19T12:56:54.97Z</time></trkpt><trkpt lat="44.2816867" lon="10.1308917"><ele>778.5999999999999</ele><time>2026-04-19T12:56:55.97Z</time></trkpt><trkpt lat="44.281685" lon="10.1310067"><ele>780.8</ele><time>2026-04-19T12:56:56.97Z</time></trkpt><trkpt lat="44.2817" lon="10.1311333"><ele>783.0</ele><time>2026-04-19T12:56:57.97Z</time></trkpt><trkpt lat="44.2817283" lon="10.1312667"><ele>783.0</ele><time>2026-04-19T12:56:58.97Z</time></trkpt><trkpt lat="44.281765" lon="10.1314017"><ele>783.0</ele><time>2026-04-19T12:56:59.97Z</time></trkpt><trkpt lat="44.28179" lon="10.1315217"><ele>783.0</ele><time>2026-04-19T12:57:00.97Z</time></trkpt><trkpt lat="44.2818017" lon="10.131625"><ele>783.0</ele><time>2026-04-19T12:57:01.97Z</time></trkpt><trkpt lat="44.2817967" lon="10.1317167"><ele>783.0</ele><time>2026-04-19T12:57:02.97Z</time></trkpt><trkpt lat="44.2817633" lon="10.1317933"><ele>783.0</ele><time>2026-04-19T12:57:03.97Z</time></trkpt><trkpt lat="44.281705" lon="10.1318817"><ele>784.75</ele><time>2026-04-19T12:57:04.97Z</time></trkpt><trkpt lat="44.28162" lon="10.1319617"><ele>786.5</ele><time>2026-04-19T12:57:05.97Z</time></trkpt><trkpt lat="44.2815217" lon="10.13206"><ele>788.25</ele><time>2026-04-19T12:57:06.97Z</time></trkpt><trkpt lat="44.2814267" lon="10.1321767"><ele>790.0</ele><time>2026-04-19T12:57:07.97Z</time></trkpt><trkpt lat="44.2813383" lon="10.132285"><ele>791.6</ele><time>2026-04-19T12:57:08.97Z</time></trkpt><trkpt lat="44.2812667" lon="10.13241"><ele>793.2</ele><time>2026-04-19T12:57:09.97Z</time></trkpt><trkpt lat="44.281215" lon="10.132545"><ele>794.8</ele><time>2026-04-19T12:57:10.97Z</time></trkpt><trkpt lat="44.281185" lon="10.1326817"><ele>796.4</ele><time>2026-04-19T12:57:11.97Z</time></trkpt><trkpt lat="44.2811583" lon="10.132815"><ele>798.0</ele><time>2026-04-19T12:57:12.97Z</time></trkpt><trkpt lat="44.2811317" lon="10.1329333"><ele>798.0</ele><time>2026-04-19T12:57:13.97Z</time></trkpt><trkpt lat="44.2810817" lon="10.133015"><ele>798.0</ele><time>2026-04-19T12:57:14.97Z</time></trkpt><trkpt lat="44.2810067" lon="10.1330683"><ele>798.0</ele><time>2026-04-19T12:57:15.97Z</time></trkpt><trkpt lat="44.28091" lon="10.1331083"><ele>798.0</ele><time>2026-04-19T12:57:16.97Z</time></trkpt><trkpt lat="44.280815" lon="10.133135"><ele>798.0</ele><time>2026-04-19T12:57:17.97Z</time></trkpt><trkpt lat="44.2807267" lon="10.1331483"><ele>798.0</ele><time>2026-04-19T12:57:18.97Z</time></trkpt><trkpt lat="44.2806367" lon="10.13314"><ele>801.4</ele><time>2026-04-19T12:57:19.97Z</time></trkpt><trkpt lat="44.2805567" lon="10.1331067"><ele>804.8</ele><time>2026-04-19T12:57:20.97Z</time></trkpt><trkpt lat="44.2805117" lon="10.1330333"><ele>808.2</ele><time>2026-04-19T12:57:21.97Z</time></trkpt><trkpt lat="44.28045" lon="10.1328983"><ele>811.6</ele><time>2026-04-19T12:57:22.97Z</time></trkpt><trkpt lat="44.2803917" lon="10.1327433"><ele>815.0</ele><time>2026-04-19T12:57:23.97Z</time></trkpt><trkpt lat="44.2803183" lon="10.1325933"><ele>815.0</ele><time>2026-04-19T12:57:24.97Z</time></trkpt><trkpt lat="44.28026" lon="10.13243"><ele>815.0</ele><time>2026-04-19T12:57:25.97Z</time></trkpt><trkpt lat="44.28021" lon="10.132285"><ele>815.0</ele><time>2026-04-19T12:57:26.97Z</time></trkpt><trkpt lat="44.2801567" lon="10.132165"><ele>815.0</ele><time>2026-04-19T12:57:27.97Z</time></trkpt><trkpt lat="44.2801017" lon="10.1320683"><ele>815.0</ele><time>2026-04-19T12:57:28.97Z</time></trkpt><trkpt lat="44.28004" lon="10.1319917"><ele>814.8</ele><time>2026-04-19T12:57:29.97Z</time></trkpt><trkpt lat="44.2799733" lon="10.1319417"><ele>814.6</ele><time>2026-04-19T12:57:30.97Z</time></trkpt><trkpt lat="44.2799" lon="10.1319267"><ele>814.4000000000001</ele><time>2026-04-19T12:57:31.97Z</time></trkpt><trkpt lat="44.2798317" lon="10.1319483"><ele>814.2</ele><time>2026-04-19T12:57:32.97Z</time></trkpt><trkpt lat="44.2797233" lon="10.1319933"><ele>814.0</ele><time>2026-04-19T12:57:34.97Z</time></trkpt><trkpt lat="44.279595" lon="10.1319667"><ele>814.8333333333333</ele><time>2026-04-19T12:57:36.97Z</time></trkpt><trkpt lat="44.2795267" lon="10.131915"><ele>815.6666666666666</ele><time>2026-04-19T12:57:37.97Z</time></trkpt><trkpt lat="44.2794717" lon="10.1318383"><ele>816.5</ele><time>2026-04-19T12:57:38.97Z</time></trkpt><trkpt lat="44.27943" lon="10.1317267"><ele>817.3333333333333</ele><time>2026-04-19T12:57:39.97Z</time></trkpt><trkpt lat="44.2794067" lon="10.1316017"><ele>818.1666666666666</ele><time>2026-04-19T12:57:40.97Z</time></trkpt><trkpt lat="44.279385" lon="10.1314867"><ele>819.0</ele><time>2026-04-19T12:57:41.97Z</time></trkpt><trkpt lat="44.2793517" lon="10.1313817"><ele>819.0</ele><time>2026-04-19T12:57:42.97Z</time></trkpt><trkpt lat="44.2793" lon="10.1312917"><ele>819.0</ele><time>2026-04-19T12:57:43.97Z</time></trkpt><trkpt lat="44.2792417" lon="10.1312117"><ele>819.0</ele><time>2026-04-19T12:57:44.97Z</time></trkpt><trkpt lat="44.2791833" lon="10.1311467"><ele>819.0</ele><time>2026-04-19T12:57:45.97Z</time></trkpt><trkpt lat="44.2791283" lon="10.1310933"><ele>819.0</ele><time>2026-04-19T12:57:46.97Z</time></trkpt><trkpt lat="44.27904" lon="10.131015"><ele>819.0</ele><time>2026-04-19T12:57:48.971Z</time></trkpt><trkpt lat="44.27897" lon="10.13101"><ele>819.0</ele><time>2026-04-19T12:57:50.97Z</time></trkpt><trkpt lat="44.2789483" lon="10.13112"><ele>819.0</ele><time>2026-04-19T12:57:52.97Z</time></trkpt><trkpt lat="44.2789933" lon="10.1313017"><ele>819.0</ele><time>2026-04-19T12:57:54.97Z</time></trkpt><trkpt lat="44.2790283" lon="10.1314283"><ele>819.0</ele><time>2026-04-19T12:57:55.97Z</time></trkpt><trkpt lat="44.27905" lon="10.1315717"><ele>819.0</ele><time>2026-04-19T12:57:56.97Z</time></trkpt><trkpt lat="44.279065" lon="10.131725"><ele>816.0</ele><time>2026-04-19T12:57:57.97Z</time></trkpt><trkpt lat="44.2790617" lon="10.1318833"><ele>813.0</ele><time>2026-04-19T12:57:58.97Z</time></trkpt><trkpt lat="44.2790483" lon="10.1320483"><ele>810.0</ele><time>2026-04-19T12:57:59.97Z</time></trkpt><trkpt lat="44.2790283" lon="10.1322167"><ele>807.0</ele><time>2026-04-19T12:58:00.97Z</time></trkpt><trkpt lat="44.279005" lon="10.1323883"><ele>805.75</ele><time>2026-04-19T12:58:01.97Z</time></trkpt><trkpt lat="44.2789883" lon="10.1325617"><ele>804.5</ele><time>2026-04-19T12:58:02.97Z</time></trkpt><trkpt lat="44.2789683" lon="10.1327317"><ele>803.25</ele><time>2026-04-19T12:58:03.97Z</time></trkpt><trkpt lat="44.27895" lon="10.1329033"><ele>802.0</ele><time>2026-04-19T12:58:04.97Z</time></trkpt><trkpt lat="44.27894" lon="10.1330717"><ele>801.8333333333333</ele><time>2026-04-19T12:58:05.97Z</time></trkpt><trkpt lat="44.27894" lon="10.1332233"><ele>801.6666666666666</ele><time>2026-04-19T12:58:06.97Z</time></trkpt><trkpt lat="44.2789417" lon="10.133355"><ele>801.5</ele><time>2026-04-19T12:58:07.971Z</time></trkpt><trkpt lat="44.2789333" lon="10.1334683"><ele>801.3333333333333</ele><time>2026-04-19T12:58:08.97Z</time></trkpt><trkpt lat="44.278905" lon="10.1335683"><ele>801.1666666666666</ele><time>2026-04-19T12:58:09.97Z</time></trkpt><trkpt lat="44.2788533" lon="10.1336533"><ele>801.0</ele><time>2026-04-19T12:58:10.97Z</time></trkpt><trkpt lat="44.278785" lon="10.13373"><ele>794.5999999999999</ele><time>2026-04-19T12:58:11.97Z</time></trkpt><trkpt lat="44.2786883" lon="10.13379"><ele>788.2</ele><time>2026-04-19T12:58:12.97Z</time></trkpt><trkpt lat="44.2785833" lon="10.1338417"><ele>781.8</ele><time>2026-04-19T12:58:13.97Z</time></trkpt><trkpt lat="44.2784733" lon="10.1338967"><ele>775.4000000000001</ele><time>2026-04-19T12:58:14.97Z</time></trkpt><trkpt lat="44.2783717" lon="10.1339633"><ele>769.0</ele><time>2026-04-19T12:58:15.97Z</time></trkpt><trkpt lat="44.2782633" lon="10.1340133"><ele>769.0</ele><time>2026-04-19T12:58:16.97Z</time></trkpt><trkpt lat="44.278155" lon="10.1340533"><ele>769.0</ele><time>2026-04-19T12:58:17.97Z</time></trkpt><trkpt lat="44.278045" lon="10.134085"><ele>769.0</ele><time>2026-04-19T12:58:18.97Z</time></trkpt><trkpt lat="44.277935" lon="10.134115"><ele>769.0</ele><time>2026-04-19T12:58:19.97Z</time></trkpt><trkpt lat="44.2778333" lon="10.13415"><ele>769.0</ele><time>2026-04-19T12:58:20.97Z</time></trkpt><trkpt lat="44.2777333" lon="10.1341867"><ele>768.4000000000001</ele><time>2026-04-19T12:58:21.97Z</time></trkpt><trkpt lat="44.277635" lon="10.1342417"><ele>767.8</ele><time>2026-04-19T12:58:22.97Z</time></trkpt><trkpt lat="44.2775367" lon="10.1342983"><ele>767.2</ele><time>2026-04-19T12:58:23.97Z</time></trkpt><trkpt lat="44.2774433" lon="10.1343567"><ele>766.5999999999999</ele><time>2026-04-19T12:58:24.97Z</time></trkpt><trkpt lat="44.2773483" lon="10.1344183"><ele>766.0</ele><time>2026-04-19T12:58:25.97Z</time></trkpt><trkpt lat="44.2772667" lon="10.134475"><ele>762.0</ele><time>2026-04-19T12:58:26.97Z</time></trkpt><trkpt lat="44.277195" lon="10.1345183"><ele>758.0</ele><time>2026-04-19T12:58:27.97Z</time></trkpt><trkpt lat="44.27713" lon="10.1345483"><ele>754.0</ele><time>2026-04-19T12:58:28.97Z</time></trkpt><trkpt lat="44.2770267" lon="10.134545"><ele>750.0</ele><time>2026-04-19T12:58:30.97Z</time></trkpt><trkpt lat="44.2770283" lon="10.1343983"><ele>746.0</ele><time>2026-04-19T12:58:33.971Z</time></trkpt><trkpt lat="44.27709" lon="10.13434"><ele>742.0</ele><time>2026-04-19T12:58:34.97Z</time></trkpt><trkpt lat="44.27717" lon="10.1342833"><ele>742.0</ele><time>2026-04-19T12:58:35.97Z</time></trkpt><trkpt lat="44.277255" lon="10.1342217"><ele>742.0</ele><time>2026-04-19T12:58:36.97Z</time></trkpt><trkpt lat="44.2773317" lon="10.1341533"><ele>742.0</ele><time>2026-04-19T12:58:37.97Z</time></trkpt><trkpt lat="44.27739" lon="10.1340883"><ele>742.0</ele><time>2026-04-19T12:58:38.97Z</time></trkpt><trkpt lat="44.2774333" lon="10.1339383"><ele>742.0</ele><time>2026-04-19T12:58:40.97Z</time></trkpt><trkpt lat="44.2773933" lon="10.1338133"><ele>742.0</ele><time>2026-04-19T12:58:42.97Z</time></trkpt><trkpt lat="44.2772833" lon="10.1338283"><ele>742.0</ele><time>2026-04-19T12:58:44.97Z</time></trkpt><trkpt lat="44.2772167" lon="10.133885"><ele>742.0</ele><time>2026-04-19T12:58:45.97Z</time></trkpt><trkpt lat="44.2771367" lon="10.1339583"><ele>742.0</ele><time>2026-04-19T12:58:46.97Z</time></trkpt><trkpt lat="44.2770317" lon="10.1340233"><ele>742.0</ele><time>2026-04-19T12:58:47.97Z</time></trkpt><trkpt lat="44.27692" lon="10.1340883"><ele>742.0</ele><time>2026-04-19T12:58:48.97Z</time></trkpt><trkpt lat="44.276805" lon="10.1341533"><ele>742.0</ele><time>2026-04-19T12:58:49.97Z</time></trkpt><trkpt lat="44.2767017" lon="10.134215"><ele>742.0</ele><time>2026-04-19T12:58:50.97Z</time></trkpt><trkpt lat="44.2766133" lon="10.1342667"><ele>742.0</ele><time>2026-04-19T12:58:51.97Z</time></trkpt><trkpt lat="44.27652" lon="10.1343633"><ele>742.0</ele><time>2026-04-19T12:58:52.97Z</time></trkpt><trkpt lat="44.2764333" lon="10.1344867"><ele>736.5</ele><time>2026-04-19T12:58:53.97Z</time></trkpt><trkpt lat="44.2763567" lon="10.13462"><ele>731.0</ele><time>2026-04-19T12:58:54.97Z</time></trkpt><trkpt lat="44.2762883" lon="10.1347567"><ele>725.5</ele><time>2026-04-19T12:58:55.97Z</time></trkpt><trkpt lat="44.2762267" lon="10.1348867"><ele>720.0</ele><time>2026-04-19T12:58:56.97Z</time></trkpt><trkpt lat="44.276165" lon="10.1350167"><ele>720.0</ele><time>2026-04-19T12:58:57.97Z</time></trkpt><trkpt lat="44.2761" lon="10.1351467"><ele>720.0</ele><time>2026-04-19T12:58:58.97Z</time></trkpt><trkpt lat="44.2760417" lon="10.1352733"><ele>720.0</ele><time>2026-04-19T12:58:59.97Z</time></trkpt><trkpt lat="44.2759917" lon="10.1353917"><ele>720.0</ele><time>2026-04-19T12:59:00.97Z</time></trkpt><trkpt lat="44.27596" lon="10.1354967"><ele>720.0</ele><time>2026-04-19T12:59:01.97Z</time></trkpt><trkpt lat="44.2759217" lon="10.13558"><ele>720.0</ele><time>2026-04-19T12:59:02.97Z</time></trkpt><trkpt lat="44.275885" lon="10.135655"><ele>720.0</ele><time>2026-04-19T12:59:03.97Z</time></trkpt><trkpt lat="44.27583" lon="10.1357083"><ele>720.0</ele><time>2026-04-19T12:59:04.97Z</time></trkpt><trkpt lat="44.2757617" lon="10.1357367"><ele>720.0</ele><time>2026-04-19T12:59:05.97Z</time></trkpt><trkpt lat="44.2756533" lon="10.1357317"><ele>720.0</ele><time>2026-04-19T12:59:06.97Z</time></trkpt><trkpt lat="44.2755317" lon="10.1357"><ele>720.0</ele><time>2026-04-19T12:59:07.97Z</time></trkpt><trkpt lat="44.2754017" lon="10.1356867"><ele>719.0</ele><time>2026-04-19T12:59:08.97Z</time></trkpt><trkpt lat="44.2752767" lon="10.1356867"><ele>718.0</ele><time>2026-04-19T12:59:09.97Z</time></trkpt><trkpt lat="44.2751717" lon="10.13571"><ele>717.0</ele><time>2026-04-19T12:59:10.971Z</time></trkpt><trkpt lat="44.2750683" lon="10.135745"><ele>716.0</ele><time>2026-04-19T12:59:11.97Z</time></trkpt><trkpt lat="44.274985" lon="10.135795"><ele>715.0</ele><time>2026-04-19T12:59:12.97Z</time></trkpt><trkpt lat="44.2749133" lon="10.1358683"><ele>715.0</ele><time>2026-04-19T12:59:13.97Z</time></trkpt><trkpt lat="44.274845" lon="10.135965"><ele>715.0</ele><time>2026-04-19T12:59:14.97Z</time></trkpt><trkpt lat="44.2748" lon="10.1360783"><ele>715.0</ele><time>2026-04-19T12:59:15.97Z</time></trkpt><trkpt lat="44.2747767" lon="10.1361933"><ele>715.0</ele><time>2026-04-19T12:59:16.97Z</time></trkpt><trkpt lat="44.2747467" lon="10.1363067"><ele>715.0</ele><time>2026-04-19T12:59:17.97Z</time></trkpt><trkpt lat="44.2746983" lon="10.1364033"><ele>715.0</ele><time>2026-04-19T12:59:18.97Z</time></trkpt><trkpt lat="44.274635" lon="10.13647"><ele>710.2</ele><time>2026-04-19T12:59:19.97Z</time></trkpt><trkpt lat="44.2745517" lon="10.1365033"><ele>705.4</ele><time>2026-04-19T12:59:20.97Z</time></trkpt><trkpt lat="44.27445" lon="10.1365067"><ele>700.5999999999999</ele><time>2026-04-19T12:59:21.97Z</time></trkpt><trkpt lat="44.2743367" lon="10.136485"><ele>695.8</ele><time>2026-04-19T12:59:22.97Z</time></trkpt><trkpt lat="44.2742083" lon="10.1364533"><ele>691.0</ele><time>2026-04-19T12:59:23.97Z</time></trkpt><trkpt lat="44.2740983" lon="10.1364383"><ele>691.0</ele><time>2026-04-19T12:59:24.97Z</time></trkpt><trkpt lat="44.2739783" lon="10.1364133"><ele>691.0</ele><time>2026-04-19T12:59:25.97Z</time></trkpt><trkpt lat="44.2738617" lon="10.1364"><ele>691.0</ele><time>2026-04-19T12:59:26.97Z</time></trkpt><trkpt lat="44.2737467" lon="10.136405"><ele>691.0</ele><time>2026-04-19T12:59:27.971Z</time></trkpt><trkpt lat="44.2736383" lon="10.1364167"><ele>688.0</ele><time>2026-04-19T12:59:28.97Z</time></trkpt><trkpt lat="44.2735383" lon="10.1364417"><ele>685.0</ele><time>2026-04-19T12:59:29.97Z</time></trkpt><trkpt lat="44.2734433" lon="10.13644"><ele>682.0</ele><time>2026-04-19T12:59:30.97Z</time></trkpt><trkpt lat="44.2733483" lon="10.13641"><ele>679.0</ele><time>2026-04-19T12:59:31.97Z</time></trkpt><trkpt lat="44.2732583" lon="10.1363667"><ele>676.0</ele><time>2026-04-19T12:59:32.97Z</time></trkpt><trkpt lat="44.27317" lon="10.136315"><ele>673.1999999999999</ele><time>2026-04-19T12:59:33.97Z</time></trkpt><trkpt lat="44.273075" lon="10.1362967"><ele>670.4</ele><time>2026-04-19T12:59:34.97Z</time></trkpt><trkpt lat="44.2729817" lon="10.1363067"><ele>667.6</ele><time>2026-04-19T12:59:35.97Z</time></trkpt><trkpt lat="44.2728883" lon="10.136345"><ele>664.8</ele><time>2026-04-19T12:59:36.97Z</time></trkpt><trkpt lat="44.2728067" lon="10.1364017"><ele>662.0</ele><time>2026-04-19T12:59:37.97Z</time></trkpt><trkpt lat="44.27273" lon="10.1364633"><ele>662.0</ele><time>2026-04-19T12:59:38.97Z</time></trkpt><trkpt lat="44.272665" lon="10.13652"><ele>662.0</ele><time>2026-04-19T12:59:39.97Z</time></trkpt><trkpt lat="44.272605" lon="10.1365783"><ele>662.0</ele><time>2026-04-19T12:59:40.97Z</time></trkpt><trkpt lat="44.2725583" lon="10.1366417"><ele>662.0</ele><time>2026-04-19T12:59:41.97Z</time></trkpt><trkpt lat="44.2724667" lon="10.1366917"><ele>662.0</ele><time>2026-04-19T12:59:43.97Z</time></trkpt><trkpt lat="44.2723867" lon="10.136615"><ele>662.0</ele><time>2026-04-19T12:59:45.97Z</time></trkpt><trkpt lat="44.2724017" lon="10.13648"><ele>662.0</ele><time>2026-04-19T12:59:47.97Z</time></trkpt><trkpt lat="44.2724517" lon="10.136395"><ele>662.0</ele><time>2026-04-19T12:59:48.97Z</time></trkpt><trkpt lat="44.2725283" lon="10.1362883"><ele>662.0</ele><time>2026-04-19T12:59:49.97Z</time></trkpt><trkpt lat="44.2726083" lon="10.1361733"><ele>662.0</ele><time>2026-04-19T12:59:50.97Z</time></trkpt><trkpt lat="44.2727" lon="10.1360683"><ele>662.0</ele><time>2026-04-19T12:59:51.97Z</time></trkpt><trkpt lat="44.27278" lon="10.13596"><ele>662.0</ele><time>2026-04-19T12:59:52.97Z</time></trkpt><trkpt lat="44.2728567" lon="10.135855"><ele>662.0</ele><time>2026-04-19T12:59:53.97Z</time></trkpt><trkpt lat="44.2729317" lon="10.1357483"><ele>662.0</ele><time>2026-04-19T12:59:54.97Z</time></trkpt><trkpt lat="44.273015" lon="10.1356583"><ele>662.0</ele><time>2026-04-19T12:59:55.97Z</time></trkpt><trkpt lat="44.2731033" lon="10.1355783"><ele>662.0</ele><time>2026-04-19T12:59:56.97Z</time></trkpt><trkpt lat="44.2731917" lon="10.13552"><ele>660.2</ele><time>2026-04-19T12:59:57.97Z</time></trkpt><trkpt lat="44.2732917" lon="10.1354883"><ele>658.4000000000001</ele><time>2026-04-19T12:59:58.97Z</time></trkpt><trkpt lat="44.2733817" lon="10.135455"><ele>656.5999999999999</ele><time>2026-04-19T12:59:59.97Z</time></trkpt><trkpt lat="44.2734667" lon="10.1354133"><ele>654.8</ele><time>2026-04-19T13:00:00.97Z</time></trkpt><trkpt lat="44.2735533" lon="10.135365"><ele>653.0</ele><time>2026-04-19T13:00:01.97Z</time></trkpt><trkpt lat="44.2736283" lon="10.135315"><ele>653.0</ele><time>2026-04-19T13:00:02.97Z</time></trkpt><trkpt lat="44.2736867" lon="10.1352633"><ele>653.0</ele><time>2026-04-19T13:00:03.97Z</time></trkpt><trkpt lat="44.2737583" lon="10.13516"><ele>653.0</ele><time>2026-04-19T13:00:05.97Z</time></trkpt><trkpt lat="44.273745" lon="10.1349983"><ele>653.0</ele><time>2026-04-19T13:00:07.97Z</time></trkpt><trkpt lat="44.2736933" lon="10.1349267"><ele>653.0</ele><time>2026-04-19T13:00:08.97Z</time></trkpt><trkpt lat="44.273615" lon="10.1348833"><ele>653.0</ele><time>2026-04-19T13:00:09.97Z</time></trkpt><trkpt lat="44.2735117" lon="10.1348633"><ele>647.6</ele><time>2026-04-19T13:00:10.97Z</time></trkpt><trkpt lat="44.2734033" lon="10.13484"><ele>642.1999999999999</ele><time>2026-04-19T13:00:11.97Z</time></trkpt><trkpt lat="44.2733033" lon="10.1348117"><ele>636.8</ele><time>2026-04-19T13:00:12.97Z</time></trkpt><trkpt lat="44.2731983" lon="10.13478"><ele>631.4</ele><time>2026-04-19T13:00:13.97Z</time></trkpt><trkpt lat="44.2730933" lon="10.1347617"><ele>626.0</ele><time>2026-04-19T13:00:14.97Z</time></trkpt><trkpt lat="44.2729967" lon="10.1347717"><ele>623.4</ele><time>2026-04-19T13:00:15.97Z</time></trkpt><trkpt lat="44.27289" lon="10.134785"><ele>620.8</ele><time>2026-04-19T13:00:16.97Z</time></trkpt><trkpt lat="44.2727817" lon="10.1348083"><ele>618.1999999999999</ele><time>2026-04-19T13:00:17.97Z</time></trkpt><trkpt lat="44.2726833" lon="10.1348283"><ele>615.6</ele><time>2026-04-19T13:00:18.97Z</time></trkpt><trkpt lat="44.27259" lon="10.1348383"><ele>613.0</ele><time>2026-04-19T13:00:19.97Z</time></trkpt><trkpt lat="44.2725" lon="10.1348583"><ele>612.6</ele><time>2026-04-19T13:00:20.97Z</time></trkpt><trkpt lat="44.2724067" lon="10.1349033"><ele>612.1999999999999</ele><time>2026-04-19T13:00:21.97Z</time></trkpt><trkpt lat="44.2723117" lon="10.1349733"><ele>611.8</ele><time>2026-04-19T13:00:22.97Z</time></trkpt><trkpt lat="44.2722267" lon="10.1350583"><ele>611.4</ele><time>2026-04-19T13:00:23.97Z</time></trkpt><trkpt lat="44.2721283" lon="10.135135"><ele>611.0</ele><time>2026-04-19T13:00:24.97Z</time></trkpt><trkpt lat="44.2720267" lon="10.13521"><ele>611.0</ele><time>2026-04-19T13:00:25.97Z</time></trkpt><trkpt lat="44.271925" lon="10.1352783"><ele>611.0</ele><time>2026-04-19T13:00:26.97Z</time></trkpt><trkpt lat="44.2718183" lon="10.1353517"><ele>611.0</ele><time>2026-04-19T13:00:27.97Z</time></trkpt><trkpt lat="44.2717117" lon="10.135425"><ele>611.0</ele><time>2026-04-19T13:00:28.97Z</time></trkpt><trkpt lat="44.271605" lon="10.1354933"><ele>611.0</ele><time>2026-04-19T13:00:29.97Z</time></trkpt><trkpt lat="44.2714917" lon="10.135565"><ele>611.0</ele><time>2026-04-19T13:00:30.97Z</time></trkpt><trkpt lat="44.2713867" lon="10.1356217"><ele>611.0</ele><time>2026-04-19T13:00:31.97Z</time></trkpt><trkpt lat="44.2712817" lon="10.1356667"><ele>611.0</ele><time>2026-04-19T13:00:32.97Z</time></trkpt><trkpt lat="44.2711783" lon="10.13571"><ele>612.6</ele><time>2026-04-19T13:00:33.97Z</time></trkpt><trkpt lat="44.271075" lon="10.13574"><ele>614.2</ele><time>2026-04-19T13:00:34.97Z</time></trkpt><trkpt lat="44.270975" lon="10.135755"><ele>615.8</ele><time>2026-04-19T13:00:35.97Z</time></trkpt><trkpt lat="44.270875" lon="10.1357467"><ele>617.4</ele><time>2026-04-19T13:00:36.97Z</time></trkpt><trkpt lat="44.270785" lon="10.1357317"><ele>619.0</ele><time>2026-04-19T13:00:37.97Z</time></trkpt><trkpt lat="44.2706917" lon="10.1357017"><ele>611.6</ele><time>2026-04-19T13:00:38.97Z</time></trkpt><trkpt lat="44.270595" lon="10.1356583"><ele>604.2</ele><time>2026-04-19T13:00:39.97Z</time></trkpt><trkpt lat="44.270495" lon="10.1356"><ele>596.8000000000001</ele><time>2026-04-19T13:00:40.97Z</time></trkpt><trkpt lat="44.2703983" lon="10.1355367"><ele>589.4</ele><time>2026-04-19T13:00:41.97Z</time></trkpt><trkpt lat="44.2703117" lon="10.1354683"><ele>582.0</ele><time>2026-04-19T13:00:42.97Z</time></trkpt><trkpt lat="44.2702333" lon="10.135395"><ele>582.0</ele><time>2026-04-19T13:00:43.97Z</time></trkpt><trkpt lat="44.270155" lon="10.1353267"><ele>582.0</ele><time>2026-04-19T13:00:44.97Z</time></trkpt><trkpt lat="44.27008" lon="10.135285"><ele>582.0</ele><time>2026-04-19T13:00:45.97Z</time></trkpt><trkpt lat="44.2700083" lon="10.1352567"><ele>582.0</ele><time>2026-04-19T13:00:46.97Z</time></trkpt><trkpt lat="44.26994" lon="10.1352583"><ele>582.0</ele><time>2026-04-19T13:00:47.97Z</time></trkpt><trkpt lat="44.2698383" lon="10.1353367"><ele>582.0</ele><time>2026-04-19T13:00:49.97Z</time></trkpt><trkpt lat="44.2697917" lon="10.1354133"><ele>583.0</ele><time>2026-04-19T13:00:50.97Z</time></trkpt><trkpt lat="44.2697567" lon="10.135525"><ele>584.0</ele><time>2026-04-19T13:00:51.971Z</time></trkpt><trkpt lat="44.2697333" lon="10.1356467"><ele>585.0</ele><time>2026-04-19T13:00:52.97Z</time></trkpt><trkpt lat="44.2696983" lon="10.135745"><ele>586.0</ele><time>2026-04-19T13:00:53.97Z</time></trkpt><trkpt lat="44.269645" lon="10.1358133"><ele>587.0</ele><time>2026-04-19T13:00:54.97Z</time></trkpt><trkpt lat="44.2695833" lon="10.1358567"><ele>588.0</ele><time>2026-04-19T13:00:55.97Z</time></trkpt><trkpt lat="44.269495" lon="10.1358683"><ele>588.0</ele><time>2026-04-19T13:00:56.97Z</time></trkpt><trkpt lat="44.269395" lon="10.135855"><ele>588.0</ele><time>2026-04-19T13:00:57.97Z</time></trkpt><trkpt lat="44.2692883" lon="10.1358217"><ele>588.0</ele><time>2026-04-19T13:00:58.97Z</time></trkpt><trkpt lat="44.2691883" lon="10.1357917"><ele>588.0</ele><time>2026-04-19T13:00:59.97Z</time></trkpt><trkpt lat="44.2690817" lon="10.13578"><ele>588.0</ele><time>2026-04-19T13:01:00.97Z</time></trkpt><trkpt lat="44.2689683" lon="10.1357933"><ele>584.4</ele><time>2026-04-19T13:01:01.97Z</time></trkpt><trkpt lat="44.2688633" lon="10.13582"><ele>580.8</ele><time>2026-04-19T13:01:02.97Z</time></trkpt><trkpt lat="44.2687617" lon="10.135865"><ele>577.2</ele><time>2026-04-19T13:01:03.97Z</time></trkpt><trkpt lat="44.2686583" lon="10.1359083"><ele>573.6</ele><time>2026-04-19T13:01:04.97Z</time></trkpt><trkpt lat="44.26856" lon="10.13593"><ele>570.0</ele><time>2026-04-19T13:01:05.97Z</time></trkpt><trkpt lat="44.268475" lon="10.13593"><ele>570.0</ele><time>2026-04-19T13:01:06.97Z</time></trkpt><trkpt lat="44.2683917" lon="10.1359117"><ele>570.0</ele><time>2026-04-19T13:01:07.97Z</time></trkpt><trkpt lat="44.2683117" lon="10.1358833"><ele>570.0</ele><time>2026-04-19T13:01:08.97Z</time></trkpt><trkpt lat="44.26824" lon="10.1358533"><ele>570.0</ele><time>2026-04-19T13:01:09.97Z</time></trkpt><trkpt lat="44.2681633" lon="10.1358417"><ele>570.0</ele><time>2026-04-19T13:01:10.97Z</time></trkpt><trkpt lat="44.2680817" lon="10.1358533"><ele>570.0</ele><time>2026-04-19T13:01:11.97Z</time></trkpt><trkpt lat="44.2680033" lon="10.135885"><ele>568.5</ele><time>2026-04-19T13:01:12.97Z</time></trkpt><trkpt lat="44.2679217" lon="10.1359083"><ele>567.0</ele><time>2026-04-19T13:01:13.97Z</time></trkpt><trkpt lat="44.267845" lon="10.13593"><ele>565.5</ele><time>2026-04-19T13:01:14.97Z</time></trkpt><trkpt lat="44.267745" lon="10.1359117"><ele>564.0</ele><time>2026-04-19T13:01:15.97Z</time></trkpt><trkpt lat="44.26766" lon="10.1358733"><ele>562.5</ele><time>2026-04-19T13:01:16.97Z</time></trkpt><trkpt lat="44.2675783" lon="10.13582"><ele>561.0</ele><time>2026-04-19T13:01:17.97Z</time></trkpt><trkpt lat="44.267495" lon="10.1357733"><ele>561.0</ele><time>2026-04-19T13:01:18.97Z</time></trkpt><trkpt lat="44.267395" lon="10.1357617"><ele>561.0</ele><time>2026-04-19T13:01:19.97Z</time></trkpt><trkpt lat="44.267295" lon="10.1357867"><ele>561.0</ele><time>2026-04-19T13:01:20.97Z</time></trkpt><trkpt lat="44.2671983" lon="10.13583"><ele>561.0</ele><time>2026-04-19T13:01:21.97Z</time></trkpt><trkpt lat="44.2671183" lon="10.1358933"><ele>561.0</ele><time>2026-04-19T13:01:22.97Z</time></trkpt><trkpt lat="44.2670617" lon="10.1359933"><ele>557.8</ele><time>2026-04-19T13:01:23.97Z</time></trkpt><trkpt lat="44.2670067" lon="10.1361033"><ele>554.6</ele><time>2026-04-19T13:01:24.97Z</time></trkpt><trkpt lat="44.2669567" lon="10.1362133"><ele>551.4</ele><time>2026-04-19T13:01:25.97Z</time></trkpt><trkpt lat="44.26691" lon="10.13633"><ele>548.2</ele><time>2026-04-19T13:01:26.97Z</time></trkpt><trkpt lat="44.266875" lon="10.1364517"><ele>545.0</ele><time>2026-04-19T13:01:27.97Z</time></trkpt><trkpt lat="44.26684" lon="10.1365867"><ele>545.0</ele><time>2026-04-19T13:01:28.97Z</time></trkpt><trkpt lat="44.266805" lon="10.1367267"><ele>545.0</ele><time>2026-04-19T13:01:29.97Z</time></trkpt><trkpt lat="44.2667717" lon="10.1368817"><ele>545.0</ele><time>2026-04-19T13:01:30.97Z</time></trkpt><trkpt lat="44.2667433" lon="10.1370283"><ele>545.0</ele><time>2026-04-19T13:01:31.97Z</time></trkpt><trkpt lat="44.26671" lon="10.1371683"><ele>545.0</ele><time>2026-04-19T13:01:32.97Z</time></trkpt><trkpt lat="44.2666683" lon="10.137295"><ele>545.8</ele><time>2026-04-19T13:01:33.97Z</time></trkpt><trkpt lat="44.2666283" lon="10.1374067"><ele>546.6</ele><time>2026-04-19T13:01:34.97Z</time></trkpt><trkpt lat="44.2665917" lon="10.1375233"><ele>547.4</ele><time>2026-04-19T13:01:35.97Z</time></trkpt><trkpt lat="44.2665633" lon="10.13765"><ele>548.2</ele><time>2026-04-19T13:01:36.97Z</time></trkpt><trkpt lat="44.266555" lon="10.1377967"><ele>549.0</ele><time>2026-04-19T13:01:37.971Z</time></trkpt><trkpt lat="44.2665533" lon="10.13795"><ele>549.0</ele><time>2026-04-19T13:01:38.97Z</time></trkpt><trkpt lat="44.2665733" lon="10.1381133"><ele>549.0</ele><time>2026-04-19T13:01:39.97Z</time></trkpt><trkpt lat="44.266605" lon="10.13828"><ele>549.0</ele><time>2026-04-19T13:01:40.971Z</time></trkpt><trkpt lat="44.2666383" lon="10.1384383"><ele>549.0</ele><time>2026-04-19T13:01:41.97Z</time></trkpt><trkpt lat="44.2666567" lon="10.1385783"><ele>548.4</ele><time>2026-04-19T13:01:42.97Z</time></trkpt><trkpt lat="44.2666667" lon="10.1387267"><ele>547.8</ele><time>2026-04-19T13:01:43.97Z</time></trkpt><trkpt lat="44.2666683" lon="10.1388683"><ele>547.2</ele><time>2026-04-19T13:01:44.97Z</time></trkpt><trkpt lat="44.2666683" lon="10.1389933"><ele>546.6</ele><time>2026-04-19T13:01:45.97Z</time></trkpt><trkpt lat="44.2666667" lon="10.1391183"><ele>546.0</ele><time>2026-04-19T13:01:46.97Z</time></trkpt><trkpt lat="44.26668" lon="10.1392433"><ele>544.2</ele><time>2026-04-19T13:01:47.97Z</time></trkpt><trkpt lat="44.2667083" lon="10.1393717"><ele>542.4000000000001</ele><time>2026-04-19T13:01:48.97Z</time></trkpt><trkpt lat="44.2667483" lon="10.1395033"><ele>540.6</ele><time>2026-04-19T13:01:49.97Z</time></trkpt><trkpt lat="44.266795" lon="10.1396333"><ele>538.8000000000001</ele><time>2026-04-19T13:01:50.97Z</time></trkpt><trkpt lat="44.2668417" lon="10.1397617"><ele>537.0</ele><time>2026-04-19T13:01:51.97Z</time></trkpt><trkpt lat="44.2668867" lon="10.139895"><ele>534.8000000000001</ele><time>2026-04-19T13:01:52.97Z</time></trkpt><trkpt lat="44.2669183" lon="10.1400317"><ele>532.6</ele><time>2026-04-19T13:01:53.97Z</time></trkpt><trkpt lat="44.2669433" lon="10.1401567"><ele>530.4000000000001</ele><time>2026-04-19T13:01:54.97Z</time></trkpt><trkpt lat="44.2669483" lon="10.1402767"><ele>528.2</ele><time>2026-04-19T13:01:55.97Z</time></trkpt><trkpt lat="44.2669533" lon="10.1404017"><ele>526.0</ele><time>2026-04-19T13:01:56.97Z</time></trkpt><trkpt lat="44.2669633" lon="10.1405133"><ele>526.0</ele><time>2026-04-19T13:01:57.97Z</time></trkpt><trkpt lat="44.266985" lon="10.1406233"><ele>526.0</ele><time>2026-04-19T13:01:58.97Z</time></trkpt><trkpt lat="44.2670333" lon="10.1407333"><ele>526.0</ele><time>2026-04-19T13:01:59.97Z</time></trkpt><trkpt lat="44.2671033" lon="10.1408367"><ele>526.0</ele><time>2026-04-19T13:02:00.97Z</time></trkpt><trkpt lat="44.2671783" lon="10.14093"><ele>526.0</ele><time>2026-04-19T13:02:01.97Z</time></trkpt><trkpt lat="44.267235" lon="10.14103"><ele>525.0</ele><time>2026-04-19T13:02:02.97Z</time></trkpt><trkpt lat="44.2672867" lon="10.1411217"><ele>524.0</ele><time>2026-04-19T13:02:03.97Z</time></trkpt><trkpt lat="44.267335" lon="10.1412033"><ele>523.0</ele><time>2026-04-19T13:02:04.97Z</time></trkpt><trkpt lat="44.2673767" lon="10.1412917"><ele>522.0</ele><time>2026-04-19T13:02:05.97Z</time></trkpt><trkpt lat="44.26742" lon="10.1413767"><ele>521.0</ele><time>2026-04-19T13:02:06.97Z</time></trkpt><trkpt lat="44.2674517" lon="10.1414583"><ele>520.0</ele><time>2026-04-19T13:02:07.97Z</time></trkpt><trkpt lat="44.2675067" lon="10.1415933"><ele>520.0</ele><time>2026-04-19T13:02:09.97Z</time></trkpt><trkpt lat="44.2675533" lon="10.141695"><ele>520.0</ele><time>2026-04-19T13:02:11.97Z</time></trkpt><trkpt lat="44.2675367" lon="10.1417967"><ele>520.0</ele><time>2026-04-19T13:02:14.97Z</time></trkpt><trkpt lat="44.2674583" lon="10.141805"><ele>520.0</ele><time>2026-04-19T13:02:16.97Z</time></trkpt><trkpt lat="44.267385" lon="10.1417067"><ele>520.0</ele><time>2026-04-19T13:02:18.97Z</time></trkpt><trkpt lat="44.2673433" lon="10.1416217"><ele>520.0</ele><time>2026-04-19T13:02:19.97Z</time></trkpt><trkpt lat="44.2672883" lon="10.1415233"><ele>517.5</ele><time>2026-04-19T13:02:20.97Z</time></trkpt><trkpt lat="44.26722" lon="10.1414117"><ele>515.0</ele><time>2026-04-19T13:02:21.97Z</time></trkpt><trkpt lat="44.2671333" lon="10.1413067"><ele>512.5</ele><time>2026-04-19T13:02:22.97Z</time></trkpt><trkpt lat="44.2670367" lon="10.141215"><ele>510.0</ele><time>2026-04-19T13:02:23.97Z</time></trkpt><trkpt lat="44.266935" lon="10.141135"><ele>510.0</ele><time>2026-04-19T13:02:24.97Z</time></trkpt><trkpt lat="44.2668333" lon="10.1410633"><ele>510.0</ele><time>2026-04-19T13:02:25.97Z</time></trkpt><trkpt lat="44.26674" lon="10.1409933"><ele>510.0</ele><time>2026-04-19T13:02:26.97Z</time></trkpt><trkpt lat="44.2666583" lon="10.1409183"><ele>510.0</ele><time>2026-04-19T13:02:27.97Z</time></trkpt><trkpt lat="44.26658" lon="10.1408533"><ele>510.0</ele><time>2026-04-19T13:02:28.97Z</time></trkpt><trkpt lat="44.2665033" lon="10.1407933"><ele>513.2</ele><time>2026-04-19T13:02:29.97Z</time></trkpt><trkpt lat="44.2664517" lon="10.1406867"><ele>516.4</ele><time>2026-04-19T13:02:30.97Z</time></trkpt><trkpt lat="44.2664" lon="10.1405717"><ele>519.6</ele><time>2026-04-19T13:02:31.971Z</time></trkpt><trkpt lat="44.266355" lon="10.1404517"><ele>522.8</ele><time>2026-04-19T13:02:32.97Z</time></trkpt><trkpt lat="44.2663117" lon="10.1403233"><ele>526.0</ele><time>2026-04-19T13:02:33.97Z</time></trkpt><trkpt lat="44.2662717" lon="10.140185"><ele>519.2</ele><time>2026-04-19T13:02:34.97Z</time></trkpt><trkpt lat="44.2662317" lon="10.1400617"><ele>512.4000000000001</ele><time>2026-04-19T13:02:35.97Z</time></trkpt><trkpt lat="44.2661867" lon="10.139935"><ele>505.6</ele><time>2026-04-19T13:02:36.97Z</time></trkpt><trkpt lat="44.266135" lon="10.139785"><ele>498.8</ele><time>2026-04-19T13:02:37.97Z</time></trkpt><trkpt lat="44.2660917" lon="10.1396233"><ele>492.0</ele><time>2026-04-19T13:02:38.971Z</time></trkpt><trkpt lat="44.26604" lon="10.13947"><ele>492.0</ele><time>2026-04-19T13:02:39.97Z</time></trkpt><trkpt lat="44.2659983" lon="10.1393233"><ele>492.00000000000006</ele><time>2026-04-19T13:02:40.97Z</time></trkpt><trkpt lat="44.2659533" lon="10.13918"><ele>492.00000000000006</ele><time>2026-04-19T13:02:41.97Z</time></trkpt><trkpt lat="44.2659117" lon="10.1390367"><ele>492.0</ele><time>2026-04-19T13:02:42.97Z</time></trkpt><trkpt lat="44.265865" lon="10.1388967"><ele>492.0</ele><time>2026-04-19T13:02:43.97Z</time></trkpt><trkpt lat="44.265815" lon="10.1387583"><ele>494.20000000000005</ele><time>2026-04-19T13:02:44.97Z</time></trkpt><trkpt lat="44.265765" lon="10.1386217"><ele>496.40000000000003</ele><time>2026-04-19T13:02:45.97Z</time></trkpt><trkpt lat="44.2657117" lon="10.1385"><ele>498.59999999999997</ele><time>2026-04-19T13:02:46.97Z</time></trkpt><trkpt lat="44.26566" lon="10.138385"><ele>500.79999999999995</ele><time>2026-04-19T13:02:47.97Z</time></trkpt><trkpt lat="44.26561" lon="10.138265"><ele>503.0</ele><time>2026-04-19T13:02:48.97Z</time></trkpt><trkpt lat="44.2655533" lon="10.1381433"><ele>497.4</ele><time>2026-04-19T13:02:49.97Z</time></trkpt><trkpt lat="44.2654917" lon="10.1380233"><ele>491.79999999999995</ele><time>2026-04-19T13:02:50.97Z</time></trkpt><trkpt lat="44.265435" lon="10.13791"><ele>486.2</ele><time>2026-04-19T13:02:51.97Z</time></trkpt><trkpt lat="44.26538" lon="10.1377833"><ele>480.6</ele><time>2026-04-19T13:02:52.97Z</time></trkpt><trkpt lat="44.2653217" lon="10.1376517"><ele>475.0</ele><time>2026-04-19T13:02:53.97Z</time></trkpt><trkpt lat="44.2652633" lon="10.1375083"><ele>476.4</ele><time>2026-04-19T13:02:54.97Z</time></trkpt><trkpt lat="44.2652117" lon="10.1373733"><ele>477.8</ele><time>2026-04-19T13:02:55.971Z</time></trkpt><trkpt lat="44.26517" lon="10.1372433"><ele>479.20000000000005</ele><time>2026-04-19T13:02:56.97Z</time></trkpt><trkpt lat="44.2651467" lon="10.137115"><ele>480.6</ele><time>2026-04-19T13:02:57.97Z</time></trkpt><trkpt lat="44.2651267" lon="10.13699"><ele>482.0</ele><time>2026-04-19T13:02:58.97Z</time></trkpt><trkpt lat="44.265115" lon="10.1368667"><ele>481.99999999999994</ele><time>2026-04-19T13:02:59.97Z</time></trkpt><trkpt lat="44.2651117" lon="10.1367467"><ele>482.0</ele><time>2026-04-19T13:03:00.97Z</time></trkpt><trkpt lat="44.2650983" lon="10.1366317"><ele>482.0</ele><time>2026-04-19T13:03:01.97Z</time></trkpt><trkpt lat="44.2650617" lon="10.13654"><ele>482.0</ele><time>2026-04-19T13:03:02.97Z</time></trkpt><trkpt lat="44.265" lon="10.1364633"><ele>481.99999999999994</ele><time>2026-04-19T13:03:03.97Z</time></trkpt><trkpt lat="44.264935" lon="10.13639"><ele>482.0</ele><time>2026-04-19T13:03:04.97Z</time></trkpt><trkpt lat="44.2648617" lon="10.1363067"><ele>483.40000000000003</ele><time>2026-04-19T13:03:05.97Z</time></trkpt><trkpt lat="44.2647817" lon="10.1362133"><ele>484.80000000000007</ele><time>2026-04-19T13:03:06.97Z</time></trkpt><trkpt lat="44.264715" lon="10.136115"><ele>486.2</ele><time>2026-04-19T13:03:07.97Z</time></trkpt><trkpt lat="44.264655" lon="10.1360167"><ele>487.6</ele><time>2026-04-19T13:03:08.97Z</time></trkpt><trkpt lat="44.2645917" lon="10.13591"><ele>489.0</ele><time>2026-04-19T13:03:09.97Z</time></trkpt><trkpt lat="44.2645367" lon="10.13581"><ele>484.6666666666667</ele><time>2026-04-19T13:03:10.97Z</time></trkpt><trkpt lat="44.2644833" lon="10.1357033"><ele>480.33333333333337</ele><time>2026-04-19T13:03:11.97Z</time></trkpt><trkpt lat="44.2644417" lon="10.1355967"><ele>476.0</ele><time>2026-04-19T13:03:12.97Z</time></trkpt><trkpt lat="44.2644033" lon="10.1354817"><ele>471.6666666666667</ele><time>2026-04-19T13:03:13.97Z</time></trkpt><trkpt lat="44.2643567" lon="10.1353933"><ele>467.33333333333337</ele><time>2026-04-19T13:03:14.97Z</time></trkpt><trkpt lat="44.2643133" lon="10.1353017"><ele>463.0</ele><time>2026-04-19T13:03:15.97Z</time></trkpt><trkpt lat="44.264275" lon="10.1352083"><ele>463.00000000000006</ele><time>2026-04-19T13:03:16.97Z</time></trkpt><trkpt lat="44.264235" lon="10.1351017"><ele>463.0</ele><time>2026-04-19T13:03:17.97Z</time></trkpt><trkpt lat="44.2642083" lon="10.13499"><ele>463.0</ele><time>2026-04-19T13:03:18.97Z</time></trkpt><trkpt lat="44.2641883" lon="10.1348783"><ele>463.0</ele><time>2026-04-19T13:03:19.97Z</time></trkpt><trkpt lat="44.26417" lon="10.1347733"><ele>463.00000000000006</ele><time>2026-04-19T13:03:20.97Z</time></trkpt><trkpt lat="44.26416" lon="10.1346733"><ele>463.0</ele><time>2026-04-19T13:03:21.97Z</time></trkpt><trkpt lat="44.2641617" lon="10.1345183"><ele>460.6666666666667</ele><time>2026-04-19T13:03:23.97Z</time></trkpt><trkpt lat="44.2642267" lon="10.1343933"><ele>458.33333333333337</ele><time>2026-04-19T13:03:25.97Z</time></trkpt><trkpt lat="44.2642883" lon="10.13436"><ele>456.0</ele><time>2026-04-19T13:03:26.97Z</time></trkpt><trkpt lat="44.2643617" lon="10.1343633"><ele>453.66666666666663</ele><time>2026-04-19T13:03:27.97Z</time></trkpt><trkpt lat="44.26444" lon="10.13437"><ele>451.3333333333333</ele><time>2026-04-19T13:03:28.971Z</time></trkpt><trkpt lat="44.2645233" lon="10.13441"><ele>449.0</ele><time>2026-04-19T13:03:29.97Z</time></trkpt><trkpt lat="44.2646067" lon="10.1344467"><ele>448.99999999999994</ele><time>2026-04-19T13:03:30.97Z</time></trkpt><trkpt lat="44.2646833" lon="10.134475"><ele>449.0</ele><time>2026-04-19T13:03:31.97Z</time></trkpt><trkpt lat="44.264755" lon="10.1344983"><ele>449.0</ele><time>2026-04-19T13:03:32.97Z</time></trkpt><trkpt lat="44.2648333" lon="10.1345417"><ele>449.0</ele><time>2026-04-19T13:03:33.97Z</time></trkpt><trkpt lat="44.2649167" lon="10.13459"><ele>448.99999999999994</ele><time>2026-04-19T13:03:34.97Z</time></trkpt><trkpt lat="44.26501" lon="10.1346333"><ele>449.0</ele><time>2026-04-19T13:03:35.97Z</time></trkpt><trkpt lat="44.2651033" lon="10.1346567"><ele>449.0</ele><time>2026-04-19T13:03:36.97Z</time></trkpt><trkpt lat="44.2651983" lon="10.1346617"><ele>449.0</ele><time>2026-04-19T13:03:37.97Z</time></trkpt><trkpt lat="44.2652833" lon="10.1346533"><ele>449.0</ele><time>2026-04-19T13:03:38.97Z</time></trkpt><trkpt lat="44.2653567" lon="10.1346533"><ele>449.0</ele><time>2026-04-19T13:03:39.97Z</time></trkpt><trkpt lat="44.26547" lon="10.134595"><ele>449.0</ele><time>2026-04-19T13:03:41.97Z</time></trkpt><trkpt lat="44.2655517" lon="10.1344583"><ele>449.0</ele><time>2026-04-19T13:03:43.97Z</time></trkpt><trkpt lat="44.26558" lon="10.1343383"><ele>449.0</ele><time>2026-04-19T13:03:44.97Z</time></trkpt><trkpt lat="44.2656033" lon="10.134215"><ele>449.0</ele><time>2026-04-19T13:03:45.97Z</time></trkpt><trkpt lat="44.2656217" lon="10.1340767"><ele>449.0</ele><time>2026-04-19T13:03:46.97Z</time></trkpt><trkpt lat="44.2656367" lon="10.1339483"><ele>449.0</ele><time>2026-04-19T13:03:47.97Z</time></trkpt><trkpt lat="44.2656417" lon="10.1338167"><ele>447.99999999999994</ele><time>2026-04-19T13:03:48.97Z</time></trkpt><trkpt lat="44.2656567" lon="10.1337067"><ele>447.0</ele><time>2026-04-19T13:03:49.97Z</time></trkpt><trkpt lat="44.265685" lon="10.1336167"><ele>446.0</ele><time>2026-04-19T13:03:50.97Z</time></trkpt><trkpt lat="44.2657733" lon="10.13353"><ele>445.0</ele><time>2026-04-19T13:03:52.97Z</time></trkpt><trkpt lat="44.26582" lon="10.13346"><ele>443.99999999999994</ele><time>2026-04-19T13:03:54.969Z</time></trkpt><trkpt lat="44.2657917" lon="10.133375"><ele>443.0</ele><time>2026-04-19T13:03:56.969Z</time></trkpt><trkpt lat="44.2656783" lon="10.1333167"><ele>440.16666666666663</ele><time>2026-04-19T13:03:58.969Z</time></trkpt><trkpt lat="44.2656017" lon="10.133295"><ele>437.3333333333333</ele><time>2026-04-19T13:03:59.969Z</time></trkpt><trkpt lat="44.2655333" lon="10.13328"><ele>434.5</ele><time>2026-04-19T13:04:00.969Z</time></trkpt><trkpt lat="44.2654683" lon="10.1332717"><ele>431.66666666666663</ele><time>2026-04-19T13:04:01.969Z</time></trkpt><trkpt lat="44.265375" lon="10.1333383"><ele>428.8333333333333</ele><time>2026-04-19T13:04:03.969Z</time></trkpt><trkpt lat="44.2653683" lon="10.1335017"><ele>426.0</ele><time>2026-04-19T13:04:05.969Z</time></trkpt><trkpt lat="44.26538" lon="10.1336117"><ele>426.0</ele><time>2026-04-19T13:04:06.969Z</time></trkpt><trkpt lat="44.26538" lon="10.1337283"><ele>426.0</ele><time>2026-04-19T13:04:07.969Z</time></trkpt><trkpt lat="44.2653683" lon="10.1338433"><ele>426.0</ele><time>2026-04-19T13:04:08.969Z</time></trkpt><trkpt lat="44.265345" lon="10.13394"><ele>426.0</ele><time>2026-04-19T13:04:09.969Z</time></trkpt><trkpt lat="44.2652967" lon="10.134"><ele>426.0</ele><time>2026-04-19T13:04:10.969Z</time></trkpt><trkpt lat="44.26521" lon="10.1340683"><ele>426.0</ele><time>2026-04-19T13:04:12.969Z</time></trkpt><trkpt lat="44.2651017" lon="10.133995"><ele>426.0</ele><time>2026-04-19T13:04:14.969Z</time></trkpt><trkpt lat="44.26506" lon="10.133905"><ele>426.0</ele><time>2026-04-19T13:04:15.969Z</time></trkpt><trkpt lat="44.2650017" lon="10.13381"><ele>426.0</ele><time>2026-04-19T13:04:16.969Z</time></trkpt><trkpt lat="44.2649233" lon="10.1337283"><ele>426.0</ele><time>2026-04-19T13:04:17.969Z</time></trkpt><trkpt lat="44.2648217" lon="10.1336617"><ele>426.0</ele><time>2026-04-19T13:04:18.969Z</time></trkpt><trkpt lat="44.2647167" lon="10.1336083"><ele>424.8</ele><time>2026-04-19T13:04:19.969Z</time></trkpt><trkpt lat="44.2646133" lon="10.1335567"><ele>423.6</ele><time>2026-04-19T13:04:20.969Z</time></trkpt><trkpt lat="44.264525" lon="10.1334867"><ele>422.4</ele><time>2026-04-19T13:04:21.969Z</time></trkpt><trkpt lat="44.2644283" lon="10.1333933"><ele>421.2</ele><time>2026-04-19T13:04:22.969Z</time></trkpt><trkpt lat="44.2643383" lon="10.1333133"><ele>420.0</ele><time>2026-04-19T13:04:23.969Z</time></trkpt><trkpt lat="44.2642433" lon="10.1332467"><ele>416.4</ele><time>2026-04-19T13:04:24.969Z</time></trkpt><trkpt lat="44.2641533" lon="10.133185"><ele>412.8</ele><time>2026-04-19T13:04:25.969Z</time></trkpt><trkpt lat="44.2640583" lon="10.1331217"><ele>409.20000000000005</ele><time>2026-04-19T13:04:26.969Z</time></trkpt><trkpt lat="44.2639567" lon="10.1330617"><ele>405.6</ele><time>2026-04-19T13:04:27.969Z</time></trkpt><trkpt lat="44.2638533" lon="10.1330117"><ele>402.0</ele><time>2026-04-19T13:04:28.969Z</time></trkpt><trkpt lat="44.2637333" lon="10.1329783"><ele>400.6</ele><time>2026-04-19T13:04:29.969Z</time></trkpt><trkpt lat="44.263635" lon="10.1329467"><ele>399.20000000000005</ele><time>2026-04-19T13:04:30.969Z</time></trkpt><trkpt lat="44.26354" lon="10.1329233"><ele>397.8</ele><time>2026-04-19T13:04:31.969Z</time></trkpt><trkpt lat="44.2634517" lon="10.1328967"><ele>396.4</ele><time>2026-04-19T13:04:32.969Z</time></trkpt><trkpt lat="44.2633683" lon="10.1328783"><ele>395.0</ele><time>2026-04-19T13:04:33.969Z</time></trkpt><trkpt lat="44.2632833" lon="10.1328967"><ele>395.0</ele><time>2026-04-19T13:04:34.969Z</time></trkpt><trkpt lat="44.2631883" lon="10.1329367"><ele>395.0</ele><time>2026-04-19T13:04:35.969Z</time></trkpt><trkpt lat="44.2630967" lon="10.13298"><ele>395.0</ele><time>2026-04-19T13:04:36.969Z</time></trkpt><trkpt lat="44.2630083" lon="10.1330033"><ele>395.0</ele><time>2026-04-19T13:04:37.969Z</time></trkpt><trkpt lat="44.2629217" lon="10.1330117"><ele>395.0</ele><time>2026-04-19T13:04:38.969Z</time></trkpt><trkpt lat="44.2628167" lon="10.132975"><ele>395.0</ele><time>2026-04-19T13:04:39.969Z</time></trkpt><trkpt lat="44.26272" lon="10.132905"><ele>395.0</ele><time>2026-04-19T13:04:40.969Z</time></trkpt><trkpt lat="44.2626217" lon="10.13283"><ele>395.0</ele><time>2026-04-19T13:04:41.969Z</time></trkpt><trkpt lat="44.2625033" lon="10.1327367"><ele>395.0</ele><time>2026-04-19T13:04:42.969Z</time></trkpt><trkpt lat="44.2624033" lon="10.1326533"><ele>395.0</ele><time>2026-04-19T13:04:43.969Z</time></trkpt><trkpt lat="44.2623033" lon="10.1325667"><ele>395.0</ele><time>2026-04-19T13:04:44.969Z</time></trkpt><trkpt lat="44.2622067" lon="10.1324983"><ele>395.0</ele><time>2026-04-19T13:04:45.969Z</time></trkpt><trkpt lat="44.2621167" lon="10.132435"><ele>395.0</ele><time>2026-04-19T13:04:46.969Z</time></trkpt><trkpt lat="44.2620333" lon="10.132375"><ele>395.0</ele><time>2026-04-19T13:04:47.969Z</time></trkpt><trkpt lat="44.2619533" lon="10.1323083"><ele>392.16666666666663</ele><time>2026-04-19T13:04:48.969Z</time></trkpt><trkpt lat="44.2618817" lon="10.132245"><ele>389.3333333333333</ele><time>2026-04-19T13:04:49.969Z</time></trkpt><trkpt lat="44.2618167" lon="10.1321733"><ele>386.5</ele><time>2026-04-19T13:04:50.969Z</time></trkpt><trkpt lat="44.2617567" lon="10.1320983"><ele>383.66666666666663</ele><time>2026-04-19T13:04:51.969Z</time></trkpt><trkpt lat="44.2616833" lon="10.13199"><ele>380.8333333333333</ele><time>2026-04-19T13:04:53.969Z</time></trkpt><trkpt lat="44.2616333" lon="10.1319133"><ele>378.0</ele><time>2026-04-19T13:04:55.969Z</time></trkpt><trkpt lat="44.2615717" lon="10.131975"><ele>378.0</ele><time>2026-04-19T13:04:58.97Z</time></trkpt><trkpt lat="44.2616167" lon="10.1321017"><ele>378.0</ele><time>2026-04-19T13:05:00.969Z</time></trkpt><trkpt lat="44.261665" lon="10.1321883"><ele>378.0</ele><time>2026-04-19T13:05:01.969Z</time></trkpt><trkpt lat="44.2617133" lon="10.1322867"><ele>378.0</ele><time>2026-04-19T13:05:02.969Z</time></trkpt><trkpt lat="44.2617633" lon="10.1323783"><ele>378.0</ele><time>2026-04-19T13:05:03.969Z</time></trkpt><trkpt lat="44.2618133" lon="10.1324633"><ele>378.0</ele><time>2026-04-19T13:05:04.969Z</time></trkpt><trkpt lat="44.261855" lon="10.132545"><ele>377.79999999999995</ele><time>2026-04-19T13:05:05.969Z</time></trkpt><trkpt lat="44.2618967" lon="10.1326267"><ele>377.6</ele><time>2026-04-19T13:05:06.969Z</time></trkpt><trkpt lat="44.26193" lon="10.1327067"><ele>377.4</ele><time>2026-04-19T13:05:07.969Z</time></trkpt><trkpt lat="44.2619717" lon="10.1328567"><ele>377.20000000000005</ele><time>2026-04-19T13:05:09.969Z</time></trkpt><trkpt lat="44.2619917" lon="10.133035"><ele>377.0</ele><time>2026-04-19T13:05:11.969Z</time></trkpt><trkpt lat="44.26199" lon="10.1331433"><ele>375.83333333333337</ele><time>2026-04-19T13:05:12.969Z</time></trkpt><trkpt lat="44.261975" lon="10.1332583"><ele>374.6666666666667</ele><time>2026-04-19T13:05:13.969Z</time></trkpt><trkpt lat="44.26195" lon="10.13337"><ele>373.5</ele><time>2026-04-19T13:05:14.969Z</time></trkpt><trkpt lat="44.2619167" lon="10.1334733"><ele>372.3333333333333</ele><time>2026-04-19T13:05:15.969Z</time></trkpt><trkpt lat="44.2618783" lon="10.1335667"><ele>371.16666666666663</ele><time>2026-04-19T13:05:16.97Z</time></trkpt><trkpt lat="44.2618483" lon="10.133655"><ele>370.0</ele><time>2026-04-19T13:05:17.969Z</time></trkpt><trkpt lat="44.2618633" lon="10.1338"><ele>370.0</ele><time>2026-04-19T13:05:19.969Z</time></trkpt><trkpt lat="44.2619733" lon="10.13389"><ele>370.0</ele><time>2026-04-19T13:05:21.969Z</time></trkpt><trkpt lat="44.2620583" lon="10.133925"><ele>370.0</ele><time>2026-04-19T13:05:22.969Z</time></trkpt><trkpt lat="44.2621483" lon="10.133985"><ele>370.0</ele><time>2026-04-19T13:05:23.969Z</time></trkpt><trkpt lat="44.2622217" lon="10.1340683"><ele>370.0</ele><time>2026-04-19T13:05:24.97Z</time></trkpt><trkpt lat="44.26228" lon="10.134145"><ele>370.3333333333333</ele><time>2026-04-19T13:05:25.969Z</time></trkpt><trkpt lat="44.262325" lon="10.1342383"><ele>370.66666666666663</ele><time>2026-04-19T13:05:26.969Z</time></trkpt><trkpt lat="44.2623533" lon="10.13433"><ele>371.0</ele><time>2026-04-19T13:05:27.969Z</time></trkpt><trkpt lat="44.2623667" lon="10.1344267"><ele>371.3333333333333</ele><time>2026-04-19T13:05:28.969Z</time></trkpt><trkpt lat="44.2623383" lon="10.1345917"><ele>371.6666666666667</ele><time>2026-04-19T13:05:30.969Z</time></trkpt><trkpt lat="44.2622583" lon="10.134685"><ele>372.0</ele><time>2026-04-19T13:05:32.969Z</time></trkpt><trkpt lat="44.262195" lon="10.1346967"><ele>372.0</ele><time>2026-04-19T13:05:33.969Z</time></trkpt><trkpt lat="44.262115" lon="10.134685"><ele>372.0</ele><time>2026-04-19T13:05:34.969Z</time></trkpt><trkpt lat="44.2620133" lon="10.13466"><ele>372.0</ele><time>2026-04-19T13:05:35.969Z</time></trkpt><trkpt lat="44.26191" lon="10.1346333"><ele>372.0</ele><time>2026-04-19T13:05:36.969Z</time></trkpt><trkpt lat="44.2618033" lon="10.13462"><ele>372.0</ele><time>2026-04-19T13:05:37.969Z</time></trkpt><trkpt lat="44.2616933" lon="10.13461"><ele>372.0</ele><time>2026-04-19T13:05:38.969Z</time></trkpt><trkpt lat="44.26159" lon="10.1345967"><ele>372.0</ele><time>2026-04-19T13:05:39.969Z</time></trkpt><trkpt lat="44.2614917" lon="10.1345767"><ele>372.0</ele><time>2026-04-19T13:05:40.969Z</time></trkpt><trkpt lat="44.2613917" lon="10.1345583"><ele>372.0</ele><time>2026-04-19T13:05:41.969Z</time></trkpt><trkpt lat="44.261295" lon="10.1345317"><ele>372.0</ele><time>2026-04-19T13:05:42.969Z</time></trkpt><trkpt lat="44.2612067" lon="10.1344933"><ele>375.3333333333333</ele><time>2026-04-19T13:05:43.969Z</time></trkpt><trkpt lat="44.2611267" lon="10.1344483"><ele>378.66666666666663</ele><time>2026-04-19T13:05:44.969Z</time></trkpt><trkpt lat="44.2610567" lon="10.1343933"><ele>382.0</ele><time>2026-04-19T13:05:45.969Z</time></trkpt><trkpt lat="44.26099" lon="10.1343117"><ele>385.3333333333333</ele><time>2026-04-19T13:05:46.969Z</time></trkpt><trkpt lat="44.2609517" lon="10.134195"><ele>388.66666666666663</ele><time>2026-04-19T13:05:47.969Z</time></trkpt><trkpt lat="44.2609433" lon="10.13407"><ele>392.0</ele><time>2026-04-19T13:05:48.969Z</time></trkpt><trkpt lat="44.2609517" lon="10.1339417"><ele>391.99999999999994</ele><time>2026-04-19T13:05:49.969Z</time></trkpt><trkpt lat="44.26098" lon="10.1338083"><ele>392.0</ele><time>2026-04-19T13:05:50.969Z</time></trkpt><trkpt lat="44.2610117" lon="10.1336817"><ele>392.0</ele><time>2026-04-19T13:05:51.969Z</time></trkpt><trkpt lat="44.2610617" lon="10.1335717"><ele>392.0</ele><time>2026-04-19T13:05:52.969Z</time></trkpt><trkpt lat="44.2610783" lon="10.1334783"><ele>391.99999999999994</ele><time>2026-04-19T13:05:53.97Z</time></trkpt><trkpt lat="44.2610917" lon="10.13339"><ele>392.0</ele><time>2026-04-19T13:05:54.969Z</time></trkpt><trkpt lat="44.26108" lon="10.13325"><ele>395.0</ele><time>2026-04-19T13:05:56.969Z</time></trkpt><trkpt lat="44.26096" lon="10.1331783"><ele>398.0</ele><time>2026-04-19T13:05:58.969Z</time></trkpt><trkpt lat="44.260875" lon="10.13316"><ele>401.0</ele><time>2026-04-19T13:05:59.969Z</time></trkpt><trkpt lat="44.2607767" lon="10.1331317"><ele>404.0</ele><time>2026-04-19T13:06:00.969Z</time></trkpt><trkpt lat="44.260675" lon="10.1330933"><ele>407.0</ele><time>2026-04-19T13:06:01.969Z</time></trkpt><trkpt lat="44.2605683" lon="10.13304"><ele>407.0</ele><time>2026-04-19T13:06:02.969Z</time></trkpt><trkpt lat="44.2604683" lon="10.1329767"><ele>407.0</ele><time>2026-04-19T13:06:03.969Z</time></trkpt><trkpt lat="44.2603667" lon="10.1329083"><ele>407.0</ele><time>2026-04-19T13:06:04.969Z</time></trkpt><trkpt lat="44.2602833" lon="10.1328283"><ele>407.0</ele><time>2026-04-19T13:06:05.969Z</time></trkpt><trkpt lat="44.2602033" lon="10.1327283"><ele>407.0</ele><time>2026-04-19T13:06:06.969Z</time></trkpt><trkpt lat="44.26012" lon="10.1326233"><ele>406.99999999999994</ele><time>2026-04-19T13:06:07.969Z</time></trkpt><trkpt lat="44.2600417" lon="10.13252"><ele>407.0</ele><time>2026-04-19T13:06:08.969Z</time></trkpt><trkpt lat="44.2599867" lon="10.1324317"><ele>407.0</ele><time>2026-04-19T13:06:09.969Z</time></trkpt><trkpt lat="44.2599383" lon="10.13234"><ele>407.0</ele><time>2026-04-19T13:06:10.969Z</time></trkpt><trkpt lat="44.2598867" lon="10.13225"><ele>406.99999999999994</ele><time>2026-04-19T13:06:11.969Z</time></trkpt><trkpt lat="44.259825" lon="10.1321767"><ele>407.0</ele><time>2026-04-19T13:06:12.969Z</time></trkpt><trkpt lat="44.259745" lon="10.1321317"><ele>405.20000000000005</ele><time>2026-04-19T13:06:13.969Z</time></trkpt><trkpt lat="44.2596617" lon="10.132095"><ele>403.4</ele><time>2026-04-19T13:06:14.969Z</time></trkpt><trkpt lat="44.259565" lon="10.1320667"><ele>401.6</ele><time>2026-04-19T13:06:15.969Z</time></trkpt><trkpt lat="44.2594683" lon="10.1320783"><ele>399.79999999999995</ele><time>2026-04-19T13:06:16.969Z</time></trkpt><trkpt lat="44.25938" lon="10.1321267"><ele>398.0</ele><time>2026-04-19T13:06:17.969Z</time></trkpt><trkpt lat="44.2592933" lon="10.132205"><ele>398.0</ele><time>2026-04-19T13:06:18.969Z</time></trkpt><trkpt lat="44.25921" lon="10.1322783"><ele>398.0</ele><time>2026-04-19T13:06:19.969Z</time></trkpt><trkpt lat="44.259115" lon="10.1323417"><ele>398.0</ele><time>2026-04-19T13:06:20.969Z</time></trkpt><trkpt lat="44.259025" lon="10.1323667"><ele>398.0</ele><time>2026-04-19T13:06:21.969Z</time></trkpt><trkpt lat="44.25893" lon="10.13234"><ele>398.0</ele><time>2026-04-19T13:06:22.969Z</time></trkpt><trkpt lat="44.2588417" lon="10.13229"><ele>402.0</ele><time>2026-04-19T13:06:23.969Z</time></trkpt><trkpt lat="44.2587433" lon="10.1322067"><ele>406.0</ele><time>2026-04-19T13:06:24.969Z</time></trkpt><trkpt lat="44.2586433" lon="10.1321283"><ele>410.0</ele><time>2026-04-19T13:06:25.969Z</time></trkpt><trkpt lat="44.2585433" lon="10.132055"><ele>414.0</ele><time>2026-04-19T13:06:26.969Z</time></trkpt><trkpt lat="44.25843" lon="10.1319883"><ele>414.0</ele><time>2026-04-19T13:06:27.969Z</time></trkpt><trkpt lat="44.258335" lon="10.1319267"><ele>414.0</ele><time>2026-04-19T13:06:28.97Z</time></trkpt><trkpt lat="44.258245" lon="10.1318717"><ele>414.0</ele><time>2026-04-19T13:06:29.969Z</time></trkpt><trkpt lat="44.2581583" lon="10.1318267"><ele>414.0</ele><time>2026-04-19T13:06:30.969Z</time></trkpt><trkpt lat="44.2580667" lon="10.1317767"><ele>414.0</ele><time>2026-04-19T13:06:31.969Z</time></trkpt><trkpt lat="44.2579717" lon="10.13172"><ele>416.3333333333333</ele><time>2026-04-19T13:06:32.969Z</time></trkpt><trkpt lat="44.257885" lon="10.131665"><ele>418.66666666666663</ele><time>2026-04-19T13:06:33.969Z</time></trkpt><trkpt lat="44.2577983" lon="10.1316267"><ele>421.0</ele><time>2026-04-19T13:06:34.969Z</time></trkpt><trkpt lat="44.2577183" lon="10.1315967"><ele>423.3333333333333</ele><time>2026-04-19T13:06:35.969Z</time></trkpt><trkpt lat="44.25763" lon="10.1315817"><ele>425.66666666666663</ele><time>2026-04-19T13:06:36.969Z</time></trkpt><trkpt lat="44.257545" lon="10.131585"><ele>428.0</ele><time>2026-04-19T13:06:37.969Z</time></trkpt><trkpt lat="44.2574583" lon="10.1316117"><ele>428.0</ele><time>2026-04-19T13:06:38.969Z</time></trkpt><trkpt lat="44.2573833" lon="10.131655"><ele>427.99999999999994</ele><time>2026-04-19T13:06:39.969Z</time></trkpt><trkpt lat="44.2572683" lon="10.131725"><ele>427.99999999999994</ele><time>2026-04-19T13:06:41.969Z</time></trkpt><trkpt lat="44.2572" lon="10.1317217"><ele>428.0</ele><time>2026-04-19T13:06:42.969Z</time></trkpt><trkpt lat="44.257125" lon="10.1316217"><ele>428.0</ele><time>2026-04-19T13:06:44.969Z</time></trkpt><trkpt lat="44.25706" lon="10.1315517"><ele>425.79999999999995</ele><time>2026-04-19T13:06:45.969Z</time></trkpt><trkpt lat="44.2569967" lon="10.131495"><ele>423.59999999999997</ele><time>2026-04-19T13:06:46.969Z</time></trkpt><trkpt lat="44.2569083" lon="10.1314533"><ele>421.4</ele><time>2026-04-19T13:06:47.969Z</time></trkpt><trkpt lat="44.2568033" lon="10.131435"><ele>419.20000000000005</ele><time>2026-04-19T13:06:48.969Z</time></trkpt><trkpt lat="44.2566967" lon="10.13144"><ele>417.0</ele><time>2026-04-19T13:06:49.969Z</time></trkpt><trkpt lat="44.2565917" lon="10.1314533"><ele>417.0</ele><time>2026-04-19T13:06:50.969Z</time></trkpt><trkpt lat="44.25648" lon="10.1314783"><ele>417.0</ele><time>2026-04-19T13:06:51.969Z</time></trkpt><trkpt lat="44.256375" lon="10.13148"><ele>417.0</ele><time>2026-04-19T13:06:52.969Z</time></trkpt><trkpt lat="44.256285" lon="10.1314617"><ele>417.0</ele><time>2026-04-19T13:06:53.969Z</time></trkpt><trkpt lat="44.2561917" lon="10.1314117"><ele>417.0</ele><time>2026-04-19T13:06:54.97Z</time></trkpt><trkpt lat="44.2561167" lon="10.1313533"><ele>419.5714285714286</ele><time>2026-04-19T13:06:55.969Z</time></trkpt><trkpt lat="44.2560417" lon="10.131305"><ele>422.1428571428571</ele><time>2026-04-19T13:06:56.969Z</time></trkpt><trkpt lat="44.2559717" lon="10.13126"><ele>424.7142857142857</ele><time>2026-04-19T13:06:57.969Z</time></trkpt><trkpt lat="44.2558983" lon="10.1312683"><ele>427.28571428571433</ele><time>2026-04-19T13:06:58.97Z</time></trkpt><trkpt lat="44.255845" lon="10.1313167"><ele>429.8571428571429</ele><time>2026-04-19T13:06:59.969Z</time></trkpt><trkpt lat="44.2558033" lon="10.1313983"><ele>432.42857142857144</ele><time>2026-04-19T13:07:00.969Z</time></trkpt><trkpt lat="44.2557817" lon="10.131495"><ele>435.0</ele><time>2026-04-19T13:07:01.969Z</time></trkpt><trkpt lat="44.2557817" lon="10.131605"><ele>435.25</ele><time>2026-04-19T13:07:02.969Z</time></trkpt><trkpt lat="44.2558083" lon="10.1317383"><ele>435.5</ele><time>2026-04-19T13:07:03.969Z</time></trkpt><trkpt lat="44.2558517" lon="10.1318817"><ele>435.75</ele><time>2026-04-19T13:07:04.969Z</time></trkpt><trkpt lat="44.2559033" lon="10.1320433"><ele>436.0</ele><time>2026-04-19T13:07:05.969Z</time></trkpt><trkpt lat="44.2559583" lon="10.1322133"><ele>436.0</ele><time>2026-04-19T13:07:06.969Z</time></trkpt><trkpt lat="44.2559967" lon="10.1323867"><ele>436.0</ele><time>2026-04-19T13:07:07.969Z</time></trkpt><trkpt lat="44.256025" lon="10.1325633"><ele>436.0</ele><time>2026-04-19T13:07:08.969Z</time></trkpt><trkpt lat="44.2560533" lon="10.1327667"><ele>436.0</ele><time>2026-04-19T13:07:09.969Z</time></trkpt><trkpt lat="44.2560717" lon="10.1329617"><ele>436.0</ele><time>2026-04-19T13:07:10.969Z</time></trkpt><trkpt lat="44.2560933" lon="10.1331383"><ele>436.0</ele><time>2026-04-19T13:07:11.969Z</time></trkpt><trkpt lat="44.2561217" lon="10.1333"><ele>436.0</ele><time>2026-04-19T13:07:12.969Z</time></trkpt><trkpt lat="44.2561433" lon="10.1334433"><ele>436.0</ele><time>2026-04-19T13:07:13.97Z</time></trkpt><trkpt lat="44.256165" lon="10.1335933"><ele>435.83333333333337</ele><time>2026-04-19T13:07:14.969Z</time></trkpt><trkpt lat="44.2561767" lon="10.1337267"><ele>435.6666666666667</ele><time>2026-04-19T13:07:15.969Z</time></trkpt><trkpt lat="44.2561933" lon="10.133845"><ele>435.5</ele><time>2026-04-19T13:07:16.969Z</time></trkpt><trkpt lat="44.2562033" lon="10.1339583"><ele>435.33333333333337</ele><time>2026-04-19T13:07:17.969Z</time></trkpt><trkpt lat="44.25621" lon="10.1340483"><ele>435.1666666666667</ele><time>2026-04-19T13:07:18.969Z</time></trkpt><trkpt lat="44.2562217" lon="10.1341883"><ele>435.0</ele><time>2026-04-19T13:07:20.969Z</time></trkpt><trkpt lat="44.2562317" lon="10.1343367"><ele>436.0</ele><time>2026-04-19T13:07:22.969Z</time></trkpt><trkpt lat="44.25623" lon="10.134425"><ele>437.0</ele><time>2026-04-19T13:07:23.969Z</time></trkpt><trkpt lat="44.2562183" lon="10.134535"><ele>438.0</ele><time>2026-04-19T13:07:24.969Z</time></trkpt><trkpt lat="44.2561833" lon="10.134645"><ele>439.0</ele><time>2026-04-19T13:07:25.969Z</time></trkpt><trkpt lat="44.256135" lon="10.134755"><ele>440.0</ele><time>2026-04-19T13:07:26.969Z</time></trkpt><trkpt lat="44.2560867" lon="10.1348517"><ele>441.0</ele><time>2026-04-19T13:07:27.969Z</time></trkpt><trkpt lat="44.2560433" lon="10.1349417"><ele>442.8333333333333</ele><time>2026-04-19T13:07:28.969Z</time></trkpt><trkpt lat="44.2560067" lon="10.1350217"><ele>444.66666666666663</ele><time>2026-04-19T13:07:29.969Z</time></trkpt><trkpt lat="44.2559867" lon="10.1351133"><ele>446.5</ele><time>2026-04-19T13:07:30.969Z</time></trkpt><trkpt lat="44.2559867" lon="10.1352183"><ele>448.3333333333333</ele><time>2026-04-19T13:07:31.969Z</time></trkpt><trkpt lat="44.2560017" lon="10.1353283"><ele>450.16666666666663</ele><time>2026-04-19T13:07:32.969Z</time></trkpt><trkpt lat="44.25602" lon="10.1354533"><ele>452.0</ele><time>2026-04-19T13:07:33.969Z</time></trkpt><trkpt lat="44.2560517" lon="10.1355967"><ele>454.40000000000003</ele><time>2026-04-19T13:07:34.97Z</time></trkpt><trkpt lat="44.2560833" lon="10.1357417"><ele>456.80000000000007</ele><time>2026-04-19T13:07:35.969Z</time></trkpt><trkpt lat="44.2561" lon="10.1358733"><ele>459.2</ele><time>2026-04-19T13:07:36.969Z</time></trkpt><trkpt lat="44.256095" lon="10.1360017"><ele>461.6</ele><time>2026-04-19T13:07:37.969Z</time></trkpt><trkpt lat="44.2560783" lon="10.13611"><ele>464.0</ele><time>2026-04-19T13:07:38.969Z</time></trkpt><trkpt lat="44.2560233" lon="10.136195"><ele>463.99999999999994</ele><time>2026-04-19T13:07:39.969Z</time></trkpt><trkpt lat="44.255915" lon="10.1362733"><ele>464.0</ele><time>2026-04-19T13:07:41.969Z</time></trkpt><trkpt lat="44.2558483" lon="10.136245"><ele>464.0</ele><time>2026-04-19T13:07:42.969Z</time></trkpt><trkpt lat="44.255805" lon="10.1361667"><ele>464.0</ele><time>2026-04-19T13:07:43.969Z</time></trkpt><trkpt lat="44.255775" lon="10.1360717"><ele>463.99999999999994</ele><time>2026-04-19T13:07:44.969Z</time></trkpt><trkpt lat="44.2557417" lon="10.1359583"><ele>464.0</ele><time>2026-04-19T13:07:45.969Z</time></trkpt><trkpt lat="44.25569" lon="10.1358533"><ele>464.0</ele><time>2026-04-19T13:07:46.969Z</time></trkpt><trkpt lat="44.2556333" lon="10.1357767"><ele>464.0</ele><time>2026-04-19T13:07:47.969Z</time></trkpt><trkpt lat="44.2555433" lon="10.1357033"><ele>464.0</ele><time>2026-04-19T13:07:48.969Z</time></trkpt><trkpt lat="44.25545" lon="10.13564"><ele>464.0</ele><time>2026-04-19T13:07:49.969Z</time></trkpt><trkpt lat="44.2553617" lon="10.1355633"><ele>464.0</ele><time>2026-04-19T13:07:50.969Z</time></trkpt><trkpt lat="44.25528" lon="10.13547"><ele>464.79999999999995</ele><time>2026-04-19T13:07:51.969Z</time></trkpt><trkpt lat="44.255215" lon="10.1353617"><ele>465.59999999999997</ele><time>2026-04-19T13:07:52.969Z</time></trkpt><trkpt lat="44.255155" lon="10.1352417"><ele>466.4</ele><time>2026-04-19T13:07:53.969Z</time></trkpt><trkpt lat="44.2551217" lon="10.1351083"><ele>467.2</ele><time>2026-04-19T13:07:54.969Z</time></trkpt><trkpt lat="44.2551" lon="10.1349633"><ele>468.0</ele><time>2026-04-19T13:07:55.969Z</time></trkpt><trkpt lat="44.255095" lon="10.134805"><ele>465.0</ele><time>2026-04-19T13:07:56.969Z</time></trkpt><trkpt lat="44.2551033" lon="10.1346683"><ele>461.99999999999994</ele><time>2026-04-19T13:07:57.969Z</time></trkpt><trkpt lat="44.2551117" lon="10.1345517"><ele>458.99999999999994</ele><time>2026-04-19T13:07:58.969Z</time></trkpt><trkpt lat="44.2550933" lon="10.13443"><ele>456.0</ele><time>2026-04-19T13:07:59.969Z</time></trkpt><trkpt lat="44.25506" lon="10.1343017"><ele>453.0</ele><time>2026-04-19T13:08:00.969Z</time></trkpt><trkpt lat="44.2550017" lon="10.1341717"><ele>454.2</ele><time>2026-04-19T13:08:01.969Z</time></trkpt><trkpt lat="44.2549433" lon="10.1340333"><ele>455.4</ele><time>2026-04-19T13:08:02.969Z</time></trkpt><trkpt lat="44.2548883" lon="10.13389"><ele>456.59999999999997</ele><time>2026-04-19T13:08:03.969Z</time></trkpt><trkpt lat="44.25483" lon="10.1337583"><ele>457.79999999999995</ele><time>2026-04-19T13:08:04.969Z</time></trkpt><trkpt lat="44.25478" lon="10.1336333"><ele>459.0</ele><time>2026-04-19T13:08:05.969Z</time></trkpt><trkpt lat="44.2547233" lon="10.1335133"><ele>459.0</ele><time>2026-04-19T13:08:06.969Z</time></trkpt><trkpt lat="44.25466" lon="10.1333917"><ele>459.0</ele><time>2026-04-19T13:08:07.969Z</time></trkpt><trkpt lat="44.2545917" lon="10.1332833"><ele>459.0</ele><time>2026-04-19T13:08:08.969Z</time></trkpt><trkpt lat="44.2545217" lon="10.1331717"><ele>459.0</ele><time>2026-04-19T13:08:09.969Z</time></trkpt><trkpt lat="44.254435" lon="10.1330783"><ele>459.0</ele><time>2026-04-19T13:08:10.969Z</time></trkpt><trkpt lat="44.2543567" lon="10.1329767"><ele>457.4</ele><time>2026-04-19T13:08:11.969Z</time></trkpt><trkpt lat="44.2542733" lon="10.1328817"><ele>455.79999999999995</ele><time>2026-04-19T13:08:12.969Z</time></trkpt><trkpt lat="44.2541917" lon="10.1327867"><ele>454.20000000000005</ele><time>2026-04-19T13:08:13.969Z</time></trkpt><trkpt lat="44.2541083" lon="10.1326867"><ele>452.6</ele><time>2026-04-19T13:08:14.969Z</time></trkpt><trkpt lat="44.2540217" lon="10.13259"><ele>451.0</ele><time>2026-04-19T13:08:15.969Z</time></trkpt><trkpt lat="44.2539333" lon="10.1325"><ele>451.0</ele><time>2026-04-19T13:08:16.969Z</time></trkpt><trkpt lat="44.2538517" lon="10.1324067"><ele>451.0</ele><time>2026-04-19T13:08:17.969Z</time></trkpt><trkpt lat="44.2537683" lon="10.1323233"><ele>451.0</ele><time>2026-04-19T13:08:18.969Z</time></trkpt><trkpt lat="44.253665" lon="10.1322517"><ele>451.0</ele><time>2026-04-19T13:08:19.969Z</time></trkpt><trkpt lat="44.2535583" lon="10.1321867"><ele>451.0</ele><time>2026-04-19T13:08:20.969Z</time></trkpt><trkpt lat="44.253455" lon="10.1321217"><ele>446.75</ele><time>2026-04-19T13:08:21.969Z</time></trkpt><trkpt lat="44.2533583" lon="10.132055"><ele>442.5</ele><time>2026-04-19T13:08:22.969Z</time></trkpt><trkpt lat="44.2532517" lon="10.1319867"><ele>438.25</ele><time>2026-04-19T13:08:23.969Z</time></trkpt><trkpt lat="44.25315" lon="10.131915"><ele>434.0</ele><time>2026-04-19T13:08:24.969Z</time></trkpt><trkpt lat="44.2530417" lon="10.1318267"><ele>434.0</ele><time>2026-04-19T13:08:25.969Z</time></trkpt><trkpt lat="44.2529317" lon="10.1317317"><ele>434.0</ele><time>2026-04-19T13:08:26.969Z</time></trkpt><trkpt lat="44.252835" lon="10.1316333"><ele>434.0</ele><time>2026-04-19T13:08:27.969Z</time></trkpt><trkpt lat="44.2527383" lon="10.1315467"><ele>434.0</ele><time>2026-04-19T13:08:28.969Z</time></trkpt><trkpt lat="44.2526367" lon="10.1314783"><ele>431.4</ele><time>2026-04-19T13:08:29.969Z</time></trkpt><trkpt lat="44.2525417" lon="10.1314083"><ele>428.79999999999995</ele><time>2026-04-19T13:08:30.969Z</time></trkpt><trkpt lat="44.2524467" lon="10.1313333"><ele>426.20000000000005</ele><time>2026-04-19T13:08:31.969Z</time></trkpt><trkpt lat="44.2523483" lon="10.131255"><ele>423.6</ele><time>2026-04-19T13:08:32.969Z</time></trkpt><trkpt lat="44.2522517" lon="10.1311917"><ele>421.0</ele><time>2026-04-19T13:08:33.969Z</time></trkpt><trkpt lat="44.2521567" lon="10.131135"><ele>421.0</ele><time>2026-04-19T13:08:34.969Z</time></trkpt><trkpt lat="44.2520483" lon="10.13107"><ele>421.0</ele><time>2026-04-19T13:08:35.969Z</time></trkpt><trkpt lat="44.2519567" lon="10.1309867"><ele>421.0</ele><time>2026-04-19T13:08:36.969Z</time></trkpt><trkpt lat="44.2518583" lon="10.1308933"><ele>421.0</ele><time>2026-04-19T13:08:37.969Z</time></trkpt><trkpt lat="44.251765" lon="10.130805"><ele>419.0</ele><time>2026-04-19T13:08:38.969Z</time></trkpt><trkpt lat="44.2516783" lon="10.1307117"><ele>417.0</ele><time>2026-04-19T13:08:39.969Z</time></trkpt><trkpt lat="44.251595" lon="10.1306267"><ele>415.0</ele><time>2026-04-19T13:08:40.969Z</time></trkpt><trkpt lat="44.251515" lon="10.1305317"><ele>413.0</ele><time>2026-04-19T13:08:41.969Z</time></trkpt><trkpt lat="44.2514283" lon="10.130435"><ele>411.0</ele><time>2026-04-19T13:08:42.969Z</time></trkpt><trkpt lat="44.2513583" lon="10.13032"><ele>411.0</ele><time>2026-04-19T13:08:43.969Z</time></trkpt><trkpt lat="44.2513" lon="10.1302067"><ele>411.0</ele><time>2026-04-19T13:08:44.969Z</time></trkpt><trkpt lat="44.2512317" lon="10.1300917"><ele>411.0</ele><time>2026-04-19T13:08:45.969Z</time></trkpt><trkpt lat="44.2511583" lon="10.12998"><ele>411.0</ele><time>2026-04-19T13:08:46.969Z</time></trkpt><trkpt lat="44.25108" lon="10.1298767"><ele>411.0</ele><time>2026-04-19T13:08:47.969Z</time></trkpt><trkpt lat="44.2509883" lon="10.1297817"><ele>406.25</ele><time>2026-04-19T13:08:48.969Z</time></trkpt><trkpt lat="44.25089" lon="10.1296867"><ele>401.5</ele><time>2026-04-19T13:08:49.969Z</time></trkpt><trkpt lat="44.2507967" lon="10.12959"><ele>396.75</ele><time>2026-04-19T13:08:50.97Z</time></trkpt><trkpt lat="44.2507017" lon="10.1294933"><ele>392.0</ele><time>2026-04-19T13:08:51.969Z</time></trkpt><trkpt lat="44.2506067" lon="10.1294017"><ele>392.0</ele><time>2026-04-19T13:08:52.969Z</time></trkpt><trkpt lat="44.250515" lon="10.1292967"><ele>392.0</ele><time>2026-04-19T13:08:53.969Z</time></trkpt><trkpt lat="44.2504183" lon="10.1292"><ele>392.0</ele><time>2026-04-19T13:08:54.969Z</time></trkpt><trkpt lat="44.2503233" lon="10.1291217"><ele>392.0</ele><time>2026-04-19T13:08:55.969Z</time></trkpt><trkpt lat="44.2502233" lon="10.1290333"><ele>386.0</ele><time>2026-04-19T13:08:56.969Z</time></trkpt><trkpt lat="44.2501333" lon="10.12896"><ele>380.0</ele><time>2026-04-19T13:08:57.969Z</time></trkpt><trkpt lat="44.2500467" lon="10.1288867"><ele>374.0</ele><time>2026-04-19T13:08:58.969Z</time></trkpt><trkpt lat="44.2499583" lon="10.1288133"><ele>368.0</ele><time>2026-04-19T13:08:59.969Z</time></trkpt><trkpt lat="44.24988" lon="10.1287367"><ele>362.0</ele><time>2026-04-19T13:09:00.97Z</time></trkpt><trkpt lat="44.249805" lon="10.1286717"><ele>362.6666666666667</ele><time>2026-04-19T13:09:01.969Z</time></trkpt><trkpt lat="44.249725" lon="10.1286067"><ele>363.33333333333337</ele><time>2026-04-19T13:09:02.969Z</time></trkpt><trkpt lat="44.2496467" lon="10.1285467"><ele>364.0</ele><time>2026-04-19T13:09:03.969Z</time></trkpt><trkpt lat="44.24956" lon="10.128495"><ele>364.6666666666667</ele><time>2026-04-19T13:09:04.969Z</time></trkpt><trkpt lat="44.2494717" lon="10.128475"><ele>365.3333333333333</ele><time>2026-04-19T13:09:05.969Z</time></trkpt><trkpt lat="44.2494" lon="10.1284667"><ele>366.0</ele><time>2026-04-19T13:09:06.969Z</time></trkpt><trkpt lat="44.249335" lon="10.1284767"><ele>366.0</ele><time>2026-04-19T13:09:07.969Z</time></trkpt><trkpt lat="44.24927" lon="10.1285133"><ele>366.0</ele><time>2026-04-19T13:09:08.969Z</time></trkpt><trkpt lat="44.2492017" lon="10.1285617"><ele>366.0</ele><time>2026-04-19T13:09:09.969Z</time></trkpt><trkpt lat="44.2491383" lon="10.128615"><ele>366.0</ele><time>2026-04-19T13:09:10.969Z</time></trkpt><trkpt lat="44.2490817" lon="10.1286633"><ele>366.0</ele><time>2026-04-19T13:09:11.969Z</time></trkpt><trkpt lat="44.248975" lon="10.128745"><ele>366.0</ele><time>2026-04-19T13:09:13.969Z</time></trkpt><trkpt lat="44.2489167" lon="10.1287917"><ele>365.3333333333333</ele><time>2026-04-19T13:09:14.969Z</time></trkpt><trkpt lat="44.2488583" lon="10.1288467"><ele>364.6666666666667</ele><time>2026-04-19T13:09:15.969Z</time></trkpt><trkpt lat="44.2488033" lon="10.1289183"><ele>364.0</ele><time>2026-04-19T13:09:16.969Z</time></trkpt><trkpt lat="44.248755" lon="10.1289983"><ele>363.33333333333337</ele><time>2026-04-19T13:09:17.969Z</time></trkpt><trkpt lat="44.2487167" lon="10.1290917"><ele>362.6666666666667</ele><time>2026-04-19T13:09:18.969Z</time></trkpt><trkpt lat="44.2486817" lon="10.1291917"><ele>362.0</ele><time>2026-04-19T13:09:19.969Z</time></trkpt><trkpt lat="44.2486583" lon="10.129295"><ele>362.0</ele><time>2026-04-19T13:09:20.97Z</time></trkpt><trkpt lat="44.248645" lon="10.12939"><ele>362.0</ele><time>2026-04-19T13:09:21.969Z</time></trkpt><trkpt lat="44.2486467" lon="10.129555"><ele>362.0</ele><time>2026-04-19T13:09:23.969Z</time></trkpt><trkpt lat="44.24859" lon="10.1296383"><ele>362.0</ele><time>2026-04-19T13:09:25.969Z</time></trkpt><trkpt lat="44.2484683" lon="10.12961"><ele>362.0</ele><time>2026-04-19T13:09:27.969Z</time></trkpt><trkpt lat="44.2483967" lon="10.129545"><ele>362.0</ele><time>2026-04-19T13:09:28.969Z</time></trkpt><trkpt lat="44.2483133" lon="10.12947"><ele>362.0</ele><time>2026-04-19T13:09:29.969Z</time></trkpt><trkpt lat="44.24823" lon="10.1293983"><ele>362.0</ele><time>2026-04-19T13:09:30.969Z</time></trkpt><trkpt lat="44.2481533" lon="10.129335"><ele>362.0</ele><time>2026-04-19T13:09:31.969Z</time></trkpt><trkpt lat="44.248075" lon="10.129285"><ele>362.0</ele><time>2026-04-19T13:09:32.969Z</time></trkpt><trkpt lat="44.248005" lon="10.129255"><ele>362.0</ele><time>2026-04-19T13:09:33.969Z</time></trkpt><trkpt lat="44.2479333" lon="10.1292317"><ele>360.1666666666667</ele><time>2026-04-19T13:09:34.969Z</time></trkpt><trkpt lat="44.247845" lon="10.1292333"><ele>358.33333333333337</ele><time>2026-04-19T13:09:35.97Z</time></trkpt><trkpt lat="44.2477567" lon="10.1292567"><ele>356.5</ele><time>2026-04-19T13:09:36.969Z</time></trkpt><trkpt lat="44.247665" lon="10.12928"><ele>354.6666666666667</ele><time>2026-04-19T13:09:37.969Z</time></trkpt><trkpt lat="44.2475733" lon="10.12931"><ele>352.8333333333333</ele><time>2026-04-19T13:09:38.969Z</time></trkpt><trkpt lat="44.247495" lon="10.1293433"><ele>351.0</ele><time>2026-04-19T13:09:39.969Z</time></trkpt><trkpt lat="44.24742" lon="10.1293683"><ele>351.00000000000006</ele><time>2026-04-19T13:09:40.969Z</time></trkpt><trkpt lat="44.2473517" lon="10.129375"><ele>351.0</ele><time>2026-04-19T13:09:41.969Z</time></trkpt><trkpt lat="44.24728" lon="10.1293633"><ele>351.0</ele><time>2026-04-19T13:09:42.969Z</time></trkpt><trkpt lat="44.2472117" lon="10.12932"><ele>351.0</ele><time>2026-04-19T13:09:43.969Z</time></trkpt><trkpt lat="44.2471533" lon="10.129255"><ele>351.0</ele><time>2026-04-19T13:09:44.969Z</time></trkpt><trkpt lat="44.247105" lon="10.1291867"><ele>351.00000000000006</ele><time>2026-04-19T13:09:45.969Z</time></trkpt><trkpt lat="44.247055" lon="10.1291317"><ele>351.0</ele><time>2026-04-19T13:09:46.969Z</time></trkpt><trkpt lat="44.246925" lon="10.12911"><ele>350.3333333333333</ele><time>2026-04-19T13:09:48.969Z</time></trkpt><trkpt lat="44.246845" lon="10.1291433"><ele>349.6666666666667</ele><time>2026-04-19T13:09:49.969Z</time></trkpt><trkpt lat="44.2467733" lon="10.1291933"><ele>349.0</ele><time>2026-04-19T13:09:50.969Z</time></trkpt><trkpt lat="44.2467117" lon="10.12924"><ele>348.33333333333337</ele><time>2026-04-19T13:09:51.969Z</time></trkpt><trkpt lat="44.24662" lon="10.1293183"><ele>347.6666666666667</ele><time>2026-04-19T13:09:53.969Z</time></trkpt><trkpt lat="44.246535" lon="10.12939"><ele>347.0</ele><time>2026-04-19T13:09:55.969Z</time></trkpt><trkpt lat="44.2464267" lon="10.1294667"><ele>346.1666666666667</ele><time>2026-04-19T13:09:57.969Z</time></trkpt><trkpt lat="44.2463667" lon="10.1295217"><ele>345.33333333333337</ele><time>2026-04-19T13:09:58.969Z</time></trkpt><trkpt lat="44.2463" lon="10.129565"><ele>344.5</ele><time>2026-04-19T13:09:59.969Z</time></trkpt><trkpt lat="44.2462383" lon="10.1295967"><ele>343.6666666666667</ele><time>2026-04-19T13:10:00.969Z</time></trkpt><trkpt lat="44.24611" lon="10.1296417"><ele>342.8333333333333</ele><time>2026-04-19T13:10:02.969Z</time></trkpt><trkpt lat="44.24604" lon="10.129665"><ele>342.0</ele><time>2026-04-19T13:10:03.969Z</time></trkpt><trkpt lat="44.2459667" lon="10.1296883"><ele>342.0</ele><time>2026-04-19T13:10:04.969Z</time></trkpt><trkpt lat="44.2458883" lon="10.1297083"><ele>342.0</ele><time>2026-04-19T13:10:05.969Z</time></trkpt><trkpt lat="44.2458117" lon="10.1297217"><ele>342.0</ele><time>2026-04-19T13:10:06.969Z</time></trkpt><trkpt lat="44.2457317" lon="10.1297267"><ele>342.0</ele><time>2026-04-19T13:10:07.969Z</time></trkpt><trkpt lat="44.2456517" lon="10.129725"><ele>342.0</ele><time>2026-04-19T13:10:08.969Z</time></trkpt><trkpt lat="44.2455717" lon="10.1297183"><ele>342.0</ele><time>2026-04-19T13:10:09.969Z</time></trkpt><trkpt lat="44.2455017" lon="10.1297083"><ele>340.5</ele><time>2026-04-19T13:10:10.969Z</time></trkpt><trkpt lat="44.2454317" lon="10.1297033"><ele>339.0</ele><time>2026-04-19T13:10:11.969Z</time></trkpt><trkpt lat="44.24536" lon="10.1296917"><ele>337.5</ele><time>2026-04-19T13:10:12.969Z</time></trkpt><trkpt lat="44.24524" lon="10.129675"><ele>336.0</ele><time>2026-04-19T13:10:14.969Z</time></trkpt><trkpt lat="44.2451717" lon="10.129665"><ele>334.5</ele><time>2026-04-19T13:10:15.969Z</time></trkpt><trkpt lat="44.245105" lon="10.129645"><ele>333.0</ele><time>2026-04-19T13:10:16.969Z</time></trkpt><trkpt lat="44.24504" lon="10.1296217"><ele>333.0</ele><time>2026-04-19T13:10:17.969Z</time></trkpt><trkpt lat="44.2449733" lon="10.1296083"><ele>333.0</ele><time>2026-04-19T13:10:18.969Z</time></trkpt><trkpt lat="44.2449017" lon="10.1296083"><ele>333.0</ele><time>2026-04-19T13:10:19.969Z</time></trkpt><trkpt lat="44.2447933" lon="10.129695"><ele>333.0</ele><time>2026-04-19T13:10:21.969Z</time></trkpt><trkpt lat="44.2447383" lon="10.1297867"><ele>333.0</ele><time>2026-04-19T13:10:22.969Z</time></trkpt><trkpt lat="44.2446783" lon="10.1299"><ele>328.4</ele><time>2026-04-19T13:10:23.969Z</time></trkpt><trkpt lat="44.244625" lon="10.1300333"><ele>323.79999999999995</ele><time>2026-04-19T13:10:24.969Z</time></trkpt><trkpt lat="44.2445717" lon="10.1301717"><ele>319.2</ele><time>2026-04-19T13:10:25.969Z</time></trkpt><trkpt lat="44.2445233" lon="10.1302967"><ele>314.6</ele><time>2026-04-19T13:10:26.969Z</time></trkpt><trkpt lat="44.2444683" lon="10.1304133"><ele>310.0</ele><time>2026-04-19T13:10:27.969Z</time></trkpt><trkpt lat="44.2444183" lon="10.130525"><ele>310.0</ele><time>2026-04-19T13:10:28.969Z</time></trkpt><trkpt lat="44.24438" lon="10.1306317"><ele>310.0</ele><time>2026-04-19T13:10:29.969Z</time></trkpt><trkpt lat="44.2443333" lon="10.13073"><ele>310.0</ele><time>2026-04-19T13:10:30.969Z</time></trkpt><trkpt lat="44.2442817" lon="10.130805"><ele>310.0</ele><time>2026-04-19T13:10:31.969Z</time></trkpt><trkpt lat="44.24422" lon="10.1308633"><ele>310.0</ele><time>2026-04-19T13:10:32.969Z</time></trkpt><trkpt lat="44.2441633" lon="10.13091"><ele>310.0</ele><time>2026-04-19T13:10:33.969Z</time></trkpt><trkpt lat="44.2441067" lon="10.130955"><ele>310.8333333333333</ele><time>2026-04-19T13:10:34.97Z</time></trkpt><trkpt lat="44.2440683" lon="10.1310317"><ele>311.66666666666663</ele><time>2026-04-19T13:10:35.969Z</time></trkpt><trkpt lat="44.2440433" lon="10.13113"><ele>312.5</ele><time>2026-04-19T13:10:36.97Z</time></trkpt><trkpt lat="44.244025" lon="10.131255"><ele>313.3333333333333</ele><time>2026-04-19T13:10:37.969Z</time></trkpt><trkpt lat="44.2440083" lon="10.131375"><ele>314.1666666666667</ele><time>2026-04-19T13:10:38.969Z</time></trkpt><trkpt lat="44.24398" lon="10.1314817"><ele>315.0</ele><time>2026-04-19T13:10:39.969Z</time></trkpt><trkpt lat="44.2439517" lon="10.1315817"><ele>315.0</ele><time>2026-04-19T13:10:40.969Z</time></trkpt><trkpt lat="44.2439117" lon="10.131665"><ele>315.0</ele><time>2026-04-19T13:10:41.969Z</time></trkpt><trkpt lat="44.2438633" lon="10.131745"><ele>315.0</ele><time>2026-04-19T13:10:42.969Z</time></trkpt><trkpt lat="44.243805" lon="10.1318217"><ele>315.0</ele><time>2026-04-19T13:10:43.969Z</time></trkpt><trkpt lat="44.2437417" lon="10.1318883"><ele>315.0</ele><time>2026-04-19T13:10:44.969Z</time></trkpt><trkpt lat="44.243685" lon="10.1319417"><ele>315.0</ele><time>2026-04-19T13:10:45.969Z</time></trkpt><trkpt lat="44.2436283" lon="10.1319883"><ele>315.0</ele><time>2026-04-19T13:10:46.969Z</time></trkpt><trkpt lat="44.243545" lon="10.1320883"><ele>315.0</ele><time>2026-04-19T13:10:48.969Z</time></trkpt><trkpt lat="44.2435533" lon="10.13228"><ele>315.0</ele><time>2026-04-19T13:10:50.969Z</time></trkpt><trkpt lat="44.2435767" lon="10.1323933"><ele>315.0</ele><time>2026-04-19T13:10:51.969Z</time></trkpt><trkpt lat="44.2435933" lon="10.1325117"><ele>315.0</ele><time>2026-04-19T13:10:52.969Z</time></trkpt><trkpt lat="44.2436067" lon="10.132625"><ele>315.0</ele><time>2026-04-19T13:10:53.969Z</time></trkpt><trkpt lat="44.243625" lon="10.1327267"><ele>315.6</ele><time>2026-04-19T13:10:54.969Z</time></trkpt><trkpt lat="44.243645" lon="10.1328217"><ele>316.2</ele><time>2026-04-19T13:10:55.969Z</time></trkpt><trkpt lat="44.243685" lon="10.132965"><ele>316.8</ele><time>2026-04-19T13:10:57.97Z</time></trkpt><trkpt lat="44.2436767" lon="10.1330583"><ele>317.4</ele><time>2026-04-19T13:10:59.969Z</time></trkpt><trkpt lat="44.2435883" lon="10.1329967"><ele>318.0</ele><time>2026-04-19T13:11:02.969Z</time></trkpt><trkpt lat="44.2435617" lon="10.1328"><ele>318.0</ele><time>2026-04-19T13:11:04.969Z</time></trkpt><trkpt lat="44.24354" lon="10.132665"><ele>318.0</ele><time>2026-04-19T13:11:05.969Z</time></trkpt><trkpt lat="44.243515" lon="10.132525"><ele>318.0</ele><time>2026-04-19T13:11:06.969Z</time></trkpt><trkpt lat="44.24347" lon="10.13239"><ele>318.0</ele><time>2026-04-19T13:11:07.969Z</time></trkpt><trkpt lat="44.2434183" lon="10.1322683"><ele>318.0</ele><time>2026-04-19T13:11:08.969Z</time></trkpt><trkpt lat="44.2433633" lon="10.1321633"><ele>317.5</ele><time>2026-04-19T13:11:09.969Z</time></trkpt><trkpt lat="44.2433283" lon="10.132055"><ele>317.0</ele><time>2026-04-19T13:11:10.969Z</time></trkpt><trkpt lat="44.2433033" lon="10.131945"><ele>316.5</ele><time>2026-04-19T13:11:11.969Z</time></trkpt><trkpt lat="44.2432983" lon="10.1318383"><ele>316.0</ele><time>2026-04-19T13:11:12.969Z</time></trkpt><trkpt lat="44.2433417" lon="10.1316983"><ele>315.5</ele><time>2026-04-19T13:11:14.969Z</time></trkpt><trkpt lat="44.24339" lon="10.131635"><ele>315.0</ele><time>2026-04-19T13:11:15.969Z</time></trkpt><trkpt lat="44.2434317" lon="10.1315633"><ele>314.8333333333333</ele><time>2026-04-19T13:11:16.969Z</time></trkpt><trkpt lat="44.2434067" lon="10.1314167"><ele>314.6666666666667</ele><time>2026-04-19T13:11:18.969Z</time></trkpt><trkpt lat="44.243355" lon="10.1313567"><ele>314.5</ele><time>2026-04-19T13:11:19.969Z</time></trkpt><trkpt lat="44.2432967" lon="10.1313017"><ele>314.33333333333337</ele><time>2026-04-19T13:11:20.969Z</time></trkpt><trkpt lat="44.2432267" lon="10.131245"><ele>314.1666666666667</ele><time>2026-04-19T13:11:21.969Z</time></trkpt><trkpt lat="44.2431717" lon="10.1311767"><ele>314.0</ele><time>2026-04-19T13:11:22.969Z</time></trkpt><trkpt lat="44.2431567" lon="10.1310167"><ele>314.0</ele><time>2026-04-19T13:11:24.969Z</time></trkpt><trkpt lat="44.2432167" lon="10.13092"><ele>314.0</ele><time>2026-04-19T13:11:25.969Z</time></trkpt><trkpt lat="44.2432783" lon="10.13079"><ele>314.0</ele><time>2026-04-19T13:11:26.969Z</time></trkpt><trkpt lat="44.2433367" lon="10.1306617"><ele>314.0</ele><time>2026-04-19T13:11:27.969Z</time></trkpt><trkpt lat="44.2433883" lon="10.1305383"><ele>314.0</ele><time>2026-04-19T13:11:28.969Z</time></trkpt><trkpt lat="44.2434383" lon="10.1304233"><ele>314.1666666666667</ele><time>2026-04-19T13:11:29.969Z</time></trkpt><trkpt lat="44.2434783" lon="10.1303167"><ele>314.33333333333337</ele><time>2026-04-19T13:11:30.969Z</time></trkpt><trkpt lat="44.2435083" lon="10.1302167"><ele>314.5</ele><time>2026-04-19T13:11:31.967Z</time></trkpt><trkpt lat="44.243525" lon="10.13011"><ele>314.6666666666667</ele><time>2026-04-19T13:11:32.969Z</time></trkpt><trkpt lat="44.2435217" lon="10.1300117"><ele>314.8333333333333</ele><time>2026-04-19T13:11:33.969Z</time></trkpt><trkpt lat="44.2434933" lon="10.1299133"><ele>315.0</ele><time>2026-04-19T13:11:34.969Z</time></trkpt><trkpt lat="44.2434417" lon="10.1298283"><ele>315.0</ele><time>2026-04-19T13:11:35.969Z</time></trkpt><trkpt lat="44.2433667" lon="10.1297417"><ele>315.0</ele><time>2026-04-19T13:11:36.969Z</time></trkpt><trkpt lat="44.2432933" lon="10.12963"><ele>315.0</ele><time>2026-04-19T13:11:37.969Z</time></trkpt><trkpt lat="44.2432367" lon="10.1295033"><ele>315.0</ele><time>2026-04-19T13:11:38.969Z</time></trkpt><trkpt lat="44.2431933" lon="10.12937"><ele>315.0</ele><time>2026-04-19T13:11:39.969Z</time></trkpt><trkpt lat="44.24318" lon="10.1292283"><ele>315.0</ele><time>2026-04-19T13:11:40.969Z</time></trkpt><trkpt lat="44.2431617" lon="10.1290733"><ele>315.0</ele><time>2026-04-19T13:11:41.969Z</time></trkpt><trkpt lat="44.2431333" lon="10.1289217"><ele>315.0</ele><time>2026-04-19T13:11:42.969Z</time></trkpt><trkpt lat="44.24312" lon="10.1287717"><ele>315.0</ele><time>2026-04-19T13:11:43.969Z</time></trkpt><trkpt lat="44.2431117" lon="10.1286367"><ele>315.0</ele><time>2026-04-19T13:11:44.969Z</time></trkpt><trkpt lat="44.243105" lon="10.1285133"><ele>319.3333333333333</ele><time>2026-04-19T13:11:45.969Z</time></trkpt><trkpt lat="44.2430983" lon="10.1283917"><ele>323.6666666666667</ele><time>2026-04-19T13:11:46.969Z</time></trkpt><trkpt lat="44.2431" lon="10.1282633"><ele>328.0</ele><time>2026-04-19T13:11:47.969Z</time></trkpt><trkpt lat="44.2431" lon="10.1281433"><ele>332.33333333333337</ele><time>2026-04-19T13:11:48.969Z</time></trkpt><trkpt lat="44.2430933" lon="10.1280283"><ele>336.6666666666667</ele><time>2026-04-19T13:11:49.969Z</time></trkpt><trkpt lat="44.2430833" lon="10.1279217"><ele>341.0</ele><time>2026-04-19T13:11:50.969Z</time></trkpt><trkpt lat="44.2430717" lon="10.127815"><ele>341.0</ele><time>2026-04-19T13:11:51.969Z</time></trkpt><trkpt lat="44.2430517" lon="10.1277067"><ele>341.0</ele><time>2026-04-19T13:11:52.969Z</time></trkpt><trkpt lat="44.2430317" lon="10.1275983"><ele>341.0</ele><time>2026-04-19T13:11:53.969Z</time></trkpt><trkpt lat="44.2429967" lon="10.1275083"><ele>341.0</ele><time>2026-04-19T13:11:54.969Z</time></trkpt><trkpt lat="44.242945" lon="10.1274317"><ele>341.0</ele><time>2026-04-19T13:11:55.969Z</time></trkpt><trkpt lat="44.242875" lon="10.12737"><ele>341.0</ele><time>2026-04-19T13:11:56.97Z</time></trkpt><trkpt lat="44.2428033" lon="10.1273083"><ele>334.8</ele><time>2026-04-19T13:11:57.969Z</time></trkpt><trkpt lat="44.2427217" lon="10.1272417"><ele>328.6</ele><time>2026-04-19T13:11:58.969Z</time></trkpt><trkpt lat="44.2426467" lon="10.1271717"><ele>322.4</ele><time>2026-04-19T13:11:59.969Z</time></trkpt><trkpt lat="44.2425683" lon="10.127095"><ele>316.2</ele><time>2026-04-19T13:12:00.969Z</time></trkpt><trkpt lat="44.2424917" lon="10.1270183"><ele>310.0</ele><time>2026-04-19T13:12:01.969Z</time></trkpt><trkpt lat="44.2424117" lon="10.1269517"><ele>310.0</ele><time>2026-04-19T13:12:02.969Z</time></trkpt><trkpt lat="44.242335" lon="10.1268883"><ele>310.0</ele><time>2026-04-19T13:12:03.969Z</time></trkpt><trkpt lat="44.2422717" lon="10.1268517"><ele>310.0</ele><time>2026-04-19T13:12:04.969Z</time></trkpt><trkpt lat="44.2422" lon="10.1268167"><ele>310.0</ele><time>2026-04-19T13:12:05.969Z</time></trkpt><trkpt lat="44.2421283" lon="10.126785"><ele>310.0</ele><time>2026-04-19T13:12:06.969Z</time></trkpt><trkpt lat="44.2420533" lon="10.1267467"><ele>310.0</ele><time>2026-04-19T13:12:07.969Z</time></trkpt><trkpt lat="44.2419817" lon="10.1267017"><ele>311.4</ele><time>2026-04-19T13:12:08.969Z</time></trkpt><trkpt lat="44.2418983" lon="10.1266317"><ele>312.8</ele><time>2026-04-19T13:12:09.969Z</time></trkpt><trkpt lat="44.2418117" lon="10.12654"><ele>314.2</ele><time>2026-04-19T13:12:10.969Z</time></trkpt><trkpt lat="44.2417383" lon="10.1264333"><ele>315.6</ele><time>2026-04-19T13:12:11.969Z</time></trkpt><trkpt lat="44.2416667" lon="10.12632"><ele>317.0</ele><time>2026-04-19T13:12:12.969Z</time></trkpt><trkpt lat="44.2415867" lon="10.1262067"><ele>317.0</ele><time>2026-04-19T13:12:13.969Z</time></trkpt><trkpt lat="44.2415133" lon="10.1260833"><ele>317.0</ele><time>2026-04-19T13:12:14.969Z</time></trkpt><trkpt lat="44.2414567" lon="10.125955"><ele>317.0</ele><time>2026-04-19T13:12:15.969Z</time></trkpt><trkpt lat="44.2414083" lon="10.12583"><ele>317.0</ele><time>2026-04-19T13:12:16.969Z</time></trkpt><trkpt lat="44.24136" lon="10.1257283"><ele>317.0</ele><time>2026-04-19T13:12:17.969Z</time></trkpt><trkpt lat="44.2412933" lon="10.1256433"><ele>317.0</ele><time>2026-04-19T13:12:18.969Z</time></trkpt><trkpt lat="44.2412333" lon="10.1255583"><ele>317.0</ele><time>2026-04-19T13:12:19.969Z</time></trkpt><trkpt lat="44.2411717" lon="10.1254867"><ele>317.0</ele><time>2026-04-19T13:12:20.969Z</time></trkpt><trkpt lat="44.2410917" lon="10.12545"><ele>317.0</ele><time>2026-04-19T13:12:21.969Z</time></trkpt><trkpt lat="44.2409967" lon="10.125435"><ele>317.0</ele><time>2026-04-19T13:12:22.969Z</time></trkpt><trkpt lat="44.240885" lon="10.12542"><ele>317.0</ele><time>2026-04-19T13:12:23.969Z</time></trkpt><trkpt lat="44.240775" lon="10.12537"><ele>317.0</ele><time>2026-04-19T13:12:24.969Z</time></trkpt><trkpt lat="44.2406667" lon="10.1253017"><ele>317.0</ele><time>2026-04-19T13:12:25.969Z</time></trkpt><trkpt lat="44.2405383" lon="10.1252283"><ele>317.0</ele><time>2026-04-19T13:12:26.969Z</time></trkpt><trkpt lat="44.2404033" lon="10.1251583"><ele>319.2</ele><time>2026-04-19T13:12:27.97Z</time></trkpt><trkpt lat="44.2402867" lon="10.125115"><ele>321.4</ele><time>2026-04-19T13:12:28.969Z</time></trkpt><trkpt lat="44.2401867" lon="10.1250817"><ele>323.59999999999997</ele><time>2026-04-19T13:12:29.969Z</time></trkpt><trkpt lat="44.24009" lon="10.1250567"><ele>325.79999999999995</ele><time>2026-04-19T13:12:30.969Z</time></trkpt><trkpt lat="44.24" lon="10.12502"><ele>328.0</ele><time>2026-04-19T13:12:31.969Z</time></trkpt><trkpt lat="44.2399183" lon="10.124955"><ele>328.4</ele><time>2026-04-19T13:12:32.969Z</time></trkpt><trkpt lat="44.2398483" lon="10.124855"><ele>328.79999999999995</ele><time>2026-04-19T13:12:33.969Z</time></trkpt><trkpt lat="44.2397883" lon="10.1247383"><ele>329.2</ele><time>2026-04-19T13:12:34.969Z</time></trkpt><trkpt lat="44.2397267" lon="10.1246217"><ele>329.6</ele><time>2026-04-19T13:12:35.969Z</time></trkpt><trkpt lat="44.239665" lon="10.1245183"><ele>330.0</ele><time>2026-04-19T13:12:36.969Z</time></trkpt><trkpt lat="44.2396117" lon="10.1244317"><ele>330.0</ele><time>2026-04-19T13:12:37.969Z</time></trkpt><trkpt lat="44.2395517" lon="10.1243617"><ele>330.0</ele><time>2026-04-19T13:12:38.969Z</time></trkpt><trkpt lat="44.2395067" lon="10.1242933"><ele>330.0</ele><time>2026-04-19T13:12:39.969Z</time></trkpt><trkpt lat="44.2394617" lon="10.1242217"><ele>330.0</ele><time>2026-04-19T13:12:40.969Z</time></trkpt><trkpt lat="44.23941" lon="10.1241533"><ele>330.0</ele><time>2026-04-19T13:12:41.969Z</time></trkpt><trkpt lat="44.2393583" lon="10.1240933"><ele>330.0</ele><time>2026-04-19T13:12:42.969Z</time></trkpt><trkpt lat="44.23927" lon="10.1240283"><ele>330.0</ele><time>2026-04-19T13:12:44.969Z</time></trkpt><trkpt lat="44.2391817" lon="10.1240867"><ele>330.0</ele><time>2026-04-19T13:12:46.969Z</time></trkpt><trkpt lat="44.2391017" lon="10.12426"><ele>330.0</ele><time>2026-04-19T13:12:48.969Z</time></trkpt><trkpt lat="44.239045" lon="10.124365"><ele>330.0</ele><time>2026-04-19T13:12:49.969Z</time></trkpt><trkpt lat="44.2390017" lon="10.124475"><ele>330.0</ele><time>2026-04-19T13:12:50.969Z</time></trkpt><trkpt lat="44.238965" lon="10.1245933"><ele>330.0</ele><time>2026-04-19T13:12:51.969Z</time></trkpt><trkpt lat="44.238905" lon="10.124685"><ele>330.0</ele><time>2026-04-19T13:12:52.969Z</time></trkpt><trkpt lat="44.238855" lon="10.12477"><ele>330.0</ele><time>2026-04-19T13:12:53.969Z</time></trkpt><trkpt lat="44.2387933" lon="10.1248867"><ele>330.0</ele><time>2026-04-19T13:12:55.969Z</time></trkpt><trkpt lat="44.2387617" lon="10.1249783"><ele>330.0</ele><time>2026-04-19T13:12:58.969Z</time></trkpt><trkpt lat="44.238705" lon="10.12505"><ele>330.0</ele><time>2026-04-19T13:13:01.969Z</time></trkpt><trkpt lat="44.238635" lon="10.1251683"><ele>330.5</ele><time>2026-04-19T13:13:10.969Z</time></trkpt><trkpt lat="44.238595" lon="10.1252717"><ele>331.0</ele><time>2026-04-19T13:13:12.969Z</time></trkpt><trkpt lat="44.2385417" lon="10.1253917"><ele>331.5</ele><time>2026-04-19T13:13:14.969Z</time></trkpt><trkpt lat="44.2384767" lon="10.1255317"><ele>332.0</ele><time>2026-04-19T13:13:16.969Z</time></trkpt><trkpt lat="44.23843" lon="10.1256017"><ele>332.5</ele><time>2026-04-19T13:13:17.969Z</time></trkpt><trkpt lat="44.2383933" lon="10.1256883"><ele>333.0</ele><time>2026-04-19T13:13:18.969Z</time></trkpt><trkpt lat="44.2383583" lon="10.1257933"><ele>333.2857142857143</ele><time>2026-04-19T13:13:19.969Z</time></trkpt><trkpt lat="44.238325" lon="10.1258883"><ele>333.57142857142856</ele><time>2026-04-19T13:13:20.969Z</time></trkpt><trkpt lat="44.238285" lon="10.1259667"><ele>333.85714285714283</ele><time>2026-04-19T13:13:21.969Z</time></trkpt><trkpt lat="44.23825" lon="10.126045"><ele>334.1428571428571</ele><time>2026-04-19T13:13:22.969Z</time></trkpt><trkpt lat="44.2382083" lon="10.1261217"><ele>334.42857142857144</ele><time>2026-04-19T13:13:23.969Z</time></trkpt><trkpt lat="44.2381633" lon="10.1262067"><ele>334.71428571428567</ele><time>2026-04-19T13:13:24.969Z</time></trkpt><trkpt lat="44.2381283" lon="10.12628"><ele>335.0</ele><time>2026-04-19T13:13:25.969Z</time></trkpt><trkpt lat="44.23809" lon="10.1263517"><ele>334.2</ele><time>2026-04-19T13:13:26.969Z</time></trkpt><trkpt lat="44.238025" lon="10.126475"><ele>333.4</ele><time>2026-04-19T13:13:28.969Z</time></trkpt><trkpt lat="44.23797" lon="10.1266033"><ele>332.6</ele><time>2026-04-19T13:13:30.969Z</time></trkpt><trkpt lat="44.2379167" lon="10.1266967"><ele>331.8</ele><time>2026-04-19T13:13:32.969Z</time></trkpt><trkpt lat="44.237875" lon="10.1267783"><ele>331.0</ele><time>2026-04-19T13:13:34.969Z</time></trkpt><trkpt lat="44.23786" lon="10.1269183"><ele>333.0</ele><time>2026-04-19T13:13:54.969Z</time></trkpt><trkpt lat="44.2379" lon="10.1270817"><ele>335.0</ele><time>2026-04-19T13:13:56.969Z</time></trkpt><trkpt lat="44.23795" lon="10.127195"><ele>337.0</ele><time>2026-04-19T13:13:57.969Z</time></trkpt><trkpt lat="44.2380133" lon="10.127325"><ele>339.0</ele><time>2026-04-19T13:13:58.969Z</time></trkpt><trkpt lat="44.2380933" lon="10.1274717"><ele>338.25</ele><time>2026-04-19T13:13:59.969Z</time></trkpt><trkpt lat="44.23818" lon="10.12762"><ele>337.5</ele><time>2026-04-19T13:14:00.969Z</time></trkpt><trkpt lat="44.23827" lon="10.1277783"><ele>336.75</ele><time>2026-04-19T13:14:01.969Z</time></trkpt><trkpt lat="44.2383583" lon="10.12793"><ele>336.0</ele><time>2026-04-19T13:14:02.97Z</time></trkpt><trkpt lat="44.238445" lon="10.1280817"><ele>336.0</ele><time>2026-04-19T13:14:03.969Z</time></trkpt><trkpt lat="44.2385267" lon="10.1282183"><ele>336.0</ele><time>2026-04-19T13:14:04.969Z</time></trkpt><trkpt lat="44.238605" lon="10.1283583"><ele>336.0</ele><time>2026-04-19T13:14:05.969Z</time></trkpt><trkpt lat="44.2386767" lon="10.1285017"><ele>336.0</ele><time>2026-04-19T13:14:06.969Z</time></trkpt><trkpt lat="44.23876" lon="10.1286467"><ele>338.25</ele><time>2026-04-19T13:14:07.969Z</time></trkpt><trkpt lat="44.23885" lon="10.1288017"><ele>340.5</ele><time>2026-04-19T13:14:08.969Z</time></trkpt><trkpt lat="44.2389467" lon="10.1289533"><ele>342.75</ele><time>2026-04-19T13:14:09.969Z</time></trkpt><trkpt lat="44.2390517" lon="10.1291117"><ele>345.0</ele><time>2026-04-19T13:14:10.969Z</time></trkpt><trkpt lat="44.2391733" lon="10.1292517"><ele>347.0</ele><time>2026-04-19T13:14:11.969Z</time></trkpt><trkpt lat="44.2393167" lon="10.1293783"><ele>349.0</ele><time>2026-04-19T13:14:12.969Z</time></trkpt><trkpt lat="44.2394483" lon="10.1294733"><ele>351.0</ele><time>2026-04-19T13:14:13.969Z</time></trkpt><trkpt lat="44.2395867" lon="10.12955"><ele>351.0</ele><time>2026-04-19T13:14:14.969Z</time></trkpt><trkpt lat="44.2397233" lon="10.1295933"><ele>351.0</ele><time>2026-04-19T13:14:15.969Z</time></trkpt><trkpt lat="44.2398567" lon="10.1296217"><ele>351.0</ele><time>2026-04-19T13:14:16.969Z</time></trkpt><trkpt lat="44.2399817" lon="10.1296317"><ele>351.0</ele><time>2026-04-19T13:14:17.969Z</time></trkpt><trkpt lat="44.2401133" lon="10.1296283"><ele>350.5</ele><time>2026-04-19T13:14:18.969Z</time></trkpt><trkpt lat="44.240245" lon="10.1296133"><ele>350.0</ele><time>2026-04-19T13:14:19.969Z</time></trkpt><trkpt lat="44.2403683" lon="10.129595"><ele>349.5</ele><time>2026-04-19T13:14:20.969Z</time></trkpt><trkpt lat="44.2404917" lon="10.1295817"><ele>349.0</ele><time>2026-04-19T13:14:21.969Z</time></trkpt><trkpt lat="44.2406133" lon="10.1295767"><ele>350.3333333333333</ele><time>2026-04-19T13:14:22.969Z</time></trkpt><trkpt lat="44.2407383" lon="10.1295767"><ele>351.6666666666667</ele><time>2026-04-19T13:14:23.969Z</time></trkpt><trkpt lat="44.2409783" lon="10.1296517"><ele>353.0</ele><time>2026-04-19T13:14:25.969Z</time></trkpt><trkpt lat="44.2410983" lon="10.1297267"><ele>353.0</ele><time>2026-04-19T13:14:26.969Z</time></trkpt><trkpt lat="44.2412067" lon="10.1298367"><ele>353.0</ele><time>2026-04-19T13:14:27.969Z</time></trkpt><trkpt lat="44.2413017" lon="10.1299633"><ele>353.0</ele><time>2026-04-19T13:14:28.969Z</time></trkpt><trkpt lat="44.2413883" lon="10.1301083"><ele>353.0</ele><time>2026-04-19T13:14:29.969Z</time></trkpt><trkpt lat="44.2414683" lon="10.1302683"><ele>354.5</ele><time>2026-04-19T13:14:30.969Z</time></trkpt><trkpt lat="44.24155" lon="10.1304317"><ele>356.0</ele><time>2026-04-19T13:14:31.969Z</time></trkpt><trkpt lat="44.2416383" lon="10.1306017"><ele>357.5</ele><time>2026-04-19T13:14:32.969Z</time></trkpt><trkpt lat="44.2417233" lon="10.1307717"><ele>359.0</ele><time>2026-04-19T13:14:33.969Z</time></trkpt><trkpt lat="44.2418167" lon="10.1309367"><ele>359.0</ele><time>2026-04-19T13:14:34.969Z</time></trkpt><trkpt lat="44.241905" lon="10.1311117"><ele>359.0</ele><time>2026-04-19T13:14:35.969Z</time></trkpt><trkpt lat="44.241975" lon="10.1312817"><ele>359.0</ele><time>2026-04-19T13:14:36.969Z</time></trkpt><trkpt lat="44.2420367" lon="10.13146"><ele>359.0</ele><time>2026-04-19T13:14:37.969Z</time></trkpt><trkpt lat="44.2420933" lon="10.13165"><ele>360.0</ele><time>2026-04-19T13:14:38.969Z</time></trkpt><trkpt lat="44.2421317" lon="10.131845"><ele>361.0</ele><time>2026-04-19T13:14:39.969Z</time></trkpt><trkpt lat="44.2421667" lon="10.1320533"><ele>362.0</ele><time>2026-04-19T13:14:40.969Z</time></trkpt><trkpt lat="44.242195" lon="10.1322683"><ele>364.75</ele><time>2026-04-19T13:14:41.969Z</time></trkpt><trkpt lat="44.2422167" lon="10.132475"><ele>367.5</ele><time>2026-04-19T13:14:42.969Z</time></trkpt><trkpt lat="44.2422333" lon="10.1326633"><ele>370.25</ele><time>2026-04-19T13:14:43.969Z</time></trkpt><trkpt lat="44.2422483" lon="10.1328633"><ele>373.0</ele><time>2026-04-19T13:14:44.969Z</time></trkpt><trkpt lat="44.2422533" lon="10.1330667"><ele>377.75</ele><time>2026-04-19T13:14:45.969Z</time></trkpt><trkpt lat="44.2422733" lon="10.1332717"><ele>382.5</ele><time>2026-04-19T13:14:46.969Z</time></trkpt><trkpt lat="44.24227" lon="10.133475"><ele>387.25</ele><time>2026-04-19T13:14:47.969Z</time></trkpt><trkpt lat="44.242265" lon="10.13368"><ele>392.0</ele><time>2026-04-19T13:14:48.969Z</time></trkpt><trkpt lat="44.2422567" lon="10.1338717"><ele>394.25</ele><time>2026-04-19T13:14:49.969Z</time></trkpt><trkpt lat="44.2422367" lon="10.13407"><ele>396.5</ele><time>2026-04-19T13:14:50.969Z</time></trkpt><trkpt lat="44.2421967" lon="10.1342533"><ele>398.75</ele><time>2026-04-19T13:14:51.969Z</time></trkpt><trkpt lat="44.242145" lon="10.13443"><ele>401.0</ele><time>2026-04-19T13:14:52.969Z</time></trkpt><trkpt lat="44.2421" lon="10.1345933"><ele>401.0</ele><time>2026-04-19T13:14:53.969Z</time></trkpt><trkpt lat="44.24205" lon="10.13476"><ele>401.0</ele><time>2026-04-19T13:14:54.969Z</time></trkpt><trkpt lat="44.242025" lon="10.1349333"><ele>401.0</ele><time>2026-04-19T13:14:55.969Z</time></trkpt><trkpt lat="44.24202" lon="10.135115"><ele>401.0</ele><time>2026-04-19T13:14:56.969Z</time></trkpt><trkpt lat="44.24202" lon="10.13529"><ele>401.0</ele><time>2026-04-19T13:14:57.969Z</time></trkpt><trkpt lat="44.24202" lon="10.13548"><ele>401.0</ele><time>2026-04-19T13:14:58.969Z</time></trkpt><trkpt lat="44.2420233" lon="10.1356667"><ele>401.0</ele><time>2026-04-19T13:14:59.969Z</time></trkpt><trkpt lat="44.2420217" lon="10.1358517"><ele>401.0</ele><time>2026-04-19T13:15:00.969Z</time></trkpt><trkpt lat="44.2420183" lon="10.1360383"><ele>401.0</ele><time>2026-04-19T13:15:01.969Z</time></trkpt><trkpt lat="44.2420133" lon="10.1362233"><ele>401.0</ele><time>2026-04-19T13:15:02.969Z</time></trkpt><trkpt lat="44.2420117" lon="10.1364033"><ele>401.0</ele><time>2026-04-19T13:15:03.969Z</time></trkpt><trkpt lat="44.2420067" lon="10.13658"><ele>401.0</ele><time>2026-04-19T13:15:04.969Z</time></trkpt><trkpt lat="44.2419967" lon="10.1367433"><ele>399.6</ele><time>2026-04-19T13:15:05.969Z</time></trkpt><trkpt lat="44.2419883" lon="10.1368933"><ele>398.20000000000005</ele><time>2026-04-19T13:15:06.969Z</time></trkpt><trkpt lat="44.2419867" lon="10.1370283"><ele>396.79999999999995</ele><time>2026-04-19T13:15:07.969Z</time></trkpt><trkpt lat="44.242005" lon="10.1371733"><ele>395.4</ele><time>2026-04-19T13:15:08.969Z</time></trkpt><trkpt lat="44.24205" lon="10.1373"><ele>394.0</ele><time>2026-04-19T13:15:09.969Z</time></trkpt><trkpt lat="44.2421183" lon="10.1373917"><ele>393.79999999999995</ele><time>2026-04-19T13:15:10.969Z</time></trkpt><trkpt lat="44.242215" lon="10.13746"><ele>393.59999999999997</ele><time>2026-04-19T13:15:11.969Z</time></trkpt><trkpt lat="44.2423217" lon="10.1375"><ele>393.4</ele><time>2026-04-19T13:15:12.969Z</time></trkpt><trkpt lat="44.2424367" lon="10.1375367"><ele>393.2</ele><time>2026-04-19T13:15:13.969Z</time></trkpt><trkpt lat="44.242545" lon="10.1375783"><ele>393.0</ele><time>2026-04-19T13:15:14.969Z</time></trkpt><trkpt lat="44.24264" lon="10.13764"><ele>386.75</ele><time>2026-04-19T13:15:15.969Z</time></trkpt><trkpt lat="44.2427283" lon="10.13774"><ele>380.5</ele><time>2026-04-19T13:15:16.969Z</time></trkpt><trkpt lat="44.2427883" lon="10.1378733"><ele>374.25</ele><time>2026-04-19T13:15:17.969Z</time></trkpt><trkpt lat="44.2428167" lon="10.13804"><ele>368.0</ele><time>2026-04-19T13:15:18.969Z</time></trkpt><trkpt lat="44.2428233" lon="10.1382433"><ele>368.0</ele><time>2026-04-19T13:15:19.969Z</time></trkpt><trkpt lat="44.24281" lon="10.1384867"><ele>368.0</ele><time>2026-04-19T13:15:20.969Z</time></trkpt><trkpt lat="44.2427817" lon="10.1387517"><ele>368.0</ele><time>2026-04-19T13:15:21.969Z</time></trkpt><trkpt lat="44.2427433" lon="10.13901"><ele>369.0</ele><time>2026-04-19T13:15:22.969Z</time></trkpt><trkpt lat="44.2426783" lon="10.1392633"><ele>370.0</ele><time>2026-04-19T13:15:23.969Z</time></trkpt><trkpt lat="44.2426383" lon="10.1394683"><ele>371.0</ele><time>2026-04-19T13:15:24.969Z</time></trkpt><trkpt lat="44.242615" lon="10.13964"><ele>371.0</ele><time>2026-04-19T13:15:25.969Z</time></trkpt><trkpt lat="44.2425917" lon="10.1398167"><ele>371.0</ele><time>2026-04-19T13:15:26.969Z</time></trkpt><trkpt lat="44.242565" lon="10.139985"><ele>371.0</ele><time>2026-04-19T13:15:27.969Z</time></trkpt><trkpt lat="44.2425367" lon="10.1401583"><ele>371.0</ele><time>2026-04-19T13:15:28.969Z</time></trkpt><trkpt lat="44.2425033" lon="10.1403367"><ele>370.75</ele><time>2026-04-19T13:15:29.969Z</time></trkpt><trkpt lat="44.2424833" lon="10.140525"><ele>370.5</ele><time>2026-04-19T13:15:30.969Z</time></trkpt><trkpt lat="44.2424567" lon="10.1406883"><ele>370.25</ele><time>2026-04-19T13:15:31.969Z</time></trkpt><trkpt lat="44.2424333" lon="10.14086"><ele>370.0</ele><time>2026-04-19T13:15:32.969Z</time></trkpt><trkpt lat="44.242405" lon="10.1410383"><ele>369.75</ele><time>2026-04-19T13:15:33.97Z</time></trkpt><trkpt lat="44.2423817" lon="10.1412133"><ele>369.5</ele><time>2026-04-19T13:15:34.969Z</time></trkpt><trkpt lat="44.2423467" lon="10.1413933"><ele>369.25</ele><time>2026-04-19T13:15:35.969Z</time></trkpt><trkpt lat="44.2423017" lon="10.14158"><ele>369.0</ele><time>2026-04-19T13:15:36.969Z</time></trkpt><trkpt lat="44.24225" lon="10.1417667"><ele>374.5</ele><time>2026-04-19T13:15:37.969Z</time></trkpt><trkpt lat="44.2421967" lon="10.141945"><ele>380.0</ele><time>2026-04-19T13:15:38.969Z</time></trkpt><trkpt lat="44.242145" lon="10.1421117"><ele>385.5</ele><time>2026-04-19T13:15:39.969Z</time></trkpt><trkpt lat="44.2420967" lon="10.142285"><ele>391.0</ele><time>2026-04-19T13:15:40.969Z</time></trkpt><trkpt lat="44.2420533" lon="10.142475"><ele>391.0</ele><time>2026-04-19T13:15:41.969Z</time></trkpt><trkpt lat="44.242025" lon="10.1426767"><ele>391.0</ele><time>2026-04-19T13:15:42.969Z</time></trkpt><trkpt lat="44.2420117" lon="10.1428767"><ele>391.0</ele><time>2026-04-19T13:15:43.969Z</time></trkpt><trkpt lat="44.2419767" lon="10.14307"><ele>391.0</ele><time>2026-04-19T13:15:44.969Z</time></trkpt><trkpt lat="44.241945" lon="10.14324"><ele>392.0</ele><time>2026-04-19T13:15:45.969Z</time></trkpt><trkpt lat="44.241905" lon="10.1434067"><ele>393.0</ele><time>2026-04-19T13:15:46.969Z</time></trkpt><trkpt lat="44.2418883" lon="10.1435667"><ele>394.0</ele><time>2026-04-19T13:15:47.969Z</time></trkpt><trkpt lat="44.2418933" lon="10.1437067"><ele>395.0</ele><time>2026-04-19T13:15:48.969Z</time></trkpt><trkpt lat="44.2419317" lon="10.1438517"><ele>395.0</ele><time>2026-04-19T13:15:49.969Z</time></trkpt><trkpt lat="44.24198" lon="10.143975"><ele>395.0</ele><time>2026-04-19T13:15:50.969Z</time></trkpt><trkpt lat="44.2420483" lon="10.1440833"><ele>395.0</ele><time>2026-04-19T13:15:51.969Z</time></trkpt><trkpt lat="44.2421017" lon="10.1442083"><ele>395.0</ele><time>2026-04-19T13:15:52.969Z</time></trkpt><trkpt lat="44.2421433" lon="10.14435"><ele>395.0</ele><time>2026-04-19T13:15:53.969Z</time></trkpt><trkpt lat="44.2421667" lon="10.144525"><ele>396.66666666666663</ele><time>2026-04-19T13:15:54.969Z</time></trkpt><trkpt lat="44.2421817" lon="10.1447267"><ele>398.33333333333337</ele><time>2026-04-19T13:15:55.969Z</time></trkpt><trkpt lat="44.242175" lon="10.144955"><ele>400.0</ele><time>2026-04-19T13:15:56.969Z</time></trkpt><trkpt lat="44.242155" lon="10.1451917"><ele>401.25</ele><time>2026-04-19T13:15:57.969Z</time></trkpt><trkpt lat="44.242145" lon="10.1454133"><ele>402.5</ele><time>2026-04-19T13:15:58.969Z</time></trkpt><trkpt lat="44.2421417" lon="10.145615"><ele>403.75</ele><time>2026-04-19T13:15:59.969Z</time></trkpt><trkpt lat="44.242145" lon="10.14581"><ele>405.0</ele><time>2026-04-19T13:16:00.969Z</time></trkpt><trkpt lat="44.2421583" lon="10.14601"><ele>405.75</ele><time>2026-04-19T13:16:01.969Z</time></trkpt><trkpt lat="44.2421867" lon="10.146205"><ele>406.5</ele><time>2026-04-19T13:16:02.969Z</time></trkpt><trkpt lat="44.2422217" lon="10.1463933"><ele>407.25</ele><time>2026-04-19T13:16:03.97Z</time></trkpt><trkpt lat="44.24226" lon="10.1465533"><ele>408.0</ele><time>2026-04-19T13:16:04.97Z</time></trkpt><trkpt lat="44.2423067" lon="10.146695"><ele>408.0</ele><time>2026-04-19T13:16:05.969Z</time></trkpt><trkpt lat="44.2423567" lon="10.146815"><ele>408.0</ele><time>2026-04-19T13:16:06.969Z</time></trkpt><trkpt lat="44.2424233" lon="10.1469233"><ele>408.0</ele><time>2026-04-19T13:16:07.969Z</time></trkpt><trkpt lat="44.2425017" lon="10.1470133"><ele>408.0</ele><time>2026-04-19T13:16:08.969Z</time></trkpt><trkpt lat="44.242585" lon="10.1471033"><ele>408.0</ele><time>2026-04-19T13:16:09.969Z</time></trkpt><trkpt lat="44.2426717" lon="10.1472083"><ele>408.0</ele><time>2026-04-19T13:16:10.969Z</time></trkpt><trkpt lat="44.2427633" lon="10.147355"><ele>408.0</ele><time>2026-04-19T13:16:11.969Z</time></trkpt><trkpt lat="44.2428167" lon="10.1475183"><ele>408.0</ele><time>2026-04-19T13:16:12.969Z</time></trkpt><trkpt lat="44.2428733" lon="10.1476917"><ele>408.0</ele><time>2026-04-19T13:16:13.969Z</time></trkpt><trkpt lat="44.2429333" lon="10.1478633"><ele>412.75</ele><time>2026-04-19T13:16:14.969Z</time></trkpt><trkpt lat="44.2429933" lon="10.1480367"><ele>417.5</ele><time>2026-04-19T13:16:15.969Z</time></trkpt><trkpt lat="44.2430283" lon="10.1482167"><ele>422.25</ele><time>2026-04-19T13:16:16.97Z</time></trkpt><trkpt lat="44.2430367" lon="10.1484083"><ele>427.0</ele><time>2026-04-19T13:16:17.969Z</time></trkpt><trkpt lat="44.2430283" lon="10.1486067"><ele>432.33333333333337</ele><time>2026-04-19T13:16:18.969Z</time></trkpt><trkpt lat="44.242995" lon="10.1488183"><ele>437.66666666666663</ele><time>2026-04-19T13:16:19.969Z</time></trkpt><trkpt lat="44.2429717" lon="10.1490267"><ele>443.0</ele><time>2026-04-19T13:16:20.969Z</time></trkpt><trkpt lat="44.2429383" lon="10.1492233"><ele>445.75</ele><time>2026-04-19T13:16:21.969Z</time></trkpt><trkpt lat="44.2429283" lon="10.14942"><ele>448.5</ele><time>2026-04-19T13:16:22.969Z</time></trkpt><trkpt lat="44.2429183" lon="10.1496067"><ele>451.25</ele><time>2026-04-19T13:16:23.969Z</time></trkpt><trkpt lat="44.2429033" lon="10.1497717"><ele>454.0</ele><time>2026-04-19T13:16:24.969Z</time></trkpt><trkpt lat="44.2428867" lon="10.1499317"><ele>454.5</ele><time>2026-04-19T13:16:25.969Z</time></trkpt><trkpt lat="44.2428833" lon="10.1501067"><ele>455.0</ele><time>2026-04-19T13:16:26.97Z</time></trkpt><trkpt lat="44.2428817" lon="10.1502817"><ele>455.5</ele><time>2026-04-19T13:16:27.969Z</time></trkpt><trkpt lat="44.242885" lon="10.1504567"><ele>456.0</ele><time>2026-04-19T13:16:28.969Z</time></trkpt><trkpt lat="44.2429067" lon="10.1506283"><ele>458.0</ele><time>2026-04-19T13:16:29.969Z</time></trkpt><trkpt lat="44.24296" lon="10.15079"><ele>460.0</ele><time>2026-04-19T13:16:30.969Z</time></trkpt><trkpt lat="44.243035" lon="10.1509367"><ele>462.0</ele><time>2026-04-19T13:16:31.969Z</time></trkpt><trkpt lat="44.243125" lon="10.1510683"><ele>464.0</ele><time>2026-04-19T13:16:32.969Z</time></trkpt><trkpt lat="44.24322" lon="10.1511933"><ele>460.0</ele><time>2026-04-19T13:16:33.969Z</time></trkpt><trkpt lat="44.2433083" lon="10.1513283"><ele>456.0</ele><time>2026-04-19T13:16:34.969Z</time></trkpt><trkpt lat="44.243385" lon="10.1514967"><ele>452.0</ele><time>2026-04-19T13:16:35.969Z</time></trkpt><trkpt lat="44.2434383" lon="10.1516817"><ele>448.0</ele><time>2026-04-19T13:16:36.969Z</time></trkpt><trkpt lat="44.2434733" lon="10.1518733"><ele>448.0</ele><time>2026-04-19T13:16:37.969Z</time></trkpt><trkpt lat="44.2434867" lon="10.1520667"><ele>448.0</ele><time>2026-04-19T13:16:38.969Z</time></trkpt><trkpt lat="44.243475" lon="10.1522567"><ele>448.0</ele><time>2026-04-19T13:16:39.969Z</time></trkpt><trkpt lat="44.2434533" lon="10.1524417"><ele>448.0</ele><time>2026-04-19T13:16:40.969Z</time></trkpt><trkpt lat="44.2434383" lon="10.1526217"><ele>450.25</ele><time>2026-04-19T13:16:41.969Z</time></trkpt><trkpt lat="44.24346" lon="10.1527967"><ele>452.5</ele><time>2026-04-19T13:16:42.969Z</time></trkpt><trkpt lat="44.2434983" lon="10.152965"><ele>454.75</ele><time>2026-04-19T13:16:43.969Z</time></trkpt><trkpt lat="44.2435433" lon="10.1531267"><ele>457.0</ele><time>2026-04-19T13:16:44.969Z</time></trkpt><trkpt lat="44.2435883" lon="10.1533083"><ele>459.0</ele><time>2026-04-19T13:16:45.969Z</time></trkpt><trkpt lat="44.243635" lon="10.1534983"><ele>461.0</ele><time>2026-04-19T13:16:46.969Z</time></trkpt><trkpt lat="44.2436717" lon="10.1537"><ele>463.0</ele><time>2026-04-19T13:16:47.969Z</time></trkpt><trkpt lat="44.2437033" lon="10.1538917"><ele>465.0</ele><time>2026-04-19T13:16:48.969Z</time></trkpt><trkpt lat="44.2437283" lon="10.15408"><ele>466.25</ele><time>2026-04-19T13:16:49.969Z</time></trkpt><trkpt lat="44.243735" lon="10.1542633"><ele>467.5</ele><time>2026-04-19T13:16:50.969Z</time></trkpt><trkpt lat="44.2437283" lon="10.154445"><ele>468.75</ele><time>2026-04-19T13:16:51.969Z</time></trkpt><trkpt lat="44.243705" lon="10.1546283"><ele>470.0</ele><time>2026-04-19T13:16:52.969Z</time></trkpt><trkpt lat="44.243675" lon="10.1548067"><ele>471.0</ele><time>2026-04-19T13:16:53.969Z</time></trkpt><trkpt lat="44.24363" lon="10.154985"><ele>472.0</ele><time>2026-04-19T13:16:54.969Z</time></trkpt><trkpt lat="44.24356" lon="10.1551683"><ele>473.0</ele><time>2026-04-19T13:16:55.969Z</time></trkpt><trkpt lat="44.2434683" lon="10.1553417"><ele>474.0</ele><time>2026-04-19T13:16:56.969Z</time></trkpt><trkpt lat="44.24337" lon="10.1554917"><ele>474.0</ele><time>2026-04-19T13:16:57.969Z</time></trkpt><trkpt lat="44.243255" lon="10.1556233"><ele>474.0</ele><time>2026-04-19T13:16:58.969Z</time></trkpt><trkpt lat="44.2431217" lon="10.155725"><ele>474.0</ele><time>2026-04-19T13:16:59.969Z</time></trkpt><trkpt lat="44.2429917" lon="10.1558083"><ele>474.0</ele><time>2026-04-19T13:17:00.969Z</time></trkpt><trkpt lat="44.2428583" lon="10.1559017"><ele>476.75</ele><time>2026-04-19T13:17:01.969Z</time></trkpt><trkpt lat="44.2427433" lon="10.156015"><ele>479.5</ele><time>2026-04-19T13:17:02.969Z</time></trkpt><trkpt lat="44.24265" lon="10.156145"><ele>482.25</ele><time>2026-04-19T13:17:03.969Z</time></trkpt><trkpt lat="44.2425683" lon="10.15629"><ele>485.0</ele><time>2026-04-19T13:17:04.969Z</time></trkpt><trkpt lat="44.2424933" lon="10.1564533"><ele>483.0</ele><time>2026-04-19T13:17:05.969Z</time></trkpt><trkpt lat="44.2424267" lon="10.1566517"><ele>481.0</ele><time>2026-04-19T13:17:06.969Z</time></trkpt><trkpt lat="44.2423633" lon="10.1568683"><ele>479.0</ele><time>2026-04-19T13:17:07.969Z</time></trkpt><trkpt lat="44.2423067" lon="10.1570967"><ele>478.66666666666663</ele><time>2026-04-19T13:17:08.969Z</time></trkpt><trkpt lat="44.2422467" lon="10.1573133"><ele>478.33333333333337</ele><time>2026-04-19T13:17:09.969Z</time></trkpt><trkpt lat="44.2421983" lon="10.15752"><ele>478.0</ele><time>2026-04-19T13:17:10.97Z</time></trkpt><trkpt lat="44.2421583" lon="10.1577283"><ele>478.75</ele><time>2026-04-19T13:17:11.969Z</time></trkpt><trkpt lat="44.2421567" lon="10.157925"><ele>479.5</ele><time>2026-04-19T13:17:12.969Z</time></trkpt><trkpt lat="44.2421767" lon="10.15811"><ele>480.25</ele><time>2026-04-19T13:17:13.969Z</time></trkpt><trkpt lat="44.2422267" lon="10.1582917"><ele>481.0</ele><time>2026-04-19T13:17:14.969Z</time></trkpt><trkpt lat="44.2423083" lon="10.1584717"><ele>481.25</ele><time>2026-04-19T13:17:15.969Z</time></trkpt><trkpt lat="44.242415" lon="10.1586467"><ele>481.5</ele><time>2026-04-19T13:17:16.969Z</time></trkpt><trkpt lat="44.2425183" lon="10.1587933"><ele>481.75</ele><time>2026-04-19T13:17:17.969Z</time></trkpt><trkpt lat="44.2426233" lon="10.1589117"><ele>482.0</ele><time>2026-04-19T13:17:18.969Z</time></trkpt><trkpt lat="44.24273" lon="10.1590033"><ele>485.0</ele><time>2026-04-19T13:17:19.969Z</time></trkpt><trkpt lat="44.242845" lon="10.1590617"><ele>488.0</ele><time>2026-04-19T13:17:20.969Z</time></trkpt><trkpt lat="44.2429717" lon="10.15909"><ele>491.0</ele><time>2026-04-19T13:17:21.969Z</time></trkpt><trkpt lat="44.2431" lon="10.1590783"><ele>494.0</ele><time>2026-04-19T13:17:22.969Z</time></trkpt><trkpt lat="44.2432383" lon="10.15905"><ele>486.3333333333333</ele><time>2026-04-19T13:17:23.969Z</time></trkpt><trkpt lat="44.2434033" lon="10.15902"><ele>478.66666666666663</ele><time>2026-04-19T13:17:24.969Z</time></trkpt><trkpt lat="44.2435683" lon="10.1590133"><ele>471.0</ele><time>2026-04-19T13:17:25.969Z</time></trkpt><trkpt lat="44.24372" lon="10.1590233"><ele>473.20000000000005</ele><time>2026-04-19T13:17:26.969Z</time></trkpt><trkpt lat="44.243845" lon="10.15905"><ele>475.40000000000003</ele><time>2026-04-19T13:17:27.969Z</time></trkpt><trkpt lat="44.243945" lon="10.1591017"><ele>477.6</ele><time>2026-04-19T13:17:28.969Z</time></trkpt><trkpt lat="44.24402" lon="10.1591783"><ele>479.8</ele><time>2026-04-19T13:17:29.969Z</time></trkpt><trkpt lat="44.244065" lon="10.15929"><ele>482.0</ele><time>2026-04-19T13:17:30.969Z</time></trkpt><trkpt lat="44.2440833" lon="10.159435"><ele>482.0</ele><time>2026-04-19T13:17:31.969Z</time></trkpt><trkpt lat="44.2441" lon="10.1596017"><ele>482.0</ele><time>2026-04-19T13:17:32.969Z</time></trkpt><trkpt lat="44.2441383" lon="10.1597783"><ele>482.0</ele><time>2026-04-19T13:17:33.969Z</time></trkpt><trkpt lat="44.2442033" lon="10.1599533"><ele>482.0</ele><time>2026-04-19T13:17:34.969Z</time></trkpt><trkpt lat="44.2442867" lon="10.1601233"><ele>487.3333333333333</ele><time>2026-04-19T13:17:35.969Z</time></trkpt><trkpt lat="44.2443767" lon="10.1602917"><ele>492.66666666666663</ele><time>2026-04-19T13:17:36.969Z</time></trkpt><trkpt lat="44.24446" lon="10.160465"><ele>498.0</ele><time>2026-04-19T13:17:37.969Z</time></trkpt><trkpt lat="44.2445367" lon="10.160645"><ele>500.5</ele><time>2026-04-19T13:17:38.969Z</time></trkpt><trkpt lat="44.244605" lon="10.1608417"><ele>503.0</ele><time>2026-04-19T13:17:39.969Z</time></trkpt><trkpt lat="44.2446567" lon="10.16104"><ele>505.5</ele><time>2026-04-19T13:17:40.969Z</time></trkpt><trkpt lat="44.2447" lon="10.16122"><ele>508.0</ele><time>2026-04-19T13:17:41.969Z</time></trkpt><trkpt lat="44.2447367" lon="10.1613917"><ele>508.5</ele><time>2026-04-19T13:17:42.969Z</time></trkpt><trkpt lat="44.24476" lon="10.16157"><ele>509.0</ele><time>2026-04-19T13:17:43.969Z</time></trkpt><trkpt lat="44.244765" lon="10.16176"><ele>509.5</ele><time>2026-04-19T13:17:44.969Z</time></trkpt><trkpt lat="44.244745" lon="10.1619683"><ele>510.0</ele><time>2026-04-19T13:17:45.969Z</time></trkpt><trkpt lat="44.24471" lon="10.162185"><ele>513.0</ele><time>2026-04-19T13:17:46.969Z</time></trkpt><trkpt lat="44.244665" lon="10.1624017"><ele>516.0</ele><time>2026-04-19T13:17:47.969Z</time></trkpt><trkpt lat="44.2446217" lon="10.1626067"><ele>519.0</ele><time>2026-04-19T13:17:48.969Z</time></trkpt><trkpt lat="44.2445717" lon="10.1627933"><ele>519.0</ele><time>2026-04-19T13:17:49.969Z</time></trkpt><trkpt lat="44.2445183" lon="10.1629717"><ele>519.0</ele><time>2026-04-19T13:17:50.969Z</time></trkpt><trkpt lat="44.24445" lon="10.163145"><ele>519.0</ele><time>2026-04-19T13:17:51.969Z</time></trkpt><trkpt lat="44.244395" lon="10.16332"><ele>519.0</ele><time>2026-04-19T13:17:52.969Z</time></trkpt><trkpt lat="44.2443433" lon="10.1634967"><ele>519.25</ele><time>2026-04-19T13:17:53.969Z</time></trkpt><trkpt lat="44.2443117" lon="10.1636733"><ele>519.5</ele><time>2026-04-19T13:17:54.969Z</time></trkpt><trkpt lat="44.2442833" lon="10.1638433"><ele>519.75</ele><time>2026-04-19T13:17:55.969Z</time></trkpt><trkpt lat="44.2442817" lon="10.16401"><ele>520.0</ele><time>2026-04-19T13:17:56.969Z</time></trkpt><trkpt lat="44.2443033" lon="10.1641767"><ele>518.75</ele><time>2026-04-19T13:17:57.969Z</time></trkpt><trkpt lat="44.24435" lon="10.1643233"><ele>517.5</ele><time>2026-04-19T13:17:58.969Z</time></trkpt><trkpt lat="44.24444" lon="10.1644317"><ele>516.25</ele><time>2026-04-19T13:17:59.97Z</time></trkpt><trkpt lat="44.2445417" lon="10.1645167"><ele>515.0</ele><time>2026-04-19T13:18:00.969Z</time></trkpt><trkpt lat="44.24466" lon="10.1645433"><ele>515.0</ele><time>2026-04-19T13:18:01.969Z</time></trkpt><trkpt lat="44.24479" lon="10.1645117"><ele>515.0</ele><time>2026-04-19T13:18:02.969Z</time></trkpt><trkpt lat="44.2449083" lon="10.1644433"><ele>515.0</ele><time>2026-04-19T13:18:03.969Z</time></trkpt><trkpt lat="44.24503" lon="10.164375"><ele>515.0</ele><time>2026-04-19T13:18:04.969Z</time></trkpt><trkpt lat="44.2451533" lon="10.1643533"><ele>512.0</ele><time>2026-04-19T13:18:05.969Z</time></trkpt><trkpt lat="44.2452767" lon="10.1643817"><ele>509.0</ele><time>2026-04-19T13:18:06.969Z</time></trkpt><trkpt lat="44.2453883" lon="10.1644483"><ele>506.0</ele><time>2026-04-19T13:18:07.969Z</time></trkpt><trkpt lat="44.2454983" lon="10.1645567"><ele>503.0</ele><time>2026-04-19T13:18:08.969Z</time></trkpt><trkpt lat="44.2455983" lon="10.1646983"><ele>505.0</ele><time>2026-04-19T13:18:09.969Z</time></trkpt><trkpt lat="44.2456967" lon="10.1648717"><ele>507.0</ele><time>2026-04-19T13:18:10.969Z</time></trkpt><trkpt lat="44.24579" lon="10.165045"><ele>509.0</ele><time>2026-04-19T13:18:11.968Z</time></trkpt><trkpt lat="44.2458717" lon="10.1652283"><ele>509.0</ele><time>2026-04-19T13:18:12.968Z</time></trkpt><trkpt lat="44.2459583" lon="10.1654033"><ele>509.0</ele><time>2026-04-19T13:18:13.968Z</time></trkpt><trkpt lat="44.2460367" lon="10.1655883"><ele>509.0</ele><time>2026-04-19T13:18:14.968Z</time></trkpt><trkpt lat="44.246115" lon="10.16577"><ele>514.0</ele><time>2026-04-19T13:18:15.968Z</time></trkpt><trkpt lat="44.246195" lon="10.1659483"><ele>519.0</ele><time>2026-04-19T13:18:16.968Z</time></trkpt><trkpt lat="44.2462817" lon="10.1661183"><ele>524.0</ele><time>2026-04-19T13:18:17.968Z</time></trkpt><trkpt lat="44.2463667" lon="10.1662767"><ele>529.0</ele><time>2026-04-19T13:18:18.968Z</time></trkpt><trkpt lat="44.24646" lon="10.16642"><ele>524.75</ele><time>2026-04-19T13:18:19.968Z</time></trkpt><trkpt lat="44.24656" lon="10.16655"><ele>520.5</ele><time>2026-04-19T13:18:20.968Z</time></trkpt><trkpt lat="44.24665" lon="10.166665"><ele>516.25</ele><time>2026-04-19T13:18:21.968Z</time></trkpt><trkpt lat="44.246755" lon="10.1667767"><ele>512.0</ele><time>2026-04-19T13:18:22.968Z</time></trkpt><trkpt lat="44.2468733" lon="10.1668933"><ele>512.0</ele><time>2026-04-19T13:18:23.968Z</time></trkpt><trkpt lat="44.2469667" lon="10.1670483"><ele>512.0</ele><time>2026-04-19T13:18:24.968Z</time></trkpt><trkpt lat="44.2470417" lon="10.167225"><ele>512.0</ele><time>2026-04-19T13:18:25.968Z</time></trkpt><trkpt lat="44.2471033" lon="10.16742"><ele>512.0</ele><time>2026-04-19T13:18:26.968Z</time></trkpt><trkpt lat="44.2471717" lon="10.1676183"><ele>511.66666666666663</ele><time>2026-04-19T13:18:27.968Z</time></trkpt><trkpt lat="44.2472383" lon="10.1678283"><ele>511.33333333333337</ele><time>2026-04-19T13:18:28.968Z</time></trkpt><trkpt lat="44.2472967" lon="10.16803"><ele>511.0</ele><time>2026-04-19T13:18:29.968Z</time></trkpt><trkpt lat="44.2473517" lon="10.1682317"><ele>511.0</ele><time>2026-04-19T13:18:30.968Z</time></trkpt><trkpt lat="44.2474" lon="10.1684383"><ele>511.0</ele><time>2026-04-19T13:18:31.968Z</time></trkpt><trkpt lat="44.2474583" lon="10.1686517"><ele>511.0</ele><time>2026-04-19T13:18:32.968Z</time></trkpt><trkpt lat="44.2474983" lon="10.1688683"><ele>513.25</ele><time>2026-04-19T13:18:33.968Z</time></trkpt><trkpt lat="44.2475417" lon="10.1690717"><ele>515.5</ele><time>2026-04-19T13:18:34.968Z</time></trkpt><trkpt lat="44.2475833" lon="10.1692617"><ele>517.75</ele><time>2026-04-19T13:18:35.968Z</time></trkpt><trkpt lat="44.24764" lon="10.1694517"><ele>520.0</ele><time>2026-04-19T13:18:36.968Z</time></trkpt><trkpt lat="44.2476783" lon="10.1696517"><ele>520.0</ele><time>2026-04-19T13:18:37.968Z</time></trkpt><trkpt lat="44.2477317" lon="10.16985"><ele>520.0</ele><time>2026-04-19T13:18:38.968Z</time></trkpt><trkpt lat="44.2477817" lon="10.1700583"><ele>520.0</ele><time>2026-04-19T13:18:39.968Z</time></trkpt><trkpt lat="44.247825" lon="10.1702683"><ele>522.6666666666667</ele><time>2026-04-19T13:18:40.968Z</time></trkpt><trkpt lat="44.247855" lon="10.17048"><ele>525.3333333333334</ele><time>2026-04-19T13:18:41.968Z</time></trkpt><trkpt lat="44.24788" lon="10.1706967"><ele>528.0</ele><time>2026-04-19T13:18:42.968Z</time></trkpt><trkpt lat="44.2478967" lon="10.1709117"><ele>529.0</ele><time>2026-04-19T13:18:43.968Z</time></trkpt><trkpt lat="44.247905" lon="10.1711267"><ele>530.0</ele><time>2026-04-19T13:18:44.968Z</time></trkpt><trkpt lat="44.2479167" lon="10.1713517"><ele>531.0</ele><time>2026-04-19T13:18:45.968Z</time></trkpt><trkpt lat="44.2479317" lon="10.1715767"><ele>532.6666666666666</ele><time>2026-04-19T13:18:46.968Z</time></trkpt><trkpt lat="44.247935" lon="10.1717967"><ele>534.3333333333333</ele><time>2026-04-19T13:18:47.968Z</time></trkpt><trkpt lat="44.2479467" lon="10.172005"><ele>536.0</ele><time>2026-04-19T13:18:48.968Z</time></trkpt><trkpt lat="44.24796" lon="10.172205"><ele>537.5</ele><time>2026-04-19T13:18:49.968Z</time></trkpt><trkpt lat="44.2479617" lon="10.1724117"><ele>539.0</ele><time>2026-04-19T13:18:50.968Z</time></trkpt><trkpt lat="44.247965" lon="10.17261"><ele>540.5</ele><time>2026-04-19T13:18:51.968Z</time></trkpt><trkpt lat="44.2479717" lon="10.17281"><ele>542.0</ele><time>2026-04-19T13:18:52.968Z</time></trkpt><trkpt lat="44.247985" lon="10.1730083"><ele>545.0</ele><time>2026-04-19T13:18:53.968Z</time></trkpt><trkpt lat="44.2479933" lon="10.1732117"><ele>548.0</ele><time>2026-04-19T13:18:54.968Z</time></trkpt><trkpt lat="44.24799" lon="10.1734317"><ele>551.0</ele><time>2026-04-19T13:18:55.968Z</time></trkpt><trkpt lat="44.24799" lon="10.1736533"><ele>551.0</ele><time>2026-04-19T13:18:56.968Z</time></trkpt><trkpt lat="44.2479967" lon="10.1738883"><ele>551.0</ele><time>2026-04-19T13:18:57.968Z</time></trkpt><trkpt lat="44.248005" lon="10.1741267"><ele>551.0</ele><time>2026-04-19T13:18:58.968Z</time></trkpt><trkpt lat="44.2480217" lon="10.17435"><ele>553.0</ele><time>2026-04-19T13:18:59.968Z</time></trkpt><trkpt lat="44.248025" lon="10.1745633"><ele>555.0</ele><time>2026-04-19T13:19:00.968Z</time></trkpt><trkpt lat="44.2480267" lon="10.1747667"><ele>557.0</ele><time>2026-04-19T13:19:01.968Z</time></trkpt><trkpt lat="44.24802" lon="10.17496"><ele>559.0</ele><time>2026-04-19T13:19:02.968Z</time></trkpt><trkpt lat="44.2480017" lon="10.1751417"><ele>559.25</ele><time>2026-04-19T13:19:03.968Z</time></trkpt><trkpt lat="44.24798" lon="10.1753217"><ele>559.5</ele><time>2026-04-19T13:19:04.968Z</time></trkpt><trkpt lat="44.2479733" lon="10.1755067"><ele>559.75</ele><time>2026-04-19T13:19:05.968Z</time></trkpt><trkpt lat="44.2479983" lon="10.1757033"><ele>560.0</ele><time>2026-04-19T13:19:06.968Z</time></trkpt><trkpt lat="44.2480383" lon="10.175905"><ele>560.6666666666666</ele><time>2026-04-19T13:19:07.968Z</time></trkpt><trkpt lat="44.2481067" lon="10.176105"><ele>561.3333333333334</ele><time>2026-04-19T13:19:08.968Z</time></trkpt><trkpt lat="44.2481867" lon="10.176305"><ele>562.0</ele><time>2026-04-19T13:19:09.968Z</time></trkpt><trkpt lat="44.2482683" lon="10.1764983"><ele>553.3333333333334</ele><time>2026-04-19T13:19:10.968Z</time></trkpt><trkpt lat="44.2483267" lon="10.1767"><ele>544.6666666666666</ele><time>2026-04-19T13:19:11.968Z</time></trkpt><trkpt lat="44.2483633" lon="10.1769133"><ele>536.0</ele><time>2026-04-19T13:19:12.968Z</time></trkpt><trkpt lat="44.248385" lon="10.1771267"><ele>536.0</ele><time>2026-04-19T13:19:13.968Z</time></trkpt><trkpt lat="44.2484" lon="10.1773317"><ele>536.0</ele><time>2026-04-19T13:19:14.968Z</time></trkpt><trkpt lat="44.2484117" lon="10.1775217"><ele>536.0</ele><time>2026-04-19T13:19:15.968Z</time></trkpt><trkpt lat="44.2484217" lon="10.177685"><ele>536.0</ele><time>2026-04-19T13:19:16.968Z</time></trkpt><trkpt lat="44.248435" lon="10.177825"><ele>536.6</ele><time>2026-04-19T13:19:17.968Z</time></trkpt><trkpt lat="44.248445" lon="10.1779533"><ele>537.2</ele><time>2026-04-19T13:19:18.968Z</time></trkpt><trkpt lat="44.24848" lon="10.1780733"><ele>537.8</ele><time>2026-04-19T13:19:19.968Z</time></trkpt><trkpt lat="44.248555" lon="10.1781833"><ele>538.4</ele><time>2026-04-19T13:19:20.968Z</time></trkpt><trkpt lat="44.2486567" lon="10.1782833"><ele>539.0</ele><time>2026-04-19T13:19:21.968Z</time></trkpt><trkpt lat="44.2487783" lon="10.17838"><ele>540.75</ele><time>2026-04-19T13:19:22.968Z</time></trkpt><trkpt lat="44.2489033" lon="10.1784783"><ele>542.5</ele><time>2026-04-19T13:19:23.968Z</time></trkpt><trkpt lat="44.2490283" lon="10.1785783"><ele>544.25</ele><time>2026-04-19T13:19:24.968Z</time></trkpt><trkpt lat="44.2491467" lon="10.17867"><ele>546.0</ele><time>2026-04-19T13:19:25.968Z</time></trkpt><trkpt lat="44.2492517" lon="10.1787417"><ele>538.75</ele><time>2026-04-19T13:19:26.968Z</time></trkpt><trkpt lat="44.249365" lon="10.1788017"><ele>531.5</ele><time>2026-04-19T13:19:27.968Z</time></trkpt><trkpt lat="44.249485" lon="10.17885"><ele>524.25</ele><time>2026-04-19T13:19:28.968Z</time></trkpt><trkpt lat="44.2496033" lon="10.17883"><ele>517.0</ele><time>2026-04-19T13:19:29.968Z</time></trkpt><trkpt lat="44.2497117" lon="10.1787667"><ele>520.5</ele><time>2026-04-19T13:19:30.969Z</time></trkpt><trkpt lat="44.249805" lon="10.178655"><ele>524.0</ele><time>2026-04-19T13:19:31.968Z</time></trkpt><trkpt lat="44.2498783" lon="10.178525"><ele>527.5</ele><time>2026-04-19T13:19:32.968Z</time></trkpt><trkpt lat="44.2499433" lon="10.1783833"><ele>531.0</ele><time>2026-04-19T13:19:33.968Z</time></trkpt><trkpt lat="44.249985" lon="10.1782233"><ele>529.5</ele><time>2026-04-19T13:19:34.968Z</time></trkpt><trkpt lat="44.250015" lon="10.1780567"><ele>528.0</ele><time>2026-04-19T13:19:35.968Z</time></trkpt><trkpt lat="44.25003" lon="10.177875"><ele>526.5</ele><time>2026-04-19T13:19:36.968Z</time></trkpt><trkpt lat="44.2500583" lon="10.1776967"><ele>525.0</ele><time>2026-04-19T13:19:37.968Z</time></trkpt><trkpt lat="44.250125" lon="10.1775317"><ele>525.0</ele><time>2026-04-19T13:19:38.968Z</time></trkpt><trkpt lat="44.2501933" lon="10.1773583"><ele>525.0</ele><time>2026-04-19T13:19:39.968Z</time></trkpt><trkpt lat="44.2502583" lon="10.1771767"><ele>525.0</ele><time>2026-04-19T13:19:40.968Z</time></trkpt><trkpt lat="44.2503117" lon="10.1769717"><ele>525.0</ele><time>2026-04-19T13:19:41.968Z</time></trkpt><trkpt lat="44.2503533" lon="10.1767667"><ele>524.0</ele><time>2026-04-19T13:19:42.968Z</time></trkpt><trkpt lat="44.2504067" lon="10.1765683"><ele>523.0</ele><time>2026-04-19T13:19:43.968Z</time></trkpt><trkpt lat="44.25047" lon="10.1763667"><ele>522.0</ele><time>2026-04-19T13:19:44.968Z</time></trkpt><trkpt lat="44.250525" lon="10.176165"><ele>520.5</ele><time>2026-04-19T13:19:45.968Z</time></trkpt><trkpt lat="44.25058" lon="10.1759733"><ele>519.0</ele><time>2026-04-19T13:19:46.968Z</time></trkpt><trkpt lat="44.2506383" lon="10.175805"><ele>517.5</ele><time>2026-04-19T13:19:47.968Z</time></trkpt><trkpt lat="44.250705" lon="10.1756533"><ele>516.0</ele><time>2026-04-19T13:19:48.968Z</time></trkpt><trkpt lat="44.25078" lon="10.175485"><ele>521.25</ele><time>2026-04-19T13:19:49.968Z</time></trkpt><trkpt lat="44.25087" lon="10.1753267"><ele>526.5</ele><time>2026-04-19T13:19:50.968Z</time></trkpt><trkpt lat="44.25097" lon="10.1751783"><ele>531.75</ele><time>2026-04-19T13:19:51.968Z</time></trkpt><trkpt lat="44.2510617" lon="10.1750333"><ele>537.0</ele><time>2026-04-19T13:19:52.968Z</time></trkpt><trkpt lat="44.2511317" lon="10.1748917"><ele>536.6666666666666</ele><time>2026-04-19T13:19:53.968Z</time></trkpt><trkpt lat="44.2512017" lon="10.1747817"><ele>536.3333333333334</ele><time>2026-04-19T13:19:54.968Z</time></trkpt><trkpt lat="44.2512517" lon="10.1746633"><ele>536.0</ele><time>2026-04-19T13:19:55.968Z</time></trkpt><trkpt lat="44.2512883" lon="10.17455"><ele>535.6666666666667</ele><time>2026-04-19T13:19:56.968Z</time></trkpt><trkpt lat="44.251335" lon="10.1744517"><ele>535.3333333333334</ele><time>2026-04-19T13:19:57.968Z</time></trkpt><trkpt lat="44.2513717" lon="10.1743733"><ele>535.0</ele><time>2026-04-19T13:19:58.968Z</time></trkpt><trkpt lat="44.2514567" lon="10.1743617"><ele>535.0</ele><time>2026-04-19T13:20:00.968Z</time></trkpt><trkpt lat="44.2514517" lon="10.17452"><ele>535.0</ele><time>2026-04-19T13:20:02.968Z</time></trkpt><trkpt lat="44.2514183" lon="10.174615"><ele>535.0</ele><time>2026-04-19T13:20:03.968Z</time></trkpt><trkpt lat="44.2513533" lon="10.1747633"><ele>535.0</ele><time>2026-04-19T13:20:04.968Z</time></trkpt><trkpt lat="44.2512617" lon="10.1749567"><ele>535.6666666666667</ele><time>2026-04-19T13:20:05.968Z</time></trkpt><trkpt lat="44.25116" lon="10.1751783"><ele>536.3333333333334</ele><time>2026-04-19T13:20:06.968Z</time></trkpt><trkpt lat="44.251075" lon="10.17539"><ele>537.0</ele><time>2026-04-19T13:20:07.968Z</time></trkpt><trkpt lat="44.2510183" lon="10.1755683"><ele>539.5</ele><time>2026-04-19T13:20:08.968Z</time></trkpt><trkpt lat="44.2510033" lon="10.17574"><ele>542.0</ele><time>2026-04-19T13:20:09.968Z</time></trkpt><trkpt lat="44.25102" lon="10.17592"><ele>544.5</ele><time>2026-04-19T13:20:10.968Z</time></trkpt><trkpt lat="44.2510633" lon="10.1761067"><ele>547.0</ele><time>2026-04-19T13:20:11.968Z</time></trkpt><trkpt lat="44.2511067" lon="10.1763083"><ele>547.0</ele><time>2026-04-19T13:20:12.968Z</time></trkpt><trkpt lat="44.2511417" lon="10.1765133"><ele>547.0</ele><time>2026-04-19T13:20:13.968Z</time></trkpt><trkpt lat="44.2511483" lon="10.1767"><ele>547.0</ele><time>2026-04-19T13:20:14.968Z</time></trkpt><trkpt lat="44.2511367" lon="10.1768683"><ele>547.0</ele><time>2026-04-19T13:20:15.968Z</time></trkpt><trkpt lat="44.2510967" lon="10.1770067"><ele>548.5</ele><time>2026-04-19T13:20:16.968Z</time></trkpt><trkpt lat="44.2510417" lon="10.177115"><ele>550.0</ele><time>2026-04-19T13:20:17.968Z</time></trkpt><trkpt lat="44.2509833" lon="10.1771983"><ele>551.5</ele><time>2026-04-19T13:20:18.968Z</time></trkpt><trkpt lat="44.2509483" lon="10.1772767"><ele>553.0</ele><time>2026-04-19T13:20:19.968Z</time></trkpt><trkpt lat="44.2509867" lon="10.1774033"><ele>554.5</ele><time>2026-04-19T13:20:21.968Z</time></trkpt><trkpt lat="44.2510483" lon="10.177425"><ele>556.0</ele><time>2026-04-19T13:20:22.968Z</time></trkpt><trkpt lat="44.2511167" lon="10.1773883"><ele>556.0</ele><time>2026-04-19T13:20:23.968Z</time></trkpt><trkpt lat="44.25118" lon="10.1772933"><ele>556.0</ele><time>2026-04-19T13:20:24.968Z</time></trkpt><trkpt lat="44.2512433" lon="10.1771383"><ele>556.0</ele><time>2026-04-19T13:20:25.968Z</time></trkpt><trkpt lat="44.2513167" lon="10.1769417"><ele>556.0</ele><time>2026-04-19T13:20:26.968Z</time></trkpt><trkpt lat="44.25139" lon="10.1767183"><ele>553.0</ele><time>2026-04-19T13:20:27.968Z</time></trkpt><trkpt lat="44.2514483" lon="10.17649"><ele>550.0</ele><time>2026-04-19T13:20:28.968Z</time></trkpt><trkpt lat="44.25149" lon="10.1762767"><ele>547.0</ele><time>2026-04-19T13:20:29.968Z</time></trkpt><trkpt lat="44.251525" lon="10.176085"><ele>554.75</ele><time>2026-04-19T13:20:30.968Z</time></trkpt><trkpt lat="44.2515583" lon="10.175905"><ele>562.5</ele><time>2026-04-19T13:20:31.968Z</time></trkpt><trkpt lat="44.2515983" lon="10.1757217"><ele>570.25</ele><time>2026-04-19T13:20:32.968Z</time></trkpt><trkpt lat="44.25164" lon="10.1755517"><ele>578.0</ele><time>2026-04-19T13:20:33.968Z</time></trkpt><trkpt lat="44.251695" lon="10.17538"><ele>578.0</ele><time>2026-04-19T13:20:34.968Z</time></trkpt><trkpt lat="44.25176" lon="10.175215"><ele>578.0</ele><time>2026-04-19T13:20:35.968Z</time></trkpt><trkpt lat="44.2518367" lon="10.17506"><ele>578.0</ele><time>2026-04-19T13:20:36.968Z</time></trkpt><trkpt lat="44.2519083" lon="10.174905"><ele>578.0</ele><time>2026-04-19T13:20:37.968Z</time></trkpt><trkpt lat="44.2519867" lon="10.1747533"><ele>576.25</ele><time>2026-04-19T13:20:38.968Z</time></trkpt><trkpt lat="44.2520633" lon="10.1745983"><ele>574.5</ele><time>2026-04-19T13:20:39.968Z</time></trkpt><trkpt lat="44.2521267" lon="10.1744567"><ele>572.75</ele><time>2026-04-19T13:20:40.968Z</time></trkpt><trkpt lat="44.25219" lon="10.1743183"><ele>571.0</ele><time>2026-04-19T13:20:41.968Z</time></trkpt><trkpt lat="44.252265" lon="10.1741933"><ele>569.75</ele><time>2026-04-19T13:20:42.968Z</time></trkpt><trkpt lat="44.25235" lon="10.174065"><ele>568.5</ele><time>2026-04-19T13:20:43.968Z</time></trkpt><trkpt lat="44.2524367" lon="10.173955"><ele>567.25</ele><time>2026-04-19T13:20:44.968Z</time></trkpt><trkpt lat="44.252525" lon="10.1738533"><ele>566.0</ele><time>2026-04-19T13:20:45.968Z</time></trkpt><trkpt lat="44.2526117" lon="10.17378"><ele>566.0</ele><time>2026-04-19T13:20:46.968Z</time></trkpt><trkpt lat="44.252715" lon="10.1737367"><ele>566.0</ele><time>2026-04-19T13:20:47.968Z</time></trkpt><trkpt lat="44.2528167" lon="10.1737067"><ele>566.0</ele><time>2026-04-19T13:20:48.968Z</time></trkpt><trkpt lat="44.252945" lon="10.1737033"><ele>566.0</ele><time>2026-04-19T13:20:49.968Z</time></trkpt><trkpt lat="44.2530733" lon="10.173735"><ele>566.5</ele><time>2026-04-19T13:20:50.968Z</time></trkpt><trkpt lat="44.2532183" lon="10.173795"><ele>567.0</ele><time>2026-04-19T13:20:51.968Z</time></trkpt><trkpt lat="44.2533533" lon="10.1738767"><ele>567.5</ele><time>2026-04-19T13:20:52.968Z</time></trkpt><trkpt lat="44.2534767" lon="10.1739733"><ele>568.0</ele><time>2026-04-19T13:20:53.968Z</time></trkpt><trkpt lat="44.2535867" lon="10.174085"><ele>576.0</ele><time>2026-04-19T13:20:54.969Z</time></trkpt><trkpt lat="44.253685" lon="10.1742067"><ele>584.0</ele><time>2026-04-19T13:20:55.968Z</time></trkpt><trkpt lat="44.2537733" lon="10.17435"><ele>592.0</ele><time>2026-04-19T13:20:56.968Z</time></trkpt><trkpt lat="44.2538483" lon="10.174505"><ele>600.0</ele><time>2026-04-19T13:20:57.968Z</time></trkpt><trkpt lat="44.2539333" lon="10.174665"><ele>597.5</ele><time>2026-04-19T13:20:58.968Z</time></trkpt><trkpt lat="44.2540183" lon="10.1748117"><ele>595.0</ele><time>2026-04-19T13:20:59.968Z</time></trkpt><trkpt lat="44.2541033" lon="10.174925"><ele>592.5</ele><time>2026-04-19T13:21:00.968Z</time></trkpt><trkpt lat="44.2541917" lon="10.1750067"><ele>590.0</ele><time>2026-04-19T13:21:01.968Z</time></trkpt><trkpt lat="44.254285" lon="10.17506"><ele>595.0</ele><time>2026-04-19T13:21:02.968Z</time></trkpt><trkpt lat="44.2544" lon="10.1750483"><ele>600.0</ele><time>2026-04-19T13:21:03.968Z</time></trkpt><trkpt lat="44.254525" lon="10.1750117"><ele>605.0</ele><time>2026-04-19T13:21:04.968Z</time></trkpt><trkpt lat="44.25464" lon="10.1749617"><ele>610.0</ele><time>2026-04-19T13:21:05.968Z</time></trkpt><trkpt lat="44.25473" lon="10.1749467"><ele>611.4</ele><time>2026-04-19T13:21:06.968Z</time></trkpt><trkpt lat="44.2548283" lon="10.1749367"><ele>612.8</ele><time>2026-04-19T13:21:07.968Z</time></trkpt><trkpt lat="44.254935" lon="10.1749383"><ele>614.2</ele><time>2026-04-19T13:21:08.968Z</time></trkpt><trkpt lat="44.2550467" lon="10.17494"><ele>615.6</ele><time>2026-04-19T13:21:09.968Z</time></trkpt><trkpt lat="44.2551633" lon="10.1749567"><ele>617.0</ele><time>2026-04-19T13:21:10.969Z</time></trkpt><trkpt lat="44.25528" lon="10.1749933"><ele>617.0</ele><time>2026-04-19T13:21:11.968Z</time></trkpt><trkpt lat="44.2554" lon="10.1750517"><ele>617.0</ele><time>2026-04-19T13:21:12.968Z</time></trkpt><trkpt lat="44.2555133" lon="10.1751233"><ele>617.0</ele><time>2026-04-19T13:21:13.968Z</time></trkpt><trkpt lat="44.2556233" lon="10.1752133"><ele>617.0</ele><time>2026-04-19T13:21:14.968Z</time></trkpt><trkpt lat="44.255725" lon="10.17531"><ele>617.75</ele><time>2026-04-19T13:21:15.968Z</time></trkpt><trkpt lat="44.2558283" lon="10.1753917"><ele>618.5</ele><time>2026-04-19T13:21:16.968Z</time></trkpt><trkpt lat="44.2559217" lon="10.175475"><ele>619.25</ele><time>2026-04-19T13:21:17.968Z</time></trkpt><trkpt lat="44.256005" lon="10.1755717"><ele>620.0</ele><time>2026-04-19T13:21:18.968Z</time></trkpt><trkpt lat="44.2560817" lon="10.1756867"><ele>622.6</ele><time>2026-04-19T13:21:19.968Z</time></trkpt><trkpt lat="44.2561367" lon="10.1757983"><ele>625.2</ele><time>2026-04-19T13:21:20.968Z</time></trkpt><trkpt lat="44.2561883" lon="10.1758783"><ele>627.8</ele><time>2026-04-19T13:21:21.968Z</time></trkpt><trkpt lat="44.2563" lon="10.17592"><ele>630.4</ele><time>2026-04-19T13:21:23.968Z</time></trkpt><trkpt lat="44.2563783" lon="10.175855"><ele>633.0</ele><time>2026-04-19T13:21:24.968Z</time></trkpt><trkpt lat="44.2564517" lon="10.175755"><ele>630.4</ele><time>2026-04-19T13:21:25.968Z</time></trkpt><trkpt lat="44.2565033" lon="10.175635"><ele>627.8</ele><time>2026-04-19T13:21:26.968Z</time></trkpt><trkpt lat="44.2565133" lon="10.1754917"><ele>625.2</ele><time>2026-04-19T13:21:27.968Z</time></trkpt><trkpt lat="44.2564933" lon="10.17535"><ele>622.6</ele><time>2026-04-19T13:21:28.968Z</time></trkpt><trkpt lat="44.2564567" lon="10.1752033"><ele>620.0</ele><time>2026-04-19T13:21:29.968Z</time></trkpt><trkpt lat="44.2563933" lon="10.17508"><ele>620.0</ele><time>2026-04-19T13:21:30.968Z</time></trkpt><trkpt lat="44.2563317" lon="10.174965"><ele>620.0</ele><time>2026-04-19T13:21:31.968Z</time></trkpt><trkpt lat="44.2562833" lon="10.174835"><ele>620.0</ele><time>2026-04-19T13:21:32.968Z</time></trkpt><trkpt lat="44.2562417" lon="10.174705"><ele>620.0</ele><time>2026-04-19T13:21:33.968Z</time></trkpt><trkpt lat="44.2562167" lon="10.1745683"><ele>620.0</ele><time>2026-04-19T13:21:34.968Z</time></trkpt><trkpt lat="44.2561917" lon="10.1744417"><ele>620.0</ele><time>2026-04-19T13:21:35.968Z</time></trkpt><trkpt lat="44.2561883" lon="10.1743133"><ele>620.0</ele><time>2026-04-19T13:21:36.969Z</time></trkpt><trkpt lat="44.25619" lon="10.17418"><ele>620.0</ele><time>2026-04-19T13:21:37.968Z</time></trkpt><trkpt lat="44.2562233" lon="10.1740367"><ele>620.0</ele><time>2026-04-19T13:21:38.968Z</time></trkpt><trkpt lat="44.256295" lon="10.1739083"><ele>620.0</ele><time>2026-04-19T13:21:39.968Z</time></trkpt><trkpt lat="44.2563767" lon="10.1737517"><ele>626.0</ele><time>2026-04-19T13:21:40.968Z</time></trkpt><trkpt lat="44.2564717" lon="10.1735667"><ele>632.0</ele><time>2026-04-19T13:21:41.968Z</time></trkpt><trkpt lat="44.2565583" lon="10.1734083"><ele>638.0</ele><time>2026-04-19T13:21:42.968Z</time></trkpt><trkpt lat="44.2566383" lon="10.173255"><ele>644.0</ele><time>2026-04-19T13:21:43.968Z</time></trkpt><trkpt lat="44.2567133" lon="10.17311"><ele>644.0</ele><time>2026-04-19T13:21:44.968Z</time></trkpt><trkpt lat="44.256775" lon="10.1729467"><ele>644.0</ele><time>2026-04-19T13:21:45.968Z</time></trkpt><trkpt lat="44.25684" lon="10.1727817"><ele>644.0</ele><time>2026-04-19T13:21:46.968Z</time></trkpt><trkpt lat="44.2569183" lon="10.1726283"><ele>644.0</ele><time>2026-04-19T13:21:47.968Z</time></trkpt><trkpt lat="44.25699" lon="10.1724867"><ele>643.0</ele><time>2026-04-19T13:21:48.968Z</time></trkpt><trkpt lat="44.25707" lon="10.17235"><ele>642.0</ele><time>2026-04-19T13:21:49.968Z</time></trkpt><trkpt lat="44.2571567" lon="10.1722317"><ele>641.0</ele><time>2026-04-19T13:21:50.968Z</time></trkpt><trkpt lat="44.257255" lon="10.1721367"><ele>640.0</ele><time>2026-04-19T13:21:51.968Z</time></trkpt><trkpt lat="44.2573533" lon="10.172075"><ele>640.0</ele><time>2026-04-19T13:21:52.969Z</time></trkpt><trkpt lat="44.257455" lon="10.1720383"><ele>640.0</ele><time>2026-04-19T13:21:53.968Z</time></trkpt><trkpt lat="44.2575567" lon="10.17204"><ele>640.0</ele><time>2026-04-19T13:21:54.968Z</time></trkpt><trkpt lat="44.2576583" lon="10.17206"><ele>640.0</ele><time>2026-04-19T13:21:55.968Z</time></trkpt><trkpt lat="44.25774" lon="10.17212"><ele>640.0</ele><time>2026-04-19T13:21:56.968Z</time></trkpt><trkpt lat="44.257825" lon="10.1721833"><ele>640.0</ele><time>2026-04-19T13:21:57.968Z</time></trkpt><trkpt lat="44.2579117" lon="10.172245"><ele>640.0</ele><time>2026-04-19T13:21:58.969Z</time></trkpt><trkpt lat="44.257995" lon="10.1722867"><ele>640.0</ele><time>2026-04-19T13:21:59.968Z</time></trkpt><trkpt lat="44.2580717" lon="10.17232"><ele>640.0</ele><time>2026-04-19T13:22:00.968Z</time></trkpt><trkpt lat="44.2581467" lon="10.1723483"><ele>640.0</ele><time>2026-04-19T13:22:01.968Z</time></trkpt><trkpt lat="44.2582117" lon="10.17236"><ele>640.0</ele><time>2026-04-19T13:22:02.968Z</time></trkpt><trkpt lat="44.25833" lon="10.1723667"><ele>643.4</ele><time>2026-04-19T13:22:04.968Z</time></trkpt><trkpt lat="44.25838" lon="10.17248"><ele>646.8</ele><time>2026-04-19T13:22:06.968Z</time></trkpt><trkpt lat="44.2582867" lon="10.1725867"><ele>650.2</ele><time>2026-04-19T13:22:08.968Z</time></trkpt><trkpt lat="44.2581917" lon="10.1725933"><ele>653.6</ele><time>2026-04-19T13:22:09.968Z</time></trkpt><trkpt lat="44.2580817" lon="10.1725783"><ele>657.0</ele><time>2026-04-19T13:22:10.968Z</time></trkpt><trkpt lat="44.2579517" lon="10.1725533"><ele>657.0</ele><time>2026-04-19T13:22:11.968Z</time></trkpt><trkpt lat="44.257835" lon="10.1725433"><ele>657.0</ele><time>2026-04-19T13:22:12.968Z</time></trkpt><trkpt lat="44.2577267" lon="10.172545"><ele>657.0</ele><time>2026-04-19T13:22:13.968Z</time></trkpt><trkpt lat="44.2576267" lon="10.1725783"><ele>657.0</ele><time>2026-04-19T13:22:14.968Z</time></trkpt><trkpt lat="44.2575417" lon="10.172645"><ele>657.0</ele><time>2026-04-19T13:22:15.968Z</time></trkpt><trkpt lat="44.257485" lon="10.1727483"><ele>657.0</ele><time>2026-04-19T13:22:16.968Z</time></trkpt><trkpt lat="44.257455" lon="10.1728583"><ele>657.0</ele><time>2026-04-19T13:22:17.968Z</time></trkpt><trkpt lat="44.2574517" lon="10.1729817"><ele>657.0</ele><time>2026-04-19T13:22:18.968Z</time></trkpt><trkpt lat="44.2574767" lon="10.1731183"><ele>657.0</ele><time>2026-04-19T13:22:19.968Z</time></trkpt><trkpt lat="44.2575133" lon="10.1732683"><ele>657.0</ele><time>2026-04-19T13:22:20.968Z</time></trkpt><trkpt lat="44.2575633" lon="10.1734317"><ele>659.75</ele><time>2026-04-19T13:22:21.968Z</time></trkpt><trkpt lat="44.2576033" lon="10.17361"><ele>662.5</ele><time>2026-04-19T13:22:22.968Z</time></trkpt><trkpt lat="44.25765" lon="10.1737967"><ele>665.25</ele><time>2026-04-19T13:22:23.968Z</time></trkpt><trkpt lat="44.2576817" lon="10.1739883"><ele>668.0</ele><time>2026-04-19T13:22:24.968Z</time></trkpt><trkpt lat="44.2577" lon="10.17418"><ele>669.5</ele><time>2026-04-19T13:22:25.968Z</time></trkpt><trkpt lat="44.2577" lon="10.17436"><ele>671.0</ele><time>2026-04-19T13:22:26.968Z</time></trkpt><trkpt lat="44.2576917" lon="10.1745333"><ele>672.5</ele><time>2026-04-19T13:22:27.968Z</time></trkpt><trkpt lat="44.2576517" lon="10.17468"><ele>674.0</ele><time>2026-04-19T13:22:28.968Z</time></trkpt><trkpt lat="44.2575983" lon="10.174805"><ele>674.8333333333333</ele><time>2026-04-19T13:22:29.968Z</time></trkpt><trkpt lat="44.2575517" lon="10.1749167"><ele>675.6666666666666</ele><time>2026-04-19T13:22:30.968Z</time></trkpt><trkpt lat="44.257525" lon="10.1750283"><ele>676.5</ele><time>2026-04-19T13:22:31.968Z</time></trkpt><trkpt lat="44.2574983" lon="10.175135"><ele>677.3333333333334</ele><time>2026-04-19T13:22:32.968Z</time></trkpt><trkpt lat="44.2575117" lon="10.1752483"><ele>678.1666666666667</ele><time>2026-04-19T13:22:33.968Z</time></trkpt><trkpt lat="44.2575567" lon="10.1753483"><ele>679.0</ele><time>2026-04-19T13:22:34.968Z</time></trkpt><trkpt lat="44.2576467" lon="10.17545"><ele>679.0</ele><time>2026-04-19T13:22:35.968Z</time></trkpt><trkpt lat="44.257745" lon="10.1755583"><ele>679.0</ele><time>2026-04-19T13:22:36.968Z</time></trkpt><trkpt lat="44.2578283" lon="10.1756767"><ele>679.0</ele><time>2026-04-19T13:22:37.968Z</time></trkpt><trkpt lat="44.2579017" lon="10.1758067"><ele>679.0</ele><time>2026-04-19T13:22:38.968Z</time></trkpt><trkpt lat="44.2579683" lon="10.1759283"><ele>678.25</ele><time>2026-04-19T13:22:39.968Z</time></trkpt><trkpt lat="44.2580567" lon="10.1760517"><ele>677.5</ele><time>2026-04-19T13:22:40.968Z</time></trkpt><trkpt lat="44.2581717" lon="10.1761767"><ele>676.75</ele><time>2026-04-19T13:22:41.969Z</time></trkpt><trkpt lat="44.2583017" lon="10.1763067"><ele>676.0</ele><time>2026-04-19T13:22:42.968Z</time></trkpt><trkpt lat="44.2584367" lon="10.1764583"><ele>678.6666666666667</ele><time>2026-04-19T13:22:43.968Z</time></trkpt><trkpt lat="44.25858" lon="10.1766167"><ele>681.3333333333334</ele><time>2026-04-19T13:22:44.968Z</time></trkpt><trkpt lat="44.2587017" lon="10.176795"><ele>684.0</ele><time>2026-04-19T13:22:45.968Z</time></trkpt><trkpt lat="44.2588033" lon="10.1769217"><ele>684.0</ele><time>2026-04-19T13:22:46.968Z</time></trkpt><trkpt lat="44.2588683" lon="10.1770317"><ele>684.0</ele><time>2026-04-19T13:22:47.968Z</time></trkpt><trkpt lat="44.2589167" lon="10.1771367"><ele>684.0</ele><time>2026-04-19T13:22:48.968Z</time></trkpt><trkpt lat="44.2589483" lon="10.17726"><ele>684.0</ele><time>2026-04-19T13:22:49.968Z</time></trkpt><trkpt lat="44.2589883" lon="10.17738"><ele>684.0</ele><time>2026-04-19T13:22:50.968Z</time></trkpt><trkpt lat="44.2590417" lon="10.1775033"><ele>691.5</ele><time>2026-04-19T13:22:51.968Z</time></trkpt><trkpt lat="44.25912" lon="10.177625"><ele>699.0</ele><time>2026-04-19T13:22:52.968Z</time></trkpt><trkpt lat="44.2592417" lon="10.17775"><ele>706.5</ele><time>2026-04-19T13:22:53.968Z</time></trkpt><trkpt lat="44.2593667" lon="10.17787"><ele>714.0</ele><time>2026-04-19T13:22:54.968Z</time></trkpt><trkpt lat="44.259485" lon="10.1779867"><ele>714.0</ele><time>2026-04-19T13:22:55.968Z</time></trkpt><trkpt lat="44.25959" lon="10.1781217"><ele>714.0</ele><time>2026-04-19T13:22:56.968Z</time></trkpt><trkpt lat="44.2596833" lon="10.1782667"><ele>714.0</ele><time>2026-04-19T13:22:57.968Z</time></trkpt><trkpt lat="44.259735" lon="10.1784217"><ele>714.0</ele><time>2026-04-19T13:22:58.968Z</time></trkpt><trkpt lat="44.259755" lon="10.1785767"><ele>710.6666666666666</ele><time>2026-04-19T13:22:59.968Z</time></trkpt><trkpt lat="44.25974" lon="10.17872"><ele>707.3333333333334</ele><time>2026-04-19T13:23:00.968Z</time></trkpt><trkpt lat="44.259685" lon="10.1788267"><ele>704.0</ele><time>2026-04-19T13:23:01.968Z</time></trkpt><trkpt lat="44.2596317" lon="10.17889"><ele>700.6666666666667</ele><time>2026-04-19T13:23:02.969Z</time></trkpt><trkpt lat="44.259625" lon="10.1789783"><ele>697.3333333333334</ele><time>2026-04-19T13:23:04.968Z</time></trkpt><trkpt lat="44.2597083" lon="10.17898"><ele>694.0</ele><time>2026-04-19T13:23:06.968Z</time></trkpt><trkpt lat="44.2597517" lon="10.17891"><ele>698.0</ele><time>2026-04-19T13:23:07.968Z</time></trkpt><trkpt lat="44.259795" lon="10.1787967"><ele>702.0</ele><time>2026-04-19T13:23:08.968Z</time></trkpt><trkpt lat="44.2598367" lon="10.1786667"><ele>706.0</ele><time>2026-04-19T13:23:09.968Z</time></trkpt><trkpt lat="44.2598433" lon="10.1785017"><ele>710.0</ele><time>2026-04-19T13:23:10.968Z</time></trkpt><trkpt lat="44.2598217" lon="10.1783267"><ele>714.0</ele><time>2026-04-19T13:23:11.968Z</time></trkpt><trkpt lat="44.2597833" lon="10.1781517"><ele>714.0</ele><time>2026-04-19T13:23:12.968Z</time></trkpt><trkpt lat="44.2597183" lon="10.1779717"><ele>714.0</ele><time>2026-04-19T13:23:13.968Z</time></trkpt><trkpt lat="44.2596233" lon="10.1778017"><ele>714.0</ele><time>2026-04-19T13:23:14.968Z</time></trkpt><trkpt lat="44.2595167" lon="10.1776417"><ele>714.0</ele><time>2026-04-19T13:23:15.968Z</time></trkpt><trkpt lat="44.2594283" lon="10.1774983"><ele>714.0</ele><time>2026-04-19T13:23:16.968Z</time></trkpt><trkpt lat="44.2593717" lon="10.1773467"><ele>714.0</ele><time>2026-04-19T13:23:17.968Z</time></trkpt><trkpt lat="44.25934" lon="10.1771833"><ele>714.0</ele><time>2026-04-19T13:23:18.968Z</time></trkpt><trkpt lat="44.2593067" lon="10.177015"><ele>718.5</ele><time>2026-04-19T13:23:19.968Z</time></trkpt><trkpt lat="44.2592767" lon="10.1768483"><ele>723.0</ele><time>2026-04-19T13:23:20.968Z</time></trkpt><trkpt lat="44.2592067" lon="10.1766833"><ele>727.5</ele><time>2026-04-19T13:23:21.969Z</time></trkpt><trkpt lat="44.259105" lon="10.17652"><ele>732.0</ele><time>2026-04-19T13:23:22.968Z</time></trkpt><trkpt lat="44.258995" lon="10.1763433"><ele>728.25</ele><time>2026-04-19T13:23:23.968Z</time></trkpt><trkpt lat="44.2588967" lon="10.1761783"><ele>724.5</ele><time>2026-04-19T13:23:24.968Z</time></trkpt><trkpt lat="44.2587917" lon="10.1760233"><ele>720.75</ele><time>2026-04-19T13:23:25.968Z</time></trkpt><trkpt lat="44.2586967" lon="10.1758833"><ele>717.0</ele><time>2026-04-19T13:23:26.968Z</time></trkpt><trkpt lat="44.25861" lon="10.1757533"><ele>718.25</ele><time>2026-04-19T13:23:27.968Z</time></trkpt><trkpt lat="44.2585483" lon="10.175605"><ele>719.5</ele><time>2026-04-19T13:23:28.968Z</time></trkpt><trkpt lat="44.258535" lon="10.175415"><ele>720.75</ele><time>2026-04-19T13:23:29.968Z</time></trkpt><trkpt lat="44.258525" lon="10.17522"><ele>722.0</ele><time>2026-04-19T13:23:30.968Z</time></trkpt><trkpt lat="44.25853" lon="10.1750283"><ele>719.75</ele><time>2026-04-19T13:23:31.968Z</time></trkpt><trkpt lat="44.2585417" lon="10.1748383"><ele>717.5</ele><time>2026-04-19T13:23:32.968Z</time></trkpt><trkpt lat="44.2585633" lon="10.174675"><ele>715.25</ele><time>2026-04-19T13:23:33.968Z</time></trkpt><trkpt lat="44.2585917" lon="10.1745383"><ele>713.0</ele><time>2026-04-19T13:23:34.968Z</time></trkpt><trkpt lat="44.2586483" lon="10.1744367"><ele>713.0</ele><time>2026-04-19T13:23:35.968Z</time></trkpt><trkpt lat="44.258725" lon="10.17437"><ele>713.0</ele><time>2026-04-19T13:23:36.968Z</time></trkpt><trkpt lat="44.25883" lon="10.1743467"><ele>713.0</ele><time>2026-04-19T13:23:37.968Z</time></trkpt><trkpt lat="44.2589567" lon="10.17436"><ele>713.0</ele><time>2026-04-19T13:23:38.968Z</time></trkpt><trkpt lat="44.2590983" lon="10.1744383"><ele>717.0</ele><time>2026-04-19T13:23:39.968Z</time></trkpt><trkpt lat="44.2592167" lon="10.1745217"><ele>721.0</ele><time>2026-04-19T13:23:40.968Z</time></trkpt><trkpt lat="44.25933" lon="10.1745917"><ele>725.0</ele><time>2026-04-19T13:23:41.968Z</time></trkpt><trkpt lat="44.2594433" lon="10.174645"><ele>729.0</ele><time>2026-04-19T13:23:42.968Z</time></trkpt><trkpt lat="44.2595533" lon="10.1746867"><ele>729.0</ele><time>2026-04-19T13:23:43.968Z</time></trkpt><trkpt lat="44.25966" lon="10.1747267"><ele>729.0</ele><time>2026-04-19T13:23:44.968Z</time></trkpt><trkpt lat="44.25977" lon="10.1747483"><ele>729.0</ele><time>2026-04-19T13:23:45.968Z</time></trkpt><trkpt lat="44.2598783" lon="10.1747533"><ele>729.0</ele><time>2026-04-19T13:23:46.968Z</time></trkpt><trkpt lat="44.26" lon="10.174765"><ele>728.0</ele><time>2026-04-19T13:23:47.968Z</time></trkpt><trkpt lat="44.2601317" lon="10.1747733"><ele>727.0</ele><time>2026-04-19T13:23:48.968Z</time></trkpt><trkpt lat="44.260275" lon="10.1747867"><ele>726.0</ele><time>2026-04-19T13:23:49.968Z</time></trkpt><trkpt lat="44.26042" lon="10.1748067"><ele>725.0</ele><time>2026-04-19T13:23:50.968Z</time></trkpt><trkpt lat="44.2605633" lon="10.1748317"><ele>736.0</ele><time>2026-04-19T13:23:51.968Z</time></trkpt><trkpt lat="44.2607067" lon="10.1748617"><ele>747.0</ele><time>2026-04-19T13:23:52.968Z</time></trkpt><trkpt lat="44.2608367" lon="10.1748867"><ele>758.0</ele><time>2026-04-19T13:23:53.968Z</time></trkpt><trkpt lat="44.26096" lon="10.174915"><ele>769.0</ele><time>2026-04-19T13:23:54.968Z</time></trkpt><trkpt lat="44.261075" lon="10.174945"><ele>769.0</ele><time>2026-04-19T13:23:55.968Z</time></trkpt><trkpt lat="44.2611867" lon="10.17497"><ele>769.0</ele><time>2026-04-19T13:23:56.968Z</time></trkpt><trkpt lat="44.2612983" lon="10.1749817"><ele>769.0</ele><time>2026-04-19T13:23:57.968Z</time></trkpt><trkpt lat="44.2614033" lon="10.1749433"><ele>769.0</ele><time>2026-04-19T13:23:58.968Z</time></trkpt><trkpt lat="44.261505" lon="10.174875"><ele>769.0</ele><time>2026-04-19T13:23:59.969Z</time></trkpt><trkpt lat="44.2616133" lon="10.1748117"><ele>766.5</ele><time>2026-04-19T13:24:00.968Z</time></trkpt><trkpt lat="44.26173" lon="10.17476"><ele>764.0</ele><time>2026-04-19T13:24:01.968Z</time></trkpt><trkpt lat="44.2618467" lon="10.174725"><ele>761.5</ele><time>2026-04-19T13:24:02.968Z</time></trkpt><trkpt lat="44.2619717" lon="10.17468"><ele>759.0</ele><time>2026-04-19T13:24:03.968Z</time></trkpt><trkpt lat="44.262075" lon="10.1746083"><ele>759.0</ele><time>2026-04-19T13:24:04.968Z</time></trkpt><trkpt lat="44.2621733" lon="10.1745333"><ele>759.0</ele><time>2026-04-19T13:24:05.968Z</time></trkpt><trkpt lat="44.262245" lon="10.1744233"><ele>759.0</ele><time>2026-04-19T13:24:06.968Z</time></trkpt><trkpt lat="44.2622683" lon="10.174265"><ele>759.0</ele><time>2026-04-19T13:24:07.968Z</time></trkpt><trkpt lat="44.2622683" lon="10.1740883"><ele>763.75</ele><time>2026-04-19T13:24:08.968Z</time></trkpt><trkpt lat="44.2622317" lon="10.1739267"><ele>768.5</ele><time>2026-04-19T13:24:09.968Z</time></trkpt><trkpt lat="44.2621767" lon="10.17377"><ele>773.25</ele><time>2026-04-19T13:24:10.968Z</time></trkpt><trkpt lat="44.26209" lon="10.173595"><ele>778.0</ele><time>2026-04-19T13:24:11.968Z</time></trkpt><trkpt lat="44.2619933" lon="10.17342"><ele>778.0</ele><time>2026-04-19T13:24:12.968Z</time></trkpt><trkpt lat="44.2618933" lon="10.1732467"><ele>778.0</ele><time>2026-04-19T13:24:13.968Z</time></trkpt><trkpt lat="44.2618" lon="10.1730867"><ele>778.0</ele><time>2026-04-19T13:24:14.968Z</time></trkpt><trkpt lat="44.2617083" lon="10.1729367"><ele>778.0</ele><time>2026-04-19T13:24:15.968Z</time></trkpt><trkpt lat="44.26161" lon="10.17278"><ele>781.75</ele><time>2026-04-19T13:24:16.968Z</time></trkpt><trkpt lat="44.26153" lon="10.17263"><ele>785.5</ele><time>2026-04-19T13:24:17.968Z</time></trkpt><trkpt lat="44.2614583" lon="10.172475"><ele>789.25</ele><time>2026-04-19T13:24:18.968Z</time></trkpt><trkpt lat="44.261385" lon="10.1723283"><ele>793.0</ele><time>2026-04-19T13:24:19.968Z</time></trkpt><trkpt lat="44.2613167" lon="10.1721867"><ele>793.0</ele><time>2026-04-19T13:24:20.968Z</time></trkpt><trkpt lat="44.2612433" lon="10.172055"><ele>793.0</ele><time>2026-04-19T13:24:21.968Z</time></trkpt><trkpt lat="44.2611533" lon="10.1719483"><ele>793.0</ele><time>2026-04-19T13:24:22.968Z</time></trkpt><trkpt lat="44.2610517" lon="10.1718633"><ele>793.0</ele><time>2026-04-19T13:24:23.968Z</time></trkpt><trkpt lat="44.26095" lon="10.1717817"><ele>793.0</ele><time>2026-04-19T13:24:24.968Z</time></trkpt><trkpt lat="44.260855" lon="10.17168"><ele>793.0</ele><time>2026-04-19T13:24:25.968Z</time></trkpt><trkpt lat="44.2607817" lon="10.171515"><ele>793.0</ele><time>2026-04-19T13:24:26.968Z</time></trkpt><trkpt lat="44.26071" lon="10.1713417"><ele>793.0</ele><time>2026-04-19T13:24:27.968Z</time></trkpt><trkpt lat="44.2606383" lon="10.1711517"><ele>788.0</ele><time>2026-04-19T13:24:28.968Z</time></trkpt><trkpt lat="44.2605583" lon="10.17098"><ele>783.0</ele><time>2026-04-19T13:24:29.968Z</time></trkpt><trkpt lat="44.2604867" lon="10.1708233"><ele>778.0</ele><time>2026-04-19T13:24:30.968Z</time></trkpt><trkpt lat="44.2604217" lon="10.1706867"><ele>773.0</ele><time>2026-04-19T13:24:31.968Z</time></trkpt><trkpt lat="44.2603733" lon="10.17057"><ele>773.0</ele><time>2026-04-19T13:24:32.968Z</time></trkpt><trkpt lat="44.2603583" lon="10.1704233"><ele>773.0</ele><time>2026-04-19T13:24:33.968Z</time></trkpt><trkpt lat="44.2603667" lon="10.17028"><ele>773.0</ele><time>2026-04-19T13:24:34.968Z</time></trkpt><trkpt lat="44.2604167" lon="10.1701283"><ele>773.0</ele><time>2026-04-19T13:24:35.968Z</time></trkpt><trkpt lat="44.260495" lon="10.1699983"><ele>773.0</ele><time>2026-04-19T13:24:36.968Z</time></trkpt><trkpt lat="44.260585" lon="10.1698767"><ele>773.0</ele><time>2026-04-19T13:24:37.968Z</time></trkpt><trkpt lat="44.2606633" lon="10.1697533"><ele>773.0</ele><time>2026-04-19T13:24:38.968Z</time></trkpt><trkpt lat="44.26071" lon="10.1696067"><ele>773.0</ele><time>2026-04-19T13:24:39.968Z</time></trkpt><trkpt lat="44.2607283" lon="10.1694483"><ele>776.5</ele><time>2026-04-19T13:24:40.968Z</time></trkpt><trkpt lat="44.2606967" lon="10.1692867"><ele>780.0</ele><time>2026-04-19T13:24:41.968Z</time></trkpt><trkpt lat="44.2606383" lon="10.1691167"><ele>783.5</ele><time>2026-04-19T13:24:42.968Z</time></trkpt><trkpt lat="44.2605717" lon="10.1689467"><ele>787.0</ele><time>2026-04-19T13:24:43.968Z</time></trkpt><trkpt lat="44.260505" lon="10.1687667"><ele>787.0</ele><time>2026-04-19T13:24:44.968Z</time></trkpt><trkpt lat="44.2604583" lon="10.1685883"><ele>787.0</ele><time>2026-04-19T13:24:45.968Z</time></trkpt><trkpt lat="44.2604333" lon="10.1684067"><ele>787.0</ele><time>2026-04-19T13:24:46.968Z</time></trkpt><trkpt lat="44.2604333" lon="10.1682117"><ele>787.0</ele><time>2026-04-19T13:24:47.968Z</time></trkpt><trkpt lat="44.2604683" lon="10.1680083"><ele>786.0</ele><time>2026-04-19T13:24:48.968Z</time></trkpt><trkpt lat="44.26053" lon="10.1677967"><ele>785.0</ele><time>2026-04-19T13:24:49.968Z</time></trkpt><trkpt lat="44.2606" lon="10.167585"><ele>784.0</ele><time>2026-04-19T13:24:50.968Z</time></trkpt><trkpt lat="44.2606483" lon="10.16739"><ele>789.25</ele><time>2026-04-19T13:24:51.968Z</time></trkpt><trkpt lat="44.2606767" lon="10.1672083"><ele>794.5</ele><time>2026-04-19T13:24:52.968Z</time></trkpt><trkpt lat="44.26069" lon="10.1670017"><ele>799.75</ele><time>2026-04-19T13:24:53.969Z</time></trkpt><trkpt lat="44.260665" lon="10.16681"><ele>805.0</ele><time>2026-04-19T13:24:54.968Z</time></trkpt><trkpt lat="44.2606" lon="10.16662"><ele>808.0</ele><time>2026-04-19T13:24:55.968Z</time></trkpt><trkpt lat="44.2614583" lon="10.172475"><ele>804.25</ele><time>2026-04-19T13:24:18.968Z</time></trkpt><trkpt lat="44.261385" lon="10.1723283"><ele>800.5</ele><time>2026-04-19T13:24:19.968Z</time></trkpt><trkpt lat="44.2613167" lon="10.1721867"><ele>796.75</ele><time>2026-04-19T13:24:20.968Z</time></trkpt><trkpt lat="44.2612433" lon="10.172055"><ele>793.0</ele><time>2026-04-19T13:24:21.968Z</time></trkpt><trkpt lat="44.2611533" lon="10.1719483"><ele>793.0</ele><time>2026-04-19T13:24:22.968Z</time></trkpt><trkpt lat="44.2610517" lon="10.1718633"><ele>793.0</ele><time>2026-04-19T13:24:23.968Z</time></trkpt><trkpt lat="44.26095" lon="10.1717817"><ele>793.0</ele><time>2026-04-19T13:24:24.968Z</time></trkpt><trkpt lat="44.260855" lon="10.17168"><ele>793.0</ele><time>2026-04-19T13:24:25.968Z</time></trkpt><trkpt lat="44.2607817" lon="10.171515"><ele>786.5</ele><time>2026-04-19T13:24:26.968Z</time></trkpt><trkpt lat="44.26071" lon="10.1713417"><ele>780.0</ele><time>2026-04-19T13:24:27.968Z</time></trkpt><trkpt lat="44.2606383" lon="10.1711517"><ele>773.5</ele><time>2026-04-19T13:24:28.968Z</time></trkpt><trkpt lat="44.2605583" lon="10.17098"><ele>767.0</ele><time>2026-04-19T13:24:29.968Z</time></trkpt><trkpt lat="44.2604867" lon="10.1708233"><ele>768.2</ele><time>2026-04-19T13:24:30.968Z</time></trkpt><trkpt lat="44.2604217" lon="10.1706867"><ele>769.4000000000001</ele><time>2026-04-19T13:24:31.968Z</time></trkpt><trkpt lat="44.2603733" lon="10.17057"><ele>770.5999999999999</ele><time>2026-04-19T13:24:32.968Z</time></trkpt><trkpt lat="44.2603583" lon="10.1704233"><ele>771.8</ele><time>2026-04-19T13:24:33.968Z</time></trkpt><trkpt lat="44.2603667" lon="10.17028"><ele>773.0</ele><time>2026-04-19T13:24:34.968Z</time></trkpt><trkpt lat="44.2604167" lon="10.1701283"><ele>773.0</ele><time>2026-04-19T13:24:35.968Z</time></trkpt><trkpt lat="44.260495" lon="10.1699983"><ele>773.0</ele><time>2026-04-19T13:24:36.968Z</time></trkpt><trkpt lat="44.260585" lon="10.1698767"><ele>773.0</ele><time>2026-04-19T13:24:37.968Z</time></trkpt><trkpt lat="44.2606633" lon="10.1697533"><ele>773.0</ele><time>2026-04-19T13:24:38.968Z</time></trkpt><trkpt lat="44.26071" lon="10.1696067"><ele>776.5</ele><time>2026-04-19T13:24:39.968Z</time></trkpt><trkpt lat="44.2607283" lon="10.1694483"><ele>780.0</ele><time>2026-04-19T13:24:40.968Z</time></trkpt><trkpt lat="44.2606967" lon="10.1692867"><ele>783.5</ele><time>2026-04-19T13:24:41.968Z</time></trkpt><trkpt lat="44.2606383" lon="10.1691167"><ele>787.0</ele><time>2026-04-19T13:24:42.968Z</time></trkpt><trkpt lat="44.2605717" lon="10.1689467"><ele>787.0</ele><time>2026-04-19T13:24:43.968Z</time></trkpt><trkpt lat="44.260505" lon="10.1687667"><ele>787.0</ele><time>2026-04-19T13:24:44.968Z</time></trkpt><trkpt lat="44.2604583" lon="10.1685883"><ele>787.0</ele><time>2026-04-19T13:24:45.968Z</time></trkpt><trkpt lat="44.2604333" lon="10.1684067"><ele>787.0</ele><time>2026-04-19T13:24:46.968Z</time></trkpt><trkpt lat="44.2604333" lon="10.1682117"><ele>786.0</ele><time>2026-04-19T13:24:47.968Z</time></trkpt><trkpt lat="44.2604683" lon="10.1680083"><ele>785.0</ele><time>2026-04-19T13:24:48.968Z</time></trkpt><trkpt lat="44.26053" lon="10.1677967"><ele>784.0</ele><time>2026-04-19T13:24:49.968Z</time></trkpt><trkpt lat="44.2606" lon="10.167585"><ele>797.0</ele><time>2026-04-19T13:24:50.968Z</time></trkpt><trkpt lat="44.2606483" lon="10.16739"><ele>810.0</ele><time>2026-04-19T13:24:51.968Z</time></trkpt><trkpt lat="44.2606767" lon="10.1672083"><ele>823.0</ele><time>2026-04-19T13:24:52.968Z</time></trkpt><trkpt lat="44.26069" lon="10.1670017"><ele>836.0</ele><time>2026-04-19T13:24:53.969Z</time></trkpt><trkpt lat="44.260665" lon="10.16681"><ele>831.3333333333334</ele><time>2026-04-19T13:24:54.968Z</time></trkpt><trkpt lat="44.2606" lon="10.16662"><ele>826.6666666666667</ele><time>2026-04-19T13:24:55.968Z</time></trkpt><trkpt lat="44.2605167" lon="10.1664383"><ele>822.0</ele><time>2026-04-19T13:24:56.968Z</time></trkpt><trkpt lat="44.2604167" lon="10.16629"><ele>822.0</ele><time>2026-04-19T13:24:57.968Z</time></trkpt><trkpt lat="44.2603333" lon="10.1661733"><ele>822.0</ele><time>2026-04-19T13:24:58.968Z</time></trkpt><trkpt lat="44.2602667" lon="10.1660717"><ele>822.0</ele><time>2026-04-19T13:24:59.968Z</time></trkpt><trkpt lat="44.2602183" lon="10.1659767"><ele>822.0</ele><time>2026-04-19T13:25:00.968Z</time></trkpt><trkpt lat="44.2601867" lon="10.16588"><ele>822.0</ele><time>2026-04-19T13:25:01.968Z</time></trkpt><trkpt lat="44.260155" lon="10.1657283"><ele>822.0</ele><time>2026-04-19T13:25:03.968Z</time></trkpt><trkpt lat="44.26024" lon="10.1656467"><ele>822.0</ele><time>2026-04-19T13:25:05.968Z</time></trkpt><trkpt lat="44.2603117" lon="10.165665"><ele>822.0</ele><time>2026-04-19T13:25:06.968Z</time></trkpt><trkpt lat="44.2603933" lon="10.1657367"><ele>822.0</ele><time>2026-04-19T13:25:07.968Z</time></trkpt><trkpt lat="44.2604683" lon="10.165845"><ele>822.0</ele><time>2026-04-19T13:25:08.968Z</time></trkpt><trkpt lat="44.2605367" lon="10.1659817"><ele>822.0</ele><time>2026-04-19T13:25:09.968Z</time></trkpt><trkpt lat="44.2606067" lon="10.1661283"><ele>822.0</ele><time>2026-04-19T13:25:10.968Z</time></trkpt><trkpt lat="44.2606983" lon="10.1662617"><ele>822.0</ele><time>2026-04-19T13:25:11.968Z</time></trkpt><trkpt lat="44.26081" lon="10.1663733"><ele>822.0</ele><time>2026-04-19T13:25:12.968Z</time></trkpt><trkpt lat="44.2609467" lon="10.1664717"><ele>826.6666666666667</ele><time>2026-04-19T13:25:13.968Z</time></trkpt><trkpt lat="44.2611067" lon="10.16657"><ele>831.3333333333334</ele><time>2026-04-19T13:25:14.968Z</time></trkpt><trkpt lat="44.2612667" lon="10.1666833"><ele>836.0</ele><time>2026-04-19T13:25:15.968Z</time></trkpt><trkpt lat="44.26142" lon="10.1668117"><ele>837.3333333333334</ele><time>2026-04-19T13:25:16.968Z</time></trkpt><trkpt lat="44.2615733" lon="10.1669367"><ele>838.6666666666667</ele><time>2026-04-19T13:25:17.968Z</time></trkpt><trkpt lat="44.2617333" lon="10.1670617"><ele>840.0</ele><time>2026-04-19T13:25:18.968Z</time></trkpt><trkpt lat="44.2618967" lon="10.167185"><ele>840.0</ele><time>2026-04-19T13:25:19.969Z</time></trkpt><trkpt lat="44.2620483" lon="10.167305"><ele>840.0</ele><time>2026-04-19T13:25:20.968Z</time></trkpt><trkpt lat="44.2621817" lon="10.1674283"><ele>840.0</ele><time>2026-04-19T13:25:21.968Z</time></trkpt><trkpt lat="44.262305" lon="10.16755"><ele>844.25</ele><time>2026-04-19T13:25:22.968Z</time></trkpt><trkpt lat="44.2624233" lon="10.1676583"><ele>848.5</ele><time>2026-04-19T13:25:23.968Z</time></trkpt><trkpt lat="44.2625517" lon="10.16776"><ele>852.75</ele><time>2026-04-19T13:25:24.968Z</time></trkpt><trkpt lat="44.26269" lon="10.1678283"><ele>857.0</ele><time>2026-04-19T13:25:25.968Z</time></trkpt><trkpt lat="44.26283" lon="10.167865"><ele>857.0</ele><time>2026-04-19T13:25:26.968Z</time></trkpt><trkpt lat="44.26299" lon="10.16786"><ele>857.0</ele><time>2026-04-19T13:25:27.968Z</time></trkpt><trkpt lat="44.2631533" lon="10.1678333"><ele>857.0</ele><time>2026-04-19T13:25:28.968Z</time></trkpt><trkpt lat="44.2633" lon="10.167785"><ele>857.5</ele><time>2026-04-19T13:25:29.968Z</time></trkpt><trkpt lat="44.2634317" lon="10.167745"><ele>858.0</ele><time>2026-04-19T13:25:30.968Z</time></trkpt><trkpt lat="44.263545" lon="10.1677367"><ele>858.5</ele><time>2026-04-19T13:25:31.968Z</time></trkpt><trkpt lat="44.2636517" lon="10.167755"><ele>859.0</ele><time>2026-04-19T13:25:32.968Z</time></trkpt><trkpt lat="44.2637517" lon="10.1678233"><ele>859.0</ele><time>2026-04-19T13:25:33.968Z</time></trkpt><trkpt lat="44.2638367" lon="10.1679317"><ele>859.0</ele><time>2026-04-19T13:25:34.968Z</time></trkpt><trkpt lat="44.2639167" lon="10.16808"><ele>859.0</ele><time>2026-04-19T13:25:35.969Z</time></trkpt><trkpt lat="44.2639883" lon="10.168245"><ele>859.0</ele><time>2026-04-19T13:25:36.968Z</time></trkpt><trkpt lat="44.2640283" lon="10.168415"><ele>861.3333333333333</ele><time>2026-04-19T13:25:37.968Z</time></trkpt><trkpt lat="44.264055" lon="10.16862"><ele>863.6666666666667</ele><time>2026-04-19T13:25:38.968Z</time></trkpt><trkpt lat="44.26408" lon="10.1688383"><ele>866.0</ele><time>2026-04-19T13:25:39.968Z</time></trkpt><trkpt lat="44.2640833" lon="10.1690533"><ele>868.25</ele><time>2026-04-19T13:25:40.968Z</time></trkpt><trkpt lat="44.2640783" lon="10.1692567"><ele>870.5</ele><time>2026-04-19T13:25:41.968Z</time></trkpt><trkpt lat="44.2640717" lon="10.1694583"><ele>872.75</ele><time>2026-04-19T13:25:42.968Z</time></trkpt><trkpt lat="44.2640733" lon="10.169665"><ele>875.0</ele><time>2026-04-19T13:25:43.968Z</time></trkpt><trkpt lat="44.2640683" lon="10.169875"><ele>876.5</ele><time>2026-04-19T13:25:44.968Z</time></trkpt><trkpt lat="44.2640633" lon="10.17008"><ele>878.0</ele><time>2026-04-19T13:25:45.968Z</time></trkpt><trkpt lat="44.2640583" lon="10.17028"><ele>879.5</ele><time>2026-04-19T13:25:46.968Z</time></trkpt><trkpt lat="44.26407" lon="10.1704867"><ele>881.0</ele><time>2026-04-19T13:25:47.969Z</time></trkpt><trkpt lat="44.264095" lon="10.17071"><ele>884.3333333333334</ele><time>2026-04-19T13:25:48.968Z</time></trkpt><trkpt lat="44.2641533" lon="10.17091"><ele>887.6666666666667</ele><time>2026-04-19T13:25:49.968Z</time></trkpt><trkpt lat="44.26422" lon="10.17112"><ele>891.0</ele><time>2026-04-19T13:25:50.968Z</time></trkpt><trkpt lat="44.2643167" lon="10.1713267"><ele>897.6666666666667</ele><time>2026-04-19T13:25:51.968Z</time></trkpt><trkpt lat="44.264415" lon="10.1715383"><ele>904.3333333333334</ele><time>2026-04-19T13:25:52.968Z</time></trkpt><trkpt lat="44.2645133" lon="10.1717467"><ele>911.0</ele><time>2026-04-19T13:25:53.968Z</time></trkpt><trkpt lat="44.2646083" lon="10.1719417"><ele>911.0</ele><time>2026-04-19T13:25:54.968Z</time></trkpt><trkpt lat="44.264705" lon="10.1721233"><ele>911.0</ele><time>2026-04-19T13:25:55.968Z</time></trkpt><trkpt lat="44.264805" lon="10.17228"><ele>911.0</ele><time>2026-04-19T13:25:56.968Z</time></trkpt><trkpt lat="44.264905" lon="10.1724067"><ele>911.0</ele><time>2026-04-19T13:25:57.968Z</time></trkpt><trkpt lat="44.2649967" lon="10.172535"><ele>909.0</ele><time>2026-04-19T13:25:58.968Z</time></trkpt><trkpt lat="44.2650733" lon="10.1726417"><ele>906.9999999999999</ele><time>2026-04-19T13:25:59.968Z</time></trkpt><trkpt lat="44.2651383" lon="10.1727267"><ele>904.9999999999999</ele><time>2026-04-19T13:26:00.968Z</time></trkpt><trkpt lat="44.26518" lon="10.172825"><ele>903.0</ele><time>2026-04-19T13:26:01.968Z</time></trkpt><trkpt lat="44.26517" lon="10.1729633"><ele>901.0</ele><time>2026-04-19T13:26:02.968Z</time></trkpt><trkpt lat="44.2651467" lon="10.173135"><ele>906.0</ele><time>2026-04-19T13:26:03.968Z</time></trkpt><trkpt lat="44.2651167" lon="10.1733367"><ele>911.0</ele><time>2026-04-19T13:26:04.968Z</time></trkpt><trkpt lat="44.2650967" lon="10.1735533"><ele>916.0</ele><time>2026-04-19T13:26:05.968Z</time></trkpt><trkpt lat="44.2650917" lon="10.17377"><ele>916.0</ele><time>2026-04-19T13:26:06.968Z</time></trkpt><trkpt lat="44.2651083" lon="10.1739933"><ele>916.0</ele><time>2026-04-19T13:26:07.968Z</time></trkpt><trkpt lat="44.265145" lon="10.1742133"><ele>916.0</ele><time>2026-04-19T13:26:08.968Z</time></trkpt><trkpt lat="44.2651733" lon="10.174405"><ele>918.0</ele><time>2026-04-19T13:26:09.968Z</time></trkpt><trkpt lat="44.2652117" lon="10.1745867"><ele>920.0</ele><time>2026-04-19T13:26:10.968Z</time></trkpt><trkpt lat="44.2652417" lon="10.174775"><ele>922.0</ele><time>2026-04-19T13:26:11.968Z</time></trkpt><trkpt lat="44.2652533" lon="10.17497"><ele>924.0</ele><time>2026-04-19T13:26:12.968Z</time></trkpt><trkpt lat="44.2652617" lon="10.1751667"><ele>924.0</ele><time>2026-04-19T13:26:13.968Z</time></trkpt><trkpt lat="44.2652433" lon="10.1753733"><ele>924.0</ele><time>2026-04-19T13:26:14.968Z</time></trkpt><trkpt lat="44.26522" lon="10.175575"><ele>924.0</ele><time>2026-04-19T13:26:15.968Z</time></trkpt><trkpt lat="44.265195" lon="10.1757767"><ele>924.0</ele><time>2026-04-19T13:26:16.968Z</time></trkpt><trkpt lat="44.2651717" lon="10.17598"><ele>924.0</ele><time>2026-04-19T13:26:17.968Z</time></trkpt><trkpt lat="44.2651617" lon="10.17619"><ele>924.0</ele><time>2026-04-19T13:26:18.968Z</time></trkpt><trkpt lat="44.2651533" lon="10.1763933"><ele>924.0</ele><time>2026-04-19T13:26:19.968Z</time></trkpt><trkpt lat="44.2651583" lon="10.176595"><ele>924.0</ele><time>2026-04-19T13:26:20.968Z</time></trkpt><trkpt lat="44.2651783" lon="10.176785"><ele>925.0</ele><time>2026-04-19T13:26:21.968Z</time></trkpt><trkpt lat="44.2651933" lon="10.1769683"><ele>926.0</ele><time>2026-04-19T13:26:22.968Z</time></trkpt><trkpt lat="44.2652233" lon="10.17715"><ele>927.0</ele><time>2026-04-19T13:26:23.968Z</time></trkpt><trkpt lat="44.265255" lon="10.1773183"><ele>928.0</ele><time>2026-04-19T13:26:24.968Z</time></trkpt><trkpt lat="44.2652917" lon="10.177475"><ele>930.0</ele><time>2026-04-19T13:26:25.968Z</time></trkpt><trkpt lat="44.2652983" lon="10.1776267"><ele>932.0</ele><time>2026-04-19T13:26:26.968Z</time></trkpt><trkpt lat="44.2652917" lon="10.1778017"><ele>934.0</ele><time>2026-04-19T13:26:27.968Z</time></trkpt><trkpt lat="44.2652817" lon="10.17799"><ele>936.0</ele><time>2026-04-19T13:26:28.968Z</time></trkpt><trkpt lat="44.26526" lon="10.178185"><ele>939.0</ele><time>2026-04-19T13:26:29.968Z</time></trkpt><trkpt lat="44.2652333" lon="10.1783667"><ele>942.0</ele><time>2026-04-19T13:26:30.968Z</time></trkpt><trkpt lat="44.2652067" lon="10.178525"><ele>945.0</ele><time>2026-04-19T13:26:31.968Z</time></trkpt><trkpt lat="44.265185" lon="10.17868"><ele>948.0</ele><time>2026-04-19T13:26:32.968Z</time></trkpt><trkpt lat="44.26517" lon="10.1788267"><ele>948.0</ele><time>2026-04-19T13:26:33.968Z</time></trkpt><trkpt lat="44.2651883" lon="10.1789633"><ele>948.0</ele><time>2026-04-19T13:26:34.968Z</time></trkpt><trkpt lat="44.265245" lon="10.1790867"><ele>948.0</ele><time>2026-04-19T13:26:35.968Z</time></trkpt><trkpt lat="44.2653333" lon="10.1791667"><ele>948.0</ele><time>2026-04-19T13:26:36.968Z</time></trkpt><trkpt lat="44.26546" lon="10.17919"><ele>948.0</ele><time>2026-04-19T13:26:37.968Z</time></trkpt><trkpt lat="44.265595" lon="10.1791883"><ele>945.0</ele><time>2026-04-19T13:26:38.968Z</time></trkpt><trkpt lat="44.265735" lon="10.17919"><ele>942.0</ele><time>2026-04-19T13:26:39.969Z</time></trkpt><trkpt lat="44.2658883" lon="10.1792083"><ele>939.0</ele><time>2026-04-19T13:26:40.968Z</time></trkpt><trkpt lat="44.2660483" lon="10.1792567"><ele>939.0</ele><time>2026-04-19T13:26:41.968Z</time></trkpt><trkpt lat="44.2661983" lon="10.1793267"><ele>939.0</ele><time>2026-04-19T13:26:42.968Z</time></trkpt><trkpt lat="44.2663383" lon="10.179415"><ele>939.0</ele><time>2026-04-19T13:26:43.968Z</time></trkpt><trkpt lat="44.266475" lon="10.17951"><ele>937.0</ele><time>2026-04-19T13:26:44.968Z</time></trkpt><trkpt lat="44.2665883" lon="10.1795933"><ele>935.0000000000001</ele><time>2026-04-19T13:26:45.968Z</time></trkpt><trkpt lat="44.2666983" lon="10.1796467"><ele>933.0000000000001</ele><time>2026-04-19T13:26:46.968Z</time></trkpt><trkpt lat="44.266795" lon="10.1796767"><ele>931.0</ele><time>2026-04-19T13:26:47.968Z</time></trkpt><trkpt lat="44.2668867" lon="10.1796617"><ele>929.0</ele><time>2026-04-19T13:26:48.968Z</time></trkpt><trkpt lat="44.2669917" lon="10.1796"><ele>929.0</ele><time>2026-04-19T13:26:49.968Z</time></trkpt><trkpt lat="44.2671083" lon="10.1795117"><ele>929.0</ele><time>2026-04-19T13:26:50.968Z</time></trkpt><trkpt lat="44.2672317" lon="10.17945"><ele>929.0</ele><time>2026-04-19T13:26:51.968Z</time></trkpt><trkpt lat="44.267355" lon="10.1794117"><ele>929.0</ele><time>2026-04-19T13:26:52.968Z</time></trkpt><trkpt lat="44.2674717" lon="10.1793983"><ele>929.8000000000001</ele><time>2026-04-19T13:26:53.968Z</time></trkpt><trkpt lat="44.2675783" lon="10.1794283"><ele>930.6000000000001</ele><time>2026-04-19T13:26:54.968Z</time></trkpt><trkpt lat="44.267675" lon="10.1795033"><ele>931.4</ele><time>2026-04-19T13:26:55.968Z</time></trkpt><trkpt lat="44.267755" lon="10.17959"><ele>932.2</ele><time>2026-04-19T13:26:56.968Z</time></trkpt><trkpt lat="44.26784" lon="10.1796633"><ele>933.0</ele><time>2026-04-19T13:26:57.968Z</time></trkpt><trkpt lat="44.2679333" lon="10.1797067"><ele>933.0</ele><time>2026-04-19T13:26:58.968Z</time></trkpt><trkpt lat="44.2680217" lon="10.1796933"><ele>933.0</ele><time>2026-04-19T13:26:59.968Z</time></trkpt><trkpt lat="44.2681083" lon="10.1795983"><ele>933.0</ele><time>2026-04-19T13:27:00.968Z</time></trkpt><trkpt lat="44.2681817" lon="10.179445"><ele>933.0</ele><time>2026-04-19T13:27:01.969Z</time></trkpt><trkpt lat="44.268265" lon="10.1793"><ele>938.25</ele><time>2026-04-19T13:27:02.968Z</time></trkpt><trkpt lat="44.26836" lon="10.1791683"><ele>943.5</ele><time>2026-04-19T13:27:03.968Z</time></trkpt><trkpt lat="44.2684683" lon="10.1790617"><ele>948.75</ele><time>2026-04-19T13:27:04.968Z</time></trkpt><trkpt lat="44.2685817" lon="10.1789617"><ele>954.0</ele><time>2026-04-19T13:27:05.968Z</time></trkpt><trkpt lat="44.2687183" lon="10.1789"><ele>949.25</ele><time>2026-04-19T13:27:06.968Z</time></trkpt><trkpt lat="44.268845" lon="10.1788167"><ele>944.5</ele><time>2026-04-19T13:27:07.968Z</time></trkpt><trkpt lat="44.2689633" lon="10.178735"><ele>939.75</ele><time>2026-04-19T13:27:08.968Z</time></trkpt><trkpt lat="44.2690683" lon="10.1786467"><ele>935.0</ele><time>2026-04-19T13:27:09.968Z</time></trkpt><trkpt lat="44.269165" lon="10.17857"><ele>935.0</ele><time>2026-04-19T13:27:10.968Z</time></trkpt><trkpt lat="44.26929" lon="10.178535"><ele>935.0</ele><time>2026-04-19T13:27:11.968Z</time></trkpt><trkpt lat="44.2694267" lon="10.1785067"><ele>935.0</ele><time>2026-04-19T13:27:12.968Z</time></trkpt><trkpt lat="44.2695767" lon="10.1784667"><ele>935.0</ele><time>2026-04-19T13:27:13.968Z</time></trkpt><trkpt lat="44.2697333" lon="10.1784017"><ele>938.25</ele><time>2026-04-19T13:27:14.968Z</time></trkpt><trkpt lat="44.269885" lon="10.1783317"><ele>941.5</ele><time>2026-04-19T13:27:15.968Z</time></trkpt><trkpt lat="44.2700233" lon="10.178265"><ele>944.75</ele><time>2026-04-19T13:27:16.968Z</time></trkpt><trkpt lat="44.2701417" lon="10.1781867"><ele>948.0</ele><time>2026-04-19T13:27:17.968Z</time></trkpt><trkpt lat="44.270255" lon="10.1781367"><ele>948.0</ele><time>2026-04-19T13:27:18.968Z</time></trkpt><trkpt lat="44.270355" lon="10.1780983"><ele>948.0</ele><time>2026-04-19T13:27:19.968Z</time></trkpt><trkpt lat="44.2704717" lon="10.178145"><ele>948.0</ele><time>2026-04-19T13:27:20.968Z</time></trkpt><trkpt lat="44.270565" lon="10.1782"><ele>948.0</ele><time>2026-04-19T13:27:21.968Z</time></trkpt><trkpt lat="44.2706583" lon="10.1782917"><ele>948.0</ele><time>2026-04-19T13:27:22.968Z</time></trkpt><trkpt lat="44.2707383" lon="10.1784067"><ele>946.5</ele><time>2026-04-19T13:27:23.968Z</time></trkpt><trkpt lat="44.27081" lon="10.1785767"><ele>945.0</ele><time>2026-04-19T13:27:24.968Z</time></trkpt><trkpt lat="44.2708717" lon="10.1787517"><ele>943.5</ele><time>2026-04-19T13:27:25.968Z</time></trkpt><trkpt lat="44.2709317" lon="10.178925"><ele>942.0</ele><time>2026-04-19T13:27:26.969Z</time></trkpt><trkpt lat="44.2709983" lon="10.17908"><ele>946.0</ele><time>2026-04-19T13:27:27.968Z</time></trkpt><trkpt lat="44.2710633" lon="10.1792217"><ele>950.0</ele><time>2026-04-19T13:27:28.968Z</time></trkpt><trkpt lat="44.27114" lon="10.1793583"><ele>954.0</ele><time>2026-04-19T13:27:29.968Z</time></trkpt><trkpt lat="44.27122" lon="10.1794983"><ele>958.0</ele><time>2026-04-19T13:27:30.968Z</time></trkpt><trkpt lat="44.2712817" lon="10.1796417"><ele>958.0</ele><time>2026-04-19T13:27:31.968Z</time></trkpt><trkpt lat="44.2713217" lon="10.179795"><ele>958.0</ele><time>2026-04-19T13:27:32.968Z</time></trkpt><trkpt lat="44.2713483" lon="10.1799583"><ele>958.0</ele><time>2026-04-19T13:27:33.968Z</time></trkpt><trkpt lat="44.2713633" lon="10.1801217"><ele>958.0</ele><time>2026-04-19T13:27:34.968Z</time></trkpt><trkpt lat="44.2713683" lon="10.1802817"><ele>961.4</ele><time>2026-04-19T13:27:35.968Z</time></trkpt><trkpt lat="44.2713533" lon="10.18045"><ele>964.8</ele><time>2026-04-19T13:27:36.968Z</time></trkpt><trkpt lat="44.27131" lon="10.1806183"><ele>968.2</ele><time>2026-04-19T13:27:37.968Z</time></trkpt><trkpt lat="44.2712683" lon="10.1807517"><ele>971.6</ele><time>2026-04-19T13:27:38.968Z</time></trkpt><trkpt lat="44.27126" lon="10.180875"><ele>975.0</ele><time>2026-04-19T13:27:39.968Z</time></trkpt><trkpt lat="44.27128" lon="10.1809917"><ele>975.8</ele><time>2026-04-19T13:27:40.968Z</time></trkpt><trkpt lat="44.271325" lon="10.181085"><ele>976.6</ele><time>2026-04-19T13:27:41.968Z</time></trkpt><trkpt lat="44.2714" lon="10.181125"><ele>977.4000000000001</ele><time>2026-04-19T13:27:42.968Z</time></trkpt><trkpt lat="44.2715" lon="10.1811133"><ele>978.2</ele><time>2026-04-19T13:27:43.968Z</time></trkpt><trkpt lat="44.2716183" lon="10.18106"><ele>979.0</ele><time>2026-04-19T13:27:44.968Z</time></trkpt><trkpt lat="44.271745" lon="10.180995"><ele>969.5</ele><time>2026-04-19T13:27:45.968Z</time></trkpt><trkpt lat="44.27187" lon="10.1809167"><ele>960.0</ele><time>2026-04-19T13:27:46.968Z</time></trkpt><trkpt lat="44.2720067" lon="10.1808333"><ele>950.5</ele><time>2026-04-19T13:27:47.968Z</time></trkpt><trkpt lat="44.2721483" lon="10.1807517"><ele>941.0</ele><time>2026-04-19T13:27:48.968Z</time></trkpt><trkpt lat="44.2722883" lon="10.1806733"><ele>934.0</ele><time>2026-04-19T13:27:49.968Z</time></trkpt><trkpt lat="44.272415" lon="10.180605"><ele>927.0</ele><time>2026-04-19T13:27:50.968Z</time></trkpt><trkpt lat="44.2725317" lon="10.180535"><ele>920.0</ele><time>2026-04-19T13:27:51.968Z</time></trkpt><trkpt lat="44.2726533" lon="10.1804633"><ele>913.0</ele><time>2026-04-19T13:27:52.968Z</time></trkpt><trkpt lat="44.2727767" lon="10.180405"><ele>913.0</ele><time>2026-04-19T13:27:53.969Z</time></trkpt><trkpt lat="44.2729067" lon="10.1803867"><ele>913.0</ele><time>2026-04-19T13:27:54.968Z</time></trkpt><trkpt lat="44.2730433" lon="10.18039"><ele>913.0</ele><time>2026-04-19T13:27:55.968Z</time></trkpt><trkpt lat="44.2731817" lon="10.1804183"><ele>913.0</ele><time>2026-04-19T13:27:56.968Z</time></trkpt><trkpt lat="44.2733267" lon="10.1804633"><ele>916.3333333333333</ele><time>2026-04-19T13:27:57.968Z</time></trkpt><trkpt lat="44.2734467" lon="10.18049"><ele>919.6666666666667</ele><time>2026-04-19T13:27:58.968Z</time></trkpt><trkpt lat="44.2736283" lon="10.1805733"><ele>923.0</ele><time>2026-04-19T13:27:59.968Z</time></trkpt><trkpt lat="44.2737783" lon="10.1806317"><ele>925.0</ele><time>2026-04-19T13:28:00.968Z</time></trkpt><trkpt lat="44.2739233" lon="10.1807033"><ele>927.0</ele><time>2026-04-19T13:28:01.968Z</time></trkpt><trkpt lat="44.274055" lon="10.1807917"><ele>929.0</ele><time>2026-04-19T13:28:02.968Z</time></trkpt><trkpt lat="44.274165" lon="10.1808967"><ele>931.0</ele><time>2026-04-19T13:28:03.968Z</time></trkpt><trkpt lat="44.27425" lon="10.1809933"><ele>931.0</ele><time>2026-04-19T13:28:04.968Z</time></trkpt><trkpt lat="44.2743117" lon="10.1811133"><ele>931.0</ele><time>2026-04-19T13:28:05.968Z</time></trkpt><trkpt lat="44.274335" lon="10.1812617"><ele>931.0</ele><time>2026-04-19T13:28:06.968Z</time></trkpt><trkpt lat="44.2743317" lon="10.18143"><ele>931.0</ele><time>2026-04-19T13:28:07.968Z</time></trkpt><trkpt lat="44.274315" lon="10.1816317"><ele>937.0</ele><time>2026-04-19T13:28:08.968Z</time></trkpt><trkpt lat="44.2743067" lon="10.1818433"><ele>943.0</ele><time>2026-04-19T13:28:09.968Z</time></trkpt><trkpt lat="44.274325" lon="10.1820667"><ele>949.0</ele><time>2026-04-19T13:28:10.968Z</time></trkpt><trkpt lat="44.2743733" lon="10.18227"><ele>949.5</ele><time>2026-04-19T13:28:11.968Z</time></trkpt><trkpt lat="44.2744467" lon="10.1824583"><ele>950.0</ele><time>2026-04-19T13:28:12.968Z</time></trkpt><trkpt lat="44.2745433" lon="10.1826033"><ele>950.5</ele><time>2026-04-19T13:28:13.968Z</time></trkpt><trkpt lat="44.27465" lon="10.182735"><ele>951.0</ele><time>2026-04-19T13:28:14.968Z</time></trkpt><trkpt lat="44.274775" lon="10.1828633"><ele>947.0</ele><time>2026-04-19T13:28:15.968Z</time></trkpt><trkpt lat="44.2749083" lon="10.1829867"><ele>943.0</ele><time>2026-04-19T13:28:16.968Z</time></trkpt><trkpt lat="44.2750433" lon="10.1831033"><ele>939.0</ele><time>2026-04-19T13:28:17.968Z</time></trkpt><trkpt lat="44.2751717" lon="10.183215"><ele>939.0</ele><time>2026-04-19T13:28:18.968Z</time></trkpt><trkpt lat="44.2752933" lon="10.1833283"><ele>939.0</ele><time>2026-04-19T13:28:19.968Z</time></trkpt><trkpt lat="44.2754067" lon="10.18344"><ele>939.0</ele><time>2026-04-19T13:28:20.968Z</time></trkpt><trkpt lat="44.2755133" lon="10.1835717"><ele>939.0</ele><time>2026-04-19T13:28:21.968Z</time></trkpt><trkpt lat="44.2756067" lon="10.1837217"><ele>936.3333333333333</ele><time>2026-04-19T13:28:22.968Z</time></trkpt><trkpt lat="44.27569" lon="10.1838867"><ele>933.6666666666666</ele><time>2026-04-19T13:28:23.968Z</time></trkpt><trkpt lat="44.2757533" lon="10.1840933"><ele>931.0</ele><time>2026-04-19T13:28:24.968Z</time></trkpt><trkpt lat="44.27581" lon="10.184305"><ele>931.0</ele><time>2026-04-19T13:28:25.968Z</time></trkpt><trkpt lat="44.275885" lon="10.1845083"><ele>931.0</ele><time>2026-04-19T13:28:26.968Z</time></trkpt><trkpt lat="44.2759717" lon="10.1847167"><ele>931.0</ele><time>2026-04-19T13:28:27.968Z</time></trkpt><trkpt lat="44.2760633" lon="10.1849133"><ele>934.0</ele><time>2026-04-19T13:28:28.968Z</time></trkpt><trkpt lat="44.276155" lon="10.1850933"><ele>937.0</ele><time>2026-04-19T13:28:29.968Z</time></trkpt><trkpt lat="44.2762517" lon="10.185265"><ele>940.0</ele><time>2026-04-19T13:28:30.968Z</time></trkpt><trkpt lat="44.276355" lon="10.1854283"><ele>935.3333333333333</ele><time>2026-04-19T13:28:31.968Z</time></trkpt><trkpt lat="44.2764767" lon="10.1855683"><ele>930.6666666666667</ele><time>2026-04-19T13:28:32.968Z</time></trkpt><trkpt lat="44.276615" lon="10.1856917"><ele>926.0</ele><time>2026-04-19T13:28:33.968Z</time></trkpt><trkpt lat="44.27676" lon="10.1858167"><ele>926.0</ele><time>2026-04-19T13:28:34.968Z</time></trkpt><trkpt lat="44.276895" lon="10.18592"><ele>926.0</ele><time>2026-04-19T13:28:35.968Z</time></trkpt><trkpt lat="44.2770333" lon="10.18601"><ele>926.0</ele><time>2026-04-19T13:28:36.968Z</time></trkpt><trkpt lat="44.2771917" lon="10.1860867"><ele>924.25</ele><time>2026-04-19T13:28:37.968Z</time></trkpt><trkpt lat="44.2773417" lon="10.186125"><ele>922.5</ele><time>2026-04-19T13:28:38.968Z</time></trkpt><trkpt lat="44.2774817" lon="10.186115"><ele>920.75</ele><time>2026-04-19T13:28:39.968Z</time></trkpt><trkpt lat="44.277615" lon="10.1860817"><ele>919.0</ele><time>2026-04-19T13:28:40.968Z</time></trkpt><trkpt lat="44.27776" lon="10.18602"><ele>919.0</ele><time>2026-04-19T13:28:41.968Z</time></trkpt><trkpt lat="44.2778833" lon="10.18592"><ele>919.0</ele><time>2026-04-19T13:28:42.968Z</time></trkpt><trkpt lat="44.2780083" lon="10.1857967"><ele>919.0</ele><time>2026-04-19T13:28:43.968Z</time></trkpt><trkpt lat="44.27814" lon="10.185685"><ele>916.0</ele><time>2026-04-19T13:28:44.968Z</time></trkpt><trkpt lat="44.2782883" lon="10.1856167"><ele>913.0</ele><time>2026-04-19T13:28:45.968Z</time></trkpt><trkpt lat="44.2784417" lon="10.18557"><ele>910.0</ele><time>2026-04-19T13:28:46.968Z</time></trkpt><trkpt lat="44.27859" lon="10.18552"><ele>910.0</ele><time>2026-04-19T13:28:47.968Z</time></trkpt><trkpt lat="44.278725" lon="10.1855"><ele>910.0</ele><time>2026-04-19T13:28:48.968Z</time></trkpt><trkpt lat="44.2788483" lon="10.185495"><ele>910.0</ele><time>2026-04-19T13:28:49.968Z</time></trkpt><trkpt lat="44.2789683" lon="10.1855067"><ele>910.0</ele><time>2026-04-19T13:28:50.969Z</time></trkpt><trkpt lat="44.279075" lon="10.1855533"><ele>910.0</ele><time>2026-04-19T13:28:51.968Z</time></trkpt><trkpt lat="44.2791783" lon="10.1856517"><ele>910.0</ele><time>2026-04-19T13:28:52.968Z</time></trkpt><trkpt lat="44.2792783" lon="10.18579"><ele>910.0</ele><time>2026-04-19T13:28:53.968Z</time></trkpt><trkpt lat="44.279335" lon="10.185945"><ele>910.0</ele><time>2026-04-19T13:28:54.968Z</time></trkpt><trkpt lat="44.2793583" lon="10.1861"><ele>914.0</ele><time>2026-04-19T13:28:55.968Z</time></trkpt><trkpt lat="44.2793417" lon="10.186255"><ele>918.0</ele><time>2026-04-19T13:28:56.968Z</time></trkpt><trkpt lat="44.279305" lon="10.1864117"><ele>922.0</ele><time>2026-04-19T13:28:57.968Z</time></trkpt><trkpt lat="44.2792517" lon="10.1865583"><ele>926.0</ele><time>2026-04-19T13:28:58.968Z</time></trkpt><trkpt lat="44.2791683" lon="10.1866833"><ele>927.0</ele><time>2026-04-19T13:28:59.968Z</time></trkpt><trkpt lat="44.2790633" lon="10.1868083"><ele>928.0</ele><time>2026-04-19T13:29:00.968Z</time></trkpt><trkpt lat="44.2789667" lon="10.186945"><ele>929.0</ele><time>2026-04-19T13:29:01.968Z</time></trkpt><trkpt lat="44.2788833" lon="10.1870967"><ele>930.0</ele><time>2026-04-19T13:29:02.968Z</time></trkpt><trkpt lat="44.2788333" lon="10.1872567"><ele>938.5</ele><time>2026-04-19T13:29:03.968Z</time></trkpt><trkpt lat="44.2788333" lon="10.1874383"><ele>947.0</ele><time>2026-04-19T13:29:04.968Z</time></trkpt><trkpt lat="44.27885" lon="10.187625"><ele>955.5</ele><time>2026-04-19T13:29:05.968Z</time></trkpt><trkpt lat="44.2788933" lon="10.1878217"><ele>964.0</ele><time>2026-04-19T13:29:06.968Z</time></trkpt><trkpt lat="44.278925" lon="10.18803"><ele>953.6666666666666</ele><time>2026-04-19T13:29:07.968Z</time></trkpt><trkpt lat="44.27896" lon="10.18825"><ele>943.3333333333333</ele><time>2026-04-19T13:29:08.968Z</time></trkpt><trkpt lat="44.2790067" lon="10.1884767"><ele>933.0</ele><time>2026-04-19T13:29:09.968Z</time></trkpt><trkpt lat="44.2790467" lon="10.1887117"><ele>933.0</ele><time>2026-04-19T13:29:10.968Z</time></trkpt><trkpt lat="44.2790917" lon="10.1889483"><ele>933.0</ele><time>2026-04-19T13:29:11.968Z</time></trkpt><trkpt lat="44.2791433" lon="10.1891667"><ele>933.0</ele><time>2026-04-19T13:29:12.968Z</time></trkpt><trkpt lat="44.2792033" lon="10.1893967"><ele>936.6666666666667</ele><time>2026-04-19T13:29:13.968Z</time></trkpt><trkpt lat="44.2792667" lon="10.1896233"><ele>940.3333333333334</ele><time>2026-04-19T13:29:14.968Z</time></trkpt><trkpt lat="44.2793267" lon="10.1898333"><ele>944.0</ele><time>2026-04-19T13:29:15.968Z</time></trkpt><trkpt lat="44.2793917" lon="10.19003"><ele>947.25</ele><time>2026-04-19T13:29:16.968Z</time></trkpt><trkpt lat="44.27946" lon="10.1902267"><ele>950.5</ele><time>2026-04-19T13:29:17.968Z</time></trkpt><trkpt lat="44.2795317" lon="10.1904083"><ele>953.75</ele><time>2026-04-19T13:29:18.968Z</time></trkpt><trkpt lat="44.279605" lon="10.190575"><ele>957.0</ele><time>2026-04-19T13:29:19.968Z</time></trkpt><trkpt lat="44.2796583" lon="10.1907533"><ele>960.75</ele><time>2026-04-19T13:29:20.968Z</time></trkpt><trkpt lat="44.2796917" lon="10.19094"><ele>964.5</ele><time>2026-04-19T13:29:21.968Z</time></trkpt><trkpt lat="44.2797167" lon="10.19114"><ele>968.25</ele><time>2026-04-19T13:29:22.968Z</time></trkpt><trkpt lat="44.279715" lon="10.191355"><ele>972.0</ele><time>2026-04-19T13:29:23.968Z</time></trkpt><trkpt lat="44.2796983" lon="10.1915717"><ele>976.0</ele><time>2026-04-19T13:29:24.968Z</time></trkpt><trkpt lat="44.2796933" lon="10.191785"><ele>980.0</ele><time>2026-04-19T13:29:25.968Z</time></trkpt><trkpt lat="44.2796917" lon="10.1920017"><ele>984.0</ele><time>2026-04-19T13:29:26.968Z</time></trkpt><trkpt lat="44.279685" lon="10.1922117"><ele>983.75</ele><time>2026-04-19T13:29:27.968Z</time></trkpt><trkpt lat="44.2796683" lon="10.1924217"><ele>983.5</ele><time>2026-04-19T13:29:28.968Z</time></trkpt><trkpt lat="44.2796283" lon="10.1926183"><ele>983.25</ele><time>2026-04-19T13:29:29.969Z</time></trkpt><trkpt lat="44.2795567" lon="10.19279"><ele>983.0</ele><time>2026-04-19T13:29:30.968Z</time></trkpt><trkpt lat="44.2794517" lon="10.19294"><ele>983.0</ele><time>2026-04-19T13:29:31.968Z</time></trkpt><trkpt lat="44.2793233" lon="10.1930883"><ele>983.0</ele><time>2026-04-19T13:29:32.969Z</time></trkpt><trkpt lat="44.27919" lon="10.1932483"><ele>983.0</ele><time>2026-04-19T13:29:33.968Z</time></trkpt><trkpt lat="44.2790567" lon="10.19342"><ele>985.3333333333334</ele><time>2026-04-19T13:29:34.968Z</time></trkpt><trkpt lat="44.2789283" lon="10.1935917"><ele>987.6666666666667</ele><time>2026-04-19T13:29:35.968Z</time></trkpt><trkpt lat="44.278805" lon="10.19377"><ele>990.0</ele><time>2026-04-19T13:29:36.968Z</time></trkpt><trkpt lat="44.27869" lon="10.1939483"><ele>986.6666666666667</ele><time>2026-04-19T13:29:37.968Z</time></trkpt><trkpt lat="44.2785983" lon="10.1941367"><ele>983.3333333333334</ele><time>2026-04-19T13:29:38.968Z</time></trkpt><trkpt lat="44.2785217" lon="10.1943417"><ele>980.0</ele><time>2026-04-19T13:29:39.968Z</time></trkpt><trkpt lat="44.278455" lon="10.194535"><ele>980.0</ele><time>2026-04-19T13:29:40.968Z</time></trkpt><trkpt lat="44.2783983" lon="10.1947117"><ele>980.0</ele><time>2026-04-19T13:29:41.968Z</time></trkpt><trkpt lat="44.2783633" lon="10.1948933"><ele>980.0</ele><time>2026-04-19T13:29:42.968Z</time></trkpt><trkpt lat="44.2783667" lon="10.1950933"><ele>980.0</ele><time>2026-04-19T13:29:43.968Z</time></trkpt><trkpt lat="44.2783933" lon="10.1953133"><ele>976.0</ele><time>2026-04-19T13:29:44.968Z</time></trkpt><trkpt lat="44.2784383" lon="10.1955367"><ele>972.0</ele><time>2026-04-19T13:29:45.968Z</time></trkpt><trkpt lat="44.2784983" lon="10.1957633"><ele>968.0</ele><time>2026-04-19T13:29:46.968Z</time></trkpt><trkpt lat="44.27856" lon="10.1960067"><ele>963.6666666666667</ele><time>2026-04-19T13:29:47.968Z</time></trkpt><trkpt lat="44.278615" lon="10.1962333"><ele>959.3333333333333</ele><time>2026-04-19T13:29:48.968Z</time></trkpt><trkpt lat="44.2786683" lon="10.1964617"><ele>955.0</ele><time>2026-04-19T13:29:49.968Z</time></trkpt><trkpt lat="44.2787283" lon="10.1966683"><ele>955.0</ele><time>2026-04-19T13:29:50.968Z</time></trkpt><trkpt lat="44.2787783" lon="10.1968767"><ele>955.0</ele><time>2026-04-19T13:29:51.968Z</time></trkpt><trkpt lat="44.278825" lon="10.19708"><ele>955.0</ele><time>2026-04-19T13:29:52.968Z</time></trkpt><trkpt lat="44.2788767" lon="10.1972883"><ele>957.6666666666666</ele><time>2026-04-19T13:29:53.968Z</time></trkpt><trkpt lat="44.27893" lon="10.1974933"><ele>960.3333333333333</ele><time>2026-04-19T13:29:54.968Z</time></trkpt><trkpt lat="44.2789933" lon="10.19769"><ele>963.0</ele><time>2026-04-19T13:29:55.968Z</time></trkpt><trkpt lat="44.2790783" lon="10.197865"><ele>963.0</ele><time>2026-04-19T13:29:56.968Z</time></trkpt><trkpt lat="44.2791717" lon="10.1980333"><ele>963.0</ele><time>2026-04-19T13:29:57.968Z</time></trkpt><trkpt lat="44.2792633" lon="10.1982017"><ele>963.0</ele><time>2026-04-19T13:29:58.968Z</time></trkpt><trkpt lat="44.279335" lon="10.1983667"><ele>963.0</ele><time>2026-04-19T13:29:59.969Z</time></trkpt><trkpt lat="44.279415" lon="10.1985067"><ele>965.25</ele><time>2026-04-19T13:30:00.968Z</time></trkpt><trkpt lat="44.2795117" lon="10.1986283"><ele>967.5</ele><time>2026-04-19T13:30:01.968Z</time></trkpt><trkpt lat="44.2796367" lon="10.1987133"><ele>969.75</ele><time>2026-04-19T13:30:02.968Z</time></trkpt><trkpt lat="44.2797733" lon="10.1987867"><ele>972.0</ele><time>2026-04-19T13:30:03.968Z</time></trkpt><trkpt lat="44.27992" lon="10.1988567"><ele>969.5</ele><time>2026-04-19T13:30:04.968Z</time></trkpt><trkpt lat="44.2800583" lon="10.1989183"><ele>967.0</ele><time>2026-04-19T13:30:05.968Z</time></trkpt><trkpt lat="44.28019" lon="10.19898"><ele>964.5</ele><time>2026-04-19T13:30:06.968Z</time></trkpt><trkpt lat="44.280325" lon="10.1990383"><ele>962.0</ele><time>2026-04-19T13:30:07.968Z</time></trkpt><trkpt lat="44.2804533" lon="10.19909"><ele>962.0</ele><time>2026-04-19T13:30:08.968Z</time></trkpt><trkpt lat="44.28059" lon="10.1991083"><ele>962.0</ele><time>2026-04-19T13:30:09.968Z</time></trkpt><trkpt lat="44.28073" lon="10.199085"><ele>962.0</ele><time>2026-04-19T13:30:10.968Z</time></trkpt><trkpt lat="44.280875" lon="10.1990383"><ele>962.0</ele><time>2026-04-19T13:30:11.968Z</time></trkpt><trkpt lat="44.2810233" lon="10.198985"><ele>959.6666666666667</ele><time>2026-04-19T13:30:12.968Z</time></trkpt><trkpt lat="44.28118" lon="10.1989117"><ele>957.3333333333333</ele><time>2026-04-19T13:30:13.968Z</time></trkpt><trkpt lat="44.28133" lon="10.198835"><ele>955.0</ele><time>2026-04-19T13:30:14.968Z</time></trkpt><trkpt lat="44.28146" lon="10.1987517"><ele>960.75</ele><time>2026-04-19T13:30:15.968Z</time></trkpt><trkpt lat="44.2815767" lon="10.1986583"><ele>966.5</ele><time>2026-04-19T13:30:16.968Z</time></trkpt><trkpt lat="44.28168" lon="10.1985767"><ele>972.25</ele><time>2026-04-19T13:30:17.968Z</time></trkpt><trkpt lat="44.28178" lon="10.198495"><ele>978.0</ele><time>2026-04-19T13:30:18.968Z</time></trkpt><trkpt lat="44.2818717" lon="10.1984083"><ele>978.0</ele><time>2026-04-19T13:30:19.968Z</time></trkpt><trkpt lat="44.2819583" lon="10.198325"><ele>978.0</ele><time>2026-04-19T13:30:20.968Z</time></trkpt><trkpt lat="44.2820417" lon="10.1982833"><ele>978.0</ele><time>2026-04-19T13:30:21.968Z</time></trkpt><trkpt lat="44.2821267" lon="10.198285"><ele>978.0</ele><time>2026-04-19T13:30:22.968Z</time></trkpt><trkpt lat="44.282235" lon="10.1983083"><ele>978.0</ele><time>2026-04-19T13:30:23.968Z</time></trkpt><trkpt lat="44.2823633" lon="10.19832"><ele>984.3333333333333</ele><time>2026-04-19T13:30:24.968Z</time></trkpt><trkpt lat="44.282515" lon="10.1983183"><ele>990.6666666666666</ele><time>2026-04-19T13:30:25.968Z</time></trkpt><trkpt lat="44.2826733" lon="10.19832"><ele>997.0</ele><time>2026-04-19T13:30:26.968Z</time></trkpt><trkpt lat="44.282815" lon="10.1983183"><ele>997.0</ele><time>2026-04-19T13:30:27.968Z</time></trkpt><trkpt lat="44.2829533" lon="10.1983267"><ele>997.0</ele><time>2026-04-19T13:30:28.968Z</time></trkpt><trkpt lat="44.283075" lon="10.1983583"><ele>997.0</ele><time>2026-04-19T13:30:29.968Z</time></trkpt><trkpt lat="44.2831967" lon="10.1983767"><ele>997.0</ele><time>2026-04-19T13:30:30.968Z</time></trkpt><trkpt lat="44.2833267" lon="10.1983817"><ele>999.25</ele><time>2026-04-19T13:30:31.968Z</time></trkpt><trkpt lat="44.2834533" lon="10.19836"><ele>1001.5</ele><time>2026-04-19T13:30:32.968Z</time></trkpt><trkpt lat="44.28357" lon="10.19832"><ele>1003.75</ele><time>2026-04-19T13:30:33.968Z</time></trkpt><trkpt lat="44.2836817" lon="10.1982967"><ele>1006.0</ele><time>2026-04-19T13:30:34.968Z</time></trkpt><trkpt lat="44.283785" lon="10.1983033"><ele>1006.0</ele><time>2026-04-19T13:30:35.968Z</time></trkpt><trkpt lat="44.283885" lon="10.198355"><ele>1006.0</ele><time>2026-04-19T13:30:36.968Z</time></trkpt><trkpt lat="44.2839867" lon="10.19844"><ele>1006.0</ele><time>2026-04-19T13:30:37.968Z</time></trkpt><trkpt lat="44.2840783" lon="10.1985617"><ele>1006.0</ele><time>2026-04-19T13:30:38.968Z</time></trkpt><trkpt lat="44.2841933" lon="10.198695"><ele>1002.25</ele><time>2026-04-19T13:30:39.968Z</time></trkpt><trkpt lat="44.2842983" lon="10.19883"><ele>998.5</ele><time>2026-04-19T13:30:40.968Z</time></trkpt><trkpt lat="44.284395" lon="10.19898"><ele>994.75</ele><time>2026-04-19T13:30:41.968Z</time></trkpt><trkpt lat="44.2844983" lon="10.1991333"><ele>991.0</ele><time>2026-04-19T13:30:42.968Z</time></trkpt><trkpt lat="44.2845867" lon="10.1993033"><ele>997.6666666666666</ele><time>2026-04-19T13:30:43.968Z</time></trkpt><trkpt lat="44.2846667" lon="10.1994883"><ele>1004.3333333333333</ele><time>2026-04-19T13:30:44.968Z</time></trkpt><trkpt lat="44.2847217" lon="10.1996817"><ele>1011.0</ele><time>2026-04-19T13:30:45.968Z</time></trkpt><trkpt lat="44.284785" lon="10.199875"><ele>1011.0</ele><time>2026-04-19T13:30:46.968Z</time></trkpt><trkpt lat="44.2848383" lon="10.2000583"><ele>1011.0</ele><time>2026-04-19T13:30:47.968Z</time></trkpt><trkpt lat="44.2849283" lon="10.2002017"><ele>1011.0</ele><time>2026-04-19T13:30:48.968Z</time></trkpt><trkpt lat="44.28502" lon="10.200345"><ele>1011.0</ele><time>2026-04-19T13:30:49.968Z</time></trkpt><trkpt lat="44.28511" lon="10.2004867"><ele>1011.0</ele><time>2026-04-19T13:30:50.968Z</time></trkpt><trkpt lat="44.2851767" lon="10.2006533"><ele>1011.0</ele><time>2026-04-19T13:30:51.968Z</time></trkpt><trkpt lat="44.2852217" lon="10.20083"><ele>1011.0</ele><time>2026-04-19T13:30:52.968Z</time></trkpt><trkpt lat="44.2852517" lon="10.2010183"><ele>1011.0</ele><time>2026-04-19T13:30:53.968Z</time></trkpt><trkpt lat="44.28527" lon="10.2012017"><ele>1014.5999999999999</ele><time>2026-04-19T13:30:54.968Z</time></trkpt><trkpt lat="44.2852783" lon="10.20137"><ele>1018.1999999999999</ele><time>2026-04-19T13:30:55.968Z</time></trkpt><trkpt lat="44.285305" lon="10.201505"><ele>1021.8000000000001</ele><time>2026-04-19T13:30:56.968Z</time></trkpt><trkpt lat="44.2853433" lon="10.2016133"><ele>1025.4</ele><time>2026-04-19T13:30:57.968Z</time></trkpt><trkpt lat="44.2854217" lon="10.20168"><ele>1029.0</ele><time>2026-04-19T13:30:58.968Z</time></trkpt><trkpt lat="44.2855267" lon="10.2017167"><ele>1027.75</ele><time>2026-04-19T13:30:59.968Z</time></trkpt><trkpt lat="44.2856233" lon="10.2017917"><ele>1026.5</ele><time>2026-04-19T13:31:00.968Z</time></trkpt><trkpt lat="44.2856967" lon="10.2019033"><ele>1025.25</ele><time>2026-04-19T13:31:01.969Z</time></trkpt><trkpt lat="44.2857583" lon="10.2020433"><ele>1024.0</ele><time>2026-04-19T13:31:02.968Z</time></trkpt><trkpt lat="44.2858" lon="10.2021983"><ele>1024.0</ele><time>2026-04-19T13:31:03.968Z</time></trkpt><trkpt lat="44.2858633" lon="10.202325"><ele>1024.0</ele><time>2026-04-19T13:31:04.968Z</time></trkpt><trkpt lat="44.2859433" lon="10.2024267"><ele>1024.0</ele><time>2026-04-19T13:31:05.968Z</time></trkpt><trkpt lat="44.2860483" lon="10.202485"><ele>1024.0</ele><time>2026-04-19T13:31:06.969Z</time></trkpt><trkpt lat="44.28617" lon="10.202505"><ele>1027.0</ele><time>2026-04-19T13:31:07.968Z</time></trkpt><trkpt lat="44.2862967" lon="10.2024767"><ele>1030.0</ele><time>2026-04-19T13:31:08.968Z</time></trkpt><trkpt lat="44.2864517" lon="10.202465"><ele>1033.0</ele><time>2026-04-19T13:31:09.968Z</time></trkpt><trkpt lat="44.286585" lon="10.2024967"><ele>1036.0</ele><time>2026-04-19T13:31:10.968Z</time></trkpt><trkpt lat="44.2867083" lon="10.2025667"><ele>1036.0</ele><time>2026-04-19T13:31:11.968Z</time></trkpt><trkpt lat="44.28683" lon="10.2026617"><ele>1036.0</ele><time>2026-04-19T13:31:12.968Z</time></trkpt><trkpt lat="44.2869567" lon="10.202785"><ele>1036.0</ele><time>2026-04-19T13:31:13.968Z</time></trkpt><trkpt lat="44.2870817" lon="10.2029183"><ele>1036.0</ele><time>2026-04-19T13:31:14.968Z</time></trkpt><trkpt lat="44.2872033" lon="10.2030483"><ele>1036.0</ele><time>2026-04-19T13:31:15.968Z</time></trkpt><trkpt lat="44.2873033" lon="10.2031917"><ele>1036.0</ele><time>2026-04-19T13:31:16.969Z</time></trkpt><trkpt lat="44.2874183" lon="10.20334"><ele>1037.25</ele><time>2026-04-19T13:31:17.968Z</time></trkpt><trkpt lat="44.287485" lon="10.2035083"><ele>1038.5</ele><time>2026-04-19T13:31:18.968Z</time></trkpt><trkpt lat="44.287525" lon="10.2036917"><ele>1039.75</ele><time>2026-04-19T13:31:19.968Z</time></trkpt><trkpt lat="44.2875517" lon="10.2038883"><ele>1041.0</ele><time>2026-04-19T13:31:20.968Z</time></trkpt><trkpt lat="44.2875667" lon="10.204095"><ele>1045.5</ele><time>2026-04-19T13:31:21.968Z</time></trkpt><trkpt lat="44.2875767" lon="10.2043033"><ele>1050.0</ele><time>2026-04-19T13:31:22.968Z</time></trkpt><trkpt lat="44.28759" lon="10.2045083"><ele>1054.5</ele><time>2026-04-19T13:31:23.968Z</time></trkpt><trkpt lat="44.2876083" lon="10.2046967"><ele>1059.0</ele><time>2026-04-19T13:31:24.968Z</time></trkpt><trkpt lat="44.287655" lon="10.204875"><ele>1062.75</ele><time>2026-04-19T13:31:25.968Z</time></trkpt><trkpt lat="44.2876967" lon="10.205045"><ele>1066.5</ele><time>2026-04-19T13:31:26.968Z</time></trkpt><trkpt lat="44.2877533" lon="10.205195"><ele>1070.25</ele><time>2026-04-19T13:31:27.968Z</time></trkpt><trkpt lat="44.2877967" lon="10.2053183"><ele>1074.0</ele><time>2026-04-19T13:31:28.968Z</time></trkpt><trkpt lat="44.2878783" lon="10.2054117"><ele>1074.0</ele><time>2026-04-19T13:31:29.968Z</time></trkpt><trkpt lat="44.28799" lon="10.20547"><ele>1074.0</ele><time>2026-04-19T13:31:30.968Z</time></trkpt><trkpt lat="44.288095" lon="10.205535"><ele>1074.0</ele><time>2026-04-19T13:31:31.969Z</time></trkpt><trkpt lat="44.2882067" lon="10.2055833"><ele>1074.0</ele><time>2026-04-19T13:31:32.968Z</time></trkpt><trkpt lat="44.2883033" lon="10.2056017"><ele>1074.0</ele><time>2026-04-19T13:31:33.968Z</time></trkpt><trkpt lat="44.2883983" lon="10.2055817"><ele>1069.0</ele><time>2026-04-19T13:31:34.968Z</time></trkpt><trkpt lat="44.2884967" lon="10.2055483"><ele>1064.0</ele><time>2026-04-19T13:31:35.968Z</time></trkpt><trkpt lat="44.2886033" lon="10.20549"><ele>1059.0</ele><time>2026-04-19T13:31:36.969Z</time></trkpt><trkpt lat="44.2887083" lon="10.2054133"><ele>1054.0</ele><time>2026-04-19T13:31:37.968Z</time></trkpt><trkpt lat="44.2888317" lon="10.2053633"><ele>1056.0</ele><time>2026-04-19T13:31:38.968Z</time></trkpt><trkpt lat="44.28896" lon="10.2053217"><ele>1058.0</ele><time>2026-04-19T13:31:39.968Z</time></trkpt><trkpt lat="44.289085" lon="10.2053033"><ele>1060.0</ele><time>2026-04-19T13:31:40.968Z</time></trkpt><trkpt lat="44.2891883" lon="10.20529"><ele>1062.0</ele><time>2026-04-19T13:31:41.968Z</time></trkpt><trkpt lat="44.28928" lon="10.205305"><ele>1062.0</ele><time>2026-04-19T13:31:42.968Z</time></trkpt><trkpt lat="44.28937" lon="10.2053317"><ele>1062.0</ele><time>2026-04-19T13:31:43.968Z</time></trkpt><trkpt lat="44.2894567" lon="10.2053917"><ele>1062.0</ele><time>2026-04-19T13:31:44.968Z</time></trkpt><trkpt lat="44.2895417" lon="10.2054983"><ele>1062.0</ele><time>2026-04-19T13:31:45.968Z</time></trkpt><trkpt lat="44.2896233" lon="10.2056367"><ele>1062.0</ele><time>2026-04-19T13:31:46.968Z</time></trkpt><trkpt lat="44.289695" lon="10.2057783"><ele>1066.6</ele><time>2026-04-19T13:31:47.968Z</time></trkpt><trkpt lat="44.2897717" lon="10.2058983"><ele>1071.2</ele><time>2026-04-19T13:31:48.968Z</time></trkpt><trkpt lat="44.28985" lon="10.2059983"><ele>1075.8</ele><time>2026-04-19T13:31:49.967Z</time></trkpt><trkpt lat="44.2899417" lon="10.2060717"><ele>1080.4</ele><time>2026-04-19T13:31:50.967Z</time></trkpt><trkpt lat="44.29003" lon="10.2061067"><ele>1085.0</ele><time>2026-04-19T13:31:51.967Z</time></trkpt><trkpt lat="44.2901283" lon="10.20611"><ele>1085.0</ele><time>2026-04-19T13:31:52.967Z</time></trkpt><trkpt lat="44.2902083" lon="10.20608"><ele>1085.0</ele><time>2026-04-19T13:31:53.967Z</time></trkpt><trkpt lat="44.2903067" lon="10.206005"><ele>1085.0</ele><time>2026-04-19T13:31:54.967Z</time></trkpt><trkpt lat="44.2903983" lon="10.2058667"><ele>1085.0</ele><time>2026-04-19T13:31:55.967Z</time></trkpt><trkpt lat="44.29049" lon="10.2057067"><ele>1086.0</ele><time>2026-04-19T13:31:56.967Z</time></trkpt><trkpt lat="44.2905967" lon="10.2055767"><ele>1087.0</ele><time>2026-04-19T13:31:57.967Z</time></trkpt><trkpt lat="44.2907083" lon="10.2054667"><ele>1088.0</ele><time>2026-04-19T13:31:58.967Z</time></trkpt><trkpt lat="44.2908083" lon="10.2053567"><ele>1089.0</ele><time>2026-04-19T13:31:59.967Z</time></trkpt><trkpt lat="44.2909083" lon="10.2052467"><ele>1089.0</ele><time>2026-04-19T13:32:00.967Z</time></trkpt><trkpt lat="44.29098" lon="10.20509"><ele>1089.0</ele><time>2026-04-19T13:32:01.967Z</time></trkpt><trkpt lat="44.2910567" lon="10.204905"><ele>1089.0</ele><time>2026-04-19T13:32:02.967Z</time></trkpt><trkpt lat="44.291125" lon="10.2047317"><ele>1089.0</ele><time>2026-04-19T13:32:03.967Z</time></trkpt><trkpt lat="44.2911933" lon="10.2045833"><ele>1090.0</ele><time>2026-04-19T13:32:04.967Z</time></trkpt><trkpt lat="44.2912467" lon="10.204465"><ele>1091.0</ele><time>2026-04-19T13:32:05.967Z</time></trkpt><trkpt lat="44.2912883" lon="10.2043767"><ele>1092.0</ele><time>2026-04-19T13:32:06.967Z</time></trkpt><trkpt lat="44.2913417" lon="10.2043283"><ele>1093.0</ele><time>2026-04-19T13:32:07.967Z</time></trkpt><trkpt lat="44.2914083" lon="10.2043367"><ele>1094.0</ele><time>2026-04-19T13:32:08.967Z</time></trkpt><trkpt lat="44.2914733" lon="10.2043967"><ele>1095.0</ele><time>2026-04-19T13:32:09.967Z</time></trkpt><trkpt lat="44.291545" lon="10.20448"><ele>1095.0</ele><time>2026-04-19T13:32:10.967Z</time></trkpt><trkpt lat="44.2916367" lon="10.2046133"><ele>1095.0</ele><time>2026-04-19T13:32:11.967Z</time></trkpt><trkpt lat="44.2917267" lon="10.204755"><ele>1095.0</ele><time>2026-04-19T13:32:12.967Z</time></trkpt><trkpt lat="44.29182" lon="10.2048767"><ele>1095.0</ele><time>2026-04-19T13:32:13.967Z</time></trkpt><trkpt lat="44.2919167" lon="10.2049633"><ele>1100.0</ele><time>2026-04-19T13:32:14.967Z</time></trkpt><trkpt lat="44.2920283" lon="10.205025"><ele>1105.0</ele><time>2026-04-19T13:32:15.967Z</time></trkpt><trkpt lat="44.2921383" lon="10.2050367"><ele>1110.0</ele><time>2026-04-19T13:32:16.967Z</time></trkpt><trkpt lat="44.2922567" lon="10.2049883"><ele>1115.0</ele><time>2026-04-19T13:32:17.967Z</time></trkpt><trkpt lat="44.29238" lon="10.204895"><ele>1107.75</ele><time>2026-04-19T13:32:18.967Z</time></trkpt><trkpt lat="44.2925" lon="10.2048033"><ele>1100.5</ele><time>2026-04-19T13:32:19.967Z</time></trkpt><trkpt lat="44.2926067" lon="10.2047433"><ele>1093.25</ele><time>2026-04-19T13:32:20.967Z</time></trkpt><trkpt lat="44.29271" lon="10.2047067"><ele>1086.0</ele><time>2026-04-19T13:32:21.967Z</time></trkpt><trkpt lat="44.2928117" lon="10.2047217"><ele>1086.0</ele><time>2026-04-19T13:32:22.967Z</time></trkpt><trkpt lat="44.2928883" lon="10.20477"><ele>1086.0</ele><time>2026-04-19T13:32:23.967Z</time></trkpt><trkpt lat="44.2929383" lon="10.204865"><ele>1086.0</ele><time>2026-04-19T13:32:24.967Z</time></trkpt><trkpt lat="44.292975" lon="10.2050033"><ele>1086.0</ele><time>2026-04-19T13:32:25.967Z</time></trkpt><trkpt lat="44.2930167" lon="10.2051517"><ele>1086.0</ele><time>2026-04-19T13:32:26.967Z</time></trkpt><trkpt lat="44.2930933" lon="10.2052833"><ele>1094.6666666666667</ele><time>2026-04-19T13:32:27.967Z</time></trkpt><trkpt lat="44.29319" lon="10.205405"><ele>1103.3333333333335</ele><time>2026-04-19T13:32:28.967Z</time></trkpt><trkpt lat="44.293315" lon="10.205545"><ele>1112.0</ele><time>2026-04-19T13:32:29.967Z</time></trkpt><trkpt lat="44.293435" lon="10.205695"><ele>1120.6666666666667</ele><time>2026-04-19T13:32:30.967Z</time></trkpt><trkpt lat="44.2935467" lon="10.205835"><ele>1129.3333333333333</ele><time>2026-04-19T13:32:31.967Z</time></trkpt><trkpt lat="44.29367" lon="10.2059617"><ele>1138.0</ele><time>2026-04-19T13:32:32.967Z</time></trkpt><trkpt lat="44.2938033" lon="10.2060583"><ele>1134.6666666666665</ele><time>2026-04-19T13:32:33.967Z</time></trkpt><trkpt lat="44.293945" lon="10.206125"><ele>1131.3333333333333</ele><time>2026-04-19T13:32:34.967Z</time></trkpt><trkpt lat="44.2940883" lon="10.20617"><ele>1128.0</ele><time>2026-04-19T13:32:35.967Z</time></trkpt><trkpt lat="44.2942417" lon="10.2061833"><ele>1128.0</ele><time>2026-04-19T13:32:36.967Z</time></trkpt><trkpt lat="44.294395" lon="10.2061783"><ele>1128.0</ele><time>2026-04-19T13:32:37.967Z</time></trkpt><trkpt lat="44.2945383" lon="10.20617"><ele>1128.0</ele><time>2026-04-19T13:32:38.967Z</time></trkpt><trkpt lat="44.29467" lon="10.2061767"><ele>1128.0</ele><time>2026-04-19T13:32:39.967Z</time></trkpt><trkpt lat="44.294785" lon="10.2062133"><ele>1127.5</ele><time>2026-04-19T13:32:40.967Z</time></trkpt><trkpt lat="44.2948967" lon="10.2062867"><ele>1127.0</ele><time>2026-04-19T13:32:41.967Z</time></trkpt><trkpt lat="44.29499" lon="10.2063867"><ele>1126.5</ele><time>2026-04-19T13:32:42.967Z</time></trkpt><trkpt lat="44.2950683" lon="10.2065117"><ele>1126.0</ele><time>2026-04-19T13:32:43.967Z</time></trkpt><trkpt lat="44.2951317" lon="10.2066717"><ele>1132.0</ele><time>2026-04-19T13:32:44.967Z</time></trkpt><trkpt lat="44.2951867" lon="10.206865"><ele>1138.0</ele><time>2026-04-19T13:32:45.967Z</time></trkpt><trkpt lat="44.2952417" lon="10.2070683"><ele>1144.0</ele><time>2026-04-19T13:32:46.967Z</time></trkpt><trkpt lat="44.2952767" lon="10.2072683"><ele>1146.5</ele><time>2026-04-19T13:32:47.967Z</time></trkpt><trkpt lat="44.2953167" lon="10.2074567"><ele>1149.0</ele><time>2026-04-19T13:32:48.967Z</time></trkpt><trkpt lat="44.2953467" lon="10.2076583"><ele>1151.5</ele><time>2026-04-19T13:32:49.967Z</time></trkpt><trkpt lat="44.29537" lon="10.20787"><ele>1154.0</ele><time>2026-04-19T13:32:50.967Z</time></trkpt><trkpt lat="44.2953867" lon="10.2080717"><ele>1154.25</ele><time>2026-04-19T13:32:51.967Z</time></trkpt><trkpt lat="44.2953867" lon="10.2082817"><ele>1154.5</ele><time>2026-04-19T13:32:52.967Z</time></trkpt><trkpt lat="44.29542" lon="10.2084767"><ele>1154.75</ele><time>2026-04-19T13:32:53.967Z</time></trkpt><trkpt lat="44.29547" lon="10.2086717"><ele>1155.0</ele><time>2026-04-19T13:32:54.967Z</time></trkpt><trkpt lat="44.2955383" lon="10.2088683"><ele>1152.0</ele><time>2026-04-19T13:32:55.967Z</time></trkpt><trkpt lat="44.2956117" lon="10.2090967"><ele>1149.0</ele><time>2026-04-19T13:32:56.968Z</time></trkpt><trkpt lat="44.2956867" lon="10.209315"><ele>1146.0</ele><time>2026-04-19T13:32:57.967Z</time></trkpt><trkpt lat="44.295755" lon="10.209535"><ele>1146.0</ele><time>2026-04-19T13:32:58.967Z</time></trkpt><trkpt lat="44.2958333" lon="10.209745"><ele>1146.0</ele><time>2026-04-19T13:32:59.967Z</time></trkpt><trkpt lat="44.2959233" lon="10.2099533"><ele>1146.0</ele><time>2026-04-19T13:33:00.967Z</time></trkpt><trkpt lat="44.296015" lon="10.2101733"><ele>1149.0</ele><time>2026-04-19T13:33:01.967Z</time></trkpt><trkpt lat="44.296115" lon="10.2103817"><ele>1152.0</ele><time>2026-04-19T13:33:02.967Z</time></trkpt><trkpt lat="44.29621" lon="10.210565"><ele>1155.0</ele><time>2026-04-19T13:33:03.967Z</time></trkpt><trkpt lat="44.2963033" lon="10.210765"><ele>1155.3333333333333</ele><time>2026-04-19T13:33:04.968Z</time></trkpt><trkpt lat="44.2963967" lon="10.2109517"><ele>1155.6666666666665</ele><time>2026-04-19T13:33:05.967Z</time></trkpt><trkpt lat="44.2965" lon="10.21114"><ele>1156.0</ele><time>2026-04-19T13:33:06.967Z</time></trkpt><trkpt lat="44.2966233" lon="10.21132"><ele>1160.3333333333333</ele><time>2026-04-19T13:33:07.967Z</time></trkpt><trkpt lat="44.2967533" lon="10.21149"><ele>1164.6666666666667</ele><time>2026-04-19T13:33:08.967Z</time></trkpt><trkpt lat="44.2968717" lon="10.211675"><ele>1169.0</ele><time>2026-04-19T13:33:09.967Z</time></trkpt><trkpt lat="44.2970017" lon="10.21184"><ele>1169.0</ele><time>2026-04-19T13:33:10.967Z</time></trkpt><trkpt lat="44.2971267" lon="10.2120033"><ele>1169.0</ele><time>2026-04-19T13:33:11.967Z</time></trkpt><trkpt lat="44.2972483" lon="10.21216"><ele>1169.0</ele><time>2026-04-19T13:33:12.967Z</time></trkpt><trkpt lat="44.29738" lon="10.2123033"><ele>1172.3333333333335</ele><time>2026-04-19T13:33:13.967Z</time></trkpt><trkpt lat="44.2975117" lon="10.212435"><ele>1175.6666666666667</ele><time>2026-04-19T13:33:14.967Z</time></trkpt><trkpt lat="44.2976483" lon="10.212555"><ele>1179.0</ele><time>2026-04-19T13:33:15.967Z</time></trkpt><trkpt lat="44.2977717" lon="10.212685"><ele>1179.0</ele><time>2026-04-19T13:33:16.967Z</time></trkpt><trkpt lat="44.2978767" lon="10.212795"><ele>1179.0</ele><time>2026-04-19T13:33:17.967Z</time></trkpt><trkpt lat="44.2979817" lon="10.2128833"><ele>1179.0</ele><time>2026-04-19T13:33:18.967Z</time></trkpt><trkpt lat="44.2980667" lon="10.2129667"><ele>1179.0</ele><time>2026-04-19T13:33:19.967Z</time></trkpt><trkpt lat="44.29816" lon="10.2130383"><ele>1180.25</ele><time>2026-04-19T13:33:20.967Z</time></trkpt><trkpt lat="44.29828" lon="10.21307"><ele>1181.5</ele><time>2026-04-19T13:33:21.967Z</time></trkpt><trkpt lat="44.2984033" lon="10.2130733"><ele>1182.75</ele><time>2026-04-19T13:33:22.967Z</time></trkpt><trkpt lat="44.2985183" lon="10.2130517"><ele>1184.0</ele><time>2026-04-19T13:33:23.967Z</time></trkpt><trkpt lat="44.2986283" lon="10.2129967"><ele>1184.0</ele><time>2026-04-19T13:33:24.967Z</time></trkpt><trkpt lat="44.2987367" lon="10.212955"><ele>1184.0</ele><time>2026-04-19T13:33:25.967Z</time></trkpt><trkpt lat="44.2988533" lon="10.212945"><ele>1184.0</ele><time>2026-04-19T13:33:26.967Z</time></trkpt><trkpt lat="44.2989667" lon="10.2129817"><ele>1184.0</ele><time>2026-04-19T13:33:27.968Z</time></trkpt><trkpt lat="44.299085" lon="10.213065"><ele>1184.75</ele><time>2026-04-19T13:33:28.967Z</time></trkpt><trkpt lat="44.2991917" lon="10.21318"><ele>1185.5</ele><time>2026-04-19T13:33:29.967Z</time></trkpt><trkpt lat="44.2992817" lon="10.213295"><ele>1186.25</ele><time>2026-04-19T13:33:30.967Z</time></trkpt><trkpt lat="44.2993733" lon="10.2133733"><ele>1187.0</ele><time>2026-04-19T13:33:31.968Z</time></trkpt><trkpt lat="44.2994783" lon="10.2133933"><ele>1187.0</ele><time>2026-04-19T13:33:32.967Z</time></trkpt><trkpt lat="44.299575" lon="10.2133417"><ele>1187.0</ele><time>2026-04-19T13:33:33.967Z</time></trkpt><trkpt lat="44.299655" lon="10.2132433"><ele>1187.0</ele><time>2026-04-19T13:33:34.967Z</time></trkpt><trkpt lat="44.2997017" lon="10.2131067"><ele>1187.0</ele><time>2026-04-19T13:33:35.967Z</time></trkpt><trkpt lat="44.2996983" lon="10.2129483"><ele>1187.0</ele><time>2026-04-19T13:33:36.967Z</time></trkpt><trkpt lat="44.2996517" lon="10.2127867"><ele>1186.5</ele><time>2026-04-19T13:33:37.967Z</time></trkpt><trkpt lat="44.299585" lon="10.2126167"><ele>1186.0</ele><time>2026-04-19T13:33:38.967Z</time></trkpt><trkpt lat="44.2995283" lon="10.21245"><ele>1185.5</ele><time>2026-04-19T13:33:39.967Z</time></trkpt><trkpt lat="44.2994833" lon="10.2123"><ele>1185.0</ele><time>2026-04-19T13:33:40.967Z</time></trkpt><trkpt lat="44.2994533" lon="10.2121467"><ele>1184.4</ele><time>2026-04-19T13:33:41.967Z</time></trkpt><trkpt lat="44.2994283" lon="10.2120033"><ele>1183.8</ele><time>2026-04-19T13:33:42.967Z</time></trkpt><trkpt lat="44.29941" lon="10.2118633"><ele>1183.2</ele><time>2026-04-19T13:33:43.967Z</time></trkpt><trkpt lat="44.2994167" lon="10.211725"><ele>1182.6</ele><time>2026-04-19T13:33:44.967Z</time></trkpt><trkpt lat="44.2994467" lon="10.211605"><ele>1182.0</ele><time>2026-04-19T13:33:45.967Z</time></trkpt><trkpt lat="44.2994917" lon="10.2115"><ele>1180.2</ele><time>2026-04-19T13:33:46.967Z</time></trkpt><trkpt lat="44.2995617" lon="10.2114267"><ele>1178.4</ele><time>2026-04-19T13:33:47.967Z</time></trkpt><trkpt lat="44.2996467" lon="10.211395"><ele>1176.6</ele><time>2026-04-19T13:33:48.967Z</time></trkpt><trkpt lat="44.2997333" lon="10.21143"><ele>1174.8</ele><time>2026-04-19T13:33:49.967Z</time></trkpt><trkpt lat="44.2998167" lon="10.2115283"><ele>1173.0</ele><time>2026-04-19T13:33:50.967Z</time></trkpt><trkpt lat="44.2998733" lon="10.21167"><ele>1180.5</ele><time>2026-04-19T13:33:51.967Z</time></trkpt><trkpt lat="44.2998917" lon="10.2118433"><ele>1188.0</ele><time>2026-04-19T13:33:52.967Z</time></trkpt><trkpt lat="44.29991" lon="10.21202"><ele>1195.5</ele><time>2026-04-19T13:33:53.967Z</time></trkpt><trkpt lat="44.2999367" lon="10.21219"><ele>1203.0</ele><time>2026-04-19T13:33:54.967Z</time></trkpt><trkpt lat="44.2999833" lon="10.2123517"><ele>1203.0</ele><time>2026-04-19T13:33:55.967Z</time></trkpt><trkpt lat="44.300045" lon="10.212515"><ele>1203.0</ele><time>2026-04-19T13:33:56.967Z</time></trkpt><trkpt lat="44.3001317" lon="10.2126683"><ele>1203.0</ele><time>2026-04-19T13:33:57.967Z</time></trkpt><trkpt lat="44.3002383" lon="10.2128133"><ele>1203.0</ele><time>2026-04-19T13:33:58.967Z</time></trkpt><trkpt lat="44.3003683" lon="10.2129517"><ele>1203.0</ele><time>2026-04-19T13:33:59.967Z</time></trkpt><trkpt lat="44.30052" lon="10.2130833"><ele>1203.0</ele><time>2026-04-19T13:34:00.967Z</time></trkpt><trkpt lat="44.3006783" lon="10.2132067"><ele>1203.0</ele><time>2026-04-19T13:34:01.967Z</time></trkpt><trkpt lat="44.3008217" lon="10.21333"><ele>1207.0</ele><time>2026-04-19T13:34:02.967Z</time></trkpt><trkpt lat="44.30096" lon="10.213435"><ele>1211.0</ele><time>2026-04-19T13:34:03.967Z</time></trkpt><trkpt lat="44.301095" lon="10.21355"><ele>1215.0</ele><time>2026-04-19T13:34:04.967Z</time></trkpt><trkpt lat="44.3012283" lon="10.2136883"><ele>1215.0</ele><time>2026-04-19T13:34:05.967Z</time></trkpt><trkpt lat="44.3013583" lon="10.2138267"><ele>1215.0</ele><time>2026-04-19T13:34:06.967Z</time></trkpt><trkpt lat="44.3014833" lon="10.2139683"><ele>1215.0</ele><time>2026-04-19T13:34:07.968Z</time></trkpt><trkpt lat="44.301585" lon="10.2140833"><ele>1216.6</ele><time>2026-04-19T13:34:08.967Z</time></trkpt><trkpt lat="44.30166" lon="10.2141983"><ele>1218.2</ele><time>2026-04-19T13:34:09.967Z</time></trkpt><trkpt lat="44.30175" lon="10.21429"><ele>1219.8</ele><time>2026-04-19T13:34:10.967Z</time></trkpt><trkpt lat="44.301865" lon="10.214325"><ele>1221.4</ele><time>2026-04-19T13:34:11.967Z</time></trkpt><trkpt lat="44.3019683" lon="10.214345"><ele>1223.0</ele><time>2026-04-19T13:34:12.967Z</time></trkpt><trkpt lat="44.3020833" lon="10.214365"><ele>1223.0</ele><time>2026-04-19T13:34:13.967Z</time></trkpt><trkpt lat="44.3021783" lon="10.2143767"><ele>1223.0</ele><time>2026-04-19T13:34:14.967Z</time></trkpt><trkpt lat="44.3022617" lon="10.21446"><ele>1223.0</ele><time>2026-04-19T13:34:15.967Z</time></trkpt><trkpt lat="44.30234" lon="10.2145817"><ele>1223.0</ele><time>2026-04-19T13:34:16.967Z</time></trkpt><trkpt lat="44.30239" lon="10.2147517"><ele>1223.0</ele><time>2026-04-19T13:34:17.967Z</time></trkpt><trkpt lat="44.3024333" lon="10.214985"><ele>1227.0</ele><time>2026-04-19T13:34:18.967Z</time></trkpt><trkpt lat="44.3024783" lon="10.2152383"><ele>1231.0</ele><time>2026-04-19T13:34:19.967Z</time></trkpt><trkpt lat="44.3025133" lon="10.21548"><ele>1235.0</ele><time>2026-04-19T13:34:20.967Z</time></trkpt><trkpt lat="44.3025667" lon="10.215685"><ele>1235.0</ele><time>2026-04-19T13:34:21.967Z</time></trkpt><trkpt lat="44.3026217" lon="10.215855"><ele>1235.0</ele><time>2026-04-19T13:34:22.967Z</time></trkpt><trkpt lat="44.302685" lon="10.2160083"><ele>1235.0</ele><time>2026-04-19T13:34:23.967Z</time></trkpt><trkpt lat="44.30277" lon="10.2161333"><ele>1235.0</ele><time>2026-04-19T13:34:24.967Z</time></trkpt><trkpt lat="44.3028717" lon="10.216245"><ele>1235.0</ele><time>2026-04-19T13:34:25.967Z</time></trkpt><trkpt lat="44.302985" lon="10.2163483"><ele>1235.0</ele><time>2026-04-19T13:34:26.967Z</time></trkpt><trkpt lat="44.30311" lon="10.2164467"><ele>1235.0</ele><time>2026-04-19T13:34:27.967Z</time></trkpt><trkpt lat="44.3032333" lon="10.2165517"><ele>1235.0</ele><time>2026-04-19T13:34:28.967Z</time></trkpt><trkpt lat="44.30336" lon="10.2166583"><ele>1237.75</ele><time>2026-04-19T13:34:29.967Z</time></trkpt><trkpt lat="44.3034567" lon="10.21681"><ele>1240.5</ele><time>2026-04-19T13:34:30.967Z</time></trkpt><trkpt lat="44.303545" lon="10.216945"><ele>1243.25</ele><time>2026-04-19T13:34:31.967Z</time></trkpt><trkpt lat="44.3036283" lon="10.2170567"><ele>1246.0</ele><time>2026-04-19T13:34:32.967Z</time></trkpt><trkpt lat="44.3037017" lon="10.217145"><ele>1246.0</ele><time>2026-04-19T13:34:33.967Z</time></trkpt><trkpt lat="44.3037717" lon="10.2172117"><ele>1246.0</ele><time>2026-04-19T13:34:34.967Z</time></trkpt><trkpt lat="44.3038333" lon="10.2172467"><ele>1246.0</ele><time>2026-04-19T13:34:35.967Z</time></trkpt><trkpt lat="44.3039" lon="10.2172633"><ele>1246.0</ele><time>2026-04-19T13:34:36.967Z</time></trkpt><trkpt lat="44.30397" lon="10.2172433"><ele>1246.0</ele><time>2026-04-19T13:34:37.968Z</time></trkpt><trkpt lat="44.30404" lon="10.2172017"><ele>1246.0</ele><time>2026-04-19T13:34:38.967Z</time></trkpt><trkpt lat="44.3041" lon="10.217165"><ele>1246.0</ele><time>2026-04-19T13:34:39.967Z</time></trkpt><trkpt lat="44.3041917" lon="10.2170783"><ele>1248.0</ele><time>2026-04-19T13:34:41.967Z</time></trkpt><trkpt lat="44.3042383" lon="10.2169833"><ele>1248.0</ele><time>2026-04-19T13:34:43.967Z</time></trkpt><trkpt lat="44.3042567" lon="10.2168917"><ele>1248.0</ele><time>2026-04-19T13:34:45.968Z</time></trkpt><trkpt lat="44.30429" lon="10.2168067"><ele>1248.0</ele><time>2026-04-19T13:34:48.967Z</time></trkpt><trkpt lat="44.3043083" lon="10.2168983"><ele>1248.0</ele><time>2026-04-19T13:35:14.967Z</time></trkpt></trkseg><trkseg><trkpt lat="44.301615" lon="10.2180017"><ele>1253.0</ele><time>2026-04-19T13:48:18.69Z</time></trkpt><trkpt lat="44.3039217" lon="10.2178317"><ele>1253.0</ele><time>2026-04-19T13:48:19.69Z</time></trkpt><trkpt lat="44.3043433" lon="10.2178033"><ele>1253.0</ele><time>2026-04-19T13:48:20.69Z</time></trkpt><trkpt lat="44.3042217" lon="10.217715"><ele>1253.0</ele><time>2026-04-19T13:48:21.69Z</time></trkpt><trkpt lat="44.30405" lon="10.217725"><ele>1253.0</ele><time>2026-04-19T13:48:22.69Z</time></trkpt><trkpt lat="44.3038333" lon="10.2176733"><ele>1253.0</ele><time>2026-04-19T13:48:23.69Z</time></trkpt><trkpt lat="44.303655" lon="10.2176583"><ele>1253.0</ele><time>2026-04-19T13:48:24.69Z</time></trkpt><trkpt lat="44.3035367" lon="10.2176117"><ele>1253.0</ele><time>2026-04-19T13:48:25.69Z</time></trkpt><trkpt lat="44.3034133" lon="10.21757"><ele>1253.0</ele><time>2026-04-19T13:48:26.69Z</time></trkpt><trkpt lat="44.3033417" lon="10.2175933"><ele>1253.0</ele><time>2026-04-19T13:48:29.69Z</time></trkpt><trkpt lat="44.304185" lon="10.2180517"><ele>1253.0</ele><time>2026-04-19T13:48:33.99Z</time></trkpt><trkpt lat="44.3042683" lon="10.2181117"><ele>1253.0</ele><time>2026-04-19T13:48:34.99Z</time></trkpt><trkpt lat="44.3040133" lon="10.21781"><ele>1253.0</ele><time>2026-04-19T13:48:40.99Z</time></trkpt><trkpt lat="44.304085" lon="10.2177467"><ele>1253.0</ele><time>2026-04-19T13:48:50.99Z</time></trkpt><trkpt lat="44.304165" lon="10.2176367"><ele>1253.0</ele><time>2026-04-19T13:48:54.99Z</time></trkpt></trkseg><trkseg><trkpt lat="44.30435" lon="10.2169533"><ele>1248.0</ele><time>2026-04-19T14:00:44.991Z</time></trkpt><trkpt lat="44.304465" lon="10.2169517"><ele>1248.0</ele><time>2026-04-19T14:04:15.991Z</time></trkpt><trkpt lat="44.3045417" lon="10.2169567"><ele>1248.0</ele><time>2026-04-19T14:04:16.991Z</time></trkpt><trkpt lat="44.30462" lon="10.2169767"><ele>1248.0</ele><time>2026-04-19T14:04:17.991Z</time></trkpt><trkpt lat="44.3047067" lon="10.2170167"><ele>1248.0</ele><time>2026-04-19T14:04:18.991Z</time></trkpt><trkpt lat="44.30479" lon="10.2170683"><ele>1247.0</ele><time>2026-04-19T14:04:19.991Z</time></trkpt><trkpt lat="44.3048817" lon="10.21718"><ele>1246.0</ele><time>2026-04-19T14:04:20.991Z</time></trkpt><trkpt lat="44.3049633" lon="10.2172917"><ele>1245.0</ele><time>2026-04-19T14:04:21.991Z</time></trkpt><trkpt lat="44.3050417" lon="10.2174017"><ele>1244.0</ele><time>2026-04-19T14:04:22.991Z</time></trkpt><trkpt lat="44.3051283" lon="10.21752"><ele>1244.0</ele><time>2026-04-19T14:04:23.991Z</time></trkpt><trkpt lat="44.3052233" lon="10.2176333"><ele>1244.0</ele><time>2026-04-19T14:04:24.991Z</time></trkpt><trkpt lat="44.3053133" lon="10.217735"><ele>1244.0</ele><time>2026-04-19T14:04:25.991Z</time></trkpt><trkpt lat="44.3054" lon="10.2178283"><ele>1244.0</ele><time>2026-04-19T14:04:26.991Z</time></trkpt><trkpt lat="44.305485" lon="10.2179283"><ele>1244.0</ele><time>2026-04-19T14:04:27.991Z</time></trkpt><trkpt lat="44.3055683" lon="10.218025"><ele>1244.0</ele><time>2026-04-19T14:04:28.991Z</time></trkpt><trkpt lat="44.3056433" lon="10.2181217"><ele>1244.0</ele><time>2026-04-19T14:04:29.991Z</time></trkpt><trkpt lat="44.3057017" lon="10.2182267"><ele>1244.0</ele><time>2026-04-19T14:04:30.991Z</time></trkpt><trkpt lat="44.3057433" lon="10.2183383"><ele>1244.0</ele><time>2026-04-19T14:04:31.991Z</time></trkpt><trkpt lat="44.3057517" lon="10.2185033"><ele>1241.75</ele><time>2026-04-19T14:04:32.991Z</time></trkpt><trkpt lat="44.30573" lon="10.218675"><ele>1239.5</ele><time>2026-04-19T14:04:33.991Z</time></trkpt><trkpt lat="44.3056917" lon="10.2188517"><ele>1237.25</ele><time>2026-04-19T14:04:34.991Z</time></trkpt><trkpt lat="44.3056567" lon="10.2190167"><ele>1235.0</ele><time>2026-04-19T14:04:35.991Z</time></trkpt><trkpt lat="44.3056217" lon="10.2191783"><ele>1234.2</ele><time>2026-04-19T14:04:36.991Z</time></trkpt><trkpt lat="44.3056267" lon="10.2193317"><ele>1233.4</ele><time>2026-04-19T14:04:37.991Z</time></trkpt><trkpt lat="44.3056717" lon="10.2194683"><ele>1232.6</ele><time>2026-04-19T14:04:38.991Z</time></trkpt><trkpt lat="44.30574" lon="10.2195767"><ele>1231.8</ele><time>2026-04-19T14:04:39.991Z</time></trkpt><trkpt lat="44.3058267" lon="10.2196467"><ele>1231.0</ele><time>2026-04-19T14:04:40.991Z</time></trkpt><trkpt lat="44.3059217" lon="10.2196983"><ele>1231.0</ele><time>2026-04-19T14:04:41.991Z</time></trkpt><trkpt lat="44.3060183" lon="10.2197317"><ele>1231.0</ele><time>2026-04-19T14:04:42.991Z</time></trkpt><trkpt lat="44.3061167" lon="10.21976"><ele>1231.0</ele><time>2026-04-19T14:04:43.991Z</time></trkpt><trkpt lat="44.306215" lon="10.2197833"><ele>1231.0</ele><time>2026-04-19T14:04:44.991Z</time></trkpt><trkpt lat="44.3063167" lon="10.2197983"><ele>1231.0</ele><time>2026-04-19T14:04:45.991Z</time></trkpt><trkpt lat="44.3064183" lon="10.2198"><ele>1229.1666666666665</ele><time>2026-04-19T14:04:46.991Z</time></trkpt><trkpt lat="44.30651" lon="10.2197883"><ele>1227.3333333333333</ele><time>2026-04-19T14:04:47.991Z</time></trkpt><trkpt lat="44.3065983" lon="10.2197833"><ele>1225.5</ele><time>2026-04-19T14:04:48.991Z</time></trkpt><trkpt lat="44.3066833" lon="10.2197817"><ele>1223.6666666666667</ele><time>2026-04-19T14:04:49.991Z</time></trkpt><trkpt lat="44.3067733" lon="10.21978"><ele>1221.8333333333335</ele><time>2026-04-19T14:04:50.991Z</time></trkpt><trkpt lat="44.306865" lon="10.21977"><ele>1220.0</ele><time>2026-04-19T14:04:51.991Z</time></trkpt><trkpt lat="44.30696" lon="10.2197683"><ele>1220.0</ele><time>2026-04-19T14:04:52.991Z</time></trkpt><trkpt lat="44.3070567" lon="10.21978"><ele>1220.0</ele><time>2026-04-19T14:04:53.991Z</time></trkpt><trkpt lat="44.30717" lon="10.2198233"><ele>1220.0</ele><time>2026-04-19T14:04:54.991Z</time></trkpt><trkpt lat="44.3072783" lon="10.219885"><ele>1220.0</ele><time>2026-04-19T14:04:55.991Z</time></trkpt><trkpt lat="44.3073933" lon="10.2199583"><ele>1219.0</ele><time>2026-04-19T14:04:56.992Z</time></trkpt><trkpt lat="44.3074833" lon="10.2200167"><ele>1218.0</ele><time>2026-04-19T14:04:57.991Z</time></trkpt><trkpt lat="44.3075533" lon="10.2200933"><ele>1217.0</ele><time>2026-04-19T14:04:58.991Z</time></trkpt><trkpt lat="44.30761" lon="10.2201983"><ele>1216.0</ele><time>2026-04-19T14:04:59.991Z</time></trkpt><trkpt lat="44.30764" lon="10.2203167"><ele>1215.0</ele><time>2026-04-19T14:05:00.991Z</time></trkpt><trkpt lat="44.3076383" lon="10.220455"><ele>1215.0</ele><time>2026-04-19T14:05:01.991Z</time></trkpt><trkpt lat="44.3075833" lon="10.2205933"><ele>1215.0</ele><time>2026-04-19T14:05:02.991Z</time></trkpt><trkpt lat="44.30749" lon="10.2207167"><ele>1215.0</ele><time>2026-04-19T14:05:03.991Z</time></trkpt><trkpt lat="44.30738" lon="10.2208317"><ele>1215.0</ele><time>2026-04-19T14:05:04.991Z</time></trkpt><trkpt lat="44.3072517" lon="10.2209583"><ele>1215.0</ele><time>2026-04-19T14:05:05.991Z</time></trkpt><trkpt lat="44.3071133" lon="10.221085"><ele>1215.0</ele><time>2026-04-19T14:05:06.991Z</time></trkpt><trkpt lat="44.3069733" lon="10.2212017"><ele>1215.0</ele><time>2026-04-19T14:05:07.991Z</time></trkpt><trkpt lat="44.30683" lon="10.2212983"><ele>1215.0</ele><time>2026-04-19T14:05:08.991Z</time></trkpt><trkpt lat="44.3066667" lon="10.221385"><ele>1215.0</ele><time>2026-04-19T14:05:09.991Z</time></trkpt><trkpt lat="44.3065033" lon="10.2214467"><ele>1215.0</ele><time>2026-04-19T14:05:10.991Z</time></trkpt><trkpt lat="44.3063417" lon="10.2214883"><ele>1213.0</ele><time>2026-04-19T14:05:11.991Z</time></trkpt><trkpt lat="44.3061917" lon="10.2215233"><ele>1211.0</ele><time>2026-04-19T14:05:12.991Z</time></trkpt><trkpt lat="44.306045" lon="10.2215583"><ele>1209.0</ele><time>2026-04-19T14:05:13.992Z</time></trkpt><trkpt lat="44.3059133" lon="10.2216183"><ele>1207.0</ele><time>2026-04-19T14:05:14.991Z</time></trkpt><trkpt lat="44.3058117" lon="10.2216983"><ele>1207.0</ele><time>2026-04-19T14:05:15.991Z</time></trkpt><trkpt lat="44.3057317" lon="10.2218283"><ele>1207.0</ele><time>2026-04-19T14:05:16.991Z</time></trkpt><trkpt lat="44.3056867" lon="10.2219767"><ele>1207.0</ele><time>2026-04-19T14:05:17.991Z</time></trkpt><trkpt lat="44.305655" lon="10.2221583"><ele>1207.0</ele><time>2026-04-19T14:05:18.991Z</time></trkpt><trkpt lat="44.3056033" lon="10.2223533"><ele>1207.3333333333333</ele><time>2026-04-19T14:05:19.991Z</time></trkpt><trkpt lat="44.30553" lon="10.2225617"><ele>1207.6666666666667</ele><time>2026-04-19T14:05:20.991Z</time></trkpt><trkpt lat="44.3054467" lon="10.2227567"><ele>1208.0</ele><time>2026-04-19T14:05:21.991Z</time></trkpt><trkpt lat="44.3053617" lon="10.2229383"><ele>1208.0</ele><time>2026-04-19T14:05:22.991Z</time></trkpt><trkpt lat="44.3052767" lon="10.2231117"><ele>1208.0</ele><time>2026-04-19T14:05:23.991Z</time></trkpt><trkpt lat="44.30518" lon="10.2232817"><ele>1208.0</ele><time>2026-04-19T14:05:24.991Z</time></trkpt><trkpt lat="44.3050867" lon="10.223425"><ele>1208.0</ele><time>2026-04-19T14:05:25.991Z</time></trkpt><trkpt lat="44.3049683" lon="10.223545"><ele>1209.0</ele><time>2026-04-19T14:05:26.991Z</time></trkpt><trkpt lat="44.3048517" lon="10.2236667"><ele>1210.0</ele><time>2026-04-19T14:05:27.992Z</time></trkpt><trkpt lat="44.304745" lon="10.223815"><ele>1211.0</ele><time>2026-04-19T14:05:28.991Z</time></trkpt><trkpt lat="44.30465" lon="10.22398"><ele>1212.0</ele><time>2026-04-19T14:05:29.991Z</time></trkpt><trkpt lat="44.3045883" lon="10.2241533"><ele>1207.25</ele><time>2026-04-19T14:05:30.991Z</time></trkpt><trkpt lat="44.3045433" lon="10.224335"><ele>1202.5</ele><time>2026-04-19T14:05:31.991Z</time></trkpt><trkpt lat="44.3045183" lon="10.2245167"><ele>1197.75</ele><time>2026-04-19T14:05:32.991Z</time></trkpt><trkpt lat="44.304525" lon="10.2247183"><ele>1193.0</ele><time>2026-04-19T14:05:33.991Z</time></trkpt><trkpt lat="44.3045367" lon="10.2249217"><ele>1190.25</ele><time>2026-04-19T14:05:34.991Z</time></trkpt><trkpt lat="44.3045583" lon="10.22513"><ele>1187.5</ele><time>2026-04-19T14:05:35.991Z</time></trkpt><trkpt lat="44.3045783" lon="10.22533"><ele>1184.75</ele><time>2026-04-19T14:05:36.991Z</time></trkpt><trkpt lat="44.304595" lon="10.2255117"><ele>1182.0</ele><time>2026-04-19T14:05:37.991Z</time></trkpt><trkpt lat="44.3046167" lon="10.22567"><ele>1181.8</ele><time>2026-04-19T14:05:38.991Z</time></trkpt><trkpt lat="44.3046617" lon="10.2257917"><ele>1181.6</ele><time>2026-04-19T14:05:39.991Z</time></trkpt><trkpt lat="44.30474" lon="10.2258683"><ele>1181.3999999999999</ele><time>2026-04-19T14:05:40.991Z</time></trkpt><trkpt lat="44.3048433" lon="10.22587"><ele>1181.2</ele><time>2026-04-19T14:05:41.991Z</time></trkpt><trkpt lat="44.3049583" lon="10.225815"><ele>1181.0</ele><time>2026-04-19T14:05:42.991Z</time></trkpt><trkpt lat="44.30507" lon="10.22572"><ele>1175.75</ele><time>2026-04-19T14:05:43.991Z</time></trkpt><trkpt lat="44.305195" lon="10.225615"><ele>1170.5</ele><time>2026-04-19T14:05:44.991Z</time></trkpt><trkpt lat="44.3053117" lon="10.22548"><ele>1165.25</ele><time>2026-04-19T14:05:45.991Z</time></trkpt><trkpt lat="44.30542" lon="10.2253667"><ele>1160.0</ele><time>2026-04-19T14:05:46.991Z</time></trkpt><trkpt lat="44.3055433" lon="10.2252867"><ele>1159.3333333333335</ele><time>2026-04-19T14:05:47.991Z</time></trkpt><trkpt lat="44.3056717" lon="10.2252133"><ele>1158.6666666666667</ele><time>2026-04-19T14:05:48.991Z</time></trkpt><trkpt lat="44.3058117" lon="10.225145"><ele>1158.0</ele><time>2026-04-19T14:05:49.991Z</time></trkpt><trkpt lat="44.306095" lon="10.2250233"><ele>1158.0</ele><time>2026-04-19T14:05:51.991Z</time></trkpt><trkpt lat="44.3062483" lon="10.2249767"><ele>1158.0</ele><time>2026-04-19T14:05:52.991Z</time></trkpt><trkpt lat="44.306405" lon="10.2249433"><ele>1158.0</ele><time>2026-04-19T14:05:53.991Z</time></trkpt><trkpt lat="44.3065733" lon="10.2249217"><ele>1158.6666666666667</ele><time>2026-04-19T14:05:54.991Z</time></trkpt><trkpt lat="44.3067383" lon="10.2248967"><ele>1159.3333333333335</ele><time>2026-04-19T14:05:55.991Z</time></trkpt><trkpt lat="44.3068933" lon="10.2248667"><ele>1160.0</ele><time>2026-04-19T14:05:56.991Z</time></trkpt><trkpt lat="44.3070367" lon="10.224825"><ele>1156.5</ele><time>2026-04-19T14:05:57.991Z</time></trkpt><trkpt lat="44.307175" lon="10.2247767"><ele>1153.0</ele><time>2026-04-19T14:05:58.991Z</time></trkpt><trkpt lat="44.307315" lon="10.2247267"><ele>1149.5</ele><time>2026-04-19T14:05:59.991Z</time></trkpt><trkpt lat="44.307455" lon="10.2246567"><ele>1146.0</ele><time>2026-04-19T14:06:00.991Z</time></trkpt><trkpt lat="44.3075967" lon="10.224605"><ele>1146.0</ele><time>2026-04-19T14:06:01.991Z</time></trkpt><trkpt lat="44.3077417" lon="10.2245583"><ele>1146.0</ele><time>2026-04-19T14:06:02.991Z</time></trkpt><trkpt lat="44.307895" lon="10.2245533"><ele>1146.0</ele><time>2026-04-19T14:06:03.991Z</time></trkpt><trkpt lat="44.30805" lon="10.2245433"><ele>1142.6666666666667</ele><time>2026-04-19T14:06:04.991Z</time></trkpt><trkpt lat="44.3082133" lon="10.224625"><ele>1139.3333333333335</ele><time>2026-04-19T14:06:05.992Z</time></trkpt><trkpt lat="44.3083617" lon="10.2246817"><ele>1136.0</ele><time>2026-04-19T14:06:06.991Z</time></trkpt><trkpt lat="44.308525" lon="10.22476"><ele>1136.6666666666667</ele><time>2026-04-19T14:06:07.991Z</time></trkpt><trkpt lat="44.3086917" lon="10.2248583"><ele>1137.3333333333333</ele><time>2026-04-19T14:06:08.992Z</time></trkpt><trkpt lat="44.3088533" lon="10.224945"><ele>1138.0</ele><time>2026-04-19T14:06:09.991Z</time></trkpt><trkpt lat="44.3090217" lon="10.2250383"><ele>1138.0</ele><time>2026-04-19T14:06:10.992Z</time></trkpt><trkpt lat="44.3091817" lon="10.2251283"><ele>1138.0</ele><time>2026-04-19T14:06:11.991Z</time></trkpt><trkpt lat="44.3093517" lon="10.2252267"><ele>1138.0</ele><time>2026-04-19T14:06:12.991Z</time></trkpt><trkpt lat="44.30951" lon="10.22532"><ele>1138.0</ele><time>2026-04-19T14:06:13.991Z</time></trkpt><trkpt lat="44.309665" lon="10.2254117"><ele>1138.0</ele><time>2026-04-19T14:06:14.991Z</time></trkpt><trkpt lat="44.3098167" lon="10.225515"><ele>1138.0</ele><time>2026-04-19T14:06:15.991Z</time></trkpt><trkpt lat="44.3099567" lon="10.2256417"><ele>1137.0</ele><time>2026-04-19T14:06:16.991Z</time></trkpt><trkpt lat="44.3100967" lon="10.2258033"><ele>1136.0</ele><time>2026-04-19T14:06:17.991Z</time></trkpt><trkpt lat="44.3102333" lon="10.225985"><ele>1135.0</ele><time>2026-04-19T14:06:18.991Z</time></trkpt><trkpt lat="44.3105033" lon="10.2263917"><ele>1131.0</ele><time>2026-04-19T14:06:20.991Z</time></trkpt><trkpt lat="44.3106467" lon="10.2266017"><ele>1127.0</ele><time>2026-04-19T14:06:21.991Z</time></trkpt><trkpt lat="44.31078" lon="10.2268033"><ele>1123.0</ele><time>2026-04-19T14:06:22.991Z</time></trkpt><trkpt lat="44.31092" lon="10.2269883"><ele>1123.0</ele><time>2026-04-19T14:06:23.991Z</time></trkpt><trkpt lat="44.3110517" lon="10.227165"><ele>1123.0</ele><time>2026-04-19T14:06:24.991Z</time></trkpt><trkpt lat="44.3111967" lon="10.2273217"><ele>1123.0</ele><time>2026-04-19T14:06:25.991Z</time></trkpt><trkpt lat="44.3113333" lon="10.227465"><ele>1120.0</ele><time>2026-04-19T14:06:26.991Z</time></trkpt><trkpt lat="44.3114583" lon="10.227615"><ele>1117.0</ele><time>2026-04-19T14:06:27.991Z</time></trkpt><trkpt lat="44.3115667" lon="10.2277867"><ele>1114.0</ele><time>2026-04-19T14:06:28.991Z</time></trkpt><trkpt lat="44.3116467" lon="10.22798"><ele>1114.0</ele><time>2026-04-19T14:06:29.992Z</time></trkpt><trkpt lat="44.3117017" lon="10.2281667"><ele>1114.0</ele><time>2026-04-19T14:06:30.991Z</time></trkpt><trkpt lat="44.3117333" lon="10.2283433"><ele>1114.0</ele><time>2026-04-19T14:06:31.991Z</time></trkpt><trkpt lat="44.3117483" lon="10.22852"><ele>1114.0</ele><time>2026-04-19T14:06:32.991Z</time></trkpt><trkpt lat="44.311725" lon="10.2286867"><ele>1114.0</ele><time>2026-04-19T14:06:33.991Z</time></trkpt><trkpt lat="44.3116567" lon="10.2288517"><ele>1114.0</ele><time>2026-04-19T14:06:34.991Z</time></trkpt><trkpt lat="44.311565" lon="10.2290233"><ele>1114.0</ele><time>2026-04-19T14:06:35.991Z</time></trkpt><trkpt lat="44.3114717" lon="10.2291767"><ele>1114.0</ele><time>2026-04-19T14:06:36.991Z</time></trkpt><trkpt lat="44.3113667" lon="10.2293183"><ele>1116.0</ele><time>2026-04-19T14:06:37.991Z</time></trkpt><trkpt lat="44.3112567" lon="10.2294217"><ele>1118.0</ele><time>2026-04-19T14:06:38.991Z</time></trkpt><trkpt lat="44.31113" lon="10.2294967"><ele>1120.0</ele><time>2026-04-19T14:06:39.991Z</time></trkpt><trkpt lat="44.3110133" lon="10.2295533"><ele>1122.0</ele><time>2026-04-19T14:06:40.991Z</time></trkpt><trkpt lat="44.3108933" lon="10.2296367"><ele>1122.0</ele><time>2026-04-19T14:06:41.991Z</time></trkpt><trkpt lat="44.3107817" lon="10.2297433"><ele>1122.0</ele><time>2026-04-19T14:06:42.991Z</time></trkpt><trkpt lat="44.3106783" lon="10.2298567"><ele>1122.0</ele><time>2026-04-19T14:06:43.991Z</time></trkpt><trkpt lat="44.3105817" lon="10.2299617"><ele>1122.0</ele><time>2026-04-19T14:06:44.991Z</time></trkpt><trkpt lat="44.3104983" lon="10.2300617"><ele>1121.6</ele><time>2026-04-19T14:06:45.991Z</time></trkpt><trkpt lat="44.310425" lon="10.2301467"><ele>1121.2</ele><time>2026-04-19T14:06:46.991Z</time></trkpt><trkpt lat="44.3103767" lon="10.230235"><ele>1120.8</ele><time>2026-04-19T14:06:47.991Z</time></trkpt><trkpt lat="44.3103917" lon="10.2303867"><ele>1120.4</ele><time>2026-04-19T14:06:49.991Z</time></trkpt><trkpt lat="44.3104567" lon="10.2304483"><ele>1120.0</ele><time>2026-04-19T14:06:50.991Z</time></trkpt><trkpt lat="44.310545" lon="10.23049"><ele>1116.6</ele><time>2026-04-19T14:06:51.991Z</time></trkpt><trkpt lat="44.310655" lon="10.230525"><ele>1113.2</ele><time>2026-04-19T14:06:52.991Z</time></trkpt><trkpt lat="44.310775" lon="10.2305733"><ele>1109.8</ele><time>2026-04-19T14:06:53.991Z</time></trkpt><trkpt lat="44.31087" lon="10.2306317"><ele>1106.4</ele><time>2026-04-19T14:06:54.991Z</time></trkpt><trkpt lat="44.3109633" lon="10.2307033"><ele>1103.0</ele><time>2026-04-19T14:06:55.991Z</time></trkpt><trkpt lat="44.3110417" lon="10.2308317"><ele>1103.0</ele><time>2026-04-19T14:06:56.991Z</time></trkpt><trkpt lat="44.3111133" lon="10.23097"><ele>1103.0</ele><time>2026-04-19T14:06:57.991Z</time></trkpt><trkpt lat="44.311185" lon="10.2311017"><ele>1103.0</ele><time>2026-04-19T14:06:58.991Z</time></trkpt><trkpt lat="44.3112683" lon="10.23123"><ele>1103.0</ele><time>2026-04-19T14:06:59.991Z</time></trkpt><trkpt lat="44.3113617" lon="10.231345"><ele>1100.8</ele><time>2026-04-19T14:07:00.991Z</time></trkpt><trkpt lat="44.3114517" lon="10.2314333"><ele>1098.6</ele><time>2026-04-19T14:07:01.991Z</time></trkpt><trkpt lat="44.31155" lon="10.2314983"><ele>1096.4</ele><time>2026-04-19T14:07:02.991Z</time></trkpt><trkpt lat="44.311645" lon="10.2315483"><ele>1094.2</ele><time>2026-04-19T14:07:03.991Z</time></trkpt><trkpt lat="44.3117383" lon="10.231575"><ele>1092.0</ele><time>2026-04-19T14:07:04.991Z</time></trkpt><trkpt lat="44.311825" lon="10.2315933"><ele>1092.0</ele><time>2026-04-19T14:07:05.991Z</time></trkpt><trkpt lat="44.3119117" lon="10.2316183"><ele>1092.0</ele><time>2026-04-19T14:07:06.991Z</time></trkpt><trkpt lat="44.3120033" lon="10.2316633"><ele>1092.0</ele><time>2026-04-19T14:07:07.991Z</time></trkpt><trkpt lat="44.312095" lon="10.23175"><ele>1092.0</ele><time>2026-04-19T14:07:08.991Z</time></trkpt><trkpt lat="44.3121983" lon="10.231885"><ele>1092.0</ele><time>2026-04-19T14:07:09.991Z</time></trkpt><trkpt lat="44.3123167" lon="10.2320567"><ele>1089.0</ele><time>2026-04-19T14:07:10.991Z</time></trkpt><trkpt lat="44.3124433" lon="10.2322617"><ele>1086.0</ele><time>2026-04-19T14:07:11.991Z</time></trkpt><trkpt lat="44.31256" lon="10.23247"><ele>1083.0</ele><time>2026-04-19T14:07:12.991Z</time></trkpt><trkpt lat="44.3126717" lon="10.2326667"><ele>1083.0</ele><time>2026-04-19T14:07:13.991Z</time></trkpt><trkpt lat="44.31278" lon="10.232855"><ele>1083.0</ele><time>2026-04-19T14:07:14.992Z</time></trkpt><trkpt lat="44.3128933" lon="10.233025"><ele>1083.0</ele><time>2026-04-19T14:07:15.991Z</time></trkpt><trkpt lat="44.3129933" lon="10.2331783"><ele>1078.4</ele><time>2026-04-19T14:07:16.991Z</time></trkpt><trkpt lat="44.3130767" lon="10.2333167"><ele>1073.8</ele><time>2026-04-19T14:07:17.991Z</time></trkpt><trkpt lat="44.31313" lon="10.23343"><ele>1069.2</ele><time>2026-04-19T14:07:18.991Z</time></trkpt><trkpt lat="44.3131567" lon="10.233545"><ele>1064.6</ele><time>2026-04-19T14:07:19.991Z</time></trkpt><trkpt lat="44.3131717" lon="10.2336717"><ele>1060.0</ele><time>2026-04-19T14:07:20.991Z</time></trkpt><trkpt lat="44.313145" lon="10.233795"><ele>1060.0</ele><time>2026-04-19T14:07:21.991Z</time></trkpt><trkpt lat="44.3130933" lon="10.2338967"><ele>1060.0</ele><time>2026-04-19T14:07:22.991Z</time></trkpt><trkpt lat="44.3130117" lon="10.233955"><ele>1060.0</ele><time>2026-04-19T14:07:23.991Z</time></trkpt><trkpt lat="44.3129383" lon="10.2340117"><ele>1060.0</ele><time>2026-04-19T14:07:24.991Z</time></trkpt><trkpt lat="44.312885" lon="10.2340933"><ele>1060.0</ele><time>2026-04-19T14:07:25.991Z</time></trkpt><trkpt lat="44.3129" lon="10.2342483"><ele>1059.5</ele><time>2026-04-19T14:07:27.991Z</time></trkpt><trkpt lat="44.31296" lon="10.23432"><ele>1059.0</ele><time>2026-04-19T14:07:28.991Z</time></trkpt><trkpt lat="44.313085" lon="10.234395"><ele>1058.5</ele><time>2026-04-19T14:07:29.991Z</time></trkpt><trkpt lat="44.313235" lon="10.2344967"><ele>1058.0</ele><time>2026-04-19T14:07:30.992Z</time></trkpt><trkpt lat="44.3133517" lon="10.234595"><ele>1058.0</ele><time>2026-04-19T14:07:31.991Z</time></trkpt><trkpt lat="44.313465" lon="10.2347233"><ele>1058.0</ele><time>2026-04-19T14:07:32.991Z</time></trkpt><trkpt lat="44.3135633" lon="10.2348833"><ele>1058.0</ele><time>2026-04-19T14:07:33.991Z</time></trkpt><trkpt lat="44.3136467" lon="10.2350667"><ele>1060.5</ele><time>2026-04-19T14:07:34.992Z</time></trkpt><trkpt lat="44.3137217" lon="10.2352583"><ele>1063.0</ele><time>2026-04-19T14:07:35.991Z</time></trkpt><trkpt lat="44.3137733" lon="10.2354483"><ele>1065.5</ele><time>2026-04-19T14:07:36.991Z</time></trkpt><trkpt lat="44.313815" lon="10.2356283"><ele>1068.0</ele><time>2026-04-19T14:07:37.991Z</time></trkpt><trkpt lat="44.3138667" lon="10.2357933"><ele>1060.75</ele><time>2026-04-19T14:07:38.991Z</time></trkpt><trkpt lat="44.3139417" lon="10.2359533"><ele>1053.5</ele><time>2026-04-19T14:07:39.991Z</time></trkpt><trkpt lat="44.3140383" lon="10.2361"><ele>1046.25</ele><time>2026-04-19T14:07:40.991Z</time></trkpt><trkpt lat="44.3141433" lon="10.236225"><ele>1039.0</ele><time>2026-04-19T14:07:41.991Z</time></trkpt><trkpt lat="44.3142317" lon="10.2363433"><ele>1041.6000000000001</ele><time>2026-04-19T14:07:42.991Z</time></trkpt><trkpt lat="44.3142967" lon="10.2364833"><ele>1044.2</ele><time>2026-04-19T14:07:43.991Z</time></trkpt><trkpt lat="44.3143267" lon="10.2366283"><ele>1046.8000000000002</ele><time>2026-04-19T14:07:44.991Z</time></trkpt><trkpt lat="44.3143333" lon="10.2367667"><ele>1049.4</ele><time>2026-04-19T14:07:45.992Z</time></trkpt><trkpt lat="44.3143267" lon="10.236875"><ele>1052.0</ele><time>2026-04-19T14:07:46.991Z</time></trkpt><trkpt lat="44.314355" lon="10.2370267"><ele>1052.0</ele><time>2026-04-19T14:07:48.991Z</time></trkpt><trkpt lat="44.3144317" lon="10.236975"><ele>1052.0</ele><time>2026-04-19T14:07:50.991Z</time></trkpt><trkpt lat="44.3144483" lon="10.236855"><ele>1052.0</ele><time>2026-04-19T14:07:51.991Z</time></trkpt><trkpt lat="44.3144633" lon="10.2366967"><ele>1052.0</ele><time>2026-04-19T14:07:52.991Z</time></trkpt><trkpt lat="44.3144633" lon="10.2365017"><ele>1052.0</ele><time>2026-04-19T14:07:53.991Z</time></trkpt><trkpt lat="44.314455" lon="10.2362917"><ele>1048.75</ele><time>2026-04-19T14:07:54.991Z</time></trkpt><trkpt lat="44.3144317" lon="10.2360917"><ele>1045.5</ele><time>2026-04-19T14:07:55.991Z</time></trkpt><trkpt lat="44.3143917" lon="10.2359117"><ele>1042.25</ele><time>2026-04-19T14:07:56.991Z</time></trkpt><trkpt lat="44.314345" lon="10.2357367"><ele>1039.0</ele><time>2026-04-19T14:07:57.991Z</time></trkpt><trkpt lat="44.3143017" lon="10.2355717"><ele>1036.6000000000001</ele><time>2026-04-19T14:07:58.992Z</time></trkpt><trkpt lat="44.3142583" lon="10.2354217"><ele>1034.2</ele><time>2026-04-19T14:07:59.991Z</time></trkpt><trkpt lat="44.314205" lon="10.2352867"><ele>1031.8000000000002</ele><time>2026-04-19T14:08:00.991Z</time></trkpt><trkpt lat="44.3141683" lon="10.2351683"><ele>1029.4</ele><time>2026-04-19T14:08:01.991Z</time></trkpt><trkpt lat="44.3141417" lon="10.2350667"><ele>1027.0</ele><time>2026-04-19T14:08:02.991Z</time></trkpt><trkpt lat="44.31415" lon="10.23492"><ele>1027.0</ele><time>2026-04-19T14:08:04.991Z</time></trkpt><trkpt lat="44.314275" lon="10.2349783"><ele>1027.0</ele><time>2026-04-19T14:08:06.991Z</time></trkpt><trkpt lat="44.3143583" lon="10.2350667"><ele>1027.0</ele><time>2026-04-19T14:08:07.991Z</time></trkpt><trkpt lat="44.3144467" lon="10.2352"><ele>1027.0</ele><time>2026-04-19T14:08:08.991Z</time></trkpt><trkpt lat="44.314555" lon="10.2353717"><ele>1027.0</ele><time>2026-04-19T14:08:09.991Z</time></trkpt><trkpt lat="44.3146783" lon="10.23559"><ele>1027.0</ele><time>2026-04-19T14:08:10.991Z</time></trkpt><trkpt lat="44.314805" lon="10.235825"><ele>1027.0</ele><time>2026-04-19T14:08:11.991Z</time></trkpt><trkpt lat="44.3149367" lon="10.2360617"><ele>1025.6666666666665</ele><time>2026-04-19T14:08:12.991Z</time></trkpt><trkpt lat="44.3150567" lon="10.236295"><ele>1024.3333333333333</ele><time>2026-04-19T14:08:13.991Z</time></trkpt><trkpt lat="44.3151767" lon="10.2365233"><ele>1023.0</ele><time>2026-04-19T14:08:14.991Z</time></trkpt><trkpt lat="44.315295" lon="10.23674"><ele>1023.0</ele><time>2026-04-19T14:08:15.991Z</time></trkpt><trkpt lat="44.3154183" lon="10.2369367"><ele>1023.0</ele><time>2026-04-19T14:08:16.991Z</time></trkpt><trkpt lat="44.3155433" lon="10.2371133"><ele>1023.0</ele><time>2026-04-19T14:08:17.991Z</time></trkpt><trkpt lat="44.3156617" lon="10.2372867"><ele>1017.3333333333333</ele><time>2026-04-19T14:08:18.991Z</time></trkpt><trkpt lat="44.3157883" lon="10.2374367"><ele>1011.6666666666666</ele><time>2026-04-19T14:08:19.991Z</time></trkpt><trkpt lat="44.31593" lon="10.2375783"><ele>1006.0</ele><time>2026-04-19T14:08:20.991Z</time></trkpt><trkpt lat="44.3160617" lon="10.23773"><ele>1006.0</ele><time>2026-04-19T14:08:21.991Z</time></trkpt><trkpt lat="44.3161667" lon="10.2378917"><ele>1006.0</ele><time>2026-04-19T14:08:22.991Z</time></trkpt><trkpt lat="44.31625" lon="10.2380517"><ele>1006.0</ele><time>2026-04-19T14:08:23.991Z</time></trkpt><trkpt lat="44.316315" lon="10.2381967"><ele>1006.0</ele><time>2026-04-19T14:08:24.991Z</time></trkpt><trkpt lat="44.316365" lon="10.2383267"><ele>1002.4999999999999</ele><time>2026-04-19T14:08:25.991Z</time></trkpt><trkpt lat="44.31641" lon="10.2384333"><ele>999.0</ele><time>2026-04-19T14:08:26.991Z</time></trkpt><trkpt lat="44.3164633" lon="10.23852"><ele>995.5</ele><time>2026-04-19T14:08:27.991Z</time></trkpt><trkpt lat="44.3165367" lon="10.2385567"><ele>992.0</ele><time>2026-04-19T14:08:29.991Z</time></trkpt><trkpt lat="44.3165417" lon="10.2383867"><ele>988.4999999999999</ele><time>2026-04-19T14:08:31.991Z</time></trkpt><trkpt lat="44.3165183" lon="10.2382933"><ele>985.0</ele><time>2026-04-19T14:08:32.991Z</time></trkpt><trkpt lat="44.3164467" lon="10.2381617"><ele>992.0</ele><time>2026-04-19T14:08:33.991Z</time></trkpt><trkpt lat="44.3163683" lon="10.2379933"><ele>999.0</ele><time>2026-04-19T14:08:34.991Z</time></trkpt><trkpt lat="44.3162983" lon="10.2377917"><ele>1006.0</ele><time>2026-04-19T14:08:35.991Z</time></trkpt><trkpt lat="44.3162317" lon="10.237585"><ele>1006.0</ele><time>2026-04-19T14:08:36.991Z</time></trkpt><trkpt lat="44.3161783" lon="10.2373783"><ele>1006.0</ele><time>2026-04-19T14:08:37.991Z</time></trkpt><trkpt lat="44.3161217" lon="10.237175"><ele>1006.0</ele><time>2026-04-19T14:08:38.991Z</time></trkpt><trkpt lat="44.3160617" lon="10.2369867"><ele>1001.75</ele><time>2026-04-19T14:08:39.991Z</time></trkpt><trkpt lat="44.315995" lon="10.23681"><ele>997.5</ele><time>2026-04-19T14:08:40.991Z</time></trkpt><trkpt lat="44.3159417" lon="10.2366367"><ele>993.25</ele><time>2026-04-19T14:08:41.992Z</time></trkpt><trkpt lat="44.315885" lon="10.2364617"><ele>989.0</ele><time>2026-04-19T14:08:42.991Z</time></trkpt><trkpt lat="44.31582" lon="10.23632"><ele>985.6</ele><time>2026-04-19T14:08:43.991Z</time></trkpt><trkpt lat="44.3157517" lon="10.2361933"><ele>982.2</ele><time>2026-04-19T14:08:44.991Z</time></trkpt><trkpt lat="44.31569" lon="10.2360983"><ele>978.8000000000001</ele><time>2026-04-19T14:08:45.991Z</time></trkpt><trkpt lat="44.3156317" lon="10.2360233"><ele>975.4000000000001</ele><time>2026-04-19T14:08:46.991Z</time></trkpt><trkpt lat="44.3155833" lon="10.23593"><ele>972.0</ele><time>2026-04-19T14:08:48.991Z</time></trkpt><trkpt lat="44.31567" lon="10.2358967"><ele>972.0</ele><time>2026-04-19T14:08:50.991Z</time></trkpt><trkpt lat="44.315725" lon="10.235945"><ele>972.0</ele><time>2026-04-19T14:08:51.991Z</time></trkpt><trkpt lat="44.3157683" lon="10.236025"><ele>972.0</ele><time>2026-04-19T14:08:52.991Z</time></trkpt><trkpt lat="44.31582" lon="10.2361317"><ele>972.0</ele><time>2026-04-19T14:08:53.991Z</time></trkpt><trkpt lat="44.3158967" lon="10.2362667"><ele>972.0</ele><time>2026-04-19T14:08:54.991Z</time></trkpt><trkpt lat="44.316" lon="10.2364017"><ele>970.0</ele><time>2026-04-19T14:08:55.991Z</time></trkpt><trkpt lat="44.3161067" lon="10.23652"><ele>968.0</ele><time>2026-04-19T14:08:56.991Z</time></trkpt><trkpt lat="44.3162267" lon="10.236615"><ele>966.0</ele><time>2026-04-19T14:08:57.991Z</time></trkpt><trkpt lat="44.3163467" lon="10.2366917"><ele>964.0</ele><time>2026-04-19T14:08:58.991Z</time></trkpt><trkpt lat="44.3164767" lon="10.236735"><ele>964.0</ele><time>2026-04-19T14:08:59.991Z</time></trkpt><trkpt lat="44.316605" lon="10.2367483"><ele>964.0</ele><time>2026-04-19T14:09:00.991Z</time></trkpt><trkpt lat="44.3167267" lon="10.2367217"><ele>964.0</ele><time>2026-04-19T14:09:01.991Z</time></trkpt><trkpt lat="44.3168417" lon="10.236695"><ele>964.0</ele><time>2026-04-19T14:09:02.991Z</time></trkpt><trkpt lat="44.31696" lon="10.2367017"><ele>964.0</ele><time>2026-04-19T14:09:03.991Z</time></trkpt><trkpt lat="44.3170633" lon="10.2367683"><ele>964.0</ele><time>2026-04-19T14:09:04.991Z</time></trkpt><trkpt lat="44.31717" lon="10.2368583"><ele>964.0</ele><time>2026-04-19T14:09:05.991Z</time></trkpt><trkpt lat="44.31726" lon="10.2369933"><ele>964.0</ele><time>2026-04-19T14:09:06.991Z</time></trkpt><trkpt lat="44.317345" lon="10.2371667"><ele>959.3333333333333</ele><time>2026-04-19T14:09:07.991Z</time></trkpt><trkpt lat="44.3174083" lon="10.2373667"><ele>954.6666666666667</ele><time>2026-04-19T14:09:08.991Z</time></trkpt><trkpt lat="44.3174633" lon="10.2375783"><ele>950.0</ele><time>2026-04-19T14:09:09.991Z</time></trkpt><trkpt lat="44.31751" lon="10.2377717"><ele>950.0</ele><time>2026-04-19T14:09:10.991Z</time></trkpt><trkpt lat="44.317555" lon="10.2379467"><ele>950.0</ele><time>2026-04-19T14:09:11.991Z</time></trkpt><trkpt lat="44.3176067" lon="10.2380983"><ele>950.0</ele><time>2026-04-19T14:09:12.991Z</time></trkpt><trkpt lat="44.3176767" lon="10.2382183"><ele>950.0</ele><time>2026-04-19T14:09:13.991Z</time></trkpt><trkpt lat="44.3177633" lon="10.2383183"><ele>951.6</ele><time>2026-04-19T14:09:14.991Z</time></trkpt><trkpt lat="44.317855" lon="10.2383933"><ele>953.2</ele><time>2026-04-19T14:09:15.991Z</time></trkpt><trkpt lat="44.3179467" lon="10.238415"><ele>954.8</ele><time>2026-04-19T14:09:16.991Z</time></trkpt><trkpt lat="44.3180483" lon="10.23839"><ele>956.4</ele><time>2026-04-19T14:09:17.991Z</time></trkpt><trkpt lat="44.3181583" lon="10.2383"><ele>958.0</ele><time>2026-04-19T14:09:18.991Z</time></trkpt><trkpt lat="44.318255" lon="10.238185"><ele>955.8</ele><time>2026-04-19T14:09:19.991Z</time></trkpt><trkpt lat="44.31835" lon="10.238105"><ele>953.5999999999999</ele><time>2026-04-19T14:09:20.991Z</time></trkpt><trkpt lat="44.3184483" lon="10.23807"><ele>951.4000000000001</ele><time>2026-04-19T14:09:21.991Z</time></trkpt><trkpt lat="44.31856" lon="10.2380783"><ele>949.2</ele><time>2026-04-19T14:09:22.991Z</time></trkpt><trkpt lat="44.3186817" lon="10.2380933"><ele>947.0</ele><time>2026-04-19T14:09:23.991Z</time></trkpt><trkpt lat="44.318805" lon="10.2381033"><ele>944.5</ele><time>2026-04-19T14:09:24.991Z</time></trkpt><trkpt lat="44.3189333" lon="10.2381133"><ele>942.0</ele><time>2026-04-19T14:09:25.991Z</time></trkpt><trkpt lat="44.31907" lon="10.238125"><ele>939.5</ele><time>2026-04-19T14:09:26.991Z</time></trkpt><trkpt lat="44.3192083" lon="10.2381517"><ele>937.0</ele><time>2026-04-19T14:09:27.991Z</time></trkpt><trkpt lat="44.31934" lon="10.2381917"><ele>937.0</ele><time>2026-04-19T14:09:28.991Z</time></trkpt><trkpt lat="44.3194583" lon="10.2382617"><ele>937.0</ele><time>2026-04-19T14:09:29.991Z</time></trkpt><trkpt lat="44.3195717" lon="10.2383317"><ele>937.0</ele><time>2026-04-19T14:09:30.991Z</time></trkpt><trkpt lat="44.3196967" lon="10.2384183"><ele>937.0</ele><time>2026-04-19T14:09:31.991Z</time></trkpt><trkpt lat="44.31982" lon="10.2385"><ele>938.25</ele><time>2026-04-19T14:09:32.991Z</time></trkpt><trkpt lat="44.3199433" lon="10.238595"><ele>939.5</ele><time>2026-04-19T14:09:33.991Z</time></trkpt><trkpt lat="44.320075" lon="10.2387"><ele>940.75</ele><time>2026-04-19T14:09:34.991Z</time></trkpt><trkpt lat="44.3201883" lon="10.2388117"><ele>942.0</ele><time>2026-04-19T14:09:35.991Z</time></trkpt><trkpt lat="44.3202833" lon="10.23894"><ele>941.0</ele><time>2026-04-19T14:09:36.991Z</time></trkpt><trkpt lat="44.3203733" lon="10.2390717"><ele>940.0</ele><time>2026-04-19T14:09:37.991Z</time></trkpt><trkpt lat="44.3204733" lon="10.2391867"><ele>939.0</ele><time>2026-04-19T14:09:38.991Z</time></trkpt><trkpt lat="44.3205867" lon="10.2392867"><ele>938.0</ele><time>2026-04-19T14:09:39.991Z</time></trkpt><trkpt lat="44.3207" lon="10.239375"><ele>938.0</ele><time>2026-04-19T14:09:40.991Z</time></trkpt><trkpt lat="44.3208217" lon="10.2394567"><ele>938.0</ele><time>2026-04-19T14:09:41.991Z</time></trkpt><trkpt lat="44.3209433" lon="10.2395367"><ele>938.0</ele><time>2026-04-19T14:09:42.991Z</time></trkpt><trkpt lat="44.321075" lon="10.2395883"><ele>938.0</ele><time>2026-04-19T14:09:43.991Z</time></trkpt><trkpt lat="44.321205" lon="10.23963"><ele>938.0</ele><time>2026-04-19T14:09:44.991Z</time></trkpt><trkpt lat="44.321335" lon="10.239665"><ele>938.0</ele><time>2026-04-19T14:09:45.991Z</time></trkpt><trkpt lat="44.3214567" lon="10.2396933"><ele>938.0</ele><time>2026-04-19T14:09:46.991Z</time></trkpt><trkpt lat="44.3215733" lon="10.239715"><ele>938.0</ele><time>2026-04-19T14:09:47.991Z</time></trkpt><trkpt lat="44.3216733" lon="10.2397067"><ele>938.0000000000001</ele><time>2026-04-19T14:09:48.991Z</time></trkpt><trkpt lat="44.3217633" lon="10.2396633"><ele>938.0</ele><time>2026-04-19T14:09:49.991Z</time></trkpt><trkpt lat="44.3218333" lon="10.2395917"><ele>938.0</ele><time>2026-04-19T14:09:50.991Z</time></trkpt><trkpt lat="44.3218883" lon="10.23952"><ele>938.0</ele><time>2026-04-19T14:09:51.991Z</time></trkpt><trkpt lat="44.322005" lon="10.2394767"><ele>938.0000000000001</ele><time>2026-04-19T14:09:53.991Z</time></trkpt><trkpt lat="44.322065" lon="10.2395183"><ele>938.0</ele><time>2026-04-19T14:09:54.991Z</time></trkpt><trkpt lat="44.3221233" lon="10.2395817"><ele>938.0</ele><time>2026-04-19T14:09:55.991Z</time></trkpt><trkpt lat="44.32217" lon="10.2396767"><ele>938.0</ele><time>2026-04-19T14:09:56.991Z</time></trkpt><trkpt lat="44.32222" lon="10.2397617"><ele>938.0</ele><time>2026-04-19T14:09:57.991Z</time></trkpt><trkpt lat="44.322295" lon="10.2398533"><ele>938.0</ele><time>2026-04-19T14:09:58.991Z</time></trkpt><trkpt lat="44.3223867" lon="10.2399183"><ele>938.0</ele><time>2026-04-19T14:09:59.991Z</time></trkpt><trkpt lat="44.3224833" lon="10.2399483"><ele>934.0</ele><time>2026-04-19T14:10:00.991Z</time></trkpt><trkpt lat="44.3225717" lon="10.2400017"><ele>930.0</ele><time>2026-04-19T14:10:01.991Z</time></trkpt><trkpt lat="44.3226467" lon="10.240085"><ele>926.0</ele><time>2026-04-19T14:10:02.991Z</time></trkpt><trkpt lat="44.32271" lon="10.2402117"><ele>922.0</ele><time>2026-04-19T14:10:03.991Z</time></trkpt><trkpt lat="44.3227667" lon="10.2403583"><ele>918.0</ele><time>2026-04-19T14:10:04.991Z</time></trkpt><trkpt lat="44.32282" lon="10.24052"><ele>914.25</ele><time>2026-04-19T14:10:05.991Z</time></trkpt><trkpt lat="44.3228783" lon="10.2406933"><ele>910.5</ele><time>2026-04-19T14:10:06.991Z</time></trkpt><trkpt lat="44.3229383" lon="10.240885"><ele>906.75</ele><time>2026-04-19T14:10:07.991Z</time></trkpt><trkpt lat="44.323005" lon="10.2410833"><ele>903.0</ele><time>2026-04-19T14:10:08.991Z</time></trkpt><trkpt lat="44.3230633" lon="10.2412767"><ele>902.0</ele><time>2026-04-19T14:10:09.991Z</time></trkpt><trkpt lat="44.3231267" lon="10.2414467"><ele>901.0</ele><time>2026-04-19T14:10:10.991Z</time></trkpt><trkpt lat="44.3231817" lon="10.2416017"><ele>900.0</ele><time>2026-04-19T14:10:11.991Z</time></trkpt><trkpt lat="44.3232317" lon="10.2417567"><ele>899.0</ele><time>2026-04-19T14:10:12.991Z</time></trkpt><trkpt lat="44.3232883" lon="10.241905"><ele>899.0</ele><time>2026-04-19T14:10:13.991Z</time></trkpt><trkpt lat="44.32337" lon="10.2420533"><ele>899.0</ele><time>2026-04-19T14:10:14.991Z</time></trkpt><trkpt lat="44.3234733" lon="10.2422017"><ele>899.0</ele><time>2026-04-19T14:10:15.991Z</time></trkpt><trkpt lat="44.3235983" lon="10.2423517"><ele>899.0</ele><time>2026-04-19T14:10:16.991Z</time></trkpt><trkpt lat="44.323725" lon="10.2425217"><ele>896.3333333333334</ele><time>2026-04-19T14:10:17.991Z</time></trkpt><trkpt lat="44.3238417" lon="10.2426983"><ele>893.6666666666667</ele><time>2026-04-19T14:10:18.991Z</time></trkpt><trkpt lat="44.3239367" lon="10.2428683"><ele>891.0</ele><time>2026-04-19T14:10:19.991Z</time></trkpt><trkpt lat="44.3240233" lon="10.2430367"><ele>892.25</ele><time>2026-04-19T14:10:20.991Z</time></trkpt><trkpt lat="44.3241083" lon="10.243195"><ele>893.5</ele><time>2026-04-19T14:10:21.991Z</time></trkpt><trkpt lat="44.3241933" lon="10.2433417"><ele>894.75</ele><time>2026-04-19T14:10:22.991Z</time></trkpt><trkpt lat="44.3242733" lon="10.2434983"><ele>896.0</ele><time>2026-04-19T14:10:23.991Z</time></trkpt><trkpt lat="44.3243567" lon="10.243655"><ele>896.0</ele><time>2026-04-19T14:10:24.991Z</time></trkpt><trkpt lat="44.324435" lon="10.2438367"><ele>896.0</ele><time>2026-04-19T14:10:25.991Z</time></trkpt><trkpt lat="44.324505" lon="10.2440517"><ele>896.0</ele><time>2026-04-19T14:10:26.991Z</time></trkpt><trkpt lat="44.32456" lon="10.2442833"><ele>891.6666666666667</ele><time>2026-04-19T14:10:27.991Z</time></trkpt><trkpt lat="44.3245983" lon="10.244525"><ele>887.3333333333333</ele><time>2026-04-19T14:10:28.991Z</time></trkpt><trkpt lat="44.3246367" lon="10.2447517"><ele>883.0</ele><time>2026-04-19T14:10:29.991Z</time></trkpt><trkpt lat="44.3246717" lon="10.2449567"><ele>882.0</ele><time>2026-04-19T14:10:30.991Z</time></trkpt><trkpt lat="44.3247067" lon="10.2451583"><ele>881.0</ele><time>2026-04-19T14:10:31.991Z</time></trkpt><trkpt lat="44.3247383" lon="10.245365"><ele>880.0</ele><time>2026-04-19T14:10:32.991Z</time></trkpt><trkpt lat="44.3247717" lon="10.2455683"><ele>879.0</ele><time>2026-04-19T14:10:33.992Z</time></trkpt><trkpt lat="44.3248033" lon="10.2457683"><ele>882.25</ele><time>2026-04-19T14:10:34.991Z</time></trkpt><trkpt lat="44.3248367" lon="10.24597"><ele>885.5</ele><time>2026-04-19T14:10:35.991Z</time></trkpt><trkpt lat="44.324875" lon="10.2461633"><ele>888.75</ele><time>2026-04-19T14:10:36.992Z</time></trkpt><trkpt lat="44.3249133" lon="10.2463383"><ele>892.0</ele><time>2026-04-19T14:10:37.991Z</time></trkpt><trkpt lat="44.3249617" lon="10.246495"><ele>892.0</ele><time>2026-04-19T14:10:38.991Z</time></trkpt><trkpt lat="44.3250417" lon="10.246625"><ele>892.0</ele><time>2026-04-19T14:10:39.991Z</time></trkpt><trkpt lat="44.3251433" lon="10.246745"><ele>892.0</ele><time>2026-04-19T14:10:40.991Z</time></trkpt><trkpt lat="44.3252633" lon="10.2468567"><ele>892.0</ele><time>2026-04-19T14:10:41.991Z</time></trkpt><trkpt lat="44.32538" lon="10.2469567"><ele>892.0</ele><time>2026-04-19T14:10:42.991Z</time></trkpt><trkpt lat="44.3254917" lon="10.2470517"><ele>892.0</ele><time>2026-04-19T14:10:43.992Z</time></trkpt><trkpt lat="44.3255967" lon="10.247145"><ele>892.0</ele><time>2026-04-19T14:10:44.991Z</time></trkpt><trkpt lat="44.3256983" lon="10.247245"><ele>892.0</ele><time>2026-04-19T14:10:45.991Z</time></trkpt><trkpt lat="44.325785" lon="10.2473867"><ele>892.5</ele><time>2026-04-19T14:10:46.991Z</time></trkpt><trkpt lat="44.3258517" lon="10.24755"><ele>893.0</ele><time>2026-04-19T14:10:47.991Z</time></trkpt><trkpt lat="44.325915" lon="10.2477317"><ele>893.5</ele><time>2026-04-19T14:10:48.991Z</time></trkpt><trkpt lat="44.3259517" lon="10.247935"><ele>894.0</ele><time>2026-04-19T14:10:49.991Z</time></trkpt><trkpt lat="44.325985" lon="10.2481167"><ele>892.75</ele><time>2026-04-19T14:10:50.991Z</time></trkpt><trkpt lat="44.3260167" lon="10.2482867"><ele>891.5</ele><time>2026-04-19T14:10:51.991Z</time></trkpt><trkpt lat="44.326055" lon="10.248455"><ele>890.25</ele><time>2026-04-19T14:10:52.991Z</time></trkpt><trkpt lat="44.3260867" lon="10.2486083"><ele>889.0</ele><time>2026-04-19T14:10:53.991Z</time></trkpt><trkpt lat="44.3261333" lon="10.2487533"><ele>889.0</ele><time>2026-04-19T14:10:54.991Z</time></trkpt><trkpt lat="44.3261967" lon="10.248875"><ele>889.0000000000001</ele><time>2026-04-19T14:10:55.991Z</time></trkpt><trkpt lat="44.3262767" lon="10.2489917"><ele>889.0000000000001</ele><time>2026-04-19T14:10:56.991Z</time></trkpt><trkpt lat="44.3263517" lon="10.2491067"><ele>889.0</ele><time>2026-04-19T14:10:57.991Z</time></trkpt><trkpt lat="44.326415" lon="10.249225"><ele>889.0</ele><time>2026-04-19T14:10:58.991Z</time></trkpt><trkpt lat="44.326465" lon="10.24934"><ele>887.4999999999999</ele><time>2026-04-19T14:10:59.991Z</time></trkpt><trkpt lat="44.3265033" lon="10.249445"><ele>886.0</ele><time>2026-04-19T14:11:00.992Z</time></trkpt><trkpt lat="44.326525" lon="10.2495483"><ele>884.5</ele><time>2026-04-19T14:11:01.991Z</time></trkpt><trkpt lat="44.326535" lon="10.249665"><ele>883.0</ele><time>2026-04-19T14:11:02.991Z</time></trkpt><trkpt lat="44.32652" lon="10.2497683"><ele>881.4999999999999</ele><time>2026-04-19T14:11:03.991Z</time></trkpt><trkpt lat="44.3264617" lon="10.2498567"><ele>880.0</ele><time>2026-04-19T14:11:04.991Z</time></trkpt><trkpt lat="44.3263867" lon="10.249935"><ele>880.0</ele><time>2026-04-19T14:11:05.991Z</time></trkpt><trkpt lat="44.326325" lon="10.2500217"><ele>880.0</ele><time>2026-04-19T14:11:06.991Z</time></trkpt><trkpt lat="44.3263017" lon="10.250125"><ele>880.0</ele><time>2026-04-19T14:11:07.991Z</time></trkpt><trkpt lat="44.326335" lon="10.2502617"><ele>880.0</ele><time>2026-04-19T14:11:08.991Z</time></trkpt><trkpt lat="44.3264" lon="10.2504217"><ele>880.0</ele><time>2026-04-19T14:11:09.991Z</time></trkpt><trkpt lat="44.32648" lon="10.2506133"><ele>888.5</ele><time>2026-04-19T14:11:10.991Z</time></trkpt><trkpt lat="44.32656" lon="10.2508033"><ele>897.0</ele><time>2026-04-19T14:11:11.991Z</time></trkpt><trkpt lat="44.3266183" lon="10.2509617"><ele>905.5</ele><time>2026-04-19T14:11:12.991Z</time></trkpt><trkpt lat="44.3266717" lon="10.2511133"><ele>914.0</ele><time>2026-04-19T14:11:13.991Z</time></trkpt><trkpt lat="44.3267133" lon="10.2512733"><ele>914.0</ele><time>2026-04-19T14:11:14.991Z</time></trkpt><trkpt lat="44.32674" lon="10.2514117"><ele>914.0000000000001</ele><time>2026-04-19T14:11:15.991Z</time></trkpt><trkpt lat="44.3267633" lon="10.25154"><ele>914.0000000000001</ele><time>2026-04-19T14:11:16.991Z</time></trkpt><trkpt lat="44.32679" lon="10.25166"><ele>914.0</ele><time>2026-04-19T14:11:17.991Z</time></trkpt><trkpt lat="44.3268583" lon="10.2517417"><ele>914.0</ele><time>2026-04-19T14:11:18.991Z</time></trkpt><trkpt lat="44.3269533" lon="10.2518033"><ele>910.25</ele><time>2026-04-19T14:11:19.991Z</time></trkpt><trkpt lat="44.3270617" lon="10.2518533"><ele>906.5</ele><time>2026-04-19T14:11:20.991Z</time></trkpt><trkpt lat="44.3271717" lon="10.2519067"><ele>902.75</ele><time>2026-04-19T14:11:21.991Z</time></trkpt><trkpt lat="44.3272817" lon="10.2519533"><ele>899.0</ele><time>2026-04-19T14:11:22.991Z</time></trkpt><trkpt lat="44.3273883" lon="10.252025"><ele>901.5000000000001</ele><time>2026-04-19T14:11:23.991Z</time></trkpt><trkpt lat="44.32748" lon="10.2520983"><ele>904.0</ele><time>2026-04-19T14:11:24.991Z</time></trkpt><trkpt lat="44.3275567" lon="10.2521617"><ele>906.5</ele><time>2026-04-19T14:11:25.991Z</time></trkpt><trkpt lat="44.3276233" lon="10.252225"><ele>909.0</ele><time>2026-04-19T14:11:26.991Z</time></trkpt><trkpt lat="44.3276733" lon="10.2522933"><ele>911.5000000000001</ele><time>2026-04-19T14:11:27.992Z</time></trkpt><trkpt lat="44.327715" lon="10.25237"><ele>914.0</ele><time>2026-04-19T14:11:28.991Z</time></trkpt><trkpt lat="44.3277317" lon="10.2524617"><ele>914.0</ele><time>2026-04-19T14:11:29.991Z</time></trkpt><trkpt lat="44.3277333" lon="10.252565"><ele>914.0000000000001</ele><time>2026-04-19T14:11:30.991Z</time></trkpt><trkpt lat="44.3277383" lon="10.25269"><ele>914.0000000000001</ele><time>2026-04-19T14:11:31.991Z</time></trkpt><trkpt lat="44.3277767" lon="10.252825"><ele>914.0</ele><time>2026-04-19T14:11:32.991Z</time></trkpt><trkpt lat="44.3278383" lon="10.2529617"><ele>914.0</ele><time>2026-04-19T14:11:33.991Z</time></trkpt><trkpt lat="44.3279067" lon="10.2530883"><ele>917.3333333333334</ele><time>2026-04-19T14:11:34.991Z</time></trkpt><trkpt lat="44.3279783" lon="10.253205"><ele>920.6666666666667</ele><time>2026-04-19T14:11:35.991Z</time></trkpt><trkpt lat="44.32804" lon="10.2533083"><ele>924.0</ele><time>2026-04-19T14:11:36.991Z</time></trkpt><trkpt lat="44.3280933" lon="10.2533933"><ele>927.3333333333333</ele><time>2026-04-19T14:11:37.991Z</time></trkpt><trkpt lat="44.32815" lon="10.2534583"><ele>930.6666666666666</ele><time>2026-04-19T14:11:38.991Z</time></trkpt><trkpt lat="44.3282117" lon="10.2534933"><ele>934.0</ele><time>2026-04-19T14:11:39.991Z</time></trkpt><trkpt lat="44.3282867" lon="10.2535117"><ele>933.9999999999999</ele><time>2026-04-19T14:11:40.991Z</time></trkpt><trkpt lat="44.3283583" lon="10.2535467"><ele>934.0</ele><time>2026-04-19T14:11:41.99Z</time></trkpt><trkpt lat="44.3284117" lon="10.2536"><ele>934.0</ele><time>2026-04-19T14:11:42.99Z</time></trkpt><trkpt lat="44.3284533" lon="10.2537467"><ele>934.0</ele><time>2026-04-19T14:11:44.99Z</time></trkpt><trkpt lat="44.3284567" lon="10.253845"><ele>933.9999999999999</ele><time>2026-04-19T14:11:45.99Z</time></trkpt><trkpt lat="44.3284683" lon="10.2539467"><ele>934.0</ele><time>2026-04-19T14:11:46.99Z</time></trkpt><trkpt lat="44.3285017" lon="10.25404"><ele>934.9999999999999</ele><time>2026-04-19T14:11:47.99Z</time></trkpt><trkpt lat="44.3285583" lon="10.2540933"><ele>936.0</ele><time>2026-04-19T14:11:48.99Z</time></trkpt><trkpt lat="44.328625" lon="10.2541217"><ele>937.0</ele><time>2026-04-19T14:11:49.99Z</time></trkpt><trkpt lat="44.32871" lon="10.25414"><ele>938.0</ele><time>2026-04-19T14:11:50.99Z</time></trkpt><trkpt lat="44.3288" lon="10.2541717"><ele>938.9999999999999</ele><time>2026-04-19T14:11:51.99Z</time></trkpt><trkpt lat="44.3288683" lon="10.2542317"><ele>940.0</ele><time>2026-04-19T14:11:52.99Z</time></trkpt><trkpt lat="44.3289283" lon="10.2543183"><ele>939.9999999999999</ele><time>2026-04-19T14:11:53.99Z</time></trkpt><trkpt lat="44.3289867" lon="10.2543983"><ele>940.0</ele><time>2026-04-19T14:11:54.99Z</time></trkpt><trkpt lat="44.3290533" lon="10.2544633"><ele>940.0</ele><time>2026-04-19T14:11:55.99Z</time></trkpt><trkpt lat="44.32913" lon="10.2544883"><ele>940.0</ele><time>2026-04-19T14:11:56.99Z</time></trkpt><trkpt lat="44.32921" lon="10.2544833"><ele>939.9999999999999</ele><time>2026-04-19T14:11:57.99Z</time></trkpt><trkpt lat="44.3292883" lon="10.2544833"><ele>940.0</ele><time>2026-04-19T14:11:58.99Z</time></trkpt><trkpt lat="44.3293567" lon="10.254515"><ele>939.9999999999999</ele><time>2026-04-19T14:11:59.99Z</time></trkpt><trkpt lat="44.329415" lon="10.2545633"><ele>940.0</ele><time>2026-04-19T14:12:00.99Z</time></trkpt><trkpt lat="44.329455" lon="10.2546333"><ele>940.0</ele><time>2026-04-19T14:12:01.99Z</time></trkpt><trkpt lat="44.3294633" lon="10.25473"><ele>940.0</ele><time>2026-04-19T14:12:02.99Z</time></trkpt><trkpt lat="44.3294517" lon="10.25486"><ele>939.9999999999999</ele><time>2026-04-19T14:12:03.99Z</time></trkpt><trkpt lat="44.3294283" lon="10.25501"><ele>940.0</ele><time>2026-04-19T14:12:04.99Z</time></trkpt><trkpt lat="44.3294217" lon="10.255145"><ele>938.2</ele><time>2026-04-19T14:12:05.99Z</time></trkpt><trkpt lat="44.3294283" lon="10.25527"><ele>936.4</ele><time>2026-04-19T14:12:06.99Z</time></trkpt><trkpt lat="44.3294633" lon="10.2553683"><ele>934.5999999999999</ele><time>2026-04-19T14:12:07.99Z</time></trkpt><trkpt lat="44.3295233" lon="10.255435"><ele>932.8</ele><time>2026-04-19T14:12:08.99Z</time></trkpt><trkpt lat="44.3296283" lon="10.25544"><ele>931.0</ele><time>2026-04-19T14:12:09.99Z</time></trkpt><trkpt lat="44.32974" lon="10.2554233"><ele>931.0</ele><time>2026-04-19T14:12:10.99Z</time></trkpt><trkpt lat="44.32986" lon="10.2554017"><ele>930.9999999999999</ele><time>2026-04-19T14:12:11.99Z</time></trkpt><trkpt lat="44.3299733" lon="10.255385"><ele>930.9999999999999</ele><time>2026-04-19T14:12:12.99Z</time></trkpt><trkpt lat="44.3300733" lon="10.2553717"><ele>931.0</ele><time>2026-04-19T14:12:13.991Z</time></trkpt><trkpt lat="44.3301633" lon="10.255385"><ele>931.0</ele><time>2026-04-19T14:12:14.99Z</time></trkpt><trkpt lat="44.330235" lon="10.2554267"><ele>931.0</ele><time>2026-04-19T14:12:15.99Z</time></trkpt><trkpt lat="44.3302933" lon="10.2555983"><ele>930.9999999999999</ele><time>2026-04-19T14:12:17.99Z</time></trkpt><trkpt lat="44.3303017" lon="10.255725"><ele>930.9999999999999</ele><time>2026-04-19T14:12:18.99Z</time></trkpt><trkpt lat="44.3303317" lon="10.2558467"><ele>931.0</ele><time>2026-04-19T14:12:19.99Z</time></trkpt><trkpt lat="44.3303933" lon="10.2559583"><ele>931.0</ele><time>2026-04-19T14:12:20.99Z</time></trkpt><trkpt lat="44.330505" lon="10.256055"><ele>926.3333333333333</ele><time>2026-04-19T14:12:21.99Z</time></trkpt><trkpt lat="44.3306467" lon="10.2561617"><ele>921.6666666666667</ele><time>2026-04-19T14:12:22.99Z</time></trkpt><trkpt lat="44.33078" lon="10.256255"><ele>917.0</ele><time>2026-04-19T14:12:23.991Z</time></trkpt><trkpt lat="44.3309083" lon="10.2563417"><ele>917.0</ele><time>2026-04-19T14:12:24.99Z</time></trkpt><trkpt lat="44.33103" lon="10.25642"><ele>917.0</ele><time>2026-04-19T14:12:25.99Z</time></trkpt><trkpt lat="44.331145" lon="10.25649"><ele>917.0</ele><time>2026-04-19T14:12:26.99Z</time></trkpt><trkpt lat="44.3312583" lon="10.256545"><ele>917.0</ele><time>2026-04-19T14:12:27.99Z</time></trkpt><trkpt lat="44.3313617" lon="10.25662"><ele>913.0</ele><time>2026-04-19T14:12:28.99Z</time></trkpt><trkpt lat="44.33145" lon="10.2567067"><ele>909.0</ele><time>2026-04-19T14:12:29.991Z</time></trkpt><trkpt lat="44.3315217" lon="10.25681"><ele>905.0</ele><time>2026-04-19T14:12:30.99Z</time></trkpt><trkpt lat="44.3315933" lon="10.256905"><ele>901.0</ele><time>2026-04-19T14:12:31.99Z</time></trkpt><trkpt lat="44.331665" lon="10.25698"><ele>897.0</ele><time>2026-04-19T14:12:32.99Z</time></trkpt><trkpt lat="44.3317517" lon="10.2570333"><ele>897.0</ele><time>2026-04-19T14:12:33.99Z</time></trkpt><trkpt lat="44.331855" lon="10.25706"><ele>897.0</ele><time>2026-04-19T14:12:34.99Z</time></trkpt><trkpt lat="44.3319617" lon="10.2570683"><ele>897.0</ele><time>2026-04-19T14:12:35.99Z</time></trkpt><trkpt lat="44.3320633" lon="10.257065"><ele>897.0</ele><time>2026-04-19T14:12:36.99Z</time></trkpt><trkpt lat="44.3321733" lon="10.2570483"><ele>897.0</ele><time>2026-04-19T14:12:37.99Z</time></trkpt><trkpt lat="44.3322783" lon="10.256975"><ele>893.25</ele><time>2026-04-19T14:12:38.99Z</time></trkpt><trkpt lat="44.3323767" lon="10.256905"><ele>889.5</ele><time>2026-04-19T14:12:39.99Z</time></trkpt><trkpt lat="44.3324833" lon="10.2567917"><ele>885.75</ele><time>2026-04-19T14:12:40.99Z</time></trkpt><trkpt lat="44.3325933" lon="10.25665"><ele>882.0</ele><time>2026-04-19T14:12:41.99Z</time></trkpt><trkpt lat="44.3327167" lon="10.2564717"><ele>877.0</ele><time>2026-04-19T14:12:42.99Z</time></trkpt><trkpt lat="44.33285" lon="10.25631"><ele>872.0</ele><time>2026-04-19T14:12:43.99Z</time></trkpt><trkpt lat="44.332995" lon="10.2561767"><ele>867.0</ele><time>2026-04-19T14:12:44.99Z</time></trkpt><trkpt lat="44.33313" lon="10.2560633"><ele>867.0</ele><time>2026-04-19T14:12:45.99Z</time></trkpt><trkpt lat="44.3332417" lon="10.255935"><ele>867.0</ele><time>2026-04-19T14:12:46.99Z</time></trkpt><trkpt lat="44.33333" lon="10.25578"><ele>867.0</ele><time>2026-04-19T14:12:47.99Z</time></trkpt><trkpt lat="44.33341" lon="10.2556117"><ele>867.0</ele><time>2026-04-19T14:12:48.99Z</time></trkpt><trkpt lat="44.3334967" lon="10.255465"><ele>872.25</ele><time>2026-04-19T14:12:49.99Z</time></trkpt><trkpt lat="44.3335983" lon="10.255355"><ele>877.5</ele><time>2026-04-19T14:12:50.99Z</time></trkpt><trkpt lat="44.3337083" lon="10.255255"><ele>882.75</ele><time>2026-04-19T14:12:51.99Z</time></trkpt><trkpt lat="44.33381" lon="10.2551183"><ele>888.0</ele><time>2026-04-19T14:12:52.99Z</time></trkpt><trkpt lat="44.3339" lon="10.254935"><ele>882.0</ele><time>2026-04-19T14:12:53.99Z</time></trkpt><trkpt lat="44.3339817" lon="10.2547433"><ele>876.0</ele><time>2026-04-19T14:12:54.99Z</time></trkpt><trkpt lat="44.3340467" lon="10.254565"><ele>870.0</ele><time>2026-04-19T14:12:55.99Z</time></trkpt><trkpt lat="44.334105" lon="10.2544083"><ele>864.0</ele><time>2026-04-19T14:12:56.99Z</time></trkpt><trkpt lat="44.3341483" lon="10.2542917"><ele>864.0</ele><time>2026-04-19T14:12:57.99Z</time></trkpt><trkpt lat="44.3341833" lon="10.2542033"><ele>864.0000000000001</ele><time>2026-04-19T14:12:58.99Z</time></trkpt><trkpt lat="44.33425" lon="10.254145"><ele>864.0000000000001</ele><time>2026-04-19T14:13:00.99Z</time></trkpt><trkpt lat="44.3342967" lon="10.25429"><ele>864.0</ele><time>2026-04-19T14:13:02.99Z</time></trkpt><trkpt lat="44.33426" lon="10.254465"><ele>864.0</ele><time>2026-04-19T14:13:04.99Z</time></trkpt><trkpt lat="44.3342333" lon="10.25459"><ele>864.0</ele><time>2026-04-19T14:13:05.99Z</time></trkpt><trkpt lat="44.3342" lon="10.2547567"><ele>864.0000000000001</ele><time>2026-04-19T14:13:06.99Z</time></trkpt><trkpt lat="44.3341733" lon="10.25493"><ele>864.0000000000001</ele><time>2026-04-19T14:13:07.99Z</time></trkpt><trkpt lat="44.3341733" lon="10.2550567"><ele>864.0</ele><time>2026-04-19T14:13:08.99Z</time></trkpt><trkpt lat="44.3341917" lon="10.255155"><ele>864.0</ele><time>2026-04-19T14:13:09.99Z</time></trkpt><trkpt lat="44.3342867" lon="10.25518"><ele>864.0</ele><time>2026-04-19T14:13:11.99Z</time></trkpt><trkpt lat="44.3343217" lon="10.255105"><ele>864.0000000000001</ele><time>2026-04-19T14:13:12.99Z</time></trkpt><trkpt lat="44.3343383" lon="10.254995"><ele>864.0000000000001</ele><time>2026-04-19T14:13:13.99Z</time></trkpt><trkpt lat="44.3343433" lon="10.25485"><ele>864.0</ele><time>2026-04-19T14:13:14.99Z</time></trkpt><trkpt lat="44.3343567" lon="10.254685"><ele>864.0</ele><time>2026-04-19T14:13:15.99Z</time></trkpt><trkpt lat="44.3343817" lon="10.2545117"><ele>864.0</ele><time>2026-04-19T14:13:16.99Z</time></trkpt><trkpt lat="44.334435" lon="10.25433"><ele>864.0</ele><time>2026-04-19T14:13:17.99Z</time></trkpt><trkpt lat="44.3345217" lon="10.2541467"><ele>864.0</ele><time>2026-04-19T14:13:18.99Z</time></trkpt><trkpt lat="44.3346283" lon="10.25396"><ele>857.3333333333333</ele><time>2026-04-19T14:13:19.99Z</time></trkpt><trkpt lat="44.3347767" lon="10.25377"><ele>850.6666666666666</ele><time>2026-04-19T14:13:20.99Z</time></trkpt><trkpt lat="44.3349417" lon="10.25357"><ele>844.0</ele><time>2026-04-19T14:13:21.99Z</time></trkpt><trkpt lat="44.3351117" lon="10.253355"><ele>844.0</ele><time>2026-04-19T14:13:22.99Z</time></trkpt><trkpt lat="44.3352733" lon="10.253135"><ele>844.0</ele><time>2026-04-19T14:13:23.99Z</time></trkpt><trkpt lat="44.3354333" lon="10.2529167"><ele>844.0</ele><time>2026-04-19T14:13:24.99Z</time></trkpt><trkpt lat="44.33559" lon="10.2526867"><ele>843.0</ele><time>2026-04-19T14:13:25.99Z</time></trkpt><trkpt lat="44.335745" lon="10.2524633"><ele>842.0</ele><time>2026-04-19T14:13:26.991Z</time></trkpt><trkpt lat="44.3358867" lon="10.2522417"><ele>841.0</ele><time>2026-04-19T14:13:27.99Z</time></trkpt><trkpt lat="44.3360183" lon="10.252025"><ele>841.0</ele><time>2026-04-19T14:13:28.99Z</time></trkpt><trkpt lat="44.3361417" lon="10.251825"><ele>841.0</ele><time>2026-04-19T14:13:29.99Z</time></trkpt><trkpt lat="44.3362467" lon="10.2516533"><ele>841.0</ele><time>2026-04-19T14:13:30.99Z</time></trkpt><trkpt lat="44.336335" lon="10.251505"><ele>837.0</ele><time>2026-04-19T14:13:31.99Z</time></trkpt><trkpt lat="44.3364033" lon="10.25138"><ele>833.0</ele><time>2026-04-19T14:13:32.99Z</time></trkpt><trkpt lat="44.3364567" lon="10.25126"><ele>829.0</ele><time>2026-04-19T14:13:33.99Z</time></trkpt><trkpt lat="44.3364967" lon="10.2511583"><ele>825.0</ele><time>2026-04-19T14:13:34.99Z</time></trkpt><trkpt lat="44.3365683" lon="10.2510733"><ele>821.0</ele><time>2026-04-19T14:13:36.99Z</time></trkpt><trkpt lat="44.3366217" lon="10.2511917"><ele>821.0</ele><time>2026-04-19T14:13:38.99Z</time></trkpt><trkpt lat="44.3366033" lon="10.2512933"><ele>821.0</ele><time>2026-04-19T14:13:39.99Z</time></trkpt><trkpt lat="44.33656" lon="10.2514317"><ele>821.0</ele><time>2026-04-19T14:13:40.99Z</time></trkpt><trkpt lat="44.3364783" lon="10.2515883"><ele>821.0</ele><time>2026-04-19T14:13:41.99Z</time></trkpt><trkpt lat="44.3363883" lon="10.2517733"><ele>821.0</ele><time>2026-04-19T14:13:42.99Z</time></trkpt><trkpt lat="44.3362967" lon="10.25198"><ele>821.0</ele><time>2026-04-19T14:13:43.99Z</time></trkpt><trkpt lat="44.3362083" lon="10.2522083"><ele>821.0</ele><time>2026-04-19T14:13:44.99Z</time></trkpt><trkpt lat="44.3361267" lon="10.2524283"><ele>821.0</ele><time>2026-04-19T14:13:45.99Z</time></trkpt><trkpt lat="44.3360483" lon="10.2526333"><ele>821.0</ele><time>2026-04-19T14:13:46.99Z</time></trkpt><trkpt lat="44.3359717" lon="10.25283"><ele>821.0</ele><time>2026-04-19T14:13:47.99Z</time></trkpt><trkpt lat="44.3359083" lon="10.253"><ele>818.0</ele><time>2026-04-19T14:13:48.99Z</time></trkpt><trkpt lat="44.3358683" lon="10.25313"><ele>815.0</ele><time>2026-04-19T14:13:49.99Z</time></trkpt><trkpt lat="44.3358433" lon="10.2532333"><ele>812.0</ele><time>2026-04-19T14:13:50.991Z</time></trkpt><trkpt lat="44.3358767" lon="10.2533867"><ele>809.0</ele><time>2026-04-19T14:13:52.99Z</time></trkpt><trkpt lat="44.3359867" lon="10.253415"><ele>806.0</ele><time>2026-04-19T14:13:54.99Z</time></trkpt><trkpt lat="44.3360333" lon="10.2533217"><ele>806.0</ele><time>2026-04-19T14:13:55.991Z</time></trkpt><trkpt lat="44.3360683" lon="10.2531917"><ele>806.0</ele><time>2026-04-19T14:13:56.99Z</time></trkpt><trkpt lat="44.3361017" lon="10.2530533"><ele>806.0</ele><time>2026-04-19T14:13:57.99Z</time></trkpt><trkpt lat="44.3361533" lon="10.25287"><ele>806.0</ele><time>2026-04-19T14:13:58.99Z</time></trkpt><trkpt lat="44.3362267" lon="10.2527067"><ele>803.8</ele><time>2026-04-19T14:13:59.99Z</time></trkpt><trkpt lat="44.3362967" lon="10.2525717"><ele>801.5999999999999</ele><time>2026-04-19T14:14:00.99Z</time></trkpt><trkpt lat="44.3363617" lon="10.2524767"><ele>799.4</ele><time>2026-04-19T14:14:01.99Z</time></trkpt><trkpt lat="44.3364383" lon="10.2524383"><ele>797.2</ele><time>2026-04-19T14:14:02.99Z</time></trkpt><trkpt lat="44.3365183" lon="10.2524933"><ele>795.0</ele><time>2026-04-19T14:14:03.99Z</time></trkpt><trkpt lat="44.3366133" lon="10.2526217"><ele>795.0</ele><time>2026-04-19T14:14:04.99Z</time></trkpt><trkpt lat="44.33671" lon="10.252765"><ele>795.0</ele><time>2026-04-19T14:14:05.99Z</time></trkpt><trkpt lat="44.3368183" lon="10.2529383"><ele>795.0</ele><time>2026-04-19T14:14:06.99Z</time></trkpt><trkpt lat="44.3369417" lon="10.25312"><ele>791.0</ele><time>2026-04-19T14:14:07.99Z</time></trkpt><trkpt lat="44.337075" lon="10.253315"><ele>787.0</ele><time>2026-04-19T14:14:08.99Z</time></trkpt><trkpt lat="44.3372083" lon="10.2535117"><ele>783.0</ele><time>2026-04-19T14:14:09.99Z</time></trkpt><trkpt lat="44.33733" lon="10.2536917"><ele>781.3333333333333</ele><time>2026-04-19T14:14:10.99Z</time></trkpt><trkpt lat="44.337435" lon="10.25387"><ele>779.6666666666666</ele><time>2026-04-19T14:14:11.99Z</time></trkpt><trkpt lat="44.3374933" lon="10.2540683"><ele>778.0</ele><time>2026-04-19T14:14:12.99Z</time></trkpt><trkpt lat="44.3375067" lon="10.2542717"><ele>776.6666666666666</ele><time>2026-04-19T14:14:13.99Z</time></trkpt><trkpt lat="44.33749" lon="10.2544967"><ele>775.3333333333333</ele><time>2026-04-19T14:14:14.99Z</time></trkpt><trkpt lat="44.33745" lon="10.2547067"><ele>774.0</ele><time>2026-04-19T14:14:15.99Z</time></trkpt><trkpt lat="44.3374" lon="10.2549133"><ele>771.25</ele><time>2026-04-19T14:14:16.99Z</time></trkpt><trkpt lat="44.33733" lon="10.2551133"><ele>768.5</ele><time>2026-04-19T14:14:17.99Z</time></trkpt><trkpt lat="44.33724" lon="10.2552617"><ele>765.75</ele><time>2026-04-19T14:14:18.99Z</time></trkpt><trkpt lat="44.33715" lon="10.2554017"><ele>763.0</ele><time>2026-04-19T14:14:19.99Z</time></trkpt><trkpt lat="44.337025" lon="10.25564"><ele>763.0</ele><time>2026-04-19T14:14:21.99Z</time></trkpt><trkpt lat="44.33702" lon="10.2557517"><ele>763.0</ele><time>2026-04-19T14:14:22.99Z</time></trkpt><trkpt lat="44.337065" lon="10.25587"><ele>763.0</ele><time>2026-04-19T14:14:23.99Z</time></trkpt><trkpt lat="44.3371533" lon="10.25598"><ele>763.0</ele><time>2026-04-19T14:14:24.99Z</time></trkpt><trkpt lat="44.3372717" lon="10.2560917"><ele>763.0</ele><time>2026-04-19T14:14:25.99Z</time></trkpt><trkpt lat="44.337385" lon="10.2562283"><ele>773.6666666666667</ele><time>2026-04-19T14:14:26.99Z</time></trkpt><trkpt lat="44.3374717" lon="10.2563967"><ele>784.3333333333334</ele><time>2026-04-19T14:14:27.991Z</time></trkpt><trkpt lat="44.3375317" lon="10.256615"><ele>795.0</ele><time>2026-04-19T14:14:28.99Z</time></trkpt><trkpt lat="44.3375733" lon="10.2568433"><ele>795.0</ele><time>2026-04-19T14:14:29.99Z</time></trkpt><trkpt lat="44.3376067" lon="10.2571"><ele>795.0</ele><time>2026-04-19T14:14:30.99Z</time></trkpt><trkpt lat="44.337645" lon="10.2573633"><ele>795.0</ele><time>2026-04-19T14:14:31.99Z</time></trkpt><trkpt lat="44.3376867" lon="10.2576117"><ele>792.0</ele><time>2026-04-19T14:14:32.99Z</time></trkpt><trkpt lat="44.337725" lon="10.25784"><ele>789.0</ele><time>2026-04-19T14:14:33.99Z</time></trkpt><trkpt lat="44.3377583" lon="10.25806"><ele>786.0</ele><time>2026-04-19T14:14:34.99Z</time></trkpt><trkpt lat="44.3378033" lon="10.258265"><ele>784.3333333333333</ele><time>2026-04-19T14:14:35.99Z</time></trkpt><trkpt lat="44.3378667" lon="10.258465"><ele>782.6666666666666</ele><time>2026-04-19T14:14:36.99Z</time></trkpt><trkpt lat="44.3379517" lon="10.2586417"><ele>781.0</ele><time>2026-04-19T14:14:37.99Z</time></trkpt><trkpt lat="44.3380667" lon="10.2587833"><ele>781.6666666666666</ele><time>2026-04-19T14:14:38.991Z</time></trkpt><trkpt lat="44.3382067" lon="10.2589033"><ele>782.3333333333333</ele><time>2026-04-19T14:14:39.99Z</time></trkpt><trkpt lat="44.3383583" lon="10.2589867"><ele>783.0</ele><time>2026-04-19T14:14:40.991Z</time></trkpt><trkpt lat="44.3385033" lon="10.2590717"><ele>783.0</ele><time>2026-04-19T14:14:41.991Z</time></trkpt><trkpt lat="44.3386383" lon="10.2591567"><ele>783.0</ele><time>2026-04-19T14:14:42.99Z</time></trkpt><trkpt lat="44.3387567" lon="10.2592617"><ele>783.0</ele><time>2026-04-19T14:14:43.991Z</time></trkpt><trkpt lat="44.3388567" lon="10.259395"><ele>783.0</ele><time>2026-04-19T14:14:44.99Z</time></trkpt><trkpt lat="44.33894" lon="10.2595483"><ele>786.0</ele><time>2026-04-19T14:14:45.99Z</time></trkpt><trkpt lat="44.339005" lon="10.259715"><ele>789.0</ele><time>2026-04-19T14:14:46.99Z</time></trkpt><trkpt lat="44.3390533" lon="10.259905"><ele>792.0</ele><time>2026-04-19T14:14:47.99Z</time></trkpt><trkpt lat="44.33908" lon="10.2601033"><ele>795.0</ele><time>2026-04-19T14:14:48.99Z</time></trkpt><trkpt lat="44.3390567" lon="10.260285"><ele>795.0</ele><time>2026-04-19T14:14:49.99Z</time></trkpt><trkpt lat="44.3390167" lon="10.2604617"><ele>795.0</ele><time>2026-04-19T14:14:50.99Z</time></trkpt><trkpt lat="44.3389733" lon="10.2606517"><ele>795.0</ele><time>2026-04-19T14:14:51.99Z</time></trkpt><trkpt lat="44.3389467" lon="10.2608483"><ele>795.0</ele><time>2026-04-19T14:14:52.99Z</time></trkpt><trkpt lat="44.33893" lon="10.261025"><ele>795.5</ele><time>2026-04-19T14:14:53.99Z</time></trkpt><trkpt lat="44.3389317" lon="10.261205"><ele>796.0</ele><time>2026-04-19T14:14:54.99Z</time></trkpt><trkpt lat="44.338965" lon="10.2613783"><ele>796.5</ele><time>2026-04-19T14:14:55.99Z</time></trkpt><trkpt lat="44.3390283" lon="10.26155"><ele>797.0</ele><time>2026-04-19T14:14:56.99Z</time></trkpt><trkpt lat="44.3391" lon="10.2616983"><ele>797.0</ele><time>2026-04-19T14:14:57.99Z</time></trkpt><trkpt lat="44.3391917" lon="10.2618367"><ele>797.0</ele><time>2026-04-19T14:14:58.99Z</time></trkpt><trkpt lat="44.339305" lon="10.261925"><ele>797.0</ele><time>2026-04-19T14:14:59.99Z</time></trkpt><trkpt lat="44.33943" lon="10.2620083"><ele>797.0</ele><time>2026-04-19T14:15:00.99Z</time></trkpt><trkpt lat="44.339535" lon="10.262115"><ele>797.0</ele><time>2026-04-19T14:15:01.99Z</time></trkpt><trkpt lat="44.3396233" lon="10.2622433"><ele>797.0</ele><time>2026-04-19T14:15:02.99Z</time></trkpt><trkpt lat="44.33969" lon="10.2623967"><ele>797.0</ele><time>2026-04-19T14:15:03.99Z</time></trkpt><trkpt lat="44.3397183" lon="10.26255"><ele>797.0</ele><time>2026-04-19T14:15:04.99Z</time></trkpt><trkpt lat="44.3397083" lon="10.262705"><ele>796.75</ele><time>2026-04-19T14:15:05.99Z</time></trkpt><trkpt lat="44.339655" lon="10.262845"><ele>796.5</ele><time>2026-04-19T14:15:06.99Z</time></trkpt><trkpt lat="44.3395783" lon="10.262975"><ele>796.25</ele><time>2026-04-19T14:15:07.99Z</time></trkpt><trkpt lat="44.3394983" lon="10.263105"><ele>796.0</ele><time>2026-04-19T14:15:08.99Z</time></trkpt><trkpt lat="44.33945" lon="10.26326"><ele>796.0</ele><time>2026-04-19T14:15:09.99Z</time></trkpt><trkpt lat="44.3394467" lon="10.263445"><ele>796.0</ele><time>2026-04-19T14:15:10.99Z</time></trkpt><trkpt lat="44.339475" lon="10.263645"><ele>796.0</ele><time>2026-04-19T14:15:11.99Z</time></trkpt><trkpt lat="44.3395017" lon="10.26386"><ele>796.0</ele><time>2026-04-19T14:15:12.99Z</time></trkpt><trkpt lat="44.33951" lon="10.2640567"><ele>796.0</ele><time>2026-04-19T14:15:13.99Z</time></trkpt><trkpt lat="44.3395" lon="10.2642333"><ele>796.0</ele><time>2026-04-19T14:15:14.99Z</time></trkpt><trkpt lat="44.3394783" lon="10.2643883"><ele>796.0</ele><time>2026-04-19T14:15:15.99Z</time></trkpt><trkpt lat="44.3394517" lon="10.264535"><ele>796.0</ele><time>2026-04-19T14:15:16.99Z</time></trkpt><trkpt lat="44.339435" lon="10.26467"><ele>796.0</ele><time>2026-04-19T14:15:17.99Z</time></trkpt><trkpt lat="44.3394333" lon="10.2648"><ele>797.1666666666666</ele><time>2026-04-19T14:15:18.99Z</time></trkpt><trkpt lat="44.3394367" lon="10.2649217"><ele>798.3333333333333</ele><time>2026-04-19T14:15:19.99Z</time></trkpt><trkpt lat="44.3394433" lon="10.2650483"><ele>799.5</ele><time>2026-04-19T14:15:20.99Z</time></trkpt><trkpt lat="44.339445" lon="10.2651633"><ele>800.6666666666667</ele><time>2026-04-19T14:15:21.99Z</time></trkpt><trkpt lat="44.3394517" lon="10.26527"><ele>801.8333333333334</ele><time>2026-04-19T14:15:22.99Z</time></trkpt><trkpt lat="44.3394817" lon="10.2653683"><ele>803.0</ele><time>2026-04-19T14:15:23.99Z</time></trkpt><trkpt lat="44.3395383" lon="10.2654467"><ele>803.0</ele><time>2026-04-19T14:15:24.99Z</time></trkpt><trkpt lat="44.3396183" lon="10.26549"><ele>803.0</ele><time>2026-04-19T14:15:25.99Z</time></trkpt><trkpt lat="44.3397117" lon="10.26549"><ele>803.0</ele><time>2026-04-19T14:15:26.99Z</time></trkpt><trkpt lat="44.3398217" lon="10.2654833"><ele>803.0</ele><time>2026-04-19T14:15:27.99Z</time></trkpt><trkpt lat="44.3399433" lon="10.2655183"><ele>803.0</ele><time>2026-04-19T14:15:28.99Z</time></trkpt><trkpt lat="44.3400733" lon="10.2655967"><ele>802.3333333333334</ele><time>2026-04-19T14:15:29.99Z</time></trkpt><trkpt lat="44.3402167" lon="10.2656833"><ele>801.6666666666667</ele><time>2026-04-19T14:15:30.99Z</time></trkpt><trkpt lat="44.3403683" lon="10.2657717"><ele>801.0</ele><time>2026-04-19T14:15:31.99Z</time></trkpt><trkpt lat="44.3405333" lon="10.2658567"><ele>802.3333333333333</ele><time>2026-04-19T14:15:32.99Z</time></trkpt><trkpt lat="44.3407" lon="10.2659467"><ele>803.6666666666666</ele><time>2026-04-19T14:15:33.99Z</time></trkpt><trkpt lat="44.3408567" lon="10.26604"><ele>805.0</ele><time>2026-04-19T14:15:34.99Z</time></trkpt><trkpt lat="44.341005" lon="10.2661483"><ele>805.0</ele><time>2026-04-19T14:15:35.99Z</time></trkpt><trkpt lat="44.3411517" lon="10.266275"><ele>805.0</ele><time>2026-04-19T14:15:36.99Z</time></trkpt><trkpt lat="44.341295" lon="10.2664117"><ele>805.0</ele><time>2026-04-19T14:15:37.99Z</time></trkpt><trkpt lat="44.3414283" lon="10.26656"><ele>805.6666666666666</ele><time>2026-04-19T14:15:38.99Z</time></trkpt><trkpt lat="44.3415583" lon="10.2667233"><ele>806.3333333333333</ele><time>2026-04-19T14:15:39.99Z</time></trkpt><trkpt lat="44.3416783" lon="10.266905"><ele>807.0</ele><time>2026-04-19T14:15:40.99Z</time></trkpt><trkpt lat="44.3417833" lon="10.2670883"><ele>807.0</ele><time>2026-04-19T14:15:41.99Z</time></trkpt><trkpt lat="44.3418733" lon="10.2672717"><ele>807.0</ele><time>2026-04-19T14:15:42.99Z</time></trkpt><trkpt lat="44.3419533" lon="10.2674633"><ele>807.0</ele><time>2026-04-19T14:15:43.99Z</time></trkpt><trkpt lat="44.3420267" lon="10.2676567"><ele>803.0</ele><time>2026-04-19T14:15:44.99Z</time></trkpt><trkpt lat="44.34209" lon="10.2678633"><ele>799.0</ele><time>2026-04-19T14:15:45.99Z</time></trkpt><trkpt lat="44.3421433" lon="10.2680733"><ele>795.0</ele><time>2026-04-19T14:15:46.99Z</time></trkpt><trkpt lat="44.342195" lon="10.2682917"><ele>800.0</ele><time>2026-04-19T14:15:47.991Z</time></trkpt><trkpt lat="44.3422317" lon="10.2685167"><ele>805.0</ele><time>2026-04-19T14:15:48.99Z</time></trkpt><trkpt lat="44.34226" lon="10.2687467"><ele>810.0</ele><time>2026-04-19T14:15:49.99Z</time></trkpt><trkpt lat="44.34227" lon="10.2689867"><ele>810.3333333333333</ele><time>2026-04-19T14:15:50.99Z</time></trkpt><trkpt lat="44.3422817" lon="10.2692283"><ele>810.6666666666666</ele><time>2026-04-19T14:15:51.99Z</time></trkpt><trkpt lat="44.3422967" lon="10.2694767"><ele>811.0</ele><time>2026-04-19T14:15:52.99Z</time></trkpt><trkpt lat="44.3423183" lon="10.2697317"><ele>810.6666666666666</ele><time>2026-04-19T14:15:53.99Z</time></trkpt><trkpt lat="44.3423367" lon="10.2699733"><ele>810.3333333333333</ele><time>2026-04-19T14:15:54.99Z</time></trkpt><trkpt lat="44.3423533" lon="10.2702183"><ele>810.0</ele><time>2026-04-19T14:15:55.99Z</time></trkpt><trkpt lat="44.342365" lon="10.270465"><ele>808.0</ele><time>2026-04-19T14:15:56.99Z</time></trkpt><trkpt lat="44.3423783" lon="10.2707067"><ele>806.0</ele><time>2026-04-19T14:15:57.99Z</time></trkpt><trkpt lat="44.342395" lon="10.2709467"><ele>804.0</ele><time>2026-04-19T14:15:58.99Z</time></trkpt><trkpt lat="44.3424183" lon="10.2711933"><ele>804.0</ele><time>2026-04-19T14:15:59.99Z</time></trkpt><trkpt lat="44.3424517" lon="10.2714317"><ele>804.0</ele><time>2026-04-19T14:16:00.99Z</time></trkpt><trkpt lat="44.3424933" lon="10.2716717"><ele>804.0</ele><time>2026-04-19T14:16:01.99Z</time></trkpt><trkpt lat="44.3425483" lon="10.27192"><ele>802.3333333333333</ele><time>2026-04-19T14:16:02.99Z</time></trkpt><trkpt lat="44.3426167" lon="10.272165"><ele>800.6666666666666</ele><time>2026-04-19T14:16:03.99Z</time></trkpt><trkpt lat="44.3426933" lon="10.272415"><ele>799.0</ele><time>2026-04-19T14:16:04.99Z</time></trkpt><trkpt lat="44.3427833" lon="10.2726767"><ele>797.0</ele><time>2026-04-19T14:16:05.991Z</time></trkpt><trkpt lat="44.3428867" lon="10.272915"><ele>795.0</ele><time>2026-04-19T14:16:06.99Z</time></trkpt><trkpt lat="44.342995" lon="10.2731467"><ele>793.0</ele><time>2026-04-19T14:16:07.99Z</time></trkpt><trkpt lat="44.3431033" lon="10.2733683"><ele>793.0</ele><time>2026-04-19T14:16:08.99Z</time></trkpt><trkpt lat="44.3432133" lon="10.2735767"><ele>793.0</ele><time>2026-04-19T14:16:09.99Z</time></trkpt><trkpt lat="44.3433267" lon="10.2737783"><ele>793.0</ele><time>2026-04-19T14:16:10.99Z</time></trkpt><trkpt lat="44.3434433" lon="10.2739883"><ele>788.6666666666666</ele><time>2026-04-19T14:16:11.99Z</time></trkpt><trkpt lat="44.343565" lon="10.2742083"><ele>784.3333333333333</ele><time>2026-04-19T14:16:12.99Z</time></trkpt><trkpt lat="44.3436883" lon="10.27443"><ele>780.0</ele><time>2026-04-19T14:16:13.99Z</time></trkpt><trkpt lat="44.343815" lon="10.2746583"><ele>778.0</ele><time>2026-04-19T14:16:14.99Z</time></trkpt><trkpt lat="44.3439483" lon="10.2749"><ele>776.0</ele><time>2026-04-19T14:16:15.99Z</time></trkpt><trkpt lat="44.3440867" lon="10.27515"><ele>774.0</ele><time>2026-04-19T14:16:16.99Z</time></trkpt><trkpt lat="44.3442283" lon="10.2753967"><ele>771.3333333333334</ele><time>2026-04-19T14:16:17.99Z</time></trkpt><trkpt lat="44.3443683" lon="10.2756417"><ele>768.6666666666667</ele><time>2026-04-19T14:16:18.99Z</time></trkpt><trkpt lat="44.3445067" lon="10.2758783"><ele>766.0</ele><time>2026-04-19T14:16:19.99Z</time></trkpt><trkpt lat="44.3446383" lon="10.27612"><ele>768.6666666666667</ele><time>2026-04-19T14:16:20.99Z</time></trkpt><trkpt lat="44.3447667" lon="10.276345"><ele>771.3333333333334</ele><time>2026-04-19T14:16:21.99Z</time></trkpt><trkpt lat="44.3448917" lon="10.2765667"><ele>774.0</ele><time>2026-04-19T14:16:22.991Z</time></trkpt><trkpt lat="44.3450167" lon="10.2767867"><ele>774.0</ele><time>2026-04-19T14:16:23.99Z</time></trkpt><trkpt lat="44.3451433" lon="10.2770033"><ele>774.0</ele><time>2026-04-19T14:16:24.99Z</time></trkpt><trkpt lat="44.345275" lon="10.2772317"><ele>774.0</ele><time>2026-04-19T14:16:25.99Z</time></trkpt><trkpt lat="44.345405" lon="10.27746"><ele>772.6666666666667</ele><time>2026-04-19T14:16:26.99Z</time></trkpt><trkpt lat="44.3455333" lon="10.2776883"><ele>771.3333333333334</ele><time>2026-04-19T14:16:27.99Z</time></trkpt><trkpt lat="44.3456667" lon="10.2779033"><ele>770.0</ele><time>2026-04-19T14:16:28.99Z</time></trkpt><trkpt lat="44.3457967" lon="10.27812"><ele>770.0</ele><time>2026-04-19T14:16:29.99Z</time></trkpt><trkpt lat="44.3459233" lon="10.27834"><ele>770.0</ele><time>2026-04-19T14:16:30.991Z</time></trkpt><trkpt lat="44.3460467" lon="10.2785583"><ele>770.0</ele><time>2026-04-19T14:16:31.99Z</time></trkpt><trkpt lat="44.3461567" lon="10.2787767"><ele>769.0</ele><time>2026-04-19T14:16:32.99Z</time></trkpt><trkpt lat="44.346255" lon="10.2790067"><ele>768.0</ele><time>2026-04-19T14:16:33.99Z</time></trkpt><trkpt lat="44.3463433" lon="10.2791683"><ele>767.0</ele><time>2026-04-19T14:16:34.99Z</time></trkpt><trkpt lat="44.3464417" lon="10.27935"><ele>767.0</ele><time>2026-04-19T14:16:35.99Z</time></trkpt><trkpt lat="44.346545" lon="10.2795333"><ele>767.0</ele><time>2026-04-19T14:16:36.99Z</time></trkpt><trkpt lat="44.3466633" lon="10.2797267"><ele>767.0</ele><time>2026-04-19T14:16:37.99Z</time></trkpt><trkpt lat="44.3467867" lon="10.2799367"><ele>765.0</ele><time>2026-04-19T14:16:38.99Z</time></trkpt><trkpt lat="44.3469167" lon="10.2801683"><ele>763.0</ele><time>2026-04-19T14:16:39.99Z</time></trkpt><trkpt lat="44.34706" lon="10.2803967"><ele>761.0</ele><time>2026-04-19T14:16:40.99Z</time></trkpt><trkpt lat="44.3472133" lon="10.2806067"><ele>761.0</ele><time>2026-04-19T14:16:41.99Z</time></trkpt><trkpt lat="44.347375" lon="10.280795"><ele>761.0</ele><time>2026-04-19T14:16:42.99Z</time></trkpt><trkpt lat="44.3475483" lon="10.28096"><ele>761.0</ele><time>2026-04-19T14:16:43.99Z</time></trkpt><trkpt lat="44.34772" lon="10.28114"><ele>761.0</ele><time>2026-04-19T14:16:44.99Z</time></trkpt><trkpt lat="44.3478883" lon="10.28133"><ele>761.0</ele><time>2026-04-19T14:16:45.99Z</time></trkpt><trkpt lat="44.3480583" lon="10.28152"><ele>761.0</ele><time>2026-04-19T14:16:46.991Z</time></trkpt><trkpt lat="44.3482933" lon="10.281595"><ele>756.0</ele><time>2026-04-19T14:16:47.99Z</time></trkpt><trkpt lat="44.34857" lon="10.2815767"><ele>751.0</ele><time>2026-04-19T14:16:48.991Z</time></trkpt><trkpt lat="44.3487783" lon="10.2816383"><ele>748.0</ele><time>2026-04-19T14:16:49.99Z</time></trkpt><trkpt lat="44.348965" lon="10.281685"><ele>745.0</ele><time>2026-04-19T14:16:50.99Z</time></trkpt><trkpt lat="44.3491517" lon="10.2817167"><ele>742.0</ele><time>2026-04-19T14:16:51.99Z</time></trkpt><trkpt lat="44.3493183" lon="10.2817517"><ele>742.0</ele><time>2026-04-19T14:16:52.99Z</time></trkpt><trkpt lat="44.3494617" lon="10.2817783"><ele>742.0</ele><time>2026-04-19T14:16:53.99Z</time></trkpt><trkpt lat="44.3496017" lon="10.28179"><ele>742.0</ele><time>2026-04-19T14:16:54.99Z</time></trkpt><trkpt lat="44.3497367" lon="10.2817783"><ele>742.0</ele><time>2026-04-19T14:16:55.99Z</time></trkpt><trkpt lat="44.3498733" lon="10.2817417"><ele>739.6666666666667</ele><time>2026-04-19T14:16:56.99Z</time></trkpt><trkpt lat="44.3500217" lon="10.2817067"><ele>737.3333333333334</ele><time>2026-04-19T14:16:57.99Z</time></trkpt><trkpt lat="44.3501783" lon="10.2817067"><ele>735.0</ele><time>2026-04-19T14:16:58.99Z</time></trkpt><trkpt lat="44.3503417" lon="10.2817667"><ele>735.0</ele><time>2026-04-19T14:16:59.99Z</time></trkpt><trkpt lat="44.3504983" lon="10.2818383"><ele>735.0</ele><time>2026-04-19T14:17:00.99Z</time></trkpt><trkpt lat="44.35064" lon="10.281905"><ele>735.0</ele><time>2026-04-19T14:17:01.99Z</time></trkpt><trkpt lat="44.3507683" lon="10.2819667"><ele>735.5</ele><time>2026-04-19T14:17:02.99Z</time></trkpt><trkpt lat="44.3508933" lon="10.2819933"><ele>736.0</ele><time>2026-04-19T14:17:03.99Z</time></trkpt><trkpt lat="44.3510183" lon="10.2819933"><ele>736.5</ele><time>2026-04-19T14:17:04.99Z</time></trkpt><trkpt lat="44.3511517" lon="10.2819583"><ele>737.0</ele><time>2026-04-19T14:17:05.99Z</time></trkpt><trkpt lat="44.35129" lon="10.2819"><ele>736.3333333333333</ele><time>2026-04-19T14:17:06.99Z</time></trkpt><trkpt lat="44.3514383" lon="10.2818433"><ele>735.6666666666666</ele><time>2026-04-19T14:17:07.99Z</time></trkpt><trkpt lat="44.351595" lon="10.2818183"><ele>735.0</ele><time>2026-04-19T14:17:08.99Z</time></trkpt><trkpt lat="44.3517617" lon="10.2818167"><ele>735.0</ele><time>2026-04-19T14:17:09.99Z</time></trkpt><trkpt lat="44.3519183" lon="10.281835"><ele>735.0</ele><time>2026-04-19T14:17:10.99Z</time></trkpt><trkpt lat="44.352075" lon="10.2818817"><ele>735.0</ele><time>2026-04-19T14:17:11.99Z</time></trkpt><trkpt lat="44.3522333" lon="10.2819267"><ele>730.0</ele><time>2026-04-19T14:17:12.99Z</time></trkpt><trkpt lat="44.3523983" lon="10.2819883"><ele>725.0</ele><time>2026-04-19T14:17:13.99Z</time></trkpt><trkpt lat="44.3525567" lon="10.2820617"><ele>720.0</ele><time>2026-04-19T14:17:14.99Z</time></trkpt><trkpt lat="44.3527017" lon="10.28213"><ele>720.0</ele><time>2026-04-19T14:17:15.99Z</time></trkpt><trkpt lat="44.3528183" lon="10.282205"><ele>720.0</ele><time>2026-04-19T14:17:16.99Z</time></trkpt><trkpt lat="44.3529183" lon="10.2823017"><ele>720.0</ele><time>2026-04-19T14:17:17.99Z</time></trkpt><trkpt lat="44.3529733" lon="10.2824517"><ele>720.0</ele><time>2026-04-19T14:17:18.99Z</time></trkpt><trkpt lat="44.3530017" lon="10.2826433"><ele>718.75</ele><time>2026-04-19T14:17:19.99Z</time></trkpt><trkpt lat="44.3529917" lon="10.2828217"><ele>717.5</ele><time>2026-04-19T14:17:20.99Z</time></trkpt><trkpt lat="44.352945" lon="10.282975"><ele>716.25</ele><time>2026-04-19T14:17:21.99Z</time></trkpt><trkpt lat="44.3528533" lon="10.2831"><ele>715.0</ele><time>2026-04-19T14:17:22.99Z</time></trkpt><trkpt lat="44.3527533" lon="10.2832317"><ele>715.0</ele><time>2026-04-19T14:17:23.99Z</time></trkpt><trkpt lat="44.3526733" lon="10.283365"><ele>715.0</ele><time>2026-04-19T14:17:24.99Z</time></trkpt><trkpt lat="44.35263" lon="10.2835233"><ele>715.0</ele><time>2026-04-19T14:17:25.99Z</time></trkpt><trkpt lat="44.3526" lon="10.2837033"><ele>715.0</ele><time>2026-04-19T14:17:26.99Z</time></trkpt><trkpt lat="44.35258" lon="10.2838983"><ele>718.25</ele><time>2026-04-19T14:17:27.99Z</time></trkpt><trkpt lat="44.3525783" lon="10.2841067"><ele>721.5</ele><time>2026-04-19T14:17:28.99Z</time></trkpt><trkpt lat="44.3525783" lon="10.2843117"><ele>724.75</ele><time>2026-04-19T14:17:29.99Z</time></trkpt><trkpt lat="44.3525783" lon="10.2845167"><ele>728.0</ele><time>2026-04-19T14:17:30.99Z</time></trkpt><trkpt lat="44.3525733" lon="10.2847233"><ele>729.5</ele><time>2026-04-19T14:17:31.99Z</time></trkpt><trkpt lat="44.3525733" lon="10.28493"><ele>731.0</ele><time>2026-04-19T14:17:32.991Z</time></trkpt><trkpt lat="44.3525783" lon="10.2851267"><ele>732.5</ele><time>2026-04-19T14:17:33.99Z</time></trkpt><trkpt lat="44.35258" lon="10.285305"><ele>734.0</ele><time>2026-04-19T14:17:34.99Z</time></trkpt><trkpt lat="44.3525533" lon="10.2854633"><ele>734.5</ele><time>2026-04-19T14:17:35.99Z</time></trkpt><trkpt lat="44.3524917" lon="10.2855983"><ele>735.0</ele><time>2026-04-19T14:17:36.99Z</time></trkpt><trkpt lat="44.3523967" lon="10.2857083"><ele>735.5</ele><time>2026-04-19T14:17:37.99Z</time></trkpt><trkpt lat="44.3522933" lon="10.2857917"><ele>736.0</ele><time>2026-04-19T14:17:38.99Z</time></trkpt><trkpt lat="44.352195" lon="10.2858967"><ele>736.0</ele><time>2026-04-19T14:17:39.99Z</time></trkpt><trkpt lat="44.352095" lon="10.2860367"><ele>736.0</ele><time>2026-04-19T14:17:40.99Z</time></trkpt><trkpt lat="44.3520167" lon="10.286185"><ele>736.0</ele><time>2026-04-19T14:17:41.99Z</time></trkpt><trkpt lat="44.3519567" lon="10.286345"><ele>736.0</ele><time>2026-04-19T14:17:42.99Z</time></trkpt><trkpt lat="44.351925" lon="10.286515"><ele>738.0</ele><time>2026-04-19T14:17:43.99Z</time></trkpt><trkpt lat="44.3519217" lon="10.2866917"><ele>740.0</ele><time>2026-04-19T14:17:44.99Z</time></trkpt><trkpt lat="44.3519483" lon="10.286865"><ele>742.0</ele><time>2026-04-19T14:17:45.99Z</time></trkpt><trkpt lat="44.3520067" lon="10.2870467"><ele>744.0</ele><time>2026-04-19T14:17:46.99Z</time></trkpt><trkpt lat="44.3520883" lon="10.2872417"><ele>745.3333333333334</ele><time>2026-04-19T14:17:47.99Z</time></trkpt><trkpt lat="44.3521817" lon="10.2874567"><ele>746.6666666666667</ele><time>2026-04-19T14:17:48.99Z</time></trkpt><trkpt lat="44.3522717" lon="10.2876633"><ele>748.0</ele><time>2026-04-19T14:17:49.99Z</time></trkpt><trkpt lat="44.352355" lon="10.2878417"><ele>748.25</ele><time>2026-04-19T14:17:50.99Z</time></trkpt><trkpt lat="44.3524433" lon="10.28799"><ele>748.5</ele><time>2026-04-19T14:17:51.99Z</time></trkpt><trkpt lat="44.3525483" lon="10.2881083"><ele>748.75</ele><time>2026-04-19T14:17:52.99Z</time></trkpt><trkpt lat="44.3526633" lon="10.28818"><ele>749.0</ele><time>2026-04-19T14:17:53.99Z</time></trkpt><trkpt lat="44.3527933" lon="10.2881983"><ele>749.0</ele><time>2026-04-19T14:17:54.99Z</time></trkpt><trkpt lat="44.352915" lon="10.2881567"><ele>749.0</ele><time>2026-04-19T14:17:55.99Z</time></trkpt><trkpt lat="44.35304" lon="10.28808"><ele>749.0</ele><time>2026-04-19T14:17:56.99Z</time></trkpt><trkpt lat="44.3531583" lon="10.288005"><ele>749.0</ele><time>2026-04-19T14:17:57.99Z</time></trkpt><trkpt lat="44.353265" lon="10.2879867"><ele>751.25</ele><time>2026-04-19T14:17:58.99Z</time></trkpt><trkpt lat="44.3533717" lon="10.2880317"><ele>753.5</ele><time>2026-04-19T14:17:59.99Z</time></trkpt><trkpt lat="44.3534633" lon="10.2881317"><ele>755.75</ele><time>2026-04-19T14:18:00.99Z</time></trkpt><trkpt lat="44.3535567" lon="10.288265"><ele>758.0</ele><time>2026-04-19T14:18:01.99Z</time></trkpt><trkpt lat="44.3536583" lon="10.28842"><ele>758.0</ele><time>2026-04-19T14:18:02.99Z</time></trkpt><trkpt lat="44.3537583" lon="10.2885817"><ele>758.0</ele><time>2026-04-19T14:18:03.99Z</time></trkpt><trkpt lat="44.3538617" lon="10.2887483"><ele>758.0</ele><time>2026-04-19T14:18:04.99Z</time></trkpt><trkpt lat="44.353945" lon="10.288935"><ele>761.0</ele><time>2026-04-19T14:18:05.99Z</time></trkpt><trkpt lat="44.3540017" lon="10.2891117"><ele>764.0</ele><time>2026-04-19T14:18:06.99Z</time></trkpt><trkpt lat="44.3540533" lon="10.289275"><ele>767.0</ele><time>2026-04-19T14:18:07.99Z</time></trkpt><trkpt lat="44.3541117" lon="10.289425"><ele>770.0</ele><time>2026-04-19T14:18:08.99Z</time></trkpt><trkpt lat="44.3541933" lon="10.2895533"><ele>770.0</ele><time>2026-04-19T14:18:09.99Z</time></trkpt><trkpt lat="44.3542967" lon="10.2896467"><ele>770.0</ele><time>2026-04-19T14:18:10.99Z</time></trkpt><trkpt lat="44.3544217" lon="10.2897033"><ele>770.0</ele><time>2026-04-19T14:18:11.99Z</time></trkpt><trkpt lat="44.3545533" lon="10.28974"><ele>770.0</ele><time>2026-04-19T14:18:12.99Z</time></trkpt><trkpt lat="44.35468" lon="10.2898167"><ele>772.5</ele><time>2026-04-19T14:18:13.99Z</time></trkpt><trkpt lat="44.3547833" lon="10.289935"><ele>775.0</ele><time>2026-04-19T14:18:14.99Z</time></trkpt><trkpt lat="44.3548567" lon="10.2900967"><ele>777.5</ele><time>2026-04-19T14:18:15.99Z</time></trkpt><trkpt lat="44.3549" lon="10.2902633"><ele>780.0</ele><time>2026-04-19T14:18:16.99Z</time></trkpt><trkpt lat="44.35493" lon="10.2904067"><ele>780.0</ele><time>2026-04-19T14:18:17.99Z</time></trkpt><trkpt lat="44.3549667" lon="10.290515"><ele>780.0</ele><time>2026-04-19T14:18:18.99Z</time></trkpt><trkpt lat="44.3550117" lon="10.2905917"><ele>780.0</ele><time>2026-04-19T14:18:19.99Z</time></trkpt><trkpt lat="44.3550867" lon="10.2906083"><ele>780.0</ele><time>2026-04-19T14:18:20.99Z</time></trkpt><trkpt lat="44.3551717" lon="10.2905633"><ele>780.0</ele><time>2026-04-19T14:18:21.99Z</time></trkpt><trkpt lat="44.3552617" lon="10.2904667"><ele>780.0</ele><time>2026-04-19T14:18:22.99Z</time></trkpt><trkpt lat="44.3553417" lon="10.2903817"><ele>780.0</ele><time>2026-04-19T14:18:23.99Z</time></trkpt><trkpt lat="44.355425" lon="10.2903117"><ele>780.0</ele><time>2026-04-19T14:18:24.99Z</time></trkpt><trkpt lat="44.3555283" lon="10.2903083"><ele>780.0</ele><time>2026-04-19T14:18:25.99Z</time></trkpt><trkpt lat="44.3556367" lon="10.2903783"><ele>780.0</ele><time>2026-04-19T14:18:26.99Z</time></trkpt><trkpt lat="44.3557517" lon="10.29044"><ele>780.0</ele><time>2026-04-19T14:18:27.99Z</time></trkpt><trkpt lat="44.3558483" lon="10.29054"><ele>779.0</ele><time>2026-04-19T14:18:28.99Z</time></trkpt><trkpt lat="44.3558983" lon="10.2906867"><ele>778.0</ele><time>2026-04-19T14:18:29.99Z</time></trkpt><trkpt lat="44.3559233" lon="10.290845"><ele>777.0</ele><time>2026-04-19T14:18:30.99Z</time></trkpt><trkpt lat="44.355935" lon="10.29102"><ele>776.0</ele><time>2026-04-19T14:18:31.99Z</time></trkpt><trkpt lat="44.3559167" lon="10.291205"><ele>776.0</ele><time>2026-04-19T14:18:32.99Z</time></trkpt><trkpt lat="44.3558867" lon="10.2913933"><ele>776.0</ele><time>2026-04-19T14:18:33.99Z</time></trkpt><trkpt lat="44.3558567" lon="10.2915767"><ele>776.0</ele><time>2026-04-19T14:18:34.99Z</time></trkpt><trkpt lat="44.35586" lon="10.2917867"><ele>776.0</ele><time>2026-04-19T14:18:35.99Z</time></trkpt><trkpt lat="44.355905" lon="10.2919983"><ele>775.0</ele><time>2026-04-19T14:18:36.99Z</time></trkpt><trkpt lat="44.35598" lon="10.292225"><ele>774.0</ele><time>2026-04-19T14:18:37.99Z</time></trkpt><trkpt lat="44.356055" lon="10.2924483"><ele>773.0</ele><time>2026-04-19T14:18:38.99Z</time></trkpt><trkpt lat="44.356125" lon="10.2926767"><ele>769.6666666666667</ele><time>2026-04-19T14:18:39.99Z</time></trkpt><trkpt lat="44.3561917" lon="10.2929017"><ele>766.3333333333334</ele><time>2026-04-19T14:18:40.99Z</time></trkpt><trkpt lat="44.3562567" lon="10.2931317"><ele>763.0</ele><time>2026-04-19T14:18:41.99Z</time></trkpt><trkpt lat="44.35632" lon="10.2933517"><ele>766.3333333333334</ele><time>2026-04-19T14:18:42.99Z</time></trkpt><trkpt lat="44.3563733" lon="10.2935517"><ele>769.6666666666667</ele><time>2026-04-19T14:18:43.99Z</time></trkpt><trkpt lat="44.3564383" lon="10.2937517"><ele>773.0</ele><time>2026-04-19T14:18:44.99Z</time></trkpt><trkpt lat="44.3565017" lon="10.293955"><ele>773.0</ele><time>2026-04-19T14:18:45.99Z</time></trkpt><trkpt lat="44.3565733" lon="10.2941617"><ele>773.0</ele><time>2026-04-19T14:18:46.99Z</time></trkpt><trkpt lat="44.3566467" lon="10.2943533"><ele>773.0</ele><time>2026-04-19T14:18:47.991Z</time></trkpt><trkpt lat="44.3567167" lon="10.294535"><ele>773.0</ele><time>2026-04-19T14:18:48.99Z</time></trkpt><trkpt lat="44.35678" lon="10.2947217"><ele>773.0</ele><time>2026-04-19T14:18:49.99Z</time></trkpt><trkpt lat="44.3568267" lon="10.2949183"><ele>773.0</ele><time>2026-04-19T14:18:50.99Z</time></trkpt><trkpt lat="44.3568467" lon="10.2951283"><ele>773.0</ele><time>2026-04-19T14:18:51.99Z</time></trkpt><trkpt lat="44.3568467" lon="10.29534"><ele>772.25</ele><time>2026-04-19T14:18:52.99Z</time></trkpt><trkpt lat="44.3568367" lon="10.2955383"><ele>771.5</ele><time>2026-04-19T14:18:53.99Z</time></trkpt><trkpt lat="44.356835" lon="10.2957517"><ele>770.75</ele><time>2026-04-19T14:18:54.99Z</time></trkpt><trkpt lat="44.35686" lon="10.29595"><ele>770.0</ele><time>2026-04-19T14:18:55.99Z</time></trkpt><trkpt lat="44.3569167" lon="10.2961433"><ele>769.6666666666667</ele><time>2026-04-19T14:18:56.99Z</time></trkpt><trkpt lat="44.3569883" lon="10.2963483"><ele>769.3333333333333</ele><time>2026-04-19T14:18:57.99Z</time></trkpt><trkpt lat="44.3570583" lon="10.2965733"><ele>769.0</ele><time>2026-04-19T14:18:58.99Z</time></trkpt><trkpt lat="44.3571167" lon="10.2968117"><ele>768.3333333333333</ele><time>2026-04-19T14:18:59.99Z</time></trkpt><trkpt lat="44.3571633" lon="10.2970467"><ele>767.6666666666666</ele><time>2026-04-19T14:19:00.99Z</time></trkpt><trkpt lat="44.3571967" lon="10.2972717"><ele>767.0</ele><time>2026-04-19T14:19:01.99Z</time></trkpt><trkpt lat="44.3572317" lon="10.2975"><ele>772.25</ele><time>2026-04-19T14:19:02.99Z</time></trkpt><trkpt lat="44.35727" lon="10.29771"><ele>777.5</ele><time>2026-04-19T14:19:03.99Z</time></trkpt><trkpt lat="44.357295" lon="10.2979083"><ele>782.75</ele><time>2026-04-19T14:19:04.99Z</time></trkpt><trkpt lat="44.357295" lon="10.29808"><ele>788.0</ele><time>2026-04-19T14:19:05.99Z</time></trkpt><trkpt lat="44.3572717" lon="10.2982367"><ele>784.0</ele><time>2026-04-19T14:19:06.99Z</time></trkpt><trkpt lat="44.3571983" lon="10.2983667"><ele>780.0</ele><time>2026-04-19T14:19:07.99Z</time></trkpt><trkpt lat="44.357105" lon="10.2984833"><ele>776.0</ele><time>2026-04-19T14:19:08.99Z</time></trkpt><trkpt lat="44.3570333" lon="10.2986283"><ele>772.0</ele><time>2026-04-19T14:19:09.99Z</time></trkpt><trkpt lat="44.357" lon="10.2987933"><ele>774.0</ele><time>2026-04-19T14:19:10.99Z</time></trkpt><trkpt lat="44.3569667" lon="10.2989683"><ele>776.0</ele><time>2026-04-19T14:19:11.99Z</time></trkpt><trkpt lat="44.3569283" lon="10.29913"><ele>778.0</ele><time>2026-04-19T14:19:12.99Z</time></trkpt><trkpt lat="44.3568983" lon="10.2992867"><ele>780.0</ele><time>2026-04-19T14:19:13.99Z</time></trkpt><trkpt lat="44.3568833" lon="10.299445"><ele>780.0</ele><time>2026-04-19T14:19:14.99Z</time></trkpt><trkpt lat="44.3569067" lon="10.2996067"><ele>780.0</ele><time>2026-04-19T14:19:15.99Z</time></trkpt><trkpt lat="44.3569683" lon="10.2997767"><ele>780.0</ele><time>2026-04-19T14:19:16.99Z</time></trkpt><trkpt lat="44.357055" lon="10.29995"><ele>780.0</ele><time>2026-04-19T14:19:17.991Z</time></trkpt><trkpt lat="44.3571617" lon="10.3001467"><ele>785.0</ele><time>2026-04-19T14:19:18.99Z</time></trkpt><trkpt lat="44.35728" lon="10.30036"><ele>790.0</ele><time>2026-04-19T14:19:19.99Z</time></trkpt><trkpt lat="44.357395" lon="10.300565"><ele>795.0</ele><time>2026-04-19T14:19:20.99Z</time></trkpt><trkpt lat="44.3575" lon="10.300745"><ele>795.0</ele><time>2026-04-19T14:19:21.99Z</time></trkpt><trkpt lat="44.3576067" lon="10.3009017"><ele>795.0</ele><time>2026-04-19T14:19:22.99Z</time></trkpt><trkpt lat="44.357745" lon="10.3010233"><ele>795.0</ele><time>2026-04-19T14:19:23.99Z</time></trkpt><trkpt lat="44.357885" lon="10.3011167"><ele>795.0</ele><time>2026-04-19T14:19:24.99Z</time></trkpt><trkpt lat="44.35802" lon="10.3011967"><ele>795.0</ele><time>2026-04-19T14:19:25.99Z</time></trkpt><trkpt lat="44.3581617" lon="10.30125"><ele>795.0</ele><time>2026-04-19T14:19:26.99Z</time></trkpt><trkpt lat="44.3583267" lon="10.3012767"><ele>804.3333333333333</ele><time>2026-04-19T14:19:27.99Z</time></trkpt><trkpt lat="44.35851" lon="10.3012983"><ele>813.6666666666666</ele><time>2026-04-19T14:19:28.99Z</time></trkpt><trkpt lat="44.3587017" lon="10.3012933"><ele>823.0</ele><time>2026-04-19T14:19:29.99Z</time></trkpt><trkpt lat="44.3588883" lon="10.301275"><ele>827.0</ele><time>2026-04-19T14:19:30.99Z</time></trkpt><trkpt lat="44.3590733" lon="10.3012433"><ele>831.0</ele><time>2026-04-19T14:19:31.99Z</time></trkpt><trkpt lat="44.35924" lon="10.301215"><ele>835.0</ele><time>2026-04-19T14:19:32.991Z</time></trkpt><trkpt lat="44.3594" lon="10.3012083"><ele>835.0</ele><time>2026-04-19T14:19:33.99Z</time></trkpt><trkpt lat="44.3595567" lon="10.3012233"><ele>835.0</ele><time>2026-04-19T14:19:34.99Z</time></trkpt><trkpt lat="44.3597" lon="10.3012517"><ele>835.0</ele><time>2026-04-19T14:19:35.99Z</time></trkpt><trkpt lat="44.35983" lon="10.301305"><ele>835.0</ele><time>2026-04-19T14:19:36.99Z</time></trkpt><trkpt lat="44.3599517" lon="10.3013533"><ele>836.25</ele><time>2026-04-19T14:19:37.991Z</time></trkpt><trkpt lat="44.3600717" lon="10.3013833"><ele>837.5</ele><time>2026-04-19T14:19:38.99Z</time></trkpt><trkpt lat="44.3601983" lon="10.30137"><ele>838.75</ele><time>2026-04-19T14:19:39.99Z</time></trkpt><trkpt lat="44.3603267" lon="10.3013033"><ele>840.0</ele><time>2026-04-19T14:19:40.99Z</time></trkpt><trkpt lat="44.360455" lon="10.301215"><ele>838.0</ele><time>2026-04-19T14:19:41.99Z</time></trkpt><trkpt lat="44.360585" lon="10.301105"><ele>836.0</ele><time>2026-04-19T14:19:42.99Z</time></trkpt><trkpt lat="44.3607033" lon="10.3009917"><ele>834.0</ele><time>2026-04-19T14:19:43.99Z</time></trkpt><trkpt lat="44.3608117" lon="10.30089"><ele>832.0</ele><time>2026-04-19T14:19:44.99Z</time></trkpt><trkpt lat="44.3609133" lon="10.300815"><ele>832.0</ele><time>2026-04-19T14:19:45.99Z</time></trkpt><trkpt lat="44.3610283" lon="10.30077"><ele>832.0</ele><time>2026-04-19T14:19:46.99Z</time></trkpt><trkpt lat="44.3611433" lon="10.30077"><ele>832.0</ele><time>2026-04-19T14:19:47.99Z</time></trkpt><trkpt lat="44.3612633" lon="10.3008283"><ele>832.0</ele><time>2026-04-19T14:19:48.99Z</time></trkpt><trkpt lat="44.361395" lon="10.3009017"><ele>834.25</ele><time>2026-04-19T14:19:49.99Z</time></trkpt><trkpt lat="44.3615333" lon="10.30096"><ele>836.5</ele><time>2026-04-19T14:19:50.99Z</time></trkpt><trkpt lat="44.36167" lon="10.301005"><ele>838.75</ele><time>2026-04-19T14:19:51.99Z</time></trkpt><trkpt lat="44.36181" lon="10.3010367"><ele>841.0</ele><time>2026-04-19T14:19:52.99Z</time></trkpt><trkpt lat="44.3619467" lon="10.3010417"><ele>841.0</ele><time>2026-04-19T14:19:53.99Z</time></trkpt><trkpt lat="44.3620883" lon="10.3010433"><ele>841.0</ele><time>2026-04-19T14:19:54.99Z</time></trkpt><trkpt lat="44.3622167" lon="10.30103"><ele>841.0</ele><time>2026-04-19T14:19:55.99Z</time></trkpt><trkpt lat="44.3623333" lon="10.3010083"><ele>841.0</ele><time>2026-04-19T14:19:56.99Z</time></trkpt><trkpt lat="44.3624467" lon="10.30098"><ele>843.0</ele><time>2026-04-19T14:19:57.99Z</time></trkpt><trkpt lat="44.362555" lon="10.3009533"><ele>845.0</ele><time>2026-04-19T14:19:58.99Z</time></trkpt><trkpt lat="44.3626617" lon="10.3009367"><ele>847.0</ele><time>2026-04-19T14:19:59.99Z</time></trkpt><trkpt lat="44.362765" lon="10.30094"><ele>849.0</ele><time>2026-04-19T14:20:00.99Z</time></trkpt><trkpt lat="44.3628783" lon="10.3009783"><ele>851.0</ele><time>2026-04-19T14:20:01.99Z</time></trkpt><trkpt lat="44.3629933" lon="10.3010483"><ele>849.75</ele><time>2026-04-19T14:20:02.99Z</time></trkpt><trkpt lat="44.363105" lon="10.3011217"><ele>848.5</ele><time>2026-04-19T14:20:03.99Z</time></trkpt><trkpt lat="44.3632233" lon="10.3012217"><ele>847.25</ele><time>2026-04-19T14:20:04.99Z</time></trkpt><trkpt lat="44.3633417" lon="10.3013267"><ele>846.0</ele><time>2026-04-19T14:20:05.99Z</time></trkpt><trkpt lat="44.3634467" lon="10.3014333"><ele>842.75</ele><time>2026-04-19T14:20:06.99Z</time></trkpt><trkpt lat="44.3635467" lon="10.301515"><ele>839.5</ele><time>2026-04-19T14:20:07.99Z</time></trkpt><trkpt lat="44.3636467" lon="10.3015883"><ele>836.25</ele><time>2026-04-19T14:20:08.99Z</time></trkpt><trkpt lat="44.3637483" lon="10.3016617"><ele>833.0</ele><time>2026-04-19T14:20:09.99Z</time></trkpt><trkpt lat="44.3638467" lon="10.3017483"><ele>837.5</ele><time>2026-04-19T14:20:10.99Z</time></trkpt><trkpt lat="44.363945" lon="10.30184"><ele>842.0</ele><time>2026-04-19T14:20:11.99Z</time></trkpt><trkpt lat="44.3640483" lon="10.301935"><ele>846.5</ele><time>2026-04-19T14:20:12.99Z</time></trkpt><trkpt lat="44.3641433" lon="10.3020183"><ele>851.0</ele><time>2026-04-19T14:20:13.99Z</time></trkpt><trkpt lat="44.3642333" lon="10.3021"><ele>851.0</ele><time>2026-04-19T14:20:14.99Z</time></trkpt><trkpt lat="44.3643233" lon="10.3021833"><ele>851.0</ele><time>2026-04-19T14:20:15.99Z</time></trkpt><trkpt lat="44.3644233" lon="10.302265"><ele>851.0</ele><time>2026-04-19T14:20:16.99Z</time></trkpt><trkpt lat="44.3645183" lon="10.30233"><ele>851.0</ele><time>2026-04-19T14:20:17.991Z</time></trkpt><trkpt lat="44.36462" lon="10.302395"><ele>851.0</ele><time>2026-04-19T14:20:18.99Z</time></trkpt><trkpt lat="44.3646917" lon="10.3025067"><ele>852.25</ele><time>2026-04-19T14:20:19.99Z</time></trkpt><trkpt lat="44.36475" lon="10.3026217"><ele>853.5</ele><time>2026-04-19T14:20:20.99Z</time></trkpt><trkpt lat="44.3648" lon="10.302725"><ele>854.75</ele><time>2026-04-19T14:20:21.99Z</time></trkpt><trkpt lat="44.3648233" lon="10.30297"><ele>856.0</ele><time>2026-04-19T14:20:23.99Z</time></trkpt><trkpt lat="44.3647733" lon="10.303075"><ele>856.8333333333333</ele><time>2026-04-19T14:20:24.99Z</time></trkpt><trkpt lat="44.3647133" lon="10.3031433"><ele>857.6666666666666</ele><time>2026-04-19T14:20:25.99Z</time></trkpt><trkpt lat="44.364625" lon="10.3032117"><ele>858.5</ele><time>2026-04-19T14:20:27.99Z</time></trkpt><trkpt lat="44.3645767" lon="10.3032867"><ele>859.3333333333333</ele><time>2026-04-19T14:20:29.99Z</time></trkpt><trkpt lat="44.364535" lon="10.303415"><ele>860.1666666666666</ele><time>2026-04-19T14:20:31.99Z</time></trkpt><trkpt lat="44.3645067" lon="10.30351"><ele>861.0</ele><time>2026-04-19T14:20:32.99Z</time></trkpt><trkpt lat="44.3644883" lon="10.3036317"><ele>855.1999999999999</ele><time>2026-04-19T14:20:33.99Z</time></trkpt><trkpt lat="44.36449" lon="10.303765"><ele>849.3999999999999</ele><time>2026-04-19T14:20:34.99Z</time></trkpt><trkpt lat="44.3645067" lon="10.30389"><ele>843.6</ele><time>2026-04-19T14:20:35.99Z</time></trkpt><trkpt lat="44.3645417" lon="10.3040067"><ele>837.8</ele><time>2026-04-19T14:20:36.99Z</time></trkpt><trkpt lat="44.36459" lon="10.30411"><ele>832.0</ele><time>2026-04-19T14:20:37.99Z</time></trkpt><trkpt lat="44.3646533" lon="10.3042233"><ele>838.4000000000001</ele><time>2026-04-19T14:20:38.99Z</time></trkpt><trkpt lat="44.36471" lon="10.3043333"><ele>844.8000000000001</ele><time>2026-04-19T14:20:39.99Z</time></trkpt><trkpt lat="44.3647517" lon="10.3044617"><ele>851.2</ele><time>2026-04-19T14:20:40.991Z</time></trkpt><trkpt lat="44.3647683" lon="10.304605"><ele>857.6</ele><time>2026-04-19T14:20:41.99Z</time></trkpt><trkpt lat="44.3647783" lon="10.3047667"><ele>864.0</ele><time>2026-04-19T14:20:42.99Z</time></trkpt><trkpt lat="44.364765" lon="10.304955"><ele>864.25</ele><time>2026-04-19T14:20:43.99Z</time></trkpt><trkpt lat="44.36476" lon="10.305145"><ele>864.5</ele><time>2026-04-19T14:20:44.99Z</time></trkpt><trkpt lat="44.364765" lon="10.3053433"><ele>864.75</ele><time>2026-04-19T14:20:45.99Z</time></trkpt><trkpt lat="44.364775" lon="10.3055383"><ele>865.0</ele><time>2026-04-19T14:20:46.99Z</time></trkpt><trkpt lat="44.3648" lon="10.3057417"><ele>863.6666666666666</ele><time>2026-04-19T14:20:47.99Z</time></trkpt><trkpt lat="44.3648267" lon="10.30596"><ele>862.3333333333333</ele><time>2026-04-19T14:20:48.99Z</time></trkpt><trkpt lat="44.3648617" lon="10.306185"><ele>861.0</ele><time>2026-04-19T14:20:49.99Z</time></trkpt><trkpt lat="44.3649017" lon="10.3064117"><ele>859.0</ele><time>2026-04-19T14:20:50.99Z</time></trkpt><trkpt lat="44.36494" lon="10.306625"><ele>857.0</ele><time>2026-04-19T14:20:51.99Z</time></trkpt><trkpt lat="44.36497" lon="10.3068283"><ele>855.0</ele><time>2026-04-19T14:20:52.99Z</time></trkpt><trkpt lat="44.3650017" lon="10.3070333"><ele>855.0</ele><time>2026-04-19T14:20:53.99Z</time></trkpt><trkpt lat="44.365015" lon="10.3072383"><ele>855.0</ele><time>2026-04-19T14:20:54.99Z</time></trkpt><trkpt lat="44.3650117" lon="10.3074333"><ele>855.0</ele><time>2026-04-19T14:20:55.99Z</time></trkpt><trkpt lat="44.3649917" lon="10.3076217"><ele>855.0</ele><time>2026-04-19T14:20:56.99Z</time></trkpt><trkpt lat="44.3649633" lon="10.307795"><ele>855.0</ele><time>2026-04-19T14:20:57.99Z</time></trkpt><trkpt lat="44.3649467" lon="10.3079683"><ele>855.0</ele><time>2026-04-19T14:20:58.99Z</time></trkpt><trkpt lat="44.36494" lon="10.3081333"><ele>855.0</ele><time>2026-04-19T14:20:59.99Z</time></trkpt><trkpt lat="44.3649617" lon="10.3083"><ele>855.0</ele><time>2026-04-19T14:21:00.99Z</time></trkpt><trkpt lat="44.3650067" lon="10.3084767"><ele>855.5</ele><time>2026-04-19T14:21:01.99Z</time></trkpt><trkpt lat="44.365055" lon="10.3086633"><ele>856.0</ele><time>2026-04-19T14:21:02.99Z</time></trkpt><trkpt lat="44.36512" lon="10.3088433"><ele>856.5</ele><time>2026-04-19T14:21:03.99Z</time></trkpt><trkpt lat="44.3651867" lon="10.3090183"><ele>857.0</ele><time>2026-04-19T14:21:04.99Z</time></trkpt><trkpt lat="44.36527" lon="10.3091633"><ele>855.5</ele><time>2026-04-19T14:21:05.99Z</time></trkpt><trkpt lat="44.3653717" lon="10.3092867"><ele>854.0</ele><time>2026-04-19T14:21:06.99Z</time></trkpt><trkpt lat="44.3654833" lon="10.3093867"><ele>852.5</ele><time>2026-04-19T14:21:07.99Z</time></trkpt><trkpt lat="44.3655967" lon="10.30948"><ele>851.0</ele><time>2026-04-19T14:21:08.99Z</time></trkpt><trkpt lat="44.3657067" lon="10.309575"><ele>853.75</ele><time>2026-04-19T14:21:09.99Z</time></trkpt><trkpt lat="44.3658133" lon="10.3096617"><ele>856.5</ele><time>2026-04-19T14:21:10.99Z</time></trkpt><trkpt lat="44.365915" lon="10.3097517"><ele>859.25</ele><time>2026-04-19T14:21:11.99Z</time></trkpt><trkpt lat="44.3659933" lon="10.30987"><ele>862.0</ele><time>2026-04-19T14:21:12.99Z</time></trkpt><trkpt lat="44.366055" lon="10.31002"><ele>862.0</ele><time>2026-04-19T14:21:13.99Z</time></trkpt><trkpt lat="44.3661133" lon="10.31017"><ele>862.0</ele><time>2026-04-19T14:21:14.99Z</time></trkpt><trkpt lat="44.3661967" lon="10.3102933"><ele>862.0</ele><time>2026-04-19T14:21:15.99Z</time></trkpt><trkpt lat="44.3663017" lon="10.310385"><ele>862.0</ele><time>2026-04-19T14:21:16.99Z</time></trkpt><trkpt lat="44.3664183" lon="10.310455"><ele>860.75</ele><time>2026-04-19T14:21:17.99Z</time></trkpt><trkpt lat="44.3665317" lon="10.3105017"><ele>859.5</ele><time>2026-04-19T14:21:18.991Z</time></trkpt><trkpt lat="44.3666517" lon="10.310535"><ele>858.25</ele><time>2026-04-19T14:21:19.99Z</time></trkpt><trkpt lat="44.3667783" lon="10.3105717"><ele>857.0</ele><time>2026-04-19T14:21:20.99Z</time></trkpt><trkpt lat="44.3668983" lon="10.3106167"><ele>857.0</ele><time>2026-04-19T14:21:21.99Z</time></trkpt><trkpt lat="44.3670167" lon="10.3106817"><ele>857.0</ele><time>2026-04-19T14:21:22.99Z</time></trkpt><trkpt lat="44.36712" lon="10.31076"><ele>857.0</ele><time>2026-04-19T14:21:23.99Z</time></trkpt><trkpt lat="44.367225" lon="10.3108333"><ele>857.0</ele><time>2026-04-19T14:21:24.99Z</time></trkpt><trkpt lat="44.3673483" lon="10.3108717"><ele>863.25</ele><time>2026-04-19T14:21:25.99Z</time></trkpt><trkpt lat="44.3674733" lon="10.3108733"><ele>869.5</ele><time>2026-04-19T14:21:26.99Z</time></trkpt><trkpt lat="44.367595" lon="10.3108617"><ele>875.75</ele><time>2026-04-19T14:21:27.99Z</time></trkpt><trkpt lat="44.3677083" lon="10.31085"><ele>882.0</ele><time>2026-04-19T14:21:28.99Z</time></trkpt><trkpt lat="44.3678183" lon="10.3108567"><ele>882.0</ele><time>2026-04-19T14:21:29.99Z</time></trkpt><trkpt lat="44.3679167" lon="10.31089"><ele>882.0</ele><time>2026-04-19T14:21:30.99Z</time></trkpt><trkpt lat="44.3679983" lon="10.31097"><ele>882.0</ele><time>2026-04-19T14:21:31.99Z</time></trkpt><trkpt lat="44.3680667" lon="10.31109"><ele>882.0</ele><time>2026-04-19T14:21:32.99Z</time></trkpt><trkpt lat="44.3680983" lon="10.3112417"><ele>882.0</ele><time>2026-04-19T14:21:33.99Z</time></trkpt><trkpt lat="44.3680967" lon="10.311435"><ele>883.25</ele><time>2026-04-19T14:21:34.99Z</time></trkpt><trkpt lat="44.3680733" lon="10.3116483"><ele>884.5</ele><time>2026-04-19T14:21:35.99Z</time></trkpt><trkpt lat="44.3680467" lon="10.3118483"><ele>885.75</ele><time>2026-04-19T14:21:36.99Z</time></trkpt><trkpt lat="44.3680217" lon="10.3120217"><ele>887.0</ele><time>2026-04-19T14:21:37.99Z</time></trkpt><trkpt lat="44.3679967" lon="10.31217"><ele>885.2</ele><time>2026-04-19T14:21:38.99Z</time></trkpt><trkpt lat="44.3679783" lon="10.3123017"><ele>883.4000000000001</ele><time>2026-04-19T14:21:39.99Z</time></trkpt><trkpt lat="44.3679717" lon="10.3124217"><ele>881.5999999999999</ele><time>2026-04-19T14:21:40.99Z</time></trkpt><trkpt lat="44.3680083" lon="10.3125433"><ele>879.8</ele><time>2026-04-19T14:21:41.99Z</time></trkpt><trkpt lat="44.3680767" lon="10.3126483"><ele>878.0</ele><time>2026-04-19T14:21:42.99Z</time></trkpt><trkpt lat="44.36817" lon="10.312725"><ele>878.0</ele><time>2026-04-19T14:21:43.99Z</time></trkpt><trkpt lat="44.3683033" lon="10.3127617"><ele>878.0</ele><time>2026-04-19T14:21:44.99Z</time></trkpt><trkpt lat="44.3684633" lon="10.31277"><ele>878.0</ele><time>2026-04-19T14:21:45.99Z</time></trkpt><trkpt lat="44.3686517" lon="10.3127683"><ele>881.0</ele><time>2026-04-19T14:21:46.99Z</time></trkpt><trkpt lat="44.36886" lon="10.31279"><ele>884.0</ele><time>2026-04-19T14:21:47.99Z</time></trkpt><trkpt lat="44.3690767" lon="10.3128383"><ele>887.0</ele><time>2026-04-19T14:21:48.99Z</time></trkpt><trkpt lat="44.3693017" lon="10.312895"><ele>887.0</ele><time>2026-04-19T14:21:49.99Z</time></trkpt><trkpt lat="44.369515" lon="10.31295"><ele>887.0</ele><time>2026-04-19T14:21:50.99Z</time></trkpt><trkpt lat="44.3697083" lon="10.3129917"><ele>887.0</ele><time>2026-04-19T14:21:51.99Z</time></trkpt><trkpt lat="44.3698933" lon="10.3130217"><ele>888.3333333333334</ele><time>2026-04-19T14:21:52.99Z</time></trkpt><trkpt lat="44.370055" lon="10.3130633"><ele>889.6666666666667</ele><time>2026-04-19T14:21:53.99Z</time></trkpt><trkpt lat="44.3702117" lon="10.31314"><ele>891.0</ele><time>2026-04-19T14:21:54.99Z</time></trkpt><trkpt lat="44.3703533" lon="10.3132633"><ele>892.0</ele><time>2026-04-19T14:21:55.99Z</time></trkpt><trkpt lat="44.3705017" lon="10.3134383"><ele>893.0</ele><time>2026-04-19T14:21:56.99Z</time></trkpt><trkpt lat="44.370645" lon="10.3136267"><ele>894.0</ele><time>2026-04-19T14:21:57.99Z</time></trkpt><trkpt lat="44.3707767" lon="10.3137983"><ele>887.6666666666667</ele><time>2026-04-19T14:21:58.99Z</time></trkpt><trkpt lat="44.3709033" lon="10.3139517"><ele>881.3333333333334</ele><time>2026-04-19T14:21:59.99Z</time></trkpt><trkpt lat="44.3710333" lon="10.314095"><ele>875.0</ele><time>2026-04-19T14:22:00.99Z</time></trkpt><trkpt lat="44.3711733" lon="10.31421"><ele>875.0</ele><time>2026-04-19T14:22:01.99Z</time></trkpt><trkpt lat="44.3713133" lon="10.314285"><ele>875.0</ele><time>2026-04-19T14:22:02.99Z</time></trkpt><trkpt lat="44.3714633" lon="10.31432"><ele>875.0</ele><time>2026-04-19T14:22:03.99Z</time></trkpt><trkpt lat="44.3716167" lon="10.3143033"><ele>877.6666666666667</ele><time>2026-04-19T14:22:04.99Z</time></trkpt><trkpt lat="44.3717567" lon="10.3142583"><ele>880.3333333333333</ele><time>2026-04-19T14:22:05.99Z</time></trkpt><trkpt lat="44.3720533" lon="10.3142317"><ele>883.0</ele><time>2026-04-19T14:22:07.99Z</time></trkpt><trkpt lat="44.3721883" lon="10.3143267"><ele>886.3333333333333</ele><time>2026-04-19T14:22:08.99Z</time></trkpt><trkpt lat="44.3723233" lon="10.3144583"><ele>889.6666666666667</ele><time>2026-04-19T14:22:09.99Z</time></trkpt><trkpt lat="44.3724667" lon="10.3145883"><ele>893.0</ele><time>2026-04-19T14:22:10.99Z</time></trkpt><trkpt lat="44.3726117" lon="10.3147267"><ele>888.3333333333334</ele><time>2026-04-19T14:22:11.99Z</time></trkpt><trkpt lat="44.3727567" lon="10.3148767"><ele>883.6666666666667</ele><time>2026-04-19T14:22:12.99Z</time></trkpt><trkpt lat="44.37289" lon="10.315035"><ele>879.0</ele><time>2026-04-19T14:22:13.99Z</time></trkpt><trkpt lat="44.3729967" lon="10.315185"><ele>881.25</ele><time>2026-04-19T14:22:14.99Z</time></trkpt><trkpt lat="44.3730917" lon="10.315325"><ele>883.5</ele><time>2026-04-19T14:22:15.99Z</time></trkpt><trkpt lat="44.3731683" lon="10.3154533"><ele>885.75</ele><time>2026-04-19T14:22:16.99Z</time></trkpt><trkpt lat="44.37324" lon="10.3155717"><ele>888.0</ele><time>2026-04-19T14:22:17.99Z</time></trkpt><trkpt lat="44.373295" lon="10.3157183"><ele>888.0</ele><time>2026-04-19T14:22:18.99Z</time></trkpt><trkpt lat="44.373335" lon="10.3158867"><ele>888.0</ele><time>2026-04-19T14:22:19.991Z</time></trkpt><trkpt lat="44.3733483" lon="10.3160767"><ele>888.0</ele><time>2026-04-19T14:22:20.99Z</time></trkpt><trkpt lat="44.37333" lon="10.3162667"><ele>888.0</ele><time>2026-04-19T14:22:21.99Z</time></trkpt><trkpt lat="44.3732617" lon="10.3164433"><ele>889.3333333333333</ele><time>2026-04-19T14:22:22.99Z</time></trkpt><trkpt lat="44.373165" lon="10.3166117"><ele>890.6666666666666</ele><time>2026-04-19T14:22:23.99Z</time></trkpt><trkpt lat="44.3730583" lon="10.3167667"><ele>892.0</ele><time>2026-04-19T14:22:24.99Z</time></trkpt><trkpt lat="44.37295" lon="10.3169133"><ele>889.25</ele><time>2026-04-19T14:22:25.99Z</time></trkpt><trkpt lat="44.3728333" lon="10.3170133"><ele>886.5</ele><time>2026-04-19T14:22:26.99Z</time></trkpt><trkpt lat="44.372695" lon="10.3170383"><ele>883.75</ele><time>2026-04-19T14:22:27.99Z</time></trkpt><trkpt lat="44.3725317" lon="10.3170283"><ele>881.0</ele><time>2026-04-19T14:22:28.99Z</time></trkpt><trkpt lat="44.372355" lon="10.3170167"><ele>878.3333333333334</ele><time>2026-04-19T14:22:29.99Z</time></trkpt><trkpt lat="44.3721717" lon="10.3170317"><ele>875.6666666666667</ele><time>2026-04-19T14:22:30.99Z</time></trkpt><trkpt lat="44.3719783" lon="10.3170483"><ele>873.0</ele><time>2026-04-19T14:22:31.99Z</time></trkpt><trkpt lat="44.371795" lon="10.3170667"><ele>873.0</ele><time>2026-04-19T14:22:32.99Z</time></trkpt><trkpt lat="44.37162" lon="10.3170817"><ele>873.0</ele><time>2026-04-19T14:22:33.99Z</time></trkpt><trkpt lat="44.3714567" lon="10.3170983"><ele>873.0</ele><time>2026-04-19T14:22:34.99Z</time></trkpt><trkpt lat="44.3713083" lon="10.3171183"><ele>875.25</ele><time>2026-04-19T14:22:35.99Z</time></trkpt><trkpt lat="44.37117" lon="10.3171433"><ele>877.5</ele><time>2026-04-19T14:22:36.99Z</time></trkpt><trkpt lat="44.3710433" lon="10.31721"><ele>879.75</ele><time>2026-04-19T14:22:37.99Z</time></trkpt><trkpt lat="44.3709217" lon="10.31732"><ele>882.0</ele><time>2026-04-19T14:22:38.99Z</time></trkpt><trkpt lat="44.37083" lon="10.317475"><ele>882.0</ele><time>2026-04-19T14:22:39.99Z</time></trkpt><trkpt lat="44.37075" lon="10.317635"><ele>882.0</ele><time>2026-04-19T14:22:40.99Z</time></trkpt><trkpt lat="44.3706783" lon="10.3178017"><ele>882.0</ele><time>2026-04-19T14:22:41.99Z</time></trkpt><trkpt lat="44.3705933" lon="10.3179733"><ele>882.0</ele><time>2026-04-19T14:22:42.99Z</time></trkpt><trkpt lat="44.3705017" lon="10.31816"><ele>879.6666666666667</ele><time>2026-04-19T14:22:43.99Z</time></trkpt><trkpt lat="44.3703883" lon="10.31834"><ele>877.3333333333334</ele><time>2026-04-19T14:22:44.99Z</time></trkpt><trkpt lat="44.3702567" lon="10.3185217"><ele>875.0</ele><time>2026-04-19T14:22:45.99Z</time></trkpt><trkpt lat="44.370115" lon="10.3187067"><ele>875.0</ele><time>2026-04-19T14:22:46.99Z</time></trkpt><trkpt lat="44.3699733" lon="10.3188783"><ele>875.0</ele><time>2026-04-19T14:22:47.99Z</time></trkpt><trkpt lat="44.3698383" lon="10.3190367"><ele>875.0</ele><time>2026-04-19T14:22:48.99Z</time></trkpt><trkpt lat="44.3697117" lon="10.3191933"><ele>870.6666666666667</ele><time>2026-04-19T14:22:49.99Z</time></trkpt><trkpt lat="44.369595" lon="10.31934"><ele>866.3333333333333</ele><time>2026-04-19T14:22:50.99Z</time></trkpt><trkpt lat="44.3694933" lon="10.3195033"><ele>862.0</ele><time>2026-04-19T14:22:51.99Z</time></trkpt><trkpt lat="44.3694217" lon="10.3196883"><ele>865.75</ele><time>2026-04-19T14:22:52.99Z</time></trkpt><trkpt lat="44.3693783" lon="10.3198833"><ele>869.5</ele><time>2026-04-19T14:22:53.99Z</time></trkpt><trkpt lat="44.3693683" lon="10.320085"><ele>873.25</ele><time>2026-04-19T14:22:54.99Z</time></trkpt><trkpt lat="44.3693867" lon="10.3202767"><ele>877.0</ele><time>2026-04-19T14:22:55.99Z</time></trkpt><trkpt lat="44.3694383" lon="10.3204717"><ele>875.3333333333333</ele><time>2026-04-19T14:22:56.99Z</time></trkpt><trkpt lat="44.3695267" lon="10.3206717"><ele>873.6666666666667</ele><time>2026-04-19T14:22:57.99Z</time></trkpt><trkpt lat="44.369615" lon="10.3208783"><ele>872.0</ele><time>2026-04-19T14:22:58.99Z</time></trkpt><trkpt lat="44.3697033" lon="10.3210833"><ele>878.6666666666667</ele><time>2026-04-19T14:22:59.99Z</time></trkpt><trkpt lat="44.3697683" lon="10.3213017"><ele>885.3333333333333</ele><time>2026-04-19T14:23:00.99Z</time></trkpt><trkpt lat="44.3697983" lon="10.321545"><ele>892.0</ele><time>2026-04-19T14:23:01.99Z</time></trkpt><trkpt lat="44.3698033" lon="10.3218167"><ele>892.0</ele><time>2026-04-19T14:23:02.99Z</time></trkpt><trkpt lat="44.369815" lon="10.3220917"><ele>892.0</ele><time>2026-04-19T14:23:03.99Z</time></trkpt><trkpt lat="44.3698267" lon="10.3223467"><ele>892.0</ele><time>2026-04-19T14:23:04.99Z</time></trkpt><trkpt lat="44.3698367" lon="10.3226"><ele>892.0</ele><time>2026-04-19T14:23:05.99Z</time></trkpt><trkpt lat="44.3698483" lon="10.3228567"><ele>892.0</ele><time>2026-04-19T14:23:06.99Z</time></trkpt><trkpt lat="44.369855" lon="10.32312"><ele>892.0</ele><time>2026-04-19T14:23:07.99Z</time></trkpt><trkpt lat="44.3698517" lon="10.323375"><ele>891.0</ele><time>2026-04-19T14:23:08.99Z</time></trkpt><trkpt lat="44.3698367" lon="10.3236267"><ele>890.0</ele><time>2026-04-19T14:23:09.99Z</time></trkpt><trkpt lat="44.369805" lon="10.3238733"><ele>889.0</ele><time>2026-04-19T14:23:10.99Z</time></trkpt><trkpt lat="44.36977" lon="10.324115"><ele>891.0</ele><time>2026-04-19T14:23:11.99Z</time></trkpt><trkpt lat="44.3697383" lon="10.3243533"><ele>893.0</ele><time>2026-04-19T14:23:12.99Z</time></trkpt><trkpt lat="44.3697017" lon="10.324585"><ele>895.0</ele><time>2026-04-19T14:23:13.99Z</time></trkpt><trkpt lat="44.3696667" lon="10.3248083"><ele>895.6666666666666</ele><time>2026-04-19T14:23:14.99Z</time></trkpt><trkpt lat="44.369655" lon="10.3250317"><ele>896.3333333333333</ele><time>2026-04-19T14:23:15.99Z</time></trkpt><trkpt lat="44.3696683" lon="10.3252717"><ele>897.0</ele><time>2026-04-19T14:23:16.99Z</time></trkpt><trkpt lat="44.3697067" lon="10.325495"><ele>895.0</ele><time>2026-04-19T14:23:17.99Z</time></trkpt><trkpt lat="44.3697867" lon="10.3257083"><ele>893.0</ele><time>2026-04-19T14:23:18.99Z</time></trkpt><trkpt lat="44.3698867" lon="10.3258983"><ele>891.0</ele><time>2026-04-19T14:23:19.99Z</time></trkpt><trkpt lat="44.3700133" lon="10.3260667"><ele>891.0</ele><time>2026-04-19T14:23:20.99Z</time></trkpt><trkpt lat="44.3701583" lon="10.3262233"><ele>891.0</ele><time>2026-04-19T14:23:21.99Z</time></trkpt><trkpt lat="44.3703167" lon="10.3263683"><ele>891.0</ele><time>2026-04-19T14:23:22.99Z</time></trkpt><trkpt lat="44.3704733" lon="10.3265233"><ele>894.6666666666667</ele><time>2026-04-19T14:23:23.99Z</time></trkpt><trkpt lat="44.370625" lon="10.3266783"><ele>898.3333333333334</ele><time>2026-04-19T14:23:24.99Z</time></trkpt><trkpt lat="44.3707767" lon="10.326825"><ele>902.0</ele><time>2026-04-19T14:23:25.99Z</time></trkpt><trkpt lat="44.37092" lon="10.3269617"><ele>902.0</ele><time>2026-04-19T14:23:26.99Z</time></trkpt><trkpt lat="44.3710583" lon="10.3270917"><ele>902.0</ele><time>2026-04-19T14:23:27.99Z</time></trkpt><trkpt lat="44.371195" lon="10.3272133"><ele>902.0</ele><time>2026-04-19T14:23:28.99Z</time></trkpt><trkpt lat="44.3713317" lon="10.3273217"><ele>901.0</ele><time>2026-04-19T14:23:29.99Z</time></trkpt><trkpt lat="44.3714683" lon="10.3273983"><ele>900.0</ele><time>2026-04-19T14:23:30.991Z</time></trkpt><trkpt lat="44.3716183" lon="10.3274433"><ele>899.0</ele><time>2026-04-19T14:23:31.99Z</time></trkpt><trkpt lat="44.3717883" lon="10.3274533"><ele>899.0</ele><time>2026-04-19T14:23:32.99Z</time></trkpt><trkpt lat="44.371975" lon="10.3274133"><ele>899.0</ele><time>2026-04-19T14:23:33.99Z</time></trkpt><trkpt lat="44.3721567" lon="10.3273483"><ele>899.0</ele><time>2026-04-19T14:23:34.99Z</time></trkpt><trkpt lat="44.3723283" lon="10.3273"><ele>899.0</ele><time>2026-04-19T14:23:35.99Z</time></trkpt><trkpt lat="44.3724933" lon="10.32727"><ele>899.0</ele><time>2026-04-19T14:23:36.99Z</time></trkpt><trkpt lat="44.3726467" lon="10.3272883"><ele>899.0</ele><time>2026-04-19T14:23:37.99Z</time></trkpt><trkpt lat="44.3727917" lon="10.32736"><ele>899.0</ele><time>2026-04-19T14:23:38.99Z</time></trkpt><trkpt lat="44.3729283" lon="10.3274767"><ele>899.0</ele><time>2026-04-19T14:23:39.99Z</time></trkpt><trkpt lat="44.373055" lon="10.3276167"><ele>899.0</ele><time>2026-04-19T14:23:40.99Z</time></trkpt><trkpt lat="44.3731833" lon="10.3277617"><ele>897.6666666666667</ele><time>2026-04-19T14:23:41.99Z</time></trkpt><trkpt lat="44.37333" lon="10.32791"><ele>896.3333333333333</ele><time>2026-04-19T14:23:42.991Z</time></trkpt><trkpt lat="44.3734933" lon="10.3280517"><ele>895.0</ele><time>2026-04-19T14:23:43.99Z</time></trkpt><trkpt lat="44.3736717" lon="10.328175"><ele>895.0</ele><time>2026-04-19T14:23:44.99Z</time></trkpt><trkpt lat="44.37385" lon="10.3282933"><ele>895.0</ele><time>2026-04-19T14:23:45.99Z</time></trkpt><trkpt lat="44.3740233" lon="10.3284017"><ele>895.0</ele><time>2026-04-19T14:23:46.99Z</time></trkpt><trkpt lat="44.3741917" lon="10.3285217"><ele>901.0</ele><time>2026-04-19T14:23:47.99Z</time></trkpt><trkpt lat="44.3743583" lon="10.3286433"><ele>907.0</ele><time>2026-04-19T14:23:48.99Z</time></trkpt><trkpt lat="44.3745233" lon="10.3287417"><ele>913.0</ele><time>2026-04-19T14:23:49.99Z</time></trkpt><trkpt lat="44.374665" lon="10.32883"><ele>912.0</ele><time>2026-04-19T14:23:50.99Z</time></trkpt><trkpt lat="44.3747867" lon="10.3288917"><ele>911.0</ele><time>2026-04-19T14:23:51.99Z</time></trkpt><trkpt lat="44.3749117" lon="10.3289017"><ele>910.0</ele><time>2026-04-19T14:23:52.99Z</time></trkpt><trkpt lat="44.3750367" lon="10.3288583"><ele>909.0</ele><time>2026-04-19T14:23:53.99Z</time></trkpt><trkpt lat="44.3751483" lon="10.3287533"><ele>914.0</ele><time>2026-04-19T14:23:54.99Z</time></trkpt><trkpt lat="44.3752417" lon="10.328595"><ele>919.0</ele><time>2026-04-19T14:23:55.99Z</time></trkpt><trkpt lat="44.3753383" lon="10.3284133"><ele>924.0</ele><time>2026-04-19T14:23:56.99Z</time></trkpt><trkpt lat="44.3754433" lon="10.3282617"><ele>922.5</ele><time>2026-04-19T14:23:57.99Z</time></trkpt><trkpt lat="44.3755667" lon="10.3281567"><ele>921.0</ele><time>2026-04-19T14:23:58.99Z</time></trkpt><trkpt lat="44.375695" lon="10.3280783"><ele>919.5</ele><time>2026-04-19T14:23:59.99Z</time></trkpt><trkpt lat="44.37584" lon="10.3280483"><ele>918.0</ele><time>2026-04-19T14:24:00.99Z</time></trkpt><trkpt lat="44.3759883" lon="10.3280517"><ele>918.0</ele><time>2026-04-19T14:24:01.99Z</time></trkpt><trkpt lat="44.376135" lon="10.32809"><ele>918.0</ele><time>2026-04-19T14:24:02.99Z</time></trkpt><trkpt lat="44.3762617" lon="10.3281633"><ele>918.0</ele><time>2026-04-19T14:24:03.99Z</time></trkpt><trkpt lat="44.3763733" lon="10.3282583"><ele>918.0</ele><time>2026-04-19T14:24:04.99Z</time></trkpt><trkpt lat="44.3764883" lon="10.3283867"><ele>921.0</ele><time>2026-04-19T14:24:05.99Z</time></trkpt><trkpt lat="44.3766233" lon="10.32848"><ele>924.0</ele><time>2026-04-19T14:24:06.99Z</time></trkpt><trkpt lat="44.3767667" lon="10.32852"><ele>927.0</ele><time>2026-04-19T14:24:07.99Z</time></trkpt><trkpt lat="44.3769133" lon="10.32851"><ele>930.0</ele><time>2026-04-19T14:24:08.99Z</time></trkpt><trkpt lat="44.3770617" lon="10.3284833"><ele>930.0</ele><time>2026-04-19T14:24:09.99Z</time></trkpt><trkpt lat="44.3771933" lon="10.3284683"><ele>930.0</ele><time>2026-04-19T14:24:10.99Z</time></trkpt><trkpt lat="44.3773117" lon="10.32847"><ele>930.0</ele><time>2026-04-19T14:24:11.99Z</time></trkpt><trkpt lat="44.3774183" lon="10.3284817"><ele>930.0</ele><time>2026-04-19T14:24:12.99Z</time></trkpt><trkpt lat="44.3775167" lon="10.3284967"><ele>930.0</ele><time>2026-04-19T14:24:13.99Z</time></trkpt><trkpt lat="44.3776083" lon="10.3284733"><ele>930.0</ele><time>2026-04-19T14:24:14.99Z</time></trkpt><trkpt lat="44.3776917" lon="10.3283967"><ele>930.0</ele><time>2026-04-19T14:24:15.99Z</time></trkpt><trkpt lat="44.37776" lon="10.3282783"><ele>930.0</ele><time>2026-04-19T14:24:16.99Z</time></trkpt><trkpt lat="44.377825" lon="10.3281317"><ele>930.0</ele><time>2026-04-19T14:24:17.991Z</time></trkpt><trkpt lat="44.3778967" lon="10.3280017"><ele>932.5</ele><time>2026-04-19T14:24:18.991Z</time></trkpt><trkpt lat="44.3779533" lon="10.3278733"><ele>935.0</ele><time>2026-04-19T14:24:19.991Z</time></trkpt><trkpt lat="44.3779933" lon="10.3277317"><ele>937.5</ele><time>2026-04-19T14:24:20.99Z</time></trkpt><trkpt lat="44.37801" lon="10.3275683"><ele>940.0</ele><time>2026-04-19T14:24:21.99Z</time></trkpt><trkpt lat="44.378015" lon="10.32737"><ele>938.3333333333333</ele><time>2026-04-19T14:24:22.99Z</time></trkpt><trkpt lat="44.378025" lon="10.3271667"><ele>936.6666666666667</ele><time>2026-04-19T14:24:23.99Z</time></trkpt><trkpt lat="44.378055" lon="10.326955"><ele>935.0</ele><time>2026-04-19T14:24:24.99Z</time></trkpt><trkpt lat="44.378115" lon="10.3267417"><ele>935.0</ele><time>2026-04-19T14:24:25.99Z</time></trkpt><trkpt lat="44.3781967" lon="10.3265567"><ele>935.0</ele><time>2026-04-19T14:24:26.99Z</time></trkpt><trkpt lat="44.3782717" lon="10.3263833"><ele>935.0</ele><time>2026-04-19T14:24:27.99Z</time></trkpt><trkpt lat="44.3783367" lon="10.32623"><ele>935.0</ele><time>2026-04-19T14:24:28.99Z</time></trkpt><trkpt lat="44.378415" lon="10.3261017"><ele>936.25</ele><time>2026-04-19T14:24:29.99Z</time></trkpt><trkpt lat="44.378505" lon="10.3260133"><ele>937.5</ele><time>2026-04-19T14:24:30.99Z</time></trkpt><trkpt lat="44.378625" lon="10.3259883"><ele>938.75</ele><time>2026-04-19T14:24:31.99Z</time></trkpt><trkpt lat="44.3787367" lon="10.32599"><ele>940.0</ele><time>2026-04-19T14:24:32.99Z</time></trkpt><trkpt lat="44.37885" lon="10.3260367"><ele>939.75</ele><time>2026-04-19T14:24:33.99Z</time></trkpt><trkpt lat="44.3789433" lon="10.326115"><ele>939.5</ele><time>2026-04-19T14:24:34.991Z</time></trkpt><trkpt lat="44.3790167" lon="10.326245"><ele>939.25</ele><time>2026-04-19T14:24:35.99Z</time></trkpt><trkpt lat="44.3790767" lon="10.32644"><ele>939.0</ele><time>2026-04-19T14:24:36.99Z</time></trkpt><trkpt lat="44.379115" lon="10.326695"><ele>938.0</ele><time>2026-04-19T14:24:37.99Z</time></trkpt><trkpt lat="44.379155" lon="10.32697"><ele>937.0</ele><time>2026-04-19T14:24:38.99Z</time></trkpt><trkpt lat="44.37921" lon="10.3272267"><ele>936.0</ele><time>2026-04-19T14:24:39.99Z</time></trkpt><trkpt lat="44.37928" lon="10.32747"><ele>933.3333333333333</ele><time>2026-04-19T14:24:40.99Z</time></trkpt><trkpt lat="44.37936" lon="10.3276867"><ele>930.6666666666666</ele><time>2026-04-19T14:24:41.99Z</time></trkpt><trkpt lat="44.3794283" lon="10.3278933"><ele>928.0</ele><time>2026-04-19T14:24:42.99Z</time></trkpt><trkpt lat="44.379475" lon="10.32809"><ele>925.5</ele><time>2026-04-19T14:24:43.99Z</time></trkpt><trkpt lat="44.37949" lon="10.3282833"><ele>923.0</ele><time>2026-04-19T14:24:44.99Z</time></trkpt><trkpt lat="44.3794867" lon="10.3284883"><ele>920.5</ele><time>2026-04-19T14:24:45.99Z</time></trkpt><trkpt lat="44.3794917" lon="10.328695"><ele>918.0</ele><time>2026-04-19T14:24:46.99Z</time></trkpt><trkpt lat="44.37951" lon="10.3289"><ele>915.25</ele><time>2026-04-19T14:24:47.99Z</time></trkpt><trkpt lat="44.379545" lon="10.3290917"><ele>912.5</ele><time>2026-04-19T14:24:48.99Z</time></trkpt><trkpt lat="44.379595" lon="10.3292617"><ele>909.75</ele><time>2026-04-19T14:24:49.99Z</time></trkpt><trkpt lat="44.3796483" lon="10.329405"><ele>907.0</ele><time>2026-04-19T14:24:50.99Z</time></trkpt><trkpt lat="44.3796883" lon="10.3295383"><ele>905.0</ele><time>2026-04-19T14:24:51.99Z</time></trkpt><trkpt lat="44.3796917" lon="10.3296683"><ele>903.0</ele><time>2026-04-19T14:24:52.991Z</time></trkpt><trkpt lat="44.3796467" lon="10.3298317"><ele>901.0</ele><time>2026-04-19T14:24:53.99Z</time></trkpt><trkpt lat="44.3795833" lon="10.33001"><ele>899.0</ele><time>2026-04-19T14:24:54.99Z</time></trkpt><trkpt lat="44.379525" lon="10.3301983"><ele>899.0</ele><time>2026-04-19T14:24:55.99Z</time></trkpt><trkpt lat="44.379475" lon="10.330365"><ele>899.0</ele><time>2026-04-19T14:24:56.99Z</time></trkpt><trkpt lat="44.3794317" lon="10.3305167"><ele>899.0</ele><time>2026-04-19T14:24:57.99Z</time></trkpt><trkpt lat="44.3794117" lon="10.3306583"><ele>899.0</ele><time>2026-04-19T14:24:58.99Z</time></trkpt><trkpt lat="44.3794133" lon="10.3308117"><ele>898.0</ele><time>2026-04-19T14:24:59.99Z</time></trkpt><trkpt lat="44.3794667" lon="10.3309683"><ele>897.0</ele><time>2026-04-19T14:25:00.99Z</time></trkpt><trkpt lat="44.3795467" lon="10.3311183"><ele>896.0</ele><time>2026-04-19T14:25:01.99Z</time></trkpt><trkpt lat="44.3796517" lon="10.3312783"><ele>895.0</ele><time>2026-04-19T14:25:02.99Z</time></trkpt><trkpt lat="44.379755" lon="10.3314483"><ele>903.0</ele><time>2026-04-19T14:25:03.99Z</time></trkpt><trkpt lat="44.3798383" lon="10.3316233"><ele>911.0</ele><time>2026-04-19T14:25:04.99Z</time></trkpt><trkpt lat="44.3799117" lon="10.331785"><ele>919.0</ele><time>2026-04-19T14:25:05.99Z</time></trkpt><trkpt lat="44.3799733" lon="10.3319467"><ele>927.0</ele><time>2026-04-19T14:25:06.99Z</time></trkpt><trkpt lat="44.3800033" lon="10.3321167"><ele>925.0</ele><time>2026-04-19T14:25:07.99Z</time></trkpt><trkpt lat="44.3799983" lon="10.3323"><ele>923.0</ele><time>2026-04-19T14:25:08.99Z</time></trkpt><trkpt lat="44.3799567" lon="10.33248"><ele>921.0</ele><time>2026-04-19T14:25:09.99Z</time></trkpt><trkpt lat="44.3798967" lon="10.3326533"><ele>919.0</ele><time>2026-04-19T14:25:10.99Z</time></trkpt><trkpt lat="44.37985" lon="10.3328133"><ele>919.0</ele><time>2026-04-19T14:25:11.99Z</time></trkpt><trkpt lat="44.379835" lon="10.33297"><ele>919.0</ele><time>2026-04-19T14:25:12.99Z</time></trkpt><trkpt lat="44.3798567" lon="10.3331317"><ele>919.0</ele><time>2026-04-19T14:25:13.99Z</time></trkpt><trkpt lat="44.3799267" lon="10.3332667"><ele>919.0</ele><time>2026-04-19T14:25:14.99Z</time></trkpt><trkpt lat="44.3800383" lon="10.33338"><ele>916.0</ele><time>2026-04-19T14:25:15.99Z</time></trkpt><trkpt lat="44.3801683" lon="10.333475"><ele>913.0</ele><time>2026-04-19T14:25:16.99Z</time></trkpt><trkpt lat="44.3803067" lon="10.33355"><ele>910.0</ele><time>2026-04-19T14:25:17.99Z</time></trkpt><trkpt lat="44.3804633" lon="10.333595"><ele>915.3333333333333</ele><time>2026-04-19T14:25:18.991Z</time></trkpt><trkpt lat="44.3806217" lon="10.33359"><ele>920.6666666666667</ele><time>2026-04-19T14:25:19.99Z</time></trkpt><trkpt lat="44.3807717" lon="10.33358"><ele>926.0</ele><time>2026-04-19T14:25:20.99Z</time></trkpt><trkpt lat="44.380915" lon="10.333575"><ele>926.0</ele><time>2026-04-19T14:25:21.99Z</time></trkpt><trkpt lat="44.3810567" lon="10.3335817"><ele>926.0</ele><time>2026-04-19T14:25:22.99Z</time></trkpt><trkpt lat="44.3811933" lon="10.333585"><ele>926.0</ele><time>2026-04-19T14:25:23.99Z</time></trkpt><trkpt lat="44.3813283" lon="10.3335783"><ele>926.0</ele><time>2026-04-19T14:25:24.99Z</time></trkpt><trkpt lat="44.3814567" lon="10.33354"><ele>923.75</ele><time>2026-04-19T14:25:25.99Z</time></trkpt><trkpt lat="44.381585" lon="10.3334817"><ele>921.5</ele><time>2026-04-19T14:25:26.99Z</time></trkpt><trkpt lat="44.381715" lon="10.3333883"><ele>919.25</ele><time>2026-04-19T14:25:27.991Z</time></trkpt><trkpt lat="44.3818417" lon="10.333255"><ele>917.0</ele><time>2026-04-19T14:25:28.99Z</time></trkpt><trkpt lat="44.3819633" lon="10.333085"><ele>915.0</ele><time>2026-04-19T14:25:29.99Z</time></trkpt><trkpt lat="44.382075" lon="10.3328933"><ele>913.0</ele><time>2026-04-19T14:25:30.99Z</time></trkpt><trkpt lat="44.3821917" lon="10.332685"><ele>911.0</ele><time>2026-04-19T14:25:31.99Z</time></trkpt><trkpt lat="44.382305" lon="10.3324833"><ele>911.0</ele><time>2026-04-19T14:25:32.99Z</time></trkpt><trkpt lat="44.3824083" lon="10.33229"><ele>911.0</ele><time>2026-04-19T14:25:33.99Z</time></trkpt><trkpt lat="44.3825133" lon="10.3320967"><ele>911.0</ele><time>2026-04-19T14:25:34.99Z</time></trkpt><trkpt lat="44.3826167" lon="10.3319117"><ele>915.0</ele><time>2026-04-19T14:25:35.99Z</time></trkpt><trkpt lat="44.3827183" lon="10.331725"><ele>919.0</ele><time>2026-04-19T14:25:36.99Z</time></trkpt><trkpt lat="44.382815" lon="10.33155"><ele>923.0</ele><time>2026-04-19T14:25:37.99Z</time></trkpt><trkpt lat="44.38291" lon="10.33138"><ele>925.6666666666667</ele><time>2026-04-19T14:25:38.99Z</time></trkpt><trkpt lat="44.3830017" lon="10.3312067"><ele>928.3333333333333</ele><time>2026-04-19T14:25:39.99Z</time></trkpt><trkpt lat="44.383095" lon="10.33103"><ele>931.0</ele><time>2026-04-19T14:25:40.99Z</time></trkpt><trkpt lat="44.3831833" lon="10.3308367"><ele>927.6666666666666</ele><time>2026-04-19T14:25:41.99Z</time></trkpt><trkpt lat="44.38327" lon="10.3306283"><ele>924.3333333333333</ele><time>2026-04-19T14:25:42.99Z</time></trkpt><trkpt lat="44.3833467" lon="10.3304267"><ele>921.0</ele><time>2026-04-19T14:25:43.99Z</time></trkpt><trkpt lat="44.383435" lon="10.3302133"><ele>921.0</ele><time>2026-04-19T14:25:44.99Z</time></trkpt><trkpt lat="44.383515" lon="10.32999"><ele>921.0</ele><time>2026-04-19T14:25:45.99Z</time></trkpt><trkpt lat="44.3836017" lon="10.32977"><ele>921.0</ele><time>2026-04-19T14:25:46.989Z</time></trkpt><trkpt lat="44.3836917" lon="10.32956"><ele>920.0</ele><time>2026-04-19T14:25:47.989Z</time></trkpt><trkpt lat="44.3837867" lon="10.3293767"><ele>919.0</ele><time>2026-04-19T14:25:48.989Z</time></trkpt><trkpt lat="44.3838933" lon="10.3292117"><ele>918.0</ele><time>2026-04-19T14:25:49.989Z</time></trkpt><trkpt lat="44.38402" lon="10.32907"><ele>918.0</ele><time>2026-04-19T14:25:50.989Z</time></trkpt><trkpt lat="44.38416" lon="10.3289617"><ele>918.0</ele><time>2026-04-19T14:25:51.989Z</time></trkpt><trkpt lat="44.384315" lon="10.3288933"><ele>918.0</ele><time>2026-04-19T14:25:52.989Z</time></trkpt><trkpt lat="44.3844867" lon="10.3288733"><ele>920.3333333333333</ele><time>2026-04-19T14:25:53.989Z</time></trkpt><trkpt lat="44.3846717" lon="10.328875"><ele>922.6666666666666</ele><time>2026-04-19T14:25:54.989Z</time></trkpt><trkpt lat="44.3848767" lon="10.328895"><ele>925.0</ele><time>2026-04-19T14:25:55.989Z</time></trkpt><trkpt lat="44.3851083" lon="10.32893"><ele>925.0</ele><time>2026-04-19T14:25:56.989Z</time></trkpt><trkpt lat="44.38534" lon="10.328955"><ele>925.0</ele><time>2026-04-19T14:25:57.989Z</time></trkpt><trkpt lat="44.38556" lon="10.3289717"><ele>926.0</ele><time>2026-04-19T14:25:58.989Z</time></trkpt><trkpt lat="44.385755" lon="10.3289933"><ele>927.0</ele><time>2026-04-19T14:25:59.989Z</time></trkpt><trkpt lat="44.3859467" lon="10.329015"><ele>928.0</ele><time>2026-04-19T14:26:00.989Z</time></trkpt><trkpt lat="44.3861317" lon="10.32904"><ele>928.0</ele><time>2026-04-19T14:26:01.989Z</time></trkpt><trkpt lat="44.3863217" lon="10.3290667"><ele>928.0</ele><time>2026-04-19T14:26:02.989Z</time></trkpt><trkpt lat="44.3865117" lon="10.3290967"><ele>928.0</ele><time>2026-04-19T14:26:03.989Z</time></trkpt><trkpt lat="44.386695" lon="10.3291233"><ele>929.0</ele><time>2026-04-19T14:26:04.989Z</time></trkpt><trkpt lat="44.3868717" lon="10.3291433"><ele>930.0</ele><time>2026-04-19T14:26:05.989Z</time></trkpt><trkpt lat="44.387055" lon="10.3291567"><ele>931.0</ele><time>2026-04-19T14:26:06.989Z</time></trkpt><trkpt lat="44.3872367" lon="10.329145"><ele>932.3333333333333</ele><time>2026-04-19T14:26:07.989Z</time></trkpt><trkpt lat="44.387425" lon="10.3291267"><ele>933.6666666666667</ele><time>2026-04-19T14:26:08.989Z</time></trkpt><trkpt lat="44.38761" lon="10.32908"><ele>935.0</ele><time>2026-04-19T14:26:09.989Z</time></trkpt><trkpt lat="44.3877967" lon="10.3290133"><ele>935.0</ele><time>2026-04-19T14:26:10.989Z</time></trkpt><trkpt lat="44.3879783" lon="10.328955"><ele>935.0</ele><time>2026-04-19T14:26:11.989Z</time></trkpt><trkpt lat="44.38816" lon="10.3289117"><ele>935.0</ele><time>2026-04-19T14:26:12.989Z</time></trkpt><trkpt lat="44.3883283" lon="10.32886"><ele>942.3333333333334</ele><time>2026-04-19T14:26:13.989Z</time></trkpt><trkpt lat="44.388495" lon="10.3288083"><ele>949.6666666666667</ele><time>2026-04-19T14:26:14.989Z</time></trkpt><trkpt lat="44.388655" lon="10.328755"><ele>957.0</ele><time>2026-04-19T14:26:15.989Z</time></trkpt><trkpt lat="44.3888167" lon="10.3287"><ele>956.6666666666667</ele><time>2026-04-19T14:26:16.989Z</time></trkpt><trkpt lat="44.3889867" lon="10.3286633"><ele>956.3333333333334</ele><time>2026-04-19T14:26:17.989Z</time></trkpt><trkpt lat="44.389155" lon="10.328645"><ele>956.0</ele><time>2026-04-19T14:26:18.989Z</time></trkpt><trkpt lat="44.3893267" lon="10.3286633"><ele>956.0</ele><time>2026-04-19T14:26:19.989Z</time></trkpt><trkpt lat="44.3894917" lon="10.3287033"><ele>956.0</ele><time>2026-04-19T14:26:20.989Z</time></trkpt><trkpt lat="44.3896717" lon="10.3287917"><ele>956.0</ele><time>2026-04-19T14:26:21.989Z</time></trkpt><trkpt lat="44.389855" lon="10.3288667"><ele>949.3333333333334</ele><time>2026-04-19T14:26:22.989Z</time></trkpt><trkpt lat="44.3900183" lon="10.3289383"><ele>942.6666666666667</ele><time>2026-04-19T14:26:23.989Z</time></trkpt><trkpt lat="44.3901717" lon="10.3289783"><ele>936.0</ele><time>2026-04-19T14:26:24.989Z</time></trkpt><trkpt lat="44.390325" lon="10.328955"><ele>941.6666666666667</ele><time>2026-04-19T14:26:25.989Z</time></trkpt><trkpt lat="44.39047" lon="10.3288883"><ele>947.3333333333334</ele><time>2026-04-19T14:26:26.989Z</time></trkpt><trkpt lat="44.3906067" lon="10.3287917"><ele>953.0</ele><time>2026-04-19T14:26:27.989Z</time></trkpt><trkpt lat="44.3907367" lon="10.3286733"><ele>953.0</ele><time>2026-04-19T14:26:28.989Z</time></trkpt><trkpt lat="44.3908683" lon="10.3285467"><ele>953.0</ele><time>2026-04-19T14:26:29.989Z</time></trkpt><trkpt lat="44.3910083" lon="10.32841"><ele>953.0</ele><time>2026-04-19T14:26:30.99Z</time></trkpt><trkpt lat="44.391145" lon="10.3282783"><ele>953.0</ele><time>2026-04-19T14:26:31.989Z</time></trkpt><trkpt lat="44.391275" lon="10.3281417"><ele>953.0</ele><time>2026-04-19T14:26:32.989Z</time></trkpt><trkpt lat="44.39141" lon="10.3279983"><ele>953.0</ele><time>2026-04-19T14:26:33.989Z</time></trkpt><trkpt lat="44.39156" lon="10.32785"><ele>953.6666666666667</ele><time>2026-04-19T14:26:34.989Z</time></trkpt><trkpt lat="44.39171" lon="10.3277033"><ele>954.3333333333333</ele><time>2026-04-19T14:26:35.989Z</time></trkpt><trkpt lat="44.3918517" lon="10.3275667"><ele>955.0</ele><time>2026-04-19T14:26:36.989Z</time></trkpt><trkpt lat="44.391985" lon="10.327445"><ele>955.0</ele><time>2026-04-19T14:26:37.989Z</time></trkpt><trkpt lat="44.3921133" lon="10.3273483"><ele>955.0</ele><time>2026-04-19T14:26:38.989Z</time></trkpt><trkpt lat="44.3922367" lon="10.32728"><ele>955.0</ele><time>2026-04-19T14:26:39.989Z</time></trkpt><trkpt lat="44.3923583" lon="10.327245"><ele>955.0</ele><time>2026-04-19T14:26:40.989Z</time></trkpt><trkpt lat="44.392475" lon="10.32725"><ele>953.3333333333333</ele><time>2026-04-19T14:26:41.989Z</time></trkpt><trkpt lat="44.3926033" lon="10.3273033"><ele>951.6666666666667</ele><time>2026-04-19T14:26:42.989Z</time></trkpt><trkpt lat="44.39273" lon="10.3274367"><ele>950.0</ele><time>2026-04-19T14:26:43.989Z</time></trkpt><trkpt lat="44.392845" lon="10.3275967"><ele>950.0</ele><time>2026-04-19T14:26:44.989Z</time></trkpt><trkpt lat="44.3929633" lon="10.3277783"><ele>950.0</ele><time>2026-04-19T14:26:45.99Z</time></trkpt><trkpt lat="44.3930783" lon="10.3279417"><ele>950.0</ele><time>2026-04-19T14:26:46.989Z</time></trkpt><trkpt lat="44.3932033" lon="10.3280817"><ele>948.6666666666667</ele><time>2026-04-19T14:26:47.989Z</time></trkpt><trkpt lat="44.39335" lon="10.3281917"><ele>947.3333333333333</ele><time>2026-04-19T14:26:48.989Z</time></trkpt><trkpt lat="44.3935167" lon="10.3282533"><ele>946.0</ele><time>2026-04-19T14:26:49.989Z</time></trkpt><trkpt lat="44.3936933" lon="10.32828"><ele>949.3333333333333</ele><time>2026-04-19T14:26:50.989Z</time></trkpt><trkpt lat="44.3938817" lon="10.32829"><ele>952.6666666666667</ele><time>2026-04-19T14:26:51.989Z</time></trkpt><trkpt lat="44.3940633" lon="10.3283017"><ele>956.0</ele><time>2026-04-19T14:26:52.989Z</time></trkpt><trkpt lat="44.3942417" lon="10.3283067"><ele>956.0</ele><time>2026-04-19T14:26:53.989Z</time></trkpt><trkpt lat="44.394415" lon="10.32832"><ele>956.0</ele><time>2026-04-19T14:26:54.989Z</time></trkpt><trkpt lat="44.3945817" lon="10.32834"><ele>956.0</ele><time>2026-04-19T14:26:55.989Z</time></trkpt><trkpt lat="44.3947467" lon="10.3283617"><ele>956.0</ele><time>2026-04-19T14:26:56.989Z</time></trkpt><trkpt lat="44.3949083" lon="10.328405"><ele>956.0</ele><time>2026-04-19T14:26:57.988Z</time></trkpt><trkpt lat="44.395065" lon="10.3284567"><ele>956.0</ele><time>2026-04-19T14:26:58.989Z</time></trkpt><trkpt lat="44.3952133" lon="10.3285217"><ele>956.0</ele><time>2026-04-19T14:26:59.989Z</time></trkpt><trkpt lat="44.3953617" lon="10.3285783"><ele>956.0</ele><time>2026-04-19T14:27:00.989Z</time></trkpt><trkpt lat="44.3955083" lon="10.3286467"><ele>956.0</ele><time>2026-04-19T14:27:01.989Z</time></trkpt><trkpt lat="44.3956567" lon="10.328725"><ele>955.3333333333334</ele><time>2026-04-19T14:27:02.989Z</time></trkpt><trkpt lat="44.3958067" lon="10.3288033"><ele>954.6666666666667</ele><time>2026-04-19T14:27:03.989Z</time></trkpt><trkpt lat="44.39596" lon="10.3288883"><ele>954.0</ele><time>2026-04-19T14:27:04.989Z</time></trkpt><trkpt lat="44.396115" lon="10.3289767"><ele>954.0</ele><time>2026-04-19T14:27:05.989Z</time></trkpt><trkpt lat="44.3962683" lon="10.329065"><ele>954.0</ele><time>2026-04-19T14:27:06.989Z</time></trkpt><trkpt lat="44.3964183" lon="10.329145"><ele>954.0</ele><time>2026-04-19T14:27:07.989Z</time></trkpt><trkpt lat="44.39657" lon="10.3292183"><ele>954.6666666666667</ele><time>2026-04-19T14:27:08.989Z</time></trkpt><trkpt lat="44.3967283" lon="10.3292633"><ele>955.3333333333334</ele><time>2026-04-19T14:27:09.989Z</time></trkpt><trkpt lat="44.3968933" lon="10.3292783"><ele>956.0</ele><time>2026-04-19T14:27:10.989Z</time></trkpt><trkpt lat="44.3970533" lon="10.3292567"><ele>956.6666666666667</ele><time>2026-04-19T14:27:11.989Z</time></trkpt><trkpt lat="44.3972167" lon="10.3292083"><ele>957.3333333333333</ele><time>2026-04-19T14:27:12.989Z</time></trkpt><trkpt lat="44.3973833" lon="10.3291617"><ele>958.0</ele><time>2026-04-19T14:27:13.989Z</time></trkpt><trkpt lat="44.397555" lon="10.3291067"><ele>958.0</ele><time>2026-04-19T14:27:14.989Z</time></trkpt><trkpt lat="44.397725" lon="10.329065"><ele>958.0</ele><time>2026-04-19T14:27:15.989Z</time></trkpt><trkpt lat="44.397905" lon="10.3290133"><ele>958.0</ele><time>2026-04-19T14:27:16.989Z</time></trkpt><trkpt lat="44.3980883" lon="10.3289683"><ele>958.0</ele><time>2026-04-19T14:27:17.989Z</time></trkpt><trkpt lat="44.3982717" lon="10.3289367"><ele>958.0</ele><time>2026-04-19T14:27:18.989Z</time></trkpt><trkpt lat="44.3984633" lon="10.3289183"><ele>958.0</ele><time>2026-04-19T14:27:19.989Z</time></trkpt><trkpt lat="44.398665" lon="10.3289417"><ele>958.3333333333333</ele><time>2026-04-19T14:27:20.989Z</time></trkpt><trkpt lat="44.3988667" lon="10.328995"><ele>958.6666666666667</ele><time>2026-04-19T14:27:21.989Z</time></trkpt><trkpt lat="44.3990767" lon="10.329065"><ele>959.0</ele><time>2026-04-19T14:27:22.989Z</time></trkpt><trkpt lat="44.39928" lon="10.3291333"><ele>959.0</ele><time>2026-04-19T14:27:23.989Z</time></trkpt><trkpt lat="44.3994733" lon="10.3292017"><ele>959.0</ele><time>2026-04-19T14:27:24.989Z</time></trkpt><trkpt lat="44.3996783" lon="10.3292917"><ele>959.0</ele><time>2026-04-19T14:27:25.989Z</time></trkpt><trkpt lat="44.399885" lon="10.3294133"><ele>958.3333333333334</ele><time>2026-04-19T14:27:26.989Z</time></trkpt><trkpt lat="44.4000833" lon="10.3295483"><ele>957.6666666666667</ele><time>2026-04-19T14:27:27.989Z</time></trkpt><trkpt lat="44.4002733" lon="10.3296783"><ele>957.0</ele><time>2026-04-19T14:27:28.989Z</time></trkpt><trkpt lat="44.4004583" lon="10.32981"><ele>959.0</ele><time>2026-04-19T14:27:29.99Z</time></trkpt><trkpt lat="44.4006433" lon="10.3299383"><ele>961.0</ele><time>2026-04-19T14:27:30.989Z</time></trkpt><trkpt lat="44.400825" lon="10.3300633"><ele>963.0</ele><time>2026-04-19T14:27:31.989Z</time></trkpt><trkpt lat="44.4010083" lon="10.3301733"><ele>963.0</ele><time>2026-04-19T14:27:32.989Z</time></trkpt><trkpt lat="44.40119" lon="10.3302667"><ele>963.0</ele><time>2026-04-19T14:27:33.989Z</time></trkpt><trkpt lat="44.4013633" lon="10.3303433"><ele>963.0</ele><time>2026-04-19T14:27:34.989Z</time></trkpt><trkpt lat="44.40152" lon="10.3304083"><ele>965.25</ele><time>2026-04-19T14:27:35.989Z</time></trkpt><trkpt lat="44.4016617" lon="10.3304617"><ele>967.5</ele><time>2026-04-19T14:27:36.989Z</time></trkpt><trkpt lat="44.4017967" lon="10.3305017"><ele>969.75</ele><time>2026-04-19T14:27:37.989Z</time></trkpt><trkpt lat="44.4019317" lon="10.330515"><ele>972.0</ele><time>2026-04-19T14:27:38.989Z</time></trkpt><trkpt lat="44.4020783" lon="10.33048"><ele>971.25</ele><time>2026-04-19T14:27:39.989Z</time></trkpt><trkpt lat="44.402225" lon="10.33042"><ele>970.5</ele><time>2026-04-19T14:27:40.989Z</time></trkpt><trkpt lat="44.40236" lon="10.33035"><ele>969.75</ele><time>2026-04-19T14:27:41.989Z</time></trkpt><trkpt lat="44.40248" lon="10.3302683"><ele>969.0</ele><time>2026-04-19T14:27:42.989Z</time></trkpt><trkpt lat="44.4026" lon="10.3301983"><ele>969.0</ele><time>2026-04-19T14:27:43.989Z</time></trkpt><trkpt lat="44.402715" lon="10.3301567"><ele>969.0</ele><time>2026-04-19T14:27:44.989Z</time></trkpt><trkpt lat="44.40285" lon="10.330155"><ele>969.0</ele><time>2026-04-19T14:27:45.989Z</time></trkpt><trkpt lat="44.4029817" lon="10.3302133"><ele>969.0</ele><time>2026-04-19T14:27:46.989Z</time></trkpt><trkpt lat="44.4030983" lon="10.33032"><ele>967.6666666666667</ele><time>2026-04-19T14:27:47.989Z</time></trkpt><trkpt lat="44.4032133" lon="10.3304683"><ele>966.3333333333334</ele><time>2026-04-19T14:27:48.989Z</time></trkpt><trkpt lat="44.4033317" lon="10.3306567"><ele>965.0</ele><time>2026-04-19T14:27:49.989Z</time></trkpt><trkpt lat="44.4034617" lon="10.3308783"><ele>962.0</ele><time>2026-04-19T14:27:50.989Z</time></trkpt><trkpt lat="44.4036067" lon="10.331115"><ele>959.0</ele><time>2026-04-19T14:27:51.989Z</time></trkpt><trkpt lat="44.4037583" lon="10.3313783"><ele>958.5</ele><time>2026-04-19T14:27:52.989Z</time></trkpt><trkpt lat="44.4039133" lon="10.331665"><ele>958.0</ele><time>2026-04-19T14:27:53.989Z</time></trkpt><trkpt lat="44.4040617" lon="10.331955"><ele>958.0</ele><time>2026-04-19T14:27:54.989Z</time></trkpt><trkpt lat="44.4042" lon="10.33222"><ele>958.0</ele><time>2026-04-19T14:27:55.989Z</time></trkpt><trkpt lat="44.404325" lon="10.3324767"><ele>954.5</ele><time>2026-04-19T14:27:56.989Z</time></trkpt><trkpt lat="44.4045483" lon="10.332975"><ele>951.0</ele><time>2026-04-19T14:27:58.989Z</time></trkpt><trkpt lat="44.4046567" lon="10.3332267"><ele>952.6666666666667</ele><time>2026-04-19T14:27:59.989Z</time></trkpt><trkpt lat="44.4047767" lon="10.333485"><ele>954.3333333333334</ele><time>2026-04-19T14:28:00.989Z</time></trkpt><trkpt lat="44.404895" lon="10.3337383"><ele>956.0</ele><time>2026-04-19T14:28:01.989Z</time></trkpt><trkpt lat="44.4050067" lon="10.3339833"><ele>956.0</ele><time>2026-04-19T14:28:02.989Z</time></trkpt><trkpt lat="44.4051117" lon="10.33422"><ele>956.0</ele><time>2026-04-19T14:28:03.989Z</time></trkpt><trkpt lat="44.4052117" lon="10.3344483"><ele>956.0</ele><time>2026-04-19T14:28:04.989Z</time></trkpt><trkpt lat="44.405305" lon="10.3346583"><ele>954.6666666666667</ele><time>2026-04-19T14:28:05.989Z</time></trkpt><trkpt lat="44.405385" lon="10.3348633"><ele>953.3333333333333</ele><time>2026-04-19T14:28:06.99Z</time></trkpt><trkpt lat="44.4054633" lon="10.335045"><ele>952.0</ele><time>2026-04-19T14:28:07.989Z</time></trkpt><trkpt lat="44.4055267" lon="10.3352183"><ele>955.0</ele><time>2026-04-19T14:28:08.989Z</time></trkpt><trkpt lat="44.4055917" lon="10.33538"><ele>958.0</ele><time>2026-04-19T14:28:09.989Z</time></trkpt><trkpt lat="44.40565" lon="10.335545"><ele>961.0</ele><time>2026-04-19T14:28:10.989Z</time></trkpt><trkpt lat="44.4056967" lon="10.3357067"><ele>964.0</ele><time>2026-04-19T14:28:11.989Z</time></trkpt><trkpt lat="44.4057333" lon="10.3358733"><ele>964.0</ele><time>2026-04-19T14:28:12.989Z</time></trkpt><trkpt lat="44.4057717" lon="10.33603"><ele>964.0</ele><time>2026-04-19T14:28:13.989Z</time></trkpt><trkpt lat="44.4058217" lon="10.3361917"><ele>964.0</ele><time>2026-04-19T14:28:14.989Z</time></trkpt><trkpt lat="44.4058917" lon="10.3363517"><ele>964.0</ele><time>2026-04-19T14:28:15.989Z</time></trkpt><trkpt lat="44.4059933" lon="10.3364933"><ele>965.0</ele><time>2026-04-19T14:28:16.989Z</time></trkpt><trkpt lat="44.40612" lon="10.33664"><ele>966.0</ele><time>2026-04-19T14:28:17.989Z</time></trkpt><trkpt lat="44.4062583" lon="10.3368117"><ele>967.0</ele><time>2026-04-19T14:28:18.989Z</time></trkpt><trkpt lat="44.4064117" lon="10.3369783"><ele>967.0</ele><time>2026-04-19T14:28:19.989Z</time></trkpt><trkpt lat="44.4065633" lon="10.3371483"><ele>967.0</ele><time>2026-04-19T14:28:20.989Z</time></trkpt><trkpt lat="44.4067067" lon="10.3373083"><ele>967.0</ele><time>2026-04-19T14:28:21.989Z</time></trkpt><trkpt lat="44.4068383" lon="10.33745"><ele>965.3333333333333</ele><time>2026-04-19T14:28:22.989Z</time></trkpt><trkpt lat="44.4069817" lon="10.337555"><ele>963.6666666666667</ele><time>2026-04-19T14:28:23.989Z</time></trkpt><trkpt lat="44.4071517" lon="10.33761"><ele>962.0</ele><time>2026-04-19T14:28:24.989Z</time></trkpt><trkpt lat="44.40732" lon="10.337655"><ele>962.0</ele><time>2026-04-19T14:28:25.989Z</time></trkpt><trkpt lat="44.4074933" lon="10.3377033"><ele>962.0</ele><time>2026-04-19T14:28:26.989Z</time></trkpt><trkpt lat="44.407665" lon="10.3377917"><ele>962.0</ele><time>2026-04-19T14:28:27.989Z</time></trkpt><trkpt lat="44.4078217" lon="10.337925"><ele>963.0</ele><time>2026-04-19T14:28:28.989Z</time></trkpt><trkpt lat="44.4079517" lon="10.338095"><ele>964.0</ele><time>2026-04-19T14:28:29.989Z</time></trkpt><trkpt lat="44.4080433" lon="10.3383183"><ele>965.0</ele><time>2026-04-19T14:28:30.989Z</time></trkpt><trkpt lat="44.4080933" lon="10.33857"><ele>965.0</ele><time>2026-04-19T14:28:31.989Z</time></trkpt><trkpt lat="44.4081217" lon="10.3388283"><ele>965.0</ele><time>2026-04-19T14:28:32.989Z</time></trkpt><trkpt lat="44.40814" lon="10.3391033"><ele>965.0</ele><time>2026-04-19T14:28:33.989Z</time></trkpt><trkpt lat="44.4081633" lon="10.3393967"><ele>965.0</ele><time>2026-04-19T14:28:34.989Z</time></trkpt><trkpt lat="44.4081867" lon="10.3396983"><ele>965.0</ele><time>2026-04-19T14:28:35.989Z</time></trkpt><trkpt lat="44.408205" lon="10.339975"><ele>965.0</ele><time>2026-04-19T14:28:36.989Z</time></trkpt><trkpt lat="44.4082217" lon="10.34023"><ele>966.0</ele><time>2026-04-19T14:28:37.989Z</time></trkpt><trkpt lat="44.408235" lon="10.3404717"><ele>967.0</ele><time>2026-04-19T14:28:38.989Z</time></trkpt><trkpt lat="44.40825" lon="10.3406967"><ele>968.0</ele><time>2026-04-19T14:28:39.989Z</time></trkpt><trkpt lat="44.4082767" lon="10.3409267"><ele>968.0</ele><time>2026-04-19T14:28:40.989Z</time></trkpt><trkpt lat="44.408315" lon="10.341155"><ele>968.0</ele><time>2026-04-19T14:28:41.989Z</time></trkpt><trkpt lat="44.408365" lon="10.3413783"><ele>968.0</ele><time>2026-04-19T14:28:42.989Z</time></trkpt><trkpt lat="44.408435" lon="10.3415917"><ele>968.0</ele><time>2026-04-19T14:28:43.989Z</time></trkpt><trkpt lat="44.4085167" lon="10.3418017"><ele>968.0</ele><time>2026-04-19T14:28:44.989Z</time></trkpt><trkpt lat="44.4086217" lon="10.3420133"><ele>968.0</ele><time>2026-04-19T14:28:45.989Z</time></trkpt><trkpt lat="44.4087367" lon="10.3422233"><ele>968.0</ele><time>2026-04-19T14:28:46.989Z</time></trkpt><trkpt lat="44.4088583" lon="10.3424233"><ele>968.0</ele><time>2026-04-19T14:28:47.989Z</time></trkpt><trkpt lat="44.4089833" lon="10.34262"><ele>968.0</ele><time>2026-04-19T14:28:48.989Z</time></trkpt><trkpt lat="44.4091033" lon="10.3428083"><ele>968.0</ele><time>2026-04-19T14:28:49.989Z</time></trkpt><trkpt lat="44.4092267" lon="10.3430117"><ele>968.0</ele><time>2026-04-19T14:28:50.989Z</time></trkpt><trkpt lat="44.4093433" lon="10.3432067"><ele>968.0</ele><time>2026-04-19T14:28:51.989Z</time></trkpt><trkpt lat="44.40946" lon="10.3433967"><ele>967.3333333333334</ele><time>2026-04-19T14:28:52.99Z</time></trkpt><trkpt lat="44.4095767" lon="10.34358"><ele>966.6666666666667</ele><time>2026-04-19T14:28:53.989Z</time></trkpt><trkpt lat="44.4097067" lon="10.3437583"><ele>966.0</ele><time>2026-04-19T14:28:54.989Z</time></trkpt><trkpt lat="44.40986" lon="10.34392"><ele>970.6666666666667</ele><time>2026-04-19T14:28:55.989Z</time></trkpt><trkpt lat="44.41004" lon="10.3440617"><ele>975.3333333333334</ele><time>2026-04-19T14:28:56.989Z</time></trkpt><trkpt lat="44.4102233" lon="10.34419"><ele>980.0</ele><time>2026-04-19T14:28:57.989Z</time></trkpt><trkpt lat="44.4104" lon="10.3443117"><ele>973.3333333333334</ele><time>2026-04-19T14:28:58.989Z</time></trkpt><trkpt lat="44.4105683" lon="10.3444433"><ele>966.6666666666667</ele><time>2026-04-19T14:28:59.989Z</time></trkpt><trkpt lat="44.4107367" lon="10.34457"><ele>960.0</ele><time>2026-04-19T14:29:00.989Z</time></trkpt><trkpt lat="44.410905" lon="10.3447017"><ele>960.6666666666667</ele><time>2026-04-19T14:29:01.989Z</time></trkpt><trkpt lat="44.4110783" lon="10.344835"><ele>961.3333333333334</ele><time>2026-04-19T14:29:02.989Z</time></trkpt><trkpt lat="44.4112367" lon="10.3449567"><ele>962.0</ele><time>2026-04-19T14:29:03.989Z</time></trkpt><trkpt lat="44.41139" lon="10.345065"><ele>962.0</ele><time>2026-04-19T14:29:04.989Z</time></trkpt><trkpt lat="44.4115467" lon="10.3451717"><ele>962.0</ele><time>2026-04-19T14:29:05.989Z</time></trkpt><trkpt lat="44.4116917" lon="10.3452733"><ele>962.0</ele><time>2026-04-19T14:29:06.989Z</time></trkpt><trkpt lat="44.4118367" lon="10.345385"><ele>962.0</ele><time>2026-04-19T14:29:07.989Z</time></trkpt><trkpt lat="44.4119783" lon="10.3455033"><ele>962.0</ele><time>2026-04-19T14:29:08.989Z</time></trkpt><trkpt lat="44.412125" lon="10.3456117"><ele>962.0</ele><time>2026-04-19T14:29:09.989Z</time></trkpt><trkpt lat="44.412265" lon="10.3457317"><ele>963.0</ele><time>2026-04-19T14:29:10.989Z</time></trkpt><trkpt lat="44.412405" lon="10.34588"><ele>964.0</ele><time>2026-04-19T14:29:11.989Z</time></trkpt><trkpt lat="44.4125283" lon="10.3460417"><ele>965.0</ele><time>2026-04-19T14:29:12.989Z</time></trkpt><trkpt lat="44.412625" lon="10.3462"><ele>965.0</ele><time>2026-04-19T14:29:13.989Z</time></trkpt><trkpt lat="44.412705" lon="10.3463667"><ele>965.0</ele><time>2026-04-19T14:29:14.989Z</time></trkpt><trkpt lat="44.4127717" lon="10.3465583"><ele>965.0</ele><time>2026-04-19T14:29:15.989Z</time></trkpt><trkpt lat="44.412835" lon="10.3467783"><ele>967.0</ele><time>2026-04-19T14:29:16.989Z</time></trkpt><trkpt lat="44.4128867" lon="10.3470083"><ele>969.0</ele><time>2026-04-19T14:29:17.989Z</time></trkpt><trkpt lat="44.41293" lon="10.347225"><ele>971.0</ele><time>2026-04-19T14:29:18.989Z</time></trkpt><trkpt lat="44.4129717" lon="10.34742"><ele>970.0</ele><time>2026-04-19T14:29:19.989Z</time></trkpt><trkpt lat="44.4130067" lon="10.3476067"><ele>969.0</ele><time>2026-04-19T14:29:20.989Z</time></trkpt><trkpt lat="44.4130483" lon="10.34779"><ele>968.0</ele><time>2026-04-19T14:29:21.989Z</time></trkpt><trkpt lat="44.41309" lon="10.347975"><ele>967.0</ele><time>2026-04-19T14:29:22.989Z</time></trkpt><trkpt lat="44.41313" lon="10.3481583"><ele>966.5</ele><time>2026-04-19T14:29:23.989Z</time></trkpt><trkpt lat="44.4131717" lon="10.34833"><ele>966.0</ele><time>2026-04-19T14:29:24.989Z</time></trkpt><trkpt lat="44.413225" lon="10.3484967"><ele>965.5</ele><time>2026-04-19T14:29:25.989Z</time></trkpt><trkpt lat="44.4132933" lon="10.3486633"><ele>965.0</ele><time>2026-04-19T14:29:26.99Z</time></trkpt><trkpt lat="44.4133717" lon="10.3488317"><ele>960.6666666666667</ele><time>2026-04-19T14:29:27.989Z</time></trkpt><trkpt lat="44.4134517" lon="10.3490133"><ele>956.3333333333333</ele><time>2026-04-19T14:29:28.989Z</time></trkpt><trkpt lat="44.413525" lon="10.3492083"><ele>952.0</ele><time>2026-04-19T14:29:29.989Z</time></trkpt><trkpt lat="44.4136033" lon="10.3494133"><ele>952.0</ele><time>2026-04-19T14:29:30.989Z</time></trkpt><trkpt lat="44.4136767" lon="10.3496117"><ele>952.0</ele><time>2026-04-19T14:29:31.989Z</time></trkpt><trkpt lat="44.413755" lon="10.3498017"><ele>952.0</ele><time>2026-04-19T14:29:32.989Z</time></trkpt><trkpt lat="44.41385" lon="10.34998"><ele>950.3333333333333</ele><time>2026-04-19T14:29:33.989Z</time></trkpt><trkpt lat="44.4139667" lon="10.350125"><ele>948.6666666666667</ele><time>2026-04-19T14:29:34.989Z</time></trkpt><trkpt lat="44.4141033" lon="10.350255"><ele>947.0</ele><time>2026-04-19T14:29:35.989Z</time></trkpt><trkpt lat="44.4142417" lon="10.35039"><ele>942.6666666666667</ele><time>2026-04-19T14:29:36.989Z</time></trkpt><trkpt lat="44.4143683" lon="10.3505433"><ele>938.3333333333333</ele><time>2026-04-19T14:29:37.989Z</time></trkpt><trkpt lat="44.4144833" lon="10.350705"><ele>934.0</ele><time>2026-04-19T14:29:38.989Z</time></trkpt><trkpt lat="44.41459" lon="10.35086"><ele>935.75</ele><time>2026-04-19T14:29:39.989Z</time></trkpt><trkpt lat="44.4147033" lon="10.351"><ele>937.5</ele><time>2026-04-19T14:29:40.989Z</time></trkpt><trkpt lat="44.4148217" lon="10.3511233"><ele>939.25</ele><time>2026-04-19T14:29:41.989Z</time></trkpt><trkpt lat="44.4149467" lon="10.3512233"><ele>941.0</ele><time>2026-04-19T14:29:42.989Z</time></trkpt><trkpt lat="44.415085" lon="10.3512833"><ele>941.0</ele><time>2026-04-19T14:29:43.989Z</time></trkpt><trkpt lat="44.4152283" lon="10.3513483"><ele>941.0</ele><time>2026-04-19T14:29:44.989Z</time></trkpt><trkpt lat="44.41538" lon="10.3513867"><ele>941.0</ele><time>2026-04-19T14:29:45.989Z</time></trkpt><trkpt lat="44.415535" lon="10.3514"><ele>938.6666666666667</ele><time>2026-04-19T14:29:46.989Z</time></trkpt><trkpt lat="44.4156883" lon="10.35139"><ele>936.3333333333333</ele><time>2026-04-19T14:29:47.989Z</time></trkpt><trkpt lat="44.41585" lon="10.3513467"><ele>934.0</ele><time>2026-04-19T14:29:48.989Z</time></trkpt><trkpt lat="44.4160067" lon="10.3512967"><ele>934.0</ele><time>2026-04-19T14:29:49.989Z</time></trkpt><trkpt lat="44.4161617" lon="10.3512433"><ele>934.0</ele><time>2026-04-19T14:29:50.989Z</time></trkpt><trkpt lat="44.4163067" lon="10.35121"><ele>934.0</ele><time>2026-04-19T14:29:51.989Z</time></trkpt><trkpt lat="44.41643" lon="10.35118"><ele>934.0</ele><time>2026-04-19T14:29:52.989Z</time></trkpt><trkpt lat="44.4165267" lon="10.3511467"><ele>931.0</ele><time>2026-04-19T14:29:53.989Z</time></trkpt><trkpt lat="44.4166033" lon="10.3511267"><ele>928.0000000000001</ele><time>2026-04-19T14:29:54.989Z</time></trkpt><trkpt lat="44.416705" lon="10.3511767"><ele>925.0000000000001</ele><time>2026-04-19T14:29:56.989Z</time></trkpt><trkpt lat="44.4166867" lon="10.35133"><ele>922.0</ele><time>2026-04-19T14:29:58.989Z</time></trkpt><trkpt lat="44.4166183" lon="10.35141"><ele>919.0</ele><time>2026-04-19T14:29:59.989Z</time></trkpt><trkpt lat="44.4165017" lon="10.3514917"><ele>918.0</ele><time>2026-04-19T14:30:00.989Z</time></trkpt><trkpt lat="44.41639" lon="10.3515867"><ele>917.0</ele><time>2026-04-19T14:30:01.989Z</time></trkpt><trkpt lat="44.416285" lon="10.3517067"><ele>916.0</ele><time>2026-04-19T14:30:02.989Z</time></trkpt><trkpt lat="44.4162" lon="10.351875"><ele>915.0</ele><time>2026-04-19T14:30:03.989Z</time></trkpt><trkpt lat="44.4161467" lon="10.352075"><ele>914.0</ele><time>2026-04-19T14:30:04.989Z</time></trkpt><trkpt lat="44.4161317" lon="10.3522783"><ele>913.0</ele><time>2026-04-19T14:30:05.989Z</time></trkpt><trkpt lat="44.4161167" lon="10.352495"><ele>912.0</ele><time>2026-04-19T14:30:06.989Z</time></trkpt><trkpt lat="44.4161" lon="10.3527167"><ele>912.0</ele><time>2026-04-19T14:30:07.99Z</time></trkpt><trkpt lat="44.4160717" lon="10.3529033"><ele>912.0</ele><time>2026-04-19T14:30:08.989Z</time></trkpt><trkpt lat="44.4160533" lon="10.3530617"><ele>912.0</ele><time>2026-04-19T14:30:09.989Z</time></trkpt><trkpt lat="44.416025" lon="10.3532067"><ele>912.0</ele><time>2026-04-19T14:30:10.989Z</time></trkpt><trkpt lat="44.4159833" lon="10.35333"><ele>910.0</ele><time>2026-04-19T14:30:11.989Z</time></trkpt><trkpt lat="44.4159183" lon="10.3534367"><ele>908.0</ele><time>2026-04-19T14:30:12.989Z</time></trkpt><trkpt lat="44.4158233" lon="10.35352"><ele>906.0</ele><time>2026-04-19T14:30:13.989Z</time></trkpt><trkpt lat="44.41569" lon="10.3535833"><ele>904.0</ele><time>2026-04-19T14:30:14.989Z</time></trkpt><trkpt lat="44.4155417" lon="10.353635"><ele>903.0</ele><time>2026-04-19T14:30:15.989Z</time></trkpt><trkpt lat="44.415385" lon="10.35368"><ele>902.0</ele><time>2026-04-19T14:30:16.99Z</time></trkpt><trkpt lat="44.4152317" lon="10.3537283"><ele>901.0</ele><time>2026-04-19T14:30:17.989Z</time></trkpt><trkpt lat="44.4150933" lon="10.3537733"><ele>901.0</ele><time>2026-04-19T14:30:18.989Z</time></trkpt><trkpt lat="44.414965" lon="10.353815"><ele>901.0</ele><time>2026-04-19T14:30:19.99Z</time></trkpt><trkpt lat="44.4148483" lon="10.3538483"><ele>901.0</ele><time>2026-04-19T14:30:20.989Z</time></trkpt><trkpt lat="44.4147483" lon="10.3538933"><ele>901.0</ele><time>2026-04-19T14:30:21.989Z</time></trkpt><trkpt lat="44.414655" lon="10.3539367"><ele>899.1666666666666</ele><time>2026-04-19T14:30:22.989Z</time></trkpt><trkpt lat="44.414585" lon="10.3539917"><ele>897.3333333333333</ele><time>2026-04-19T14:30:23.989Z</time></trkpt><trkpt lat="44.4145433" lon="10.354075"><ele>895.5</ele><time>2026-04-19T14:30:24.989Z</time></trkpt><trkpt lat="44.414535" lon="10.3541683"><ele>893.6666666666667</ele><time>2026-04-19T14:30:25.989Z</time></trkpt><trkpt lat="44.41455" lon="10.3542683"><ele>891.8333333333334</ele><time>2026-04-19T14:30:26.989Z</time></trkpt><trkpt lat="44.4145917" lon="10.3543617"><ele>890.0</ele><time>2026-04-19T14:30:27.989Z</time></trkpt><trkpt lat="44.4146367" lon="10.354475"><ele>889.6666666666667</ele><time>2026-04-19T14:30:29.989Z</time></trkpt><trkpt lat="44.414675" lon="10.3545733"><ele>889.3333333333334</ele><time>2026-04-19T14:31:52.989Z</time></trkpt><trkpt lat="44.4147333" lon="10.3546833"><ele>889.0</ele><time>2026-04-19T14:34:37.989Z</time></trkpt><trkpt lat="44.4148017" lon="10.35477"><ele>888.6666666666667</ele><time>2026-04-19T14:34:40.989Z</time></trkpt><trkpt lat="44.414845" lon="10.3548467"><ele>888.3333333333334</ele><time>2026-04-19T14:34:42.989Z</time></trkpt><trkpt lat="44.4149" lon="10.3549517"><ele>888.0</ele><time>2026-04-19T14:34:44.989Z</time></trkpt><trkpt lat="44.4149833" lon="10.3550583"><ele>888.0</ele><time>2026-04-19T14:34:46.989Z</time></trkpt><trkpt lat="44.4150383" lon="10.355105"><ele>888.0</ele><time>2026-04-19T14:34:47.989Z</time></trkpt><trkpt lat="44.4151033" lon="10.3551417"><ele>888.0</ele><time>2026-04-19T14:34:48.989Z</time></trkpt><trkpt lat="44.4151717" lon="10.355175"><ele>888.0</ele><time>2026-04-19T14:34:49.989Z</time></trkpt><trkpt lat="44.4152533" lon="10.3552183"><ele>888.0</ele><time>2026-04-19T14:34:50.989Z</time></trkpt><trkpt lat="44.415345" lon="10.3552583"><ele>888.0</ele><time>2026-04-19T14:34:51.989Z</time></trkpt><trkpt lat="44.4154417" lon="10.3552983"><ele>888.0</ele><time>2026-04-19T14:34:52.989Z</time></trkpt><trkpt lat="44.4155417" lon="10.3553417"><ele>888.0</ele><time>2026-04-19T14:34:53.989Z</time></trkpt><trkpt lat="44.4156533" lon="10.3554017"><ele>888.0</ele><time>2026-04-19T14:34:54.989Z</time></trkpt><trkpt lat="44.4157667" lon="10.355475"><ele>888.0</ele><time>2026-04-19T14:34:55.989Z</time></trkpt><trkpt lat="44.41588" lon="10.3555717"><ele>886.25</ele><time>2026-04-19T14:34:56.989Z</time></trkpt><trkpt lat="44.4159933" lon="10.3556733"><ele>884.5</ele><time>2026-04-19T14:34:57.989Z</time></trkpt><trkpt lat="44.4161" lon="10.3557867"><ele>882.75</ele><time>2026-04-19T14:34:58.989Z</time></trkpt><trkpt lat="44.4162" lon="10.3559"><ele>881.0</ele><time>2026-04-19T14:34:59.988Z</time></trkpt><trkpt lat="44.416295" lon="10.3560117"><ele>879.5999999999999</ele><time>2026-04-19T14:35:00.989Z</time></trkpt><trkpt lat="44.4163867" lon="10.3561183"><ele>878.1999999999999</ele><time>2026-04-19T14:35:01.989Z</time></trkpt><trkpt lat="44.416475" lon="10.3562217"><ele>876.8000000000001</ele><time>2026-04-19T14:35:02.989Z</time></trkpt><trkpt lat="44.416565" lon="10.3562983"><ele>875.4000000000001</ele><time>2026-04-19T14:35:03.989Z</time></trkpt><trkpt lat="44.4166433" lon="10.3563683"><ele>874.0</ele><time>2026-04-19T14:35:04.989Z</time></trkpt><trkpt lat="44.4167033" lon="10.3564367"><ele>873.3333333333333</ele><time>2026-04-19T14:35:05.989Z</time></trkpt><trkpt lat="44.4167417" lon="10.3565133"><ele>872.6666666666666</ele><time>2026-04-19T14:35:06.989Z</time></trkpt><trkpt lat="44.4167233" lon="10.3566583"><ele>872.0</ele><time>2026-04-19T14:35:08.989Z</time></trkpt><trkpt lat="44.4166633" lon="10.3567033"><ele>871.3333333333333</ele><time>2026-04-19T14:35:09.989Z</time></trkpt><trkpt lat="44.41658" lon="10.3567167"><ele>870.6666666666666</ele><time>2026-04-19T14:35:10.989Z</time></trkpt><trkpt lat="44.4164667" lon="10.3567067"><ele>870.0</ele><time>2026-04-19T14:35:11.989Z</time></trkpt><trkpt lat="44.4163367" lon="10.3567033"><ele>869.5</ele><time>2026-04-19T14:35:12.99Z</time></trkpt><trkpt lat="44.4162017" lon="10.3567017"><ele>869.0</ele><time>2026-04-19T14:35:13.989Z</time></trkpt><trkpt lat="44.41606" lon="10.35671"><ele>868.5</ele><time>2026-04-19T14:35:14.989Z</time></trkpt><trkpt lat="44.4159083" lon="10.3567167"><ele>868.0</ele><time>2026-04-19T14:35:15.989Z</time></trkpt><trkpt lat="44.415765" lon="10.356725"><ele>868.0</ele><time>2026-04-19T14:35:16.989Z</time></trkpt><trkpt lat="44.41563" lon="10.3567233"><ele>868.0</ele><time>2026-04-19T14:35:17.989Z</time></trkpt><trkpt lat="44.4155033" lon="10.3567267"><ele>868.0</ele><time>2026-04-19T14:35:18.989Z</time></trkpt><trkpt lat="44.4153833" lon="10.3567567"><ele>868.0</ele><time>2026-04-19T14:35:19.989Z</time></trkpt><trkpt lat="44.4152717" lon="10.356815"><ele>867.0</ele><time>2026-04-19T14:35:20.989Z</time></trkpt><trkpt lat="44.4151683" lon="10.3568967"><ele>866.0</ele><time>2026-04-19T14:35:21.989Z</time></trkpt><trkpt lat="44.415075" lon="10.3570167"><ele>865.0</ele><time>2026-04-19T14:35:22.989Z</time></trkpt><trkpt lat="44.4150017" lon="10.35717"><ele>864.0</ele><time>2026-04-19T14:35:23.989Z</time></trkpt><trkpt lat="44.414965" lon="10.3573483"><ele>861.25</ele><time>2026-04-19T14:35:24.989Z</time></trkpt><trkpt lat="44.414955" lon="10.357545"><ele>858.5</ele><time>2026-04-19T14:35:25.989Z</time></trkpt><trkpt lat="44.4149867" lon="10.3577433"><ele>855.75</ele><time>2026-04-19T14:35:26.989Z</time></trkpt><trkpt lat="44.4150567" lon="10.3579283"><ele>853.0</ele><time>2026-04-19T14:35:27.989Z</time></trkpt><trkpt lat="44.4151583" lon="10.3580883"><ele>851.3333333333333</ele><time>2026-04-19T14:35:28.989Z</time></trkpt><trkpt lat="44.41529" lon="10.3582117"><ele>849.6666666666667</ele><time>2026-04-19T14:35:29.989Z</time></trkpt><trkpt lat="44.415435" lon="10.3583067"><ele>848.0</ele><time>2026-04-19T14:35:30.989Z</time></trkpt><trkpt lat="44.4155867" lon="10.3583883"><ele>848.0</ele><time>2026-04-19T14:35:31.989Z</time></trkpt><trkpt lat="44.4157333" lon="10.3584667"><ele>848.0</ele><time>2026-04-19T14:35:32.989Z</time></trkpt><trkpt lat="44.4158767" lon="10.35855"><ele>848.0</ele><time>2026-04-19T14:35:33.989Z</time></trkpt><trkpt lat="44.4160217" lon="10.3586283"><ele>848.0</ele><time>2026-04-19T14:35:34.989Z</time></trkpt><trkpt lat="44.4161633" lon="10.3587033"><ele>848.0</ele><time>2026-04-19T14:35:35.989Z</time></trkpt><trkpt lat="44.4163017" lon="10.3587867"><ele>848.0</ele><time>2026-04-19T14:35:36.989Z</time></trkpt><trkpt lat="44.416435" lon="10.35887"><ele>848.0</ele><time>2026-04-19T14:35:37.989Z</time></trkpt><trkpt lat="44.41656" lon="10.3589617"><ele>845.0</ele><time>2026-04-19T14:35:38.989Z</time></trkpt><trkpt lat="44.4166667" lon="10.35908"><ele>842.0</ele><time>2026-04-19T14:35:39.989Z</time></trkpt><trkpt lat="44.4167583" lon="10.3592167"><ele>839.0</ele><time>2026-04-19T14:35:40.989Z</time></trkpt><trkpt lat="44.4168583" lon="10.3593583"><ele>836.0</ele><time>2026-04-19T14:35:41.989Z</time></trkpt><trkpt lat="44.41696" lon="10.3594867"><ele>836.0</ele><time>2026-04-19T14:35:42.989Z</time></trkpt><trkpt lat="44.4170817" lon="10.35959"><ele>836.0</ele><time>2026-04-19T14:35:43.989Z</time></trkpt><trkpt lat="44.4172117" lon="10.35969"><ele>836.0</ele><time>2026-04-19T14:35:44.989Z</time></trkpt><trkpt lat="44.41735" lon="10.35979"><ele>836.0</ele><time>2026-04-19T14:35:45.989Z</time></trkpt><trkpt lat="44.4174767" lon="10.3599167"><ele>833.75</ele><time>2026-04-19T14:35:46.989Z</time></trkpt><trkpt lat="44.41759" lon="10.3600533"><ele>831.5</ele><time>2026-04-19T14:35:47.989Z</time></trkpt><trkpt lat="44.417685" lon="10.360205"><ele>829.25</ele><time>2026-04-19T14:35:48.989Z</time></trkpt><trkpt lat="44.4177717" lon="10.3603633"><ele>827.0</ele><time>2026-04-19T14:35:49.989Z</time></trkpt><trkpt lat="44.417855" lon="10.3605233"><ele>825.75</ele><time>2026-04-19T14:35:50.989Z</time></trkpt><trkpt lat="44.417945" lon="10.3606617"><ele>824.5</ele><time>2026-04-19T14:35:51.989Z</time></trkpt><trkpt lat="44.4180417" lon="10.3607917"><ele>823.25</ele><time>2026-04-19T14:35:52.989Z</time></trkpt><trkpt lat="44.4181417" lon="10.3609"><ele>822.0</ele><time>2026-04-19T14:35:53.989Z</time></trkpt><trkpt lat="44.41824" lon="10.3610033"><ele>822.0</ele><time>2026-04-19T14:35:54.989Z</time></trkpt><trkpt lat="44.418315" lon="10.3611117"><ele>822.0</ele><time>2026-04-19T14:35:55.989Z</time></trkpt><trkpt lat="44.4183667" lon="10.3612367"><ele>822.0</ele><time>2026-04-19T14:35:56.989Z</time></trkpt><trkpt lat="44.4183867" lon="10.3613783"><ele>822.0</ele><time>2026-04-19T14:35:57.989Z</time></trkpt><trkpt lat="44.418385" lon="10.3615317"><ele>822.0</ele><time>2026-04-19T14:35:58.989Z</time></trkpt><trkpt lat="44.4183417" lon="10.3616867"><ele>820.25</ele><time>2026-04-19T14:35:59.989Z</time></trkpt><trkpt lat="44.4182883" lon="10.3618467"><ele>818.5</ele><time>2026-04-19T14:36:00.989Z</time></trkpt><trkpt lat="44.418245" lon="10.3620033"><ele>816.75</ele><time>2026-04-19T14:36:01.989Z</time></trkpt><trkpt lat="44.418215" lon="10.3621683"><ele>815.0</ele><time>2026-04-19T14:36:02.99Z</time></trkpt><trkpt lat="44.4181833" lon="10.3623217"><ele>814.25</ele><time>2026-04-19T14:36:03.989Z</time></trkpt><trkpt lat="44.41815" lon="10.3624767"><ele>813.5</ele><time>2026-04-19T14:36:04.989Z</time></trkpt><trkpt lat="44.41812" lon="10.3626417"><ele>812.75</ele><time>2026-04-19T14:36:05.989Z</time></trkpt><trkpt lat="44.41809" lon="10.362815"><ele>812.0</ele><time>2026-04-19T14:36:06.989Z</time></trkpt><trkpt lat="44.41806" lon="10.3629917"><ele>810.25</ele><time>2026-04-19T14:36:07.989Z</time></trkpt><trkpt lat="44.41803" lon="10.3631583"><ele>808.5</ele><time>2026-04-19T14:36:08.99Z</time></trkpt><trkpt lat="44.4180017" lon="10.36332"><ele>806.75</ele><time>2026-04-19T14:36:09.989Z</time></trkpt><trkpt lat="44.4179733" lon="10.36347"><ele>805.0</ele><time>2026-04-19T14:36:10.989Z</time></trkpt><trkpt lat="44.417945" lon="10.36362"><ele>802.5</ele><time>2026-04-19T14:36:11.989Z</time></trkpt><trkpt lat="44.4179217" lon="10.363785"><ele>800.0</ele><time>2026-04-19T14:36:12.989Z</time></trkpt><trkpt lat="44.4179017" lon="10.3639683"><ele>797.5</ele><time>2026-04-19T14:36:13.989Z</time></trkpt><trkpt lat="44.4178833" lon="10.36416"><ele>795.0</ele><time>2026-04-19T14:36:14.989Z</time></trkpt><trkpt lat="44.4178767" lon="10.3643567"><ele>793.25</ele><time>2026-04-19T14:36:15.989Z</time></trkpt><trkpt lat="44.4178767" lon="10.3645617"><ele>791.5</ele><time>2026-04-19T14:36:16.989Z</time></trkpt><trkpt lat="44.4178917" lon="10.36477"><ele>789.75</ele><time>2026-04-19T14:36:17.989Z</time></trkpt><trkpt lat="44.4179167" lon="10.3649683"><ele>788.0</ele><time>2026-04-19T14:36:18.989Z</time></trkpt><trkpt lat="44.4179483" lon="10.3651667"><ele>788.75</ele><time>2026-04-19T14:36:19.989Z</time></trkpt><trkpt lat="44.4179883" lon="10.3653583"><ele>789.5</ele><time>2026-04-19T14:36:20.989Z</time></trkpt><trkpt lat="44.41805" lon="10.365545"><ele>790.25</ele><time>2026-04-19T14:36:21.989Z</time></trkpt><trkpt lat="44.418115" lon="10.3657083"><ele>791.0</ele><time>2026-04-19T14:36:22.989Z</time></trkpt><trkpt lat="44.4181783" lon="10.36585"><ele>791.0</ele><time>2026-04-19T14:36:23.989Z</time></trkpt><trkpt lat="44.4182333" lon="10.365985"><ele>791.0</ele><time>2026-04-19T14:36:24.989Z</time></trkpt><trkpt lat="44.4182883" lon="10.3661117"><ele>791.0</ele><time>2026-04-19T14:36:25.989Z</time></trkpt><trkpt lat="44.418345" lon="10.366235"><ele>791.0</ele><time>2026-04-19T14:36:26.989Z</time></trkpt><trkpt lat="44.4184017" lon="10.3663583"><ele>791.0</ele><time>2026-04-19T14:36:27.989Z</time></trkpt><trkpt lat="44.41847" lon="10.3664567"><ele>789.1999999999999</ele><time>2026-04-19T14:36:28.989Z</time></trkpt><trkpt lat="44.4185467" lon="10.3665467"><ele>787.4</ele><time>2026-04-19T14:36:29.989Z</time></trkpt><trkpt lat="44.4186417" lon="10.3666033"><ele>785.6</ele><time>2026-04-19T14:36:30.989Z</time></trkpt><trkpt lat="44.4187417" lon="10.3666433"><ele>783.8</ele><time>2026-04-19T14:36:31.989Z</time></trkpt><trkpt lat="44.4188433" lon="10.3666933"><ele>782.0</ele><time>2026-04-19T14:36:32.989Z</time></trkpt><trkpt lat="44.4189433" lon="10.3667583"><ele>782.0</ele><time>2026-04-19T14:36:33.989Z</time></trkpt><trkpt lat="44.4190433" lon="10.3668433"><ele>782.0</ele><time>2026-04-19T14:36:34.989Z</time></trkpt><trkpt lat="44.4191283" lon="10.3669467"><ele>782.0</ele><time>2026-04-19T14:36:35.989Z</time></trkpt><trkpt lat="44.4192183" lon="10.3670717"><ele>782.0</ele><time>2026-04-19T14:36:36.989Z</time></trkpt><trkpt lat="44.4193333" lon="10.3672233"><ele>782.0</ele><time>2026-04-19T14:36:37.989Z</time></trkpt><trkpt lat="44.4194583" lon="10.3674017"><ele>782.0</ele><time>2026-04-19T14:36:38.989Z</time></trkpt><trkpt lat="44.4195783" lon="10.3675917"><ele>782.0</ele><time>2026-04-19T14:36:39.989Z</time></trkpt><trkpt lat="44.4196967" lon="10.36778"><ele>782.0</ele><time>2026-04-19T14:36:40.989Z</time></trkpt><trkpt lat="44.4198167" lon="10.3679583"><ele>782.0</ele><time>2026-04-19T14:36:41.989Z</time></trkpt><trkpt lat="44.4199467" lon="10.3681167"><ele>782.0</ele><time>2026-04-19T14:36:42.989Z</time></trkpt><trkpt lat="44.420085" lon="10.3682467"><ele>778.0</ele><time>2026-04-19T14:36:43.989Z</time></trkpt><trkpt lat="44.420225" lon="10.3683367"><ele>774.0</ele><time>2026-04-19T14:36:44.989Z</time></trkpt><trkpt lat="44.4203517" lon="10.3684267"><ele>770.0</ele><time>2026-04-19T14:36:45.989Z</time></trkpt><trkpt lat="44.42045" lon="10.36853"><ele>766.0</ele><time>2026-04-19T14:36:46.989Z</time></trkpt><trkpt lat="44.4205167" lon="10.36864"><ele>765.5999999999999</ele><time>2026-04-19T14:36:47.989Z</time></trkpt><trkpt lat="44.4205467" lon="10.36877"><ele>765.2</ele><time>2026-04-19T14:36:48.989Z</time></trkpt><trkpt lat="44.4205267" lon="10.3689133"><ele>764.8</ele><time>2026-04-19T14:36:49.989Z</time></trkpt><trkpt lat="44.42051" lon="10.3690567"><ele>764.4000000000001</ele><time>2026-04-19T14:36:50.989Z</time></trkpt><trkpt lat="44.4204967" lon="10.3692117"><ele>764.0</ele><time>2026-04-19T14:36:51.989Z</time></trkpt><trkpt lat="44.4205183" lon="10.3693567"><ele>762.25</ele><time>2026-04-19T14:36:52.989Z</time></trkpt><trkpt lat="44.4205867" lon="10.3694783"><ele>760.5</ele><time>2026-04-19T14:36:53.99Z</time></trkpt><trkpt lat="44.4206983" lon="10.3695617"><ele>758.75</ele><time>2026-04-19T14:36:54.989Z</time></trkpt><trkpt lat="44.420835" lon="10.3696183"><ele>757.0</ele><time>2026-04-19T14:36:55.989Z</time></trkpt><trkpt lat="44.4209933" lon="10.3696867"><ele>754.6666666666667</ele><time>2026-04-19T14:36:56.989Z</time></trkpt><trkpt lat="44.4211483" lon="10.3697817"><ele>752.3333333333334</ele><time>2026-04-19T14:36:57.989Z</time></trkpt><trkpt lat="44.4212833" lon="10.3698867"><ele>750.0</ele><time>2026-04-19T14:36:58.99Z</time></trkpt><trkpt lat="44.4214167" lon="10.36998"><ele>750.0</ele><time>2026-04-19T14:36:59.989Z</time></trkpt><trkpt lat="44.4215383" lon="10.3700733"><ele>750.0</ele><time>2026-04-19T14:37:00.989Z</time></trkpt><trkpt lat="44.42165" lon="10.3702"><ele>750.0</ele><time>2026-04-19T14:37:01.989Z</time></trkpt><trkpt lat="44.4217267" lon="10.3703417"><ele>750.0</ele><time>2026-04-19T14:37:02.989Z</time></trkpt><trkpt lat="44.4217917" lon="10.3704917"><ele>747.6</ele><time>2026-04-19T14:37:03.989Z</time></trkpt><trkpt lat="44.4218667" lon="10.3706133"><ele>745.2</ele><time>2026-04-19T14:37:04.99Z</time></trkpt><trkpt lat="44.4219483" lon="10.3707117"><ele>742.8</ele><time>2026-04-19T14:37:05.989Z</time></trkpt><trkpt lat="44.42203" lon="10.3707783"><ele>740.4</ele><time>2026-04-19T14:37:06.989Z</time></trkpt><trkpt lat="44.422095" lon="10.3708217"><ele>738.0</ele><time>2026-04-19T14:37:07.989Z</time></trkpt><trkpt lat="44.4221617" lon="10.37093"><ele>738.0</ele><time>2026-04-19T14:37:09.989Z</time></trkpt><trkpt lat="44.4221167" lon="10.3710633"><ele>738.0</ele><time>2026-04-19T14:37:11.989Z</time></trkpt><trkpt lat="44.4220533" lon="10.3710767"><ele>738.0</ele><time>2026-04-19T14:37:12.989Z</time></trkpt><trkpt lat="44.4219667" lon="10.3710467"><ele>738.0</ele><time>2026-04-19T14:37:13.989Z</time></trkpt><trkpt lat="44.4218583" lon="10.3709917"><ele>738.0</ele><time>2026-04-19T14:37:14.989Z</time></trkpt><trkpt lat="44.4217267" lon="10.3709333"><ele>738.0</ele><time>2026-04-19T14:37:15.99Z</time></trkpt><trkpt lat="44.4215983" lon="10.3708967"><ele>738.0</ele><time>2026-04-19T14:37:16.989Z</time></trkpt><trkpt lat="44.4214767" lon="10.37087"><ele>738.0</ele><time>2026-04-19T14:37:17.989Z</time></trkpt><trkpt lat="44.42135" lon="10.3708533"><ele>738.0</ele><time>2026-04-19T14:37:18.989Z</time></trkpt><trkpt lat="44.421205" lon="10.3708483"><ele>736.6666666666666</ele><time>2026-04-19T14:37:19.989Z</time></trkpt><trkpt lat="44.4210517" lon="10.3708617"><ele>735.3333333333333</ele><time>2026-04-19T14:37:20.989Z</time></trkpt><trkpt lat="44.4209033" lon="10.3708917"><ele>734.0</ele><time>2026-04-19T14:37:21.989Z</time></trkpt><trkpt lat="44.4207567" lon="10.3709233"><ele>734.0</ele><time>2026-04-19T14:37:22.989Z</time></trkpt><trkpt lat="44.4206033" lon="10.3709583"><ele>734.0</ele><time>2026-04-19T14:37:23.989Z</time></trkpt><trkpt lat="44.420465" lon="10.3709933"><ele>734.0</ele><time>2026-04-19T14:37:24.989Z</time></trkpt><trkpt lat="44.4203283" lon="10.3710217"><ele>734.0</ele><time>2026-04-19T14:37:25.989Z</time></trkpt><trkpt lat="44.420195" lon="10.3710483"><ele>732.75</ele><time>2026-04-19T14:37:26.989Z</time></trkpt><trkpt lat="44.42006" lon="10.37108"><ele>731.5</ele><time>2026-04-19T14:37:27.989Z</time></trkpt><trkpt lat="44.4199167" lon="10.3711133"><ele>730.25</ele><time>2026-04-19T14:37:28.989Z</time></trkpt><trkpt lat="44.41977" lon="10.3711467"><ele>729.0</ele><time>2026-04-19T14:37:29.989Z</time></trkpt><trkpt lat="44.419625" lon="10.3711783"><ele>728.4000000000001</ele><time>2026-04-19T14:37:30.989Z</time></trkpt><trkpt lat="44.4194933" lon="10.3712033"><ele>727.8</ele><time>2026-04-19T14:37:31.989Z</time></trkpt><trkpt lat="44.4193767" lon="10.3712283"><ele>727.2</ele><time>2026-04-19T14:37:32.989Z</time></trkpt><trkpt lat="44.41928" lon="10.3712533"><ele>726.5999999999999</ele><time>2026-04-19T14:37:33.989Z</time></trkpt><trkpt lat="44.4192017" lon="10.371315"><ele>726.0</ele><time>2026-04-19T14:37:34.989Z</time></trkpt><trkpt lat="44.41915" lon="10.3714217"><ele>723.5</ele><time>2026-04-19T14:37:35.989Z</time></trkpt><trkpt lat="44.4191267" lon="10.3715617"><ele>721.0</ele><time>2026-04-19T14:37:36.989Z</time></trkpt><trkpt lat="44.4191217" lon="10.3717367"><ele>718.5</ele><time>2026-04-19T14:37:37.989Z</time></trkpt><trkpt lat="44.4191" lon="10.3719283"><ele>716.0</ele><time>2026-04-19T14:37:38.989Z</time></trkpt><trkpt lat="44.4190567" lon="10.3721167"><ele>714.25</ele><time>2026-04-19T14:37:39.989Z</time></trkpt><trkpt lat="44.419005" lon="10.3722917"><ele>712.5</ele><time>2026-04-19T14:37:40.989Z</time></trkpt><trkpt lat="44.4189517" lon="10.3724567"><ele>710.75</ele><time>2026-04-19T14:37:41.989Z</time></trkpt><trkpt lat="44.4189033" lon="10.3726017"><ele>709.0</ele><time>2026-04-19T14:37:42.989Z</time></trkpt><trkpt lat="44.41887" lon="10.3727517"><ele>709.0</ele><time>2026-04-19T14:37:43.989Z</time></trkpt><trkpt lat="44.4188567" lon="10.3728933"><ele>709.0</ele><time>2026-04-19T14:37:44.989Z</time></trkpt><trkpt lat="44.4188783" lon="10.37303"><ele>709.0</ele><time>2026-04-19T14:37:45.989Z</time></trkpt><trkpt lat="44.4189417" lon="10.3731667"><ele>709.0</ele><time>2026-04-19T14:37:46.989Z</time></trkpt><trkpt lat="44.4190233" lon="10.3732933"><ele>709.0</ele><time>2026-04-19T14:37:47.989Z</time></trkpt><trkpt lat="44.419135" lon="10.3734133"><ele>707.3333333333334</ele><time>2026-04-19T14:37:48.989Z</time></trkpt><trkpt lat="44.4192383" lon="10.3735517"><ele>705.6666666666666</ele><time>2026-04-19T14:37:49.989Z</time></trkpt><trkpt lat="44.4193517" lon="10.3737083"><ele>704.0</ele><time>2026-04-19T14:37:50.989Z</time></trkpt><trkpt lat="44.4194567" lon="10.3738783"><ele>702.5</ele><time>2026-04-19T14:37:51.989Z</time></trkpt><trkpt lat="44.419545" lon="10.3740483"><ele>701.0</ele><time>2026-04-19T14:37:52.989Z</time></trkpt><trkpt lat="44.419625" lon="10.3742133"><ele>699.5</ele><time>2026-04-19T14:37:53.989Z</time></trkpt><trkpt lat="44.4196983" lon="10.374365"><ele>698.0</ele><time>2026-04-19T14:37:54.989Z</time></trkpt><trkpt lat="44.41977" lon="10.3745017"><ele>697.0</ele><time>2026-04-19T14:37:55.989Z</time></trkpt><trkpt lat="44.41984" lon="10.3746283"><ele>696.0</ele><time>2026-04-19T14:37:56.989Z</time></trkpt><trkpt lat="44.4199067" lon="10.3747817"><ele>695.0</ele><time>2026-04-19T14:37:57.989Z</time></trkpt><trkpt lat="44.4199633" lon="10.3749667"><ele>694.0</ele><time>2026-04-19T14:37:58.989Z</time></trkpt><trkpt lat="44.4200167" lon="10.3751717"><ele>694.0</ele><time>2026-04-19T14:37:59.989Z</time></trkpt><trkpt lat="44.42007" lon="10.3753833"><ele>694.0</ele><time>2026-04-19T14:38:00.989Z</time></trkpt><trkpt lat="44.42012" lon="10.3755983"><ele>694.0</ele><time>2026-04-19T14:38:01.989Z</time></trkpt><trkpt lat="44.4201883" lon="10.37579"><ele>694.0</ele><time>2026-04-19T14:38:02.989Z</time></trkpt><trkpt lat="44.4202533" lon="10.3759917"><ele>694.0</ele><time>2026-04-19T14:38:03.989Z</time></trkpt><trkpt lat="44.4203117" lon="10.376195"><ele>694.0</ele><time>2026-04-19T14:38:04.989Z</time></trkpt><trkpt lat="44.4203783" lon="10.3763967"><ele>693.3333333333334</ele><time>2026-04-19T14:38:05.989Z</time></trkpt><trkpt lat="44.4204467" lon="10.3765933"><ele>692.6666666666666</ele><time>2026-04-19T14:38:06.989Z</time></trkpt><trkpt lat="44.4205133" lon="10.376785"><ele>692.0</ele><time>2026-04-19T14:38:07.989Z</time></trkpt><trkpt lat="44.42067" lon="10.3771683"><ele>693.3333333333333</ele><time>2026-04-19T14:38:09.987Z</time></trkpt><trkpt lat="44.4207783" lon="10.377355"><ele>694.6666666666666</ele><time>2026-04-19T14:38:10.989Z</time></trkpt><trkpt lat="44.42091" lon="10.37754"><ele>696.0</ele><time>2026-04-19T14:38:11.989Z</time></trkpt><trkpt lat="44.421045" lon="10.37772"><ele>696.0</ele><time>2026-04-19T14:38:12.989Z</time></trkpt><trkpt lat="44.42117" lon="10.3778917"><ele>696.0</ele><time>2026-04-19T14:38:13.989Z</time></trkpt><trkpt lat="44.42129" lon="10.3780583"><ele>696.0</ele><time>2026-04-19T14:38:14.989Z</time></trkpt><trkpt lat="44.421415" lon="10.378215"><ele>694.6666666666666</ele><time>2026-04-19T14:38:15.989Z</time></trkpt><trkpt lat="44.4215433" lon="10.3783733"><ele>693.3333333333333</ele><time>2026-04-19T14:38:16.989Z</time></trkpt><trkpt lat="44.421685" lon="10.37852"><ele>692.0</ele><time>2026-04-19T14:38:17.989Z</time></trkpt><trkpt lat="44.4218383" lon="10.37865"><ele>692.0</ele><time>2026-04-19T14:38:18.989Z</time></trkpt><trkpt lat="44.4219983" lon="10.3787733"><ele>692.0</ele><time>2026-04-19T14:38:19.989Z</time></trkpt><trkpt lat="44.4221417" lon="10.3788967"><ele>692.0</ele><time>2026-04-19T14:38:20.989Z</time></trkpt><trkpt lat="44.4222767" lon="10.3790217"><ele>691.0</ele><time>2026-04-19T14:38:21.989Z</time></trkpt><trkpt lat="44.422405" lon="10.379145"><ele>690.0</ele><time>2026-04-19T14:38:22.989Z</time></trkpt><trkpt lat="44.422535" lon="10.3792683"><ele>689.0</ele><time>2026-04-19T14:38:23.989Z</time></trkpt><trkpt lat="44.42266" lon="10.3793817"><ele>689.0</ele><time>2026-04-19T14:38:24.989Z</time></trkpt><trkpt lat="44.42278" lon="10.379495"><ele>689.0</ele><time>2026-04-19T14:38:25.989Z</time></trkpt><trkpt lat="44.4228983" lon="10.3796033"><ele>689.0</ele><time>2026-04-19T14:38:26.989Z</time></trkpt><trkpt lat="44.423015" lon="10.3797033"><ele>689.0</ele><time>2026-04-19T14:38:27.989Z</time></trkpt><trkpt lat="44.4231333" lon="10.3798083"><ele>687.6666666666666</ele><time>2026-04-19T14:38:28.989Z</time></trkpt><trkpt lat="44.42325" lon="10.3799183"><ele>686.3333333333334</ele><time>2026-04-19T14:38:29.989Z</time></trkpt><trkpt lat="44.4233783" lon="10.3800267"><ele>685.0</ele><time>2026-04-19T14:38:30.989Z</time></trkpt><trkpt lat="44.4235233" lon="10.380145"><ele>685.0</ele><time>2026-04-19T14:38:31.989Z</time></trkpt><trkpt lat="44.4236767" lon="10.3802683"><ele>685.0</ele><time>2026-04-19T14:38:32.99Z</time></trkpt><trkpt lat="44.42383" lon="10.3803917"><ele>685.0</ele><time>2026-04-19T14:38:33.989Z</time></trkpt><trkpt lat="44.4239883" lon="10.3805133"><ele>683.3333333333334</ele><time>2026-04-19T14:38:34.989Z</time></trkpt><trkpt lat="44.42415" lon="10.3806133"><ele>681.6666666666666</ele><time>2026-04-19T14:38:35.989Z</time></trkpt><trkpt lat="44.4243217" lon="10.38071"><ele>680.0</ele><time>2026-04-19T14:38:36.989Z</time></trkpt><trkpt lat="44.4244983" lon="10.3807917"><ele>677.6666666666666</ele><time>2026-04-19T14:38:37.989Z</time></trkpt><trkpt lat="44.424665" lon="10.3808733"><ele>675.3333333333334</ele><time>2026-04-19T14:38:38.989Z</time></trkpt><trkpt lat="44.4248317" lon="10.38097"><ele>673.0</ele><time>2026-04-19T14:38:39.989Z</time></trkpt><trkpt lat="44.4249883" lon="10.3810733"><ele>673.0</ele><time>2026-04-19T14:38:40.989Z</time></trkpt><trkpt lat="44.425145" lon="10.3811733"><ele>673.0</ele><time>2026-04-19T14:38:41.989Z</time></trkpt><trkpt lat="44.4252983" lon="10.3812667"><ele>673.0</ele><time>2026-04-19T14:38:42.989Z</time></trkpt><trkpt lat="44.425455" lon="10.3813517"><ele>675.3333333333334</ele><time>2026-04-19T14:38:43.99Z</time></trkpt><trkpt lat="44.4256183" lon="10.381415"><ele>677.6666666666666</ele><time>2026-04-19T14:38:44.989Z</time></trkpt><trkpt lat="44.4257767" lon="10.3814717"><ele>680.0</ele><time>2026-04-19T14:38:45.989Z</time></trkpt><trkpt lat="44.4259267" lon="10.381535"><ele>680.0</ele><time>2026-04-19T14:38:46.989Z</time></trkpt><trkpt lat="44.4260683" lon="10.3816217"><ele>680.0</ele><time>2026-04-19T14:38:47.989Z</time></trkpt><trkpt lat="44.4262017" lon="10.381725"><ele>680.0</ele><time>2026-04-19T14:38:48.989Z</time></trkpt><trkpt lat="44.4263283" lon="10.3818517"><ele>680.0</ele><time>2026-04-19T14:38:49.989Z</time></trkpt><trkpt lat="44.42645" lon="10.3819833"><ele>680.0</ele><time>2026-04-19T14:38:50.989Z</time></trkpt><trkpt lat="44.4265667" lon="10.3821167"><ele>680.0</ele><time>2026-04-19T14:38:51.989Z</time></trkpt><trkpt lat="44.4266733" lon="10.3822433"><ele>680.0</ele><time>2026-04-19T14:38:52.989Z</time></trkpt><trkpt lat="44.4267717" lon="10.382375"><ele>680.0</ele><time>2026-04-19T14:38:53.989Z</time></trkpt><trkpt lat="44.4268633" lon="10.382525"><ele>680.0</ele><time>2026-04-19T14:38:54.989Z</time></trkpt><trkpt lat="44.4269433" lon="10.3826933"><ele>680.0</ele><time>2026-04-19T14:38:55.989Z</time></trkpt><trkpt lat="44.4269983" lon="10.382885"><ele>680.0</ele><time>2026-04-19T14:38:56.989Z</time></trkpt><trkpt lat="44.4270433" lon="10.3830867"><ele>679.0</ele><time>2026-04-19T14:38:57.989Z</time></trkpt><trkpt lat="44.4270833" lon="10.3832983"><ele>678.0</ele><time>2026-04-19T14:38:58.99Z</time></trkpt><trkpt lat="44.42713" lon="10.3835083"><ele>677.0</ele><time>2026-04-19T14:38:59.989Z</time></trkpt><trkpt lat="44.4271817" lon="10.3837217"><ele>676.6666666666666</ele><time>2026-04-19T14:39:00.989Z</time></trkpt><trkpt lat="44.4272367" lon="10.3839383"><ele>676.3333333333334</ele><time>2026-04-19T14:39:01.989Z</time></trkpt><trkpt lat="44.4272983" lon="10.384145"><ele>676.0</ele><time>2026-04-19T14:39:02.989Z</time></trkpt><trkpt lat="44.4273733" lon="10.38435"><ele>676.0</ele><time>2026-04-19T14:39:03.989Z</time></trkpt><trkpt lat="44.427465" lon="10.38455"><ele>676.0</ele><time>2026-04-19T14:39:04.989Z</time></trkpt><trkpt lat="44.42757" lon="10.38474"><ele>676.0</ele><time>2026-04-19T14:39:05.989Z</time></trkpt><trkpt lat="44.42769" lon="10.3849183"><ele>674.3333333333334</ele><time>2026-04-19T14:39:06.989Z</time></trkpt><trkpt lat="44.4278217" lon="10.38509"><ele>672.6666666666666</ele><time>2026-04-19T14:39:07.989Z</time></trkpt><trkpt lat="44.4279583" lon="10.38526"><ele>671.0</ele><time>2026-04-19T14:39:08.989Z</time></trkpt><trkpt lat="44.4280883" lon="10.38544"><ele>671.6666666666666</ele><time>2026-04-19T14:39:09.989Z</time></trkpt><trkpt lat="44.42822" lon="10.3856167"><ele>672.3333333333334</ele><time>2026-04-19T14:39:10.989Z</time></trkpt><trkpt lat="44.428355" lon="10.3857967"><ele>673.0</ele><time>2026-04-19T14:39:11.989Z</time></trkpt><trkpt lat="44.4284783" lon="10.3859717"><ele>673.0</ele><time>2026-04-19T14:39:12.989Z</time></trkpt><trkpt lat="44.4286033" lon="10.3861383"><ele>673.0</ele><time>2026-04-19T14:39:13.99Z</time></trkpt><trkpt lat="44.4287333" lon="10.3862983"><ele>673.0</ele><time>2026-04-19T14:39:14.989Z</time></trkpt><trkpt lat="44.42886" lon="10.38646"><ele>674.6666666666667</ele><time>2026-04-19T14:39:15.989Z</time></trkpt><trkpt lat="44.42899" lon="10.386625"><ele>676.3333333333334</ele><time>2026-04-19T14:39:16.989Z</time></trkpt><trkpt lat="44.4291117" lon="10.3867983"><ele>678.0</ele><time>2026-04-19T14:39:17.989Z</time></trkpt><trkpt lat="44.429225" lon="10.386965"><ele>678.0</ele><time>2026-04-19T14:39:18.989Z</time></trkpt><trkpt lat="44.4293383" lon="10.387125"><ele>678.0</ele><time>2026-04-19T14:39:19.989Z</time></trkpt><trkpt lat="44.4294517" lon="10.3872967"><ele>678.0</ele><time>2026-04-19T14:39:20.989Z</time></trkpt><trkpt lat="44.429545" lon="10.3874883"><ele>676.6666666666666</ele><time>2026-04-19T14:39:21.989Z</time></trkpt><trkpt lat="44.429615" lon="10.3876983"><ele>675.3333333333333</ele><time>2026-04-19T14:39:22.989Z</time></trkpt><trkpt lat="44.4296517" lon="10.3879217"><ele>674.0</ele><time>2026-04-19T14:39:23.989Z</time></trkpt><trkpt lat="44.42965" lon="10.388145"><ele>674.6666666666666</ele><time>2026-04-19T14:39:24.989Z</time></trkpt><trkpt lat="44.429625" lon="10.3883867"><ele>675.3333333333334</ele><time>2026-04-19T14:39:25.989Z</time></trkpt><trkpt lat="44.42955" lon="10.3886267"><ele>676.0</ele><time>2026-04-19T14:39:26.989Z</time></trkpt><trkpt lat="44.4294383" lon="10.3888633"><ele>677.6666666666667</ele><time>2026-04-19T14:39:27.989Z</time></trkpt><trkpt lat="44.42931" lon="10.3890767"><ele>679.3333333333334</ele><time>2026-04-19T14:39:28.989Z</time></trkpt><trkpt lat="44.429185" lon="10.3892833"><ele>681.0</ele><time>2026-04-19T14:39:29.989Z</time></trkpt><trkpt lat="44.429085" lon="10.3894883"><ele>684.3333333333334</ele><time>2026-04-19T14:39:30.989Z</time></trkpt><trkpt lat="44.429" lon="10.389695"><ele>687.6666666666667</ele><time>2026-04-19T14:39:31.989Z</time></trkpt><trkpt lat="44.4289467" lon="10.389905"><ele>691.0</ele><time>2026-04-19T14:39:32.989Z</time></trkpt><trkpt lat="44.4289167" lon="10.3901233"><ele>691.0</ele><time>2026-04-19T14:39:33.989Z</time></trkpt><trkpt lat="44.428925" lon="10.390345"><ele>691.0</ele><time>2026-04-19T14:39:34.989Z</time></trkpt><trkpt lat="44.4289617" lon="10.3905767"><ele>691.0</ele><time>2026-04-19T14:39:35.989Z</time></trkpt><trkpt lat="44.4290217" lon="10.3908083"><ele>690.6666666666667</ele><time>2026-04-19T14:39:36.989Z</time></trkpt><trkpt lat="44.4290883" lon="10.3910533"><ele>690.3333333333334</ele><time>2026-04-19T14:39:37.989Z</time></trkpt><trkpt lat="44.4291633" lon="10.3913067"><ele>690.0</ele><time>2026-04-19T14:39:38.989Z</time></trkpt><trkpt lat="44.4292367" lon="10.39156"><ele>690.0</ele><time>2026-04-19T14:39:39.989Z</time></trkpt><trkpt lat="44.429315" lon="10.3918117"><ele>690.0</ele><time>2026-04-19T14:39:40.989Z</time></trkpt><trkpt lat="44.42939" lon="10.3920483"><ele>690.0</ele><time>2026-04-19T14:39:41.989Z</time></trkpt><trkpt lat="44.4294683" lon="10.392275"><ele>689.6666666666666</ele><time>2026-04-19T14:39:42.989Z</time></trkpt><trkpt lat="44.4295283" lon="10.3924967"><ele>689.3333333333333</ele><time>2026-04-19T14:39:43.989Z</time></trkpt><trkpt lat="44.4295933" lon="10.3926983"><ele>689.0</ele><time>2026-04-19T14:39:44.989Z</time></trkpt><trkpt lat="44.4296533" lon="10.3929033"><ele>693.3333333333333</ele><time>2026-04-19T14:39:45.989Z</time></trkpt><trkpt lat="44.4297133" lon="10.393115"><ele>697.6666666666666</ele><time>2026-04-19T14:39:46.989Z</time></trkpt><trkpt lat="44.429775" lon="10.3933117"><ele>702.0</ele><time>2026-04-19T14:39:47.99Z</time></trkpt><trkpt lat="44.42985" lon="10.3935083"><ele>702.0</ele><time>2026-04-19T14:39:48.989Z</time></trkpt><trkpt lat="44.42994" lon="10.3936933"><ele>702.0</ele><time>2026-04-19T14:39:49.989Z</time></trkpt><trkpt lat="44.4300467" lon="10.393865"><ele>702.0</ele><time>2026-04-19T14:39:50.989Z</time></trkpt><trkpt lat="44.4301617" lon="10.3940233"><ele>702.25</ele><time>2026-04-19T14:39:51.989Z</time></trkpt><trkpt lat="44.4302783" lon="10.3941583"><ele>702.5</ele><time>2026-04-19T14:39:52.989Z</time></trkpt><trkpt lat="44.4303883" lon="10.3942883"><ele>702.75</ele><time>2026-04-19T14:39:53.989Z</time></trkpt><trkpt lat="44.4305017" lon="10.3944133"><ele>703.0</ele><time>2026-04-19T14:39:54.989Z</time></trkpt><trkpt lat="44.4306133" lon="10.394535"><ele>703.0</ele><time>2026-04-19T14:39:55.989Z</time></trkpt><trkpt lat="44.4307167" lon="10.3946683"><ele>703.0</ele><time>2026-04-19T14:39:56.989Z</time></trkpt><trkpt lat="44.43082" lon="10.3947933"><ele>703.0</ele><time>2026-04-19T14:39:57.989Z</time></trkpt><trkpt lat="44.43092" lon="10.3949183"><ele>703.0</ele><time>2026-04-19T14:39:58.989Z</time></trkpt><trkpt lat="44.4310133" lon="10.3950317"><ele>702.5999999999999</ele><time>2026-04-19T14:39:59.989Z</time></trkpt><trkpt lat="44.4311017" lon="10.3951383"><ele>702.1999999999999</ele><time>2026-04-19T14:40:00.989Z</time></trkpt><trkpt lat="44.4311783" lon="10.395255"><ele>701.8</ele><time>2026-04-19T14:40:01.989Z</time></trkpt><trkpt lat="44.4312433" lon="10.3953783"><ele>701.4</ele><time>2026-04-19T14:40:02.989Z</time></trkpt><trkpt lat="44.4312883" lon="10.3954967"><ele>701.0</ele><time>2026-04-19T14:40:03.989Z</time></trkpt><trkpt lat="44.4313183" lon="10.3955983"><ele>701.0</ele><time>2026-04-19T14:40:04.989Z</time></trkpt><trkpt lat="44.43134" lon="10.3956883"><ele>701.0</ele><time>2026-04-19T14:40:05.99Z</time></trkpt><trkpt lat="44.4313367" lon="10.3958183"><ele>701.0</ele><time>2026-04-19T14:40:07.989Z</time></trkpt><trkpt lat="44.4313033" lon="10.3959067"><ele>701.0</ele><time>2026-04-19T14:40:09.989Z</time></trkpt><trkpt lat="44.4312867" lon="10.3960283"><ele>701.0</ele><time>2026-04-19T14:40:12.989Z</time></trkpt><trkpt lat="44.4313217" lon="10.3961133"><ele>701.0</ele><time>2026-04-19T14:40:14.989Z</time></trkpt><trkpt lat="44.4313633" lon="10.3962233"><ele>701.0</ele><time>2026-04-19T14:40:17.989Z</time></trkpt><trkpt lat="44.43137" lon="10.3963217"><ele>701.0</ele><time>2026-04-19T14:40:19.989Z</time></trkpt><trkpt lat="44.43134" lon="10.3964267"><ele>701.0</ele><time>2026-04-19T14:40:21.989Z</time></trkpt><trkpt lat="44.431315" lon="10.3965083"><ele>701.0</ele><time>2026-04-19T14:40:23.989Z</time></trkpt><trkpt lat="44.4312917" lon="10.3965917"><ele>701.0</ele><time>2026-04-19T14:40:25.989Z</time></trkpt><trkpt lat="44.4312667" lon="10.3966983"><ele>701.0</ele><time>2026-04-19T14:40:27.989Z</time></trkpt><trkpt lat="44.431245" lon="10.3968133"><ele>701.0</ele><time>2026-04-19T14:40:29.99Z</time></trkpt><trkpt lat="44.4312033" lon="10.3969867"><ele>698.8</ele><time>2026-04-19T14:40:31.989Z</time></trkpt><trkpt lat="44.43118" lon="10.397095"><ele>696.5999999999999</ele><time>2026-04-19T14:40:32.989Z</time></trkpt><trkpt lat="44.4311517" lon="10.397215"><ele>694.4</ele><time>2026-04-19T14:40:33.989Z</time></trkpt><trkpt lat="44.431125" lon="10.3973433"><ele>692.2</ele><time>2026-04-19T14:40:34.989Z</time></trkpt><trkpt lat="44.4310967" lon="10.39747"><ele>690.0</ele><time>2026-04-19T14:40:35.989Z</time></trkpt><trkpt lat="44.4310633" lon="10.3975967"><ele>690.0</ele><time>2026-04-19T14:40:36.989Z</time></trkpt><trkpt lat="44.4310333" lon="10.3977367"><ele>690.0</ele><time>2026-04-19T14:40:37.989Z</time></trkpt><trkpt lat="44.431" lon="10.397865"><ele>690.0</ele><time>2026-04-19T14:40:38.989Z</time></trkpt><trkpt lat="44.4309833" lon="10.398"><ele>690.0</ele><time>2026-04-19T14:40:39.989Z</time></trkpt><trkpt lat="44.4309767" lon="10.3981483"><ele>690.0</ele><time>2026-04-19T14:40:40.989Z</time></trkpt><trkpt lat="44.4309717" lon="10.3982967"><ele>690.4</ele><time>2026-04-19T14:40:41.989Z</time></trkpt><trkpt lat="44.4309783" lon="10.3984433"><ele>690.8</ele><time>2026-04-19T14:40:42.989Z</time></trkpt><trkpt lat="44.4310017" lon="10.3986"><ele>691.2</ele><time>2026-04-19T14:40:43.989Z</time></trkpt><trkpt lat="44.4310367" lon="10.3987483"><ele>691.6</ele><time>2026-04-19T14:40:44.989Z</time></trkpt><trkpt lat="44.4310833" lon="10.39889"><ele>692.0</ele><time>2026-04-19T14:40:45.989Z</time></trkpt><trkpt lat="44.4311467" lon="10.3990417"><ele>692.0</ele><time>2026-04-19T14:40:46.989Z</time></trkpt><trkpt lat="44.43123" lon="10.399205"><ele>692.0</ele><time>2026-04-19T14:40:47.989Z</time></trkpt><trkpt lat="44.431305" lon="10.399395"><ele>692.0</ele><time>2026-04-19T14:40:48.989Z</time></trkpt><trkpt lat="44.4313883" lon="10.39958"><ele>692.5</ele><time>2026-04-19T14:40:49.989Z</time></trkpt><trkpt lat="44.4314717" lon="10.399765"><ele>693.0</ele><time>2026-04-19T14:40:50.989Z</time></trkpt><trkpt lat="44.43155" lon="10.3999383"><ele>693.5</ele><time>2026-04-19T14:40:51.989Z</time></trkpt><trkpt lat="44.4316267" lon="10.4001083"><ele>694.0</ele><time>2026-04-19T14:40:52.989Z</time></trkpt><trkpt lat="44.4317067" lon="10.4002833"><ele>694.0</ele><time>2026-04-19T14:40:53.989Z</time></trkpt><trkpt lat="44.43179" lon="10.4004633"><ele>694.0</ele><time>2026-04-19T14:40:54.989Z</time></trkpt><trkpt lat="44.43187" lon="10.400635"><ele>694.0</ele><time>2026-04-19T14:40:55.989Z</time></trkpt><trkpt lat="44.4319483" lon="10.4007933"><ele>694.0</ele><time>2026-04-19T14:40:56.989Z</time></trkpt><trkpt lat="44.4320183" lon="10.4009583"><ele>694.0</ele><time>2026-04-19T14:40:57.989Z</time></trkpt><trkpt lat="44.4320883" lon="10.4011217"><ele>694.0</ele><time>2026-04-19T14:40:58.989Z</time></trkpt><trkpt lat="44.4321583" lon="10.40129"><ele>694.0</ele><time>2026-04-19T14:40:59.989Z</time></trkpt><trkpt lat="44.4322317" lon="10.4014567"><ele>694.0</ele><time>2026-04-19T14:41:00.989Z</time></trkpt><trkpt lat="44.432305" lon="10.4016117"><ele>694.0</ele><time>2026-04-19T14:41:01.989Z</time></trkpt><trkpt lat="44.4323817" lon="10.4017617"><ele>694.0</ele><time>2026-04-19T14:41:02.989Z</time></trkpt><trkpt lat="44.4324567" lon="10.401925"><ele>694.0</ele><time>2026-04-19T14:41:03.989Z</time></trkpt><trkpt lat="44.4325433" lon="10.402105"><ele>694.0</ele><time>2026-04-19T14:41:04.989Z</time></trkpt><trkpt lat="44.4326367" lon="10.402305"><ele>693.3333333333334</ele><time>2026-04-19T14:41:05.989Z</time></trkpt><trkpt lat="44.432735" lon="10.4025233"><ele>692.6666666666666</ele><time>2026-04-19T14:41:06.989Z</time></trkpt><trkpt lat="44.4328283" lon="10.4027483"><ele>692.0</ele><time>2026-04-19T14:41:07.989Z</time></trkpt><trkpt lat="44.4329233" lon="10.40296"><ele>694.6666666666666</ele><time>2026-04-19T14:41:08.989Z</time></trkpt><trkpt lat="44.4330133" lon="10.4031583"><ele>697.3333333333334</ele><time>2026-04-19T14:41:09.989Z</time></trkpt><trkpt lat="44.4330883" lon="10.40335"><ele>700.0</ele><time>2026-04-19T14:41:10.989Z</time></trkpt><trkpt lat="44.4331683" lon="10.40352"><ele>700.0</ele><time>2026-04-19T14:41:11.989Z</time></trkpt><trkpt lat="44.4332417" lon="10.4036933"><ele>700.0</ele><time>2026-04-19T14:41:12.989Z</time></trkpt><trkpt lat="44.4333117" lon="10.4038783"><ele>700.0</ele><time>2026-04-19T14:41:13.989Z</time></trkpt><trkpt lat="44.4333917" lon="10.40405"><ele>700.0</ele><time>2026-04-19T14:41:14.989Z</time></trkpt><trkpt lat="44.4334567" lon="10.4042167"><ele>698.25</ele><time>2026-04-19T14:41:15.989Z</time></trkpt><trkpt lat="44.433525" lon="10.40439"><ele>696.5</ele><time>2026-04-19T14:41:16.989Z</time></trkpt><trkpt lat="44.4335967" lon="10.404565"><ele>694.75</ele><time>2026-04-19T14:41:17.989Z</time></trkpt><trkpt lat="44.4336683" lon="10.4047433"><ele>693.0</ele><time>2026-04-19T14:41:18.989Z</time></trkpt><trkpt lat="44.433745" lon="10.4049033"><ele>693.75</ele><time>2026-04-19T14:41:19.989Z</time></trkpt><trkpt lat="44.4338133" lon="10.4050583"><ele>694.5</ele><time>2026-04-19T14:41:20.989Z</time></trkpt><trkpt lat="44.4338783" lon="10.4052217"><ele>695.25</ele><time>2026-04-19T14:41:21.989Z</time></trkpt><trkpt lat="44.4339333" lon="10.4053933"><ele>696.0</ele><time>2026-04-19T14:41:22.989Z</time></trkpt><trkpt lat="44.43398" lon="10.4055533"><ele>696.0</ele><time>2026-04-19T14:41:23.989Z</time></trkpt><trkpt lat="44.4340133" lon="10.4057083"><ele>696.0</ele><time>2026-04-19T14:41:24.989Z</time></trkpt><trkpt lat="44.4340267" lon="10.405865"><ele>696.0</ele><time>2026-04-19T14:41:25.989Z</time></trkpt><trkpt lat="44.4340333" lon="10.406015"><ele>696.0</ele><time>2026-04-19T14:41:26.989Z</time></trkpt><trkpt lat="44.4340467" lon="10.4061667"><ele>696.0</ele><time>2026-04-19T14:41:27.989Z</time></trkpt><trkpt lat="44.4340433" lon="10.4063033"><ele>696.5999999999999</ele><time>2026-04-19T14:41:28.989Z</time></trkpt><trkpt lat="44.4340267" lon="10.40643"><ele>697.2</ele><time>2026-04-19T14:41:29.989Z</time></trkpt><trkpt lat="44.434" lon="10.4065533"><ele>697.8</ele><time>2026-04-19T14:41:30.989Z</time></trkpt><trkpt lat="44.4339667" lon="10.4066733"><ele>698.4000000000001</ele><time>2026-04-19T14:41:31.989Z</time></trkpt><trkpt lat="44.4339367" lon="10.4067967"><ele>699.0</ele><time>2026-04-19T14:41:32.989Z</time></trkpt><trkpt lat="44.4339" lon="10.40693"><ele>699.0</ele><time>2026-04-19T14:41:33.989Z</time></trkpt><trkpt lat="44.4338683" lon="10.40706"><ele>699.0</ele><time>2026-04-19T14:41:34.989Z</time></trkpt><trkpt lat="44.4338383" lon="10.4071867"><ele>699.0</ele><time>2026-04-19T14:41:35.989Z</time></trkpt><trkpt lat="44.4338117" lon="10.4073"><ele>699.0</ele><time>2026-04-19T14:41:36.989Z</time></trkpt><trkpt lat="44.433785" lon="10.4073967"><ele>699.0</ele><time>2026-04-19T14:41:37.989Z</time></trkpt><trkpt lat="44.433755" lon="10.4074917"><ele>699.0</ele><time>2026-04-19T14:41:38.989Z</time></trkpt><trkpt lat="44.433725" lon="10.407585"><ele>700.0</ele><time>2026-04-19T14:41:39.989Z</time></trkpt><trkpt lat="44.4336833" lon="10.4076667"><ele>701.0</ele><time>2026-04-19T14:41:40.989Z</time></trkpt><trkpt lat="44.4336383" lon="10.407755"><ele>702.0</ele><time>2026-04-19T14:41:41.989Z</time></trkpt><trkpt lat="44.43359" lon="10.4078517"><ele>703.0</ele><time>2026-04-19T14:41:42.989Z</time></trkpt><trkpt lat="44.433535" lon="10.40795"><ele>704.0</ele><time>2026-04-19T14:41:43.989Z</time></trkpt><trkpt lat="44.4334533" lon="10.408055"><ele>705.0</ele><time>2026-04-19T14:41:44.989Z</time></trkpt><trkpt lat="44.43338" lon="10.4081233"><ele>705.0</ele><time>2026-04-19T14:41:45.989Z</time></trkpt><trkpt lat="44.4333" lon="10.4081883"><ele>705.0</ele><time>2026-04-19T14:41:46.989Z</time></trkpt><trkpt lat="44.4332083" lon="10.408255"><ele>705.0</ele><time>2026-04-19T14:41:47.989Z</time></trkpt><trkpt lat="44.43312" lon="10.4083233"><ele>705.0</ele><time>2026-04-19T14:41:48.989Z</time></trkpt><trkpt lat="44.4330267" lon="10.40841"><ele>705.0</ele><time>2026-04-19T14:41:49.989Z</time></trkpt><trkpt lat="44.432935" lon="10.4085317"><ele>707.25</ele><time>2026-04-19T14:41:50.989Z</time></trkpt><trkpt lat="44.432865" lon="10.4086883"><ele>709.5</ele><time>2026-04-19T14:41:51.989Z</time></trkpt><trkpt lat="44.4328" lon="10.4088583"><ele>711.75</ele><time>2026-04-19T14:41:52.989Z</time></trkpt><trkpt lat="44.4327383" lon="10.4090333"><ele>714.0</ele><time>2026-04-19T14:41:53.989Z</time></trkpt><trkpt lat="44.4326783" lon="10.40923"><ele>715.0</ele><time>2026-04-19T14:41:54.989Z</time></trkpt><trkpt lat="44.4326267" lon="10.4094217"><ele>716.0</ele><time>2026-04-19T14:41:55.989Z</time></trkpt><trkpt lat="44.4325733" lon="10.4096167"><ele>717.0</ele><time>2026-04-19T14:41:56.989Z</time></trkpt><trkpt lat="44.4325333" lon="10.4098083"><ele>718.0</ele><time>2026-04-19T14:41:57.989Z</time></trkpt><trkpt lat="44.4324917" lon="10.4099733"><ele>718.1666666666667</ele><time>2026-04-19T14:41:58.989Z</time></trkpt><trkpt lat="44.4324633" lon="10.4101267"><ele>718.3333333333334</ele><time>2026-04-19T14:41:59.989Z</time></trkpt><trkpt lat="44.4324367" lon="10.4102533"><ele>718.5</ele><time>2026-04-19T14:42:00.989Z</time></trkpt><trkpt lat="44.432405" lon="10.4103617"><ele>718.6666666666666</ele><time>2026-04-19T14:42:01.989Z</time></trkpt><trkpt lat="44.43236" lon="10.410465"><ele>718.8333333333333</ele><time>2026-04-19T14:42:02.989Z</time></trkpt><trkpt lat="44.432315" lon="10.4105417"><ele>719.0</ele><time>2026-04-19T14:42:03.989Z</time></trkpt><trkpt lat="44.432275" lon="10.410615"><ele>719.0</ele><time>2026-04-19T14:42:04.989Z</time></trkpt><trkpt lat="44.4322933" lon="10.4107783"><ele>719.0</ele><time>2026-04-19T14:42:06.989Z</time></trkpt><trkpt lat="44.432355" lon="10.4108383"><ele>719.0</ele><time>2026-04-19T14:42:07.989Z</time></trkpt><trkpt lat="44.4324367" lon="10.4109017"><ele>719.0</ele><time>2026-04-19T14:42:08.989Z</time></trkpt><trkpt lat="44.4325283" lon="10.4109733"><ele>719.0</ele><time>2026-04-19T14:42:09.989Z</time></trkpt><trkpt lat="44.4326167" lon="10.4110733"><ele>719.0</ele><time>2026-04-19T14:42:10.989Z</time></trkpt><trkpt lat="44.4327083" lon="10.4111933"><ele>719.0</ele><time>2026-04-19T14:42:11.989Z</time></trkpt><trkpt lat="44.4327917" lon="10.4113183"><ele>719.0</ele><time>2026-04-19T14:42:12.989Z</time></trkpt><trkpt lat="44.4328667" lon="10.4114467"><ele>719.0</ele><time>2026-04-19T14:42:13.989Z</time></trkpt><trkpt lat="44.432935" lon="10.4115767"><ele>718.6</ele><time>2026-04-19T14:42:14.989Z</time></trkpt><trkpt lat="44.4329933" lon="10.4117083"><ele>718.2</ele><time>2026-04-19T14:42:15.989Z</time></trkpt><trkpt lat="44.4330483" lon="10.4118433"><ele>717.8000000000001</ele><time>2026-04-19T14:42:16.989Z</time></trkpt><trkpt lat="44.4330983" lon="10.4119733"><ele>717.4000000000001</ele><time>2026-04-19T14:42:17.989Z</time></trkpt><trkpt lat="44.4331383" lon="10.412105"><ele>717.0</ele><time>2026-04-19T14:42:18.989Z</time></trkpt><trkpt lat="44.4331733" lon="10.4122433"><ele>714.0</ele><time>2026-04-19T14:42:19.989Z</time></trkpt><trkpt lat="44.4331933" lon="10.4123883"><ele>711.0</ele><time>2026-04-19T14:42:20.989Z</time></trkpt><trkpt lat="44.4331917" lon="10.4125383"><ele>708.0</ele><time>2026-04-19T14:42:21.989Z</time></trkpt><trkpt lat="44.43318" lon="10.4127017"><ele>705.0</ele><time>2026-04-19T14:42:22.989Z</time></trkpt><trkpt lat="44.4331617" lon="10.4128717"><ele>703.25</ele><time>2026-04-19T14:42:23.989Z</time></trkpt><trkpt lat="44.4331283" lon="10.4130517"><ele>701.5</ele><time>2026-04-19T14:42:24.989Z</time></trkpt><trkpt lat="44.4330867" lon="10.4132217"><ele>699.75</ele><time>2026-04-19T14:42:25.989Z</time></trkpt><trkpt lat="44.43304" lon="10.4133983"><ele>698.0</ele><time>2026-04-19T14:42:26.989Z</time></trkpt><trkpt lat="44.43299" lon="10.41358"><ele>701.0</ele><time>2026-04-19T14:42:27.989Z</time></trkpt><trkpt lat="44.4329433" lon="10.4137617"><ele>704.0</ele><time>2026-04-19T14:42:28.989Z</time></trkpt><trkpt lat="44.4328967" lon="10.4139483"><ele>707.0</ele><time>2026-04-19T14:42:29.989Z</time></trkpt><trkpt lat="44.43286" lon="10.4141483"><ele>710.0</ele><time>2026-04-19T14:42:30.989Z</time></trkpt><trkpt lat="44.4328383" lon="10.4143483"><ele>710.3333333333333</ele><time>2026-04-19T14:42:31.989Z</time></trkpt><trkpt lat="44.432825" lon="10.4145633"><ele>710.6666666666666</ele><time>2026-04-19T14:42:32.989Z</time></trkpt><trkpt lat="44.4328267" lon="10.414775"><ele>711.0</ele><time>2026-04-19T14:42:33.989Z</time></trkpt><trkpt lat="44.43284" lon="10.414985"><ele>711.0</ele><time>2026-04-19T14:42:34.989Z</time></trkpt><trkpt lat="44.4328617" lon="10.4151867"><ele>711.0</ele><time>2026-04-19T14:42:35.989Z</time></trkpt><trkpt lat="44.432895" lon="10.4153767"><ele>711.0</ele><time>2026-04-19T14:42:36.989Z</time></trkpt><trkpt lat="44.432945" lon="10.4155533"><ele>711.0</ele><time>2026-04-19T14:42:37.989Z</time></trkpt><trkpt lat="44.4330017" lon="10.4157067"><ele>707.5999999999999</ele><time>2026-04-19T14:42:38.99Z</time></trkpt><trkpt lat="44.4330633" lon="10.4158433"><ele>704.2</ele><time>2026-04-19T14:42:39.989Z</time></trkpt><trkpt lat="44.4331267" lon="10.415955"><ele>700.8</ele><time>2026-04-19T14:42:40.988Z</time></trkpt><trkpt lat="44.4331767" lon="10.416075"><ele>697.4000000000001</ele><time>2026-04-19T14:42:41.988Z</time></trkpt><trkpt lat="44.4332167" lon="10.4161967"><ele>694.0</ele><time>2026-04-19T14:42:42.988Z</time></trkpt><trkpt lat="44.43325" lon="10.41633"><ele>694.0</ele><time>2026-04-19T14:42:43.988Z</time></trkpt><trkpt lat="44.4332817" lon="10.4164817"><ele>694.0</ele><time>2026-04-19T14:42:44.988Z</time></trkpt><trkpt lat="44.43331" lon="10.41664"><ele>694.0</ele><time>2026-04-19T14:42:45.988Z</time></trkpt><trkpt lat="44.4333433" lon="10.4168033"><ele>694.0</ele><time>2026-04-19T14:42:46.988Z</time></trkpt><trkpt lat="44.433385" lon="10.4169667"><ele>694.0</ele><time>2026-04-19T14:42:47.988Z</time></trkpt><trkpt lat="44.433435" lon="10.417145"><ele>694.0</ele><time>2026-04-19T14:42:48.988Z</time></trkpt><trkpt lat="44.4334967" lon="10.41732"><ele>694.0</ele><time>2026-04-19T14:42:49.988Z</time></trkpt><trkpt lat="44.4335717" lon="10.41749"><ele>694.0</ele><time>2026-04-19T14:42:50.988Z</time></trkpt><trkpt lat="44.433655" lon="10.4176717"><ele>695.3333333333334</ele><time>2026-04-19T14:42:51.988Z</time></trkpt><trkpt lat="44.4337517" lon="10.4178717"><ele>696.6666666666666</ele><time>2026-04-19T14:42:52.988Z</time></trkpt><trkpt lat="44.4338533" lon="10.418095"><ele>698.0</ele><time>2026-04-19T14:42:53.988Z</time></trkpt><trkpt lat="44.43395" lon="10.41834"><ele>692.6666666666666</ele><time>2026-04-19T14:42:54.988Z</time></trkpt><trkpt lat="44.4340417" lon="10.4185967"><ele>687.3333333333334</ele><time>2026-04-19T14:42:55.988Z</time></trkpt><trkpt lat="44.4341083" lon="10.4188617"><ele>682.0</ele><time>2026-04-19T14:42:56.988Z</time></trkpt><trkpt lat="44.4341667" lon="10.4191183"><ele>682.0</ele><time>2026-04-19T14:42:57.988Z</time></trkpt><trkpt lat="44.4342217" lon="10.4193817"><ele>682.0</ele><time>2026-04-19T14:42:58.988Z</time></trkpt><trkpt lat="44.4342817" lon="10.41964"><ele>682.0</ele><time>2026-04-19T14:42:59.988Z</time></trkpt><trkpt lat="44.43435" lon="10.4198817"><ele>681.6666666666667</ele><time>2026-04-19T14:43:00.988Z</time></trkpt><trkpt lat="44.4344333" lon="10.420095"><ele>681.3333333333334</ele><time>2026-04-19T14:43:01.988Z</time></trkpt><trkpt lat="44.434515" lon="10.4202983"><ele>681.0</ele><time>2026-04-19T14:43:02.988Z</time></trkpt><trkpt lat="44.4346017" lon="10.4204883"><ele>677.25</ele><time>2026-04-19T14:43:03.988Z</time></trkpt><trkpt lat="44.4346783" lon="10.4206683"><ele>673.5</ele><time>2026-04-19T14:43:04.988Z</time></trkpt><trkpt lat="44.4347433" lon="10.42085"><ele>669.75</ele><time>2026-04-19T14:43:05.988Z</time></trkpt><trkpt lat="44.4347983" lon="10.4210333"><ele>666.0</ele><time>2026-04-19T14:43:06.988Z</time></trkpt><trkpt lat="44.4348483" lon="10.42124"><ele>666.6666666666666</ele><time>2026-04-19T14:43:07.988Z</time></trkpt><trkpt lat="44.4348967" lon="10.421455"><ele>667.3333333333333</ele><time>2026-04-19T14:43:08.988Z</time></trkpt><trkpt lat="44.4349183" lon="10.4216783"><ele>668.0</ele><time>2026-04-19T14:43:09.988Z</time></trkpt><trkpt lat="44.434965" lon="10.4218767"><ele>668.0</ele><time>2026-04-19T14:43:10.988Z</time></trkpt><trkpt lat="44.4350067" lon="10.422075"><ele>668.0</ele><time>2026-04-19T14:43:11.988Z</time></trkpt><trkpt lat="44.43504" lon="10.422265"><ele>668.0</ele><time>2026-04-19T14:43:12.988Z</time></trkpt><trkpt lat="44.4350767" lon="10.42247"><ele>668.0</ele><time>2026-04-19T14:43:13.988Z</time></trkpt><trkpt lat="44.4351167" lon="10.4226683"><ele>668.5</ele><time>2026-04-19T14:43:14.988Z</time></trkpt><trkpt lat="44.4351683" lon="10.422865"><ele>669.0</ele><time>2026-04-19T14:43:15.988Z</time></trkpt><trkpt lat="44.4352267" lon="10.4230567"><ele>669.5</ele><time>2026-04-19T14:43:16.988Z</time></trkpt><trkpt lat="44.435285" lon="10.4232417"><ele>670.0</ele><time>2026-04-19T14:43:17.988Z</time></trkpt><trkpt lat="44.4353383" lon="10.4234217"><ele>671.0</ele><time>2026-04-19T14:43:18.988Z</time></trkpt><trkpt lat="44.43539" lon="10.423595"><ele>672.0</ele><time>2026-04-19T14:43:19.988Z</time></trkpt><trkpt lat="44.4354417" lon="10.4237633"><ele>673.0</ele><time>2026-04-19T14:43:20.988Z</time></trkpt><trkpt lat="44.4354817" lon="10.4239417"><ele>674.0</ele><time>2026-04-19T14:43:21.988Z</time></trkpt><trkpt lat="44.4355067" lon="10.4241133"><ele>674.0</ele><time>2026-04-19T14:43:22.988Z</time></trkpt><trkpt lat="44.4355117" lon="10.4242633"><ele>674.0</ele><time>2026-04-19T14:43:23.988Z</time></trkpt><trkpt lat="44.4355033" lon="10.424385"><ele>674.0</ele><time>2026-04-19T14:43:24.988Z</time></trkpt><trkpt lat="44.435495" lon="10.4244883"><ele>674.0</ele><time>2026-04-19T14:43:25.988Z</time></trkpt><trkpt lat="44.4354567" lon="10.4246167"><ele>674.0</ele><time>2026-04-19T14:43:27.988Z</time></trkpt><trkpt lat="44.4354183" lon="10.4247183"><ele>672.4000000000001</ele><time>2026-04-19T14:43:29.988Z</time></trkpt><trkpt lat="44.43537" lon="10.4248033"><ele>670.8</ele><time>2026-04-19T14:43:31.988Z</time></trkpt><trkpt lat="44.43529" lon="10.4249333"><ele>669.2</ele><time>2026-04-19T14:43:33.988Z</time></trkpt><trkpt lat="44.435275" lon="10.4250733"><ele>667.5999999999999</ele><time>2026-04-19T14:43:35.988Z</time></trkpt><trkpt lat="44.4353283" lon="10.4252067"><ele>666.0</ele><time>2026-04-19T14:43:37.988Z</time></trkpt><trkpt lat="44.4354033" lon="10.425355"><ele>666.0</ele><time>2026-04-19T14:43:39.988Z</time></trkpt><trkpt lat="44.435445" lon="10.4254433"><ele>666.0</ele><time>2026-04-19T14:43:40.988Z</time></trkpt><trkpt lat="44.4354967" lon="10.425525"><ele>666.0</ele><time>2026-04-19T14:43:41.988Z</time></trkpt><trkpt lat="44.4355583" lon="10.42561"><ele>666.0</ele><time>2026-04-19T14:43:42.988Z</time></trkpt><trkpt lat="44.4356183" lon="10.4256983"><ele>666.0</ele><time>2026-04-19T14:43:43.988Z</time></trkpt><trkpt lat="44.435685" lon="10.425795"><ele>666.0</ele><time>2026-04-19T14:43:44.988Z</time></trkpt><trkpt lat="44.4357517" lon="10.425905"><ele>664.5</ele><time>2026-04-19T14:43:45.988Z</time></trkpt><trkpt lat="44.4358233" lon="10.42603"><ele>663.0</ele><time>2026-04-19T14:43:46.988Z</time></trkpt><trkpt lat="44.43589" lon="10.4261583"><ele>661.5</ele><time>2026-04-19T14:43:47.988Z</time></trkpt><trkpt lat="44.43595" lon="10.42629"><ele>660.0</ele><time>2026-04-19T14:43:48.988Z</time></trkpt><trkpt lat="44.4360033" lon="10.4264317"><ele>660.0</ele><time>2026-04-19T14:43:49.988Z</time></trkpt><trkpt lat="44.4360583" lon="10.426575"><ele>660.0</ele><time>2026-04-19T14:43:50.988Z</time></trkpt><trkpt lat="44.436105" lon="10.4267183"><ele>660.0</ele><time>2026-04-19T14:43:51.988Z</time></trkpt><trkpt lat="44.4361467" lon="10.4268567"><ele>660.0</ele><time>2026-04-19T14:43:52.988Z</time></trkpt><trkpt lat="44.4361783" lon="10.4270067"><ele>660.0</ele><time>2026-04-19T14:43:53.989Z</time></trkpt><trkpt lat="44.4361967" lon="10.4271517"><ele>659.4</ele><time>2026-04-19T14:43:54.988Z</time></trkpt><trkpt lat="44.43621" lon="10.4273017"><ele>658.8</ele><time>2026-04-19T14:43:55.988Z</time></trkpt><trkpt lat="44.43622" lon="10.42745"><ele>658.2</ele><time>2026-04-19T14:43:56.988Z</time></trkpt><trkpt lat="44.4362333" lon="10.4276"><ele>657.6</ele><time>2026-04-19T14:43:57.988Z</time></trkpt><trkpt lat="44.4362417" lon="10.4277433"><ele>657.0</ele><time>2026-04-19T14:43:58.988Z</time></trkpt><trkpt lat="44.43625" lon="10.4278883"><ele>657.0</ele><time>2026-04-19T14:43:59.988Z</time></trkpt><trkpt lat="44.43626" lon="10.4280317"><ele>657.0</ele><time>2026-04-19T14:44:00.988Z</time></trkpt><trkpt lat="44.4362667" lon="10.428185"><ele>657.0</ele><time>2026-04-19T14:44:01.988Z</time></trkpt><trkpt lat="44.4362717" lon="10.428335"><ele>657.0</ele><time>2026-04-19T14:44:02.988Z</time></trkpt><trkpt lat="44.43628" lon="10.4284767"><ele>657.0</ele><time>2026-04-19T14:44:03.988Z</time></trkpt><trkpt lat="44.4362883" lon="10.4286117"><ele>657.0</ele><time>2026-04-19T14:44:04.988Z</time></trkpt><trkpt lat="44.4362917" lon="10.4287533"><ele>657.0</ele><time>2026-04-19T14:44:05.988Z</time></trkpt><trkpt lat="44.4362967" lon="10.428905"><ele>657.0</ele><time>2026-04-19T14:44:06.989Z</time></trkpt><trkpt lat="44.4362967" lon="10.4290667"><ele>657.0</ele><time>2026-04-19T14:44:07.988Z</time></trkpt><trkpt lat="44.43631" lon="10.4292233"><ele>657.0</ele><time>2026-04-19T14:44:08.988Z</time></trkpt><trkpt lat="44.4363267" lon="10.42938"><ele>659.5</ele><time>2026-04-19T14:44:09.988Z</time></trkpt><trkpt lat="44.4363533" lon="10.4295333"><ele>662.0</ele><time>2026-04-19T14:44:10.988Z</time></trkpt><trkpt lat="44.436395" lon="10.4296883"><ele>664.5</ele><time>2026-04-19T14:44:11.988Z</time></trkpt><trkpt lat="44.436445" lon="10.4298483"><ele>667.0</ele><time>2026-04-19T14:44:12.989Z</time></trkpt><trkpt lat="44.4364967" lon="10.429995"><ele>667.0</ele><time>2026-04-19T14:44:13.988Z</time></trkpt><trkpt lat="44.4365483" lon="10.4301417"><ele>667.0</ele><time>2026-04-19T14:44:14.988Z</time></trkpt><trkpt lat="44.4366" lon="10.4302767"><ele>667.0</ele><time>2026-04-19T14:44:15.989Z</time></trkpt><trkpt lat="44.4366567" lon="10.4304117"><ele>667.0</ele><time>2026-04-19T14:44:16.988Z</time></trkpt><trkpt lat="44.4367033" lon="10.4305433"><ele>667.0</ele><time>2026-04-19T14:44:17.988Z</time></trkpt><trkpt lat="44.4367533" lon="10.4306783"><ele>666.0</ele><time>2026-04-19T14:44:18.988Z</time></trkpt><trkpt lat="44.4367817" lon="10.4308217"><ele>665.0</ele><time>2026-04-19T14:44:19.988Z</time></trkpt><trkpt lat="44.436805" lon="10.4309783"><ele>664.0</ele><time>2026-04-19T14:44:20.988Z</time></trkpt><trkpt lat="44.4368233" lon="10.4311417"><ele>663.0</ele><time>2026-04-19T14:44:21.989Z</time></trkpt><trkpt lat="44.4368467" lon="10.431315"><ele>662.25</ele><time>2026-04-19T14:44:22.988Z</time></trkpt><trkpt lat="44.4368633" lon="10.4314967"><ele>661.5</ele><time>2026-04-19T14:44:23.988Z</time></trkpt><trkpt lat="44.4368817" lon="10.4316867"><ele>660.75</ele><time>2026-04-19T14:44:24.988Z</time></trkpt><trkpt lat="44.4369" lon="10.4318717"><ele>660.0</ele><time>2026-04-19T14:44:25.988Z</time></trkpt><trkpt lat="44.43691" lon="10.4320483"><ele>659.5</ele><time>2026-04-19T14:44:26.988Z</time></trkpt><trkpt lat="44.436925" lon="10.4322317"><ele>659.0</ele><time>2026-04-19T14:44:27.988Z</time></trkpt><trkpt lat="44.4369433" lon="10.43241"><ele>658.5</ele><time>2026-04-19T14:44:28.988Z</time></trkpt><trkpt lat="44.4369633" lon="10.432585"><ele>658.0</ele><time>2026-04-19T14:44:29.988Z</time></trkpt><trkpt lat="44.4369933" lon="10.432755"><ele>658.0</ele><time>2026-04-19T14:44:30.988Z</time></trkpt><trkpt lat="44.43702" lon="10.4329383"><ele>658.0</ele><time>2026-04-19T14:44:31.988Z</time></trkpt><trkpt lat="44.4370567" lon="10.43313"><ele>658.0</ele><time>2026-04-19T14:44:32.988Z</time></trkpt><trkpt lat="44.4371033" lon="10.433325"><ele>658.0</ele><time>2026-04-19T14:44:33.988Z</time></trkpt><trkpt lat="44.4371583" lon="10.433535"><ele>661.25</ele><time>2026-04-19T14:44:34.988Z</time></trkpt><trkpt lat="44.4372217" lon="10.4337317"><ele>664.5</ele><time>2026-04-19T14:44:35.988Z</time></trkpt><trkpt lat="44.437285" lon="10.4339167"><ele>667.75</ele><time>2026-04-19T14:44:36.988Z</time></trkpt><trkpt lat="44.43735" lon="10.4341033"><ele>671.0</ele><time>2026-04-19T14:44:37.988Z</time></trkpt><trkpt lat="44.4374083" lon="10.4343017"><ele>671.6666666666666</ele><time>2026-04-19T14:44:38.988Z</time></trkpt><trkpt lat="44.437475" lon="10.434485"><ele>672.3333333333334</ele><time>2026-04-19T14:44:39.988Z</time></trkpt><trkpt lat="44.437565" lon="10.4346483"><ele>673.0</ele><time>2026-04-19T14:44:40.988Z</time></trkpt><trkpt lat="44.4376617" lon="10.43482"><ele>675.3333333333334</ele><time>2026-04-19T14:44:41.988Z</time></trkpt><trkpt lat="44.4377517" lon="10.4350033"><ele>677.6666666666666</ele><time>2026-04-19T14:44:42.988Z</time></trkpt><trkpt lat="44.4378467" lon="10.4351867"><ele>680.0</ele><time>2026-04-19T14:44:43.988Z</time></trkpt><trkpt lat="44.43795" lon="10.435365"><ele>680.0</ele><time>2026-04-19T14:44:44.988Z</time></trkpt><trkpt lat="44.4380567" lon="10.4355367"><ele>680.0</ele><time>2026-04-19T14:44:45.988Z</time></trkpt><trkpt lat="44.440515" lon="10.4384433"><ele>667.3333333333333</ele><time>2026-04-19T14:45:04.988Z</time></trkpt><trkpt lat="44.440635" lon="10.4386317"><ele>654.6666666666666</ele><time>2026-04-19T14:45:05.988Z</time></trkpt><trkpt lat="44.4407483" lon="10.4388317"><ele>642.0</ele><time>2026-04-19T14:45:06.988Z</time></trkpt><trkpt lat="44.4408467" lon="10.4390417"><ele>640.6666666666666</ele><time>2026-04-19T14:45:07.988Z</time></trkpt><trkpt lat="44.4409367" lon="10.43925"><ele>639.3333333333333</ele><time>2026-04-19T14:45:08.988Z</time></trkpt><trkpt lat="44.4410183" lon="10.4394467"><ele>638.0</ele><time>2026-04-19T14:45:09.988Z</time></trkpt><trkpt lat="44.4410867" lon="10.43964"><ele>636.0</ele><time>2026-04-19T14:45:10.988Z</time></trkpt><trkpt lat="44.44115" lon="10.439825"><ele>634.0</ele><time>2026-04-19T14:45:11.988Z</time></trkpt><trkpt lat="44.4411967" lon="10.4400133"><ele>632.0</ele><time>2026-04-19T14:45:12.988Z</time></trkpt><trkpt lat="44.4412383" lon="10.4401983"><ele>630.0</ele><time>2026-04-19T14:45:13.988Z</time></trkpt><trkpt lat="44.44128" lon="10.4403767"><ele>633.6666666666666</ele><time>2026-04-19T14:45:14.988Z</time></trkpt><trkpt lat="44.4413367" lon="10.440555"><ele>637.3333333333333</ele><time>2026-04-19T14:45:15.988Z</time></trkpt><trkpt lat="44.4414167" lon="10.4407467"><ele>641.0</ele><time>2026-04-19T14:45:16.988Z</time></trkpt><trkpt lat="44.4415133" lon="10.4409217"><ele>641.0</ele><time>2026-04-19T14:45:17.988Z</time></trkpt><trkpt lat="44.44161" lon="10.441105"><ele>641.0</ele><time>2026-04-19T14:45:18.988Z</time></trkpt><trkpt lat="44.441685" lon="10.4412933"><ele>641.0</ele><time>2026-04-19T14:45:19.988Z</time></trkpt><trkpt lat="44.4417433" lon="10.4414833"><ele>639.5</ele><time>2026-04-19T14:45:20.988Z</time></trkpt><trkpt lat="44.44179" lon="10.4416767"><ele>638.0</ele><time>2026-04-19T14:45:21.988Z</time></trkpt><trkpt lat="44.441815" lon="10.441865"><ele>636.5</ele><time>2026-04-19T14:45:22.988Z</time></trkpt><trkpt lat="44.44183" lon="10.4420583"><ele>635.0</ele><time>2026-04-19T14:45:23.988Z</time></trkpt><trkpt lat="44.4418533" lon="10.4422483"><ele>633.25</ele><time>2026-04-19T14:45:24.988Z</time></trkpt><trkpt lat="44.4418983" lon="10.4424367"><ele>631.5</ele><time>2026-04-19T14:45:25.988Z</time></trkpt><trkpt lat="44.4419667" lon="10.44261"><ele>629.75</ele><time>2026-04-19T14:45:26.988Z</time></trkpt><trkpt lat="44.44206" lon="10.44276"><ele>628.0</ele><time>2026-04-19T14:45:27.988Z</time></trkpt><trkpt lat="44.4421733" lon="10.442885"><ele>629.0</ele><time>2026-04-19T14:45:28.988Z</time></trkpt><trkpt lat="44.4423017" lon="10.44299"><ele>630.0</ele><time>2026-04-19T14:45:29.988Z</time></trkpt><trkpt lat="44.4424283" lon="10.4430817"><ele>631.0</ele><time>2026-04-19T14:45:30.988Z</time></trkpt><trkpt lat="44.4425567" lon="10.4431683"><ele>632.0</ele><time>2026-04-19T14:45:31.988Z</time></trkpt><trkpt lat="44.44268" lon="10.4432667"><ele>632.0</ele><time>2026-04-19T14:45:32.988Z</time></trkpt><trkpt lat="44.4427917" lon="10.4433833"><ele>632.0</ele><time>2026-04-19T14:45:33.988Z</time></trkpt><trkpt lat="44.4429" lon="10.443525"><ele>632.0</ele><time>2026-04-19T14:45:34.988Z</time></trkpt><trkpt lat="44.4430133" lon="10.44368"><ele>632.0</ele><time>2026-04-19T14:45:35.988Z</time></trkpt><trkpt lat="44.44313" lon="10.443845"><ele>632.3333333333333</ele><time>2026-04-19T14:45:36.988Z</time></trkpt><trkpt lat="44.4432433" lon="10.4440133"><ele>632.6666666666666</ele><time>2026-04-19T14:45:37.988Z</time></trkpt><trkpt lat="44.44335" lon="10.4441767"><ele>633.0</ele><time>2026-04-19T14:45:38.989Z</time></trkpt><trkpt lat="44.4434517" lon="10.4443383"><ele>633.0</ele><time>2026-04-19T14:45:39.988Z</time></trkpt><trkpt lat="44.4435533" lon="10.4444883"><ele>633.0</ele><time>2026-04-19T14:45:40.988Z</time></trkpt><trkpt lat="44.4436533" lon="10.4446367"><ele>633.0</ele><time>2026-04-19T14:45:41.988Z</time></trkpt><trkpt lat="44.4437533" lon="10.4447833"><ele>633.0</ele><time>2026-04-19T14:45:42.988Z</time></trkpt><trkpt lat="44.4438567" lon="10.444935"><ele>633.25</ele><time>2026-04-19T14:45:43.988Z</time></trkpt><trkpt lat="44.4439583" lon="10.445085"><ele>633.5</ele><time>2026-04-19T14:45:44.988Z</time></trkpt><trkpt lat="44.444065" lon="10.4452367"><ele>633.75</ele><time>2026-04-19T14:45:45.988Z</time></trkpt><trkpt lat="44.4441617" lon="10.445385"><ele>634.0</ele><time>2026-04-19T14:45:46.988Z</time></trkpt><trkpt lat="44.4442617" lon="10.4455067"><ele>633.0</ele><time>2026-04-19T14:45:47.988Z</time></trkpt><trkpt lat="44.4443517" lon="10.445635"><ele>632.0</ele><time>2026-04-19T14:45:48.988Z</time></trkpt><trkpt lat="44.4444383" lon="10.44576"><ele>631.0</ele><time>2026-04-19T14:45:49.988Z</time></trkpt><trkpt lat="44.444515" lon="10.445885"><ele>630.0</ele><time>2026-04-19T14:45:50.988Z</time></trkpt><trkpt lat="44.444595" lon="10.4460017"><ele>629.75</ele><time>2026-04-19T14:45:51.988Z</time></trkpt><trkpt lat="44.4446783" lon="10.446125"><ele>629.5</ele><time>2026-04-19T14:45:52.988Z</time></trkpt><trkpt lat="44.444765" lon="10.4462533"><ele>629.25</ele><time>2026-04-19T14:45:53.988Z</time></trkpt><trkpt lat="44.44485" lon="10.4463833"><ele>629.0</ele><time>2026-04-19T14:45:54.988Z</time></trkpt><trkpt lat="44.4449367" lon="10.4465167"><ele>629.0</ele><time>2026-04-19T14:45:55.988Z</time></trkpt><trkpt lat="44.445025" lon="10.446645"><ele>629.0</ele><time>2026-04-19T14:45:56.988Z</time></trkpt><trkpt lat="44.4451267" lon="10.4467567"><ele>629.0</ele><time>2026-04-19T14:45:57.988Z</time></trkpt><trkpt lat="44.4452433" lon="10.4468617"><ele>629.0</ele><time>2026-04-19T14:45:58.988Z</time></trkpt><trkpt lat="44.4453717" lon="10.4469517"><ele>630.25</ele><time>2026-04-19T14:45:59.988Z</time></trkpt><trkpt lat="44.4454967" lon="10.4470333"><ele>631.5</ele><time>2026-04-19T14:46:00.988Z</time></trkpt><trkpt lat="44.445615" lon="10.4471217"><ele>632.75</ele><time>2026-04-19T14:46:01.988Z</time></trkpt><trkpt lat="44.44573" lon="10.447205"><ele>634.0</ele><time>2026-04-19T14:46:02.988Z</time></trkpt><trkpt lat="44.4458367" lon="10.4472817"><ele>633.0</ele><time>2026-04-19T14:46:03.988Z</time></trkpt><trkpt lat="44.445935" lon="10.4473533"><ele>632.0</ele><time>2026-04-19T14:46:04.988Z</time></trkpt><trkpt lat="44.446025" lon="10.4474233"><ele>631.0</ele><time>2026-04-19T14:46:05.988Z</time></trkpt><trkpt lat="44.4461183" lon="10.4474917"><ele>630.0</ele><time>2026-04-19T14:46:06.988Z</time></trkpt><trkpt lat="44.446215" lon="10.4475633"><ele>629.0</ele><time>2026-04-19T14:46:07.988Z</time></trkpt><trkpt lat="44.446315" lon="10.4476333"><ele>629.0</ele><time>2026-04-19T14:46:08.988Z</time></trkpt><trkpt lat="44.4464133" lon="10.4477067"><ele>629.0</ele><time>2026-04-19T14:46:09.988Z</time></trkpt><trkpt lat="44.4465067" lon="10.447765"><ele>629.0</ele><time>2026-04-19T14:46:10.988Z</time></trkpt><trkpt lat="44.4465783" lon="10.4478117"><ele>629.0</ele><time>2026-04-19T14:46:11.988Z</time></trkpt><trkpt lat="44.4466533" lon="10.4478583"><ele>629.0</ele><time>2026-04-19T14:46:13.988Z</time></trkpt><trkpt lat="44.4467133" lon="10.4479"><ele>629.0</ele><time>2026-04-19T14:46:19.988Z</time></trkpt><trkpt lat="44.4467733" lon="10.4479617"><ele>628.0</ele><time>2026-04-19T14:46:21.988Z</time></trkpt><trkpt lat="44.4468767" lon="10.4480267"><ele>627.0</ele><time>2026-04-19T14:46:23.988Z</time></trkpt><trkpt lat="44.446945" lon="10.448055"><ele>626.0</ele><time>2026-04-19T14:46:24.988Z</time></trkpt><trkpt lat="44.44704" lon="10.4481067"><ele>625.0</ele><time>2026-04-19T14:46:25.988Z</time></trkpt><trkpt lat="44.4471583" lon="10.4481917"><ele>624.0</ele><time>2026-04-19T14:46:26.988Z</time></trkpt><trkpt lat="44.4472917" lon="10.448295"><ele>624.0</ele><time>2026-04-19T14:46:27.988Z</time></trkpt><trkpt lat="44.447435" lon="10.4484067"><ele>624.0</ele><time>2026-04-19T14:46:28.988Z</time></trkpt><trkpt lat="44.44759" lon="10.4485183"><ele>624.0</ele><time>2026-04-19T14:46:29.988Z</time></trkpt><trkpt lat="44.447745" lon="10.4486283"><ele>624.0</ele><time>2026-04-19T14:46:30.988Z</time></trkpt><trkpt lat="44.4479017" lon="10.4487433"><ele>624.0</ele><time>2026-04-19T14:46:31.988Z</time></trkpt><trkpt lat="44.44808" lon="10.448865"><ele>624.0</ele><time>2026-04-19T14:46:32.988Z</time></trkpt><trkpt lat="44.4482717" lon="10.44899"><ele>623.0</ele><time>2026-04-19T14:46:33.988Z</time></trkpt><trkpt lat="44.4484683" lon="10.4491233"><ele>622.0</ele><time>2026-04-19T14:46:34.988Z</time></trkpt><trkpt lat="44.4486517" lon="10.4492667"><ele>621.0</ele><time>2026-04-19T14:46:35.988Z</time></trkpt><trkpt lat="44.4488367" lon="10.4493983"><ele>625.6666666666666</ele><time>2026-04-19T14:46:36.988Z</time></trkpt><trkpt lat="44.4490183" lon="10.4495183"><ele>630.3333333333333</ele><time>2026-04-19T14:46:37.988Z</time></trkpt><trkpt lat="44.4491917" lon="10.44964"><ele>635.0</ele><time>2026-04-19T14:46:38.989Z</time></trkpt><trkpt lat="44.4493517" lon="10.4497583"><ele>635.0</ele><time>2026-04-19T14:46:39.988Z</time></trkpt><trkpt lat="44.449495" lon="10.4498683"><ele>635.0</ele><time>2026-04-19T14:46:40.988Z</time></trkpt><trkpt lat="44.4496383" lon="10.4499817"><ele>635.0</ele><time>2026-04-19T14:46:41.988Z</time></trkpt><trkpt lat="44.4497833" lon="10.4500883"><ele>637.0</ele><time>2026-04-19T14:46:42.988Z</time></trkpt><trkpt lat="44.44993" lon="10.4502117"><ele>639.0</ele><time>2026-04-19T14:46:43.988Z</time></trkpt><trkpt lat="44.45008" lon="10.4503483"><ele>641.0</ele><time>2026-04-19T14:46:44.988Z</time></trkpt><trkpt lat="44.4502233" lon="10.45051"><ele>641.6666666666666</ele><time>2026-04-19T14:46:45.988Z</time></trkpt><trkpt lat="44.4503667" lon="10.4506683"><ele>642.3333333333334</ele><time>2026-04-19T14:46:46.988Z</time></trkpt><trkpt lat="44.450505" lon="10.4508367"><ele>643.0</ele><time>2026-04-19T14:46:47.988Z</time></trkpt><trkpt lat="44.4506467" lon="10.45102"><ele>643.0</ele><time>2026-04-19T14:46:48.988Z</time></trkpt><trkpt lat="44.45079" lon="10.4512383"><ele>643.0</ele><time>2026-04-19T14:46:49.988Z</time></trkpt><trkpt lat="44.4509417" lon="10.4514633"><ele>643.0</ele><time>2026-04-19T14:46:50.988Z</time></trkpt><trkpt lat="44.45109" lon="10.4517217"><ele>645.0</ele><time>2026-04-19T14:46:51.988Z</time></trkpt><trkpt lat="44.4512367" lon="10.4520067"><ele>647.0</ele><time>2026-04-19T14:46:52.988Z</time></trkpt><trkpt lat="44.4513833" lon="10.452315"><ele>647.5</ele><time>2026-04-19T14:46:53.988Z</time></trkpt><trkpt lat="44.451535" lon="10.4526317"><ele>648.0</ele><time>2026-04-19T14:46:54.988Z</time></trkpt><trkpt lat="44.4516767" lon="10.4529533"><ele>644.5</ele><time>2026-04-19T14:46:55.988Z</time></trkpt><trkpt lat="44.4518183" lon="10.453255"><ele>641.0</ele><time>2026-04-19T14:46:56.988Z</time></trkpt><trkpt lat="44.4519533" lon="10.4535333"><ele>641.0</ele><time>2026-04-19T14:46:57.988Z</time></trkpt><trkpt lat="44.4520883" lon="10.4537917"><ele>641.0</ele><time>2026-04-19T14:46:58.988Z</time></trkpt><trkpt lat="44.4522017" lon="10.4540767"><ele>641.0</ele><time>2026-04-19T14:46:59.988Z</time></trkpt><trkpt lat="44.4523217" lon="10.4543517"><ele>641.0</ele><time>2026-04-19T14:47:00.988Z</time></trkpt><trkpt lat="44.452445" lon="10.4546067"><ele>642.3333333333333</ele><time>2026-04-19T14:47:01.988Z</time></trkpt><trkpt lat="44.4525733" lon="10.454845"><ele>643.6666666666666</ele><time>2026-04-19T14:47:02.988Z</time></trkpt><trkpt lat="44.45271" lon="10.4550617"><ele>645.0</ele><time>2026-04-19T14:47:03.988Z</time></trkpt><trkpt lat="44.4528383" lon="10.4552583"><ele>645.0</ele><time>2026-04-19T14:47:04.988Z</time></trkpt><trkpt lat="44.45297" lon="10.4554367"><ele>645.0</ele><time>2026-04-19T14:47:05.988Z</time></trkpt><trkpt lat="44.453105" lon="10.4556033"><ele>645.0</ele><time>2026-04-19T14:47:06.988Z</time></trkpt><trkpt lat="44.4532367" lon="10.4557633"><ele>645.6666666666666</ele><time>2026-04-19T14:47:07.988Z</time></trkpt><trkpt lat="44.45337" lon="10.4559167"><ele>646.3333333333333</ele><time>2026-04-19T14:47:08.988Z</time></trkpt><trkpt lat="44.453505" lon="10.4560633"><ele>647.0</ele><time>2026-04-19T14:47:09.988Z</time></trkpt><trkpt lat="44.4536367" lon="10.4562033"><ele>647.0</ele><time>2026-04-19T14:47:10.988Z</time></trkpt><trkpt lat="44.4537717" lon="10.456335"><ele>647.0</ele><time>2026-04-19T14:47:11.989Z</time></trkpt><trkpt lat="44.4539133" lon="10.456465"><ele>647.0</ele><time>2026-04-19T14:47:12.988Z</time></trkpt><trkpt lat="44.4540583" lon="10.4565917"><ele>647.0</ele><time>2026-04-19T14:47:13.988Z</time></trkpt><trkpt lat="44.4542067" lon="10.4567133"><ele>647.0</ele><time>2026-04-19T14:47:14.988Z</time></trkpt><trkpt lat="44.45435" lon="10.4568367"><ele>647.0</ele><time>2026-04-19T14:47:15.988Z</time></trkpt><trkpt lat="44.4544983" lon="10.4569567"><ele>647.6666666666666</ele><time>2026-04-19T14:47:16.988Z</time></trkpt><trkpt lat="44.4546433" lon="10.4570833"><ele>648.3333333333334</ele><time>2026-04-19T14:47:17.988Z</time></trkpt><trkpt lat="44.4547983" lon="10.457205"><ele>649.0</ele><time>2026-04-19T14:47:18.988Z</time></trkpt><trkpt lat="44.4549483" lon="10.457315"><ele>650.0</ele><time>2026-04-19T14:47:19.989Z</time></trkpt><trkpt lat="44.4551" lon="10.457435"><ele>651.0</ele><time>2026-04-19T14:47:20.988Z</time></trkpt><trkpt lat="44.455245" lon="10.4575467"><ele>652.0</ele><time>2026-04-19T14:47:21.988Z</time></trkpt><trkpt lat="44.4553883" lon="10.4576633"><ele>652.0</ele><time>2026-04-19T14:47:22.988Z</time></trkpt><trkpt lat="44.45554" lon="10.4577783"><ele>652.0</ele><time>2026-04-19T14:47:23.988Z</time></trkpt><trkpt lat="44.455695" lon="10.457895"><ele>652.0</ele><time>2026-04-19T14:47:24.988Z</time></trkpt><trkpt lat="44.4558533" lon="10.4580067"><ele>652.0</ele><time>2026-04-19T14:47:25.988Z</time></trkpt><trkpt lat="44.456025" lon="10.4581317"><ele>652.0</ele><time>2026-04-19T14:47:26.988Z</time></trkpt><trkpt lat="44.4561967" lon="10.458275"><ele>652.0</ele><time>2026-04-19T14:47:27.988Z</time></trkpt><trkpt lat="44.4563833" lon="10.458425"><ele>651.6666666666667</ele><time>2026-04-19T14:47:28.988Z</time></trkpt><trkpt lat="44.4565667" lon="10.4585683"><ele>651.3333333333334</ele><time>2026-04-19T14:47:29.988Z</time></trkpt><trkpt lat="44.4567517" lon="10.458705"><ele>651.0</ele><time>2026-04-19T14:47:30.988Z</time></trkpt><trkpt lat="44.4569367" lon="10.4588367"><ele>652.0</ele><time>2026-04-19T14:47:31.988Z</time></trkpt><trkpt lat="44.45712" lon="10.45895"><ele>653.0</ele><time>2026-04-19T14:47:32.988Z</time></trkpt><trkpt lat="44.4573083" lon="10.459055"><ele>654.0</ele><time>2026-04-19T14:47:33.988Z</time></trkpt><trkpt lat="44.4575017" lon="10.45915"><ele>654.0</ele><time>2026-04-19T14:47:34.988Z</time></trkpt><trkpt lat="44.457715" lon="10.4592383"><ele>654.0</ele><time>2026-04-19T14:47:35.988Z</time></trkpt><trkpt lat="44.4579433" lon="10.4593283"><ele>654.5</ele><time>2026-04-19T14:47:36.988Z</time></trkpt><trkpt lat="44.4581783" lon="10.4594133"><ele>655.0</ele><time>2026-04-19T14:47:37.988Z</time></trkpt><trkpt lat="44.458425" lon="10.4594933"><ele>655.0</ele><time>2026-04-19T14:47:38.988Z</time></trkpt><trkpt lat="44.45868" lon="10.4595817"><ele>655.0</ele><time>2026-04-19T14:47:39.988Z</time></trkpt><trkpt lat="44.4589167" lon="10.4596733"><ele>656.5</ele><time>2026-04-19T14:47:40.988Z</time></trkpt><trkpt lat="44.4591517" lon="10.45977"><ele>658.0</ele><time>2026-04-19T14:47:41.988Z</time></trkpt><trkpt lat="44.459375" lon="10.4598883"><ele>658.0</ele><time>2026-04-19T14:47:42.988Z</time></trkpt><trkpt lat="44.4595867" lon="10.4600333"><ele>658.0</ele><time>2026-04-19T14:47:43.988Z</time></trkpt><trkpt lat="44.4597767" lon="10.4602183"><ele>659.0</ele><time>2026-04-19T14:47:44.988Z</time></trkpt><trkpt lat="44.4599467" lon="10.4604517"><ele>660.0</ele><time>2026-04-19T14:47:45.988Z</time></trkpt><trkpt lat="44.4601" lon="10.4607167"><ele>660.0</ele><time>2026-04-19T14:47:46.988Z</time></trkpt><trkpt lat="44.4602433" lon="10.4610033"><ele>660.0</ele><time>2026-04-19T14:47:47.988Z</time></trkpt><trkpt lat="44.4603833" lon="10.4613167"><ele>663.0</ele><time>2026-04-19T14:47:48.988Z</time></trkpt><trkpt lat="44.4605283" lon="10.4616383"><ele>666.0</ele><time>2026-04-19T14:47:49.988Z</time></trkpt><trkpt lat="44.4606783" lon="10.4619567"><ele>666.0</ele><time>2026-04-19T14:47:50.988Z</time></trkpt><trkpt lat="44.4608117" lon="10.4622567"><ele>666.0</ele><time>2026-04-19T14:47:51.988Z</time></trkpt><trkpt lat="44.46093" lon="10.4625467"><ele>666.0</ele><time>2026-04-19T14:47:52.988Z</time></trkpt><trkpt lat="44.4610433" lon="10.4628367"><ele>666.0</ele><time>2026-04-19T14:47:53.988Z</time></trkpt><trkpt lat="44.46115" lon="10.463115"><ele>666.0</ele><time>2026-04-19T14:47:54.988Z</time></trkpt><trkpt lat="44.4612533" lon="10.463375"><ele>666.0</ele><time>2026-04-19T14:47:55.988Z</time></trkpt><trkpt lat="44.4613617" lon="10.46364"><ele>666.0</ele><time>2026-04-19T14:47:56.988Z</time></trkpt><trkpt lat="44.4614883" lon="10.4639117"><ele>666.0</ele><time>2026-04-19T14:47:57.988Z</time></trkpt><trkpt lat="44.461625" lon="10.464185"><ele>666.0</ele><time>2026-04-19T14:47:58.988Z</time></trkpt><trkpt lat="44.4617767" lon="10.4644583"><ele>665.5</ele><time>2026-04-19T14:47:59.988Z</time></trkpt><trkpt lat="44.4619433" lon="10.4647283"><ele>665.0</ele><time>2026-04-19T14:48:00.988Z</time></trkpt><trkpt lat="44.4621183" lon="10.464975"><ele>668.5</ele><time>2026-04-19T14:48:01.988Z</time></trkpt><trkpt lat="44.4622933" lon="10.4652"><ele>672.0</ele><time>2026-04-19T14:48:02.988Z</time></trkpt><trkpt lat="44.4624767" lon="10.4654133"><ele>669.5</ele><time>2026-04-19T14:48:03.988Z</time></trkpt><trkpt lat="44.462655" lon="10.46562"><ele>667.0</ele><time>2026-04-19T14:48:04.988Z</time></trkpt><trkpt lat="44.46283" lon="10.465835"><ele>669.3333333333334</ele><time>2026-04-19T14:48:05.988Z</time></trkpt><trkpt lat="44.4629883" lon="10.46606"><ele>671.6666666666666</ele><time>2026-04-19T14:48:06.988Z</time></trkpt><trkpt lat="44.4631283" lon="10.4662867"><ele>674.0</ele><time>2026-04-19T14:48:07.988Z</time></trkpt><trkpt lat="44.4632383" lon="10.4665167"><ele>674.0</ele><time>2026-04-19T14:48:08.988Z</time></trkpt><trkpt lat="44.4633283" lon="10.46675"><ele>674.0</ele><time>2026-04-19T14:48:09.988Z</time></trkpt><trkpt lat="44.4634017" lon="10.4669817"><ele>674.0</ele><time>2026-04-19T14:48:10.988Z</time></trkpt><trkpt lat="44.4634617" lon="10.4672217"><ele>673.3333333333333</ele><time>2026-04-19T14:48:11.989Z</time></trkpt><trkpt lat="44.4635067" lon="10.4674633"><ele>672.6666666666666</ele><time>2026-04-19T14:48:12.988Z</time></trkpt><trkpt lat="44.46354" lon="10.4677067"><ele>672.0</ele><time>2026-04-19T14:48:13.988Z</time></trkpt><trkpt lat="44.4635467" lon="10.46794"><ele>672.6666666666666</ele><time>2026-04-19T14:48:14.988Z</time></trkpt><trkpt lat="44.4635267" lon="10.46818"><ele>673.3333333333333</ele><time>2026-04-19T14:48:15.988Z</time></trkpt><trkpt lat="44.463475" lon="10.468415"><ele>674.0</ele><time>2026-04-19T14:48:16.988Z</time></trkpt><trkpt lat="44.4634083" lon="10.4686533"><ele>675.6666666666666</ele><time>2026-04-19T14:48:17.988Z</time></trkpt><trkpt lat="44.46332" lon="10.4688983"><ele>677.3333333333334</ele><time>2026-04-19T14:48:18.988Z</time></trkpt><trkpt lat="44.46323" lon="10.4691633"><ele>679.0</ele><time>2026-04-19T14:48:19.988Z</time></trkpt><trkpt lat="44.4630433" lon="10.4696667"><ele>676.3333333333334</ele><time>2026-04-19T14:48:21.988Z</time></trkpt><trkpt lat="44.4629433" lon="10.4699033"><ele>673.6666666666666</ele><time>2026-04-19T14:48:22.988Z</time></trkpt><trkpt lat="44.4628367" lon="10.4701417"><ele>671.0</ele><time>2026-04-19T14:48:23.988Z</time></trkpt><trkpt lat="44.4627317" lon="10.4703717"><ele>674.0</ele><time>2026-04-19T14:48:24.988Z</time></trkpt><trkpt lat="44.4626367" lon="10.4706"><ele>677.0</ele><time>2026-04-19T14:48:25.988Z</time></trkpt><trkpt lat="44.46254" lon="10.47081"><ele>680.0</ele><time>2026-04-19T14:48:26.988Z</time></trkpt><trkpt lat="44.462445" lon="10.471015"><ele>680.0</ele><time>2026-04-19T14:48:27.988Z</time></trkpt><trkpt lat="44.4623567" lon="10.4712083"><ele>680.0</ele><time>2026-04-19T14:48:28.988Z</time></trkpt><trkpt lat="44.4622683" lon="10.4714"><ele>680.0</ele><time>2026-04-19T14:48:29.988Z</time></trkpt><trkpt lat="44.4621817" lon="10.4715967"><ele>678.3333333333333</ele><time>2026-04-19T14:48:30.988Z</time></trkpt><trkpt lat="44.4621017" lon="10.47179"><ele>676.6666666666666</ele><time>2026-04-19T14:48:31.988Z</time></trkpt><trkpt lat="44.4620283" lon="10.4719933"><ele>675.0</ele><time>2026-04-19T14:48:32.988Z</time></trkpt><trkpt lat="44.461965" lon="10.4722"><ele>675.0</ele><time>2026-04-19T14:48:33.988Z</time></trkpt><trkpt lat="44.461915" lon="10.4724083"><ele>675.0</ele><time>2026-04-19T14:48:34.988Z</time></trkpt><trkpt lat="44.461885" lon="10.4726367"><ele>675.0</ele><time>2026-04-19T14:48:35.988Z</time></trkpt><trkpt lat="44.4618833" lon="10.4728717"><ele>674.6666666666666</ele><time>2026-04-19T14:48:36.988Z</time></trkpt><trkpt lat="44.461905" lon="10.473125"><ele>674.3333333333333</ele><time>2026-04-19T14:48:37.988Z</time></trkpt><trkpt lat="44.4619367" lon="10.4733867"><ele>674.0</ele><time>2026-04-19T14:48:38.988Z</time></trkpt><trkpt lat="44.4619733" lon="10.4736517"><ele>672.6666666666666</ele><time>2026-04-19T14:48:39.988Z</time></trkpt><trkpt lat="44.4620233" lon="10.4739117"><ele>671.3333333333334</ele><time>2026-04-19T14:48:40.988Z</time></trkpt><trkpt lat="44.462075" lon="10.47416"><ele>670.0</ele><time>2026-04-19T14:48:41.988Z</time></trkpt><trkpt lat="44.4621117" lon="10.4744067"><ele>674.6666666666667</ele><time>2026-04-19T14:48:42.988Z</time></trkpt><trkpt lat="44.462135" lon="10.4746467"><ele>679.3333333333334</ele><time>2026-04-19T14:48:43.988Z</time></trkpt><trkpt lat="44.4621433" lon="10.4749"><ele>684.0</ele><time>2026-04-19T14:48:44.988Z</time></trkpt><trkpt lat="44.462145" lon="10.4751767"><ele>685.3333333333334</ele><time>2026-04-19T14:48:45.988Z</time></trkpt><trkpt lat="44.4621283" lon="10.47546"><ele>686.6666666666667</ele><time>2026-04-19T14:48:46.988Z</time></trkpt><trkpt lat="44.4620833" lon="10.4757683"><ele>688.0</ele><time>2026-04-19T14:48:47.988Z</time></trkpt><trkpt lat="44.4620183" lon="10.47607"><ele>687.6666666666667</ele><time>2026-04-19T14:48:48.988Z</time></trkpt><trkpt lat="44.4619417" lon="10.47635"><ele>687.3333333333334</ele><time>2026-04-19T14:48:49.988Z</time></trkpt><trkpt lat="44.4618567" lon="10.47661"><ele>687.0</ele><time>2026-04-19T14:48:50.988Z</time></trkpt><trkpt lat="44.4617883" lon="10.4768683"><ele>686.3333333333334</ele><time>2026-04-19T14:48:51.988Z</time></trkpt><trkpt lat="44.4617417" lon="10.4771117"><ele>685.6666666666667</ele><time>2026-04-19T14:48:52.988Z</time></trkpt><trkpt lat="44.4617283" lon="10.47737"><ele>685.0</ele><time>2026-04-19T14:48:53.988Z</time></trkpt><trkpt lat="44.4617483" lon="10.4776267"><ele>685.0</ele><time>2026-04-19T14:48:54.989Z</time></trkpt><trkpt lat="44.4618033" lon="10.477885"><ele>685.0</ele><time>2026-04-19T14:48:55.988Z</time></trkpt><trkpt lat="44.4618533" lon="10.478135"><ele>685.0</ele><time>2026-04-19T14:48:56.988Z</time></trkpt><trkpt lat="44.4618933" lon="10.4783833"><ele>684.0</ele><time>2026-04-19T14:48:57.989Z</time></trkpt><trkpt lat="44.4618933" lon="10.478625"><ele>683.0</ele><time>2026-04-19T14:48:58.988Z</time></trkpt><trkpt lat="44.461865" lon="10.4788767"><ele>682.0</ele><time>2026-04-19T14:48:59.988Z</time></trkpt><trkpt lat="44.4618167" lon="10.479135"><ele>682.0</ele><time>2026-04-19T14:49:00.988Z</time></trkpt><trkpt lat="44.46177" lon="10.4793783"><ele>682.0</ele><time>2026-04-19T14:49:01.988Z</time></trkpt><trkpt lat="44.461725" lon="10.4796"><ele>682.0</ele><time>2026-04-19T14:49:02.988Z</time></trkpt><trkpt lat="44.4616917" lon="10.4798283"><ele>682.6666666666667</ele><time>2026-04-19T14:49:03.988Z</time></trkpt><trkpt lat="44.461665" lon="10.4800483"><ele>683.3333333333334</ele><time>2026-04-19T14:49:04.988Z</time></trkpt><trkpt lat="44.461655" lon="10.4802717"><ele>684.0</ele><time>2026-04-19T14:49:05.988Z</time></trkpt><trkpt lat="44.4616617" lon="10.480495"><ele>684.0</ele><time>2026-04-19T14:49:06.988Z</time></trkpt><trkpt lat="44.4616933" lon="10.48072"><ele>684.0</ele><time>2026-04-19T14:49:07.988Z</time></trkpt><trkpt lat="44.4617517" lon="10.48094"><ele>684.0</ele><time>2026-04-19T14:49:08.988Z</time></trkpt><trkpt lat="44.461835" lon="10.4811433"><ele>682.75</ele><time>2026-04-19T14:49:09.988Z</time></trkpt><trkpt lat="44.4619367" lon="10.481315"><ele>681.5</ele><time>2026-04-19T14:49:10.988Z</time></trkpt><trkpt lat="44.46204" lon="10.4814633"><ele>680.25</ele><time>2026-04-19T14:49:11.988Z</time></trkpt><trkpt lat="44.46214" lon="10.4815933"><ele>679.0</ele><time>2026-04-19T14:49:12.988Z</time></trkpt><trkpt lat="44.46224" lon="10.4817167"><ele>681.75</ele><time>2026-04-19T14:49:13.988Z</time></trkpt><trkpt lat="44.462335" lon="10.48183"><ele>684.5</ele><time>2026-04-19T14:49:14.988Z</time></trkpt><trkpt lat="44.462425" lon="10.4819367"><ele>687.25</ele><time>2026-04-19T14:49:15.988Z</time></trkpt><trkpt lat="44.4625117" lon="10.4820433"><ele>690.0</ele><time>2026-04-19T14:49:16.988Z</time></trkpt><trkpt lat="44.4626" lon="10.4821467"><ele>690.2</ele><time>2026-04-19T14:49:17.988Z</time></trkpt><trkpt lat="44.462695" lon="10.4822433"><ele>690.4</ele><time>2026-04-19T14:49:18.988Z</time></trkpt><trkpt lat="44.4627883" lon="10.4823317"><ele>690.5999999999999</ele><time>2026-04-19T14:49:19.988Z</time></trkpt><trkpt lat="44.4628833" lon="10.482415"><ele>690.8</ele><time>2026-04-19T14:49:20.988Z</time></trkpt><trkpt lat="44.462975" lon="10.48249"><ele>691.0</ele><time>2026-04-19T14:49:21.988Z</time></trkpt><trkpt lat="44.46307" lon="10.4825667"><ele>690.5</ele><time>2026-04-19T14:49:22.988Z</time></trkpt><trkpt lat="44.463165" lon="10.4826467"><ele>690.0</ele><time>2026-04-19T14:49:23.988Z</time></trkpt><trkpt lat="44.4632583" lon="10.4827383"><ele>689.5</ele><time>2026-04-19T14:49:24.988Z</time></trkpt><trkpt lat="44.4633483" lon="10.4828467"><ele>689.0</ele><time>2026-04-19T14:49:25.988Z</time></trkpt><trkpt lat="44.46342" lon="10.482975"><ele>689.0</ele><time>2026-04-19T14:49:26.988Z</time></trkpt><trkpt lat="44.463465" lon="10.4831317"><ele>689.0</ele><time>2026-04-19T14:49:27.988Z</time></trkpt><trkpt lat="44.4634933" lon="10.4833017"><ele>689.0</ele><time>2026-04-19T14:49:28.989Z</time></trkpt><trkpt lat="44.4635117" lon="10.4834717"><ele>689.0</ele><time>2026-04-19T14:49:29.988Z</time></trkpt><trkpt lat="44.463505" lon="10.4836433"><ele>689.5</ele><time>2026-04-19T14:49:30.988Z</time></trkpt><trkpt lat="44.4634867" lon="10.4838283"><ele>690.0</ele><time>2026-04-19T14:49:31.988Z</time></trkpt><trkpt lat="44.4634733" lon="10.4840233"><ele>690.5</ele><time>2026-04-19T14:49:32.988Z</time></trkpt><trkpt lat="44.4634767" lon="10.4842267"><ele>691.0</ele><time>2026-04-19T14:49:33.988Z</time></trkpt><trkpt lat="44.4635033" lon="10.4844417"><ele>688.6666666666667</ele><time>2026-04-19T14:49:34.988Z</time></trkpt><trkpt lat="44.46354" lon="10.4846517"><ele>686.3333333333334</ele><time>2026-04-19T14:49:35.988Z</time></trkpt><trkpt lat="44.463585" lon="10.48486"><ele>684.0</ele><time>2026-04-19T14:49:36.988Z</time></trkpt><trkpt lat="44.4636367" lon="10.4850667"><ele>684.0</ele><time>2026-04-19T14:49:37.988Z</time></trkpt><trkpt lat="44.4636833" lon="10.48527"><ele>684.0</ele><time>2026-04-19T14:49:38.988Z</time></trkpt><trkpt lat="44.4637283" lon="10.4854633"><ele>684.0</ele><time>2026-04-19T14:49:39.988Z</time></trkpt><trkpt lat="44.4637617" lon="10.48565"><ele>684.0</ele><time>2026-04-19T14:49:40.988Z</time></trkpt><trkpt lat="44.4638033" lon="10.485825"><ele>685.5</ele><time>2026-04-19T14:49:41.988Z</time></trkpt><trkpt lat="44.4638483" lon="10.4859917"><ele>687.0</ele><time>2026-04-19T14:49:42.988Z</time></trkpt><trkpt lat="44.4639033" lon="10.4861533"><ele>688.5</ele><time>2026-04-19T14:49:43.988Z</time></trkpt><trkpt lat="44.4639767" lon="10.4863067"><ele>690.0</ele><time>2026-04-19T14:49:44.988Z</time></trkpt><trkpt lat="44.4640717" lon="10.4864467"><ele>690.0</ele><time>2026-04-19T14:49:45.988Z</time></trkpt><trkpt lat="44.464185" lon="10.4865667"><ele>690.0</ele><time>2026-04-19T14:49:46.988Z</time></trkpt><trkpt lat="44.4643117" lon="10.486655"><ele>690.0</ele><time>2026-04-19T14:49:47.988Z</time></trkpt><trkpt lat="44.4644367" lon="10.4867167"><ele>690.0</ele><time>2026-04-19T14:49:48.988Z</time></trkpt><trkpt lat="44.46456" lon="10.4867717"><ele>692.0</ele><time>2026-04-19T14:49:49.988Z</time></trkpt><trkpt lat="44.46468" lon="10.4868333"><ele>694.0</ele><time>2026-04-19T14:49:50.988Z</time></trkpt><trkpt lat="44.4648133" lon="10.4868967"><ele>696.0</ele><time>2026-04-19T14:49:51.988Z</time></trkpt><trkpt lat="44.4649417" lon="10.486955"><ele>698.0</ele><time>2026-04-19T14:49:52.988Z</time></trkpt><trkpt lat="44.4650733" lon="10.4870017"><ele>698.0</ele><time>2026-04-19T14:49:53.988Z</time></trkpt><trkpt lat="44.4652133" lon="10.487045"><ele>698.0</ele><time>2026-04-19T14:49:54.988Z</time></trkpt><trkpt lat="44.4653667" lon="10.4870667"><ele>698.0</ele><time>2026-04-19T14:49:55.988Z</time></trkpt><trkpt lat="44.46553" lon="10.4870717"><ele>699.3333333333333</ele><time>2026-04-19T14:49:56.988Z</time></trkpt><trkpt lat="44.46571" lon="10.4870783"><ele>700.6666666666666</ele><time>2026-04-19T14:49:57.988Z</time></trkpt><trkpt lat="44.4658833" lon="10.4870917"><ele>702.0</ele><time>2026-04-19T14:49:58.988Z</time></trkpt><trkpt lat="44.46605" lon="10.4871033"><ele>699.0</ele><time>2026-04-19T14:49:59.988Z</time></trkpt><trkpt lat="44.4662117" lon="10.4871233"><ele>696.0</ele><time>2026-04-19T14:50:00.988Z</time></trkpt><trkpt lat="44.4663667" lon="10.487135"><ele>693.0</ele><time>2026-04-19T14:50:01.988Z</time></trkpt><trkpt lat="44.4665117" lon="10.4871433"><ele>693.0</ele><time>2026-04-19T14:50:02.989Z</time></trkpt><trkpt lat="44.466655" lon="10.4871517"><ele>693.0</ele><time>2026-04-19T14:50:03.988Z</time></trkpt><trkpt lat="44.4667933" lon="10.487165"><ele>693.0</ele><time>2026-04-19T14:50:04.988Z</time></trkpt><trkpt lat="44.4669217" lon="10.48717"><ele>693.0</ele><time>2026-04-19T14:50:05.988Z</time></trkpt><trkpt lat="44.4670483" lon="10.4871833"><ele>693.5</ele><time>2026-04-19T14:50:06.988Z</time></trkpt><trkpt lat="44.467175" lon="10.4871883"><ele>694.0</ele><time>2026-04-19T14:50:07.988Z</time></trkpt><trkpt lat="44.4673067" lon="10.4872083"><ele>694.5</ele><time>2026-04-19T14:50:08.988Z</time></trkpt><trkpt lat="44.4674467" lon="10.4872367"><ele>695.0</ele><time>2026-04-19T14:50:09.988Z</time></trkpt><trkpt lat="44.467575" lon="10.4873033"><ele>695.0</ele><time>2026-04-19T14:50:10.988Z</time></trkpt><trkpt lat="44.4676933" lon="10.4874"><ele>695.0</ele><time>2026-04-19T14:50:11.988Z</time></trkpt><trkpt lat="44.4677967" lon="10.48752"><ele>695.0</ele><time>2026-04-19T14:50:12.988Z</time></trkpt><trkpt lat="44.4679" lon="10.4876517"><ele>695.0</ele><time>2026-04-19T14:50:13.988Z</time></trkpt><trkpt lat="44.4679883" lon="10.4877967"><ele>696.0</ele><time>2026-04-19T14:50:14.988Z</time></trkpt><trkpt lat="44.4680667" lon="10.4879617"><ele>697.0</ele><time>2026-04-19T14:50:15.988Z</time></trkpt><trkpt lat="44.4681283" lon="10.4881383"><ele>698.0</ele><time>2026-04-19T14:50:16.988Z</time></trkpt><trkpt lat="44.4681933" lon="10.4883"><ele>699.0</ele><time>2026-04-19T14:50:17.988Z</time></trkpt><trkpt lat="44.4683733" lon="10.4885867"><ele>699.0</ele><time>2026-04-19T14:50:19.988Z</time></trkpt><trkpt lat="44.468495" lon="10.4886933"><ele>699.0</ele><time>2026-04-19T14:50:20.988Z</time></trkpt><trkpt lat="44.4686417" lon="10.4888017"><ele>699.0</ele><time>2026-04-19T14:50:21.989Z</time></trkpt><trkpt lat="44.468815" lon="10.4888967"><ele>698.6666666666666</ele><time>2026-04-19T14:50:22.988Z</time></trkpt><trkpt lat="44.469" lon="10.488985"><ele>698.3333333333333</ele><time>2026-04-19T14:50:23.988Z</time></trkpt><trkpt lat="44.4691667" lon="10.4890617"><ele>698.0</ele><time>2026-04-19T14:50:24.988Z</time></trkpt><trkpt lat="44.4693233" lon="10.4891383"><ele>698.0</ele><time>2026-04-19T14:50:25.988Z</time></trkpt><trkpt lat="44.4694733" lon="10.4892"><ele>698.0</ele><time>2026-04-19T14:50:26.988Z</time></trkpt><trkpt lat="44.4696067" lon="10.4892767"><ele>698.0</ele><time>2026-04-19T14:50:27.988Z</time></trkpt><trkpt lat="44.4697417" lon="10.4893467"><ele>698.0</ele><time>2026-04-19T14:50:28.988Z</time></trkpt><trkpt lat="44.46988" lon="10.489415"><ele>698.25</ele><time>2026-04-19T14:50:29.988Z</time></trkpt><trkpt lat="44.47002" lon="10.4894867"><ele>698.5</ele><time>2026-04-19T14:50:30.988Z</time></trkpt><trkpt lat="44.47016" lon="10.4895617"><ele>698.75</ele><time>2026-04-19T14:50:31.988Z</time></trkpt><trkpt lat="44.4702983" lon="10.489635"><ele>699.0</ele><time>2026-04-19T14:50:32.988Z</time></trkpt><trkpt lat="44.4704417" lon="10.489715"><ele>697.5</ele><time>2026-04-19T14:50:33.989Z</time></trkpt><trkpt lat="44.4705783" lon="10.4897817"><ele>696.0</ele><time>2026-04-19T14:50:34.988Z</time></trkpt><trkpt lat="44.4707067" lon="10.4898467"><ele>694.5</ele><time>2026-04-19T14:50:35.988Z</time></trkpt><trkpt lat="44.4708317" lon="10.4899133"><ele>693.0</ele><time>2026-04-19T14:50:36.988Z</time></trkpt><trkpt lat="44.4709433" lon="10.4899717"><ele>693.0</ele><time>2026-04-19T14:50:37.988Z</time></trkpt><trkpt lat="44.47106" lon="10.4900367"><ele>693.0</ele><time>2026-04-19T14:50:38.988Z</time></trkpt><trkpt lat="44.4711833" lon="10.4901"><ele>693.0</ele><time>2026-04-19T14:50:39.988Z</time></trkpt><trkpt lat="44.4713033" lon="10.4901583"><ele>693.0</ele><time>2026-04-19T14:50:40.988Z</time></trkpt><trkpt lat="44.47141" lon="10.4902117"><ele>693.25</ele><time>2026-04-19T14:50:41.988Z</time></trkpt><trkpt lat="44.4715217" lon="10.49028"><ele>693.5</ele><time>2026-04-19T14:50:42.988Z</time></trkpt><trkpt lat="44.47164" lon="10.4903467"><ele>693.75</ele><time>2026-04-19T14:50:43.988Z</time></trkpt><trkpt lat="44.47175" lon="10.4904033"><ele>694.0</ele><time>2026-04-19T14:50:44.988Z</time></trkpt><trkpt lat="44.4718533" lon="10.49046"><ele>692.8000000000001</ele><time>2026-04-19T14:50:45.988Z</time></trkpt><trkpt lat="44.471935" lon="10.490545"><ele>691.6</ele><time>2026-04-19T14:50:46.988Z</time></trkpt><trkpt lat="44.47199" lon="10.49067"><ele>690.4</ele><time>2026-04-19T14:50:47.988Z</time></trkpt><trkpt lat="44.4720083" lon="10.490835"><ele>689.2</ele><time>2026-04-19T14:50:48.988Z</time></trkpt><trkpt lat="44.4720233" lon="10.4910067"><ele>688.0</ele><time>2026-04-19T14:50:49.988Z</time></trkpt><trkpt lat="44.4720533" lon="10.4911583"><ele>689.0</ele><time>2026-04-19T14:50:50.988Z</time></trkpt><trkpt lat="44.4720867" lon="10.4912917"><ele>690.0</ele><time>2026-04-19T14:50:51.988Z</time></trkpt><trkpt lat="44.472135" lon="10.4914133"><ele>691.0</ele><time>2026-04-19T14:50:52.988Z</time></trkpt><trkpt lat="44.47219" lon="10.4915183"><ele>692.0</ele><time>2026-04-19T14:50:53.988Z</time></trkpt><trkpt lat="44.4722367" lon="10.491615"><ele>693.0</ele><time>2026-04-19T14:50:54.988Z</time></trkpt><trkpt lat="44.4722533" lon="10.49178"><ele>693.0</ele><time>2026-04-19T14:50:56.988Z</time></trkpt><trkpt lat="44.47223" lon="10.4918633"><ele>693.0</ele><time>2026-04-19T14:50:57.988Z</time></trkpt><trkpt lat="44.47214" lon="10.49196"><ele>693.0</ele><time>2026-04-19T14:50:59.988Z</time></trkpt><trkpt lat="44.472065" lon="10.4919583"><ele>693.0</ele><time>2026-04-19T14:51:00.988Z</time></trkpt><trkpt lat="44.4719767" lon="10.4919133"><ele>693.0</ele><time>2026-04-19T14:51:01.988Z</time></trkpt><trkpt lat="44.471885" lon="10.491825"><ele>689.25</ele><time>2026-04-19T14:51:02.988Z</time></trkpt><trkpt lat="44.471795" lon="10.4917017"><ele>685.5</ele><time>2026-04-19T14:51:03.988Z</time></trkpt><trkpt lat="44.4716917" lon="10.4915717"><ele>681.75</ele><time>2026-04-19T14:51:04.988Z</time></trkpt><trkpt lat="44.47158" lon="10.491465"><ele>678.0</ele><time>2026-04-19T14:51:05.988Z</time></trkpt><trkpt lat="44.4714567" lon="10.49141"><ele>678.0</ele><time>2026-04-19T14:51:06.988Z</time></trkpt><trkpt lat="44.4713367" lon="10.4914133"><ele>678.0</ele><time>2026-04-19T14:51:07.988Z</time></trkpt><trkpt lat="44.471245" lon="10.4914833"><ele>678.0</ele><time>2026-04-19T14:51:08.988Z</time></trkpt><trkpt lat="44.4711633" lon="10.49159"><ele>678.0</ele><time>2026-04-19T14:51:09.988Z</time></trkpt><trkpt lat="44.4710817" lon="10.4917367"><ele>677.0</ele><time>2026-04-19T14:51:10.988Z</time></trkpt><trkpt lat="44.4709817" lon="10.49187"><ele>676.0</ele><time>2026-04-19T14:51:11.988Z</time></trkpt><trkpt lat="44.470845" lon="10.491995"><ele>675.0</ele><time>2026-04-19T14:51:12.988Z</time></trkpt><trkpt lat="44.470705" lon="10.4921067"><ele>670.5</ele><time>2026-04-19T14:51:13.988Z</time></trkpt><trkpt lat="44.4705733" lon="10.4922033"><ele>666.0</ele><time>2026-04-19T14:51:14.988Z</time></trkpt><trkpt lat="44.47044" lon="10.492265"><ele>661.5</ele><time>2026-04-19T14:51:15.988Z</time></trkpt><trkpt lat="44.470305" lon="10.4923033"><ele>657.0</ele><time>2026-04-19T14:51:16.988Z</time></trkpt><trkpt lat="44.4701667" lon="10.4923033"><ele>659.3333333333334</ele><time>2026-04-19T14:51:17.988Z</time></trkpt><trkpt lat="44.4700183" lon="10.4922583"><ele>661.6666666666667</ele><time>2026-04-19T14:51:18.988Z</time></trkpt><trkpt lat="44.469875" lon="10.4921867"><ele>664.0</ele><time>2026-04-19T14:51:19.988Z</time></trkpt><trkpt lat="44.4697417" lon="10.4920883"><ele>664.0</ele><time>2026-04-19T14:51:20.988Z</time></trkpt><trkpt lat="44.4696433" lon="10.4919417"><ele>664.0</ele><time>2026-04-19T14:51:21.989Z</time></trkpt><trkpt lat="44.46957" lon="10.4917783"><ele>664.0</ele><time>2026-04-19T14:51:22.988Z</time></trkpt><trkpt lat="44.469505" lon="10.4916067"><ele>664.0</ele><time>2026-04-19T14:51:23.988Z</time></trkpt><trkpt lat="44.4694417" lon="10.49146"><ele>663.8333333333334</ele><time>2026-04-19T14:51:24.988Z</time></trkpt><trkpt lat="44.46938" lon="10.4913383"><ele>663.6666666666667</ele><time>2026-04-19T14:51:25.988Z</time></trkpt><trkpt lat="44.4693133" lon="10.4912567"><ele>663.5</ele><time>2026-04-19T14:51:26.988Z</time></trkpt><trkpt lat="44.46924" lon="10.49124"><ele>663.3333333333334</ele><time>2026-04-19T14:51:27.988Z</time></trkpt><trkpt lat="44.469185" lon="10.4913033"><ele>663.1666666666666</ele><time>2026-04-19T14:51:28.988Z</time></trkpt><trkpt lat="44.4691583" lon="10.491415"><ele>663.0</ele><time>2026-04-19T14:51:29.988Z</time></trkpt><trkpt lat="44.4691717" lon="10.49155"><ele>659.0</ele><time>2026-04-19T14:51:30.988Z</time></trkpt><trkpt lat="44.4692133" lon="10.4917083"><ele>655.0</ele><time>2026-04-19T14:51:31.988Z</time></trkpt><trkpt lat="44.4692883" lon="10.4918817"><ele>651.0</ele><time>2026-04-19T14:51:32.988Z</time></trkpt><trkpt lat="44.4693767" lon="10.4920583"><ele>647.0</ele><time>2026-04-19T14:51:33.988Z</time></trkpt><trkpt lat="44.4694817" lon="10.4922483"><ele>647.6666666666666</ele><time>2026-04-19T14:51:34.988Z</time></trkpt><trkpt lat="44.469595" lon="10.4924183"><ele>648.3333333333334</ele><time>2026-04-19T14:51:35.988Z</time></trkpt><trkpt lat="44.4697217" lon="10.4925517"><ele>649.0</ele><time>2026-04-19T14:51:36.988Z</time></trkpt><trkpt lat="44.469835" lon="10.4926883"><ele>649.0</ele><time>2026-04-19T14:51:37.988Z</time></trkpt><trkpt lat="44.4699183" lon="10.492815"><ele>649.0</ele><time>2026-04-19T14:51:38.988Z</time></trkpt><trkpt lat="44.469975" lon="10.4929217"><ele>649.0</ele><time>2026-04-19T14:51:39.988Z</time></trkpt><trkpt lat="44.4699983" lon="10.4930483"><ele>649.0</ele><time>2026-04-19T14:51:40.988Z</time></trkpt><trkpt lat="44.4699817" lon="10.4931783"><ele>649.0</ele><time>2026-04-19T14:51:41.988Z</time></trkpt><trkpt lat="44.4699117" lon="10.4933083"><ele>642.0</ele><time>2026-04-19T14:51:42.988Z</time></trkpt><trkpt lat="44.469795" lon="10.493435"><ele>635.0</ele><time>2026-04-19T14:51:43.989Z</time></trkpt><trkpt lat="44.4696533" lon="10.4935883"><ele>628.0</ele><time>2026-04-19T14:51:44.988Z</time></trkpt><trkpt lat="44.469515" lon="10.4937583"><ele>622.0</ele><time>2026-04-19T14:51:45.988Z</time></trkpt><trkpt lat="44.4693767" lon="10.4939233"><ele>616.0</ele><time>2026-04-19T14:51:46.988Z</time></trkpt><trkpt lat="44.4692533" lon="10.4940767"><ele>610.0</ele><time>2026-04-19T14:51:47.988Z</time></trkpt><trkpt lat="44.4691383" lon="10.4942417"><ele>610.0</ele><time>2026-04-19T14:51:48.988Z</time></trkpt><trkpt lat="44.4690317" lon="10.4944317"><ele>610.0</ele><time>2026-04-19T14:51:49.988Z</time></trkpt><trkpt lat="44.4689367" lon="10.49465"><ele>610.0</ele><time>2026-04-19T14:51:50.988Z</time></trkpt><trkpt lat="44.4688467" lon="10.4948883"><ele>604.3333333333334</ele><time>2026-04-19T14:51:51.988Z</time></trkpt><trkpt lat="44.468775" lon="10.4951183"><ele>598.6666666666666</ele><time>2026-04-19T14:51:52.988Z</time></trkpt><trkpt lat="44.4687133" lon="10.4953533"><ele>593.0</ele><time>2026-04-19T14:51:53.988Z</time></trkpt><trkpt lat="44.4686667" lon="10.4955983"><ele>592.6666666666666</ele><time>2026-04-19T14:51:54.988Z</time></trkpt><trkpt lat="44.4686433" lon="10.4958617"><ele>592.3333333333334</ele><time>2026-04-19T14:51:55.988Z</time></trkpt><trkpt lat="44.4686117" lon="10.4961383"><ele>592.0</ele><time>2026-04-19T14:51:56.988Z</time></trkpt><trkpt lat="44.4685467" lon="10.4964183"><ele>591.0</ele><time>2026-04-19T14:51:57.988Z</time></trkpt><trkpt lat="44.4684633" lon="10.4966783"><ele>590.0</ele><time>2026-04-19T14:51:58.988Z</time></trkpt><trkpt lat="44.4683517" lon="10.4969417"><ele>589.0</ele><time>2026-04-19T14:51:59.988Z</time></trkpt><trkpt lat="44.4682317" lon="10.497195"><ele>587.0</ele><time>2026-04-19T14:52:00.988Z</time></trkpt><trkpt lat="44.468115" lon="10.4974333"><ele>585.0</ele><time>2026-04-19T14:52:01.988Z</time></trkpt><trkpt lat="44.46801" lon="10.49766"><ele>583.0</ele><time>2026-04-19T14:52:02.988Z</time></trkpt><trkpt lat="44.467915" lon="10.49788"><ele>579.6666666666667</ele><time>2026-04-19T14:52:03.988Z</time></trkpt><trkpt lat="44.4678217" lon="10.49808"><ele>576.3333333333334</ele><time>2026-04-19T14:52:04.988Z</time></trkpt><trkpt lat="44.467735" lon="10.4982833"><ele>573.0</ele><time>2026-04-19T14:52:05.988Z</time></trkpt><trkpt lat="44.4676467" lon="10.4984867"><ele>573.0</ele><time>2026-04-19T14:52:06.988Z</time></trkpt><trkpt lat="44.46756" lon="10.4987"><ele>573.0</ele><time>2026-04-19T14:52:07.988Z</time></trkpt><trkpt lat="44.4674867" lon="10.49892"><ele>573.0</ele><time>2026-04-19T14:52:08.988Z</time></trkpt><trkpt lat="44.4674317" lon="10.4991667"><ele>574.0</ele><time>2026-04-19T14:52:09.988Z</time></trkpt><trkpt lat="44.4673933" lon="10.4994083"><ele>575.0</ele><time>2026-04-19T14:52:10.988Z</time></trkpt><trkpt lat="44.46736" lon="10.4996583"><ele>576.0</ele><time>2026-04-19T14:52:11.988Z</time></trkpt><trkpt lat="44.4673233" lon="10.4999033"><ele>576.0</ele><time>2026-04-19T14:52:12.988Z</time></trkpt><trkpt lat="44.4672817" lon="10.5001517"><ele>576.0</ele><time>2026-04-19T14:52:13.988Z</time></trkpt><trkpt lat="44.4672567" lon="10.5004017"><ele>576.0</ele><time>2026-04-19T14:52:14.988Z</time></trkpt><trkpt lat="44.467235" lon="10.5006767"><ele>575.3333333333334</ele><time>2026-04-19T14:52:15.988Z</time></trkpt><trkpt lat="44.4672167" lon="10.5009617"><ele>574.6666666666667</ele><time>2026-04-19T14:52:16.988Z</time></trkpt><trkpt lat="44.4671917" lon="10.5012433"><ele>574.0</ele><time>2026-04-19T14:52:17.988Z</time></trkpt><trkpt lat="44.4671533" lon="10.501505"><ele>574.6666666666667</ele><time>2026-04-19T14:52:18.988Z</time></trkpt><trkpt lat="44.467105" lon="10.5017433"><ele>575.3333333333334</ele><time>2026-04-19T14:52:19.988Z</time></trkpt><trkpt lat="44.4670733" lon="10.5019933"><ele>576.0</ele><time>2026-04-19T14:52:20.989Z</time></trkpt><trkpt lat="44.467045" lon="10.502265"><ele>576.0</ele><time>2026-04-19T14:52:21.988Z</time></trkpt><trkpt lat="44.4670283" lon="10.5025367"><ele>576.0</ele><time>2026-04-19T14:52:22.988Z</time></trkpt><trkpt lat="44.4670133" lon="10.5027967"><ele>576.0</ele><time>2026-04-19T14:52:23.988Z</time></trkpt><trkpt lat="44.466995" lon="10.50305"><ele>575.0</ele><time>2026-04-19T14:52:24.988Z</time></trkpt><trkpt lat="44.46698" lon="10.5032967"><ele>574.0</ele><time>2026-04-19T14:52:25.988Z</time></trkpt><trkpt lat="44.466965" lon="10.503545"><ele>573.0</ele><time>2026-04-19T14:52:26.988Z</time></trkpt><trkpt lat="44.466975" lon="10.5037967"><ele>571.0</ele><time>2026-04-19T14:52:27.988Z</time></trkpt><trkpt lat="44.46701" lon="10.5040467"><ele>569.0</ele><time>2026-04-19T14:52:28.988Z</time></trkpt><trkpt lat="44.4670683" lon="10.504285"><ele>567.0</ele><time>2026-04-19T14:52:29.988Z</time></trkpt><trkpt lat="44.4671417" lon="10.5045267"><ele>557.5</ele><time>2026-04-19T14:52:30.988Z</time></trkpt><trkpt lat="44.4672117" lon="10.504765"><ele>548.0</ele><time>2026-04-19T14:52:31.988Z</time></trkpt><trkpt lat="44.467325" lon="10.505245"><ele>548.3333333333333</ele><time>2026-04-19T14:52:33.989Z</time></trkpt><trkpt lat="44.4673633" lon="10.5054867"><ele>548.6666666666666</ele><time>2026-04-19T14:52:34.988Z</time></trkpt><trkpt lat="44.4673833" lon="10.5057167"><ele>549.0</ele><time>2026-04-19T14:52:35.988Z</time></trkpt><trkpt lat="44.4674083" lon="10.50596"><ele>549.0</ele><time>2026-04-19T14:52:36.988Z</time></trkpt><trkpt lat="44.4674633" lon="10.50619"><ele>549.0</ele><time>2026-04-19T14:52:37.988Z</time></trkpt><trkpt lat="44.4675183" lon="10.50642"><ele>549.0</ele><time>2026-04-19T14:52:38.988Z</time></trkpt><trkpt lat="44.4675883" lon="10.50664"><ele>548.3333333333334</ele><time>2026-04-19T14:52:39.988Z</time></trkpt><trkpt lat="44.46765" lon="10.5068533"><ele>547.6666666666667</ele><time>2026-04-19T14:52:40.988Z</time></trkpt><trkpt lat="44.46768" lon="10.507085"><ele>547.0</ele><time>2026-04-19T14:52:41.988Z</time></trkpt><trkpt lat="44.4676917" lon="10.5073383"><ele>543.3333333333334</ele><time>2026-04-19T14:52:42.988Z</time></trkpt><trkpt lat="44.467685" lon="10.5076"><ele>539.6666666666666</ele><time>2026-04-19T14:52:43.988Z</time></trkpt><trkpt lat="44.467685" lon="10.5078767"><ele>536.0</ele><time>2026-04-19T14:52:44.988Z</time></trkpt><trkpt lat="44.4676883" lon="10.508155"><ele>532.6666666666666</ele><time>2026-04-19T14:52:45.988Z</time></trkpt><trkpt lat="44.467685" lon="10.5084283"><ele>529.3333333333334</ele><time>2026-04-19T14:52:46.988Z</time></trkpt><trkpt lat="44.467685" lon="10.5087"><ele>526.0</ele><time>2026-04-19T14:52:47.989Z</time></trkpt><trkpt lat="44.4676933" lon="10.5089733"><ele>525.3333333333334</ele><time>2026-04-19T14:52:48.988Z</time></trkpt><trkpt lat="44.4677033" lon="10.5092383"><ele>524.6666666666666</ele><time>2026-04-19T14:52:49.988Z</time></trkpt><trkpt lat="44.4677233" lon="10.50951"><ele>524.0</ele><time>2026-04-19T14:52:50.988Z</time></trkpt><trkpt lat="44.4677483" lon="10.5097783"><ele>522.6666666666666</ele><time>2026-04-19T14:52:51.988Z</time></trkpt><trkpt lat="44.4677633" lon="10.5100517"><ele>521.3333333333334</ele><time>2026-04-19T14:52:52.988Z</time></trkpt><trkpt lat="44.4677717" lon="10.5103383"><ele>520.0</ele><time>2026-04-19T14:52:53.988Z</time></trkpt><trkpt lat="44.4677683" lon="10.5106217"><ele>519.0</ele><time>2026-04-19T14:52:54.988Z</time></trkpt><trkpt lat="44.4677533" lon="10.5109083"><ele>518.0</ele><time>2026-04-19T14:52:55.988Z</time></trkpt><trkpt lat="44.4677483" lon="10.5111883"><ele>517.0</ele><time>2026-04-19T14:52:56.988Z</time></trkpt><trkpt lat="44.4677433" lon="10.5114617"><ele>515.3333333333334</ele><time>2026-04-19T14:52:57.988Z</time></trkpt><trkpt lat="44.4677517" lon="10.5117283"><ele>513.6666666666666</ele><time>2026-04-19T14:52:58.988Z</time></trkpt><trkpt lat="44.467755" lon="10.5119883"><ele>512.0</ele><time>2026-04-19T14:52:59.988Z</time></trkpt><trkpt lat="44.4677483" lon="10.51225"><ele>509.66666666666663</ele><time>2026-04-19T14:53:00.988Z</time></trkpt><trkpt lat="44.4677267" lon="10.5124933"><ele>507.33333333333337</ele><time>2026-04-19T14:53:01.988Z</time></trkpt><trkpt lat="44.4677017" lon="10.5127467"><ele>505.0</ele><time>2026-04-19T14:53:02.988Z</time></trkpt><trkpt lat="44.4676383" lon="10.512975"><ele>501.0</ele><time>2026-04-19T14:53:03.988Z</time></trkpt><trkpt lat="44.4675433" lon="10.51319"><ele>497.0</ele><time>2026-04-19T14:53:04.988Z</time></trkpt><trkpt lat="44.4674317" lon="10.5134"><ele>493.0</ele><time>2026-04-19T14:53:05.988Z</time></trkpt><trkpt lat="44.4673333" lon="10.5136"><ele>490.0</ele><time>2026-04-19T14:53:06.988Z</time></trkpt><trkpt lat="44.4672533" lon="10.5138"><ele>487.0</ele><time>2026-04-19T14:53:07.988Z</time></trkpt><trkpt lat="44.4671683" lon="10.5139933"><ele>484.0</ele><time>2026-04-19T14:53:08.988Z</time></trkpt><trkpt lat="44.467085" lon="10.514175"><ele>484.0</ele><time>2026-04-19T14:53:09.988Z</time></trkpt><trkpt lat="44.4669717" lon="10.5143167"><ele>484.0</ele><time>2026-04-19T14:53:10.988Z</time></trkpt><trkpt lat="44.46686" lon="10.5144217"><ele>484.0</ele><time>2026-04-19T14:53:11.988Z</time></trkpt><trkpt lat="44.4667483" lon="10.51451"><ele>484.0</ele><time>2026-04-19T14:53:12.988Z</time></trkpt><trkpt lat="44.4666667" lon="10.514605"><ele>482.2</ele><time>2026-04-19T14:53:13.988Z</time></trkpt><trkpt lat="44.4666" lon="10.5146967"><ele>480.4</ele><time>2026-04-19T14:53:14.988Z</time></trkpt><trkpt lat="44.46657" lon="10.514815"><ele>478.6</ele><time>2026-04-19T14:53:15.988Z</time></trkpt><trkpt lat="44.4665817" lon="10.51494"><ele>476.8</ele><time>2026-04-19T14:53:16.988Z</time></trkpt><trkpt lat="44.4666167" lon="10.5150883"><ele>475.0</ele><time>2026-04-19T14:53:17.988Z</time></trkpt><trkpt lat="44.46666" lon="10.5152617"><ele>474.5</ele><time>2026-04-19T14:53:18.988Z</time></trkpt><trkpt lat="44.4667" lon="10.5154433"><ele>474.0</ele><time>2026-04-19T14:53:19.988Z</time></trkpt><trkpt lat="44.466735" lon="10.515625"><ele>473.5</ele><time>2026-04-19T14:53:20.988Z</time></trkpt><trkpt lat="44.4667683" lon="10.5157967"><ele>473.0</ele><time>2026-04-19T14:53:21.988Z</time></trkpt><trkpt lat="44.4667917" lon="10.5159717"><ele>473.0</ele><time>2026-04-19T14:53:22.988Z</time></trkpt><trkpt lat="44.4668067" lon="10.5161517"><ele>473.0</ele><time>2026-04-19T14:53:23.988Z</time></trkpt><trkpt lat="44.4668233" lon="10.5163433"><ele>473.0</ele><time>2026-04-19T14:53:24.988Z</time></trkpt><trkpt lat="44.4668433" lon="10.5165417"><ele>473.0</ele><time>2026-04-19T14:53:25.988Z</time></trkpt><trkpt lat="44.4668683" lon="10.5167483"><ele>472.3333333333333</ele><time>2026-04-19T14:53:26.988Z</time></trkpt><trkpt lat="44.4668917" lon="10.516955"><ele>471.66666666666663</ele><time>2026-04-19T14:53:27.988Z</time></trkpt><trkpt lat="44.46692" lon="10.5171667"><ele>471.0</ele><time>2026-04-19T14:53:28.988Z</time></trkpt><trkpt lat="44.466945" lon="10.51739"><ele>470.33333333333337</ele><time>2026-04-19T14:53:29.988Z</time></trkpt><trkpt lat="44.4669683" lon="10.5176217"><ele>469.6666666666667</ele><time>2026-04-19T14:53:30.988Z</time></trkpt><trkpt lat="44.4669867" lon="10.5178583"><ele>469.0</ele><time>2026-04-19T14:53:31.988Z</time></trkpt><trkpt lat="44.4670167" lon="10.5180917"><ele>469.0</ele><time>2026-04-19T14:53:32.988Z</time></trkpt><trkpt lat="44.467065" lon="10.518335"><ele>469.0</ele><time>2026-04-19T14:53:33.988Z</time></trkpt><trkpt lat="44.4671283" lon="10.518605"><ele>469.0</ele><time>2026-04-19T14:53:34.988Z</time></trkpt><trkpt lat="44.4672083" lon="10.518885"><ele>469.0</ele><time>2026-04-19T14:53:35.988Z</time></trkpt><trkpt lat="44.4672983" lon="10.5191633"><ele>469.0</ele><time>2026-04-19T14:53:36.988Z</time></trkpt><trkpt lat="44.4673817" lon="10.5194383"><ele>469.0</ele><time>2026-04-19T14:53:37.988Z</time></trkpt><trkpt lat="44.4674633" lon="10.5197017"><ele>467.33333333333337</ele><time>2026-04-19T14:53:38.988Z</time></trkpt><trkpt lat="44.4675594" lon="10.5199665"><ele>465.66666666666663</ele><time>2026-04-19T14:53:39.988Z</time></trkpt><trkpt lat="44.4676734" lon="10.520223"><ele>464.0</ele><time>2026-04-19T14:53:40.988Z</time></trkpt><trkpt lat="44.4678087" lon="10.5204826"><ele>464.0</ele><time>2026-04-19T14:53:41.987Z</time></trkpt><trkpt lat="44.4679492" lon="10.5207423"><ele>464.0</ele><time>2026-04-19T14:53:42.987Z</time></trkpt><trkpt lat="44.468085" lon="10.520985"><ele>464.0</ele><time>2026-04-19T14:53:43.987Z</time></trkpt><trkpt lat="44.4682067" lon="10.5212283"><ele>464.0</ele><time>2026-04-19T14:53:44.987Z</time></trkpt><trkpt lat="44.4683333" lon="10.5214667"><ele>464.0</ele><time>2026-04-19T14:53:45.987Z</time></trkpt><trkpt lat="44.46846" lon="10.52171"><ele>464.66666666666663</ele><time>2026-04-19T14:53:46.987Z</time></trkpt><trkpt lat="44.4685867" lon="10.521945"><ele>465.33333333333337</ele><time>2026-04-19T14:53:47.987Z</time></trkpt><trkpt lat="44.4687167" lon="10.5221867"><ele>466.0</ele><time>2026-04-19T14:53:48.987Z</time></trkpt><trkpt lat="44.468835" lon="10.5224233"><ele>463.6666666666667</ele><time>2026-04-19T14:53:49.987Z</time></trkpt><trkpt lat="44.4689567" lon="10.5226533"><ele>461.33333333333337</ele><time>2026-04-19T14:53:50.987Z</time></trkpt><trkpt lat="44.46907" lon="10.5228783"><ele>459.0</ele><time>2026-04-19T14:53:51.987Z</time></trkpt><trkpt lat="44.469185" lon="10.5231"><ele>459.0</ele><time>2026-04-19T14:53:52.987Z</time></trkpt><trkpt lat="44.4693" lon="10.523315"><ele>459.0</ele><time>2026-04-19T14:53:53.987Z</time></trkpt><trkpt lat="44.469415" lon="10.523525"><ele>459.0</ele><time>2026-04-19T14:53:54.987Z</time></trkpt><trkpt lat="44.4695183" lon="10.52375"><ele>459.0</ele><time>2026-04-19T14:53:55.987Z</time></trkpt><trkpt lat="44.4696067" lon="10.5239883"><ele>459.0</ele><time>2026-04-19T14:53:56.987Z</time></trkpt><trkpt lat="44.469655" lon="10.5242317"><ele>459.0</ele><time>2026-04-19T14:53:57.987Z</time></trkpt><trkpt lat="44.4696867" lon="10.5244817"><ele>457.66666666666663</ele><time>2026-04-19T14:53:58.987Z</time></trkpt><trkpt lat="44.4697433" lon="10.5247267"><ele>456.3333333333333</ele><time>2026-04-19T14:53:59.987Z</time></trkpt><trkpt lat="44.46982" lon="10.5249683"><ele>455.0</ele><time>2026-04-19T14:54:00.987Z</time></trkpt><trkpt lat="44.469915" lon="10.525205"><ele>455.66666666666663</ele><time>2026-04-19T14:54:01.987Z</time></trkpt><trkpt lat="44.4700033" lon="10.5254433"><ele>456.33333333333337</ele><time>2026-04-19T14:54:02.987Z</time></trkpt><trkpt lat="44.470075" lon="10.5256817"><ele>457.0</ele><time>2026-04-19T14:54:03.987Z</time></trkpt><trkpt lat="44.4701317" lon="10.5259333"><ele>457.0</ele><time>2026-04-19T14:54:04.987Z</time></trkpt><trkpt lat="44.47018" lon="10.5261883"><ele>457.0</ele><time>2026-04-19T14:54:05.987Z</time></trkpt><trkpt lat="44.4702383" lon="10.526445"><ele>457.0</ele><time>2026-04-19T14:54:06.987Z</time></trkpt><trkpt lat="44.4703117" lon="10.5266967"><ele>458.0</ele><time>2026-04-19T14:54:07.987Z</time></trkpt><trkpt lat="44.4704067" lon="10.52694"><ele>459.0</ele><time>2026-04-19T14:54:08.987Z</time></trkpt><trkpt lat="44.4705067" lon="10.5271617"><ele>460.0</ele><time>2026-04-19T14:54:09.987Z</time></trkpt><trkpt lat="44.4706033" lon="10.5273667"><ele>458.33333333333337</ele><time>2026-04-19T14:54:10.988Z</time></trkpt><trkpt lat="44.4706917" lon="10.5275533"><ele>456.66666666666663</ele><time>2026-04-19T14:54:11.987Z</time></trkpt><trkpt lat="44.4707567" lon="10.5277467"><ele>455.0</ele><time>2026-04-19T14:54:12.987Z</time></trkpt><trkpt lat="44.4708017" lon="10.5279467"><ele>455.0</ele><time>2026-04-19T14:54:13.987Z</time></trkpt><trkpt lat="44.470825" lon="10.5281517"><ele>455.0</ele><time>2026-04-19T14:54:14.987Z</time></trkpt><trkpt lat="44.4708033" lon="10.5283483"><ele>455.0</ele><time>2026-04-19T14:54:15.987Z</time></trkpt><trkpt lat="44.4707467" lon="10.52856"><ele>456.0</ele><time>2026-04-19T14:54:16.987Z</time></trkpt><trkpt lat="44.47068" lon="10.528785"><ele>457.0</ele><time>2026-04-19T14:54:17.987Z</time></trkpt><trkpt lat="44.4706233" lon="10.52902"><ele>458.0</ele><time>2026-04-19T14:54:18.987Z</time></trkpt><trkpt lat="44.4705883" lon="10.5292617"><ele>458.0</ele><time>2026-04-19T14:54:19.987Z</time></trkpt><trkpt lat="44.470565" lon="10.529495"><ele>458.0</ele><time>2026-04-19T14:54:20.987Z</time></trkpt><trkpt lat="44.4705617" lon="10.52972"><ele>458.0</ele><time>2026-04-19T14:54:21.987Z</time></trkpt><trkpt lat="44.4705833" lon="10.52993"><ele>456.66666666666663</ele><time>2026-04-19T14:54:22.987Z</time></trkpt><trkpt lat="44.4706367" lon="10.5301417"><ele>455.33333333333337</ele><time>2026-04-19T14:54:23.987Z</time></trkpt><trkpt lat="44.4707083" lon="10.53035"><ele>454.0</ele><time>2026-04-19T14:54:24.987Z</time></trkpt><trkpt lat="44.470795" lon="10.530545"><ele>453.33333333333337</ele><time>2026-04-19T14:54:25.987Z</time></trkpt><trkpt lat="44.470875" lon="10.53074"><ele>452.66666666666663</ele><time>2026-04-19T14:54:26.987Z</time></trkpt><trkpt lat="44.4709183" lon="10.530955"><ele>452.0</ele><time>2026-04-19T14:54:27.987Z</time></trkpt><trkpt lat="44.4709233" lon="10.5311867"><ele>451.0</ele><time>2026-04-19T14:54:28.987Z</time></trkpt><trkpt lat="44.4708883" lon="10.5314183"><ele>450.0</ele><time>2026-04-19T14:54:29.987Z</time></trkpt><trkpt lat="44.4708233" lon="10.53165"><ele>449.0</ele><time>2026-04-19T14:54:30.987Z</time></trkpt><trkpt lat="44.4707417" lon="10.5318867"><ele>450.0</ele><time>2026-04-19T14:54:31.987Z</time></trkpt><trkpt lat="44.470655" lon="10.5321283"><ele>451.0</ele><time>2026-04-19T14:54:32.987Z</time></trkpt><trkpt lat="44.4705683" lon="10.532365"><ele>452.0</ele><time>2026-04-19T14:54:33.987Z</time></trkpt><trkpt lat="44.4704767" lon="10.5325883"><ele>453.3333333333333</ele><time>2026-04-19T14:54:34.987Z</time></trkpt><trkpt lat="44.4704117" lon="10.532815"><ele>454.66666666666663</ele><time>2026-04-19T14:54:35.987Z</time></trkpt><trkpt lat="44.4703733" lon="10.5330333"><ele>456.0</ele><time>2026-04-19T14:54:36.987Z</time></trkpt><trkpt lat="44.4703767" lon="10.533245"><ele>454.0</ele><time>2026-04-19T14:54:37.987Z</time></trkpt><trkpt lat="44.470405" lon="10.5334617"><ele>452.0</ele><time>2026-04-19T14:54:38.987Z</time></trkpt><trkpt lat="44.470465" lon="10.53367"><ele>450.0</ele><time>2026-04-19T14:54:39.987Z</time></trkpt><trkpt lat="44.470535" lon="10.5338667"><ele>449.66666666666663</ele><time>2026-04-19T14:54:40.987Z</time></trkpt><trkpt lat="44.4706033" lon="10.53408"><ele>449.3333333333333</ele><time>2026-04-19T14:54:41.987Z</time></trkpt><trkpt lat="44.47064" lon="10.5342917"><ele>449.0</ele><time>2026-04-19T14:54:42.987Z</time></trkpt><trkpt lat="44.470625" lon="10.5344867"><ele>449.5</ele><time>2026-04-19T14:54:43.987Z</time></trkpt><trkpt lat="44.4705667" lon="10.5346517"><ele>450.0</ele><time>2026-04-19T14:54:44.987Z</time></trkpt><trkpt lat="44.470495" lon="10.5348017"><ele>450.5</ele><time>2026-04-19T14:54:45.987Z</time></trkpt><trkpt lat="44.4704533" lon="10.534975"><ele>451.0</ele><time>2026-04-19T14:54:46.987Z</time></trkpt><trkpt lat="44.4704567" lon="10.5351583"><ele>451.0</ele><time>2026-04-19T14:54:47.987Z</time></trkpt><trkpt lat="44.4704933" lon="10.5353367"><ele>451.0</ele><time>2026-04-19T14:54:48.987Z</time></trkpt><trkpt lat="44.4705617" lon="10.5354933"><ele>451.0</ele><time>2026-04-19T14:54:49.987Z</time></trkpt><trkpt lat="44.4706583" lon="10.535615"><ele>451.0</ele><time>2026-04-19T14:54:50.987Z</time></trkpt><trkpt lat="44.4707917" lon="10.53569"><ele>450.33333333333337</ele><time>2026-04-19T14:54:51.987Z</time></trkpt><trkpt lat="44.4709483" lon="10.5357583"><ele>449.66666666666663</ele><time>2026-04-19T14:54:52.987Z</time></trkpt><trkpt lat="44.4711233" lon="10.53582"><ele>449.0</ele><time>2026-04-19T14:54:53.987Z</time></trkpt><trkpt lat="44.471315" lon="10.5358883"><ele>452.0</ele><time>2026-04-19T14:54:54.987Z</time></trkpt><trkpt lat="44.47151" lon="10.5359467"><ele>455.0</ele><time>2026-04-19T14:54:55.987Z</time></trkpt><trkpt lat="44.4717217" lon="10.5360183"><ele>458.0</ele><time>2026-04-19T14:54:56.987Z</time></trkpt><trkpt lat="44.4719233" lon="10.5360783"><ele>461.0</ele><time>2026-04-19T14:54:57.987Z</time></trkpt><trkpt lat="44.472115" lon="10.5361467"><ele>464.0</ele><time>2026-04-19T14:54:58.988Z</time></trkpt><trkpt lat="44.4722967" lon="10.5361983"><ele>467.0</ele><time>2026-04-19T14:54:59.987Z</time></trkpt><trkpt lat="44.4724633" lon="10.5362633"><ele>464.66666666666663</ele><time>2026-04-19T14:55:00.987Z</time></trkpt><trkpt lat="44.4726283" lon="10.536335"><ele>462.33333333333337</ele><time>2026-04-19T14:55:01.987Z</time></trkpt><trkpt lat="44.4727933" lon="10.5364233"><ele>460.0</ele><time>2026-04-19T14:55:02.987Z</time></trkpt><trkpt lat="44.4729433" lon="10.53655"><ele>460.0</ele><time>2026-04-19T14:55:03.987Z</time></trkpt><trkpt lat="44.4730717" lon="10.536715"><ele>460.0</ele><time>2026-04-19T14:55:04.987Z</time></trkpt><trkpt lat="44.4731833" lon="10.53691"><ele>460.0</ele><time>2026-04-19T14:55:05.987Z</time></trkpt><trkpt lat="44.4732717" lon="10.5371067"><ele>454.0</ele><time>2026-04-19T14:55:06.987Z</time></trkpt><trkpt lat="44.473325" lon="10.5373167"><ele>448.0</ele><time>2026-04-19T14:55:07.987Z</time></trkpt><trkpt lat="44.473345" lon="10.5375433"><ele>442.0</ele><time>2026-04-19T14:55:08.987Z</time></trkpt><trkpt lat="44.47334" lon="10.5377683"><ele>439.0</ele><time>2026-04-19T14:55:09.987Z</time></trkpt><trkpt lat="44.47333" lon="10.53798"><ele>436.0</ele><time>2026-04-19T14:55:10.987Z</time></trkpt><trkpt lat="44.4733383" lon="10.53817"><ele>433.0</ele><time>2026-04-19T14:55:11.987Z</time></trkpt><trkpt lat="44.4733833" lon="10.53834"><ele>430.0</ele><time>2026-04-19T14:55:12.987Z</time></trkpt><trkpt lat="44.4734633" lon="10.5384833"><ele>430.0</ele><time>2026-04-19T14:55:13.987Z</time></trkpt><trkpt lat="44.4735883" lon="10.5385867"><ele>430.0</ele><time>2026-04-19T14:55:14.987Z</time></trkpt><trkpt lat="44.4737467" lon="10.5386167"><ele>430.0</ele><time>2026-04-19T14:55:15.987Z</time></trkpt><trkpt lat="44.4741017" lon="10.5385533"><ele>432.0</ele><time>2026-04-19T14:55:17.987Z</time></trkpt><trkpt lat="44.4742817" lon="10.5385167"><ele>434.0</ele><time>2026-04-19T14:55:18.987Z</time></trkpt><trkpt lat="44.474455" lon="10.5384917"><ele>436.0</ele><time>2026-04-19T14:55:19.987Z</time></trkpt><trkpt lat="44.4746217" lon="10.53848"><ele>436.33333333333337</ele><time>2026-04-19T14:55:20.987Z</time></trkpt><trkpt lat="44.4747883" lon="10.538475"><ele>436.66666666666663</ele><time>2026-04-19T14:55:21.987Z</time></trkpt><trkpt lat="44.47496" lon="10.5384917"><ele>437.0</ele><time>2026-04-19T14:55:22.987Z</time></trkpt><trkpt lat="44.4751483" lon="10.5385283"><ele>437.0</ele><time>2026-04-19T14:55:23.987Z</time></trkpt><trkpt lat="44.4753333" lon="10.5385767"><ele>437.0</ele><time>2026-04-19T14:55:24.987Z</time></trkpt><trkpt lat="44.475515" lon="10.5386233"><ele>437.0</ele><time>2026-04-19T14:55:25.987Z</time></trkpt><trkpt lat="44.4756967" lon="10.5386717"><ele>439.66666666666663</ele><time>2026-04-19T14:55:26.987Z</time></trkpt><trkpt lat="44.4758717" lon="10.5387133"><ele>442.33333333333337</ele><time>2026-04-19T14:55:27.987Z</time></trkpt><trkpt lat="44.476045" lon="10.5387617"><ele>445.0</ele><time>2026-04-19T14:55:28.987Z</time></trkpt><trkpt lat="44.476215" lon="10.5388133"><ele>437.6666666666667</ele><time>2026-04-19T14:55:29.987Z</time></trkpt><trkpt lat="44.4763833" lon="10.538875"><ele>430.33333333333337</ele><time>2026-04-19T14:55:30.987Z</time></trkpt><trkpt lat="44.4765417" lon="10.5389783"><ele>423.0</ele><time>2026-04-19T14:55:31.987Z</time></trkpt><trkpt lat="44.4766817" lon="10.5391317"><ele>423.0</ele><time>2026-04-19T14:55:32.987Z</time></trkpt><trkpt lat="44.4767967" lon="10.53928"><ele>423.0</ele><time>2026-04-19T14:55:33.987Z</time></trkpt><trkpt lat="44.4768967" lon="10.539435"><ele>423.0</ele><time>2026-04-19T14:55:34.987Z</time></trkpt><trkpt lat="44.47697" lon="10.5396017"><ele>423.0</ele><time>2026-04-19T14:55:35.987Z</time></trkpt><trkpt lat="44.4770417" lon="10.53979"><ele>423.33333333333337</ele><time>2026-04-19T14:55:36.987Z</time></trkpt><trkpt lat="44.4770633" lon="10.54"><ele>423.6666666666667</ele><time>2026-04-19T14:55:37.987Z</time></trkpt><trkpt lat="44.4770833" lon="10.540205"><ele>424.0</ele><time>2026-04-19T14:55:38.987Z</time></trkpt><trkpt lat="44.4771217" lon="10.5404183"><ele>420.0</ele><time>2026-04-19T14:55:39.987Z</time></trkpt><trkpt lat="44.4771767" lon="10.540645"><ele>416.0</ele><time>2026-04-19T14:55:40.987Z</time></trkpt><trkpt lat="44.4772417" lon="10.5408667"><ele>412.0</ele><time>2026-04-19T14:55:41.987Z</time></trkpt><trkpt lat="44.47732" lon="10.5410617"><ele>409.0</ele><time>2026-04-19T14:55:42.987Z</time></trkpt><trkpt lat="44.4773983" lon="10.5412667"><ele>406.0</ele><time>2026-04-19T14:55:43.987Z</time></trkpt><trkpt lat="44.4774783" lon="10.5414717"><ele>403.0</ele><time>2026-04-19T14:55:44.987Z</time></trkpt><trkpt lat="44.4775617" lon="10.54166"><ele>403.0</ele><time>2026-04-19T14:55:45.987Z</time></trkpt><trkpt lat="44.4776417" lon="10.541845"><ele>403.0</ele><time>2026-04-19T14:55:46.987Z</time></trkpt><trkpt lat="44.47771" lon="10.5420383"><ele>403.0</ele><time>2026-04-19T14:55:47.987Z</time></trkpt><trkpt lat="44.4777483" lon="10.5422517"><ele>402.6666666666667</ele><time>2026-04-19T14:55:48.987Z</time></trkpt><trkpt lat="44.47777" lon="10.54248"><ele>402.33333333333337</ele><time>2026-04-19T14:55:49.987Z</time></trkpt><trkpt lat="44.4777783" lon="10.5427217"><ele>402.0</ele><time>2026-04-19T14:55:50.987Z</time></trkpt><trkpt lat="44.4777917" lon="10.5429767"><ele>402.0</ele><time>2026-04-19T14:55:51.987Z</time></trkpt><trkpt lat="44.477815" lon="10.5432283"><ele>402.0</ele><time>2026-04-19T14:55:52.987Z</time></trkpt><trkpt lat="44.4778167" lon="10.5434683"><ele>402.0</ele><time>2026-04-19T14:55:53.987Z</time></trkpt><trkpt lat="44.47782" lon="10.5437067"><ele>402.0</ele><time>2026-04-19T14:55:54.987Z</time></trkpt><trkpt lat="44.47783" lon="10.5438983"><ele>402.0</ele><time>2026-04-19T14:55:55.987Z</time></trkpt><trkpt lat="44.4778833" lon="10.5440633"><ele>402.0</ele><time>2026-04-19T14:55:56.987Z</time></trkpt><trkpt lat="44.47798" lon="10.5442017"><ele>402.0</ele><time>2026-04-19T14:55:57.987Z</time></trkpt><trkpt lat="44.47811" lon="10.544295"><ele>402.33333333333337</ele><time>2026-04-19T14:55:58.987Z</time></trkpt><trkpt lat="44.4782717" lon="10.5443733"><ele>402.6666666666667</ele><time>2026-04-19T14:55:59.988Z</time></trkpt><trkpt lat="44.478445" lon="10.544455"><ele>403.0</ele><time>2026-04-19T14:56:00.987Z</time></trkpt><trkpt lat="44.4786067" lon="10.5445317"><ele>403.6666666666667</ele><time>2026-04-19T14:56:01.987Z</time></trkpt><trkpt lat="44.4787633" lon="10.544595"><ele>404.33333333333337</ele><time>2026-04-19T14:56:02.987Z</time></trkpt><trkpt lat="44.4789067" lon="10.5446467"><ele>405.0</ele><time>2026-04-19T14:56:03.987Z</time></trkpt><trkpt lat="44.4790433" lon="10.5447017"><ele>405.0</ele><time>2026-04-19T14:56:04.987Z</time></trkpt><trkpt lat="44.47915" lon="10.5447683"><ele>405.0</ele><time>2026-04-19T14:56:05.987Z</time></trkpt><trkpt lat="44.4792433" lon="10.5448467"><ele>405.0</ele><time>2026-04-19T14:56:06.987Z</time></trkpt><trkpt lat="44.4793217" lon="10.5449583"><ele>405.0</ele><time>2026-04-19T14:56:07.987Z</time></trkpt><trkpt lat="44.4793967" lon="10.5450883"><ele>405.0</ele><time>2026-04-19T14:56:08.987Z</time></trkpt><trkpt lat="44.4794517" lon="10.545215"><ele>405.0</ele><time>2026-04-19T14:56:09.987Z</time></trkpt><trkpt lat="44.4794867" lon="10.54535"><ele>405.0</ele><time>2026-04-19T14:56:10.987Z</time></trkpt><trkpt lat="44.4794867" lon="10.5454883"><ele>405.0</ele><time>2026-04-19T14:56:11.987Z</time></trkpt><trkpt lat="44.4794583" lon="10.5456417"><ele>405.0</ele><time>2026-04-19T14:56:12.987Z</time></trkpt><trkpt lat="44.4794017" lon="10.5457833"><ele>403.0</ele><time>2026-04-19T14:56:13.987Z</time></trkpt><trkpt lat="44.479335" lon="10.54592"><ele>401.0</ele><time>2026-04-19T14:56:14.987Z</time></trkpt><trkpt lat="44.47927" lon="10.5460483"><ele>399.0</ele><time>2026-04-19T14:56:15.987Z</time></trkpt><trkpt lat="44.4792117" lon="10.5461833"><ele>397.0</ele><time>2026-04-19T14:56:16.987Z</time></trkpt><trkpt lat="44.4791633" lon="10.5463217"><ele>397.0</ele><time>2026-04-19T14:56:17.988Z</time></trkpt><trkpt lat="44.4791267" lon="10.5464617"><ele>397.0</ele><time>2026-04-19T14:56:18.987Z</time></trkpt><trkpt lat="44.4791017" lon="10.5466083"><ele>397.0</ele><time>2026-04-19T14:56:19.988Z</time></trkpt><trkpt lat="44.4790867" lon="10.5467483"><ele>397.0</ele><time>2026-04-19T14:56:20.987Z</time></trkpt><trkpt lat="44.479085" lon="10.5468833"><ele>397.0</ele><time>2026-04-19T14:56:21.987Z</time></trkpt><trkpt lat="44.4790983" lon="10.5470333"><ele>396.40000000000003</ele><time>2026-04-19T14:56:22.987Z</time></trkpt><trkpt lat="44.4791217" lon="10.5471783"><ele>395.8</ele><time>2026-04-19T14:56:23.987Z</time></trkpt><trkpt lat="44.47916" lon="10.5473167"><ele>395.2</ele><time>2026-04-19T14:56:24.987Z</time></trkpt><trkpt lat="44.4792" lon="10.547465"><ele>394.6</ele><time>2026-04-19T14:56:25.987Z</time></trkpt><trkpt lat="44.479235" lon="10.547625"><ele>394.0</ele><time>2026-04-19T14:56:26.987Z</time></trkpt><trkpt lat="44.4792583" lon="10.5478117"><ele>393.6666666666667</ele><time>2026-04-19T14:56:27.987Z</time></trkpt><trkpt lat="44.4792767" lon="10.5480267"><ele>393.33333333333337</ele><time>2026-04-19T14:56:28.987Z</time></trkpt><trkpt lat="44.4793033" lon="10.5482767"><ele>393.0</ele><time>2026-04-19T14:56:29.987Z</time></trkpt><trkpt lat="44.479325" lon="10.548535"><ele>390.66666666666663</ele><time>2026-04-19T14:56:30.987Z</time></trkpt><trkpt lat="44.479355" lon="10.5487867"><ele>388.3333333333333</ele><time>2026-04-19T14:56:31.987Z</time></trkpt><trkpt lat="44.4793933" lon="10.5490217"><ele>386.0</ele><time>2026-04-19T14:56:32.987Z</time></trkpt><trkpt lat="44.4794533" lon="10.54926"><ele>386.0</ele><time>2026-04-19T14:56:33.987Z</time></trkpt><trkpt lat="44.4795217" lon="10.54948"><ele>386.0</ele><time>2026-04-19T14:56:34.987Z</time></trkpt><trkpt lat="44.4795983" lon="10.5496917"><ele>386.0</ele><time>2026-04-19T14:56:35.987Z</time></trkpt><trkpt lat="44.4796867" lon="10.5499"><ele>388.66666666666663</ele><time>2026-04-19T14:56:36.987Z</time></trkpt><trkpt lat="44.4797733" lon="10.550095"><ele>391.33333333333337</ele><time>2026-04-19T14:56:37.987Z</time></trkpt><trkpt lat="44.47986" lon="10.5502867"><ele>394.0</ele><time>2026-04-19T14:56:38.987Z</time></trkpt><trkpt lat="44.479915" lon="10.5504733"><ele>394.0</ele><time>2026-04-19T14:56:39.987Z</time></trkpt><trkpt lat="44.4799367" lon="10.550675"><ele>394.0</ele><time>2026-04-19T14:56:40.987Z</time></trkpt><trkpt lat="44.4799317" lon="10.5508783"><ele>394.0</ele><time>2026-04-19T14:56:41.987Z</time></trkpt><trkpt lat="44.4798867" lon="10.5510633"><ele>394.0</ele><time>2026-04-19T14:56:42.987Z</time></trkpt><trkpt lat="44.47983" lon="10.5512267"><ele>393.0</ele><time>2026-04-19T14:56:43.987Z</time></trkpt><trkpt lat="44.479785" lon="10.5514017"><ele>392.0</ele><time>2026-04-19T14:56:44.987Z</time></trkpt><trkpt lat="44.4797567" lon="10.55158"><ele>391.0</ele><time>2026-04-19T14:56:45.987Z</time></trkpt><trkpt lat="44.479755" lon="10.5517717"><ele>390.0</ele><time>2026-04-19T14:56:46.987Z</time></trkpt><trkpt lat="44.4797683" lon="10.5519683"><ele>390.0</ele><time>2026-04-19T14:56:47.987Z</time></trkpt><trkpt lat="44.4797817" lon="10.5521583"><ele>390.0</ele><time>2026-04-19T14:56:48.987Z</time></trkpt><trkpt lat="44.479765" lon="10.55234"><ele>390.0</ele><time>2026-04-19T14:56:49.987Z</time></trkpt><trkpt lat="44.4797083" lon="10.5525017"><ele>390.0</ele><time>2026-04-19T14:56:50.987Z</time></trkpt><trkpt lat="44.4796367" lon="10.5526667"><ele>385.3333333333333</ele><time>2026-04-19T14:56:51.987Z</time></trkpt><trkpt lat="44.4795567" lon="10.55285"><ele>380.66666666666663</ele><time>2026-04-19T14:56:52.987Z</time></trkpt><trkpt lat="44.4794917" lon="10.5530583"><ele>376.0</ele><time>2026-04-19T14:56:53.987Z</time></trkpt><trkpt lat="44.4794467" lon="10.55329"><ele>375.0</ele><time>2026-04-19T14:56:54.987Z</time></trkpt><trkpt lat="44.4794283" lon="10.5535167"><ele>374.0</ele><time>2026-04-19T14:56:55.987Z</time></trkpt><trkpt lat="44.47943" lon="10.5537367"><ele>373.0</ele><time>2026-04-19T14:56:56.987Z</time></trkpt><trkpt lat="44.4794417" lon="10.553955"><ele>373.3333333333333</ele><time>2026-04-19T14:56:57.987Z</time></trkpt><trkpt lat="44.47948" lon="10.55416"><ele>373.6666666666667</ele><time>2026-04-19T14:56:58.987Z</time></trkpt><trkpt lat="44.4795417" lon="10.5543633"><ele>374.0</ele><time>2026-04-19T14:56:59.987Z</time></trkpt><trkpt lat="44.4796367" lon="10.5545583"><ele>374.0</ele><time>2026-04-19T14:57:00.987Z</time></trkpt><trkpt lat="44.47974" lon="10.5547617"><ele>374.0</ele><time>2026-04-19T14:57:01.987Z</time></trkpt><trkpt lat="44.4798417" lon="10.5549567"><ele>374.0</ele><time>2026-04-19T14:57:02.987Z</time></trkpt><trkpt lat="44.479925" lon="10.55514"><ele>374.0</ele><time>2026-04-19T14:57:03.987Z</time></trkpt><trkpt lat="44.479975" lon="10.5553283"><ele>374.0</ele><time>2026-04-19T14:57:04.988Z</time></trkpt><trkpt lat="44.479995" lon="10.5555117"><ele>374.0</ele><time>2026-04-19T14:57:05.987Z</time></trkpt><trkpt lat="44.48" lon="10.5557167"><ele>374.0</ele><time>2026-04-19T14:57:06.987Z</time></trkpt><trkpt lat="44.48002" lon="10.5559183"><ele>372.0</ele><time>2026-04-19T14:57:07.987Z</time></trkpt><trkpt lat="44.480075" lon="10.5561067"><ele>370.0</ele><time>2026-04-19T14:57:08.987Z</time></trkpt><trkpt lat="44.480165" lon="10.5562833"><ele>368.0</ele><time>2026-04-19T14:57:09.987Z</time></trkpt><trkpt lat="44.4802833" lon="10.5564433"><ele>368.33333333333337</ele><time>2026-04-19T14:57:10.987Z</time></trkpt><trkpt lat="44.4804233" lon="10.5566033"><ele>368.6666666666667</ele><time>2026-04-19T14:57:11.987Z</time></trkpt><trkpt lat="44.4805683" lon="10.5567883"><ele>369.0</ele><time>2026-04-19T14:57:12.987Z</time></trkpt><trkpt lat="44.480705" lon="10.5569967"><ele>367.0</ele><time>2026-04-19T14:57:13.987Z</time></trkpt><trkpt lat="44.4808383" lon="10.557225"><ele>365.0</ele><time>2026-04-19T14:57:14.987Z</time></trkpt><trkpt lat="44.48097" lon="10.5574717"><ele>363.0</ele><time>2026-04-19T14:57:15.987Z</time></trkpt><trkpt lat="44.48111" lon="10.5577217"><ele>362.3333333333333</ele><time>2026-04-19T14:57:16.987Z</time></trkpt><trkpt lat="44.4812417" lon="10.5579583"><ele>361.66666666666663</ele><time>2026-04-19T14:57:17.987Z</time></trkpt><trkpt lat="44.481365" lon="10.55818"><ele>361.0</ele><time>2026-04-19T14:57:18.987Z</time></trkpt><trkpt lat="44.481485" lon="10.55839"><ele>362.0</ele><time>2026-04-19T14:57:19.987Z</time></trkpt><trkpt lat="44.4815917" lon="10.5585967"><ele>363.0</ele><time>2026-04-19T14:57:20.987Z</time></trkpt><trkpt lat="44.4817033" lon="10.5587867"><ele>364.0</ele><time>2026-04-19T14:57:21.987Z</time></trkpt><trkpt lat="44.4817983" lon="10.5589683"><ele>364.0</ele><time>2026-04-19T14:57:22.987Z</time></trkpt><trkpt lat="44.4818933" lon="10.5591517"><ele>364.0</ele><time>2026-04-19T14:57:23.987Z</time></trkpt><trkpt lat="44.481965" lon="10.5593317"><ele>364.0</ele><time>2026-04-19T14:57:24.987Z</time></trkpt><trkpt lat="44.48201" lon="10.5595183"><ele>364.0</ele><time>2026-04-19T14:57:25.987Z</time></trkpt><trkpt lat="44.4820267" lon="10.5597267"><ele>363.3333333333333</ele><time>2026-04-19T14:57:26.987Z</time></trkpt><trkpt lat="44.482005" lon="10.55994"><ele>362.6666666666667</ele><time>2026-04-19T14:57:27.987Z</time></trkpt><trkpt lat="44.48194" lon="10.56016"><ele>362.0</ele><time>2026-04-19T14:57:28.987Z</time></trkpt><trkpt lat="44.4818417" lon="10.56038"><ele>362.0</ele><time>2026-04-19T14:57:29.987Z</time></trkpt><trkpt lat="44.4817483" lon="10.5605883"><ele>362.0</ele><time>2026-04-19T14:57:30.987Z</time></trkpt><trkpt lat="44.48165" lon="10.5608033"><ele>362.0</ele><time>2026-04-19T14:57:31.987Z</time></trkpt><trkpt lat="44.4815717" lon="10.56101"><ele>362.5</ele><time>2026-04-19T14:57:32.987Z</time></trkpt><trkpt lat="44.4815233" lon="10.56121"><ele>363.0</ele><time>2026-04-19T14:57:33.987Z</time></trkpt><trkpt lat="44.4814867" lon="10.5614117"><ele>363.5</ele><time>2026-04-19T14:57:34.987Z</time></trkpt><trkpt lat="44.4814667" lon="10.5616033"><ele>364.0</ele><time>2026-04-19T14:57:35.987Z</time></trkpt><trkpt lat="44.481485" lon="10.5618017"><ele>364.0</ele><time>2026-04-19T14:57:36.987Z</time></trkpt><trkpt lat="44.4815367" lon="10.5619883"><ele>364.0</ele><time>2026-04-19T14:57:37.987Z</time></trkpt><trkpt lat="44.48162" lon="10.5621633"><ele>364.0</ele><time>2026-04-19T14:57:38.987Z</time></trkpt><trkpt lat="44.4817383" lon="10.562325"><ele>363.3333333333333</ele><time>2026-04-19T14:57:39.987Z</time></trkpt><trkpt lat="44.4818683" lon="10.5624867"><ele>362.6666666666667</ele><time>2026-04-19T14:57:40.987Z</time></trkpt><trkpt lat="44.4820367" lon="10.5626317"><ele>362.0</ele><time>2026-04-19T14:57:41.987Z</time></trkpt><trkpt lat="44.4822" lon="10.5627733"><ele>360.33333333333337</ele><time>2026-04-19T14:57:42.987Z</time></trkpt><trkpt lat="44.4823583" lon="10.5629117"><ele>358.6666666666667</ele><time>2026-04-19T14:57:43.987Z</time></trkpt><trkpt lat="44.48251" lon="10.5630567"><ele>357.0</ele><time>2026-04-19T14:57:44.987Z</time></trkpt><trkpt lat="44.4826583" lon="10.5632033"><ele>357.0</ele><time>2026-04-19T14:57:45.987Z</time></trkpt><trkpt lat="44.4828117" lon="10.563355"><ele>357.0</ele><time>2026-04-19T14:57:46.987Z</time></trkpt><trkpt lat="44.4829433" lon="10.5635333"><ele>357.0</ele><time>2026-04-19T14:57:47.987Z</time></trkpt><trkpt lat="44.48307" lon="10.5637233"><ele>357.3333333333333</ele><time>2026-04-19T14:57:48.987Z</time></trkpt><trkpt lat="44.4831833" lon="10.5639417"><ele>357.66666666666663</ele><time>2026-04-19T14:57:49.988Z</time></trkpt><trkpt lat="44.483285" lon="10.5641767"><ele>358.0</ele><time>2026-04-19T14:57:50.987Z</time></trkpt><trkpt lat="44.483395" lon="10.5644117"><ele>356.66666666666663</ele><time>2026-04-19T14:57:51.987Z</time></trkpt><trkpt lat="44.4835" lon="10.5646433"><ele>355.3333333333333</ele><time>2026-04-19T14:57:52.987Z</time></trkpt><trkpt lat="44.4836067" lon="10.5648833"><ele>354.0</ele><time>2026-04-19T14:57:53.987Z</time></trkpt><trkpt lat="44.4837183" lon="10.565115"><ele>353.6666666666667</ele><time>2026-04-19T14:57:54.987Z</time></trkpt><trkpt lat="44.483825" lon="10.56534"><ele>353.33333333333337</ele><time>2026-04-19T14:57:55.987Z</time></trkpt><trkpt lat="44.483935" lon="10.5655783"><ele>353.0</ele><time>2026-04-19T14:57:56.987Z</time></trkpt><trkpt lat="44.4840367" lon="10.5657967"><ele>353.0</ele><time>2026-04-19T14:57:57.987Z</time></trkpt><trkpt lat="44.4841317" lon="10.5660083"><ele>353.0</ele><time>2026-04-19T14:57:58.987Z</time></trkpt><trkpt lat="44.4842333" lon="10.5662217"><ele>353.0</ele><time>2026-04-19T14:57:59.987Z</time></trkpt><trkpt lat="44.4843283" lon="10.5664267"><ele>351.0</ele><time>2026-04-19T14:58:00.987Z</time></trkpt><trkpt lat="44.4844283" lon="10.56664"><ele>349.0</ele><time>2026-04-19T14:58:01.987Z</time></trkpt><trkpt lat="44.484505" lon="10.5668767"><ele>347.0</ele><time>2026-04-19T14:58:02.987Z</time></trkpt><trkpt lat="44.4845517" lon="10.567115"><ele>347.0</ele><time>2026-04-19T14:58:03.987Z</time></trkpt><trkpt lat="44.48458" lon="10.5673467"><ele>347.0</ele><time>2026-04-19T14:58:04.987Z</time></trkpt><trkpt lat="44.4846067" lon="10.5675817"><ele>347.0</ele><time>2026-04-19T14:58:05.987Z</time></trkpt><trkpt lat="44.4846367" lon="10.5678067"><ele>346.33333333333337</ele><time>2026-04-19T14:58:06.987Z</time></trkpt><trkpt lat="44.484675" lon="10.5680133"><ele>345.6666666666667</ele><time>2026-04-19T14:58:07.987Z</time></trkpt><trkpt lat="44.4847283" lon="10.568215"><ele>345.0</ele><time>2026-04-19T14:58:08.987Z</time></trkpt><trkpt lat="44.4848117" lon="10.5684067"><ele>345.0</ele><time>2026-04-19T14:58:09.987Z</time></trkpt><trkpt lat="44.4849233" lon="10.5685817"><ele>345.0</ele><time>2026-04-19T14:58:10.987Z</time></trkpt><trkpt lat="44.4850467" lon="10.5687533"><ele>345.0</ele><time>2026-04-19T14:58:11.987Z</time></trkpt><trkpt lat="44.4851667" lon="10.5689033"><ele>345.0</ele><time>2026-04-19T14:58:12.988Z</time></trkpt><trkpt lat="44.4852833" lon="10.5690367"><ele>345.0</ele><time>2026-04-19T14:58:13.987Z</time></trkpt><trkpt lat="44.4854283" lon="10.5691233"><ele>345.0</ele><time>2026-04-19T14:58:14.988Z</time></trkpt><trkpt lat="44.4855883" lon="10.5691883"><ele>345.0</ele><time>2026-04-19T14:58:15.987Z</time></trkpt><trkpt lat="44.485755" lon="10.5692433"><ele>345.0</ele><time>2026-04-19T14:58:16.987Z</time></trkpt><trkpt lat="44.4859283" lon="10.5693"><ele>345.0</ele><time>2026-04-19T14:58:17.987Z</time></trkpt><trkpt lat="44.4860983" lon="10.5693733"><ele>344.3333333333333</ele><time>2026-04-19T14:58:18.987Z</time></trkpt><trkpt lat="44.4862717" lon="10.569475"><ele>343.66666666666663</ele><time>2026-04-19T14:58:19.987Z</time></trkpt><trkpt lat="44.4864483" lon="10.5695867"><ele>343.0</ele><time>2026-04-19T14:58:20.988Z</time></trkpt><trkpt lat="44.486625" lon="10.5697117"><ele>343.0</ele><time>2026-04-19T14:58:21.987Z</time></trkpt><trkpt lat="44.4868017" lon="10.5698417"><ele>343.0</ele><time>2026-04-19T14:58:22.987Z</time></trkpt><trkpt lat="44.4869783" lon="10.5699733"><ele>343.0</ele><time>2026-04-19T14:58:23.987Z</time></trkpt><trkpt lat="44.4871517" lon="10.5700933"><ele>343.66666666666663</ele><time>2026-04-19T14:58:24.987Z</time></trkpt><trkpt lat="44.4873133" lon="10.5701967"><ele>344.3333333333333</ele><time>2026-04-19T14:58:25.987Z</time></trkpt><trkpt lat="44.4874633" lon="10.5702933"><ele>345.0</ele><time>2026-04-19T14:58:26.987Z</time></trkpt><trkpt lat="44.4876033" lon="10.5703883"><ele>342.6666666666667</ele><time>2026-04-19T14:58:27.987Z</time></trkpt><trkpt lat="44.4877483" lon="10.5704667"><ele>340.33333333333337</ele><time>2026-04-19T14:58:28.987Z</time></trkpt><trkpt lat="44.4878933" lon="10.570515"><ele>338.0</ele><time>2026-04-19T14:58:29.987Z</time></trkpt><trkpt lat="44.48804" lon="10.5705083"><ele>338.0</ele><time>2026-04-19T14:58:30.987Z</time></trkpt><trkpt lat="44.488185" lon="10.57045"><ele>338.0</ele><time>2026-04-19T14:58:31.987Z</time></trkpt><trkpt lat="44.48832" lon="10.5703517"><ele>338.0</ele><time>2026-04-19T14:58:32.988Z</time></trkpt><trkpt lat="44.488455" lon="10.570215"><ele>338.5</ele><time>2026-04-19T14:58:33.987Z</time></trkpt><trkpt lat="44.48858" lon="10.5700833"><ele>339.0</ele><time>2026-04-19T14:58:34.987Z</time></trkpt><trkpt lat="44.4887117" lon="10.5699667"><ele>339.5</ele><time>2026-04-19T14:58:35.987Z</time></trkpt><trkpt lat="44.4888417" lon="10.5699167"><ele>340.0</ele><time>2026-04-19T14:58:36.987Z</time></trkpt><trkpt lat="44.4889833" lon="10.5699267"><ele>340.0</ele><time>2026-04-19T14:58:37.987Z</time></trkpt><trkpt lat="44.4891217" lon="10.569985"><ele>340.0</ele><time>2026-04-19T14:58:38.987Z</time></trkpt><trkpt lat="44.48926" lon="10.5700883"><ele>340.0</ele><time>2026-04-19T14:58:39.987Z</time></trkpt><trkpt lat="44.4894033" lon="10.570195"><ele>340.0</ele><time>2026-04-19T14:58:40.987Z</time></trkpt><trkpt lat="44.4895267" lon="10.570295"><ele>340.0</ele><time>2026-04-19T14:58:41.987Z</time></trkpt><trkpt lat="44.48962" lon="10.5704133"><ele>340.0</ele><time>2026-04-19T14:58:42.987Z</time></trkpt><trkpt lat="44.4896783" lon="10.57057"><ele>340.0</ele><time>2026-04-19T14:58:43.987Z</time></trkpt><trkpt lat="44.4896983" lon="10.5707667"><ele>343.66666666666663</ele><time>2026-04-19T14:58:44.987Z</time></trkpt><trkpt lat="44.4897" lon="10.571015"><ele>347.3333333333333</ele><time>2026-04-19T14:58:45.987Z</time></trkpt><trkpt lat="44.4897083" lon="10.5713033"><ele>351.0</ele><time>2026-04-19T14:58:46.987Z</time></trkpt><trkpt lat="44.4897283" lon="10.5716017"><ele>351.0</ele><time>2026-04-19T14:58:47.987Z</time></trkpt><trkpt lat="44.489745" lon="10.5718767"><ele>351.0</ele><time>2026-04-19T14:58:48.987Z</time></trkpt><trkpt lat="44.48976" lon="10.57213"><ele>351.0</ele><time>2026-04-19T14:58:49.987Z</time></trkpt><trkpt lat="44.48977" lon="10.572375"><ele>348.6666666666667</ele><time>2026-04-19T14:58:50.987Z</time></trkpt><trkpt lat="44.4898017" lon="10.5725917"><ele>346.33333333333337</ele><time>2026-04-19T14:58:51.987Z</time></trkpt><trkpt lat="44.4898533" lon="10.572785"><ele>344.0</ele><time>2026-04-19T14:58:52.987Z</time></trkpt><trkpt lat="44.489945" lon="10.5729583"><ele>342.0</ele><time>2026-04-19T14:58:53.987Z</time></trkpt><trkpt lat="44.490075" lon="10.573105"><ele>340.0</ele><time>2026-04-19T14:58:54.987Z</time></trkpt><trkpt lat="44.4902233" lon="10.5732217"><ele>338.0</ele><time>2026-04-19T14:58:55.987Z</time></trkpt><trkpt lat="44.4903967" lon="10.5733283"><ele>340.33333333333337</ele><time>2026-04-19T14:58:56.987Z</time></trkpt><trkpt lat="44.4905917" lon="10.573435"><ele>342.6666666666667</ele><time>2026-04-19T14:58:57.987Z</time></trkpt><trkpt lat="44.4907967" lon="10.573535"><ele>345.0</ele><time>2026-04-19T14:58:58.987Z</time></trkpt><trkpt lat="44.491" lon="10.5736433"><ele>343.0</ele><time>2026-04-19T14:58:59.987Z</time></trkpt><trkpt lat="44.4911933" lon="10.57375"><ele>341.0</ele><time>2026-04-19T14:59:00.987Z</time></trkpt><trkpt lat="44.4913817" lon="10.57385"><ele>339.0</ele><time>2026-04-19T14:59:01.987Z</time></trkpt><trkpt lat="44.49157" lon="10.5739517"><ele>339.0</ele><time>2026-04-19T14:59:02.987Z</time></trkpt><trkpt lat="44.491765" lon="10.57405"><ele>339.0</ele><time>2026-04-19T14:59:03.987Z</time></trkpt><trkpt lat="44.4919467" lon="10.5741117"><ele>339.0</ele><time>2026-04-19T14:59:04.987Z</time></trkpt><trkpt lat="44.4921217" lon="10.5741067"><ele>339.0</ele><time>2026-04-19T14:59:05.987Z</time></trkpt><trkpt lat="44.492295" lon="10.5740867"><ele>339.0</ele><time>2026-04-19T14:59:06.987Z</time></trkpt><trkpt lat="44.4924683" lon="10.5740667"><ele>339.0</ele><time>2026-04-19T14:59:07.987Z</time></trkpt><trkpt lat="44.49265" lon="10.57409"><ele>339.0</ele><time>2026-04-19T14:59:08.987Z</time></trkpt><trkpt lat="44.4928267" lon="10.574145"><ele>339.0</ele><time>2026-04-19T14:59:09.987Z</time></trkpt><trkpt lat="44.49301" lon="10.5742467"><ele>339.0</ele><time>2026-04-19T14:59:10.987Z</time></trkpt><trkpt lat="44.4932" lon="10.5743733"><ele>338.3333333333333</ele><time>2026-04-19T14:59:11.987Z</time></trkpt><trkpt lat="44.4933967" lon="10.5745033"><ele>337.66666666666663</ele><time>2026-04-19T14:59:12.987Z</time></trkpt><trkpt lat="44.493575" lon="10.5746233"><ele>337.0</ele><time>2026-04-19T14:59:13.987Z</time></trkpt><trkpt lat="44.4937683" lon="10.5747617"><ele>337.0</ele><time>2026-04-19T14:59:14.987Z</time></trkpt><trkpt lat="44.49395" lon="10.5748983"><ele>337.0</ele><time>2026-04-19T14:59:15.987Z</time></trkpt><trkpt lat="44.4941217" lon="10.5750167"><ele>337.0</ele><time>2026-04-19T14:59:16.987Z</time></trkpt><trkpt lat="44.4942867" lon="10.5751217"><ele>337.0</ele><time>2026-04-19T14:59:17.987Z</time></trkpt><trkpt lat="44.4944483" lon="10.5752217"><ele>337.0</ele><time>2026-04-19T14:59:18.987Z</time></trkpt><trkpt lat="44.4945967" lon="10.5753283"><ele>337.0</ele><time>2026-04-19T14:59:19.987Z</time></trkpt><trkpt lat="44.4947267" lon="10.575445"><ele>336.25</ele><time>2026-04-19T14:59:20.987Z</time></trkpt><trkpt lat="44.4948567" lon="10.5755483"><ele>335.5</ele><time>2026-04-19T14:59:21.987Z</time></trkpt><trkpt lat="44.4949917" lon="10.5756333"><ele>334.75</ele><time>2026-04-19T14:59:22.987Z</time></trkpt><trkpt lat="44.4951367" lon="10.5756817"><ele>334.0</ele><time>2026-04-19T14:59:23.987Z</time></trkpt><trkpt lat="44.495295" lon="10.5756983"><ele>334.66666666666663</ele><time>2026-04-19T14:59:24.987Z</time></trkpt><trkpt lat="44.4954567" lon="10.575705"><ele>335.3333333333333</ele><time>2026-04-19T14:59:25.987Z</time></trkpt><trkpt lat="44.49562" lon="10.57572"><ele>336.0</ele><time>2026-04-19T14:59:26.987Z</time></trkpt><trkpt lat="44.4957733" lon="10.5757683"><ele>336.0</ele><time>2026-04-19T14:59:27.987Z</time></trkpt><trkpt lat="44.49592" lon="10.5758483"><ele>336.0</ele><time>2026-04-19T14:59:28.987Z</time></trkpt><trkpt lat="44.49604" lon="10.575955"><ele>336.0</ele><time>2026-04-19T14:59:29.987Z</time></trkpt><trkpt lat="44.4961417" lon="10.576055"><ele>336.0</ele><time>2026-04-19T14:59:30.987Z</time></trkpt><trkpt lat="44.4962567" lon="10.5761433"><ele>334.6666666666667</ele><time>2026-04-19T14:59:31.987Z</time></trkpt><trkpt lat="44.4964" lon="10.5762283"><ele>333.33333333333337</ele><time>2026-04-19T14:59:32.987Z</time></trkpt><trkpt lat="44.4965717" lon="10.5763067"><ele>332.0</ele><time>2026-04-19T14:59:33.987Z</time></trkpt><trkpt lat="44.49675" lon="10.5763717"><ele>332.0</ele><time>2026-04-19T14:59:34.987Z</time></trkpt><trkpt lat="44.4969467" lon="10.5764083"><ele>332.0</ele><time>2026-04-19T14:59:35.987Z</time></trkpt><trkpt lat="44.4971483" lon="10.5764167"><ele>332.0</ele><time>2026-04-19T14:59:36.987Z</time></trkpt><trkpt lat="44.4973567" lon="10.5763883"><ele>331.6666666666667</ele><time>2026-04-19T14:59:37.987Z</time></trkpt><trkpt lat="44.4975767" lon="10.5763517"><ele>331.3333333333333</ele><time>2026-04-19T14:59:38.988Z</time></trkpt><trkpt lat="44.4978" lon="10.576305"><ele>331.0</ele><time>2026-04-19T14:59:39.987Z</time></trkpt><trkpt lat="44.4980233" lon="10.57625"><ele>329.66666666666663</ele><time>2026-04-19T14:59:40.987Z</time></trkpt><trkpt lat="44.4982367" lon="10.5761967"><ele>328.3333333333333</ele><time>2026-04-19T14:59:41.987Z</time></trkpt><trkpt lat="44.4984383" lon="10.5761567"><ele>327.0</ele><time>2026-04-19T14:59:42.987Z</time></trkpt><trkpt lat="44.498625" lon="10.57613"><ele>328.0</ele><time>2026-04-19T14:59:43.987Z</time></trkpt><trkpt lat="44.4988133" lon="10.5761433"><ele>329.0</ele><time>2026-04-19T14:59:44.987Z</time></trkpt><trkpt lat="44.4989833" lon="10.5762067"><ele>330.0</ele><time>2026-04-19T14:59:45.987Z</time></trkpt><trkpt lat="44.4991467" lon="10.5763117"><ele>330.0</ele><time>2026-04-19T14:59:46.987Z</time></trkpt><trkpt lat="44.4992983" lon="10.57644"><ele>330.0</ele><time>2026-04-19T14:59:47.987Z</time></trkpt><trkpt lat="44.4994467" lon="10.5766017"><ele>330.0</ele><time>2026-04-19T14:59:48.987Z</time></trkpt><trkpt lat="44.499585" lon="10.5768033"><ele>331.3333333333333</ele><time>2026-04-19T14:59:49.987Z</time></trkpt><trkpt lat="44.499715" lon="10.57704"><ele>332.66666666666663</ele><time>2026-04-19T14:59:50.987Z</time></trkpt><trkpt lat="44.4998433" lon="10.5772933"><ele>334.0</ele><time>2026-04-19T14:59:51.987Z</time></trkpt><trkpt lat="44.4999633" lon="10.5775467"><ele>334.0</ele><time>2026-04-19T14:59:52.987Z</time></trkpt><trkpt lat="44.5000767" lon="10.577775"><ele>334.0</ele><time>2026-04-19T14:59:53.987Z</time></trkpt><trkpt lat="44.5001717" lon="10.5779933"><ele>334.0</ele><time>2026-04-19T14:59:54.987Z</time></trkpt><trkpt lat="44.5002467" lon="10.5782183"><ele>331.66666666666663</ele><time>2026-04-19T14:59:55.987Z</time></trkpt><trkpt lat="44.5002967" lon="10.5784467"><ele>329.3333333333333</ele><time>2026-04-19T14:59:56.987Z</time></trkpt><trkpt lat="44.5003217" lon="10.578665"><ele>327.0</ele><time>2026-04-19T14:59:57.987Z</time></trkpt><trkpt lat="44.5003533" lon="10.5788633"><ele>326.0</ele><time>2026-04-19T14:59:58.987Z</time></trkpt><trkpt lat="44.5004133" lon="10.5790417"><ele>325.0</ele><time>2026-04-19T14:59:59.987Z</time></trkpt><trkpt lat="44.5005183" lon="10.5792067"><ele>324.0</ele><time>2026-04-19T15:00:00.987Z</time></trkpt><trkpt lat="44.50066" lon="10.5793583"><ele>324.3333333333333</ele><time>2026-04-19T15:00:01.987Z</time></trkpt><trkpt lat="44.5008133" lon="10.5795233"><ele>324.66666666666663</ele><time>2026-04-19T15:00:02.987Z</time></trkpt><trkpt lat="44.5009717" lon="10.5797117"><ele>325.0</ele><time>2026-04-19T15:00:03.987Z</time></trkpt><trkpt lat="44.5011133" lon="10.579905"><ele>325.0</ele><time>2026-04-19T15:00:04.987Z</time></trkpt><trkpt lat="44.5012417" lon="10.5801033"><ele>325.0</ele><time>2026-04-19T15:00:05.987Z</time></trkpt><trkpt lat="44.5013483" lon="10.5803017"><ele>325.0</ele><time>2026-04-19T15:00:06.987Z</time></trkpt><trkpt lat="44.501455" lon="10.5805133"><ele>326.3333333333333</ele><time>2026-04-19T15:00:07.987Z</time></trkpt><trkpt lat="44.5015683" lon="10.5807133"><ele>327.6666666666667</ele><time>2026-04-19T15:00:08.987Z</time></trkpt><trkpt lat="44.5017067" lon="10.580885"><ele>329.0</ele><time>2026-04-19T15:00:09.987Z</time></trkpt><trkpt lat="44.5018617" lon="10.581025"><ele>329.0</ele><time>2026-04-19T15:00:10.987Z</time></trkpt><trkpt lat="44.502035" lon="10.58115"><ele>329.0</ele><time>2026-04-19T15:00:11.987Z</time></trkpt><trkpt lat="44.5022083" lon="10.58128"><ele>329.0</ele><time>2026-04-19T15:00:12.987Z</time></trkpt><trkpt lat="44.5023683" lon="10.5814417"><ele>328.0</ele><time>2026-04-19T15:00:13.987Z</time></trkpt><trkpt lat="44.5025" lon="10.58165"><ele>327.0</ele><time>2026-04-19T15:00:14.987Z</time></trkpt><trkpt lat="44.502625" lon="10.581875"><ele>326.0</ele><time>2026-04-19T15:00:15.987Z</time></trkpt><trkpt lat="44.5027517" lon="10.5821017"><ele>326.0</ele><time>2026-04-19T15:00:16.987Z</time></trkpt><trkpt lat="44.50289" lon="10.5823267"><ele>326.0</ele><time>2026-04-19T15:00:17.987Z</time></trkpt><trkpt lat="44.5030267" lon="10.58256"><ele>326.0</ele><time>2026-04-19T15:00:18.987Z</time></trkpt><trkpt lat="44.5031567" lon="10.5827867"><ele>322.33333333333337</ele><time>2026-04-19T15:00:19.987Z</time></trkpt><trkpt lat="44.5032817" lon="10.583005"><ele>318.6666666666667</ele><time>2026-04-19T15:00:20.987Z</time></trkpt><trkpt lat="44.50341" lon="10.5832117"><ele>315.0</ele><time>2026-04-19T15:00:21.988Z</time></trkpt><trkpt lat="44.5035467" lon="10.5833933"><ele>315.0</ele><time>2026-04-19T15:00:22.987Z</time></trkpt><trkpt lat="44.5036867" lon="10.583565"><ele>315.0</ele><time>2026-04-19T15:00:23.987Z</time></trkpt><trkpt lat="44.5038083" lon="10.5837517"><ele>315.0</ele><time>2026-04-19T15:00:24.987Z</time></trkpt><trkpt lat="44.5039167" lon="10.5839483"><ele>316.0</ele><time>2026-04-19T15:00:25.987Z</time></trkpt><trkpt lat="44.5039983" lon="10.5841417"><ele>317.0</ele><time>2026-04-19T15:00:26.987Z</time></trkpt><trkpt lat="44.504065" lon="10.584325"><ele>318.0</ele><time>2026-04-19T15:00:27.987Z</time></trkpt><trkpt lat="44.5041433" lon="10.58448"><ele>319.0</ele><time>2026-04-19T15:00:28.987Z</time></trkpt><trkpt lat="44.5042517" lon="10.5846067"><ele>317.0</ele><time>2026-04-19T15:00:29.987Z</time></trkpt><trkpt lat="44.5045417" lon="10.584785"><ele>315.0</ele><time>2026-04-19T15:00:31.987Z</time></trkpt><trkpt lat="44.5046967" lon="10.58487"><ele>315.0</ele><time>2026-04-19T15:00:32.987Z</time></trkpt><trkpt lat="44.504835" lon="10.5849633"><ele>315.0</ele><time>2026-04-19T15:00:33.987Z</time></trkpt><trkpt lat="44.5049583" lon="10.5850733"><ele>315.0</ele><time>2026-04-19T15:00:34.987Z</time></trkpt><trkpt lat="44.5050583" lon="10.5852033"><ele>315.0</ele><time>2026-04-19T15:00:35.987Z</time></trkpt><trkpt lat="44.5051567" lon="10.5853517"><ele>312.5</ele><time>2026-04-19T15:00:36.987Z</time></trkpt><trkpt lat="44.50523" lon="10.5855067"><ele>310.0</ele><time>2026-04-19T15:00:37.987Z</time></trkpt><trkpt lat="44.505275" lon="10.58566"><ele>307.5</ele><time>2026-04-19T15:00:38.987Z</time></trkpt><trkpt lat="44.5053217" lon="10.5858033"><ele>305.0</ele><time>2026-04-19T15:00:39.987Z</time></trkpt><trkpt lat="44.50537" lon="10.5859583"><ele>305.25</ele><time>2026-04-19T15:00:40.987Z</time></trkpt><trkpt lat="44.5054233" lon="10.5861067"><ele>305.5</ele><time>2026-04-19T15:00:41.987Z</time></trkpt><trkpt lat="44.505485" lon="10.5862483"><ele>305.75</ele><time>2026-04-19T15:00:42.987Z</time></trkpt><trkpt lat="44.5055783" lon="10.5863683"><ele>306.0</ele><time>2026-04-19T15:00:43.987Z</time></trkpt><trkpt lat="44.5056933" lon="10.5864567"><ele>307.3333333333333</ele><time>2026-04-19T15:00:44.987Z</time></trkpt><trkpt lat="44.5058383" lon="10.586525"><ele>308.66666666666663</ele><time>2026-04-19T15:00:45.987Z</time></trkpt><trkpt lat="44.5060183" lon="10.5865883"><ele>310.0</ele><time>2026-04-19T15:00:46.987Z</time></trkpt><trkpt lat="44.506215" lon="10.58665"><ele>308.3333333333333</ele><time>2026-04-19T15:00:47.987Z</time></trkpt><trkpt lat="44.506415" lon="10.5867067"><ele>306.6666666666667</ele><time>2026-04-19T15:00:48.987Z</time></trkpt><trkpt lat="44.5066167" lon="10.58676"><ele>305.0</ele><time>2026-04-19T15:00:49.987Z</time></trkpt><trkpt lat="44.50681" lon="10.5868133"><ele>305.0</ele><time>2026-04-19T15:00:50.987Z</time></trkpt><trkpt lat="44.5069983" lon="10.58687"><ele>305.0</ele><time>2026-04-19T15:00:51.987Z</time></trkpt><trkpt lat="44.507175" lon="10.5869367"><ele>305.0</ele><time>2026-04-19T15:00:52.987Z</time></trkpt><trkpt lat="44.5073517" lon="10.58705"><ele>305.33333333333337</ele><time>2026-04-19T15:00:53.987Z</time></trkpt><trkpt lat="44.507515" lon="10.5871817"><ele>305.6666666666667</ele><time>2026-04-19T15:00:54.987Z</time></trkpt><trkpt lat="44.5076583" lon="10.58734"><ele>306.0</ele><time>2026-04-19T15:00:55.987Z</time></trkpt><trkpt lat="44.50778" lon="10.5875033"><ele>306.0</ele><time>2026-04-19T15:00:56.987Z</time></trkpt><trkpt lat="44.5078867" lon="10.58766"><ele>306.0</ele><time>2026-04-19T15:00:57.987Z</time></trkpt><trkpt lat="44.507985" lon="10.5878033"><ele>306.0</ele><time>2026-04-19T15:00:58.987Z</time></trkpt><trkpt lat="44.5080883" lon="10.5879567"><ele>306.0</ele><time>2026-04-19T15:00:59.987Z</time></trkpt><trkpt lat="44.5082033" lon="10.588095"><ele>305.3333333333333</ele><time>2026-04-19T15:01:00.987Z</time></trkpt><trkpt lat="44.5083417" lon="10.588215"><ele>304.66666666666663</ele><time>2026-04-19T15:01:01.987Z</time></trkpt><trkpt lat="44.5084917" lon="10.588305"><ele>304.0</ele><time>2026-04-19T15:01:02.987Z</time></trkpt><trkpt lat="44.5086583" lon="10.588375"><ele>302.3333333333333</ele><time>2026-04-19T15:01:03.987Z</time></trkpt><trkpt lat="44.508855" lon="10.5884267"><ele>300.6666666666667</ele><time>2026-04-19T15:01:04.987Z</time></trkpt><trkpt lat="44.5090517" lon="10.588475"><ele>299.0</ele><time>2026-04-19T15:01:05.987Z</time></trkpt><trkpt lat="44.5092633" lon="10.588545"><ele>299.0</ele><time>2026-04-19T15:01:06.987Z</time></trkpt><trkpt lat="44.50947" lon="10.5886233"><ele>299.0</ele><time>2026-04-19T15:01:07.987Z</time></trkpt><trkpt lat="44.5096767" lon="10.5887217"><ele>299.0</ele><time>2026-04-19T15:01:08.987Z</time></trkpt><trkpt lat="44.5098833" lon="10.5888033"><ele>299.6666666666667</ele><time>2026-04-19T15:01:09.987Z</time></trkpt><trkpt lat="44.510085" lon="10.5888983"><ele>300.3333333333333</ele><time>2026-04-19T15:01:10.987Z</time></trkpt><trkpt lat="44.5102883" lon="10.58902"><ele>301.0</ele><time>2026-04-19T15:01:11.987Z</time></trkpt><trkpt lat="44.510495" lon="10.5891517"><ele>297.0</ele><time>2026-04-19T15:01:12.987Z</time></trkpt><trkpt lat="44.510705" lon="10.589285"><ele>293.0</ele><time>2026-04-19T15:01:13.987Z</time></trkpt><trkpt lat="44.51092" lon="10.589415"><ele>294.5</ele><time>2026-04-19T15:01:14.987Z</time></trkpt><trkpt lat="44.5111417" lon="10.5895517"><ele>296.0</ele><time>2026-04-19T15:01:15.987Z</time></trkpt><trkpt lat="44.5113733" lon="10.5896983"><ele>293.0</ele><time>2026-04-19T15:01:16.988Z</time></trkpt><trkpt lat="44.511605" lon="10.589835"><ele>290.0</ele><time>2026-04-19T15:01:17.987Z</time></trkpt><trkpt lat="44.51184" lon="10.58997"><ele>290.0</ele><time>2026-04-19T15:01:18.987Z</time></trkpt><trkpt lat="44.5120717" lon="10.59011"><ele>290.0</ele><time>2026-04-19T15:01:19.987Z</time></trkpt><trkpt lat="44.5122917" lon="10.5902383"><ele>288.5</ele><time>2026-04-19T15:01:20.987Z</time></trkpt><trkpt lat="44.5125017" lon="10.5903783"><ele>287.0</ele><time>2026-04-19T15:01:21.987Z</time></trkpt><trkpt lat="44.512705" lon="10.5905333"><ele>287.0</ele><time>2026-04-19T15:01:22.987Z</time></trkpt><trkpt lat="44.5129017" lon="10.5907117"><ele>287.0</ele><time>2026-04-19T15:01:23.987Z</time></trkpt><trkpt lat="44.5130967" lon="10.5908983"><ele>287.5</ele><time>2026-04-19T15:01:24.987Z</time></trkpt><trkpt lat="44.51329" lon="10.59109"><ele>288.0</ele><time>2026-04-19T15:01:25.987Z</time></trkpt><trkpt lat="44.513485" lon="10.5912717"><ele>288.0</ele><time>2026-04-19T15:01:26.987Z</time></trkpt><trkpt lat="44.5136817" lon="10.5914483"><ele>288.0</ele><time>2026-04-19T15:01:27.987Z</time></trkpt><trkpt lat="44.5138683" lon="10.5916217"><ele>287.6666666666667</ele><time>2026-04-19T15:01:28.988Z</time></trkpt><trkpt lat="44.51405" lon="10.5917917"><ele>287.33333333333337</ele><time>2026-04-19T15:01:29.987Z</time></trkpt><trkpt lat="44.5142283" lon="10.591965"><ele>287.0</ele><time>2026-04-19T15:01:30.987Z</time></trkpt><trkpt lat="44.5144083" lon="10.5921217"><ele>289.6666666666667</ele><time>2026-04-19T15:01:31.987Z</time></trkpt><trkpt lat="44.5145833" lon="10.5922667"><ele>292.3333333333333</ele><time>2026-04-19T15:01:32.987Z</time></trkpt><trkpt lat="44.5147633" lon="10.5924183"><ele>295.0</ele><time>2026-04-19T15:01:33.987Z</time></trkpt><trkpt lat="44.5149517" lon="10.59256"><ele>295.0</ele><time>2026-04-19T15:01:34.987Z</time></trkpt><trkpt lat="44.5151433" lon="10.592695"><ele>295.0</ele><time>2026-04-19T15:01:35.987Z</time></trkpt><trkpt lat="44.5153317" lon="10.5928167"><ele>295.0</ele><time>2026-04-19T15:01:36.987Z</time></trkpt><trkpt lat="44.5155267" lon="10.5929467"><ele>294.0</ele><time>2026-04-19T15:01:37.987Z</time></trkpt><trkpt lat="44.51572" lon="10.5930567"><ele>293.0</ele><time>2026-04-19T15:01:38.987Z</time></trkpt><trkpt lat="44.51591" lon="10.5931667"><ele>292.0</ele><time>2026-04-19T15:01:39.987Z</time></trkpt><trkpt lat="44.51609" lon="10.593265"><ele>293.0</ele><time>2026-04-19T15:01:40.987Z</time></trkpt><trkpt lat="44.51626" lon="10.5933683"><ele>294.0</ele><time>2026-04-19T15:01:41.987Z</time></trkpt><trkpt lat="44.51642" lon="10.5934567"><ele>295.0</ele><time>2026-04-19T15:01:42.987Z</time></trkpt><trkpt lat="44.5165683" lon="10.593535"><ele>295.0</ele><time>2026-04-19T15:01:43.987Z</time></trkpt><trkpt lat="44.5167117" lon="10.5935867"><ele>295.0</ele><time>2026-04-19T15:01:44.987Z</time></trkpt><trkpt lat="44.51686" lon="10.5936133"><ele>295.0</ele><time>2026-04-19T15:01:45.987Z</time></trkpt><trkpt lat="44.5170133" lon="10.593595"><ele>296.66666666666663</ele><time>2026-04-19T15:01:46.987Z</time></trkpt><trkpt lat="44.517165" lon="10.5935667"><ele>298.3333333333333</ele><time>2026-04-19T15:01:47.987Z</time></trkpt><trkpt lat="44.5173167" lon="10.5935483"><ele>300.0</ele><time>2026-04-19T15:01:48.987Z</time></trkpt><trkpt lat="44.51747" lon="10.5935717"><ele>300.0</ele><time>2026-04-19T15:01:49.987Z</time></trkpt><trkpt lat="44.5176183" lon="10.59364"><ele>300.0</ele><time>2026-04-19T15:01:50.987Z</time></trkpt><trkpt lat="44.5177517" lon="10.5937767"><ele>300.0</ele><time>2026-04-19T15:01:51.987Z</time></trkpt><trkpt lat="44.5178767" lon="10.5939567"><ele>295.6666666666667</ele><time>2026-04-19T15:01:52.987Z</time></trkpt><trkpt lat="44.5179967" lon="10.5941383"><ele>291.33333333333337</ele><time>2026-04-19T15:01:53.987Z</time></trkpt><trkpt lat="44.5180867" lon="10.5943317"><ele>287.0</ele><time>2026-04-19T15:01:54.987Z</time></trkpt><trkpt lat="44.5181717" lon="10.5945117"><ele>284.33333333333337</ele><time>2026-04-19T15:01:55.987Z</time></trkpt><trkpt lat="44.5182717" lon="10.5946617"><ele>281.6666666666667</ele><time>2026-04-19T15:01:56.987Z</time></trkpt><trkpt lat="44.518395" lon="10.5947883"><ele>279.0</ele><time>2026-04-19T15:01:57.987Z</time></trkpt><trkpt lat="44.5185483" lon="10.5948883"><ele>279.0</ele><time>2026-04-19T15:01:58.987Z</time></trkpt><trkpt lat="44.5187017" lon="10.5949767"><ele>279.0</ele><time>2026-04-19T15:01:59.987Z</time></trkpt><trkpt lat="44.51887" lon="10.5950583"><ele>279.0</ele><time>2026-04-19T15:02:00.987Z</time></trkpt><trkpt lat="44.5190417" lon="10.5951467"><ele>278.0</ele><time>2026-04-19T15:02:01.987Z</time></trkpt><trkpt lat="44.519215" lon="10.5952417"><ele>277.0</ele><time>2026-04-19T15:02:02.987Z</time></trkpt><trkpt lat="44.5193783" lon="10.5953233"><ele>276.0</ele><time>2026-04-19T15:02:03.987Z</time></trkpt><trkpt lat="44.5195333" lon="10.5954083"><ele>276.6666666666667</ele><time>2026-04-19T15:02:04.987Z</time></trkpt><trkpt lat="44.5196883" lon="10.5955133"><ele>277.33333333333337</ele><time>2026-04-19T15:02:05.987Z</time></trkpt><trkpt lat="44.51984" lon="10.5956283"><ele>278.0</ele><time>2026-04-19T15:02:06.987Z</time></trkpt><trkpt lat="44.5199933" lon="10.595735"><ele>278.0</ele><time>2026-04-19T15:02:07.987Z</time></trkpt><trkpt lat="44.5201467" lon="10.5958183"><ele>278.0</ele><time>2026-04-19T15:02:08.987Z</time></trkpt><trkpt lat="44.5203133" lon="10.5958733"><ele>278.0</ele><time>2026-04-19T15:02:09.987Z</time></trkpt><trkpt lat="44.5204933" lon="10.5958883"><ele>279.0</ele><time>2026-04-19T15:02:10.987Z</time></trkpt><trkpt lat="44.5206867" lon="10.595865"><ele>280.0</ele><time>2026-04-19T15:02:11.987Z</time></trkpt><trkpt lat="44.5208783" lon="10.5958333"><ele>281.0</ele><time>2026-04-19T15:02:12.987Z</time></trkpt><trkpt lat="44.5210683" lon="10.5957967"><ele>279.33333333333337</ele><time>2026-04-19T15:02:13.987Z</time></trkpt><trkpt lat="44.521255" lon="10.5957683"><ele>277.6666666666667</ele><time>2026-04-19T15:02:14.987Z</time></trkpt><trkpt lat="44.5214433" lon="10.59575"><ele>276.0</ele><time>2026-04-19T15:02:15.987Z</time></trkpt><trkpt lat="44.52163" lon="10.5957633"><ele>276.0</ele><time>2026-04-19T15:02:16.987Z</time></trkpt><trkpt lat="44.52182" lon="10.59578"><ele>276.0</ele><time>2026-04-19T15:02:17.987Z</time></trkpt><trkpt lat="44.52201" lon="10.59582"><ele>276.0</ele><time>2026-04-19T15:02:18.987Z</time></trkpt><trkpt lat="44.5221983" lon="10.5958367"><ele>273.3333333333333</ele><time>2026-04-19T15:02:19.987Z</time></trkpt><trkpt lat="44.52238" lon="10.59583"><ele>270.66666666666663</ele><time>2026-04-19T15:02:20.987Z</time></trkpt><trkpt lat="44.5225633" lon="10.5958083"><ele>268.0</ele><time>2026-04-19T15:02:21.987Z</time></trkpt><trkpt lat="44.522745" lon="10.595755"><ele>266.66666666666663</ele><time>2026-04-19T15:02:22.987Z</time></trkpt><trkpt lat="44.5229333" lon="10.5956783"><ele>265.3333333333333</ele><time>2026-04-19T15:02:23.987Z</time></trkpt><trkpt lat="44.5231217" lon="10.5956117"><ele>264.0</ele><time>2026-04-19T15:02:24.987Z</time></trkpt><trkpt lat="44.52331" lon="10.5955433"><ele>264.0</ele><time>2026-04-19T15:02:25.987Z</time></trkpt><trkpt lat="44.5234967" lon="10.5954767"><ele>264.0</ele><time>2026-04-19T15:02:26.987Z</time></trkpt><trkpt lat="44.52368" lon="10.5954117"><ele>264.0</ele><time>2026-04-19T15:02:27.987Z</time></trkpt><trkpt lat="44.52386" lon="10.5953517"><ele>264.0</ele><time>2026-04-19T15:02:28.987Z</time></trkpt><trkpt lat="44.524035" lon="10.5952883"><ele>264.0</ele><time>2026-04-19T15:02:29.987Z</time></trkpt><trkpt lat="44.5242033" lon="10.5952383"><ele>264.0</ele><time>2026-04-19T15:02:30.987Z</time></trkpt><trkpt lat="44.524375" lon="10.595205"><ele>264.0</ele><time>2026-04-19T15:02:31.987Z</time></trkpt><trkpt lat="44.5245467" lon="10.595195"><ele>264.0</ele><time>2026-04-19T15:02:32.987Z</time></trkpt><trkpt lat="44.5247183" lon="10.5952017"><ele>264.0</ele><time>2026-04-19T15:02:33.987Z</time></trkpt><trkpt lat="44.5248917" lon="10.59524"><ele>265.3333333333333</ele><time>2026-04-19T15:02:34.987Z</time></trkpt><trkpt lat="44.5250767" lon="10.59532"><ele>266.66666666666663</ele><time>2026-04-19T15:02:35.987Z</time></trkpt><trkpt lat="44.525255" lon="10.5954317"><ele>268.0</ele><time>2026-04-19T15:02:36.987Z</time></trkpt><trkpt lat="44.5254467" lon="10.5955583"><ele>264.66666666666663</ele><time>2026-04-19T15:02:37.987Z</time></trkpt><trkpt lat="44.5256467" lon="10.59569"><ele>261.3333333333333</ele><time>2026-04-19T15:02:38.987Z</time></trkpt><trkpt lat="44.525845" lon="10.595835"><ele>258.0</ele><time>2026-04-19T15:02:39.987Z</time></trkpt><trkpt lat="44.526045" lon="10.59598"><ele>261.0</ele><time>2026-04-19T15:02:40.987Z</time></trkpt><trkpt lat="44.5262467" lon="10.5961483"><ele>264.0</ele><time>2026-04-19T15:02:41.987Z</time></trkpt><trkpt lat="44.5264283" lon="10.59633"><ele>264.0</ele><time>2026-04-19T15:02:42.987Z</time></trkpt><trkpt lat="44.5265867" lon="10.5965467"><ele>264.0</ele><time>2026-04-19T15:02:43.987Z</time></trkpt><trkpt lat="44.5267567" lon="10.5967683"><ele>264.0</ele><time>2026-04-19T15:02:44.987Z</time></trkpt><trkpt lat="44.52692" lon="10.5969783"><ele>264.0</ele><time>2026-04-19T15:02:45.987Z</time></trkpt><trkpt lat="44.52708" lon="10.597175"><ele>264.0</ele><time>2026-04-19T15:02:46.987Z</time></trkpt><trkpt lat="44.5272383" lon="10.5973767"><ele>265.0</ele><time>2026-04-19T15:02:47.988Z</time></trkpt><trkpt lat="44.527395" lon="10.5975517"><ele>266.0</ele><time>2026-04-19T15:02:48.987Z</time></trkpt><trkpt lat="44.52756" lon="10.5976983"><ele>267.0</ele><time>2026-04-19T15:02:49.987Z</time></trkpt><trkpt lat="44.52773" lon="10.5978317"><ele>264.3333333333333</ele><time>2026-04-19T15:02:50.987Z</time></trkpt><trkpt lat="44.5278967" lon="10.5979533"><ele>261.66666666666663</ele><time>2026-04-19T15:02:51.988Z</time></trkpt><trkpt lat="44.5280667" lon="10.5980717"><ele>259.0</ele><time>2026-04-19T15:02:52.987Z</time></trkpt><trkpt lat="44.528235" lon="10.5981917"><ele>259.0</ele><time>2026-04-19T15:02:53.987Z</time></trkpt><trkpt lat="44.5284067" lon="10.59831"><ele>259.0</ele><time>2026-04-19T15:02:54.987Z</time></trkpt><trkpt lat="44.5285783" lon="10.598425"><ele>259.0</ele><time>2026-04-19T15:02:55.987Z</time></trkpt><trkpt lat="44.5287533" lon="10.598525"><ele>257.66666666666663</ele><time>2026-04-19T15:02:56.987Z</time></trkpt><trkpt lat="44.5289333" lon="10.598615"><ele>256.3333333333333</ele><time>2026-04-19T15:02:57.987Z</time></trkpt><trkpt lat="44.5291183" lon="10.5986933"><ele>255.0</ele><time>2026-04-19T15:02:58.987Z</time></trkpt><trkpt lat="44.529305" lon="10.5987683"><ele>254.66666666666669</ele><time>2026-04-19T15:02:59.987Z</time></trkpt><trkpt lat="44.52949" lon="10.5988533"><ele>254.33333333333334</ele><time>2026-04-19T15:03:00.987Z</time></trkpt><trkpt lat="44.5296817" lon="10.5989317"><ele>254.0</ele><time>2026-04-19T15:03:01.987Z</time></trkpt><trkpt lat="44.529875" lon="10.599005"><ele>254.66666666666669</ele><time>2026-04-19T15:03:02.987Z</time></trkpt><trkpt lat="44.5300683" lon="10.5990617"><ele>255.33333333333331</ele><time>2026-04-19T15:03:03.987Z</time></trkpt><trkpt lat="44.5302633" lon="10.5990967"><ele>256.0</ele><time>2026-04-19T15:03:04.987Z</time></trkpt><trkpt lat="44.5304533" lon="10.5991167"><ele>256.0</ele><time>2026-04-19T15:03:05.987Z</time></trkpt><trkpt lat="44.5306317" lon="10.5991433"><ele>256.0</ele><time>2026-04-19T15:03:06.987Z</time></trkpt><trkpt lat="44.530795" lon="10.5991717"><ele>256.0</ele><time>2026-04-19T15:03:07.987Z</time></trkpt><trkpt lat="44.5309333" lon="10.599255"><ele>256.0</ele><time>2026-04-19T15:03:08.987Z</time></trkpt><trkpt lat="44.53105" lon="10.59937"><ele>256.0</ele><time>2026-04-19T15:03:09.988Z</time></trkpt><trkpt lat="44.53113" lon="10.5995267"><ele>256.0</ele><time>2026-04-19T15:03:10.987Z</time></trkpt><trkpt lat="44.5311617" lon="10.5997267"><ele>256.0</ele><time>2026-04-19T15:03:11.987Z</time></trkpt><trkpt lat="44.5311583" lon="10.5999533"><ele>255.33333333333331</ele><time>2026-04-19T15:03:12.987Z</time></trkpt><trkpt lat="44.53115" lon="10.6002083"><ele>254.66666666666669</ele><time>2026-04-19T15:03:13.987Z</time></trkpt><trkpt lat="44.53117" lon="10.6004583"><ele>254.0</ele><time>2026-04-19T15:03:14.987Z</time></trkpt><trkpt lat="44.5312383" lon="10.6007267"><ele>253.5</ele><time>2026-04-19T15:03:15.987Z</time></trkpt><trkpt lat="44.53133" lon="10.6010083"><ele>253.0</ele><time>2026-04-19T15:03:16.987Z</time></trkpt><trkpt lat="44.5314367" lon="10.6013033"><ele>256.0</ele><time>2026-04-19T15:03:17.987Z</time></trkpt><trkpt lat="44.5315417" lon="10.601595"><ele>259.0</ele><time>2026-04-19T15:03:18.987Z</time></trkpt><trkpt lat="44.5316517" lon="10.6018783"><ele>262.66666666666663</ele><time>2026-04-19T15:03:19.987Z</time></trkpt><trkpt lat="44.5317583" lon="10.6021583"><ele>266.3333333333333</ele><time>2026-04-19T15:03:20.987Z</time></trkpt><trkpt lat="44.5318567" lon="10.6024267"><ele>270.0</ele><time>2026-04-19T15:03:21.987Z</time></trkpt><trkpt lat="44.531945" lon="10.6026783"><ele>272.3333333333333</ele><time>2026-04-19T15:03:22.987Z</time></trkpt><trkpt lat="44.5320433" lon="10.6029183"><ele>274.66666666666663</ele><time>2026-04-19T15:03:23.987Z</time></trkpt><trkpt lat="44.5321567" lon="10.6031367"><ele>277.0</ele><time>2026-04-19T15:03:24.987Z</time></trkpt><trkpt lat="44.5322833" lon="10.6033567"><ele>271.0</ele><time>2026-04-19T15:03:25.987Z</time></trkpt><trkpt lat="44.5324183" lon="10.6035633"><ele>265.0</ele><time>2026-04-19T15:03:26.987Z</time></trkpt><trkpt lat="44.532565" lon="10.60377"><ele>259.0</ele><time>2026-04-19T15:03:27.987Z</time></trkpt><trkpt lat="44.532705" lon="10.6039867"><ele>259.0</ele><time>2026-04-19T15:03:28.987Z</time></trkpt><trkpt lat="44.5328317" lon="10.6041867"><ele>259.0</ele><time>2026-04-19T15:03:29.987Z</time></trkpt><trkpt lat="44.53295" lon="10.60439"><ele>259.0</ele><time>2026-04-19T15:03:30.987Z</time></trkpt><trkpt lat="44.533045" lon="10.6046433"><ele>254.66666666666666</ele><time>2026-04-19T15:03:31.987Z</time></trkpt><trkpt lat="44.5331283" lon="10.6049117"><ele>250.33333333333331</ele><time>2026-04-19T15:03:32.987Z</time></trkpt><trkpt lat="44.5332117" lon="10.6051983"><ele>246.0</ele><time>2026-04-19T15:03:33.987Z</time></trkpt><trkpt lat="44.5332933" lon="10.6054833"><ele>246.0</ele><time>2026-04-19T15:03:34.987Z</time></trkpt><trkpt lat="44.5333717" lon="10.605755"><ele>246.0</ele><time>2026-04-19T15:03:35.988Z</time></trkpt><trkpt lat="44.5334567" lon="10.606015"><ele>246.0</ele><time>2026-04-19T15:03:36.987Z</time></trkpt><trkpt lat="44.53354" lon="10.6062783"><ele>246.0</ele><time>2026-04-19T15:03:37.987Z</time></trkpt><trkpt lat="44.5336267" lon="10.6065317"><ele>246.0</ele><time>2026-04-19T15:03:38.987Z</time></trkpt><trkpt lat="44.5336967" lon="10.6067833"><ele>246.0</ele><time>2026-04-19T15:03:39.987Z</time></trkpt><trkpt lat="44.5337717" lon="10.60703"><ele>244.0</ele><time>2026-04-19T15:03:40.987Z</time></trkpt><trkpt lat="44.5338283" lon="10.6072817"><ele>242.0</ele><time>2026-04-19T15:03:41.987Z</time></trkpt><trkpt lat="44.533865" lon="10.607555"><ele>240.0</ele><time>2026-04-19T15:03:42.987Z</time></trkpt><trkpt lat="44.5338917" lon="10.6078283"><ele>240.0</ele><time>2026-04-19T15:03:43.987Z</time></trkpt><trkpt lat="44.5339183" lon="10.6081033"><ele>240.0</ele><time>2026-04-19T15:03:44.987Z</time></trkpt><trkpt lat="44.5339317" lon="10.6083683"><ele>240.0</ele><time>2026-04-19T15:03:45.987Z</time></trkpt><trkpt lat="44.53395" lon="10.6086383"><ele>241.33333333333331</ele><time>2026-04-19T15:03:46.987Z</time></trkpt><trkpt lat="44.5339717" lon="10.60893"><ele>242.66666666666666</ele><time>2026-04-19T15:03:47.987Z</time></trkpt><trkpt lat="44.5339917" lon="10.6092283"><ele>244.0</ele><time>2026-04-19T15:03:48.987Z</time></trkpt><trkpt lat="44.5340117" lon="10.6095267"><ele>244.0</ele><time>2026-04-19T15:03:49.987Z</time></trkpt><trkpt lat="44.53403" lon="10.6098167"><ele>244.0</ele><time>2026-04-19T15:03:50.987Z</time></trkpt><trkpt lat="44.534045" lon="10.6100833"><ele>244.0</ele><time>2026-04-19T15:03:51.987Z</time></trkpt><trkpt lat="44.53406" lon="10.6103567"><ele>244.33333333333331</ele><time>2026-04-19T15:03:52.987Z</time></trkpt><trkpt lat="44.5340733" lon="10.6106217"><ele>244.66666666666669</ele><time>2026-04-19T15:03:53.987Z</time></trkpt><trkpt lat="44.5340783" lon="10.6108733"><ele>245.0</ele><time>2026-04-19T15:03:54.987Z</time></trkpt><trkpt lat="44.5341067" lon="10.6110933"><ele>245.33333333333334</ele><time>2026-04-19T15:03:55.987Z</time></trkpt><trkpt lat="44.5341517" lon="10.6113133"><ele>245.66666666666669</ele><time>2026-04-19T15:03:56.987Z</time></trkpt><trkpt lat="44.534215" lon="10.611505"><ele>246.0</ele><time>2026-04-19T15:03:57.987Z</time></trkpt><trkpt lat="44.5343083" lon="10.6116683"><ele>246.0</ele><time>2026-04-19T15:03:58.987Z</time></trkpt><trkpt lat="44.53442" lon="10.6118233"><ele>246.0</ele><time>2026-04-19T15:03:59.987Z</time></trkpt><trkpt lat="44.5345383" lon="10.6119617"><ele>246.0</ele><time>2026-04-19T15:04:00.987Z</time></trkpt><trkpt lat="44.5346683" lon="10.612075"><ele>247.75</ele><time>2026-04-19T15:04:01.987Z</time></trkpt><trkpt lat="44.5347967" lon="10.6121817"><ele>249.5</ele><time>2026-04-19T15:04:02.987Z</time></trkpt><trkpt lat="44.5349167" lon="10.6122933"><ele>251.25</ele><time>2026-04-19T15:04:03.987Z</time></trkpt><trkpt lat="44.5350267" lon="10.6124"><ele>253.0</ele><time>2026-04-19T15:04:04.988Z</time></trkpt><trkpt lat="44.53512" lon="10.612505"><ele>253.0</ele><time>2026-04-19T15:04:05.987Z</time></trkpt><trkpt lat="44.5352033" lon="10.6126183"><ele>253.0</ele><time>2026-04-19T15:04:06.987Z</time></trkpt><trkpt lat="44.5352783" lon="10.6127317"><ele>253.0</ele><time>2026-04-19T15:04:07.987Z</time></trkpt><trkpt lat="44.5353367" lon="10.6128383"><ele>253.0</ele><time>2026-04-19T15:04:08.987Z</time></trkpt><trkpt lat="44.5353867" lon="10.6129433"><ele>253.0</ele><time>2026-04-19T15:04:09.987Z</time></trkpt><trkpt lat="44.5354333" lon="10.6130333"><ele>252.49999999999997</ele><time>2026-04-19T15:04:10.988Z</time></trkpt><trkpt lat="44.5354683" lon="10.6131083"><ele>252.0</ele><time>2026-04-19T15:04:11.987Z</time></trkpt><trkpt lat="44.5354967" lon="10.613215"><ele>251.5</ele><time>2026-04-19T15:04:13.987Z</time></trkpt><trkpt lat="44.53552" lon="10.6133117"><ele>251.0</ele><time>2026-04-19T15:04:17.987Z</time></trkpt><trkpt lat="44.53561" lon="10.6134083"><ele>250.49999999999997</ele><time>2026-04-19T15:04:27.987Z</time></trkpt><trkpt lat="44.535675" lon="10.613445"><ele>250.0</ele><time>2026-04-19T15:04:28.987Z</time></trkpt><trkpt lat="44.5357567" lon="10.6134683"><ele>250.0</ele><time>2026-04-19T15:04:29.988Z</time></trkpt><trkpt lat="44.53584" lon="10.613495"><ele>250.0</ele><time>2026-04-19T15:04:30.987Z</time></trkpt><trkpt lat="44.535925" lon="10.6135383"><ele>250.0</ele><time>2026-04-19T15:04:31.987Z</time></trkpt><trkpt lat="44.53602" lon="10.61359"><ele>250.0</ele><time>2026-04-19T15:04:32.987Z</time></trkpt><trkpt lat="44.536125" lon="10.61366"><ele>250.0</ele><time>2026-04-19T15:04:33.987Z</time></trkpt><trkpt lat="44.5362367" lon="10.6137383"><ele>249.75</ele><time>2026-04-19T15:04:34.987Z</time></trkpt><trkpt lat="44.5363567" lon="10.613815"><ele>249.5</ele><time>2026-04-19T15:04:35.987Z</time></trkpt><trkpt lat="44.5364667" lon="10.613905"><ele>249.25</ele><time>2026-04-19T15:04:36.987Z</time></trkpt><trkpt lat="44.5365733" lon="10.6140083"><ele>249.0</ele><time>2026-04-19T15:04:37.987Z</time></trkpt><trkpt lat="44.5366783" lon="10.6141217"><ele>249.0</ele><time>2026-04-19T15:04:38.987Z</time></trkpt><trkpt lat="44.5367817" lon="10.6142417"><ele>249.0</ele><time>2026-04-19T15:04:39.987Z</time></trkpt><trkpt lat="44.5368833" lon="10.614375"><ele>249.0</ele><time>2026-04-19T15:04:40.988Z</time></trkpt><trkpt lat="44.536975" lon="10.6145133"><ele>249.0</ele><time>2026-04-19T15:04:41.987Z</time></trkpt><trkpt lat="44.53704" lon="10.614665"><ele>245.75</ele><time>2026-04-19T15:04:42.987Z</time></trkpt><trkpt lat="44.5370833" lon="10.6148433"><ele>242.5</ele><time>2026-04-19T15:04:43.987Z</time></trkpt><trkpt lat="44.5371" lon="10.6150383"><ele>239.25</ele><time>2026-04-19T15:04:44.987Z</time></trkpt><trkpt lat="44.537105" lon="10.6152317"><ele>236.0</ele><time>2026-04-19T15:04:45.987Z</time></trkpt><trkpt lat="44.5371367" lon="10.6154183"><ele>236.0</ele><time>2026-04-19T15:04:46.987Z</time></trkpt><trkpt lat="44.537195" lon="10.6156067"><ele>236.0</ele><time>2026-04-19T15:04:47.988Z</time></trkpt><trkpt lat="44.53727" lon="10.6157767"><ele>236.0</ele><time>2026-04-19T15:04:48.987Z</time></trkpt><trkpt lat="44.537345" lon="10.6159333"><ele>236.0</ele><time>2026-04-19T15:04:49.987Z</time></trkpt><trkpt lat="44.537425" lon="10.6160817"><ele>236.75</ele><time>2026-04-19T15:04:50.987Z</time></trkpt><trkpt lat="44.5375183" lon="10.6162317"><ele>237.5</ele><time>2026-04-19T15:04:51.987Z</time></trkpt><trkpt lat="44.5376217" lon="10.6163817"><ele>238.25</ele><time>2026-04-19T15:04:52.987Z</time></trkpt><trkpt lat="44.5377367" lon="10.6165267"><ele>239.0</ele><time>2026-04-19T15:04:53.987Z</time></trkpt><trkpt lat="44.5378533" lon="10.6166667"><ele>238.33333333333334</ele><time>2026-04-19T15:04:54.987Z</time></trkpt><trkpt lat="44.537965" lon="10.6168083"><ele>237.66666666666669</ele><time>2026-04-19T15:04:55.987Z</time></trkpt><trkpt lat="44.5380667" lon="10.6169683"><ele>237.0</ele><time>2026-04-19T15:04:56.987Z</time></trkpt><trkpt lat="44.5381567" lon="10.617135"><ele>237.0</ele><time>2026-04-19T15:04:57.987Z</time></trkpt><trkpt lat="44.5382533" lon="10.6172833"><ele>237.0</ele><time>2026-04-19T15:04:58.987Z</time></trkpt><trkpt lat="44.53837" lon="10.617405"><ele>237.0</ele><time>2026-04-19T15:04:59.987Z</time></trkpt><trkpt lat="44.5385083" lon="10.6174783"><ele>237.0</ele><time>2026-04-19T15:05:00.987Z</time></trkpt><trkpt lat="44.53866" lon="10.61754"><ele>237.75</ele><time>2026-04-19T15:05:01.987Z</time></trkpt><trkpt lat="44.5388" lon="10.6176117"><ele>238.5</ele><time>2026-04-19T15:05:02.987Z</time></trkpt><trkpt lat="44.5389333" lon="10.6177033"><ele>239.25</ele><time>2026-04-19T15:05:03.987Z</time></trkpt><trkpt lat="44.5390633" lon="10.61781"><ele>240.0</ele><time>2026-04-19T15:05:04.987Z</time></trkpt><trkpt lat="44.539195" lon="10.617915"><ele>240.0</ele><time>2026-04-19T15:05:05.987Z</time></trkpt><trkpt lat="44.53933" lon="10.61801"><ele>240.0</ele><time>2026-04-19T15:05:06.987Z</time></trkpt><trkpt lat="44.5394767" lon="10.6180883"><ele>240.0</ele><time>2026-04-19T15:05:07.987Z</time></trkpt><trkpt lat="44.539625" lon="10.6181467"><ele>235.66666666666669</ele><time>2026-04-19T15:05:08.987Z</time></trkpt><trkpt lat="44.5397767" lon="10.61818"><ele>231.33333333333334</ele><time>2026-04-19T15:05:09.987Z</time></trkpt><trkpt lat="44.5399383" lon="10.6181767"><ele>227.0</ele><time>2026-04-19T15:05:10.987Z</time></trkpt><trkpt lat="44.5400983" lon="10.6181283"><ele>227.0</ele><time>2026-04-19T15:05:11.987Z</time></trkpt><trkpt lat="44.5402633" lon="10.6180783"><ele>227.0</ele><time>2026-04-19T15:05:12.987Z</time></trkpt><trkpt lat="44.5404217" lon="10.6180183"><ele>227.0</ele><time>2026-04-19T15:05:13.987Z</time></trkpt><trkpt lat="44.540575" lon="10.617955"><ele>225.75</ele><time>2026-04-19T15:05:14.987Z</time></trkpt><trkpt lat="44.5407267" lon="10.617895"><ele>224.5</ele><time>2026-04-19T15:05:15.987Z</time></trkpt><trkpt lat="44.54087" lon="10.61785"><ele>223.25</ele><time>2026-04-19T15:05:16.987Z</time></trkpt><trkpt lat="44.541005" lon="10.6177983"><ele>222.0</ele><time>2026-04-19T15:05:17.987Z</time></trkpt><trkpt lat="44.541135" lon="10.6177567"><ele>223.0</ele><time>2026-04-19T15:05:18.987Z</time></trkpt><trkpt lat="44.541265" lon="10.6177417"><ele>224.0</ele><time>2026-04-19T15:05:19.987Z</time></trkpt><trkpt lat="44.5413883" lon="10.61776"><ele>225.0</ele><time>2026-04-19T15:05:20.987Z</time></trkpt><trkpt lat="44.5415083" lon="10.617825"><ele>226.0</ele><time>2026-04-19T15:05:21.987Z</time></trkpt><trkpt lat="44.5416217" lon="10.6179283"><ele>226.0</ele><time>2026-04-19T15:05:22.987Z</time></trkpt><trkpt lat="44.5417083" lon="10.6180683"><ele>226.0</ele><time>2026-04-19T15:05:23.987Z</time></trkpt><trkpt lat="44.5418017" lon="10.61822"><ele>226.0</ele><time>2026-04-19T15:05:24.987Z</time></trkpt><trkpt lat="44.5418733" lon="10.6184"><ele>226.0</ele><time>2026-04-19T15:05:25.987Z</time></trkpt><trkpt lat="44.5419433" lon="10.6185833"><ele>225.75</ele><time>2026-04-19T15:05:26.987Z</time></trkpt><trkpt lat="44.5420083" lon="10.6187533"><ele>225.5</ele><time>2026-04-19T15:05:27.987Z</time></trkpt><trkpt lat="44.5420733" lon="10.6189083"><ele>225.25</ele><time>2026-04-19T15:05:28.987Z</time></trkpt><trkpt lat="44.5421317" lon="10.6190633"><ele>225.0</ele><time>2026-04-19T15:05:29.987Z</time></trkpt><trkpt lat="44.5421917" lon="10.61921"><ele>226.25</ele><time>2026-04-19T15:05:30.987Z</time></trkpt><trkpt lat="44.54225" lon="10.6193583"><ele>227.5</ele><time>2026-04-19T15:05:31.987Z</time></trkpt><trkpt lat="44.5423133" lon="10.6195033"><ele>228.75</ele><time>2026-04-19T15:05:32.987Z</time></trkpt><trkpt lat="44.5423917" lon="10.6196433"><ele>230.0</ele><time>2026-04-19T15:05:33.987Z</time></trkpt><trkpt lat="44.5424733" lon="10.6197617"><ele>230.0</ele><time>2026-04-19T15:05:34.987Z</time></trkpt><trkpt lat="44.542555" lon="10.61987"><ele>230.0</ele><time>2026-04-19T15:05:35.987Z</time></trkpt><trkpt lat="44.5426333" lon="10.6199667"><ele>230.0</ele><time>2026-04-19T15:05:36.987Z</time></trkpt><trkpt lat="44.542715" lon="10.6200667"><ele>230.0</ele><time>2026-04-19T15:05:37.987Z</time></trkpt><trkpt lat="44.5427917" lon="10.6201667"><ele>230.0</ele><time>2026-04-19T15:05:38.987Z</time></trkpt><trkpt lat="44.54287" lon="10.6202633"><ele>229.8</ele><time>2026-04-19T15:05:39.987Z</time></trkpt><trkpt lat="44.5429483" lon="10.6203533"><ele>229.6</ele><time>2026-04-19T15:05:40.987Z</time></trkpt><trkpt lat="44.543025" lon="10.6204383"><ele>229.39999999999998</ele><time>2026-04-19T15:05:41.987Z</time></trkpt><trkpt lat="44.5430983" lon="10.620515"><ele>229.2</ele><time>2026-04-19T15:05:42.987Z</time></trkpt><trkpt lat="44.54317" lon="10.6205933"><ele>229.0</ele><time>2026-04-19T15:05:43.987Z</time></trkpt><trkpt lat="44.5432433" lon="10.6206817"><ele>229.0</ele><time>2026-04-19T15:05:44.987Z</time></trkpt><trkpt lat="44.5433267" lon="10.620775"><ele>228.99999999999997</ele><time>2026-04-19T15:05:45.987Z</time></trkpt><trkpt lat="44.5434083" lon="10.62086"><ele>228.99999999999997</ele><time>2026-04-19T15:05:46.987Z</time></trkpt><trkpt lat="44.5434867" lon="10.6209317"><ele>229.0</ele><time>2026-04-19T15:05:47.987Z</time></trkpt><trkpt lat="44.54356" lon="10.6210167"><ele>229.0</ele><time>2026-04-19T15:05:48.987Z</time></trkpt><trkpt lat="44.5436367" lon="10.6211233"><ele>229.25</ele><time>2026-04-19T15:05:49.987Z</time></trkpt><trkpt lat="44.543725" lon="10.6212283"><ele>229.5</ele><time>2026-04-19T15:05:50.987Z</time></trkpt><trkpt lat="44.5438217" lon="10.6213383"><ele>229.75</ele><time>2026-04-19T15:05:51.987Z</time></trkpt><trkpt lat="44.5439267" lon="10.6214467"><ele>230.0</ele><time>2026-04-19T15:05:52.987Z</time></trkpt><trkpt lat="44.5440383" lon="10.6215567"><ele>230.0</ele><time>2026-04-19T15:05:53.987Z</time></trkpt><trkpt lat="44.5441517" lon="10.621675"><ele>230.0</ele><time>2026-04-19T15:05:54.987Z</time></trkpt><trkpt lat="44.5442683" lon="10.6218"><ele>230.0</ele><time>2026-04-19T15:05:55.987Z</time></trkpt><trkpt lat="44.5443867" lon="10.6219183"><ele>230.0</ele><time>2026-04-19T15:05:56.987Z</time></trkpt><trkpt lat="44.5444917" lon="10.6220383"><ele>229.75</ele><time>2026-04-19T15:05:57.987Z</time></trkpt><trkpt lat="44.5446083" lon="10.622165"><ele>229.5</ele><time>2026-04-19T15:05:58.987Z</time></trkpt><trkpt lat="44.5447133" lon="10.62229"><ele>229.25</ele><time>2026-04-19T15:05:59.987Z</time></trkpt><trkpt lat="44.544825" lon="10.6224067"><ele>229.0</ele><time>2026-04-19T15:06:00.987Z</time></trkpt><trkpt lat="44.544935" lon="10.6225333"><ele>229.0</ele><time>2026-04-19T15:06:01.987Z</time></trkpt><trkpt lat="44.5450533" lon="10.62266"><ele>229.0</ele><time>2026-04-19T15:06:02.987Z</time></trkpt><trkpt lat="44.5451583" lon="10.6227633"><ele>229.0</ele><time>2026-04-19T15:06:03.987Z</time></trkpt><trkpt lat="44.5452617" lon="10.6228683"><ele>229.0</ele><time>2026-04-19T15:06:04.987Z</time></trkpt><trkpt lat="44.5453633" lon="10.62297"><ele>229.25</ele><time>2026-04-19T15:06:05.987Z</time></trkpt><trkpt lat="44.5454617" lon="10.6230833"><ele>229.5</ele><time>2026-04-19T15:06:06.987Z</time></trkpt><trkpt lat="44.5455533" lon="10.62321"><ele>229.75</ele><time>2026-04-19T15:06:07.987Z</time></trkpt><trkpt lat="44.5456467" lon="10.623365"><ele>230.0</ele><time>2026-04-19T15:06:08.987Z</time></trkpt><trkpt lat="44.5457433" lon="10.62352"><ele>228.66666666666669</ele><time>2026-04-19T15:06:09.987Z</time></trkpt><trkpt lat="44.5458333" lon="10.6236867"><ele>227.33333333333331</ele><time>2026-04-19T15:06:10.987Z</time></trkpt><trkpt lat="44.54592" lon="10.6238883"><ele>226.0</ele><time>2026-04-19T15:06:11.987Z</time></trkpt><trkpt lat="44.546015" lon="10.6240983"><ele>226.0</ele><time>2026-04-19T15:06:12.988Z</time></trkpt><trkpt lat="44.546095" lon="10.6243233"><ele>226.0</ele><time>2026-04-19T15:06:13.987Z</time></trkpt><trkpt lat="44.5461717" lon="10.6245467"><ele>226.0</ele><time>2026-04-19T15:06:14.988Z</time></trkpt><trkpt lat="44.546235" lon="10.6247517"><ele>227.33333333333331</ele><time>2026-04-19T15:06:15.987Z</time></trkpt><trkpt lat="44.5463067" lon="10.6249633"><ele>228.66666666666669</ele><time>2026-04-19T15:06:16.987Z</time></trkpt><trkpt lat="44.5463733" lon="10.6251517"><ele>230.0</ele><time>2026-04-19T15:06:17.987Z</time></trkpt><trkpt lat="44.546445" lon="10.625345"><ele>230.0</ele><time>2026-04-19T15:06:18.987Z</time></trkpt><trkpt lat="44.5465133" lon="10.625545"><ele>230.0</ele><time>2026-04-19T15:06:19.987Z</time></trkpt><trkpt lat="44.54658" lon="10.6257483"><ele>230.0</ele><time>2026-04-19T15:06:20.987Z</time></trkpt><trkpt lat="44.5466383" lon="10.62596"><ele>229.0</ele><time>2026-04-19T15:06:21.987Z</time></trkpt><trkpt lat="44.5466967" lon="10.6261667"><ele>228.0</ele><time>2026-04-19T15:06:22.987Z</time></trkpt><trkpt lat="44.5467517" lon="10.6263817"><ele>227.0</ele><time>2026-04-19T15:06:23.987Z</time></trkpt><trkpt lat="44.5468083" lon="10.6265933"><ele>227.0</ele><time>2026-04-19T15:06:24.987Z</time></trkpt><trkpt lat="44.5468683" lon="10.6268017"><ele>227.0</ele><time>2026-04-19T15:06:25.987Z</time></trkpt><trkpt lat="44.5469383" lon="10.6270067"><ele>227.0</ele><time>2026-04-19T15:06:26.987Z</time></trkpt><trkpt lat="44.547005" lon="10.6271933"><ele>228.66666666666669</ele><time>2026-04-19T15:06:27.987Z</time></trkpt><trkpt lat="44.54707" lon="10.6273883"><ele>230.33333333333331</ele><time>2026-04-19T15:06:28.987Z</time></trkpt><trkpt lat="44.5471217" lon="10.6275883"><ele>232.0</ele><time>2026-04-19T15:06:29.987Z</time></trkpt><trkpt lat="44.5471617" lon="10.627795"><ele>231.66666666666666</ele><time>2026-04-19T15:06:30.987Z</time></trkpt><trkpt lat="44.547185" lon="10.6280167"><ele>231.33333333333331</ele><time>2026-04-19T15:06:31.987Z</time></trkpt><trkpt lat="44.54719" lon="10.6282683"><ele>231.0</ele><time>2026-04-19T15:06:32.987Z</time></trkpt><trkpt lat="44.5471817" lon="10.6285217"><ele>230.5</ele><time>2026-04-19T15:06:33.987Z</time></trkpt><trkpt lat="44.5471617" lon="10.6287467"><ele>230.0</ele><time>2026-04-19T15:06:34.987Z</time></trkpt><trkpt lat="44.5471467" lon="10.6289417"><ele>229.5</ele><time>2026-04-19T15:06:35.987Z</time></trkpt><trkpt lat="44.5471333" lon="10.629115"><ele>229.0</ele><time>2026-04-19T15:06:36.987Z</time></trkpt><trkpt lat="44.5471333" lon="10.629275"><ele>229.0</ele><time>2026-04-19T15:06:37.987Z</time></trkpt><trkpt lat="44.54714" lon="10.62942"><ele>228.99999999999997</ele><time>2026-04-19T15:06:38.987Z</time></trkpt><trkpt lat="44.5471533" lon="10.62955"><ele>228.99999999999997</ele><time>2026-04-19T15:06:39.987Z</time></trkpt><trkpt lat="44.547165" lon="10.6296833"><ele>229.0</ele><time>2026-04-19T15:06:40.987Z</time></trkpt><trkpt lat="44.5471633" lon="10.6298067"><ele>229.0</ele><time>2026-04-19T15:06:41.987Z</time></trkpt><trkpt lat="44.5471667" lon="10.629925"><ele>228.75</ele><time>2026-04-19T15:06:42.987Z</time></trkpt><trkpt lat="44.5471917" lon="10.6300433"><ele>228.5</ele><time>2026-04-19T15:06:43.987Z</time></trkpt><trkpt lat="44.5472533" lon="10.6301517"><ele>228.25</ele><time>2026-04-19T15:06:44.987Z</time></trkpt><trkpt lat="44.5473417" lon="10.630265"><ele>228.0</ele><time>2026-04-19T15:06:45.987Z</time></trkpt><trkpt lat="44.547525" lon="10.63053"><ele>226.33333333333331</ele><time>2026-04-19T15:06:47.988Z</time></trkpt><trkpt lat="44.5476183" lon="10.6307033"><ele>224.66666666666666</ele><time>2026-04-19T15:06:48.987Z</time></trkpt><trkpt lat="44.5477117" lon="10.630895"><ele>223.0</ele><time>2026-04-19T15:06:49.987Z</time></trkpt><trkpt lat="44.5477917" lon="10.6311"><ele>221.33333333333331</ele><time>2026-04-19T15:06:50.987Z</time></trkpt><trkpt lat="44.5478517" lon="10.6313033"><ele>219.66666666666669</ele><time>2026-04-19T15:06:51.987Z</time></trkpt><trkpt lat="44.547905" lon="10.6315033"><ele>218.0</ele><time>2026-04-19T15:06:52.987Z</time></trkpt><trkpt lat="44.5479417" lon="10.6316983"><ele>223.33333333333334</ele><time>2026-04-19T15:06:53.987Z</time></trkpt><trkpt lat="44.5479467" lon="10.6319067"><ele>228.66666666666669</ele><time>2026-04-19T15:06:54.987Z</time></trkpt><trkpt lat="44.5479217" lon="10.632115"><ele>234.0</ele><time>2026-04-19T15:06:55.987Z</time></trkpt><trkpt lat="44.5478967" lon="10.63234"><ele>235.0</ele><time>2026-04-19T15:06:56.987Z</time></trkpt><trkpt lat="44.5478783" lon="10.632565"><ele>236.0</ele><time>2026-04-19T15:06:57.987Z</time></trkpt><trkpt lat="44.547855" lon="10.6327767"><ele>237.0</ele><time>2026-04-19T15:06:58.987Z</time></trkpt><trkpt lat="44.5478217" lon="10.6329783"><ele>231.66666666666669</ele><time>2026-04-19T15:06:59.987Z</time></trkpt><trkpt lat="44.5477817" lon="10.6331867"><ele>226.33333333333334</ele><time>2026-04-19T15:07:00.987Z</time></trkpt><trkpt lat="44.5477283" lon="10.633385"><ele>221.0</ele><time>2026-04-19T15:07:01.987Z</time></trkpt><trkpt lat="44.5476617" lon="10.633575"><ele>223.0</ele><time>2026-04-19T15:07:02.987Z</time></trkpt><trkpt lat="44.5475883" lon="10.63375"><ele>225.0</ele><time>2026-04-19T15:07:03.987Z</time></trkpt><trkpt lat="44.547505" lon="10.6339267"><ele>227.0</ele><time>2026-04-19T15:07:04.987Z</time></trkpt><trkpt lat="44.547435" lon="10.6341017"><ele>229.0</ele><time>2026-04-19T15:07:05.987Z</time></trkpt><trkpt lat="44.54738" lon="10.63428"><ele>229.0</ele><time>2026-04-19T15:07:06.987Z</time></trkpt><trkpt lat="44.5473533" lon="10.6344567"><ele>229.0</ele><time>2026-04-19T15:07:07.987Z</time></trkpt><trkpt lat="44.547355" lon="10.6346283"><ele>229.0</ele><time>2026-04-19T15:07:08.987Z</time></trkpt><trkpt lat="44.54739" lon="10.6348183"><ele>229.0</ele><time>2026-04-19T15:07:09.987Z</time></trkpt><trkpt lat="44.54742" lon="10.6350183"><ele>229.5</ele><time>2026-04-19T15:07:10.987Z</time></trkpt><trkpt lat="44.54743" lon="10.6352183"><ele>230.0</ele><time>2026-04-19T15:07:11.987Z</time></trkpt><trkpt lat="44.54741" lon="10.6354217"><ele>230.5</ele><time>2026-04-19T15:07:12.987Z</time></trkpt><trkpt lat="44.54739" lon="10.6356417"><ele>231.0</ele><time>2026-04-19T15:07:13.987Z</time></trkpt><trkpt lat="44.54738" lon="10.6358633"><ele>231.0</ele><time>2026-04-19T15:07:14.987Z</time></trkpt><trkpt lat="44.5473767" lon="10.6360717"><ele>231.0</ele><time>2026-04-19T15:07:15.988Z</time></trkpt><trkpt lat="44.547365" lon="10.6362717"><ele>231.0</ele><time>2026-04-19T15:07:16.987Z</time></trkpt><trkpt lat="44.5473217" lon="10.63647"><ele>231.0</ele><time>2026-04-19T15:07:17.987Z</time></trkpt><trkpt lat="44.5472633" lon="10.6366717"><ele>232.0</ele><time>2026-04-19T15:07:18.987Z</time></trkpt><trkpt lat="44.54719" lon="10.6368667"><ele>233.0</ele><time>2026-04-19T15:07:19.987Z</time></trkpt><trkpt lat="44.5471083" lon="10.637055"><ele>234.0</ele><time>2026-04-19T15:07:20.987Z</time></trkpt><trkpt lat="44.5470467" lon="10.6372617"><ele>233.0</ele><time>2026-04-19T15:07:21.987Z</time></trkpt><trkpt lat="44.5469783" lon="10.63745"><ele>232.0</ele><time>2026-04-19T15:07:22.987Z</time></trkpt><trkpt lat="44.5469" lon="10.6376367"><ele>231.0</ele><time>2026-04-19T15:07:23.987Z</time></trkpt><trkpt lat="44.54681" lon="10.6377933"><ele>230.0</ele><time>2026-04-19T15:07:24.987Z</time></trkpt><trkpt lat="44.5467233" lon="10.6379583"><ele>230.0</ele><time>2026-04-19T15:07:25.987Z</time></trkpt><trkpt lat="44.5466283" lon="10.63811"><ele>230.0</ele><time>2026-04-19T15:07:26.987Z</time></trkpt><trkpt lat="44.54654" lon="10.6382683"><ele>230.0</ele><time>2026-04-19T15:07:27.987Z</time></trkpt><trkpt lat="44.5464917" lon="10.6384467"><ele>230.0</ele><time>2026-04-19T15:07:28.987Z</time></trkpt><trkpt lat="44.546465" lon="10.63863"><ele>231.0</ele><time>2026-04-19T15:07:29.987Z</time></trkpt><trkpt lat="44.546465" lon="10.638835"><ele>232.0</ele><time>2026-04-19T15:07:30.987Z</time></trkpt><trkpt lat="44.5464683" lon="10.6390367"><ele>233.0</ele><time>2026-04-19T15:07:31.987Z</time></trkpt><trkpt lat="44.5464733" lon="10.6392417"><ele>234.0</ele><time>2026-04-19T15:07:32.987Z</time></trkpt><trkpt lat="44.5464767" lon="10.6394533"><ele>233.33333333333331</ele><time>2026-04-19T15:07:33.987Z</time></trkpt><trkpt lat="44.5464817" lon="10.6396733"><ele>232.66666666666666</ele><time>2026-04-19T15:07:34.987Z</time></trkpt><trkpt lat="44.546455" lon="10.6398883"><ele>232.0</ele><time>2026-04-19T15:07:35.987Z</time></trkpt><trkpt lat="44.546415" lon="10.640105"><ele>233.0</ele><time>2026-04-19T15:07:36.987Z</time></trkpt><trkpt lat="44.5463517" lon="10.6403117"><ele>234.0</ele><time>2026-04-19T15:07:37.987Z</time></trkpt><trkpt lat="44.5462867" lon="10.6405167"><ele>235.0</ele><time>2026-04-19T15:07:38.987Z</time></trkpt><trkpt lat="44.5462217" lon="10.6407283"><ele>230.66666666666666</ele><time>2026-04-19T15:07:39.987Z</time></trkpt><trkpt lat="44.546175" lon="10.640945"><ele>226.33333333333331</ele><time>2026-04-19T15:07:40.987Z</time></trkpt><trkpt lat="44.5461433" lon="10.641175"><ele>222.0</ele><time>2026-04-19T15:07:41.987Z</time></trkpt><trkpt lat="44.5461167" lon="10.6414"><ele>222.0</ele><time>2026-04-19T15:07:42.987Z</time></trkpt><trkpt lat="44.5461117" lon="10.64163"><ele>222.0</ele><time>2026-04-19T15:07:43.987Z</time></trkpt><trkpt lat="44.546125" lon="10.6418633"><ele>222.0</ele><time>2026-04-19T15:07:44.987Z</time></trkpt><trkpt lat="44.5461383" lon="10.6420867"><ele>221.33333333333331</ele><time>2026-04-19T15:07:45.987Z</time></trkpt><trkpt lat="44.5461567" lon="10.642315"><ele>220.66666666666666</ele><time>2026-04-19T15:07:46.987Z</time></trkpt><trkpt lat="44.5461667" lon="10.64254"><ele>220.0</ele><time>2026-04-19T15:07:47.987Z</time></trkpt><trkpt lat="44.5461717" lon="10.642765"><ele>219.33333333333331</ele><time>2026-04-19T15:07:48.987Z</time></trkpt><trkpt lat="44.5461867" lon="10.64299"><ele>218.66666666666669</ele><time>2026-04-19T15:07:49.987Z</time></trkpt><trkpt lat="44.5462217" lon="10.6432017"><ele>218.0</ele><time>2026-04-19T15:07:50.987Z</time></trkpt><trkpt lat="44.5462483" lon="10.6434183"><ele>218.0</ele><time>2026-04-19T15:07:51.987Z</time></trkpt><trkpt lat="44.5462617" lon="10.6436367"><ele>218.0</ele><time>2026-04-19T15:07:52.987Z</time></trkpt><trkpt lat="44.5462433" lon="10.64385"><ele>218.0</ele><time>2026-04-19T15:07:53.987Z</time></trkpt><trkpt lat="44.5461983" lon="10.6440683"><ele>218.0</ele><time>2026-04-19T15:07:54.987Z</time></trkpt><trkpt lat="44.5461417" lon="10.6442917"><ele>218.0</ele><time>2026-04-19T15:07:55.987Z</time></trkpt><trkpt lat="44.5460967" lon="10.6445217"><ele>218.0</ele><time>2026-04-19T15:07:56.987Z</time></trkpt><trkpt lat="44.5460617" lon="10.6447467"><ele>218.66666666666669</ele><time>2026-04-19T15:07:57.987Z</time></trkpt><trkpt lat="44.54604" lon="10.64498"><ele>219.33333333333331</ele><time>2026-04-19T15:07:58.987Z</time></trkpt><trkpt lat="44.5460367" lon="10.6452217"><ele>220.0</ele><time>2026-04-19T15:07:59.987Z</time></trkpt><trkpt lat="44.5460367" lon="10.6454483"><ele>221.33333333333331</ele><time>2026-04-19T15:08:00.987Z</time></trkpt><trkpt lat="44.5460317" lon="10.6456817"><ele>222.66666666666669</ele><time>2026-04-19T15:08:01.987Z</time></trkpt><trkpt lat="44.54604" lon="10.6459267"><ele>224.0</ele><time>2026-04-19T15:08:02.987Z</time></trkpt><trkpt lat="44.546035" lon="10.6461717"><ele>224.0</ele><time>2026-04-19T15:08:03.987Z</time></trkpt><trkpt lat="44.5460433" lon="10.6464083"><ele>224.0</ele><time>2026-04-19T15:08:04.987Z</time></trkpt><trkpt lat="44.54604" lon="10.6466417"><ele>224.0</ele><time>2026-04-19T15:08:05.987Z</time></trkpt><trkpt lat="44.5460167" lon="10.646865"><ele>224.33333333333334</ele><time>2026-04-19T15:08:06.987Z</time></trkpt><trkpt lat="44.546" lon="10.6470817"><ele>224.66666666666669</ele><time>2026-04-19T15:08:07.987Z</time></trkpt><trkpt lat="44.5459867" lon="10.64731"><ele>225.0</ele><time>2026-04-19T15:08:08.987Z</time></trkpt><trkpt lat="44.5459633" lon="10.647525"><ele>225.0</ele><time>2026-04-19T15:08:09.987Z</time></trkpt><trkpt lat="44.5459333" lon="10.64774"><ele>225.0</ele><time>2026-04-19T15:08:10.987Z</time></trkpt><trkpt lat="44.5459083" lon="10.6479583"><ele>225.0</ele><time>2026-04-19T15:08:11.987Z</time></trkpt><trkpt lat="44.5458833" lon="10.64818"><ele>226.0</ele><time>2026-04-19T15:08:12.987Z</time></trkpt><trkpt lat="44.5458567" lon="10.6484"><ele>227.0</ele><time>2026-04-19T15:08:13.987Z</time></trkpt><trkpt lat="44.54583" lon="10.6486083"><ele>228.0</ele><time>2026-04-19T15:08:14.987Z</time></trkpt><trkpt lat="44.5458067" lon="10.6488133"><ele>228.25</ele><time>2026-04-19T15:08:15.987Z</time></trkpt><trkpt lat="44.54579" lon="10.648995"><ele>228.5</ele><time>2026-04-19T15:08:16.987Z</time></trkpt><trkpt lat="44.54579" lon="10.6491667"><ele>228.75</ele><time>2026-04-19T15:08:17.987Z</time></trkpt><trkpt lat="44.5457983" lon="10.6493317"><ele>229.0</ele><time>2026-04-19T15:08:18.987Z</time></trkpt><trkpt lat="44.5458483" lon="10.6494867"><ele>229.5</ele><time>2026-04-19T15:08:19.987Z</time></trkpt><trkpt lat="44.54594" lon="10.6496317"><ele>230.0</ele><time>2026-04-19T15:08:20.987Z</time></trkpt><trkpt lat="44.5460583" lon="10.649745"><ele>230.5</ele><time>2026-04-19T15:08:21.987Z</time></trkpt><trkpt lat="44.5461917" lon="10.649815"><ele>231.0</ele><time>2026-04-19T15:08:22.987Z</time></trkpt><trkpt lat="44.5463567" lon="10.6498183"><ele>226.0</ele><time>2026-04-19T15:08:23.987Z</time></trkpt><trkpt lat="44.5465283" lon="10.649795"><ele>221.0</ele><time>2026-04-19T15:08:24.987Z</time></trkpt><trkpt lat="44.5466967" lon="10.6497533"><ele>216.0</ele><time>2026-04-19T15:08:25.987Z</time></trkpt><trkpt lat="44.54687" lon="10.6497"><ele>216.0</ele><time>2026-04-19T15:08:26.987Z</time></trkpt><trkpt lat="44.54702" lon="10.64965"><ele>216.0</ele><time>2026-04-19T15:08:27.987Z</time></trkpt><trkpt lat="44.54716" lon="10.649615"><ele>216.0</ele><time>2026-04-19T15:08:28.987Z</time></trkpt><trkpt lat="44.5472983" lon="10.6495817"><ele>216.0</ele><time>2026-04-19T15:08:29.987Z</time></trkpt><trkpt lat="44.547435" lon="10.64955"><ele>216.5</ele><time>2026-04-19T15:08:30.987Z</time></trkpt><trkpt lat="44.5475733" lon="10.649515"><ele>217.0</ele><time>2026-04-19T15:08:31.987Z</time></trkpt><trkpt lat="44.5476983" lon="10.6494433"><ele>217.5</ele><time>2026-04-19T15:08:32.987Z</time></trkpt><trkpt lat="44.5478067" lon="10.649325"><ele>218.0</ele><time>2026-04-19T15:08:33.987Z</time></trkpt><trkpt lat="44.5478983" lon="10.6491783"><ele>214.25</ele><time>2026-04-19T15:08:34.987Z</time></trkpt><trkpt lat="44.54798" lon="10.6490267"><ele>210.5</ele><time>2026-04-19T15:08:35.987Z</time></trkpt><trkpt lat="44.5480667" lon="10.6488983"><ele>206.75</ele><time>2026-04-19T15:08:36.987Z</time></trkpt><trkpt lat="44.5481833" lon="10.648785"><ele>203.0</ele><time>2026-04-19T15:08:37.987Z</time></trkpt><trkpt lat="44.5483217" lon="10.6487167"><ele>203.0</ele><time>2026-04-19T15:08:38.987Z</time></trkpt><trkpt lat="44.5484767" lon="10.6487033"><ele>203.0</ele><time>2026-04-19T15:08:39.988Z</time></trkpt><trkpt lat="44.5486333" lon="10.6487317"><ele>203.0</ele><time>2026-04-19T15:08:40.988Z</time></trkpt><trkpt lat="44.5487817" lon="10.6487617"><ele>202.5</ele><time>2026-04-19T15:08:41.987Z</time></trkpt><trkpt lat="44.5489217" lon="10.6487933"><ele>202.0</ele><time>2026-04-19T15:08:42.987Z</time></trkpt><trkpt lat="44.54905" lon="10.64884"><ele>201.5</ele><time>2026-04-19T15:08:43.987Z</time></trkpt><trkpt lat="44.5491733" lon="10.648895"><ele>201.0</ele><time>2026-04-19T15:08:44.987Z</time></trkpt><trkpt lat="44.5492817" lon="10.648975"><ele>201.0</ele><time>2026-04-19T15:08:45.987Z</time></trkpt><trkpt lat="44.549395" lon="10.649095"><ele>201.0</ele><time>2026-04-19T15:08:46.987Z</time></trkpt><trkpt lat="44.5494983" lon="10.649255"><ele>201.0</ele><time>2026-04-19T15:08:47.987Z</time></trkpt><trkpt lat="44.5495983" lon="10.6494217"><ele>199.66666666666669</ele><time>2026-04-19T15:08:48.987Z</time></trkpt><trkpt lat="44.5497017" lon="10.6495833"><ele>198.33333333333334</ele><time>2026-04-19T15:08:49.987Z</time></trkpt><trkpt lat="44.5498067" lon="10.6497383"><ele>197.0</ele><time>2026-04-19T15:08:50.987Z</time></trkpt><trkpt lat="44.5499217" lon="10.64987"><ele>197.0</ele><time>2026-04-19T15:08:51.987Z</time></trkpt><trkpt lat="44.55005" lon="10.649985"><ele>197.0</ele><time>2026-04-19T15:08:52.987Z</time></trkpt><trkpt lat="44.5501867" lon="10.65007"><ele>197.0</ele><time>2026-04-19T15:08:53.987Z</time></trkpt><trkpt lat="44.5503283" lon="10.650125"><ele>197.0</ele><time>2026-04-19T15:08:54.987Z</time></trkpt><trkpt lat="44.5504833" lon="10.650155"><ele>196.33333333333334</ele><time>2026-04-19T15:08:55.987Z</time></trkpt><trkpt lat="44.5506383" lon="10.6501683"><ele>195.66666666666669</ele><time>2026-04-19T15:08:56.987Z</time></trkpt><trkpt lat="44.5507883" lon="10.6501717"><ele>195.0</ele><time>2026-04-19T15:08:57.987Z</time></trkpt><trkpt lat="44.550935" lon="10.6501467"><ele>195.0</ele><time>2026-04-19T15:08:58.987Z</time></trkpt><trkpt lat="44.5510767" lon="10.6501067"><ele>195.0</ele><time>2026-04-19T15:08:59.987Z</time></trkpt><trkpt lat="44.5512117" lon="10.650045"><ele>195.0</ele><time>2026-04-19T15:09:00.987Z</time></trkpt><trkpt lat="44.5513517" lon="10.64997"><ele>195.0</ele><time>2026-04-19T15:09:01.987Z</time></trkpt><trkpt lat="44.5515017" lon="10.6499117"><ele>193.75</ele><time>2026-04-19T15:09:02.987Z</time></trkpt><trkpt lat="44.5516433" lon="10.6498783"><ele>192.5</ele><time>2026-04-19T15:09:03.987Z</time></trkpt><trkpt lat="44.55178" lon="10.6499067"><ele>191.25</ele><time>2026-04-19T15:09:04.987Z</time></trkpt><trkpt lat="44.5519183" lon="10.6499783"><ele>190.0</ele><time>2026-04-19T15:09:05.987Z</time></trkpt><trkpt lat="44.5520467" lon="10.6500833"><ele>190.0</ele><time>2026-04-19T15:09:06.987Z</time></trkpt><trkpt lat="44.552165" lon="10.6502283"><ele>190.0</ele><time>2026-04-19T15:09:07.987Z</time></trkpt><trkpt lat="44.552285" lon="10.6503617"><ele>190.0</ele><time>2026-04-19T15:09:08.987Z</time></trkpt><trkpt lat="44.5524083" lon="10.65048"><ele>186.33333333333334</ele><time>2026-04-19T15:09:09.987Z</time></trkpt><trkpt lat="44.5525517" lon="10.65057"><ele>182.66666666666666</ele><time>2026-04-19T15:09:10.988Z</time></trkpt><trkpt lat="44.5527167" lon="10.6506583"><ele>179.0</ele><time>2026-04-19T15:09:11.987Z</time></trkpt><trkpt lat="44.5528833" lon="10.6507433"><ele>179.0</ele><time>2026-04-19T15:09:12.987Z</time></trkpt><trkpt lat="44.5530483" lon="10.65083"><ele>179.0</ele><time>2026-04-19T15:09:13.987Z</time></trkpt><trkpt lat="44.553205" lon="10.650915"><ele>179.0</ele><time>2026-04-19T15:09:14.987Z</time></trkpt><trkpt lat="44.5533517" lon="10.6510017"><ele>179.0</ele><time>2026-04-19T15:09:15.987Z</time></trkpt><trkpt lat="44.5534883" lon="10.651075"><ele>179.0</ele><time>2026-04-19T15:09:16.987Z</time></trkpt><trkpt lat="44.5536267" lon="10.65113"><ele>179.0</ele><time>2026-04-19T15:09:17.987Z</time></trkpt><trkpt lat="44.5537567" lon="10.651185"><ele>179.0</ele><time>2026-04-19T15:09:18.987Z</time></trkpt><trkpt lat="44.5538833" lon="10.6512467"><ele>176.75</ele><time>2026-04-19T15:09:19.987Z</time></trkpt><trkpt lat="44.5540117" lon="10.6513333"><ele>174.5</ele><time>2026-04-19T15:09:20.987Z</time></trkpt><trkpt lat="44.5541417" lon="10.651445"><ele>172.25</ele><time>2026-04-19T15:09:21.987Z</time></trkpt><trkpt lat="44.55426" lon="10.651565"><ele>170.0</ele><time>2026-04-19T15:09:22.987Z</time></trkpt><trkpt lat="44.55437" lon="10.6516883"><ele>170.0</ele><time>2026-04-19T15:09:23.988Z</time></trkpt><trkpt lat="44.5544717" lon="10.6518083"><ele>170.0</ele><time>2026-04-19T15:09:24.987Z</time></trkpt><trkpt lat="44.554575" lon="10.6519167"><ele>170.0</ele><time>2026-04-19T15:09:25.987Z</time></trkpt><trkpt lat="44.554675" lon="10.65202"><ele>170.0</ele><time>2026-04-19T15:09:26.987Z</time></trkpt><trkpt lat="44.5547733" lon="10.6521067"><ele>167.8</ele><time>2026-04-19T15:09:27.987Z</time></trkpt><trkpt lat="44.5548667" lon="10.6521867"><ele>165.6</ele><time>2026-04-19T15:09:28.987Z</time></trkpt><trkpt lat="44.5549683" lon="10.6522483"><ele>163.4</ele><time>2026-04-19T15:09:29.987Z</time></trkpt><trkpt lat="44.55508" lon="10.6522767"><ele>161.2</ele><time>2026-04-19T15:09:30.987Z</time></trkpt><trkpt lat="44.5551933" lon="10.65225"><ele>159.0</ele><time>2026-04-19T15:09:31.987Z</time></trkpt><trkpt lat="44.555295" lon="10.6521583"><ele>157.66666666666666</ele><time>2026-04-19T15:09:32.987Z</time></trkpt><trkpt lat="44.555395" lon="10.6520033"><ele>156.33333333333331</ele><time>2026-04-19T15:09:33.987Z</time></trkpt><trkpt lat="44.5554733" lon="10.6518033"><ele>155.0</ele><time>2026-04-19T15:09:34.987Z</time></trkpt><trkpt lat="44.5555467" lon="10.65161"><ele>155.0</ele><time>2026-04-19T15:09:35.987Z</time></trkpt><trkpt lat="44.5556133" lon="10.6514383"><ele>155.0</ele><time>2026-04-19T15:09:36.987Z</time></trkpt><trkpt lat="44.555675" lon="10.651275"><ele>155.0</ele><time>2026-04-19T15:09:37.987Z</time></trkpt><trkpt lat="44.5557383" lon="10.65111"><ele>155.0</ele><time>2026-04-19T15:09:38.987Z</time></trkpt><trkpt lat="44.5558067" lon="10.6509417"><ele>156.5</ele><time>2026-04-19T15:09:39.987Z</time></trkpt><trkpt lat="44.5558667" lon="10.650785"><ele>158.0</ele><time>2026-04-19T15:09:40.987Z</time></trkpt><trkpt lat="44.5559283" lon="10.650635"><ele>159.5</ele><time>2026-04-19T15:09:41.987Z</time></trkpt><trkpt lat="44.555985" lon="10.6504733"><ele>161.0</ele><time>2026-04-19T15:09:42.987Z</time></trkpt><trkpt lat="44.55605" lon="10.6503117"><ele>160.75</ele><time>2026-04-19T15:09:43.987Z</time></trkpt><trkpt lat="44.5561117" lon="10.6501467"><ele>160.5</ele><time>2026-04-19T15:09:44.987Z</time></trkpt><trkpt lat="44.5561767" lon="10.6499767"><ele>160.25</ele><time>2026-04-19T15:09:45.987Z</time></trkpt><trkpt lat="44.556245" lon="10.6498083"><ele>160.0</ele><time>2026-04-19T15:09:46.987Z</time></trkpt><trkpt lat="44.5563367" lon="10.6496483"><ele>156.25</ele><time>2026-04-19T15:09:47.987Z</time></trkpt><trkpt lat="44.556435" lon="10.6495233"><ele>152.5</ele><time>2026-04-19T15:09:48.987Z</time></trkpt><trkpt lat="44.5565533" lon="10.6494217"><ele>148.75</ele><time>2026-04-19T15:09:49.987Z</time></trkpt><trkpt lat="44.5566867" lon="10.6493317"><ele>145.0</ele><time>2026-04-19T15:09:50.987Z</time></trkpt><trkpt lat="44.55683" lon="10.6492667"><ele>145.0</ele><time>2026-04-19T15:09:51.987Z</time></trkpt><trkpt lat="44.55698" lon="10.6492083"><ele>145.0</ele><time>2026-04-19T15:09:52.987Z</time></trkpt><trkpt lat="44.5571233" lon="10.6491517"><ele>145.0</ele><time>2026-04-19T15:09:53.987Z</time></trkpt><trkpt lat="44.55726" lon="10.6491017"><ele>145.0</ele><time>2026-04-19T15:09:54.987Z</time></trkpt><trkpt lat="44.5574" lon="10.64904"><ele>144.5</ele><time>2026-04-19T15:09:55.987Z</time></trkpt><trkpt lat="44.55753" lon="10.64899"><ele>144.0</ele><time>2026-04-19T15:09:56.987Z</time></trkpt><trkpt lat="44.557655" lon="10.6489417"><ele>143.5</ele><time>2026-04-19T15:09:57.987Z</time></trkpt><trkpt lat="44.55778" lon="10.6488983"><ele>143.0</ele><time>2026-04-19T15:09:58.987Z</time></trkpt><trkpt lat="44.5579033" lon="10.64886"><ele>144.5</ele><time>2026-04-19T15:09:59.987Z</time></trkpt><trkpt lat="44.558025" lon="10.64886"><ele>146.0</ele><time>2026-04-19T15:10:00.987Z</time></trkpt><trkpt lat="44.5581517" lon="10.6488917"><ele>147.5</ele><time>2026-04-19T15:10:01.987Z</time></trkpt><trkpt lat="44.558275" lon="10.6489583"><ele>149.0</ele><time>2026-04-19T15:10:02.987Z</time></trkpt><trkpt lat="44.5583833" lon="10.6490683"><ele>149.0</ele><time>2026-04-19T15:10:03.987Z</time></trkpt><trkpt lat="44.5584767" lon="10.6491867"><ele>149.0</ele><time>2026-04-19T15:10:04.987Z</time></trkpt><trkpt lat="44.558555" lon="10.6493083"><ele>149.0</ele><time>2026-04-19T15:10:05.987Z</time></trkpt><trkpt lat="44.5586217" lon="10.64943"><ele>149.0</ele><time>2026-04-19T15:10:06.987Z</time></trkpt><trkpt lat="44.55869" lon="10.6495467"><ele>149.0</ele><time>2026-04-19T15:10:07.987Z</time></trkpt><trkpt lat="44.5587533" lon="10.6496783"><ele>149.0</ele><time>2026-04-19T15:10:08.987Z</time></trkpt><trkpt lat="44.55881" lon="10.64982"><ele>149.0</ele><time>2026-04-19T15:10:09.987Z</time></trkpt><trkpt lat="44.55885" lon="10.64998"><ele>149.0</ele><time>2026-04-19T15:10:10.987Z</time></trkpt><trkpt lat="44.5588917" lon="10.6501417"><ele>147.75</ele><time>2026-04-19T15:10:11.987Z</time></trkpt><trkpt lat="44.55894" lon="10.650305"><ele>146.5</ele><time>2026-04-19T15:10:12.987Z</time></trkpt><trkpt lat="44.559005" lon="10.6504583"><ele>145.25</ele><time>2026-04-19T15:10:13.987Z</time></trkpt><trkpt lat="44.5590933" lon="10.6506083"><ele>144.0</ele><time>2026-04-19T15:10:14.987Z</time></trkpt><trkpt lat="44.5591933" lon="10.65074"><ele>144.0</ele><time>2026-04-19T15:10:15.987Z</time></trkpt><trkpt lat="44.5593117" lon="10.6508433"><ele>144.0</ele><time>2026-04-19T15:10:16.987Z</time></trkpt><trkpt lat="44.55944" lon="10.650905"><ele>144.0</ele><time>2026-04-19T15:10:17.987Z</time></trkpt><trkpt lat="44.55957" lon="10.6509517"><ele>144.0</ele><time>2026-04-19T15:10:18.987Z</time></trkpt><trkpt lat="44.5597033" lon="10.6509883"><ele>145.0</ele><time>2026-04-19T15:10:19.987Z</time></trkpt><trkpt lat="44.5598333" lon="10.65102"><ele>146.0</ele><time>2026-04-19T15:10:20.988Z</time></trkpt><trkpt lat="44.5599667" lon="10.6510517"><ele>147.0</ele><time>2026-04-19T15:10:21.987Z</time></trkpt><trkpt lat="44.560105" lon="10.65109"><ele>148.0</ele><time>2026-04-19T15:10:22.987Z</time></trkpt><trkpt lat="44.56025" lon="10.65111"><ele>148.5</ele><time>2026-04-19T15:10:23.987Z</time></trkpt><trkpt lat="44.56039" lon="10.651115"><ele>149.0</ele><time>2026-04-19T15:10:24.987Z</time></trkpt><trkpt lat="44.5605283" lon="10.6511217"><ele>149.5</ele><time>2026-04-19T15:10:25.988Z</time></trkpt><trkpt lat="44.5606667" lon="10.651115"><ele>150.0</ele><time>2026-04-19T15:10:26.987Z</time></trkpt><trkpt lat="44.5607983" lon="10.6511183"><ele>150.0</ele><time>2026-04-19T15:10:27.987Z</time></trkpt><trkpt lat="44.5609233" lon="10.6511083"><ele>150.0</ele><time>2026-04-19T15:10:28.987Z</time></trkpt><trkpt lat="44.5610533" lon="10.6511"><ele>150.0</ele><time>2026-04-19T15:10:29.987Z</time></trkpt><trkpt lat="44.56119" lon="10.6510917"><ele>150.0</ele><time>2026-04-19T15:10:30.987Z</time></trkpt><trkpt lat="44.5613233" lon="10.651085"><ele>150.0</ele><time>2026-04-19T15:10:31.988Z</time></trkpt><trkpt lat="44.5614533" lon="10.6510667"><ele>150.0</ele><time>2026-04-19T15:10:32.987Z</time></trkpt><trkpt lat="44.5615733" lon="10.6510717"><ele>150.0</ele><time>2026-04-19T15:10:33.987Z</time></trkpt><trkpt lat="44.5617" lon="10.6510783"><ele>150.0</ele><time>2026-04-19T15:10:34.987Z</time></trkpt><trkpt lat="44.5618267" lon="10.651115"><ele>147.25</ele><time>2026-04-19T15:10:35.987Z</time></trkpt><trkpt lat="44.56196" lon="10.6511683"><ele>144.5</ele><time>2026-04-19T15:10:36.987Z</time></trkpt><trkpt lat="44.5621" lon="10.6512217"><ele>141.75</ele><time>2026-04-19T15:10:37.987Z</time></trkpt><trkpt lat="44.5622417" lon="10.65127"><ele>139.0</ele><time>2026-04-19T15:10:38.987Z</time></trkpt><trkpt lat="44.5623833" lon="10.6512983"><ele>139.0</ele><time>2026-04-19T15:10:39.987Z</time></trkpt><trkpt lat="44.56252" lon="10.651305"><ele>139.0</ele><time>2026-04-19T15:10:40.987Z</time></trkpt><trkpt lat="44.5626633" lon="10.6513017"><ele>139.0</ele><time>2026-04-19T15:10:41.987Z</time></trkpt><trkpt lat="44.5628117" lon="10.6512883"><ele>139.0</ele><time>2026-04-19T15:10:42.987Z</time></trkpt><trkpt lat="44.5629567" lon="10.651265"><ele>138.75</ele><time>2026-04-19T15:10:43.987Z</time></trkpt><trkpt lat="44.5631033" lon="10.65123"><ele>138.5</ele><time>2026-04-19T15:10:44.987Z</time></trkpt><trkpt lat="44.5632467" lon="10.6511983"><ele>138.25</ele><time>2026-04-19T15:10:45.987Z</time></trkpt><trkpt lat="44.56339" lon="10.6511483"><ele>138.0</ele><time>2026-04-19T15:10:46.987Z</time></trkpt><trkpt lat="44.5635283" lon="10.6510917"><ele>140.75</ele><time>2026-04-19T15:10:47.987Z</time></trkpt><trkpt lat="44.5636683" lon="10.6510517"><ele>143.5</ele><time>2026-04-19T15:10:48.987Z</time></trkpt><trkpt lat="44.5638033" lon="10.6510033"><ele>146.25</ele><time>2026-04-19T15:10:49.987Z</time></trkpt><trkpt lat="44.5639333" lon="10.650955"><ele>149.0</ele><time>2026-04-19T15:10:50.987Z</time></trkpt><trkpt lat="44.5640683" lon="10.65092"><ele>149.0</ele><time>2026-04-19T15:10:51.988Z</time></trkpt><trkpt lat="44.5642067" lon="10.6508867"><ele>149.0</ele><time>2026-04-19T15:10:52.987Z</time></trkpt><trkpt lat="44.5643533" lon="10.6508733"><ele>149.0</ele><time>2026-04-19T15:10:53.987Z</time></trkpt><trkpt lat="44.564505" lon="10.6508767"><ele>149.0</ele><time>2026-04-19T15:10:54.987Z</time></trkpt><trkpt lat="44.5646567" lon="10.650895"><ele>149.0</ele><time>2026-04-19T15:10:55.987Z</time></trkpt><trkpt lat="44.5648" lon="10.6509267"><ele>149.0</ele><time>2026-04-19T15:10:56.987Z</time></trkpt><trkpt lat="44.5649467" lon="10.65097"><ele>149.0</ele><time>2026-04-19T15:10:57.987Z</time></trkpt><trkpt lat="44.5650833" lon="10.651"><ele>149.0</ele><time>2026-04-19T15:10:58.987Z</time></trkpt><trkpt lat="44.5652283" lon="10.65102"><ele>149.75</ele><time>2026-04-19T15:10:59.987Z</time></trkpt><trkpt lat="44.5653683" lon="10.6510483"><ele>150.5</ele><time>2026-04-19T15:11:00.987Z</time></trkpt><trkpt lat="44.56552" lon="10.651095"><ele>151.25</ele><time>2026-04-19T15:11:01.988Z</time></trkpt><trkpt lat="44.56566" lon="10.6511417"><ele>152.0</ele><time>2026-04-19T15:11:02.987Z</time></trkpt><trkpt lat="44.5658" lon="10.6511967"><ele>151.0</ele><time>2026-04-19T15:11:03.987Z</time></trkpt><trkpt lat="44.5659417" lon="10.6512567"><ele>150.0</ele><time>2026-04-19T15:11:04.987Z</time></trkpt><trkpt lat="44.5660783" lon="10.6513133"><ele>149.0</ele><time>2026-04-19T15:11:05.987Z</time></trkpt><trkpt lat="44.5662183" lon="10.6513733"><ele>148.0</ele><time>2026-04-19T15:11:06.987Z</time></trkpt><trkpt lat="44.5663533" lon="10.6514333"><ele>148.0</ele><time>2026-04-19T15:11:07.987Z</time></trkpt><trkpt lat="44.56649" lon="10.6515033"><ele>148.0</ele><time>2026-04-19T15:11:08.987Z</time></trkpt><trkpt lat="44.5666267" lon="10.651565"><ele>148.0</ele><time>2026-04-19T15:11:09.987Z</time></trkpt><trkpt lat="44.566765" lon="10.65164"><ele>148.0</ele><time>2026-04-19T15:11:10.987Z</time></trkpt><trkpt lat="44.5669067" lon="10.6517"><ele>149.0</ele><time>2026-04-19T15:11:11.987Z</time></trkpt><trkpt lat="44.5670533" lon="10.6517683"><ele>150.0</ele><time>2026-04-19T15:11:12.987Z</time></trkpt><trkpt lat="44.5672017" lon="10.651845"><ele>151.0</ele><time>2026-04-19T15:11:13.987Z</time></trkpt><trkpt lat="44.5673517" lon="10.6519117"><ele>146.33333333333334</ele><time>2026-04-19T15:11:14.987Z</time></trkpt><trkpt lat="44.5674967" lon="10.6519733"><ele>141.66666666666666</ele><time>2026-04-19T15:11:15.987Z</time></trkpt><trkpt lat="44.5676467" lon="10.6520183"><ele>137.0</ele><time>2026-04-19T15:11:16.987Z</time></trkpt><trkpt lat="44.5677933" lon="10.652045"><ele>137.33333333333331</ele><time>2026-04-19T15:11:17.987Z</time></trkpt><trkpt lat="44.56794" lon="10.6520683"><ele>137.66666666666666</ele><time>2026-04-19T15:11:18.987Z</time></trkpt><trkpt lat="44.5680933" lon="10.6521017"><ele>138.0</ele><time>2026-04-19T15:11:19.987Z</time></trkpt><trkpt lat="44.5682467" lon="10.65215"><ele>138.0</ele><time>2026-04-19T15:11:20.987Z</time></trkpt><trkpt lat="44.5683883" lon="10.6522383"><ele>138.0</ele><time>2026-04-19T15:11:21.987Z</time></trkpt><trkpt lat="44.5685117" lon="10.6523683"><ele>138.0</ele><time>2026-04-19T15:11:22.987Z</time></trkpt><trkpt lat="44.568615" lon="10.6525333"><ele>137.0</ele><time>2026-04-19T15:11:23.987Z</time></trkpt><trkpt lat="44.5687217" lon="10.652685"><ele>136.0</ele><time>2026-04-19T15:11:24.987Z</time></trkpt><trkpt lat="44.56883" lon="10.65282"><ele>135.0</ele><time>2026-04-19T15:11:25.987Z</time></trkpt><trkpt lat="44.5689583" lon="10.6529233"><ele>134.0</ele><time>2026-04-19T15:11:26.987Z</time></trkpt><trkpt lat="44.5691117" lon="10.653005"><ele>134.0</ele><time>2026-04-19T15:11:27.987Z</time></trkpt><trkpt lat="44.569275" lon="10.6530783"><ele>134.0</ele><time>2026-04-19T15:11:28.987Z</time></trkpt><trkpt lat="44.5694517" lon="10.6531467"><ele>134.0</ele><time>2026-04-19T15:11:29.987Z</time></trkpt><trkpt lat="44.5696183" lon="10.6532067"><ele>134.0</ele><time>2026-04-19T15:11:30.987Z</time></trkpt><trkpt lat="44.56978" lon="10.6532633"><ele>134.0</ele><time>2026-04-19T15:11:31.987Z</time></trkpt><trkpt lat="44.56993" lon="10.6533233"><ele>134.0</ele><time>2026-04-19T15:11:32.987Z</time></trkpt><trkpt lat="44.5700817" lon="10.653375"><ele>134.0</ele><time>2026-04-19T15:11:33.987Z</time></trkpt><trkpt lat="44.57024" lon="10.653435"><ele>134.0</ele><time>2026-04-19T15:11:34.987Z</time></trkpt><trkpt lat="44.5703983" lon="10.653485"><ele>134.0</ele><time>2026-04-19T15:11:35.987Z</time></trkpt><trkpt lat="44.57056" lon="10.6535217"><ele>134.0</ele><time>2026-04-19T15:11:36.987Z</time></trkpt><trkpt lat="44.57073" lon="10.653545"><ele>134.0</ele><time>2026-04-19T15:11:37.987Z</time></trkpt><trkpt lat="44.5709083" lon="10.6535517"><ele>134.0</ele><time>2026-04-19T15:11:38.987Z</time></trkpt><trkpt lat="44.57108" lon="10.6535517"><ele>133.33333333333331</ele><time>2026-04-19T15:11:39.987Z</time></trkpt><trkpt lat="44.5712367" lon="10.65355"><ele>132.66666666666666</ele><time>2026-04-19T15:11:40.987Z</time></trkpt><trkpt lat="44.5713867" lon="10.6535417"><ele>132.0</ele><time>2026-04-19T15:11:41.987Z</time></trkpt><trkpt lat="44.5715333" lon="10.6535367"><ele>132.0</ele><time>2026-04-19T15:11:42.987Z</time></trkpt><trkpt lat="44.5716683" lon="10.6535333"><ele>132.0</ele><time>2026-04-19T15:11:43.987Z</time></trkpt><trkpt lat="44.57181" lon="10.65353"><ele>132.0</ele><time>2026-04-19T15:11:44.987Z</time></trkpt><trkpt lat="44.5719517" lon="10.653525"><ele>132.0</ele><time>2026-04-19T15:11:45.987Z</time></trkpt><trkpt lat="44.5720867" lon="10.6535233"><ele>131.75</ele><time>2026-04-19T15:11:46.987Z</time></trkpt><trkpt lat="44.572225" lon="10.6535317"><ele>131.5</ele><time>2026-04-19T15:11:47.987Z</time></trkpt><trkpt lat="44.5723683" lon="10.6535467"><ele>131.25</ele><time>2026-04-19T15:11:48.987Z</time></trkpt><trkpt lat="44.572515" lon="10.65357"><ele>131.0</ele><time>2026-04-19T15:11:49.987Z</time></trkpt><trkpt lat="44.5726617" lon="10.6536"><ele>130.0</ele><time>2026-04-19T15:11:50.987Z</time></trkpt><trkpt lat="44.5728067" lon="10.6536483"><ele>129.0</ele><time>2026-04-19T15:11:51.987Z</time></trkpt><trkpt lat="44.5729333" lon="10.6537117"><ele>128.0</ele><time>2026-04-19T15:11:52.987Z</time></trkpt><trkpt lat="44.5730633" lon="10.6537783"><ele>127.0</ele><time>2026-04-19T15:11:53.987Z</time></trkpt><trkpt lat="44.5731983" lon="10.653855"><ele>126.5</ele><time>2026-04-19T15:11:54.987Z</time></trkpt><trkpt lat="44.5733267" lon="10.6539383"><ele>126.0</ele><time>2026-04-19T15:11:55.987Z</time></trkpt><trkpt lat="44.5734567" lon="10.65403"><ele>125.5</ele><time>2026-04-19T15:11:56.987Z</time></trkpt><trkpt lat="44.5735967" lon="10.6541383"><ele>125.0</ele><time>2026-04-19T15:11:57.987Z</time></trkpt><trkpt lat="44.573745" lon="10.654245"><ele>125.0</ele><time>2026-04-19T15:11:58.987Z</time></trkpt><trkpt lat="44.5738917" lon="10.6543567"><ele>125.0</ele><time>2026-04-19T15:11:59.986Z</time></trkpt><trkpt lat="44.5740467" lon="10.6544683"><ele>125.0</ele><time>2026-04-19T15:12:00.986Z</time></trkpt><trkpt lat="44.574195" lon="10.6545833"><ele>125.0</ele><time>2026-04-19T15:12:01.986Z</time></trkpt><trkpt lat="44.5743367" lon="10.6546983"><ele>125.0</ele><time>2026-04-19T15:12:02.986Z</time></trkpt><trkpt lat="44.574475" lon="10.6548083"><ele>125.0</ele><time>2026-04-19T15:12:03.986Z</time></trkpt><trkpt lat="44.574605" lon="10.654905"><ele>126.5</ele><time>2026-04-19T15:12:04.986Z</time></trkpt><trkpt lat="44.574735" lon="10.6550017"><ele>128.0</ele><time>2026-04-19T15:12:05.986Z</time></trkpt><trkpt lat="44.5748583" lon="10.655095"><ele>129.5</ele><time>2026-04-19T15:12:06.986Z</time></trkpt><trkpt lat="44.5749767" lon="10.6551917"><ele>131.0</ele><time>2026-04-19T15:12:07.986Z</time></trkpt><trkpt lat="44.575095" lon="10.6552733"><ele>129.0</ele><time>2026-04-19T15:12:08.986Z</time></trkpt><trkpt lat="44.5752167" lon="10.6553417"><ele>127.0</ele><time>2026-04-19T15:12:09.986Z</time></trkpt><trkpt lat="44.5753333" lon="10.6554"><ele>125.0</ele><time>2026-04-19T15:12:10.986Z</time></trkpt><trkpt lat="44.5754467" lon="10.65541"><ele>123.0</ele><time>2026-04-19T15:12:11.986Z</time></trkpt><trkpt lat="44.5755683" lon="10.655375"><ele>123.0</ele><time>2026-04-19T15:12:12.986Z</time></trkpt><trkpt lat="44.57569" lon="10.655305"><ele>123.0</ele><time>2026-04-19T15:12:13.986Z</time></trkpt><trkpt lat="44.5757983" lon="10.6552067"><ele>123.0</ele><time>2026-04-19T15:12:14.986Z</time></trkpt><trkpt lat="44.5759033" lon="10.6550883"><ele>123.0</ele><time>2026-04-19T15:12:15.986Z</time></trkpt><trkpt lat="44.57609" lon="10.6548483"><ele>124.0</ele><time>2026-04-19T15:12:17.986Z</time></trkpt><trkpt lat="44.5761967" lon="10.6547583"><ele>125.0</ele><time>2026-04-19T15:12:18.986Z</time></trkpt><trkpt lat="44.5763117" lon="10.654715"><ele>126.0</ele><time>2026-04-19T15:12:19.986Z</time></trkpt><trkpt lat="44.5764383" lon="10.6546983"><ele>127.0</ele><time>2026-04-19T15:12:20.986Z</time></trkpt><trkpt lat="44.5765767" lon="10.6547283"><ele>127.0</ele><time>2026-04-19T15:12:21.986Z</time></trkpt><trkpt lat="44.576715" lon="10.6547567"><ele>127.0</ele><time>2026-04-19T15:12:22.986Z</time></trkpt><trkpt lat="44.57686" lon="10.6547983"><ele>127.0</ele><time>2026-04-19T15:12:23.986Z</time></trkpt><trkpt lat="44.5770033" lon="10.6548533"><ele>127.0</ele><time>2026-04-19T15:12:24.987Z</time></trkpt><trkpt lat="44.5771417" lon="10.6549083"><ele>127.5</ele><time>2026-04-19T15:12:25.986Z</time></trkpt><trkpt lat="44.5772833" lon="10.6549817"><ele>128.0</ele><time>2026-04-19T15:12:26.986Z</time></trkpt><trkpt lat="44.5774217" lon="10.65505"><ele>128.5</ele><time>2026-04-19T15:12:27.986Z</time></trkpt><trkpt lat="44.5775583" lon="10.655135"><ele>129.0</ele><time>2026-04-19T15:12:28.986Z</time></trkpt><trkpt lat="44.5776967" lon="10.6552217"><ele>127.75</ele><time>2026-04-19T15:12:29.986Z</time></trkpt><trkpt lat="44.5778333" lon="10.65532"><ele>126.5</ele><time>2026-04-19T15:12:30.986Z</time></trkpt><trkpt lat="44.5779617" lon="10.6554183"><ele>125.25</ele><time>2026-04-19T15:12:31.986Z</time></trkpt><trkpt lat="44.5780867" lon="10.655505"><ele>124.0</ele><time>2026-04-19T15:12:32.986Z</time></trkpt><trkpt lat="44.5782167" lon="10.6555833"><ele>124.0</ele><time>2026-04-19T15:12:33.986Z</time></trkpt><trkpt lat="44.5783467" lon="10.655665"><ele>124.0</ele><time>2026-04-19T15:12:34.986Z</time></trkpt><trkpt lat="44.5784817" lon="10.6557417"><ele>124.0</ele><time>2026-04-19T15:12:35.986Z</time></trkpt><trkpt lat="44.5786267" lon="10.6558033"><ele>124.0</ele><time>2026-04-19T15:12:36.986Z</time></trkpt><trkpt lat="44.5787617" lon="10.6558567"><ele>124.5</ele><time>2026-04-19T15:12:37.986Z</time></trkpt><trkpt lat="44.5788967" lon="10.6559117"><ele>125.0</ele><time>2026-04-19T15:12:38.986Z</time></trkpt><trkpt lat="44.5790267" lon="10.655965"><ele>125.5</ele><time>2026-04-19T15:12:39.986Z</time></trkpt><trkpt lat="44.579145" lon="10.6560133"><ele>126.0</ele><time>2026-04-19T15:12:40.986Z</time></trkpt><trkpt lat="44.5792683" lon="10.6560683"><ele>125.75</ele><time>2026-04-19T15:12:41.986Z</time></trkpt><trkpt lat="44.5794033" lon="10.6561233"><ele>125.5</ele><time>2026-04-19T15:12:42.986Z</time></trkpt><trkpt lat="44.5795417" lon="10.6561833"><ele>125.25</ele><time>2026-04-19T15:12:43.986Z</time></trkpt><trkpt lat="44.5796783" lon="10.65623"><ele>125.0</ele><time>2026-04-19T15:12:44.986Z</time></trkpt><trkpt lat="44.5798083" lon="10.6562867"><ele>125.0</ele><time>2026-04-19T15:12:45.986Z</time></trkpt><trkpt lat="44.5799317" lon="10.656345"><ele>125.0</ele><time>2026-04-19T15:12:46.986Z</time></trkpt><trkpt lat="44.5800583" lon="10.656425"><ele>125.0</ele><time>2026-04-19T15:12:47.986Z</time></trkpt><trkpt lat="44.580185" lon="10.6565183"><ele>125.0</ele><time>2026-04-19T15:12:48.986Z</time></trkpt><trkpt lat="44.5803017" lon="10.6566317"><ele>126.33333333333333</ele><time>2026-04-19T15:12:49.986Z</time></trkpt><trkpt lat="44.5804117" lon="10.6567683"><ele>127.66666666666666</ele><time>2026-04-19T15:12:50.986Z</time></trkpt><trkpt lat="44.5805117" lon="10.65693"><ele>129.0</ele><time>2026-04-19T15:12:51.987Z</time></trkpt><trkpt lat="44.5806083" lon="10.6571017"><ele>129.0</ele><time>2026-04-19T15:12:52.986Z</time></trkpt><trkpt lat="44.5806933" lon="10.65728"><ele>129.0</ele><time>2026-04-19T15:12:53.986Z</time></trkpt><trkpt lat="44.5807633" lon="10.6574667"><ele>129.0</ele><time>2026-04-19T15:12:54.986Z</time></trkpt><trkpt lat="44.5808217" lon="10.6576467"><ele>129.0</ele><time>2026-04-19T15:12:55.986Z</time></trkpt><trkpt lat="44.5808733" lon="10.6578283"><ele>126.5</ele><time>2026-04-19T15:12:56.986Z</time></trkpt><trkpt lat="44.5809367" lon="10.6580067"><ele>124.0</ele><time>2026-04-19T15:12:57.986Z</time></trkpt><trkpt lat="44.5810017" lon="10.6581817"><ele>121.5</ele><time>2026-04-19T15:12:58.986Z</time></trkpt><trkpt lat="44.5810717" lon="10.6583583"><ele>119.0</ele><time>2026-04-19T15:12:59.986Z</time></trkpt><trkpt lat="44.581155" lon="10.6585383"><ele>120.0</ele><time>2026-04-19T15:13:00.986Z</time></trkpt><trkpt lat="44.5812433" lon="10.658715"><ele>121.0</ele><time>2026-04-19T15:13:01.986Z</time></trkpt><trkpt lat="44.581345" lon="10.6588917"><ele>122.0</ele><time>2026-04-19T15:13:02.986Z</time></trkpt><trkpt lat="44.5814583" lon="10.6590667"><ele>122.0</ele><time>2026-04-19T15:13:03.986Z</time></trkpt><trkpt lat="44.581575" lon="10.659235"><ele>122.0</ele><time>2026-04-19T15:13:04.986Z</time></trkpt><trkpt lat="44.5816867" lon="10.6593967"><ele>122.0</ele><time>2026-04-19T15:13:05.986Z</time></trkpt><trkpt lat="44.5818083" lon="10.6595533"><ele>123.66666666666666</ele><time>2026-04-19T15:13:06.986Z</time></trkpt><trkpt lat="44.5819333" lon="10.6597033"><ele>125.33333333333334</ele><time>2026-04-19T15:13:07.986Z</time></trkpt><trkpt lat="44.5820433" lon="10.6598583"><ele>127.0</ele><time>2026-04-19T15:13:08.986Z</time></trkpt><trkpt lat="44.5821517" lon="10.659995"><ele>127.0</ele><time>2026-04-19T15:13:09.986Z</time></trkpt><trkpt lat="44.582255" lon="10.6601333"><ele>127.0</ele><time>2026-04-19T15:13:10.986Z</time></trkpt><trkpt lat="44.582365" lon="10.660285"><ele>127.0</ele><time>2026-04-19T15:13:11.986Z</time></trkpt><trkpt lat="44.5824733" lon="10.6604467"><ele>123.0</ele><time>2026-04-19T15:13:12.986Z</time></trkpt><trkpt lat="44.58258" lon="10.660615"><ele>119.0</ele><time>2026-04-19T15:13:13.986Z</time></trkpt><trkpt lat="44.5826817" lon="10.6607833"><ele>115.0</ele><time>2026-04-19T15:13:14.986Z</time></trkpt><trkpt lat="44.58278" lon="10.66095"><ele>114.75</ele><time>2026-04-19T15:13:15.986Z</time></trkpt><trkpt lat="44.58287" lon="10.6611117"><ele>114.5</ele><time>2026-04-19T15:13:16.986Z</time></trkpt><trkpt lat="44.5829583" lon="10.6612767"><ele>114.25</ele><time>2026-04-19T15:13:17.986Z</time></trkpt><trkpt lat="44.5830383" lon="10.6614367"><ele>114.0</ele><time>2026-04-19T15:13:18.986Z</time></trkpt><trkpt lat="44.583125" lon="10.6615917"><ele>114.0</ele><time>2026-04-19T15:13:19.986Z</time></trkpt><trkpt lat="44.5832117" lon="10.6617367"><ele>114.0</ele><time>2026-04-19T15:13:20.986Z</time></trkpt><trkpt lat="44.5833167" lon="10.6618833"><ele>114.0</ele><time>2026-04-19T15:13:21.986Z</time></trkpt><trkpt lat="44.5834333" lon="10.6620033"><ele>114.0</ele><time>2026-04-19T15:13:22.986Z</time></trkpt><trkpt lat="44.58356" lon="10.6620933"><ele>114.5</ele><time>2026-04-19T15:13:23.986Z</time></trkpt><trkpt lat="44.5837017" lon="10.662155"><ele>115.0</ele><time>2026-04-19T15:13:24.986Z</time></trkpt><trkpt lat="44.5838383" lon="10.6621983"><ele>115.5</ele><time>2026-04-19T15:13:25.986Z</time></trkpt><trkpt lat="44.5839717" lon="10.6622283"><ele>116.0</ele><time>2026-04-19T15:13:26.986Z</time></trkpt><trkpt lat="44.5841033" lon="10.66226"><ele>116.0</ele><time>2026-04-19T15:13:27.986Z</time></trkpt><trkpt lat="44.58423" lon="10.6622867"><ele>116.0</ele><time>2026-04-19T15:13:28.986Z</time></trkpt><trkpt lat="44.58435" lon="10.662335"><ele>116.0</ele><time>2026-04-19T15:13:29.986Z</time></trkpt><trkpt lat="44.5844633" lon="10.6624183"><ele>116.0</ele><time>2026-04-19T15:13:30.986Z</time></trkpt><trkpt lat="44.5845717" lon="10.6625233"><ele>116.0</ele><time>2026-04-19T15:13:31.987Z</time></trkpt><trkpt lat="44.5846617" lon="10.66266"><ele>116.0</ele><time>2026-04-19T15:13:32.986Z</time></trkpt><trkpt lat="44.5847567" lon="10.6628033"><ele>116.0</ele><time>2026-04-19T15:13:33.986Z</time></trkpt><trkpt lat="44.5848467" lon="10.6629533"><ele>116.0</ele><time>2026-04-19T15:13:34.986Z</time></trkpt><trkpt lat="44.5850267" lon="10.6632717"><ele>115.33333333333333</ele><time>2026-04-19T15:13:36.986Z</time></trkpt><trkpt lat="44.5851233" lon="10.6634383"><ele>114.66666666666666</ele><time>2026-04-19T15:13:37.986Z</time></trkpt><trkpt lat="44.5852217" lon="10.6636117"><ele>114.0</ele><time>2026-04-19T15:13:38.986Z</time></trkpt><trkpt lat="44.5853217" lon="10.66378"><ele>112.66666666666666</ele><time>2026-04-19T15:13:39.986Z</time></trkpt><trkpt lat="44.5854183" lon="10.6639533"><ele>111.33333333333333</ele><time>2026-04-19T15:13:40.986Z</time></trkpt><trkpt lat="44.585515" lon="10.6641233"><ele>110.0</ele><time>2026-04-19T15:13:41.986Z</time></trkpt><trkpt lat="44.5856133" lon="10.6643033"><ele>109.66666666666666</ele><time>2026-04-19T15:13:42.986Z</time></trkpt><trkpt lat="44.585705" lon="10.66449"><ele>109.33333333333334</ele><time>2026-04-19T15:13:43.986Z</time></trkpt><trkpt lat="44.5857917" lon="10.66469"><ele>109.0</ele><time>2026-04-19T15:13:44.986Z</time></trkpt><trkpt lat="44.5858767" lon="10.66488"><ele>109.0</ele><time>2026-04-19T15:13:45.986Z</time></trkpt><trkpt lat="44.5859533" lon="10.6650883"><ele>109.0</ele><time>2026-04-19T15:13:46.986Z</time></trkpt><trkpt lat="44.5860267" lon="10.6652967"><ele>109.0</ele><time>2026-04-19T15:13:47.986Z</time></trkpt><trkpt lat="44.586095" lon="10.66549"><ele>109.0</ele><time>2026-04-19T15:13:48.986Z</time></trkpt><trkpt lat="44.5861683" lon="10.6656783"><ele>109.0</ele><time>2026-04-19T15:13:49.986Z</time></trkpt><trkpt lat="44.58624" lon="10.665865"><ele>109.0</ele><time>2026-04-19T15:13:50.986Z</time></trkpt><trkpt lat="44.5863067" lon="10.6660433"><ele>109.0</ele><time>2026-04-19T15:13:51.986Z</time></trkpt><trkpt lat="44.58638" lon="10.6662"><ele>109.0</ele><time>2026-04-19T15:13:52.986Z</time></trkpt><trkpt lat="44.5864767" lon="10.6663383"><ele>109.0</ele><time>2026-04-19T15:13:53.986Z</time></trkpt><trkpt lat="44.5865933" lon="10.66646"><ele>109.0</ele><time>2026-04-19T15:13:54.986Z</time></trkpt><trkpt lat="44.5867317" lon="10.6665767"><ele>109.0</ele><time>2026-04-19T15:13:55.986Z</time></trkpt><trkpt lat="44.586885" lon="10.66669"><ele>108.66666666666667</ele><time>2026-04-19T15:13:56.986Z</time></trkpt><trkpt lat="44.58705" lon="10.6667883"><ele>108.33333333333334</ele><time>2026-04-19T15:13:57.986Z</time></trkpt><trkpt lat="44.5872083" lon="10.6668867"><ele>108.0</ele><time>2026-04-19T15:13:58.986Z</time></trkpt><trkpt lat="44.5873567" lon="10.66698"><ele>107.66666666666666</ele><time>2026-04-19T15:13:59.986Z</time></trkpt><trkpt lat="44.5875033" lon="10.6670667"><ele>107.33333333333333</ele><time>2026-04-19T15:14:00.986Z</time></trkpt><trkpt lat="44.5876467" lon="10.6671483"><ele>107.0</ele><time>2026-04-19T15:14:01.986Z</time></trkpt><trkpt lat="44.5877833" lon="10.6672283"><ele>107.25</ele><time>2026-04-19T15:14:02.986Z</time></trkpt><trkpt lat="44.5879083" lon="10.6673067"><ele>107.5</ele><time>2026-04-19T15:14:03.986Z</time></trkpt><trkpt lat="44.588025" lon="10.6673733"><ele>107.75</ele><time>2026-04-19T15:14:04.986Z</time></trkpt><trkpt lat="44.588135" lon="10.6674367"><ele>108.0</ele><time>2026-04-19T15:14:05.986Z</time></trkpt><trkpt lat="44.5882333" lon="10.6674967"><ele>108.0</ele><time>2026-04-19T15:14:06.986Z</time></trkpt><trkpt lat="44.5883167" lon="10.6675417"><ele>108.0</ele><time>2026-04-19T15:14:07.986Z</time></trkpt><trkpt lat="44.588395" lon="10.6675967"><ele>108.0</ele><time>2026-04-19T15:14:08.986Z</time></trkpt><trkpt lat="44.58846" lon="10.6676383"><ele>108.0</ele><time>2026-04-19T15:14:09.986Z</time></trkpt><trkpt lat="44.58856" lon="10.667685"><ele>108.0</ele><time>2026-04-19T15:14:11.986Z</time></trkpt><trkpt lat="44.58862" lon="10.6677167"><ele>108.0</ele><time>2026-04-19T15:14:12.986Z</time></trkpt><trkpt lat="44.5887017" lon="10.667755"><ele>107.66666666666667</ele><time>2026-04-19T15:14:13.986Z</time></trkpt><trkpt lat="44.58879" lon="10.6677967"><ele>107.33333333333334</ele><time>2026-04-19T15:14:14.986Z</time></trkpt><trkpt lat="44.58888" lon="10.66785"><ele>107.0</ele><time>2026-04-19T15:14:15.986Z</time></trkpt><trkpt lat="44.5889533" lon="10.6679033"><ele>106.66666666666667</ele><time>2026-04-19T15:14:16.986Z</time></trkpt><trkpt lat="44.5890117" lon="10.667955"><ele>106.33333333333334</ele><time>2026-04-19T15:14:17.986Z</time></trkpt><trkpt lat="44.5891033" lon="10.668015"><ele>106.0</ele><time>2026-04-19T15:14:19.986Z</time></trkpt><trkpt lat="44.5891683" lon="10.6680583"><ele>106.0</ele><time>2026-04-19T15:14:28.986Z</time></trkpt><trkpt lat="44.5892767" lon="10.66814"><ele>106.0</ele><time>2026-04-19T15:14:30.986Z</time></trkpt><trkpt lat="44.589355" lon="10.668185"><ele>106.0</ele><time>2026-04-19T15:14:31.986Z</time></trkpt><trkpt lat="44.5894583" lon="10.6682133"><ele>106.0</ele><time>2026-04-19T15:14:32.986Z</time></trkpt><trkpt lat="44.5895833" lon="10.6682267"><ele>106.0</ele><time>2026-04-19T15:14:33.986Z</time></trkpt><trkpt lat="44.5897217" lon="10.6682033"><ele>106.0</ele><time>2026-04-19T15:14:34.986Z</time></trkpt><trkpt lat="44.5898667" lon="10.66815"><ele>106.0</ele><time>2026-04-19T15:14:35.986Z</time></trkpt><trkpt lat="44.5900333" lon="10.66811"><ele>106.0</ele><time>2026-04-19T15:14:36.986Z</time></trkpt><trkpt lat="44.5902167" lon="10.668085"><ele>106.33333333333334</ele><time>2026-04-19T15:14:37.986Z</time></trkpt><trkpt lat="44.5904183" lon="10.668095"><ele>106.66666666666666</ele><time>2026-04-19T15:14:38.986Z</time></trkpt><trkpt lat="44.59062" lon="10.6681167"><ele>107.0</ele><time>2026-04-19T15:14:39.986Z</time></trkpt><trkpt lat="44.5908117" lon="10.6681567"><ele>107.0</ele><time>2026-04-19T15:14:40.986Z</time></trkpt><trkpt lat="44.591" lon="10.6681933"><ele>107.0</ele><time>2026-04-19T15:14:41.986Z</time></trkpt><trkpt lat="44.591175" lon="10.66824"><ele>107.0</ele><time>2026-04-19T15:14:42.986Z</time></trkpt><trkpt lat="44.591355" lon="10.66832"><ele>106.66666666666666</ele><time>2026-04-19T15:14:43.986Z</time></trkpt><trkpt lat="44.591555" lon="10.668425"><ele>106.33333333333334</ele><time>2026-04-19T15:14:44.986Z</time></trkpt><trkpt lat="44.5917367" lon="10.66856"><ele>106.0</ele><time>2026-04-19T15:14:45.986Z</time></trkpt><trkpt lat="44.5919217" lon="10.6686933"><ele>105.33333333333334</ele><time>2026-04-19T15:14:46.986Z</time></trkpt><trkpt lat="44.5920967" lon="10.6688217"><ele>104.66666666666666</ele><time>2026-04-19T15:14:47.986Z</time></trkpt><trkpt lat="44.59228" lon="10.6689517"><ele>104.0</ele><time>2026-04-19T15:14:48.986Z</time></trkpt><trkpt lat="44.5924533" lon="10.6690733"><ele>104.0</ele><time>2026-04-19T15:14:49.986Z</time></trkpt><trkpt lat="44.59263" lon="10.669175"><ele>104.0</ele><time>2026-04-19T15:14:50.986Z</time></trkpt><trkpt lat="44.5928083" lon="10.6692633"><ele>104.0</ele><time>2026-04-19T15:14:51.986Z</time></trkpt><trkpt lat="44.5929917" lon="10.6693417"><ele>104.0</ele><time>2026-04-19T15:14:52.986Z</time></trkpt><trkpt lat="44.59317" lon="10.66942"><ele>104.0</ele><time>2026-04-19T15:14:53.986Z</time></trkpt><trkpt lat="44.5933583" lon="10.6694967"><ele>104.0</ele><time>2026-04-19T15:14:54.986Z</time></trkpt><trkpt lat="44.5935383" lon="10.66956"><ele>103.33333333333333</ele><time>2026-04-19T15:14:55.986Z</time></trkpt><trkpt lat="44.5937133" lon="10.6696283"><ele>102.66666666666666</ele><time>2026-04-19T15:14:56.986Z</time></trkpt><trkpt lat="44.5938883" lon="10.6697033"><ele>102.0</ele><time>2026-04-19T15:14:57.986Z</time></trkpt><trkpt lat="44.5940583" lon="10.6698233"><ele>102.0</ele><time>2026-04-19T15:14:58.986Z</time></trkpt><trkpt lat="44.5942283" lon="10.6699483"><ele>102.0</ele><time>2026-04-19T15:14:59.986Z</time></trkpt><trkpt lat="44.5943917" lon="10.670075"><ele>102.0</ele><time>2026-04-19T15:15:00.986Z</time></trkpt><trkpt lat="44.5945517" lon="10.6702017"><ele>102.33333333333334</ele><time>2026-04-19T15:15:01.986Z</time></trkpt><trkpt lat="44.5947" lon="10.6703217"><ele>102.66666666666667</ele><time>2026-04-19T15:15:02.986Z</time></trkpt><trkpt lat="44.5948533" lon="10.67044"><ele>103.0</ele><time>2026-04-19T15:15:03.986Z</time></trkpt><trkpt lat="44.595" lon="10.6705617"><ele>103.0</ele><time>2026-04-19T15:15:04.986Z</time></trkpt><trkpt lat="44.5951467" lon="10.6706867"><ele>103.0</ele><time>2026-04-19T15:15:05.986Z</time></trkpt><trkpt lat="44.5952833" lon="10.6707967"><ele>103.0</ele><time>2026-04-19T15:15:06.986Z</time></trkpt><trkpt lat="44.5954117" lon="10.6709067"><ele>103.0</ele><time>2026-04-19T15:15:07.986Z</time></trkpt><trkpt lat="44.5955317" lon="10.6710067"><ele>103.0</ele><time>2026-04-19T15:15:08.986Z</time></trkpt><trkpt lat="44.5956567" lon="10.6711067"><ele>103.0</ele><time>2026-04-19T15:15:09.986Z</time></trkpt><trkpt lat="44.59578" lon="10.671215"><ele>103.0</ele><time>2026-04-19T15:15:10.986Z</time></trkpt><trkpt lat="44.5958983" lon="10.6713133"><ele>103.0</ele><time>2026-04-19T15:15:11.986Z</time></trkpt><trkpt lat="44.5960267" lon="10.671415"><ele>103.0</ele><time>2026-04-19T15:15:12.986Z</time></trkpt><trkpt lat="44.5961533" lon="10.6715167"><ele>103.0</ele><time>2026-04-19T15:15:13.986Z</time></trkpt><trkpt lat="44.59627" lon="10.671615"><ele>103.0</ele><time>2026-04-19T15:15:14.986Z</time></trkpt><trkpt lat="44.596385" lon="10.6717167"><ele>102.80000000000001</ele><time>2026-04-19T15:15:15.986Z</time></trkpt><trkpt lat="44.596495" lon="10.67181"><ele>102.6</ele><time>2026-04-19T15:15:16.986Z</time></trkpt><trkpt lat="44.5966017" lon="10.6718867"><ele>102.4</ele><time>2026-04-19T15:15:17.986Z</time></trkpt><trkpt lat="44.5966983" lon="10.6719533"><ele>102.19999999999999</ele><time>2026-04-19T15:15:18.986Z</time></trkpt><trkpt lat="44.5967767" lon="10.6720017"><ele>102.0</ele><time>2026-04-19T15:15:19.986Z</time></trkpt><trkpt lat="44.5968383" lon="10.6720383"><ele>101.8</ele><time>2026-04-19T15:15:20.986Z</time></trkpt><trkpt lat="44.5969083" lon="10.672095"><ele>101.6</ele><time>2026-04-19T15:15:22.986Z</time></trkpt><trkpt lat="44.5969767" lon="10.6722167"><ele>101.39999999999999</ele><time>2026-04-19T15:15:30.986Z</time></trkpt><trkpt lat="44.5970117" lon="10.6722983"><ele>101.19999999999999</ele><time>2026-04-19T15:15:31.986Z</time></trkpt><trkpt lat="44.5971017" lon="10.6724783"><ele>101.0</ele><time>2026-04-19T15:15:33.986Z</time></trkpt><trkpt lat="44.597175" lon="10.6725383"><ele>100.6</ele><time>2026-04-19T15:15:34.986Z</time></trkpt><trkpt lat="44.5972717" lon="10.6725733"><ele>100.19999999999999</ele><time>2026-04-19T15:15:35.986Z</time></trkpt><trkpt lat="44.5973717" lon="10.6725567"><ele>99.80000000000001</ele><time>2026-04-19T15:15:36.986Z</time></trkpt><trkpt lat="44.5974667" lon="10.672505"><ele>99.4</ele><time>2026-04-19T15:15:37.986Z</time></trkpt><trkpt lat="44.5975667" lon="10.6724667"><ele>99.0</ele><time>2026-04-19T15:15:38.986Z</time></trkpt><trkpt lat="44.5976667" lon="10.67247"><ele>99.0</ele><time>2026-04-19T15:15:39.986Z</time></trkpt><trkpt lat="44.59779" lon="10.67253"><ele>99.0</ele><time>2026-04-19T15:15:40.986Z</time></trkpt><trkpt lat="44.597935" lon="10.6725983"><ele>99.0</ele><time>2026-04-19T15:15:41.986Z</time></trkpt><trkpt lat="44.598085" lon="10.6726533"><ele>99.0</ele><time>2026-04-19T15:15:42.986Z</time></trkpt><trkpt lat="44.598235" lon="10.672705"><ele>99.25</ele><time>2026-04-19T15:15:43.986Z</time></trkpt><trkpt lat="44.5983817" lon="10.6727533"><ele>99.5</ele><time>2026-04-19T15:15:44.986Z</time></trkpt><trkpt lat="44.5985183" lon="10.6728083"><ele>99.75</ele><time>2026-04-19T15:15:45.986Z</time></trkpt><trkpt lat="44.59866" lon="10.6728683"><ele>100.0</ele><time>2026-04-19T15:15:46.986Z</time></trkpt><trkpt lat="44.5988133" lon="10.6729233"><ele>100.0</ele><time>2026-04-19T15:15:47.986Z</time></trkpt><trkpt lat="44.5989733" lon="10.6729717"><ele>100.0</ele><time>2026-04-19T15:15:48.986Z</time></trkpt><trkpt lat="44.5991367" lon="10.673025"><ele>100.0</ele><time>2026-04-19T15:15:49.986Z</time></trkpt><trkpt lat="44.59929" lon="10.67308"><ele>100.0</ele><time>2026-04-19T15:15:50.986Z</time></trkpt><trkpt lat="44.59943" lon="10.6731217"><ele>100.0</ele><time>2026-04-19T15:15:51.986Z</time></trkpt><trkpt lat="44.5995667" lon="10.67316"><ele>100.0</ele><time>2026-04-19T15:15:52.986Z</time></trkpt><trkpt lat="44.5997017" lon="10.6731983"><ele>100.0</ele><time>2026-04-19T15:15:53.986Z</time></trkpt><trkpt lat="44.5998333" lon="10.6732383"><ele>100.5</ele><time>2026-04-19T15:15:54.986Z</time></trkpt><trkpt lat="44.5999667" lon="10.6732867"><ele>101.0</ele><time>2026-04-19T15:15:55.986Z</time></trkpt><trkpt lat="44.60011" lon="10.6733317"><ele>101.5</ele><time>2026-04-19T15:15:56.986Z</time></trkpt><trkpt lat="44.6002417" lon="10.6733767"><ele>102.0</ele><time>2026-04-19T15:15:57.986Z</time></trkpt><trkpt lat="44.6003733" lon="10.6734333"><ele>102.0</ele><time>2026-04-19T15:15:58.986Z</time></trkpt><trkpt lat="44.6004933" lon="10.6734933"><ele>102.0</ele><time>2026-04-19T15:15:59.986Z</time></trkpt><trkpt lat="44.6006067" lon="10.67356"><ele>102.0</ele><time>2026-04-19T15:16:00.986Z</time></trkpt><trkpt lat="44.6007267" lon="10.6736467"><ele>102.0</ele><time>2026-04-19T15:16:01.986Z</time></trkpt><trkpt lat="44.6008467" lon="10.6737367"><ele>101.75</ele><time>2026-04-19T15:16:02.986Z</time></trkpt><trkpt lat="44.6009633" lon="10.673825"><ele>101.5</ele><time>2026-04-19T15:16:03.986Z</time></trkpt><trkpt lat="44.6010717" lon="10.6739183"><ele>101.25</ele><time>2026-04-19T15:16:04.986Z</time></trkpt><trkpt lat="44.6011817" lon="10.6740083"><ele>101.0</ele><time>2026-04-19T15:16:05.986Z</time></trkpt><trkpt lat="44.6012883" lon="10.6741017"><ele>101.0</ele><time>2026-04-19T15:16:06.986Z</time></trkpt><trkpt lat="44.601405" lon="10.6741967"><ele>101.0</ele><time>2026-04-19T15:16:07.986Z</time></trkpt><trkpt lat="44.6015233" lon="10.67429"><ele>101.0</ele><time>2026-04-19T15:16:08.986Z</time></trkpt><trkpt lat="44.6016367" lon="10.6743833"><ele>101.0</ele><time>2026-04-19T15:16:09.986Z</time></trkpt><trkpt lat="44.6017517" lon="10.6744767"><ele>101.0</ele><time>2026-04-19T15:16:10.986Z</time></trkpt><trkpt lat="44.6018567" lon="10.6745667"><ele>101.0</ele><time>2026-04-19T15:16:11.986Z</time></trkpt><trkpt lat="44.6019517" lon="10.6746633"><ele>101.0</ele><time>2026-04-19T15:16:12.986Z</time></trkpt><trkpt lat="44.6020483" lon="10.67474"><ele>101.0</ele><time>2026-04-19T15:16:13.986Z</time></trkpt><trkpt lat="44.6021317" lon="10.6748283"><ele>100.66666666666666</ele><time>2026-04-19T15:16:14.986Z</time></trkpt><trkpt lat="44.6022117" lon="10.67489"><ele>100.33333333333333</ele><time>2026-04-19T15:16:15.986Z</time></trkpt><trkpt lat="44.6022833" lon="10.6749567"><ele>100.0</ele><time>2026-04-19T15:16:16.986Z</time></trkpt><trkpt lat="44.6023467" lon="10.6750067"><ele>99.66666666666666</ele><time>2026-04-19T15:16:17.986Z</time></trkpt><trkpt lat="44.6024133" lon="10.6750417"><ele>99.33333333333333</ele><time>2026-04-19T15:16:18.986Z</time></trkpt><trkpt lat="44.60252" lon="10.67511"><ele>99.0</ele><time>2026-04-19T15:16:20.986Z</time></trkpt><trkpt lat="44.6026183" lon="10.67519"><ele>99.0</ele><time>2026-04-19T15:16:22.986Z</time></trkpt><trkpt lat="44.6027183" lon="10.67526"><ele>99.0</ele><time>2026-04-19T15:16:24.986Z</time></trkpt><trkpt lat="44.6028283" lon="10.6753483"><ele>99.0</ele><time>2026-04-19T15:16:26.986Z</time></trkpt><trkpt lat="44.6029217" lon="10.6754233"><ele>99.0</ele><time>2026-04-19T15:16:28.987Z</time></trkpt><trkpt lat="44.60299" lon="10.6754833"><ele>99.0</ele><time>2026-04-19T15:16:30.986Z</time></trkpt><trkpt lat="44.603045" lon="10.6755317"><ele>98.66666666666667</ele><time>2026-04-19T15:16:34.986Z</time></trkpt><trkpt lat="44.6031083" lon="10.6755783"><ele>98.33333333333334</ele><time>2026-04-19T15:16:40.986Z</time></trkpt><trkpt lat="44.60317" lon="10.6756567"><ele>98.0</ele><time>2026-04-19T15:16:42.986Z</time></trkpt><trkpt lat="44.6032567" lon="10.675735"><ele>97.66666666666667</ele><time>2026-04-19T15:16:44.986Z</time></trkpt><trkpt lat="44.603315" lon="10.6757767"><ele>97.33333333333334</ele><time>2026-04-19T15:16:45.986Z</time></trkpt><trkpt lat="44.603395" lon="10.6758283"><ele>97.0</ele><time>2026-04-19T15:16:46.986Z</time></trkpt><trkpt lat="44.6034917" lon="10.67589"><ele>97.0</ele><time>2026-04-19T15:16:47.986Z</time></trkpt><trkpt lat="44.6036017" lon="10.67597"><ele>97.0</ele><time>2026-04-19T15:16:48.986Z</time></trkpt><trkpt lat="44.6037233" lon="10.6760517"><ele>97.0</ele><time>2026-04-19T15:16:49.986Z</time></trkpt><trkpt lat="44.603865" lon="10.6761683"><ele>97.0</ele><time>2026-04-19T15:16:50.986Z</time></trkpt><trkpt lat="44.60401" lon="10.67629"><ele>97.0</ele><time>2026-04-19T15:16:51.986Z</time></trkpt><trkpt lat="44.6041483" lon="10.676415"><ele>97.0</ele><time>2026-04-19T15:16:52.986Z</time></trkpt><trkpt lat="44.6042933" lon="10.676555"><ele>97.0</ele><time>2026-04-19T15:16:53.986Z</time></trkpt><trkpt lat="44.6044383" lon="10.6766883"><ele>97.0</ele><time>2026-04-19T15:16:54.986Z</time></trkpt><trkpt lat="44.6045783" lon="10.6768133"><ele>97.0</ele><time>2026-04-19T15:16:55.986Z</time></trkpt><trkpt lat="44.60471" lon="10.6769267"><ele>97.0</ele><time>2026-04-19T15:16:56.986Z</time></trkpt><trkpt lat="44.6048433" lon="10.6770367"><ele>97.0</ele><time>2026-04-19T15:16:57.986Z</time></trkpt><trkpt lat="44.6049767" lon="10.67715"><ele>97.0</ele><time>2026-04-19T15:16:58.986Z</time></trkpt><trkpt lat="44.6051117" lon="10.67727"><ele>97.0</ele><time>2026-04-19T15:16:59.986Z</time></trkpt><trkpt lat="44.6052483" lon="10.6773767"><ele>96.66666666666667</ele><time>2026-04-19T15:17:00.986Z</time></trkpt><trkpt lat="44.6053917" lon="10.6774867"><ele>96.33333333333334</ele><time>2026-04-19T15:17:01.986Z</time></trkpt><trkpt lat="44.6055317" lon="10.677595"><ele>96.0</ele><time>2026-04-19T15:17:02.986Z</time></trkpt><trkpt lat="44.605675" lon="10.6776933"><ele>95.5</ele><time>2026-04-19T15:17:03.986Z</time></trkpt><trkpt lat="44.6058167" lon="10.677785"><ele>95.0</ele><time>2026-04-19T15:17:04.986Z</time></trkpt><trkpt lat="44.605945" lon="10.6778783"><ele>94.5</ele><time>2026-04-19T15:17:05.986Z</time></trkpt><trkpt lat="44.6060783" lon="10.6779483"><ele>94.0</ele><time>2026-04-19T15:17:06.986Z</time></trkpt><trkpt lat="44.606225" lon="10.6780283"><ele>93.5</ele><time>2026-04-19T15:17:07.986Z</time></trkpt><trkpt lat="44.6063767" lon="10.6781117"><ele>93.0</ele><time>2026-04-19T15:17:08.986Z</time></trkpt><trkpt lat="44.6065083" lon="10.6781933"><ele>92.5</ele><time>2026-04-19T15:17:09.986Z</time></trkpt><trkpt lat="44.6066317" lon="10.6782667"><ele>92.0</ele><time>2026-04-19T15:17:10.986Z</time></trkpt><trkpt lat="44.6067467" lon="10.6783383"><ele>92.0</ele><time>2026-04-19T15:17:11.986Z</time></trkpt><trkpt lat="44.606855" lon="10.6783917"><ele>92.0</ele><time>2026-04-19T15:17:12.986Z</time></trkpt><trkpt lat="44.60695" lon="10.6784517"><ele>92.0</ele><time>2026-04-19T15:17:13.986Z</time></trkpt><trkpt lat="44.6070417" lon="10.6785083"><ele>92.0</ele><time>2026-04-19T15:17:14.986Z</time></trkpt><trkpt lat="44.6071183" lon="10.6785767"><ele>92.0</ele><time>2026-04-19T15:17:15.986Z</time></trkpt><trkpt lat="44.6071883" lon="10.6786567"><ele>92.0</ele><time>2026-04-19T15:17:16.986Z</time></trkpt><trkpt lat="44.60726" lon="10.6787367"><ele>92.0</ele><time>2026-04-19T15:17:17.986Z</time></trkpt><trkpt lat="44.607335" lon="10.6787933"><ele>92.0</ele><time>2026-04-19T15:17:18.986Z</time></trkpt><trkpt lat="44.6074217" lon="10.6788083"><ele>92.0</ele><time>2026-04-19T15:17:19.986Z</time></trkpt><trkpt lat="44.6075217" lon="10.678795"><ele>92.0</ele><time>2026-04-19T15:17:20.986Z</time></trkpt><trkpt lat="44.607635" lon="10.6788267"><ele>92.0</ele><time>2026-04-19T15:17:21.986Z</time></trkpt><trkpt lat="44.607765" lon="10.678895"><ele>92.0</ele><time>2026-04-19T15:17:22.986Z</time></trkpt><trkpt lat="44.6078917" lon="10.678985"><ele>92.0</ele><time>2026-04-19T15:17:23.986Z</time></trkpt><trkpt lat="44.6080183" lon="10.679075"><ele>92.0</ele><time>2026-04-19T15:17:24.986Z</time></trkpt><trkpt lat="44.6081467" lon="10.6791683"><ele>92.0</ele><time>2026-04-19T15:17:25.986Z</time></trkpt><trkpt lat="44.6082783" lon="10.6792517"><ele>92.0</ele><time>2026-04-19T15:17:26.986Z</time></trkpt><trkpt lat="44.608405" lon="10.6793283"><ele>92.0</ele><time>2026-04-19T15:17:27.986Z</time></trkpt><trkpt lat="44.60852" lon="10.6793983"><ele>92.0</ele><time>2026-04-19T15:17:28.986Z</time></trkpt><trkpt lat="44.6086283" lon="10.6794717"><ele>91.75</ele><time>2026-04-19T15:17:29.986Z</time></trkpt><trkpt lat="44.608735" lon="10.6795467"><ele>91.5</ele><time>2026-04-19T15:17:30.986Z</time></trkpt><trkpt lat="44.6088467" lon="10.6796167"><ele>91.25</ele><time>2026-04-19T15:17:31.986Z</time></trkpt><trkpt lat="44.6089667" lon="10.6796917"><ele>91.0</ele><time>2026-04-19T15:17:32.986Z</time></trkpt><trkpt lat="44.6090833" lon="10.6797717"><ele>91.0</ele><time>2026-04-19T15:17:33.986Z</time></trkpt><trkpt lat="44.6091967" lon="10.6798433"><ele>91.0</ele><time>2026-04-19T15:17:34.986Z</time></trkpt><trkpt lat="44.6093233" lon="10.6799233"><ele>91.0</ele><time>2026-04-19T15:17:35.986Z</time></trkpt><trkpt lat="44.609445" lon="10.6800033"><ele>91.0</ele><time>2026-04-19T15:17:36.986Z</time></trkpt><trkpt lat="44.6095783" lon="10.6800883"><ele>91.0</ele><time>2026-04-19T15:17:37.986Z</time></trkpt><trkpt lat="44.6097083" lon="10.6801717"><ele>91.0</ele><time>2026-04-19T15:17:38.986Z</time></trkpt><trkpt lat="44.609835" lon="10.680255"><ele>91.0</ele><time>2026-04-19T15:17:39.986Z</time></trkpt><trkpt lat="44.609965" lon="10.6803517"><ele>91.0</ele><time>2026-04-19T15:17:40.986Z</time></trkpt><trkpt lat="44.61009" lon="10.68044"><ele>91.0</ele><time>2026-04-19T15:17:41.986Z</time></trkpt><trkpt lat="44.6102083" lon="10.680535"><ele>91.0</ele><time>2026-04-19T15:17:42.986Z</time></trkpt><trkpt lat="44.6103133" lon="10.6806467"><ele>91.0</ele><time>2026-04-19T15:17:43.986Z</time></trkpt><trkpt lat="44.610415" lon="10.6807533"><ele>91.0</ele><time>2026-04-19T15:17:44.986Z</time></trkpt><trkpt lat="44.6105083" lon="10.680865"><ele>90.75</ele><time>2026-04-19T15:17:45.986Z</time></trkpt><trkpt lat="44.610605" lon="10.68097"><ele>90.5</ele><time>2026-04-19T15:17:46.986Z</time></trkpt><trkpt lat="44.610705" lon="10.6810883"><ele>90.25</ele><time>2026-04-19T15:17:47.986Z</time></trkpt><trkpt lat="44.6107967" lon="10.68121"><ele>90.0</ele><time>2026-04-19T15:17:48.986Z</time></trkpt><trkpt lat="44.6108867" lon="10.6813483"><ele>90.0</ele><time>2026-04-19T15:17:49.986Z</time></trkpt><trkpt lat="44.6109833" lon="10.68149"><ele>90.0</ele><time>2026-04-19T15:17:50.986Z</time></trkpt><trkpt lat="44.6110783" lon="10.6816217"><ele>90.0</ele><time>2026-04-19T15:17:51.986Z</time></trkpt><trkpt lat="44.6112067" lon="10.6817417"><ele>90.0</ele><time>2026-04-19T15:17:52.986Z</time></trkpt><trkpt lat="44.6113333" lon="10.6818483"><ele>89.33333333333333</ele><time>2026-04-19T15:17:53.986Z</time></trkpt><trkpt lat="44.61147" lon="10.68195"><ele>88.66666666666666</ele><time>2026-04-19T15:17:54.986Z</time></trkpt><trkpt lat="44.6116117" lon="10.6820517"><ele>88.0</ele><time>2026-04-19T15:17:55.986Z</time></trkpt><trkpt lat="44.6117617" lon="10.6821617"><ele>88.0</ele><time>2026-04-19T15:17:56.986Z</time></trkpt><trkpt lat="44.6119" lon="10.68228"><ele>88.0</ele><time>2026-04-19T15:17:57.986Z</time></trkpt><trkpt lat="44.6120383" lon="10.6823917"><ele>88.0</ele><time>2026-04-19T15:17:58.986Z</time></trkpt><trkpt lat="44.612165" lon="10.6824883"><ele>88.25</ele><time>2026-04-19T15:17:59.986Z</time></trkpt><trkpt lat="44.612285" lon="10.6825967"><ele>88.5</ele><time>2026-04-19T15:18:00.986Z</time></trkpt><trkpt lat="44.6124017" lon="10.6827017"><ele>88.75</ele><time>2026-04-19T15:18:01.986Z</time></trkpt><trkpt lat="44.6125217" lon="10.682805"><ele>89.0</ele><time>2026-04-19T15:18:02.986Z</time></trkpt><trkpt lat="44.612645" lon="10.6829083"><ele>88.75</ele><time>2026-04-19T15:18:03.986Z</time></trkpt><trkpt lat="44.6127583" lon="10.6829983"><ele>88.5</ele><time>2026-04-19T15:18:04.986Z</time></trkpt><trkpt lat="44.612865" lon="10.6830933"><ele>88.25</ele><time>2026-04-19T15:18:05.986Z</time></trkpt><trkpt lat="44.6129717" lon="10.6831783"><ele>88.0</ele><time>2026-04-19T15:18:06.986Z</time></trkpt><trkpt lat="44.6130733" lon="10.6832717"><ele>88.0</ele><time>2026-04-19T15:18:07.986Z</time></trkpt><trkpt lat="44.613175" lon="10.6833683"><ele>88.0</ele><time>2026-04-19T15:18:08.986Z</time></trkpt><trkpt lat="44.61327" lon="10.6834617"><ele>88.0</ele><time>2026-04-19T15:18:09.986Z</time></trkpt><trkpt lat="44.613355" lon="10.6835483"><ele>88.0</ele><time>2026-04-19T15:18:10.986Z</time></trkpt><trkpt lat="44.6134233" lon="10.68363"><ele>88.0</ele><time>2026-04-19T15:18:11.986Z</time></trkpt><trkpt lat="44.613485" lon="10.683705"><ele>87.80000000000001</ele><time>2026-04-19T15:18:12.986Z</time></trkpt><trkpt lat="44.613545" lon="10.6837833"><ele>87.6</ele><time>2026-04-19T15:18:13.986Z</time></trkpt><trkpt lat="44.6135983" lon="10.6838583"><ele>87.4</ele><time>2026-04-19T15:18:14.986Z</time></trkpt><trkpt lat="44.6136267" lon="10.6839383"><ele>87.19999999999999</ele><time>2026-04-19T15:18:15.986Z</time></trkpt><trkpt lat="44.6135883" lon="10.68414"><ele>87.0</ele><time>2026-04-19T15:18:17.986Z</time></trkpt><trkpt lat="44.61353" lon="10.68428"><ele>87.25</ele><time>2026-04-19T15:18:18.986Z</time></trkpt><trkpt lat="44.6134683" lon="10.6844317"><ele>87.5</ele><time>2026-04-19T15:18:19.986Z</time></trkpt><trkpt lat="44.61341" lon="10.6846117"><ele>87.75</ele><time>2026-04-19T15:18:20.986Z</time></trkpt><trkpt lat="44.6133467" lon="10.6848083"><ele>88.0</ele><time>2026-04-19T15:18:21.986Z</time></trkpt><trkpt lat="44.613275" lon="10.6850117"><ele>88.0</ele><time>2026-04-19T15:18:22.986Z</time></trkpt><trkpt lat="44.6132017" lon="10.6852133"><ele>88.0</ele><time>2026-04-19T15:18:23.986Z</time></trkpt><trkpt lat="44.6131317" lon="10.6854183"><ele>88.0</ele><time>2026-04-19T15:18:24.986Z</time></trkpt><trkpt lat="44.6130633" lon="10.6856367"><ele>88.0</ele><time>2026-04-19T15:18:25.986Z</time></trkpt><trkpt lat="44.61299" lon="10.6858417"><ele>88.0</ele><time>2026-04-19T15:18:26.986Z</time></trkpt><trkpt lat="44.6129267" lon="10.68604"><ele>88.0</ele><time>2026-04-19T15:18:27.986Z</time></trkpt><trkpt lat="44.612865" lon="10.68623"><ele>87.75</ele><time>2026-04-19T15:18:28.986Z</time></trkpt><trkpt lat="44.612795" lon="10.6864183"><ele>87.5</ele><time>2026-04-19T15:18:29.986Z</time></trkpt><trkpt lat="44.6127267" lon="10.6865967"><ele>87.25</ele><time>2026-04-19T15:18:30.986Z</time></trkpt><trkpt lat="44.6126683" lon="10.6867767"><ele>87.0</ele><time>2026-04-19T15:18:31.986Z</time></trkpt><trkpt lat="44.6126133" lon="10.6869433"><ele>87.0</ele><time>2026-04-19T15:18:32.986Z</time></trkpt><trkpt lat="44.6125633" lon="10.6871067"><ele>87.0</ele><time>2026-04-19T15:18:33.986Z</time></trkpt><trkpt lat="44.6125083" lon="10.6872683"><ele>87.0</ele><time>2026-04-19T15:18:34.986Z</time></trkpt><trkpt lat="44.6124533" lon="10.6874267"><ele>87.0</ele><time>2026-04-19T15:18:35.987Z</time></trkpt><trkpt lat="44.612395" lon="10.6875867"><ele>87.0</ele><time>2026-04-19T15:18:36.986Z</time></trkpt><trkpt lat="44.6123417" lon="10.68775"><ele>87.0</ele><time>2026-04-19T15:18:37.986Z</time></trkpt><trkpt lat="44.6122917" lon="10.68791"><ele>87.0</ele><time>2026-04-19T15:18:38.986Z</time></trkpt><trkpt lat="44.6122433" lon="10.6880583"><ele>87.0</ele><time>2026-04-19T15:18:39.986Z</time></trkpt><trkpt lat="44.6121967" lon="10.68821"><ele>87.0</ele><time>2026-04-19T15:18:40.986Z</time></trkpt><trkpt lat="44.6121517" lon="10.68835"><ele>87.0</ele><time>2026-04-19T15:18:41.986Z</time></trkpt><trkpt lat="44.612115" lon="10.6884933"><ele>87.0</ele><time>2026-04-19T15:18:42.986Z</time></trkpt><trkpt lat="44.6120733" lon="10.6886283"><ele>87.0</ele><time>2026-04-19T15:18:43.986Z</time></trkpt><trkpt lat="44.6120233" lon="10.688745"><ele>87.0</ele><time>2026-04-19T15:18:44.986Z</time></trkpt><trkpt lat="44.6119767" lon="10.688875"><ele>87.0</ele><time>2026-04-19T15:18:45.986Z</time></trkpt><trkpt lat="44.6119367" lon="10.689015"><ele>87.0</ele><time>2026-04-19T15:18:46.986Z</time></trkpt><trkpt lat="44.6118867" lon="10.6891517"><ele>87.0</ele><time>2026-04-19T15:18:47.986Z</time></trkpt><trkpt lat="44.6118383" lon="10.68929"><ele>87.0</ele><time>2026-04-19T15:18:48.986Z</time></trkpt><trkpt lat="44.611795" lon="10.689435"><ele>87.0</ele><time>2026-04-19T15:18:49.986Z</time></trkpt><trkpt lat="44.6117567" lon="10.6895883"><ele>86.75</ele><time>2026-04-19T15:18:50.986Z</time></trkpt><trkpt lat="44.61172" lon="10.6897567"><ele>86.5</ele><time>2026-04-19T15:18:51.986Z</time></trkpt><trkpt lat="44.6116817" lon="10.68992"><ele>86.25</ele><time>2026-04-19T15:18:52.986Z</time></trkpt><trkpt lat="44.6116433" lon="10.6900833"><ele>86.0</ele><time>2026-04-19T15:18:53.986Z</time></trkpt><trkpt lat="44.6116017" lon="10.6902467"><ele>86.0</ele><time>2026-04-19T15:18:54.986Z</time></trkpt><trkpt lat="44.6115583" lon="10.690405"><ele>86.0</ele><time>2026-04-19T15:18:55.986Z</time></trkpt><trkpt lat="44.6115167" lon="10.6905667"><ele>86.0</ele><time>2026-04-19T15:18:56.986Z</time></trkpt><trkpt lat="44.611475" lon="10.6907267"><ele>86.0</ele><time>2026-04-19T15:18:57.986Z</time></trkpt><trkpt lat="44.6114317" lon="10.69089"><ele>86.0</ele><time>2026-04-19T15:18:58.986Z</time></trkpt><trkpt lat="44.611385" lon="10.6910533"><ele>86.0</ele><time>2026-04-19T15:18:59.986Z</time></trkpt><trkpt lat="44.6113383" lon="10.6912167"><ele>86.0</ele><time>2026-04-19T15:19:00.986Z</time></trkpt><trkpt lat="44.6112967" lon="10.6913783"><ele>86.0</ele><time>2026-04-19T15:19:01.986Z</time></trkpt><trkpt lat="44.6112617" lon="10.6915417"><ele>86.0</ele><time>2026-04-19T15:19:02.986Z</time></trkpt><trkpt lat="44.611235" lon="10.6917067"><ele>86.0</ele><time>2026-04-19T15:19:03.986Z</time></trkpt><trkpt lat="44.6112217" lon="10.691875"><ele>86.0</ele><time>2026-04-19T15:19:04.986Z</time></trkpt><trkpt lat="44.6112033" lon="10.69204"><ele>86.0</ele><time>2026-04-19T15:19:05.986Z</time></trkpt><trkpt lat="44.6111917" lon="10.6922117"><ele>86.0</ele><time>2026-04-19T15:19:06.986Z</time></trkpt><trkpt lat="44.6111833" lon="10.692375"><ele>86.0</ele><time>2026-04-19T15:19:07.986Z</time></trkpt><trkpt lat="44.61117" lon="10.6925417"><ele>86.0</ele><time>2026-04-19T15:19:08.986Z</time></trkpt><trkpt lat="44.61115" lon="10.6927117"><ele>86.0</ele><time>2026-04-19T15:19:09.987Z</time></trkpt><trkpt lat="44.611135" lon="10.6928867"><ele>85.25</ele><time>2026-04-19T15:19:10.986Z</time></trkpt><trkpt lat="44.6111117" lon="10.6930517"><ele>84.5</ele><time>2026-04-19T15:19:11.986Z</time></trkpt><trkpt lat="44.6111" lon="10.6932283"><ele>83.75</ele><time>2026-04-19T15:19:12.986Z</time></trkpt><trkpt lat="44.61108" lon="10.6934017"><ele>83.0</ele><time>2026-04-19T15:19:13.986Z</time></trkpt><trkpt lat="44.6110617" lon="10.6935767"><ele>82.75</ele><time>2026-04-19T15:19:14.986Z</time></trkpt><trkpt lat="44.6110467" lon="10.6937533"><ele>82.5</ele><time>2026-04-19T15:19:15.986Z</time></trkpt><trkpt lat="44.6110333" lon="10.69393"><ele>82.25</ele><time>2026-04-19T15:19:16.986Z</time></trkpt><trkpt lat="44.6110167" lon="10.6941017"><ele>82.0</ele><time>2026-04-19T15:19:17.986Z</time></trkpt><trkpt lat="44.610985" lon="10.694265"><ele>82.0</ele><time>2026-04-19T15:19:18.986Z</time></trkpt><trkpt lat="44.6109533" lon="10.6944283"><ele>82.0</ele><time>2026-04-19T15:19:19.987Z</time></trkpt><trkpt lat="44.6109167" lon="10.6945933"><ele>82.0</ele><time>2026-04-19T15:19:20.986Z</time></trkpt><trkpt lat="44.61089" lon="10.6947567"><ele>82.0</ele><time>2026-04-19T15:19:21.986Z</time></trkpt><trkpt lat="44.610855" lon="10.694925"><ele>82.0</ele><time>2026-04-19T15:19:22.986Z</time></trkpt><trkpt lat="44.6108183" lon="10.69509"><ele>82.0</ele><time>2026-04-19T15:19:23.986Z</time></trkpt><trkpt lat="44.6107883" lon="10.6952583"><ele>82.0</ele><time>2026-04-19T15:19:24.986Z</time></trkpt><trkpt lat="44.6107583" lon="10.6954267"><ele>82.0</ele><time>2026-04-19T15:19:25.986Z</time></trkpt><trkpt lat="44.6107217" lon="10.6955933"><ele>82.25</ele><time>2026-04-19T15:19:26.986Z</time></trkpt><trkpt lat="44.610685" lon="10.69577"><ele>82.5</ele><time>2026-04-19T15:19:27.986Z</time></trkpt><trkpt lat="44.61065" lon="10.695935"><ele>82.75</ele><time>2026-04-19T15:19:28.986Z</time></trkpt><trkpt lat="44.61061" lon="10.696105"><ele>83.0</ele><time>2026-04-19T15:19:29.986Z</time></trkpt><trkpt lat="44.610575" lon="10.6962867"><ele>83.0</ele><time>2026-04-19T15:19:30.986Z</time></trkpt><trkpt lat="44.6105417" lon="10.6964533"><ele>83.0</ele><time>2026-04-19T15:19:31.986Z</time></trkpt><trkpt lat="44.61051" lon="10.696615"><ele>83.0</ele><time>2026-04-19T15:19:32.986Z</time></trkpt><trkpt lat="44.61048" lon="10.696775"><ele>83.0</ele><time>2026-04-19T15:19:33.986Z</time></trkpt><trkpt lat="44.61045" lon="10.696935"><ele>83.0</ele><time>2026-04-19T15:19:34.986Z</time></trkpt><trkpt lat="44.6104217" lon="10.697095"><ele>83.0</ele><time>2026-04-19T15:19:35.986Z</time></trkpt><trkpt lat="44.6103933" lon="10.6972567"><ele>83.0</ele><time>2026-04-19T15:19:36.986Z</time></trkpt><trkpt lat="44.6103617" lon="10.6974217"><ele>83.0</ele><time>2026-04-19T15:19:37.986Z</time></trkpt><trkpt lat="44.6103233" lon="10.69759"><ele>83.0</ele><time>2026-04-19T15:19:38.986Z</time></trkpt><trkpt lat="44.610305" lon="10.6977667"><ele>83.0</ele><time>2026-04-19T15:19:39.986Z</time></trkpt><trkpt lat="44.6102967" lon="10.6979383"><ele>83.0</ele><time>2026-04-19T15:19:40.986Z</time></trkpt><trkpt lat="44.6103133" lon="10.6980967"><ele>83.0</ele><time>2026-04-19T15:19:41.986Z</time></trkpt><trkpt lat="44.6103517" lon="10.6982233"><ele>83.0</ele><time>2026-04-19T15:19:42.986Z</time></trkpt><trkpt lat="44.6103983" lon="10.6983267"><ele>83.0</ele><time>2026-04-19T15:19:43.986Z</time></trkpt><trkpt lat="44.6104533" lon="10.6984033"><ele>83.0</ele><time>2026-04-19T15:19:44.986Z</time></trkpt><trkpt lat="44.610515" lon="10.6985217"><ele>83.0</ele><time>2026-04-19T15:19:46.986Z</time></trkpt><trkpt lat="44.6104817" lon="10.6986867"><ele>83.0</ele><time>2026-04-19T15:19:48.986Z</time></trkpt><trkpt lat="44.6104333" lon="10.6988033"><ele>83.0</ele><time>2026-04-19T15:19:49.986Z</time></trkpt><trkpt lat="44.6103817" lon="10.6989333"><ele>83.0</ele><time>2026-04-19T15:19:50.987Z</time></trkpt><trkpt lat="44.6103317" lon="10.6990717"><ele>83.0</ele><time>2026-04-19T15:19:51.986Z</time></trkpt><trkpt lat="44.6102867" lon="10.6992333"><ele>83.0</ele><time>2026-04-19T15:19:52.986Z</time></trkpt><trkpt lat="44.6102467" lon="10.6993967"><ele>82.75</ele><time>2026-04-19T15:19:53.986Z</time></trkpt><trkpt lat="44.6102067" lon="10.6995617"><ele>82.5</ele><time>2026-04-19T15:19:54.986Z</time></trkpt><trkpt lat="44.610195" lon="10.6997417"><ele>82.25</ele><time>2026-04-19T15:19:55.986Z</time></trkpt><trkpt lat="44.6102067" lon="10.6999583"><ele>82.0</ele><time>2026-04-19T15:19:56.986Z</time></trkpt><trkpt lat="44.6102467" lon="10.7001933"><ele>81.66666666666666</ele><time>2026-04-19T15:19:57.986Z</time></trkpt><trkpt lat="44.6103" lon="10.7004383"><ele>81.33333333333333</ele><time>2026-04-19T15:19:58.986Z</time></trkpt><trkpt lat="44.6103667" lon="10.7006567"><ele>81.0</ele><time>2026-04-19T15:19:59.986Z</time></trkpt><trkpt lat="44.6104467" lon="10.7008467"><ele>81.0</ele><time>2026-04-19T15:20:00.986Z</time></trkpt><trkpt lat="44.61055" lon="10.70101"><ele>81.0</ele><time>2026-04-19T15:20:01.986Z</time></trkpt><trkpt lat="44.6106767" lon="10.7011567"><ele>81.0</ele><time>2026-04-19T15:20:02.986Z</time></trkpt><trkpt lat="44.610815" lon="10.7012983"><ele>81.0</ele><time>2026-04-19T15:20:03.986Z</time></trkpt><trkpt lat="44.6109483" lon="10.70144"><ele>81.0</ele><time>2026-04-19T15:20:04.986Z</time></trkpt><trkpt lat="44.61108" lon="10.7015833"><ele>81.0</ele><time>2026-04-19T15:20:05.986Z</time></trkpt><trkpt lat="44.6112083" lon="10.7017433"><ele>80.33333333333333</ele><time>2026-04-19T15:20:06.986Z</time></trkpt><trkpt lat="44.6113367" lon="10.7019017"><ele>79.66666666666666</ele><time>2026-04-19T15:20:07.986Z</time></trkpt><trkpt lat="44.611465" lon="10.702055"><ele>79.0</ele><time>2026-04-19T15:20:08.986Z</time></trkpt><trkpt lat="44.6116133" lon="10.7021683"><ele>78.66666666666666</ele><time>2026-04-19T15:20:09.987Z</time></trkpt><trkpt lat="44.6117583" lon="10.7023017"><ele>78.33333333333333</ele><time>2026-04-19T15:20:10.986Z</time></trkpt><trkpt lat="44.61191" lon="10.702425"><ele>78.0</ele><time>2026-04-19T15:20:11.986Z</time></trkpt><trkpt lat="44.6120617" lon="10.7025467"><ele>77.66666666666667</ele><time>2026-04-19T15:20:12.986Z</time></trkpt><trkpt lat="44.612215" lon="10.7026633"><ele>77.33333333333334</ele><time>2026-04-19T15:20:13.986Z</time></trkpt><trkpt lat="44.6123617" lon="10.70277"><ele>77.0</ele><time>2026-04-19T15:20:14.986Z</time></trkpt><trkpt lat="44.612505" lon="10.7028783"><ele>77.0</ele><time>2026-04-19T15:20:15.986Z</time></trkpt><trkpt lat="44.6126433" lon="10.7029867"><ele>77.0</ele><time>2026-04-19T15:20:16.986Z</time></trkpt><trkpt lat="44.6127717" lon="10.703085"><ele>77.0</ele><time>2026-04-19T15:20:17.986Z</time></trkpt><trkpt lat="44.612885" lon="10.7031867"><ele>77.0</ele><time>2026-04-19T15:20:18.986Z</time></trkpt><trkpt lat="44.6129883" lon="10.7032917"><ele>77.0</ele><time>2026-04-19T15:20:19.986Z</time></trkpt><trkpt lat="44.61308" lon="10.7033933"><ele>77.0</ele><time>2026-04-19T15:20:20.986Z</time></trkpt><trkpt lat="44.61315" lon="10.7034967"><ele>77.0</ele><time>2026-04-19T15:20:21.986Z</time></trkpt><trkpt lat="44.6132" lon="10.7035933"><ele>77.0</ele><time>2026-04-19T15:20:22.986Z</time></trkpt><trkpt lat="44.6132333" lon="10.7036917"><ele>77.0</ele><time>2026-04-19T15:20:23.986Z</time></trkpt><trkpt lat="44.61325" lon="10.7037867"><ele>76.8</ele><time>2026-04-19T15:20:24.986Z</time></trkpt><trkpt lat="44.61323" lon="10.7038783"><ele>76.6</ele><time>2026-04-19T15:20:25.986Z</time></trkpt><trkpt lat="44.6131833" lon="10.7039683"><ele>76.39999999999999</ele><time>2026-04-19T15:20:26.986Z</time></trkpt><trkpt lat="44.613115" lon="10.7040533"><ele>76.2</ele><time>2026-04-19T15:20:27.986Z</time></trkpt><trkpt lat="44.6130233" lon="10.7041417"><ele>76.0</ele><time>2026-04-19T15:20:28.986Z</time></trkpt><trkpt lat="44.6129167" lon="10.7042433"><ele>76.66666666666666</ele><time>2026-04-19T15:20:29.986Z</time></trkpt><trkpt lat="44.6127917" lon="10.7043683"><ele>77.33333333333333</ele><time>2026-04-19T15:20:30.986Z</time></trkpt><trkpt lat="44.6126433" lon="10.7045"><ele>78.0</ele><time>2026-04-19T15:20:31.986Z</time></trkpt><trkpt lat="44.6124917" lon="10.704635"><ele>78.0</ele><time>2026-04-19T15:20:32.986Z</time></trkpt><trkpt lat="44.612345" lon="10.704765"><ele>78.0</ele><time>2026-04-19T15:20:33.986Z</time></trkpt><trkpt lat="44.612205" lon="10.7048917"><ele>78.0</ele><time>2026-04-19T15:20:34.986Z</time></trkpt><trkpt lat="44.61207" lon="10.7050183"><ele>78.5</ele><time>2026-04-19T15:20:35.986Z</time></trkpt><trkpt lat="44.6119433" lon="10.7051333"><ele>79.0</ele><time>2026-04-19T15:20:36.986Z</time></trkpt><trkpt lat="44.6118267" lon="10.705245"><ele>79.5</ele><time>2026-04-19T15:20:37.986Z</time></trkpt><trkpt lat="44.61171" lon="10.7053633"><ele>80.0</ele><time>2026-04-19T15:20:38.986Z</time></trkpt><trkpt lat="44.6116" lon="10.70547"><ele>80.5</ele><time>2026-04-19T15:20:39.986Z</time></trkpt><trkpt lat="44.611495" lon="10.7055717"><ele>81.0</ele><time>2026-04-19T15:20:40.986Z</time></trkpt><trkpt lat="44.6113967" lon="10.7056667"><ele>81.5</ele><time>2026-04-19T15:20:41.986Z</time></trkpt><trkpt lat="44.6113033" lon="10.7057467"><ele>82.0</ele><time>2026-04-19T15:20:42.986Z</time></trkpt><trkpt lat="44.6112117" lon="10.7058033"><ele>81.66666666666666</ele><time>2026-04-19T15:20:43.986Z</time></trkpt><trkpt lat="44.61113" lon="10.7058333"><ele>81.33333333333333</ele><time>2026-04-19T15:20:44.986Z</time></trkpt><trkpt lat="44.61105" lon="10.7058433"><ele>81.0</ele><time>2026-04-19T15:20:45.986Z</time></trkpt><trkpt lat="44.6109667" lon="10.7058367"><ele>80.66666666666667</ele><time>2026-04-19T15:20:46.986Z</time></trkpt><trkpt lat="44.6108683" lon="10.7058417"><ele>80.33333333333334</ele><time>2026-04-19T15:20:47.986Z</time></trkpt><trkpt lat="44.61077" lon="10.7058833"><ele>80.0</ele><time>2026-04-19T15:20:48.986Z</time></trkpt><trkpt lat="44.6106817" lon="10.7059633"><ele>80.0</ele><time>2026-04-19T15:20:49.986Z</time></trkpt><trkpt lat="44.6106233" lon="10.70609"><ele>80.0</ele><time>2026-04-19T15:20:50.987Z</time></trkpt><trkpt lat="44.6106067" lon="10.7062267"><ele>80.0</ele><time>2026-04-19T15:20:51.986Z</time></trkpt><trkpt lat="44.6106333" lon="10.70636"><ele>80.0</ele><time>2026-04-19T15:20:52.986Z</time></trkpt><trkpt lat="44.6107117" lon="10.7064783"><ele>80.0</ele><time>2026-04-19T15:20:53.986Z</time></trkpt><trkpt lat="44.6108183" lon="10.7065583"><ele>80.0</ele><time>2026-04-19T15:20:54.986Z</time></trkpt><trkpt lat="44.6109417" lon="10.7066067"><ele>80.0</ele><time>2026-04-19T15:20:55.986Z</time></trkpt><trkpt lat="44.611085" lon="10.706675"><ele>80.0</ele><time>2026-04-19T15:20:56.986Z</time></trkpt><trkpt lat="44.6112267" lon="10.706785"><ele>80.0</ele><time>2026-04-19T15:20:57.986Z</time></trkpt><trkpt lat="44.61137" lon="10.7069267"><ele>79.33333333333334</ele><time>2026-04-19T15:20:58.986Z</time></trkpt><trkpt lat="44.6115083" lon="10.7071"><ele>78.66666666666667</ele><time>2026-04-19T15:20:59.986Z</time></trkpt><trkpt lat="44.6116517" lon="10.7072933"><ele>78.0</ele><time>2026-04-19T15:21:00.986Z</time></trkpt><trkpt lat="44.6117967" lon="10.707495"><ele>78.0</ele><time>2026-04-19T15:21:01.986Z</time></trkpt><trkpt lat="44.61195" lon="10.7076967"><ele>78.0</ele><time>2026-04-19T15:21:02.986Z</time></trkpt><trkpt lat="44.6121033" lon="10.7079017"><ele>78.0</ele><time>2026-04-19T15:21:03.986Z</time></trkpt><trkpt lat="44.6122567" lon="10.708105"><ele>77.0</ele><time>2026-04-19T15:21:04.986Z</time></trkpt><trkpt lat="44.612415" lon="10.7083"><ele>76.0</ele><time>2026-04-19T15:21:05.986Z</time></trkpt><trkpt lat="44.6125767" lon="10.7084767"><ele>75.0</ele><time>2026-04-19T15:21:06.986Z</time></trkpt><trkpt lat="44.6127333" lon="10.7086617"><ele>75.66666666666667</ele><time>2026-04-19T15:21:07.986Z</time></trkpt><trkpt lat="44.6129017" lon="10.7088467"><ele>76.33333333333334</ele><time>2026-04-19T15:21:08.986Z</time></trkpt><trkpt lat="44.6130733" lon="10.70902"><ele>77.0</ele><time>2026-04-19T15:21:09.986Z</time></trkpt><trkpt lat="44.61324" lon="10.7091783"><ele>77.0</ele><time>2026-04-19T15:21:10.986Z</time></trkpt><trkpt lat="44.613405" lon="10.7093167"><ele>77.0</ele><time>2026-04-19T15:21:11.986Z</time></trkpt><trkpt lat="44.61357" lon="10.7094567"><ele>77.0</ele><time>2026-04-19T15:21:12.986Z</time></trkpt><trkpt lat="44.6137467" lon="10.7095967"><ele>76.33333333333334</ele><time>2026-04-19T15:21:13.986Z</time></trkpt><trkpt lat="44.6139367" lon="10.7097367"><ele>75.66666666666667</ele><time>2026-04-19T15:21:14.986Z</time></trkpt><trkpt lat="44.614135" lon="10.7098617"><ele>75.0</ele><time>2026-04-19T15:21:15.986Z</time></trkpt><trkpt lat="44.6143367" lon="10.709985"><ele>75.0</ele><time>2026-04-19T15:21:16.986Z</time></trkpt><trkpt lat="44.6145383" lon="10.7101067"><ele>75.0</ele><time>2026-04-19T15:21:17.986Z</time></trkpt><trkpt lat="44.6147433" lon="10.71021"><ele>75.0</ele><time>2026-04-19T15:21:18.986Z</time></trkpt><trkpt lat="44.6149483" lon="10.7103067"><ele>75.0</ele><time>2026-04-19T15:21:19.986Z</time></trkpt><trkpt lat="44.6151467" lon="10.71039"><ele>75.0</ele><time>2026-04-19T15:21:20.986Z</time></trkpt><trkpt lat="44.6153433" lon="10.710475"><ele>75.0</ele><time>2026-04-19T15:21:21.986Z</time></trkpt><trkpt lat="44.61554" lon="10.710555"><ele>74.66666666666667</ele><time>2026-04-19T15:21:22.986Z</time></trkpt><trkpt lat="44.6157317" lon="10.710635"><ele>74.33333333333334</ele><time>2026-04-19T15:21:23.986Z</time></trkpt><trkpt lat="44.6159267" lon="10.71071"><ele>74.0</ele><time>2026-04-19T15:21:24.986Z</time></trkpt><trkpt lat="44.6161217" lon="10.7107767"><ele>75.0</ele><time>2026-04-19T15:21:25.986Z</time></trkpt><trkpt lat="44.6163083" lon="10.71085"><ele>76.0</ele><time>2026-04-19T15:21:26.986Z</time></trkpt><trkpt lat="44.616485" lon="10.7109183"><ele>77.0</ele><time>2026-04-19T15:21:27.986Z</time></trkpt><trkpt lat="44.616655" lon="10.71099"><ele>77.0</ele><time>2026-04-19T15:21:28.986Z</time></trkpt><trkpt lat="44.61683" lon="10.7110633"><ele>77.0</ele><time>2026-04-19T15:21:29.986Z</time></trkpt><trkpt lat="44.617015" lon="10.711135"><ele>77.0</ele><time>2026-04-19T15:21:30.986Z</time></trkpt><trkpt lat="44.6172" lon="10.7112167"><ele>76.33333333333334</ele><time>2026-04-19T15:21:31.986Z</time></trkpt><trkpt lat="44.6173817" lon="10.7113"><ele>75.66666666666667</ele><time>2026-04-19T15:21:32.986Z</time></trkpt><trkpt lat="44.617545" lon="10.7113833"><ele>75.0</ele><time>2026-04-19T15:21:33.986Z</time></trkpt><trkpt lat="44.6176967" lon="10.711465"><ele>74.75</ele><time>2026-04-19T15:21:34.986Z</time></trkpt><trkpt lat="44.6178367" lon="10.7115417"><ele>74.5</ele><time>2026-04-19T15:21:35.986Z</time></trkpt><trkpt lat="44.6179667" lon="10.7115967"><ele>74.25</ele><time>2026-04-19T15:21:36.986Z</time></trkpt><trkpt lat="44.6180867" lon="10.7116467"><ele>74.0</ele><time>2026-04-19T15:21:37.986Z</time></trkpt><trkpt lat="44.6181917" lon="10.711705"><ele>74.0</ele><time>2026-04-19T15:21:38.986Z</time></trkpt><trkpt lat="44.61829" lon="10.7117917"><ele>74.0</ele><time>2026-04-19T15:21:39.986Z</time></trkpt><trkpt lat="44.618395" lon="10.7119033"><ele>74.0</ele><time>2026-04-19T15:21:40.986Z</time></trkpt><trkpt lat="44.6185267" lon="10.7120183"><ele>74.0</ele><time>2026-04-19T15:21:41.986Z</time></trkpt><trkpt lat="44.6186817" lon="10.712145"><ele>73.66666666666667</ele><time>2026-04-19T15:21:42.986Z</time></trkpt><trkpt lat="44.6188467" lon="10.7122917"><ele>73.33333333333333</ele><time>2026-04-19T15:21:43.986Z</time></trkpt><trkpt lat="44.6190217" lon="10.712435"><ele>73.0</ele><time>2026-04-19T15:21:44.986Z</time></trkpt><trkpt lat="44.6192067" lon="10.7125833"><ele>73.0</ele><time>2026-04-19T15:21:45.986Z</time></trkpt><trkpt lat="44.619385" lon="10.71273"><ele>73.0</ele><time>2026-04-19T15:21:46.986Z</time></trkpt><trkpt lat="44.6195617" lon="10.7128733"><ele>73.0</ele><time>2026-04-19T15:21:47.986Z</time></trkpt><trkpt lat="44.6197383" lon="10.71301"><ele>73.33333333333333</ele><time>2026-04-19T15:21:48.986Z</time></trkpt><trkpt lat="44.6199233" lon="10.71313"><ele>73.66666666666667</ele><time>2026-04-19T15:21:49.986Z</time></trkpt><trkpt lat="44.6201067" lon="10.7132667"><ele>74.0</ele><time>2026-04-19T15:21:50.986Z</time></trkpt><trkpt lat="44.6202817" lon="10.71339"><ele>73.66666666666667</ele><time>2026-04-19T15:21:51.986Z</time></trkpt><trkpt lat="44.6204533" lon="10.7134967"><ele>73.33333333333333</ele><time>2026-04-19T15:21:52.986Z</time></trkpt><trkpt lat="44.6206283" lon="10.7136083"><ele>73.0</ele><time>2026-04-19T15:21:53.986Z</time></trkpt><trkpt lat="44.6208117" lon="10.7137133"><ele>73.0</ele><time>2026-04-19T15:21:54.986Z</time></trkpt><trkpt lat="44.621005" lon="10.7138117"><ele>73.0</ele><time>2026-04-19T15:21:55.986Z</time></trkpt><trkpt lat="44.6212017" lon="10.7139117"><ele>73.0</ele><time>2026-04-19T15:21:56.986Z</time></trkpt><trkpt lat="44.621405" lon="10.713995"><ele>73.0</ele><time>2026-04-19T15:21:57.986Z</time></trkpt><trkpt lat="44.6216083" lon="10.7140667"><ele>73.0</ele><time>2026-04-19T15:21:58.986Z</time></trkpt><trkpt lat="44.621825" lon="10.7141433"><ele>73.0</ele><time>2026-04-19T15:21:59.986Z</time></trkpt><trkpt lat="44.6220317" lon="10.7142217"><ele>73.0</ele><time>2026-04-19T15:22:00.986Z</time></trkpt><trkpt lat="44.6222433" lon="10.7142933"><ele>73.0</ele><time>2026-04-19T15:22:01.986Z</time></trkpt><trkpt lat="44.622445" lon="10.714365"><ele>73.0</ele><time>2026-04-19T15:22:02.986Z</time></trkpt><trkpt lat="44.6226433" lon="10.714435"><ele>72.66666666666666</ele><time>2026-04-19T15:22:03.986Z</time></trkpt><trkpt lat="44.6228383" lon="10.7144967"><ele>72.33333333333333</ele><time>2026-04-19T15:22:04.986Z</time></trkpt><trkpt lat="44.6230217" lon="10.7145533"><ele>72.0</ele><time>2026-04-19T15:22:05.986Z</time></trkpt><trkpt lat="44.6231867" lon="10.7146117"><ele>72.0</ele><time>2026-04-19T15:22:06.986Z</time></trkpt><trkpt lat="44.623345" lon="10.714665"><ele>72.0</ele><time>2026-04-19T15:22:07.986Z</time></trkpt><trkpt lat="44.6234933" lon="10.71473"><ele>72.0</ele><time>2026-04-19T15:22:08.986Z</time></trkpt><trkpt lat="44.6236283" lon="10.714805"><ele>72.0</ele><time>2026-04-19T15:22:09.986Z</time></trkpt><trkpt lat="44.6237483" lon="10.714885"><ele>72.0</ele><time>2026-04-19T15:22:10.986Z</time></trkpt><trkpt lat="44.6238617" lon="10.71496"><ele>72.0</ele><time>2026-04-19T15:22:11.986Z</time></trkpt><trkpt lat="44.6239617" lon="10.715045"><ele>72.0</ele><time>2026-04-19T15:22:12.986Z</time></trkpt><trkpt lat="44.6240533" lon="10.7151283"><ele>72.0</ele><time>2026-04-19T15:22:13.986Z</time></trkpt><trkpt lat="44.6241267" lon="10.7152217"><ele>72.0</ele><time>2026-04-19T15:22:14.986Z</time></trkpt><trkpt lat="44.6241867" lon="10.7153417"><ele>72.0</ele><time>2026-04-19T15:22:15.986Z</time></trkpt><trkpt lat="44.6242317" lon="10.7154783"><ele>72.0</ele><time>2026-04-19T15:22:16.986Z</time></trkpt><trkpt lat="44.62428" lon="10.71561"><ele>72.0</ele><time>2026-04-19T15:22:17.986Z</time></trkpt><trkpt lat="44.624345" lon="10.7157217"><ele>71.75</ele><time>2026-04-19T15:22:18.986Z</time></trkpt><trkpt lat="44.624435" lon="10.7158033"><ele>71.5</ele><time>2026-04-19T15:22:19.986Z</time></trkpt><trkpt lat="44.6245367" lon="10.715835"><ele>71.25</ele><time>2026-04-19T15:22:20.986Z</time></trkpt><trkpt lat="44.624655" lon="10.7158333"><ele>71.0</ele><time>2026-04-19T15:22:21.986Z</time></trkpt><trkpt lat="44.6247967" lon="10.7158117"><ele>71.0</ele><time>2026-04-19T15:22:22.986Z</time></trkpt><trkpt lat="44.624955" lon="10.7158083"><ele>71.0</ele><time>2026-04-19T15:22:23.986Z</time></trkpt><trkpt lat="44.625115" lon="10.7158217"><ele>71.0</ele><time>2026-04-19T15:22:24.986Z</time></trkpt><trkpt lat="44.6252817" lon="10.7158717"><ele>70.66666666666667</ele><time>2026-04-19T15:22:25.986Z</time></trkpt><trkpt lat="44.62546" lon="10.7159433"><ele>70.33333333333333</ele><time>2026-04-19T15:22:26.986Z</time></trkpt><trkpt lat="44.62563" lon="10.71602"><ele>70.0</ele><time>2026-04-19T15:22:27.986Z</time></trkpt><trkpt lat="44.6258017" lon="10.7160933"><ele>70.0</ele><time>2026-04-19T15:22:28.986Z</time></trkpt><trkpt lat="44.6259833" lon="10.7161733"><ele>70.0</ele><time>2026-04-19T15:22:29.986Z</time></trkpt><trkpt lat="44.6261617" lon="10.716245"><ele>70.0</ele><time>2026-04-19T15:22:30.986Z</time></trkpt><trkpt lat="44.6263433" lon="10.716325"><ele>70.66666666666666</ele><time>2026-04-19T15:22:31.986Z</time></trkpt><trkpt lat="44.6265233" lon="10.7164133"><ele>71.33333333333333</ele><time>2026-04-19T15:22:32.986Z</time></trkpt><trkpt lat="44.6266983" lon="10.7164983"><ele>72.0</ele><time>2026-04-19T15:22:33.986Z</time></trkpt><trkpt lat="44.6268717" lon="10.7165817"><ele>71.33333333333333</ele><time>2026-04-19T15:22:34.986Z</time></trkpt><trkpt lat="44.6270383" lon="10.7166917"><ele>70.66666666666666</ele><time>2026-04-19T15:22:35.986Z</time></trkpt><trkpt lat="44.6272083" lon="10.7168167"><ele>70.0</ele><time>2026-04-19T15:22:36.986Z</time></trkpt><trkpt lat="44.6273767" lon="10.7169633"><ele>70.0</ele><time>2026-04-19T15:22:37.986Z</time></trkpt><trkpt lat="44.6275483" lon="10.7171217"><ele>70.0</ele><time>2026-04-19T15:22:38.986Z</time></trkpt><trkpt lat="44.62772" lon="10.7173033"><ele>70.0</ele><time>2026-04-19T15:22:39.986Z</time></trkpt><trkpt lat="44.62788" lon="10.7175033"><ele>70.0</ele><time>2026-04-19T15:22:40.986Z</time></trkpt><trkpt lat="44.6280283" lon="10.7177033"><ele>70.0</ele><time>2026-04-19T15:22:41.987Z</time></trkpt><trkpt lat="44.628165" lon="10.7179"><ele>70.0</ele><time>2026-04-19T15:22:42.986Z</time></trkpt><trkpt lat="44.62829" lon="10.7181067"><ele>70.0</ele><time>2026-04-19T15:22:43.986Z</time></trkpt><trkpt lat="44.6284067" lon="10.7183183"><ele>70.0</ele><time>2026-04-19T15:22:44.986Z</time></trkpt><trkpt lat="44.62851" lon="10.7185433"><ele>70.0</ele><time>2026-04-19T15:22:45.986Z</time></trkpt><trkpt lat="44.628605" lon="10.718785"><ele>69.66666666666666</ele><time>2026-04-19T15:22:46.986Z</time></trkpt><trkpt lat="44.628695" lon="10.7190283"><ele>69.33333333333333</ele><time>2026-04-19T15:22:47.986Z</time></trkpt><trkpt lat="44.62878" lon="10.719285"><ele>69.0</ele><time>2026-04-19T15:22:48.986Z</time></trkpt><trkpt lat="44.6288517" lon="10.7195533"><ele>68.66666666666667</ele><time>2026-04-19T15:22:49.986Z</time></trkpt><trkpt lat="44.628915" lon="10.7198233"><ele>68.33333333333334</ele><time>2026-04-19T15:22:50.986Z</time></trkpt><trkpt lat="44.628965" lon="10.720105"><ele>68.0</ele><time>2026-04-19T15:22:51.986Z</time></trkpt><trkpt lat="44.629005" lon="10.7203817"><ele>68.0</ele><time>2026-04-19T15:22:52.986Z</time></trkpt><trkpt lat="44.6290333" lon="10.7206683"><ele>68.0</ele><time>2026-04-19T15:22:53.986Z</time></trkpt><trkpt lat="44.6290467" lon="10.72095"><ele>68.0</ele><time>2026-04-19T15:22:54.986Z</time></trkpt><trkpt lat="44.6290517" lon="10.72123"><ele>67.66666666666667</ele><time>2026-04-19T15:22:55.986Z</time></trkpt><trkpt lat="44.629045" lon="10.7215083"><ele>67.33333333333333</ele><time>2026-04-19T15:22:56.986Z</time></trkpt><trkpt lat="44.6290317" lon="10.7217783"><ele>67.0</ele><time>2026-04-19T15:22:57.986Z</time></trkpt><trkpt lat="44.62901" lon="10.7220433"><ele>67.0</ele><time>2026-04-19T15:22:58.986Z</time></trkpt><trkpt lat="44.6289867" lon="10.7222917"><ele>67.0</ele><time>2026-04-19T15:22:59.986Z</time></trkpt><trkpt lat="44.628965" lon="10.7225367"><ele>67.0</ele><time>2026-04-19T15:23:00.986Z</time></trkpt><trkpt lat="44.628945" lon="10.7227833"><ele>67.0</ele><time>2026-04-19T15:23:01.987Z</time></trkpt><trkpt lat="44.6289233" lon="10.7230433"><ele>67.0</ele><time>2026-04-19T15:23:02.987Z</time></trkpt><trkpt lat="44.6288983" lon="10.7233267"><ele>67.0</ele><time>2026-04-19T15:23:03.987Z</time></trkpt><trkpt lat="44.6288783" lon="10.7236233"><ele>66.66666666666666</ele><time>2026-04-19T15:23:04.986Z</time></trkpt><trkpt lat="44.628855" lon="10.7239167"><ele>66.33333333333333</ele><time>2026-04-19T15:23:05.986Z</time></trkpt><trkpt lat="44.6288283" lon="10.7241917"><ele>66.0</ele><time>2026-04-19T15:23:06.986Z</time></trkpt><trkpt lat="44.6288033" lon="10.7244483"><ele>65.66666666666667</ele><time>2026-04-19T15:23:07.986Z</time></trkpt><trkpt lat="44.6287833" lon="10.7246983"><ele>65.33333333333334</ele><time>2026-04-19T15:23:08.986Z</time></trkpt><trkpt lat="44.62877" lon="10.724945"><ele>65.0</ele><time>2026-04-19T15:23:09.986Z</time></trkpt><trkpt lat="44.6287517" lon="10.7251867"><ele>65.33333333333334</ele><time>2026-04-19T15:23:10.986Z</time></trkpt><trkpt lat="44.6287317" lon="10.7254167"><ele>65.66666666666667</ele><time>2026-04-19T15:23:11.986Z</time></trkpt><trkpt lat="44.6287133" lon="10.7256317"><ele>66.0</ele><time>2026-04-19T15:23:12.986Z</time></trkpt><trkpt lat="44.6286967" lon="10.7258367"><ele>66.0</ele><time>2026-04-19T15:23:13.986Z</time></trkpt><trkpt lat="44.628675" lon="10.7260317"><ele>66.0</ele><time>2026-04-19T15:23:14.986Z</time></trkpt><trkpt lat="44.6286567" lon="10.7262117"><ele>66.0</ele><time>2026-04-19T15:23:15.986Z</time></trkpt><trkpt lat="44.6286417" lon="10.7263883"><ele>66.0</ele><time>2026-04-19T15:23:16.986Z</time></trkpt><trkpt lat="44.628625" lon="10.7265517"><ele>66.0</ele><time>2026-04-19T15:23:17.986Z</time></trkpt><trkpt lat="44.6286067" lon="10.72671"><ele>66.0</ele><time>2026-04-19T15:23:18.986Z</time></trkpt><trkpt lat="44.6285833" lon="10.7268483"><ele>66.0</ele><time>2026-04-19T15:23:19.986Z</time></trkpt><trkpt lat="44.6285533" lon="10.7269867"><ele>66.0</ele><time>2026-04-19T15:23:20.986Z</time></trkpt><trkpt lat="44.6285" lon="10.7271167"><ele>66.0</ele><time>2026-04-19T15:23:21.986Z</time></trkpt><trkpt lat="44.6284283" lon="10.7272383"><ele>65.8</ele><time>2026-04-19T15:23:22.986Z</time></trkpt><trkpt lat="44.62835" lon="10.727355"><ele>65.6</ele><time>2026-04-19T15:23:23.986Z</time></trkpt><trkpt lat="44.6282833" lon="10.727465"><ele>65.4</ele><time>2026-04-19T15:23:24.986Z</time></trkpt><trkpt lat="44.6282417" lon="10.727575"><ele>65.2</ele><time>2026-04-19T15:23:25.986Z</time></trkpt><trkpt lat="44.628225" lon="10.7276883"><ele>65.0</ele><time>2026-04-19T15:23:26.986Z</time></trkpt><trkpt lat="44.6282333" lon="10.7278017"><ele>65.5</ele><time>2026-04-19T15:23:27.986Z</time></trkpt><trkpt lat="44.6282717" lon="10.7279033"><ele>66.0</ele><time>2026-04-19T15:23:28.986Z</time></trkpt><trkpt lat="44.6283383" lon="10.727995"><ele>66.5</ele><time>2026-04-19T15:23:29.986Z</time></trkpt><trkpt lat="44.6284167" lon="10.72807"><ele>67.0</ele><time>2026-04-19T15:23:30.986Z</time></trkpt><trkpt lat="44.6284983" lon="10.728115"><ele>67.5</ele><time>2026-04-19T15:23:31.986Z</time></trkpt><trkpt lat="44.6285867" lon="10.7281167"><ele>68.0</ele><time>2026-04-19T15:23:32.986Z</time></trkpt><trkpt lat="44.62868" lon="10.7280983"><ele>68.0</ele><time>2026-04-19T15:23:33.986Z</time></trkpt><trkpt lat="44.6287883" lon="10.7280967"><ele>68.0</ele><time>2026-04-19T15:23:34.986Z</time></trkpt><trkpt lat="44.6289" lon="10.7281267"><ele>68.0</ele><time>2026-04-19T15:23:35.986Z</time></trkpt><trkpt lat="44.62902" lon="10.7281867"><ele>68.0</ele><time>2026-04-19T15:23:36.986Z</time></trkpt><trkpt lat="44.6291483" lon="10.7282517"><ele>68.0</ele><time>2026-04-19T15:23:37.986Z</time></trkpt><trkpt lat="44.6292933" lon="10.7283333"><ele>68.0</ele><time>2026-04-19T15:23:38.986Z</time></trkpt><trkpt lat="44.6294533" lon="10.7284383"><ele>68.0</ele><time>2026-04-19T15:23:39.986Z</time></trkpt><trkpt lat="44.62963" lon="10.7285683"><ele>66.5</ele><time>2026-04-19T15:23:40.986Z</time></trkpt><trkpt lat="44.6298183" lon="10.7287183"><ele>65.0</ele><time>2026-04-19T15:23:41.986Z</time></trkpt><trkpt lat="44.63002" lon="10.7288867"><ele>65.0</ele><time>2026-04-19T15:23:42.986Z</time></trkpt><trkpt lat="44.630225" lon="10.72906"><ele>65.0</ele><time>2026-04-19T15:23:43.986Z</time></trkpt><trkpt lat="44.6304133" lon="10.729225"><ele>65.0</ele><time>2026-04-19T15:23:44.986Z</time></trkpt><trkpt lat="44.6305867" lon="10.72937"><ele>65.0</ele><time>2026-04-19T15:23:45.986Z</time></trkpt><trkpt lat="44.63076" lon="10.7295033"><ele>65.0</ele><time>2026-04-19T15:23:46.986Z</time></trkpt><trkpt lat="44.630935" lon="10.7296367"><ele>65.0</ele><time>2026-04-19T15:23:47.986Z</time></trkpt><trkpt lat="44.6311133" lon="10.72978"><ele>65.0</ele><time>2026-04-19T15:23:48.986Z</time></trkpt><trkpt lat="44.6313017" lon="10.729935"><ele>65.0</ele><time>2026-04-19T15:23:49.986Z</time></trkpt><trkpt lat="44.6314967" lon="10.7300833"><ele>64.0</ele><time>2026-04-19T15:23:50.986Z</time></trkpt><trkpt lat="44.631685" lon="10.7302283"><ele>63.0</ele><time>2026-04-19T15:23:51.986Z</time></trkpt><trkpt lat="44.6318617" lon="10.73037"><ele>62.0</ele><time>2026-04-19T15:23:52.986Z</time></trkpt><trkpt lat="44.6320283" lon="10.7305033"><ele>61.66666666666667</ele><time>2026-04-19T15:23:53.986Z</time></trkpt><trkpt lat="44.6321883" lon="10.7306317"><ele>61.33333333333333</ele><time>2026-04-19T15:23:54.986Z</time></trkpt><trkpt lat="44.63235" lon="10.7307567"><ele>61.0</ele><time>2026-04-19T15:23:55.986Z</time></trkpt><trkpt lat="44.63251" lon="10.730885"><ele>61.0</ele><time>2026-04-19T15:23:56.986Z</time></trkpt><trkpt lat="44.6326717" lon="10.7310183"><ele>61.0</ele><time>2026-04-19T15:23:57.986Z</time></trkpt><trkpt lat="44.6328383" lon="10.7311483"><ele>61.0</ele><time>2026-04-19T15:23:58.986Z</time></trkpt><trkpt lat="44.6330067" lon="10.7312833"><ele>61.33333333333333</ele><time>2026-04-19T15:23:59.986Z</time></trkpt><trkpt lat="44.6331733" lon="10.7314167"><ele>61.66666666666667</ele><time>2026-04-19T15:24:00.986Z</time></trkpt><trkpt lat="44.6333367" lon="10.7315467"><ele>62.0</ele><time>2026-04-19T15:24:01.986Z</time></trkpt><trkpt lat="44.6335" lon="10.73168"><ele>62.333333333333336</ele><time>2026-04-19T15:24:02.986Z</time></trkpt><trkpt lat="44.6336633" lon="10.7318117"><ele>62.66666666666667</ele><time>2026-04-19T15:24:03.986Z</time></trkpt><trkpt lat="44.6338267" lon="10.731935"><ele>63.0</ele><time>2026-04-19T15:24:04.986Z</time></trkpt><trkpt lat="44.63399" lon="10.7320583"><ele>63.0</ele><time>2026-04-19T15:24:05.986Z</time></trkpt><trkpt lat="44.6341533" lon="10.7321867"><ele>63.0</ele><time>2026-04-19T15:24:06.986Z</time></trkpt><trkpt lat="44.6343183" lon="10.7323133"><ele>63.0</ele><time>2026-04-19T15:24:07.986Z</time></trkpt><trkpt lat="44.63449" lon="10.73245"><ele>62.66666666666667</ele><time>2026-04-19T15:24:08.986Z</time></trkpt><trkpt lat="44.63467" lon="10.7326"><ele>62.333333333333336</ele><time>2026-04-19T15:24:09.986Z</time></trkpt><trkpt lat="44.6348567" lon="10.7327483"><ele>62.0</ele><time>2026-04-19T15:24:10.987Z</time></trkpt><trkpt lat="44.6350367" lon="10.732895"><ele>62.0</ele><time>2026-04-19T15:24:11.986Z</time></trkpt><trkpt lat="44.6352217" lon="10.733035"><ele>62.0</ele><time>2026-04-19T15:24:12.986Z</time></trkpt><trkpt lat="44.6354067" lon="10.73318"><ele>62.0</ele><time>2026-04-19T15:24:13.986Z</time></trkpt><trkpt lat="44.6355917" lon="10.733325"><ele>61.333333333333336</ele><time>2026-04-19T15:24:14.986Z</time></trkpt><trkpt lat="44.635775" lon="10.7334683"><ele>60.66666666666667</ele><time>2026-04-19T15:24:15.986Z</time></trkpt><trkpt lat="44.635955" lon="10.73361"><ele>60.0</ele><time>2026-04-19T15:24:16.986Z</time></trkpt><trkpt lat="44.6361317" lon="10.7337483"><ele>60.66666666666667</ele><time>2026-04-19T15:24:17.986Z</time></trkpt><trkpt lat="44.636305" lon="10.7338833"><ele>61.333333333333336</ele><time>2026-04-19T15:24:18.986Z</time></trkpt><trkpt lat="44.6364667" lon="10.73401"><ele>62.0</ele><time>2026-04-19T15:24:19.986Z</time></trkpt><trkpt lat="44.6366317" lon="10.7341417"><ele>62.0</ele><time>2026-04-19T15:24:20.986Z</time></trkpt><trkpt lat="44.6367867" lon="10.7342617"><ele>62.0</ele><time>2026-04-19T15:24:21.986Z</time></trkpt><trkpt lat="44.6369367" lon="10.7343883"><ele>62.0</ele><time>2026-04-19T15:24:22.986Z</time></trkpt><trkpt lat="44.6370883" lon="10.7345017"><ele>61.66666666666667</ele><time>2026-04-19T15:24:23.986Z</time></trkpt><trkpt lat="44.63723" lon="10.7346167"><ele>61.33333333333333</ele><time>2026-04-19T15:24:24.986Z</time></trkpt><trkpt lat="44.6373683" lon="10.73472"><ele>61.0</ele><time>2026-04-19T15:24:25.986Z</time></trkpt><trkpt lat="44.6375117" lon="10.73483"><ele>61.0</ele><time>2026-04-19T15:24:26.986Z</time></trkpt><trkpt lat="44.6376517" lon="10.7349417"><ele>61.0</ele><time>2026-04-19T15:24:27.986Z</time></trkpt><trkpt lat="44.6377967" lon="10.73506"><ele>61.0</ele><time>2026-04-19T15:24:28.986Z</time></trkpt><trkpt lat="44.6379383" lon="10.735175"><ele>60.0</ele><time>2026-04-19T15:24:29.986Z</time></trkpt><trkpt lat="44.6380767" lon="10.7352867"><ele>59.0</ele><time>2026-04-19T15:24:30.986Z</time></trkpt><trkpt lat="44.6382117" lon="10.7353967"><ele>58.0</ele><time>2026-04-19T15:24:31.986Z</time></trkpt><trkpt lat="44.6383467" lon="10.7355"><ele>58.0</ele><time>2026-04-19T15:24:32.986Z</time></trkpt><trkpt lat="44.6384867" lon="10.7356"><ele>58.0</ele><time>2026-04-19T15:24:33.986Z</time></trkpt><trkpt lat="44.6386283" lon="10.735705"><ele>58.0</ele><time>2026-04-19T15:24:34.986Z</time></trkpt><trkpt lat="44.63877" lon="10.7357983"><ele>57.666666666666664</ele><time>2026-04-19T15:24:35.986Z</time></trkpt><trkpt lat="44.6389133" lon="10.7358883"><ele>57.33333333333333</ele><time>2026-04-19T15:24:36.986Z</time></trkpt><trkpt lat="44.6390583" lon="10.7359817"><ele>57.0</ele><time>2026-04-19T15:24:37.986Z</time></trkpt><trkpt lat="44.639205" lon="10.736065"><ele>57.0</ele><time>2026-04-19T15:24:38.986Z</time></trkpt><trkpt lat="44.6393483" lon="10.7361567"><ele>57.0</ele><time>2026-04-19T15:24:39.986Z</time></trkpt><trkpt lat="44.6395033" lon="10.7362467"><ele>57.0</ele><time>2026-04-19T15:24:40.986Z</time></trkpt><trkpt lat="44.6396567" lon="10.7363417"><ele>58.0</ele><time>2026-04-19T15:24:41.986Z</time></trkpt><trkpt lat="44.63981" lon="10.7364367"><ele>59.0</ele><time>2026-04-19T15:24:42.986Z</time></trkpt><trkpt lat="44.6399633" lon="10.7365333"><ele>60.0</ele><time>2026-04-19T15:24:43.986Z</time></trkpt><trkpt lat="44.6401117" lon="10.7366267"><ele>60.0</ele><time>2026-04-19T15:24:44.986Z</time></trkpt><trkpt lat="44.640255" lon="10.736715"><ele>60.0</ele><time>2026-04-19T15:24:45.986Z</time></trkpt><trkpt lat="44.64039" lon="10.7368017"><ele>60.0</ele><time>2026-04-19T15:24:46.986Z</time></trkpt><trkpt lat="44.6405267" lon="10.7368867"><ele>60.33333333333333</ele><time>2026-04-19T15:24:47.986Z</time></trkpt><trkpt lat="44.6406667" lon="10.7369717"><ele>60.666666666666664</ele><time>2026-04-19T15:24:48.986Z</time></trkpt><trkpt lat="44.640805" lon="10.7370567"><ele>61.0</ele><time>2026-04-19T15:24:49.986Z</time></trkpt><trkpt lat="44.64095" lon="10.7371367"><ele>61.0</ele><time>2026-04-19T15:24:50.986Z</time></trkpt><trkpt lat="44.641105" lon="10.737225"><ele>61.0</ele><time>2026-04-19T15:24:51.986Z</time></trkpt><trkpt lat="44.64125" lon="10.7373133"><ele>61.0</ele><time>2026-04-19T15:24:52.986Z</time></trkpt><trkpt lat="44.6413883" lon="10.7373933"><ele>61.25</ele><time>2026-04-19T15:24:53.986Z</time></trkpt><trkpt lat="44.6415233" lon="10.7374783"><ele>61.5</ele><time>2026-04-19T15:24:54.986Z</time></trkpt><trkpt lat="44.641655" lon="10.7375567"><ele>61.75</ele><time>2026-04-19T15:24:55.986Z</time></trkpt><trkpt lat="44.6417883" lon="10.7376467"><ele>62.0</ele><time>2026-04-19T15:24:56.986Z</time></trkpt><trkpt lat="44.6419267" lon="10.7377317"><ele>62.333333333333336</ele><time>2026-04-19T15:24:57.986Z</time></trkpt><trkpt lat="44.64207" lon="10.73782"><ele>62.66666666666667</ele><time>2026-04-19T15:24:58.986Z</time></trkpt><trkpt lat="44.6422117" lon="10.7379133"><ele>63.0</ele><time>2026-04-19T15:24:59.986Z</time></trkpt><trkpt lat="44.64236" lon="10.738"><ele>63.0</ele><time>2026-04-19T15:25:00.986Z</time></trkpt><trkpt lat="44.6425283" lon="10.7381017"><ele>63.0</ele><time>2026-04-19T15:25:01.986Z</time></trkpt><trkpt lat="44.642695" lon="10.7382083"><ele>63.0</ele><time>2026-04-19T15:25:02.986Z</time></trkpt><trkpt lat="44.6428783" lon="10.7383067"><ele>60.66666666666667</ele><time>2026-04-19T15:25:03.986Z</time></trkpt><trkpt lat="44.64307" lon="10.7384167"><ele>58.333333333333336</ele><time>2026-04-19T15:25:04.986Z</time></trkpt><trkpt lat="44.6432733" lon="10.7385317"><ele>56.0</ele><time>2026-04-19T15:25:05.986Z</time></trkpt><trkpt lat="44.6434833" lon="10.73866"><ele>56.0</ele><time>2026-04-19T15:25:06.986Z</time></trkpt><trkpt lat="44.6436983" lon="10.7387917"><ele>56.0</ele><time>2026-04-19T15:25:07.986Z</time></trkpt><trkpt lat="44.6439083" lon="10.738925"><ele>56.0</ele><time>2026-04-19T15:25:08.986Z</time></trkpt><trkpt lat="44.644105" lon="10.7390533"><ele>56.0</ele><time>2026-04-19T15:25:09.986Z</time></trkpt><trkpt lat="44.6443" lon="10.7391783"><ele>56.0</ele><time>2026-04-19T15:25:10.986Z</time></trkpt><trkpt lat="44.6445" lon="10.7393017"><ele>55.66666666666667</ele><time>2026-04-19T15:25:11.986Z</time></trkpt><trkpt lat="44.6447017" lon="10.739425"><ele>55.33333333333333</ele><time>2026-04-19T15:25:12.986Z</time></trkpt><trkpt lat="44.6448983" lon="10.7395383"><ele>55.0</ele><time>2026-04-19T15:25:13.986Z</time></trkpt><trkpt lat="44.6450983" lon="10.7396567"><ele>54.0</ele><time>2026-04-19T15:25:14.986Z</time></trkpt><trkpt lat="44.645315" lon="10.739785"><ele>53.0</ele><time>2026-04-19T15:25:15.986Z</time></trkpt><trkpt lat="44.6455417" lon="10.739915"><ele>53.0</ele><time>2026-04-19T15:25:16.986Z</time></trkpt><trkpt lat="44.6457583" lon="10.7400517"><ele>53.0</ele><time>2026-04-19T15:25:17.986Z</time></trkpt><trkpt lat="44.6459617" lon="10.7401767"><ele>53.333333333333336</ele><time>2026-04-19T15:25:18.986Z</time></trkpt><trkpt lat="44.64615" lon="10.7403017"><ele>53.66666666666667</ele><time>2026-04-19T15:25:19.987Z</time></trkpt><trkpt lat="44.6463367" lon="10.7404333"><ele>54.0</ele><time>2026-04-19T15:25:20.986Z</time></trkpt><trkpt lat="44.6465283" lon="10.7405517"><ele>54.0</ele><time>2026-04-19T15:25:21.986Z</time></trkpt><trkpt lat="44.6467217" lon="10.740675"><ele>54.0</ele><time>2026-04-19T15:25:22.986Z</time></trkpt><trkpt lat="44.6469117" lon="10.7407983"><ele>54.0</ele><time>2026-04-19T15:25:23.986Z</time></trkpt><trkpt lat="44.6471" lon="10.740915"><ele>54.0</ele><time>2026-04-19T15:25:24.986Z</time></trkpt><trkpt lat="44.6472883" lon="10.7410267"><ele>54.0</ele><time>2026-04-19T15:25:25.986Z</time></trkpt><trkpt lat="44.647475" lon="10.7411417"><ele>54.0</ele><time>2026-04-19T15:25:26.986Z</time></trkpt><trkpt lat="44.6476617" lon="10.7412617"><ele>53.0</ele><time>2026-04-19T15:25:27.986Z</time></trkpt><trkpt lat="44.6478483" lon="10.7413817"><ele>52.0</ele><time>2026-04-19T15:25:28.986Z</time></trkpt><trkpt lat="44.6480367" lon="10.7414933"><ele>51.0</ele><time>2026-04-19T15:25:29.986Z</time></trkpt><trkpt lat="44.64823" lon="10.74161"><ele>51.0</ele><time>2026-04-19T15:25:30.986Z</time></trkpt><trkpt lat="44.6484233" lon="10.7417233"><ele>51.0</ele><time>2026-04-19T15:25:31.986Z</time></trkpt><trkpt lat="44.6486117" lon="10.7418367"><ele>51.0</ele><time>2026-04-19T15:25:32.986Z</time></trkpt><trkpt lat="44.648805" lon="10.741955"><ele>51.33333333333333</ele><time>2026-04-19T15:25:33.986Z</time></trkpt><trkpt lat="44.6490067" lon="10.7420783"><ele>51.666666666666664</ele><time>2026-04-19T15:25:34.986Z</time></trkpt><trkpt lat="44.6492183" lon="10.7422033"><ele>52.0</ele><time>2026-04-19T15:25:35.986Z</time></trkpt><trkpt lat="44.6494383" lon="10.7423333"><ele>51.0</ele><time>2026-04-19T15:25:36.986Z</time></trkpt><trkpt lat="44.64967" lon="10.7424633"><ele>50.0</ele><time>2026-04-19T15:25:37.986Z</time></trkpt><trkpt lat="44.6499067" lon="10.7425983"><ele>50.5</ele><time>2026-04-19T15:25:38.986Z</time></trkpt><trkpt lat="44.650155" lon="10.7427467"><ele>51.0</ele><time>2026-04-19T15:25:39.986Z</time></trkpt><trkpt lat="44.6504067" lon="10.7429"><ele>51.0</ele><time>2026-04-19T15:25:40.986Z</time></trkpt><trkpt lat="44.6506483" lon="10.7430467"><ele>51.0</ele><time>2026-04-19T15:25:41.986Z</time></trkpt><trkpt lat="44.6508633" lon="10.7431917"><ele>51.0</ele><time>2026-04-19T15:25:42.986Z</time></trkpt><trkpt lat="44.65107" lon="10.7433333"><ele>51.0</ele><time>2026-04-19T15:25:43.986Z</time></trkpt><trkpt lat="44.6512667" lon="10.7434583"><ele>51.0</ele><time>2026-04-19T15:25:44.986Z</time></trkpt><trkpt lat="44.6514583" lon="10.7435783"><ele>51.0</ele><time>2026-04-19T15:25:45.986Z</time></trkpt><trkpt lat="44.651645" lon="10.7436933"><ele>51.0</ele><time>2026-04-19T15:25:46.986Z</time></trkpt><trkpt lat="44.6518333" lon="10.7438067"><ele>51.0</ele><time>2026-04-19T15:25:47.986Z</time></trkpt><trkpt lat="44.6520233" lon="10.74392"><ele>51.0</ele><time>2026-04-19T15:25:48.986Z</time></trkpt><trkpt lat="44.6522167" lon="10.7440433"><ele>51.0</ele><time>2026-04-19T15:25:49.986Z</time></trkpt><trkpt lat="44.6524117" lon="10.7441633"><ele>51.0</ele><time>2026-04-19T15:25:50.986Z</time></trkpt><trkpt lat="44.65261" lon="10.7442867"><ele>51.33333333333333</ele><time>2026-04-19T15:25:51.986Z</time></trkpt><trkpt lat="44.652815" lon="10.74441"><ele>51.666666666666664</ele><time>2026-04-19T15:25:52.986Z</time></trkpt><trkpt lat="44.6530167" lon="10.7445217"><ele>52.0</ele><time>2026-04-19T15:25:53.986Z</time></trkpt><trkpt lat="44.6532217" lon="10.7446483"><ele>52.0</ele><time>2026-04-19T15:25:54.986Z</time></trkpt><trkpt lat="44.653415" lon="10.7447783"><ele>52.0</ele><time>2026-04-19T15:25:55.986Z</time></trkpt><trkpt lat="44.6535983" lon="10.7448967"><ele>52.0</ele><time>2026-04-19T15:25:56.986Z</time></trkpt><trkpt lat="44.6537783" lon="10.7450133"><ele>51.33333333333333</ele><time>2026-04-19T15:25:57.986Z</time></trkpt><trkpt lat="44.6539717" lon="10.7451267"><ele>50.66666666666667</ele><time>2026-04-19T15:25:58.986Z</time></trkpt><trkpt lat="44.6541567" lon="10.7452433"><ele>50.0</ele><time>2026-04-19T15:25:59.986Z</time></trkpt><trkpt lat="44.65435" lon="10.7453517"><ele>50.0</ele><time>2026-04-19T15:26:00.986Z</time></trkpt><trkpt lat="44.6545433" lon="10.7454683"><ele>50.0</ele><time>2026-04-19T15:26:01.986Z</time></trkpt><trkpt lat="44.6547383" lon="10.7455833"><ele>50.0</ele><time>2026-04-19T15:26:02.986Z</time></trkpt><trkpt lat="44.6549383" lon="10.7457033"><ele>50.0</ele><time>2026-04-19T15:26:03.986Z</time></trkpt><trkpt lat="44.6551367" lon="10.7458217"><ele>50.0</ele><time>2026-04-19T15:26:04.986Z</time></trkpt><trkpt lat="44.6553233" lon="10.7459367"><ele>50.0</ele><time>2026-04-19T15:26:05.986Z</time></trkpt><trkpt lat="44.6555017" lon="10.746045"><ele>49.66666666666667</ele><time>2026-04-19T15:26:06.986Z</time></trkpt><trkpt lat="44.6556717" lon="10.7461517"><ele>49.33333333333333</ele><time>2026-04-19T15:26:07.986Z</time></trkpt><trkpt lat="44.6558417" lon="10.7462517"><ele>49.0</ele><time>2026-04-19T15:26:08.986Z</time></trkpt><trkpt lat="44.6560083" lon="10.746355"><ele>50.0</ele><time>2026-04-19T15:26:09.986Z</time></trkpt><trkpt lat="44.65617" lon="10.746455"><ele>51.0</ele><time>2026-04-19T15:26:10.986Z</time></trkpt><trkpt lat="44.6563283" lon="10.7465483"><ele>52.0</ele><time>2026-04-19T15:26:11.986Z</time></trkpt><trkpt lat="44.6564883" lon="10.7466433"><ele>52.0</ele><time>2026-04-19T15:26:12.986Z</time></trkpt><trkpt lat="44.6566467" lon="10.7467433"><ele>52.0</ele><time>2026-04-19T15:26:13.986Z</time></trkpt><trkpt lat="44.6568017" lon="10.74685"><ele>52.0</ele><time>2026-04-19T15:26:14.986Z</time></trkpt><trkpt lat="44.6569517" lon="10.7469433"><ele>51.75</ele><time>2026-04-19T15:26:15.986Z</time></trkpt><trkpt lat="44.6570883" lon="10.7470417"><ele>51.5</ele><time>2026-04-19T15:26:16.986Z</time></trkpt><trkpt lat="44.657215" lon="10.7471283"><ele>51.25</ele><time>2026-04-19T15:26:17.986Z</time></trkpt><trkpt lat="44.6573317" lon="10.74721"><ele>51.0</ele><time>2026-04-19T15:26:18.986Z</time></trkpt><trkpt lat="44.6574317" lon="10.74728"><ele>51.0</ele><time>2026-04-19T15:26:19.986Z</time></trkpt><trkpt lat="44.6575233" lon="10.7473317"><ele>51.0</ele><time>2026-04-19T15:26:20.986Z</time></trkpt><trkpt lat="44.6576017" lon="10.7473867"><ele>51.0</ele><time>2026-04-19T15:26:21.986Z</time></trkpt><trkpt lat="44.6576617" lon="10.74744"><ele>51.0</ele><time>2026-04-19T15:26:22.986Z</time></trkpt><trkpt lat="44.6577383" lon="10.7475167"><ele>51.0</ele><time>2026-04-19T15:26:24.986Z</time></trkpt><trkpt lat="44.6577533" lon="10.7477667"><ele>50.33333333333333</ele><time>2026-04-19T15:26:34.986Z</time></trkpt><trkpt lat="44.6576833" lon="10.74802"><ele>49.666666666666664</ele><time>2026-04-19T15:26:36.986Z</time></trkpt><trkpt lat="44.6576333" lon="10.7481917"><ele>49.0</ele><time>2026-04-19T15:26:37.986Z</time></trkpt><trkpt lat="44.6575367" lon="10.7485283"><ele>49.666666666666664</ele><time>2026-04-19T15:26:39.986Z</time></trkpt><trkpt lat="44.6575017" lon="10.7487183"><ele>50.33333333333333</ele><time>2026-04-19T15:26:40.986Z</time></trkpt><trkpt lat="44.6574517" lon="10.7489317"><ele>51.0</ele><time>2026-04-19T15:26:41.986Z</time></trkpt><trkpt lat="44.6573917" lon="10.749165"><ele>51.33333333333333</ele><time>2026-04-19T15:26:42.986Z</time></trkpt><trkpt lat="44.6573333" lon="10.7494017"><ele>51.666666666666664</ele><time>2026-04-19T15:26:43.987Z</time></trkpt><trkpt lat="44.65728" lon="10.749625"><ele>52.0</ele><time>2026-04-19T15:26:44.986Z</time></trkpt><trkpt lat="44.6572433" lon="10.74984"><ele>52.0</ele><time>2026-04-19T15:26:45.986Z</time></trkpt><trkpt lat="44.6572033" lon="10.7500467"><ele>52.0</ele><time>2026-04-19T15:26:46.986Z</time></trkpt><trkpt lat="44.6571683" lon="10.75026"><ele>52.0</ele><time>2026-04-19T15:26:47.986Z</time></trkpt><trkpt lat="44.6571383" lon="10.7504767"><ele>51.666666666666664</ele><time>2026-04-19T15:26:48.986Z</time></trkpt><trkpt lat="44.657105" lon="10.750695"><ele>51.33333333333333</ele><time>2026-04-19T15:26:49.986Z</time></trkpt><trkpt lat="44.6570733" lon="10.750915"><ele>51.0</ele><time>2026-04-19T15:26:50.986Z</time></trkpt><trkpt lat="44.6570433" lon="10.751145"><ele>51.0</ele><time>2026-04-19T15:26:51.986Z</time></trkpt><trkpt lat="44.6570167" lon="10.75137"><ele>51.0</ele><time>2026-04-19T15:26:52.986Z</time></trkpt><trkpt lat="44.6569917" lon="10.75159"><ele>51.0</ele><time>2026-04-19T15:26:53.986Z</time></trkpt><trkpt lat="44.6569683" lon="10.751805"><ele>50.66666666666667</ele><time>2026-04-19T15:26:54.986Z</time></trkpt><trkpt lat="44.6569433" lon="10.7520167"><ele>50.333333333333336</ele><time>2026-04-19T15:26:55.986Z</time></trkpt><trkpt lat="44.6569283" lon="10.7522317"><ele>50.0</ele><time>2026-04-19T15:26:56.986Z</time></trkpt><trkpt lat="44.656905" lon="10.752435"><ele>50.0</ele><time>2026-04-19T15:26:57.986Z</time></trkpt><trkpt lat="44.65689" lon="10.752645"><ele>50.0</ele><time>2026-04-19T15:26:58.986Z</time></trkpt><trkpt lat="44.656875" lon="10.7528367"><ele>50.0</ele><time>2026-04-19T15:26:59.986Z</time></trkpt><trkpt lat="44.65686" lon="10.753015"><ele>50.0</ele><time>2026-04-19T15:27:00.986Z</time></trkpt><trkpt lat="44.6568467" lon="10.7531883"><ele>50.0</ele><time>2026-04-19T15:27:01.986Z</time></trkpt><trkpt lat="44.6568283" lon="10.7533417"><ele>50.0</ele><time>2026-04-19T15:27:02.986Z</time></trkpt><trkpt lat="44.6568183" lon="10.7534867"><ele>50.0</ele><time>2026-04-19T15:27:03.986Z</time></trkpt><trkpt lat="44.6568083" lon="10.7536133"><ele>50.0</ele><time>2026-04-19T15:27:04.986Z</time></trkpt><trkpt lat="44.6567933" lon="10.7537267"><ele>50.0</ele><time>2026-04-19T15:27:05.986Z</time></trkpt><trkpt lat="44.6567783" lon="10.7538267"><ele>50.0</ele><time>2026-04-19T15:27:06.986Z</time></trkpt><trkpt lat="44.6567817" lon="10.7539183"><ele>50.0</ele><time>2026-04-19T15:27:07.986Z</time></trkpt><trkpt lat="44.6568533" lon="10.75405"><ele>50.0</ele><time>2026-04-19T15:27:09.986Z</time></trkpt><trkpt lat="44.65693" lon="10.7540733"><ele>50.0</ele><time>2026-04-19T15:27:10.986Z</time></trkpt><trkpt lat="44.6570383" lon="10.7540817"><ele>50.0</ele><time>2026-04-19T15:27:11.986Z</time></trkpt><trkpt lat="44.6571583" lon="10.754065"><ele>50.0</ele><time>2026-04-19T15:27:12.986Z</time></trkpt><trkpt lat="44.6572783" lon="10.754035"><ele>50.0</ele><time>2026-04-19T15:27:13.986Z</time></trkpt><trkpt lat="44.6574" lon="10.754005"><ele>50.0</ele><time>2026-04-19T15:27:14.986Z</time></trkpt><trkpt lat="44.6575183" lon="10.7539617"><ele>50.0</ele><time>2026-04-19T15:27:15.986Z</time></trkpt><trkpt lat="44.6576467" lon="10.75392"><ele>50.0</ele><time>2026-04-19T15:27:16.986Z</time></trkpt><trkpt lat="44.657785" lon="10.7538683"><ele>50.0</ele><time>2026-04-19T15:27:17.986Z</time></trkpt><trkpt lat="44.6579283" lon="10.7538117"><ele>50.0</ele><time>2026-04-19T15:27:18.986Z</time></trkpt><trkpt lat="44.65807" lon="10.7537517"><ele>50.0</ele><time>2026-04-19T15:27:19.986Z</time></trkpt><trkpt lat="44.6582117" lon="10.7536833"><ele>49.66666666666667</ele><time>2026-04-19T15:27:20.986Z</time></trkpt><trkpt lat="44.6583583" lon="10.75361"><ele>49.33333333333333</ele><time>2026-04-19T15:27:21.986Z</time></trkpt><trkpt lat="44.6585033" lon="10.75353"><ele>49.0</ele><time>2026-04-19T15:27:22.986Z</time></trkpt><trkpt lat="44.6586517" lon="10.7534567"><ele>48.666666666666664</ele><time>2026-04-19T15:27:23.986Z</time></trkpt><trkpt lat="44.658805" lon="10.7533933"><ele>48.33333333333333</ele><time>2026-04-19T15:27:24.986Z</time></trkpt><trkpt lat="44.6589617" lon="10.7533417"><ele>48.0</ele><time>2026-04-19T15:27:25.986Z</time></trkpt><trkpt lat="44.6591183" lon="10.7533033"><ele>48.0</ele><time>2026-04-19T15:27:26.986Z</time></trkpt><trkpt lat="44.6592833" lon="10.7532817"><ele>48.0</ele><time>2026-04-19T15:27:27.986Z</time></trkpt><trkpt lat="44.65945" lon="10.7532767"><ele>48.0</ele><time>2026-04-19T15:27:28.986Z</time></trkpt><trkpt lat="44.65962" lon="10.75329"><ele>48.66666666666667</ele><time>2026-04-19T15:27:29.986Z</time></trkpt><trkpt lat="44.6597917" lon="10.7533267"><ele>49.333333333333336</ele><time>2026-04-19T15:27:30.986Z</time></trkpt><trkpt lat="44.6599617" lon="10.75339"><ele>50.0</ele><time>2026-04-19T15:27:31.986Z</time></trkpt><trkpt lat="44.6601433" lon="10.75347"><ele>49.0</ele><time>2026-04-19T15:27:32.986Z</time></trkpt><trkpt lat="44.660325" lon="10.75357"><ele>48.0</ele><time>2026-04-19T15:27:33.987Z</time></trkpt><trkpt lat="44.6605067" lon="10.7536833"><ele>47.0</ele><time>2026-04-19T15:27:34.986Z</time></trkpt><trkpt lat="44.6606967" lon="10.7537817"><ele>47.0</ele><time>2026-04-19T15:27:35.986Z</time></trkpt><trkpt lat="44.66088" lon="10.7538867"><ele>47.0</ele><time>2026-04-19T15:27:36.986Z</time></trkpt><trkpt lat="44.66106" lon="10.7539767"><ele>47.0</ele><time>2026-04-19T15:27:37.986Z</time></trkpt><trkpt lat="44.6612183" lon="10.7540483"><ele>47.666666666666664</ele><time>2026-04-19T15:27:38.986Z</time></trkpt><trkpt lat="44.661375" lon="10.7541317"><ele>48.33333333333333</ele><time>2026-04-19T15:27:39.986Z</time></trkpt><trkpt lat="44.6615283" lon="10.754215"><ele>49.0</ele><time>2026-04-19T15:27:40.986Z</time></trkpt><trkpt lat="44.6616617" lon="10.7542933"><ele>49.0</ele><time>2026-04-19T15:27:41.986Z</time></trkpt><trkpt lat="44.661795" lon="10.7543567"><ele>49.0</ele><time>2026-04-19T15:27:42.986Z</time></trkpt><trkpt lat="44.6619467" lon="10.7544233"><ele>49.0</ele><time>2026-04-19T15:27:43.986Z</time></trkpt><trkpt lat="44.66209" lon="10.7545233"><ele>48.33333333333333</ele><time>2026-04-19T15:27:44.986Z</time></trkpt><trkpt lat="44.6622367" lon="10.7546583"><ele>47.666666666666664</ele><time>2026-04-19T15:27:45.986Z</time></trkpt><trkpt lat="44.662385" lon="10.75481"><ele>47.0</ele><time>2026-04-19T15:27:46.986Z</time></trkpt><trkpt lat="44.6625383" lon="10.7549817"><ele>47.0</ele><time>2026-04-19T15:27:47.986Z</time></trkpt><trkpt lat="44.6627033" lon="10.755155"><ele>47.0</ele><time>2026-04-19T15:27:48.986Z</time></trkpt><trkpt lat="44.66288" lon="10.75533"><ele>47.0</ele><time>2026-04-19T15:27:49.986Z</time></trkpt><trkpt lat="44.6630683" lon="10.7555083"><ele>47.0</ele><time>2026-04-19T15:27:50.986Z</time></trkpt><trkpt lat="44.6632517" lon="10.75568"><ele>47.0</ele><time>2026-04-19T15:27:51.986Z</time></trkpt><trkpt lat="44.66342" lon="10.7558383"><ele>47.0</ele><time>2026-04-19T15:27:52.986Z</time></trkpt><trkpt lat="44.6635933" lon="10.7560017"><ele>46.33333333333333</ele><time>2026-04-19T15:27:53.986Z</time></trkpt><trkpt lat="44.6637633" lon="10.756155"><ele>45.666666666666664</ele><time>2026-04-19T15:27:54.986Z</time></trkpt><trkpt lat="44.66392" lon="10.7563133"><ele>45.0</ele><time>2026-04-19T15:27:55.986Z</time></trkpt><trkpt lat="44.6640833" lon="10.756465"><ele>45.0</ele><time>2026-04-19T15:27:56.986Z</time></trkpt><trkpt lat="44.6642467" lon="10.7566183"><ele>45.0</ele><time>2026-04-19T15:27:57.986Z</time></trkpt><trkpt lat="44.664415" lon="10.7567667"><ele>45.0</ele><time>2026-04-19T15:27:58.986Z</time></trkpt><trkpt lat="44.6645817" lon="10.756915"><ele>45.666666666666664</ele><time>2026-04-19T15:27:59.986Z</time></trkpt><trkpt lat="44.6647483" lon="10.7570633"><ele>46.33333333333333</ele><time>2026-04-19T15:28:00.986Z</time></trkpt><trkpt lat="44.6649017" lon="10.7572"><ele>47.0</ele><time>2026-04-19T15:28:01.986Z</time></trkpt><trkpt lat="44.66506" lon="10.7573217"><ele>47.0</ele><time>2026-04-19T15:28:02.986Z</time></trkpt><trkpt lat="44.6652283" lon="10.7574233"><ele>47.0</ele><time>2026-04-19T15:28:03.986Z</time></trkpt><trkpt lat="44.665405" lon="10.757505"><ele>47.0</ele><time>2026-04-19T15:28:04.986Z</time></trkpt><trkpt lat="44.6655867" lon="10.7576017"><ele>46.33333333333333</ele><time>2026-04-19T15:28:05.986Z</time></trkpt><trkpt lat="44.66576" lon="10.757725"><ele>45.666666666666664</ele><time>2026-04-19T15:28:06.986Z</time></trkpt><trkpt lat="44.6659367" lon="10.7578733"><ele>45.0</ele><time>2026-04-19T15:28:07.986Z</time></trkpt><trkpt lat="44.6661233" lon="10.758025"><ele>45.0</ele><time>2026-04-19T15:28:08.986Z</time></trkpt><trkpt lat="44.6663033" lon="10.7581783"><ele>45.0</ele><time>2026-04-19T15:28:09.986Z</time></trkpt><trkpt lat="44.66648" lon="10.7583233"><ele>45.0</ele><time>2026-04-19T15:28:10.986Z</time></trkpt><trkpt lat="44.66665" lon="10.7584667"><ele>45.0</ele><time>2026-04-19T15:28:11.986Z</time></trkpt><trkpt lat="44.6668067" lon="10.758595"><ele>45.0</ele><time>2026-04-19T15:28:12.986Z</time></trkpt><trkpt lat="44.6669433" lon="10.7587033"><ele>45.0</ele><time>2026-04-19T15:28:13.987Z</time></trkpt><trkpt lat="44.6670667" lon="10.7588017"><ele>45.0</ele><time>2026-04-19T15:28:14.986Z</time></trkpt><trkpt lat="44.66718" lon="10.7589117"><ele>45.0</ele><time>2026-04-19T15:28:15.986Z</time></trkpt><trkpt lat="44.66728" lon="10.7590483"><ele>45.0</ele><time>2026-04-19T15:28:16.986Z</time></trkpt><trkpt lat="44.6673517" lon="10.759205"><ele>45.0</ele><time>2026-04-19T15:28:17.986Z</time></trkpt><trkpt lat="44.667385" lon="10.7594083"><ele>45.0</ele><time>2026-04-19T15:28:18.986Z</time></trkpt><trkpt lat="44.667405" lon="10.7596533"><ele>45.0</ele><time>2026-04-19T15:28:19.986Z</time></trkpt><trkpt lat="44.6674133" lon="10.75993"><ele>45.0</ele><time>2026-04-19T15:28:20.986Z</time></trkpt><trkpt lat="44.667425" lon="10.7602017"><ele>45.333333333333336</ele><time>2026-04-19T15:28:21.986Z</time></trkpt><trkpt lat="44.667445" lon="10.7604733"><ele>45.66666666666667</ele><time>2026-04-19T15:28:22.986Z</time></trkpt><trkpt lat="44.6674583" lon="10.7607283"><ele>46.0</ele><time>2026-04-19T15:28:23.986Z</time></trkpt><trkpt lat="44.6674767" lon="10.7609733"><ele>46.0</ele><time>2026-04-19T15:28:24.986Z</time></trkpt><trkpt lat="44.6674833" lon="10.7612183"><ele>46.0</ele><time>2026-04-19T15:28:25.986Z</time></trkpt><trkpt lat="44.6674933" lon="10.761465"><ele>46.0</ele><time>2026-04-19T15:28:26.986Z</time></trkpt><trkpt lat="44.6675" lon="10.7617083"><ele>46.333333333333336</ele><time>2026-04-19T15:28:27.986Z</time></trkpt><trkpt lat="44.6675133" lon="10.7619517"><ele>46.666666666666664</ele><time>2026-04-19T15:28:28.986Z</time></trkpt><trkpt lat="44.6675133" lon="10.76219"><ele>47.0</ele><time>2026-04-19T15:28:29.986Z</time></trkpt><trkpt lat="44.6675233" lon="10.762435"><ele>47.0</ele><time>2026-04-19T15:28:30.986Z</time></trkpt><trkpt lat="44.6675267" lon="10.7626817"><ele>47.0</ele><time>2026-04-19T15:28:31.986Z</time></trkpt><trkpt lat="44.6675217" lon="10.762935"><ele>47.0</ele><time>2026-04-19T15:28:32.986Z</time></trkpt><trkpt lat="44.6675233" lon="10.7632"><ele>47.0</ele><time>2026-04-19T15:28:33.986Z</time></trkpt><trkpt lat="44.66752" lon="10.76346"><ele>47.0</ele><time>2026-04-19T15:28:34.986Z</time></trkpt><trkpt lat="44.6675167" lon="10.7637117"><ele>47.0</ele><time>2026-04-19T15:28:35.986Z</time></trkpt><trkpt lat="44.6675133" lon="10.7639717"><ele>47.0</ele><time>2026-04-19T15:28:36.986Z</time></trkpt><trkpt lat="44.6674967" lon="10.7642317"><ele>47.0</ele><time>2026-04-19T15:28:37.986Z</time></trkpt><trkpt lat="44.6674733" lon="10.764505"><ele>47.0</ele><time>2026-04-19T15:28:38.986Z</time></trkpt><trkpt lat="44.6674383" lon="10.7647833"><ele>46.33333333333333</ele><time>2026-04-19T15:28:39.986Z</time></trkpt><trkpt lat="44.6674017" lon="10.7650533"><ele>45.666666666666664</ele><time>2026-04-19T15:28:40.986Z</time></trkpt><trkpt lat="44.667365" lon="10.765315"><ele>45.0</ele><time>2026-04-19T15:28:41.986Z</time></trkpt><trkpt lat="44.6673367" lon="10.76556"><ele>45.0</ele><time>2026-04-19T15:28:42.986Z</time></trkpt><trkpt lat="44.6673067" lon="10.7657767"><ele>45.0</ele><time>2026-04-19T15:28:43.986Z</time></trkpt><trkpt lat="44.6672817" lon="10.7659733"><ele>45.0</ele><time>2026-04-19T15:28:44.986Z</time></trkpt><trkpt lat="44.66727" lon="10.766155"><ele>45.0</ele><time>2026-04-19T15:28:45.986Z</time></trkpt><trkpt lat="44.667275" lon="10.7663333"><ele>44.666666666666664</ele><time>2026-04-19T15:28:46.986Z</time></trkpt><trkpt lat="44.667395" lon="10.7666717"><ele>44.33333333333333</ele><time>2026-04-19T15:28:48.986Z</time></trkpt><trkpt lat="44.6675067" lon="10.76685"><ele>44.0</ele><time>2026-04-19T15:28:49.986Z</time></trkpt><trkpt lat="44.667645" lon="10.7670433"><ele>45.0</ele><time>2026-04-19T15:28:50.986Z</time></trkpt><trkpt lat="44.6677867" lon="10.76725"><ele>46.0</ele><time>2026-04-19T15:28:51.986Z</time></trkpt><trkpt lat="44.6679217" lon="10.76745"><ele>47.0</ele><time>2026-04-19T15:28:52.986Z</time></trkpt><trkpt lat="44.6680417" lon="10.7676383"><ele>47.0</ele><time>2026-04-19T15:28:53.986Z</time></trkpt><trkpt lat="44.6681617" lon="10.7678333"><ele>47.0</ele><time>2026-04-19T15:28:54.986Z</time></trkpt><trkpt lat="44.6682883" lon="10.7680283"><ele>47.0</ele><time>2026-04-19T15:28:55.986Z</time></trkpt><trkpt lat="44.6684083" lon="10.7682217"><ele>47.0</ele><time>2026-04-19T15:28:56.986Z</time></trkpt><trkpt lat="44.66853" lon="10.76842"><ele>47.0</ele><time>2026-04-19T15:28:57.986Z</time></trkpt><trkpt lat="44.6686433" lon="10.7686117"><ele>47.0</ele><time>2026-04-19T15:28:58.986Z</time></trkpt><trkpt lat="44.6687667" lon="10.7687983"><ele>46.0</ele><time>2026-04-19T15:28:59.986Z</time></trkpt><trkpt lat="44.66889" lon="10.768975"><ele>45.0</ele><time>2026-04-19T15:29:00.986Z</time></trkpt><trkpt lat="44.6690133" lon="10.769135"><ele>44.0</ele><time>2026-04-19T15:29:01.986Z</time></trkpt><trkpt lat="44.6691267" lon="10.7692867"><ele>44.0</ele><time>2026-04-19T15:29:02.986Z</time></trkpt><trkpt lat="44.669235" lon="10.7694267"><ele>44.0</ele><time>2026-04-19T15:29:03.986Z</time></trkpt><trkpt lat="44.66935" lon="10.769565"><ele>44.0</ele><time>2026-04-19T15:29:04.986Z</time></trkpt><trkpt lat="44.6694667" lon="10.7696983"><ele>44.0</ele><time>2026-04-19T15:29:05.986Z</time></trkpt><trkpt lat="44.66958" lon="10.7698267"><ele>44.0</ele><time>2026-04-19T15:29:06.986Z</time></trkpt><trkpt lat="44.6696867" lon="10.76995"><ele>44.0</ele><time>2026-04-19T15:29:07.986Z</time></trkpt><trkpt lat="44.6698033" lon="10.7700767"><ele>44.0</ele><time>2026-04-19T15:29:08.986Z</time></trkpt><trkpt lat="44.6699233" lon="10.7702017"><ele>44.0</ele><time>2026-04-19T15:29:09.987Z</time></trkpt><trkpt lat="44.6700433" lon="10.7703133"><ele>44.33333333333333</ele><time>2026-04-19T15:29:10.986Z</time></trkpt><trkpt lat="44.67017" lon="10.7704367"><ele>44.666666666666664</ele><time>2026-04-19T15:29:11.986Z</time></trkpt><trkpt lat="44.6703033" lon="10.7705667"><ele>45.0</ele><time>2026-04-19T15:29:12.986Z</time></trkpt><trkpt lat="44.6704333" lon="10.7706967"><ele>45.0</ele><time>2026-04-19T15:29:13.986Z</time></trkpt><trkpt lat="44.6705517" lon="10.7708183"><ele>45.0</ele><time>2026-04-19T15:29:14.986Z</time></trkpt><trkpt lat="44.670685" lon="10.7709483"><ele>45.0</ele><time>2026-04-19T15:29:15.986Z</time></trkpt><trkpt lat="44.67081" lon="10.7710667"><ele>45.0</ele><time>2026-04-19T15:29:16.986Z</time></trkpt><trkpt lat="44.67093" lon="10.771205"><ele>45.0</ele><time>2026-04-19T15:29:17.986Z</time></trkpt><trkpt lat="44.671055" lon="10.7713383"><ele>45.0</ele><time>2026-04-19T15:29:18.986Z</time></trkpt><trkpt lat="44.671175" lon="10.7714833"><ele>45.0</ele><time>2026-04-19T15:29:19.986Z</time></trkpt><trkpt lat="44.6712867" lon="10.771645"><ele>45.0</ele><time>2026-04-19T15:29:20.986Z</time></trkpt><trkpt lat="44.6714117" lon="10.7718333"><ele>45.0</ele><time>2026-04-19T15:29:21.986Z</time></trkpt><trkpt lat="44.6715417" lon="10.77204"><ele>45.333333333333336</ele><time>2026-04-19T15:29:22.986Z</time></trkpt><trkpt lat="44.67167" lon="10.7722317"><ele>45.66666666666667</ele><time>2026-04-19T15:29:23.987Z</time></trkpt><trkpt lat="44.671785" lon="10.7723967"><ele>46.0</ele><time>2026-04-19T15:29:24.986Z</time></trkpt><trkpt lat="44.6718967" lon="10.77256"><ele>46.0</ele><time>2026-04-19T15:29:25.986Z</time></trkpt><trkpt lat="44.6720017" lon="10.772735"><ele>46.0</ele><time>2026-04-19T15:29:26.986Z</time></trkpt><trkpt lat="44.6721017" lon="10.77293"><ele>46.0</ele><time>2026-04-19T15:29:27.986Z</time></trkpt><trkpt lat="44.6721967" lon="10.7731583"><ele>46.0</ele><time>2026-04-19T15:29:28.986Z</time></trkpt><trkpt lat="44.6722967" lon="10.773415"><ele>46.0</ele><time>2026-04-19T15:29:29.986Z</time></trkpt><trkpt lat="44.6723833" lon="10.773655"><ele>46.0</ele><time>2026-04-19T15:29:30.986Z</time></trkpt><trkpt lat="44.6724767" lon="10.7738967"><ele>45.333333333333336</ele><time>2026-04-19T15:29:31.986Z</time></trkpt><trkpt lat="44.6725717" lon="10.77414"><ele>44.666666666666664</ele><time>2026-04-19T15:29:32.986Z</time></trkpt><trkpt lat="44.67267" lon="10.7743867"><ele>44.0</ele><time>2026-04-19T15:29:33.986Z</time></trkpt><trkpt lat="44.6727683" lon="10.774635"><ele>44.0</ele><time>2026-04-19T15:29:34.986Z</time></trkpt><trkpt lat="44.6728617" lon="10.7748733"><ele>44.0</ele><time>2026-04-19T15:29:35.986Z</time></trkpt><trkpt lat="44.6729517" lon="10.7750917"><ele>44.0</ele><time>2026-04-19T15:29:36.986Z</time></trkpt><trkpt lat="44.6730367" lon="10.7752983"><ele>44.33333333333333</ele><time>2026-04-19T15:29:37.986Z</time></trkpt><trkpt lat="44.673125" lon="10.7755"><ele>44.666666666666664</ele><time>2026-04-19T15:29:38.986Z</time></trkpt><trkpt lat="44.67322" lon="10.7756717"><ele>45.0</ele><time>2026-04-19T15:29:39.986Z</time></trkpt><trkpt lat="44.673335" lon="10.775835"><ele>45.0</ele><time>2026-04-19T15:29:40.986Z</time></trkpt><trkpt lat="44.6734783" lon="10.7759867"><ele>45.0</ele><time>2026-04-19T15:29:41.986Z</time></trkpt><trkpt lat="44.673635" lon="10.77614"><ele>45.0</ele><time>2026-04-19T15:29:42.986Z</time></trkpt><trkpt lat="44.67379" lon="10.77631"><ele>45.0</ele><time>2026-04-19T15:29:43.986Z</time></trkpt><trkpt lat="44.6739433" lon="10.7765"><ele>45.0</ele><time>2026-04-19T15:29:44.986Z</time></trkpt><trkpt lat="44.674075" lon="10.776705"><ele>45.0</ele><time>2026-04-19T15:29:45.986Z</time></trkpt><trkpt lat="44.6741933" lon="10.776925"><ele>45.0</ele><time>2026-04-19T15:29:46.986Z</time></trkpt><trkpt lat="44.6743133" lon="10.7771283"><ele>45.0</ele><time>2026-04-19T15:29:47.986Z</time></trkpt><trkpt lat="44.6744317" lon="10.7773083"><ele>45.0</ele><time>2026-04-19T15:29:48.986Z</time></trkpt><trkpt lat="44.6745617" lon="10.777475"><ele>45.0</ele><time>2026-04-19T15:29:49.986Z</time></trkpt><trkpt lat="44.6747133" lon="10.7776183"><ele>45.0</ele><time>2026-04-19T15:29:50.986Z</time></trkpt><trkpt lat="44.6748817" lon="10.7777267"><ele>45.0</ele><time>2026-04-19T15:29:51.986Z</time></trkpt><trkpt lat="44.675055" lon="10.777815"><ele>45.0</ele><time>2026-04-19T15:29:52.986Z</time></trkpt><trkpt lat="44.67522" lon="10.7779133"><ele>45.0</ele><time>2026-04-19T15:29:53.986Z</time></trkpt><trkpt lat="44.675375" lon="10.77804"><ele>45.0</ele><time>2026-04-19T15:29:54.986Z</time></trkpt><trkpt lat="44.6755267" lon="10.7781867"><ele>44.666666666666664</ele><time>2026-04-19T15:29:55.986Z</time></trkpt><trkpt lat="44.675675" lon="10.778365"><ele>44.33333333333333</ele><time>2026-04-19T15:29:56.986Z</time></trkpt><trkpt lat="44.6758217" lon="10.77855"><ele>44.0</ele><time>2026-04-19T15:29:57.986Z</time></trkpt><trkpt lat="44.6759533" lon="10.7787167"><ele>44.25</ele><time>2026-04-19T15:29:58.986Z</time></trkpt><trkpt lat="44.676075" lon="10.7788667"><ele>44.5</ele><time>2026-04-19T15:29:59.986Z</time></trkpt><trkpt lat="44.67619" lon="10.7789967"><ele>44.75</ele><time>2026-04-19T15:30:00.986Z</time></trkpt><trkpt lat="44.676295" lon="10.779125"><ele>45.0</ele><time>2026-04-19T15:30:01.987Z</time></trkpt><trkpt lat="44.6763933" lon="10.779265"><ele>45.2</ele><time>2026-04-19T15:30:02.986Z</time></trkpt><trkpt lat="44.6764933" lon="10.7794033"><ele>45.4</ele><time>2026-04-19T15:30:03.986Z</time></trkpt><trkpt lat="44.6765883" lon="10.7795133"><ele>45.599999999999994</ele><time>2026-04-19T15:30:04.986Z</time></trkpt><trkpt lat="44.676675" lon="10.7795917"><ele>45.8</ele><time>2026-04-19T15:30:05.986Z</time></trkpt><trkpt lat="44.6767483" lon="10.7796433"><ele>46.0</ele><time>2026-04-19T15:30:06.986Z</time></trkpt><trkpt lat="44.6768117" lon="10.7796867"><ele>46.0</ele><time>2026-04-19T15:30:07.986Z</time></trkpt><trkpt lat="44.6768817" lon="10.7797167"><ele>46.0</ele><time>2026-04-19T15:30:08.986Z</time></trkpt><trkpt lat="44.6769567" lon="10.7797367"><ele>46.0</ele><time>2026-04-19T15:30:09.986Z</time></trkpt><trkpt lat="44.6770433" lon="10.779765"><ele>46.0</ele><time>2026-04-19T15:30:10.986Z</time></trkpt><trkpt lat="44.6771483" lon="10.7798033"><ele>46.0</ele><time>2026-04-19T15:30:11.986Z</time></trkpt><trkpt lat="44.67726" lon="10.7798583"><ele>46.0</ele><time>2026-04-19T15:30:12.986Z</time></trkpt><trkpt lat="44.6773833" lon="10.7799317"><ele>46.0</ele><time>2026-04-19T15:30:13.986Z</time></trkpt><trkpt lat="44.6775183" lon="10.7800117"><ele>46.0</ele><time>2026-04-19T15:30:14.986Z</time></trkpt><trkpt lat="44.6776517" lon="10.78011"><ele>46.0</ele><time>2026-04-19T15:30:15.986Z</time></trkpt><trkpt lat="44.6777833" lon="10.7801983"><ele>45.75</ele><time>2026-04-19T15:30:16.986Z</time></trkpt><trkpt lat="44.6779117" lon="10.7802817"><ele>45.5</ele><time>2026-04-19T15:30:17.986Z</time></trkpt><trkpt lat="44.6780383" lon="10.7803617"><ele>45.25</ele><time>2026-04-19T15:30:18.986Z</time></trkpt><trkpt lat="44.6781617" lon="10.7804417"><ele>45.0</ele><time>2026-04-19T15:30:19.986Z</time></trkpt><trkpt lat="44.6782783" lon="10.780515"><ele>45.0</ele><time>2026-04-19T15:30:20.986Z</time></trkpt><trkpt lat="44.678385" lon="10.78058"><ele>45.0</ele><time>2026-04-19T15:30:21.986Z</time></trkpt><trkpt lat="44.678495" lon="10.7806333"><ele>45.0</ele><time>2026-04-19T15:30:22.986Z</time></trkpt><trkpt lat="44.67861" lon="10.7806617"><ele>45.0</ele><time>2026-04-19T15:30:23.986Z</time></trkpt><trkpt lat="44.6787333" lon="10.7806567"><ele>45.5</ele><time>2026-04-19T15:30:24.986Z</time></trkpt><trkpt lat="44.6788533" lon="10.7806333"><ele>46.0</ele><time>2026-04-19T15:30:25.986Z</time></trkpt><trkpt lat="44.6789667" lon="10.7806"><ele>46.5</ele><time>2026-04-19T15:30:26.986Z</time></trkpt><trkpt lat="44.6790833" lon="10.7805667"><ele>47.0</ele><time>2026-04-19T15:30:27.986Z</time></trkpt><trkpt lat="44.6791883" lon="10.7805283"><ele>47.0</ele><time>2026-04-19T15:30:28.986Z</time></trkpt><trkpt lat="44.6792867" lon="10.78049"><ele>47.0</ele><time>2026-04-19T15:30:29.986Z</time></trkpt><trkpt lat="44.6793817" lon="10.7804733"><ele>47.0</ele><time>2026-04-19T15:30:30.986Z</time></trkpt><trkpt lat="44.6794667" lon="10.7804683"><ele>47.0</ele><time>2026-04-19T15:30:31.986Z</time></trkpt><trkpt lat="44.679535" lon="10.7804583"><ele>47.0</ele><time>2026-04-19T15:30:32.987Z</time></trkpt><trkpt lat="44.6796167" lon="10.7804583"><ele>47.0</ele><time>2026-04-19T15:30:33.986Z</time></trkpt><trkpt lat="44.6797117" lon="10.780465"><ele>46.8</ele><time>2026-04-19T15:30:34.986Z</time></trkpt><trkpt lat="44.679805" lon="10.7804683"><ele>46.6</ele><time>2026-04-19T15:30:35.986Z</time></trkpt><trkpt lat="44.679895" lon="10.7804817"><ele>46.4</ele><time>2026-04-19T15:30:36.986Z</time></trkpt><trkpt lat="44.6799833" lon="10.7805017"><ele>46.199999999999996</ele><time>2026-04-19T15:30:37.986Z</time></trkpt><trkpt lat="44.680075" lon="10.7805317"><ele>46.0</ele><time>2026-04-19T15:30:38.986Z</time></trkpt><trkpt lat="44.6801733" lon="10.780575"><ele>46.25</ele><time>2026-04-19T15:30:39.986Z</time></trkpt><trkpt lat="44.6802883" lon="10.7806517"><ele>46.5</ele><time>2026-04-19T15:30:40.986Z</time></trkpt><trkpt lat="44.68041" lon="10.7807217"><ele>46.75</ele><time>2026-04-19T15:30:41.986Z</time></trkpt><trkpt lat="44.6805333" lon="10.7807867"><ele>47.0</ele><time>2026-04-19T15:30:42.986Z</time></trkpt><trkpt lat="44.6806583" lon="10.7808567"><ele>47.0</ele><time>2026-04-19T15:30:43.986Z</time></trkpt><trkpt lat="44.68079" lon="10.780935"><ele>47.0</ele><time>2026-04-19T15:30:44.986Z</time></trkpt><trkpt lat="44.6809067" lon="10.7810083"><ele>47.0</ele><time>2026-04-19T15:30:45.986Z</time></trkpt><trkpt lat="44.6810283" lon="10.7810733"><ele>47.0</ele><time>2026-04-19T15:30:46.986Z</time></trkpt><trkpt lat="44.6811533" lon="10.7811333"><ele>46.5</ele><time>2026-04-19T15:30:47.986Z</time></trkpt><trkpt lat="44.681275" lon="10.7811833"><ele>46.0</ele><time>2026-04-19T15:30:48.986Z</time></trkpt><trkpt lat="44.681405" lon="10.7812283"><ele>45.5</ele><time>2026-04-19T15:30:49.986Z</time></trkpt><trkpt lat="44.6815233" lon="10.781265"><ele>45.0</ele><time>2026-04-19T15:30:50.986Z</time></trkpt><trkpt lat="44.681645" lon="10.7813067"><ele>45.0</ele><time>2026-04-19T15:30:51.986Z</time></trkpt><trkpt lat="44.6817617" lon="10.7813433"><ele>45.0</ele><time>2026-04-19T15:30:52.986Z</time></trkpt><trkpt lat="44.681875" lon="10.78138"><ele>45.0</ele><time>2026-04-19T15:30:53.986Z</time></trkpt><trkpt lat="44.6819767" lon="10.7814033"><ele>45.0</ele><time>2026-04-19T15:30:54.986Z</time></trkpt><trkpt lat="44.6820717" lon="10.7814167"><ele>45.0</ele><time>2026-04-19T15:30:55.986Z</time></trkpt><trkpt lat="44.6821783" lon="10.78144"><ele>44.75</ele><time>2026-04-19T15:30:56.986Z</time></trkpt><trkpt lat="44.6822967" lon="10.7814483"><ele>44.5</ele><time>2026-04-19T15:30:57.986Z</time></trkpt><trkpt lat="44.6824217" lon="10.781455"><ele>44.25</ele><time>2026-04-19T15:30:58.986Z</time></trkpt><trkpt lat="44.6825467" lon="10.78143"><ele>44.0</ele><time>2026-04-19T15:30:59.986Z</time></trkpt><trkpt lat="44.68267" lon="10.781385"><ele>44.0</ele><time>2026-04-19T15:31:00.986Z</time></trkpt><trkpt lat="44.6828" lon="10.7813267"><ele>44.0</ele><time>2026-04-19T15:31:01.986Z</time></trkpt><trkpt lat="44.6829283" lon="10.78127"><ele>44.0</ele><time>2026-04-19T15:31:02.986Z</time></trkpt><trkpt lat="44.6830667" lon="10.7812017"><ele>44.0</ele><time>2026-04-19T15:31:03.986Z</time></trkpt><trkpt lat="44.6832133" lon="10.7811383"><ele>44.0</ele><time>2026-04-19T15:31:04.986Z</time></trkpt><trkpt lat="44.6833733" lon="10.78108"><ele>44.0</ele><time>2026-04-19T15:31:05.986Z</time></trkpt><trkpt lat="44.68354" lon="10.78102"><ele>44.0</ele><time>2026-04-19T15:31:06.986Z</time></trkpt><trkpt lat="44.6837133" lon="10.7809517"><ele>43.33333333333333</ele><time>2026-04-19T15:31:07.986Z</time></trkpt><trkpt lat="44.6838933" lon="10.780895"><ele>42.666666666666664</ele><time>2026-04-19T15:31:08.986Z</time></trkpt><trkpt lat="44.684065" lon="10.7808467"><ele>42.0</ele><time>2026-04-19T15:31:09.986Z</time></trkpt><trkpt lat="44.68423" lon="10.780805"><ele>42.0</ele><time>2026-04-19T15:31:10.986Z</time></trkpt><trkpt lat="44.6843917" lon="10.7807583"><ele>42.0</ele><time>2026-04-19T15:31:11.986Z</time></trkpt><trkpt lat="44.6845483" lon="10.780685"><ele>42.0</ele><time>2026-04-19T15:31:12.986Z</time></trkpt><trkpt lat="44.6847133" lon="10.7805967"><ele>41.666666666666664</ele><time>2026-04-19T15:31:13.986Z</time></trkpt><trkpt lat="44.68488" lon="10.7804783"><ele>41.33333333333333</ele><time>2026-04-19T15:31:14.986Z</time></trkpt><trkpt lat="44.6850483" lon="10.78034"><ele>41.0</ele><time>2026-04-19T15:31:15.987Z</time></trkpt><trkpt lat="44.685215" lon="10.78018"><ele>40.666666666666664</ele><time>2026-04-19T15:31:16.986Z</time></trkpt><trkpt lat="44.68539" lon="10.78001"><ele>40.333333333333336</ele><time>2026-04-19T15:31:17.986Z</time></trkpt><trkpt lat="44.6855533" lon="10.7798567"><ele>40.0</ele><time>2026-04-19T15:31:18.986Z</time></trkpt><trkpt lat="44.6857267" lon="10.7797117"><ele>40.0</ele><time>2026-04-19T15:31:19.986Z</time></trkpt><trkpt lat="44.6859017" lon="10.7795883"><ele>40.0</ele><time>2026-04-19T15:31:20.986Z</time></trkpt><trkpt lat="44.6860833" lon="10.77947"><ele>40.0</ele><time>2026-04-19T15:31:21.987Z</time></trkpt><trkpt lat="44.6862617" lon="10.7793683"><ele>40.333333333333336</ele><time>2026-04-19T15:31:22.986Z</time></trkpt><trkpt lat="44.6864417" lon="10.7792933"><ele>40.666666666666664</ele><time>2026-04-19T15:31:23.986Z</time></trkpt><trkpt lat="44.6866067" lon="10.7792117"><ele>41.0</ele><time>2026-04-19T15:31:24.986Z</time></trkpt><trkpt lat="44.6867717" lon="10.7791383"><ele>41.33333333333333</ele><time>2026-04-19T15:31:25.986Z</time></trkpt><trkpt lat="44.68694" lon="10.77908"><ele>41.666666666666664</ele><time>2026-04-19T15:31:26.986Z</time></trkpt><trkpt lat="44.68711" lon="10.7790467"><ele>42.0</ele><time>2026-04-19T15:31:27.986Z</time></trkpt><trkpt lat="44.6872867" lon="10.7790467"><ele>42.0</ele><time>2026-04-19T15:31:28.986Z</time></trkpt><trkpt lat="44.6874667" lon="10.77907"><ele>42.0</ele><time>2026-04-19T15:31:29.986Z</time></trkpt><trkpt lat="44.6876517" lon="10.7791017"><ele>42.0</ele><time>2026-04-19T15:31:30.986Z</time></trkpt><trkpt lat="44.6878433" lon="10.779145"><ele>41.666666666666664</ele><time>2026-04-19T15:31:31.986Z</time></trkpt><trkpt lat="44.6880367" lon="10.7791867"><ele>41.33333333333333</ele><time>2026-04-19T15:31:32.986Z</time></trkpt><trkpt lat="44.6882183" lon="10.77922"><ele>41.0</ele><time>2026-04-19T15:31:33.986Z</time></trkpt><trkpt lat="44.6883967" lon="10.77923"><ele>41.0</ele><time>2026-04-19T15:31:34.986Z</time></trkpt><trkpt lat="44.6885633" lon="10.7792133"><ele>41.0</ele><time>2026-04-19T15:31:35.986Z</time></trkpt><trkpt lat="44.6887067" lon="10.7791783"><ele>41.0</ele><time>2026-04-19T15:31:36.986Z</time></trkpt><trkpt lat="44.6888367" lon="10.7791483"><ele>41.0</ele><time>2026-04-19T15:31:37.986Z</time></trkpt><trkpt lat="44.6889533" lon="10.779115"><ele>41.0</ele><time>2026-04-19T15:31:38.986Z</time></trkpt><trkpt lat="44.68906" lon="10.7791117"><ele>41.0</ele><time>2026-04-19T15:31:39.986Z</time></trkpt><trkpt lat="44.6891717" lon="10.7791067"><ele>41.0</ele><time>2026-04-19T15:31:40.986Z</time></trkpt><trkpt lat="44.6893033" lon="10.7790667"><ele>41.0</ele><time>2026-04-19T15:31:41.986Z</time></trkpt><trkpt lat="44.6894467" lon="10.779"><ele>41.0</ele><time>2026-04-19T15:31:42.986Z</time></trkpt><trkpt lat="44.6896083" lon="10.7789667"><ele>41.0</ele><time>2026-04-19T15:31:43.987Z</time></trkpt><trkpt lat="44.6897717" lon="10.7789733"><ele>41.0</ele><time>2026-04-19T15:31:44.986Z</time></trkpt><trkpt lat="44.689955" lon="10.77903"><ele>41.0</ele><time>2026-04-19T15:31:45.986Z</time></trkpt><trkpt lat="44.6901267" lon="10.77911"><ele>41.0</ele><time>2026-04-19T15:31:46.986Z</time></trkpt><trkpt lat="44.6902983" lon="10.7792183"><ele>41.0</ele><time>2026-04-19T15:31:47.986Z</time></trkpt><trkpt lat="44.6904667" lon="10.7793217"><ele>41.33333333333333</ele><time>2026-04-19T15:31:48.986Z</time></trkpt><trkpt lat="44.6906383" lon="10.77944"><ele>41.666666666666664</ele><time>2026-04-19T15:31:49.986Z</time></trkpt><trkpt lat="44.6908183" lon="10.7795567"><ele>42.0</ele><time>2026-04-19T15:31:50.986Z</time></trkpt><trkpt lat="44.6909933" lon="10.7796733"><ele>41.0</ele><time>2026-04-19T15:31:51.986Z</time></trkpt><trkpt lat="44.6911633" lon="10.7797917"><ele>40.0</ele><time>2026-04-19T15:31:52.986Z</time></trkpt><trkpt lat="44.6913367" lon="10.7799067"><ele>39.0</ele><time>2026-04-19T15:31:53.986Z</time></trkpt><trkpt lat="44.6915117" lon="10.780015"><ele>39.0</ele><time>2026-04-19T15:31:54.986Z</time></trkpt><trkpt lat="44.69168" lon="10.7801183"><ele>39.0</ele><time>2026-04-19T15:31:55.986Z</time></trkpt><trkpt lat="44.6918483" lon="10.7802217"><ele>39.0</ele><time>2026-04-19T15:31:56.986Z</time></trkpt><trkpt lat="44.69201" lon="10.78032"><ele>39.5</ele><time>2026-04-19T15:31:57.986Z</time></trkpt><trkpt lat="44.692145" lon="10.7803967"><ele>40.0</ele><time>2026-04-19T15:31:58.987Z</time></trkpt><trkpt lat="44.692285" lon="10.7804617"><ele>40.5</ele><time>2026-04-19T15:31:59.986Z</time></trkpt><trkpt lat="44.6924" lon="10.7805233"><ele>41.0</ele><time>2026-04-19T15:32:00.986Z</time></trkpt><trkpt lat="44.6924783" lon="10.7805817"><ele>41.0</ele><time>2026-04-19T15:32:01.986Z</time></trkpt><trkpt lat="44.6925317" lon="10.7806567"><ele>41.0</ele><time>2026-04-19T15:32:02.986Z</time></trkpt><trkpt lat="44.6925683" lon="10.78076"><ele>41.0</ele><time>2026-04-19T15:32:03.986Z</time></trkpt><trkpt lat="44.6925867" lon="10.7808733"><ele>41.0</ele><time>2026-04-19T15:32:04.986Z</time></trkpt><trkpt lat="44.6925983" lon="10.7809917"><ele>41.0</ele><time>2026-04-19T15:32:05.986Z</time></trkpt><trkpt lat="44.6926317" lon="10.7810883"><ele>41.0</ele><time>2026-04-19T15:32:06.986Z</time></trkpt><trkpt lat="44.6926917" lon="10.7811483"><ele>40.8</ele><time>2026-04-19T15:32:07.986Z</time></trkpt><trkpt lat="44.69276" lon="10.78116"><ele>40.599999999999994</ele><time>2026-04-19T15:32:08.986Z</time></trkpt><trkpt lat="44.6928333" lon="10.7811467"><ele>40.4</ele><time>2026-04-19T15:32:09.986Z</time></trkpt><trkpt lat="44.69293" lon="10.7811233"><ele>40.2</ele><time>2026-04-19T15:32:10.986Z</time></trkpt><trkpt lat="44.6930517" lon="10.7811417"><ele>40.0</ele><time>2026-04-19T15:32:11.986Z</time></trkpt><trkpt lat="44.6931867" lon="10.7812033"><ele>40.0</ele><time>2026-04-19T15:32:12.986Z</time></trkpt><trkpt lat="44.693335" lon="10.781305"><ele>40.0</ele><time>2026-04-19T15:32:13.986Z</time></trkpt><trkpt lat="44.6935017" lon="10.7814133"><ele>40.0</ele><time>2026-04-19T15:32:14.986Z</time></trkpt><trkpt lat="44.6936833" lon="10.78153"><ele>40.333333333333336</ele><time>2026-04-19T15:32:15.986Z</time></trkpt><trkpt lat="44.6938617" lon="10.7816533"><ele>40.666666666666664</ele><time>2026-04-19T15:32:16.986Z</time></trkpt><trkpt lat="44.6940567" lon="10.78179"><ele>41.0</ele><time>2026-04-19T15:32:17.986Z</time></trkpt><trkpt lat="44.6942517" lon="10.781915"><ele>41.0</ele><time>2026-04-19T15:32:18.986Z</time></trkpt><trkpt lat="44.6944333" lon="10.782035"><ele>41.0</ele><time>2026-04-19T15:32:19.987Z</time></trkpt><trkpt lat="44.6946167" lon="10.7821467"><ele>41.0</ele><time>2026-04-19T15:32:20.986Z</time></trkpt><trkpt lat="44.6948" lon="10.7822567"><ele>41.0</ele><time>2026-04-19T15:32:21.986Z</time></trkpt><trkpt lat="44.6949883" lon="10.7823667"><ele>41.0</ele><time>2026-04-19T15:32:22.986Z</time></trkpt><trkpt lat="44.6951767" lon="10.7824683"><ele>41.0</ele><time>2026-04-19T15:32:23.986Z</time></trkpt><trkpt lat="44.69536" lon="10.7825567"><ele>40.666666666666664</ele><time>2026-04-19T15:32:24.986Z</time></trkpt><trkpt lat="44.69555" lon="10.7826367"><ele>40.333333333333336</ele><time>2026-04-19T15:32:25.986Z</time></trkpt><trkpt lat="44.6957417" lon="10.7827183"><ele>40.0</ele><time>2026-04-19T15:32:26.986Z</time></trkpt><trkpt lat="44.6959417" lon="10.7828017"><ele>40.0</ele><time>2026-04-19T15:32:27.986Z</time></trkpt><trkpt lat="44.6961433" lon="10.7828883"><ele>40.0</ele><time>2026-04-19T15:32:28.986Z</time></trkpt><trkpt lat="44.69635" lon="10.7829717"><ele>40.0</ele><time>2026-04-19T15:32:29.986Z</time></trkpt><trkpt lat="44.696555" lon="10.78306"><ele>40.0</ele><time>2026-04-19T15:32:30.986Z</time></trkpt><trkpt lat="44.6967617" lon="10.7831617"><ele>40.0</ele><time>2026-04-19T15:32:31.986Z</time></trkpt><trkpt lat="44.696975" lon="10.783285"><ele>39.0</ele><time>2026-04-19T15:32:32.986Z</time></trkpt><trkpt lat="44.6972067" lon="10.783415"><ele>38.0</ele><time>2026-04-19T15:32:33.986Z</time></trkpt><trkpt lat="44.6974333" lon="10.78355"><ele>38.0</ele><time>2026-04-19T15:32:34.986Z</time></trkpt><trkpt lat="44.6976517" lon="10.7836883"><ele>38.0</ele><time>2026-04-19T15:32:35.986Z</time></trkpt><trkpt lat="44.6978683" lon="10.7838233"><ele>37.666666666666664</ele><time>2026-04-19T15:32:36.986Z</time></trkpt><trkpt lat="44.69808" lon="10.78395"><ele>37.333333333333336</ele><time>2026-04-19T15:32:37.986Z</time></trkpt><trkpt lat="44.69828" lon="10.7840733"><ele>37.0</ele><time>2026-04-19T15:32:38.986Z</time></trkpt><trkpt lat="44.6984783" lon="10.7841967"><ele>37.333333333333336</ele><time>2026-04-19T15:32:39.986Z</time></trkpt><trkpt lat="44.698665" lon="10.7843217"><ele>37.666666666666664</ele><time>2026-04-19T15:32:40.986Z</time></trkpt><trkpt lat="44.698845" lon="10.7844483"><ele>38.0</ele><time>2026-04-19T15:32:41.986Z</time></trkpt><trkpt lat="44.6990167" lon="10.78457"><ele>38.0</ele><time>2026-04-19T15:32:42.986Z</time></trkpt><trkpt lat="44.6991867" lon="10.784685"><ele>38.0</ele><time>2026-04-19T15:32:43.986Z</time></trkpt><trkpt lat="44.699345" lon="10.784795"><ele>38.0</ele><time>2026-04-19T15:32:44.986Z</time></trkpt><trkpt lat="44.6994983" lon="10.7849"><ele>38.25</ele><time>2026-04-19T15:32:45.986Z</time></trkpt><trkpt lat="44.699635" lon="10.785"><ele>38.5</ele><time>2026-04-19T15:32:46.986Z</time></trkpt><trkpt lat="44.699765" lon="10.7850983"><ele>38.75</ele><time>2026-04-19T15:32:47.986Z</time></trkpt><trkpt lat="44.699885" lon="10.7851833"><ele>39.0</ele><time>2026-04-19T15:32:48.986Z</time></trkpt><trkpt lat="44.6999917" lon="10.7852683"><ele>39.0</ele><time>2026-04-19T15:32:49.986Z</time></trkpt><trkpt lat="44.70006" lon="10.785395"><ele>39.0</ele><time>2026-04-19T15:32:50.986Z</time></trkpt><trkpt lat="44.7000917" lon="10.785555"><ele>39.0</ele><time>2026-04-19T15:32:51.986Z</time></trkpt><trkpt lat="44.7000983" lon="10.7857433"><ele>39.0</ele><time>2026-04-19T15:32:52.986Z</time></trkpt><trkpt lat="44.70011" lon="10.7859283"><ele>39.0</ele><time>2026-04-19T15:32:53.986Z</time></trkpt><trkpt lat="44.7001533" lon="10.786095"><ele>39.0</ele><time>2026-04-19T15:32:54.986Z</time></trkpt><trkpt lat="44.7002517" lon="10.7862367"><ele>39.0</ele><time>2026-04-19T15:32:55.986Z</time></trkpt><trkpt lat="44.70039" lon="10.7863633"><ele>39.0</ele><time>2026-04-19T15:32:56.986Z</time></trkpt><trkpt lat="44.7005683" lon="10.7864783"><ele>38.666666666666664</ele><time>2026-04-19T15:32:57.986Z</time></trkpt><trkpt lat="44.70076" lon="10.7866083"><ele>38.33333333333333</ele><time>2026-04-19T15:32:58.986Z</time></trkpt><trkpt lat="44.7009383" lon="10.7867317"><ele>38.0</ele><time>2026-04-19T15:32:59.986Z</time></trkpt><trkpt lat="44.7011117" lon="10.7868533"><ele>37.666666666666664</ele><time>2026-04-19T15:33:00.986Z</time></trkpt><trkpt lat="44.7012817" lon="10.7869683"><ele>37.333333333333336</ele><time>2026-04-19T15:33:01.986Z</time></trkpt><trkpt lat="44.7014567" lon="10.7870983"><ele>37.0</ele><time>2026-04-19T15:33:02.986Z</time></trkpt><trkpt lat="44.7016283" lon="10.7872217"><ele>37.0</ele><time>2026-04-19T15:33:03.986Z</time></trkpt><trkpt lat="44.7018017" lon="10.7873567"><ele>37.0</ele><time>2026-04-19T15:33:04.986Z</time></trkpt><trkpt lat="44.70197" lon="10.787495"><ele>37.0</ele><time>2026-04-19T15:33:05.986Z</time></trkpt><trkpt lat="44.70214" lon="10.7876217"><ele>37.333333333333336</ele><time>2026-04-19T15:33:06.986Z</time></trkpt><trkpt lat="44.7022983" lon="10.787745"><ele>37.666666666666664</ele><time>2026-04-19T15:33:07.986Z</time></trkpt><trkpt lat="44.7024533" lon="10.78787"><ele>38.0</ele><time>2026-04-19T15:33:08.986Z</time></trkpt><trkpt lat="44.7026083" lon="10.787995"><ele>38.0</ele><time>2026-04-19T15:33:09.986Z</time></trkpt><trkpt lat="44.7029433" lon="10.788265"><ele>38.0</ele><time>2026-04-19T15:33:11.986Z</time></trkpt><trkpt lat="44.7031233" lon="10.788405"><ele>38.0</ele><time>2026-04-19T15:33:12.986Z</time></trkpt><trkpt lat="44.7032917" lon="10.7885517"><ele>38.0</ele><time>2026-04-19T15:33:13.986Z</time></trkpt><trkpt lat="44.703455" lon="10.78871"><ele>38.0</ele><time>2026-04-19T15:33:14.986Z</time></trkpt><trkpt lat="44.7036217" lon="10.7888767"><ele>38.0</ele><time>2026-04-19T15:33:15.986Z</time></trkpt><trkpt lat="44.70379" lon="10.7890467"><ele>38.0</ele><time>2026-04-19T15:33:16.986Z</time></trkpt><trkpt lat="44.7039617" lon="10.78921"><ele>38.0</ele><time>2026-04-19T15:33:17.986Z</time></trkpt><trkpt lat="44.7041217" lon="10.78937"><ele>38.0</ele><time>2026-04-19T15:33:18.986Z</time></trkpt><trkpt lat="44.7042667" lon="10.7895133"><ele>38.0</ele><time>2026-04-19T15:33:19.986Z</time></trkpt><trkpt lat="44.7044017" lon="10.7896517"><ele>38.0</ele><time>2026-04-19T15:33:20.986Z</time></trkpt><trkpt lat="44.7045317" lon="10.7897817"><ele>38.0</ele><time>2026-04-19T15:33:21.986Z</time></trkpt><trkpt lat="44.7046517" lon="10.7898817"><ele>38.0</ele><time>2026-04-19T15:33:22.986Z</time></trkpt><trkpt lat="44.7047767" lon="10.7899583"><ele>38.0</ele><time>2026-04-19T15:33:23.986Z</time></trkpt><trkpt lat="44.7049067" lon="10.789995"><ele>38.0</ele><time>2026-04-19T15:33:24.986Z</time></trkpt><trkpt lat="44.7050533" lon="10.78999"><ele>38.0</ele><time>2026-04-19T15:33:25.986Z</time></trkpt><trkpt lat="44.7052133" lon="10.789945"><ele>38.0</ele><time>2026-04-19T15:33:26.986Z</time></trkpt><trkpt lat="44.7053933" lon="10.7898583"><ele>38.0</ele><time>2026-04-19T15:33:27.986Z</time></trkpt><trkpt lat="44.7055867" lon="10.78973"><ele>37.5</ele><time>2026-04-19T15:33:28.986Z</time></trkpt><trkpt lat="44.70579" lon="10.7895633"><ele>37.0</ele><time>2026-04-19T15:33:29.986Z</time></trkpt><trkpt lat="44.705985" lon="10.789405"><ele>37.333333333333336</ele><time>2026-04-19T15:33:30.986Z</time></trkpt><trkpt lat="44.70617" lon="10.7892567"><ele>37.666666666666664</ele><time>2026-04-19T15:33:31.986Z</time></trkpt><trkpt lat="44.706355" lon="10.7891317"><ele>38.0</ele><time>2026-04-19T15:33:32.986Z</time></trkpt><trkpt lat="44.7065433" lon="10.789025"><ele>38.0</ele><time>2026-04-19T15:33:33.986Z</time></trkpt><trkpt lat="44.706735" lon="10.7889367"><ele>38.0</ele><time>2026-04-19T15:33:34.986Z</time></trkpt><trkpt lat="44.7069317" lon="10.7888483"><ele>38.0</ele><time>2026-04-19T15:33:35.986Z</time></trkpt><trkpt lat="44.70713" lon="10.7887617"><ele>37.666666666666664</ele><time>2026-04-19T15:33:36.986Z</time></trkpt><trkpt lat="44.7073233" lon="10.7886817"><ele>37.333333333333336</ele><time>2026-04-19T15:33:37.986Z</time></trkpt><trkpt lat="44.70751" lon="10.788605"><ele>37.0</ele><time>2026-04-19T15:33:38.986Z</time></trkpt><trkpt lat="44.70768" lon="10.788535"><ele>37.66666666666667</ele><time>2026-04-19T15:33:39.986Z</time></trkpt><trkpt lat="44.7078467" lon="10.7884517"><ele>38.333333333333336</ele><time>2026-04-19T15:33:40.986Z</time></trkpt><trkpt lat="44.7080017" lon="10.78835"><ele>39.0</ele><time>2026-04-19T15:33:41.986Z</time></trkpt><trkpt lat="44.7081467" lon="10.7882167"><ele>39.0</ele><time>2026-04-19T15:33:42.986Z</time></trkpt><trkpt lat="44.7082833" lon="10.78805"><ele>39.0</ele><time>2026-04-19T15:33:43.986Z</time></trkpt><trkpt lat="44.7084217" lon="10.7878633"><ele>39.0</ele><time>2026-04-19T15:33:44.986Z</time></trkpt><trkpt lat="44.7085583" lon="10.7876717"><ele>39.0</ele><time>2026-04-19T15:33:45.986Z</time></trkpt><trkpt lat="44.7087" lon="10.7874817"><ele>39.0</ele><time>2026-04-19T15:33:46.986Z</time></trkpt><trkpt lat="44.708835" lon="10.78729"><ele>39.0</ele><time>2026-04-19T15:33:47.986Z</time></trkpt><trkpt lat="44.7089567" lon="10.7871167"><ele>39.0</ele><time>2026-04-19T15:33:48.986Z</time></trkpt><trkpt lat="44.709065" lon="10.7869617"><ele>39.0</ele><time>2026-04-19T15:33:49.986Z</time></trkpt><trkpt lat="44.7091483" lon="10.78679"><ele>39.0</ele><time>2026-04-19T15:33:50.986Z</time></trkpt><trkpt lat="44.7092267" lon="10.7866033"><ele>39.0</ele><time>2026-04-19T15:33:51.986Z</time></trkpt><trkpt lat="44.7093133" lon="10.786405"><ele>39.0</ele><time>2026-04-19T15:33:52.986Z</time></trkpt><trkpt lat="44.70941" lon="10.7862083"><ele>39.0</ele><time>2026-04-19T15:33:53.986Z</time></trkpt><trkpt lat="44.709515" lon="10.7860133"><ele>39.333333333333336</ele><time>2026-04-19T15:33:54.986Z</time></trkpt><trkpt lat="44.7096483" lon="10.7858233"><ele>39.66666666666667</ele><time>2026-04-19T15:33:55.986Z</time></trkpt><trkpt lat="44.7097983" lon="10.7856533"><ele>40.0</ele><time>2026-04-19T15:33:56.986Z</time></trkpt><trkpt lat="44.7099617" lon="10.7854867"><ele>40.0</ele><time>2026-04-19T15:33:57.986Z</time></trkpt><trkpt lat="44.710125" lon="10.7853233"><ele>40.0</ele><time>2026-04-19T15:33:58.986Z</time></trkpt><trkpt lat="44.7103033" lon="10.7851667"><ele>40.0</ele><time>2026-04-19T15:33:59.986Z</time></trkpt><trkpt lat="44.71047" lon="10.7850183"><ele>39.333333333333336</ele><time>2026-04-19T15:34:00.986Z</time></trkpt><trkpt lat="44.71063" lon="10.7848783"><ele>38.666666666666664</ele><time>2026-04-19T15:34:01.986Z</time></trkpt><trkpt lat="44.7107967" lon="10.7847333"><ele>38.0</ele><time>2026-04-19T15:34:02.986Z</time></trkpt><trkpt lat="44.7109783" lon="10.78461"><ele>38.0</ele><time>2026-04-19T15:34:03.986Z</time></trkpt><trkpt lat="44.7111633" lon="10.7845067"><ele>38.0</ele><time>2026-04-19T15:34:04.986Z</time></trkpt><trkpt lat="44.71136" lon="10.7844117"><ele>38.0</ele><time>2026-04-19T15:34:05.986Z</time></trkpt><trkpt lat="44.7115583" lon="10.7843267"><ele>38.0</ele><time>2026-04-19T15:34:06.986Z</time></trkpt><trkpt lat="44.7117467" lon="10.7842483"><ele>38.0</ele><time>2026-04-19T15:34:07.986Z</time></trkpt><trkpt lat="44.7119367" lon="10.7841717"><ele>38.0</ele><time>2026-04-19T15:34:08.986Z</time></trkpt><trkpt lat="44.7121317" lon="10.784095"><ele>37.666666666666664</ele><time>2026-04-19T15:34:09.986Z</time></trkpt><trkpt lat="44.71233" lon="10.7840217"><ele>37.333333333333336</ele><time>2026-04-19T15:34:10.986Z</time></trkpt><trkpt lat="44.71254" lon="10.7839567"><ele>37.0</ele><time>2026-04-19T15:34:11.986Z</time></trkpt><trkpt lat="44.7127533" lon="10.7838983"><ele>36.66666666666667</ele><time>2026-04-19T15:34:12.986Z</time></trkpt><trkpt lat="44.71296" lon="10.7838483"><ele>36.333333333333336</ele><time>2026-04-19T15:34:13.986Z</time></trkpt><trkpt lat="44.71316" lon="10.78381"><ele>36.0</ele><time>2026-04-19T15:34:14.986Z</time></trkpt><trkpt lat="44.71335" lon="10.783775"><ele>36.0</ele><time>2026-04-19T15:34:15.986Z</time></trkpt><trkpt lat="44.713535" lon="10.7837417"><ele>36.0</ele><time>2026-04-19T15:34:16.986Z</time></trkpt><trkpt lat="44.7137167" lon="10.783725"><ele>36.0</ele><time>2026-04-19T15:34:17.986Z</time></trkpt><trkpt lat="44.7138967" lon="10.7837167"><ele>36.0</ele><time>2026-04-19T15:34:18.986Z</time></trkpt><trkpt lat="44.7140633" lon="10.78371"><ele>36.0</ele><time>2026-04-19T15:34:19.986Z</time></trkpt><trkpt lat="44.7142133" lon="10.7837067"><ele>36.0</ele><time>2026-04-19T15:34:20.986Z</time></trkpt><trkpt lat="44.714355" lon="10.783705"><ele>36.75</ele><time>2026-04-19T15:34:21.986Z</time></trkpt><trkpt lat="44.71448" lon="10.7836983"><ele>37.5</ele><time>2026-04-19T15:34:22.986Z</time></trkpt><trkpt lat="44.7146033" lon="10.7836933"><ele>38.25</ele><time>2026-04-19T15:34:23.986Z</time></trkpt><trkpt lat="44.7147317" lon="10.7836883"><ele>39.0</ele><time>2026-04-19T15:34:24.986Z</time></trkpt><trkpt lat="44.7148533" lon="10.7837117"><ele>39.0</ele><time>2026-04-19T15:34:25.986Z</time></trkpt><trkpt lat="44.7149467" lon="10.783745"><ele>39.0</ele><time>2026-04-19T15:34:26.986Z</time></trkpt><trkpt lat="44.7150267" lon="10.783755"><ele>39.0</ele><time>2026-04-19T15:34:27.986Z</time></trkpt><trkpt lat="44.71511" lon="10.7836483"><ele>39.0</ele><time>2026-04-19T15:34:29.986Z</time></trkpt><trkpt lat="44.7151317" lon="10.7835567"><ele>39.0</ele><time>2026-04-19T15:34:30.986Z</time></trkpt><trkpt lat="44.715115" lon="10.7834283"><ele>38.75</ele><time>2026-04-19T15:34:31.986Z</time></trkpt><trkpt lat="44.7150783" lon="10.783265"><ele>38.5</ele><time>2026-04-19T15:34:32.986Z</time></trkpt><trkpt lat="44.71504" lon="10.7830683"><ele>38.25</ele><time>2026-04-19T15:34:33.986Z</time></trkpt><trkpt lat="44.7150017" lon="10.7828317"><ele>38.0</ele><time>2026-04-19T15:34:34.986Z</time></trkpt><trkpt lat="44.71495" lon="10.7825617"><ele>38.0</ele><time>2026-04-19T15:34:35.987Z</time></trkpt><trkpt lat="44.71492" lon="10.7822783"><ele>38.0</ele><time>2026-04-19T15:34:36.986Z</time></trkpt><trkpt lat="44.7148767" lon="10.7819883"><ele>38.0</ele><time>2026-04-19T15:34:37.986Z</time></trkpt><trkpt lat="44.7148317" lon="10.781685"><ele>36.5</ele><time>2026-04-19T15:34:38.986Z</time></trkpt><trkpt lat="44.7147883" lon="10.7813717"><ele>35.0</ele><time>2026-04-19T15:34:39.986Z</time></trkpt><trkpt lat="44.7147433" lon="10.7810567"><ele>35.0</ele><time>2026-04-19T15:34:40.986Z</time></trkpt><trkpt lat="44.7147033" lon="10.7807483"><ele>35.0</ele><time>2026-04-19T15:34:41.986Z</time></trkpt><trkpt lat="44.71467" lon="10.780445"><ele>35.0</ele><time>2026-04-19T15:34:42.986Z</time></trkpt><trkpt lat="44.7146267" lon="10.7801433"><ele>35.0</ele><time>2026-04-19T15:34:43.987Z</time></trkpt><trkpt lat="44.7145867" lon="10.7798383"><ele>35.0</ele><time>2026-04-19T15:34:44.986Z</time></trkpt><trkpt lat="44.7145467" lon="10.7795417"><ele>35.0</ele><time>2026-04-19T15:34:45.987Z</time></trkpt><trkpt lat="44.7145117" lon="10.7792683"><ele>35.33333333333333</ele><time>2026-04-19T15:34:46.986Z</time></trkpt><trkpt lat="44.71448" lon="10.7790083"><ele>35.666666666666664</ele><time>2026-04-19T15:34:47.986Z</time></trkpt><trkpt lat="44.7144583" lon="10.7787483"><ele>36.0</ele><time>2026-04-19T15:34:48.986Z</time></trkpt><trkpt lat="44.7144617" lon="10.778485"><ele>36.333333333333336</ele><time>2026-04-19T15:34:49.986Z</time></trkpt><trkpt lat="44.7144767" lon="10.77822"><ele>36.66666666666667</ele><time>2026-04-19T15:34:50.986Z</time></trkpt><trkpt lat="44.71451" lon="10.7779517"><ele>37.0</ele><time>2026-04-19T15:34:51.987Z</time></trkpt><trkpt lat="44.71458" lon="10.7776833"><ele>37.333333333333336</ele><time>2026-04-19T15:34:52.986Z</time></trkpt><trkpt lat="44.7146817" lon="10.7774167"><ele>37.666666666666664</ele><time>2026-04-19T15:34:53.986Z</time></trkpt><trkpt lat="44.71481" lon="10.77717"><ele>38.0</ele><time>2026-04-19T15:34:54.986Z</time></trkpt><trkpt lat="44.7149633" lon="10.776925"><ele>37.5</ele><time>2026-04-19T15:34:55.986Z</time></trkpt><trkpt lat="44.7151317" lon="10.7766783"><ele>37.0</ele><time>2026-04-19T15:34:56.986Z</time></trkpt><trkpt lat="44.7152967" lon="10.7764217"><ele>37.0</ele><time>2026-04-19T15:34:57.986Z</time></trkpt><trkpt lat="44.71547" lon="10.7761617"><ele>37.0</ele><time>2026-04-19T15:34:58.986Z</time></trkpt><trkpt lat="44.7156467" lon="10.775885"><ele>37.0</ele><time>2026-04-19T15:34:59.986Z</time></trkpt><trkpt lat="44.7158333" lon="10.775605"><ele>37.0</ele><time>2026-04-19T15:35:00.986Z</time></trkpt><trkpt lat="44.7160067" lon="10.77534"><ele>35.0</ele><time>2026-04-19T15:35:01.986Z</time></trkpt><trkpt lat="44.7163317" lon="10.7748317"><ele>35.0</ele><time>2026-04-19T15:35:03.985Z</time></trkpt><trkpt lat="44.7164967" lon="10.7745867"><ele>35.0</ele><time>2026-04-19T15:35:04.986Z</time></trkpt><trkpt lat="44.7166533" lon="10.77435"><ele>35.0</ele><time>2026-04-19T15:35:05.986Z</time></trkpt><trkpt lat="44.7168067" lon="10.77413"><ele>35.0</ele><time>2026-04-19T15:35:06.986Z</time></trkpt><trkpt lat="44.7169567" lon="10.77391"><ele>35.0</ele><time>2026-04-19T15:35:07.986Z</time></trkpt><trkpt lat="44.7170983" lon="10.7736983"><ele>35.0</ele><time>2026-04-19T15:35:08.986Z</time></trkpt><trkpt lat="44.7172383" lon="10.7734883"><ele>35.0</ele><time>2026-04-19T15:35:09.986Z</time></trkpt><trkpt lat="44.7173767" lon="10.7732733"><ele>35.0</ele><time>2026-04-19T15:35:10.986Z</time></trkpt><trkpt lat="44.717515" lon="10.77306"><ele>35.0</ele><time>2026-04-19T15:35:11.986Z</time></trkpt><trkpt lat="44.7176583" lon="10.7728433"><ele>35.0</ele><time>2026-04-19T15:35:12.986Z</time></trkpt><trkpt lat="44.7178067" lon="10.7726267"><ele>35.0</ele><time>2026-04-19T15:35:13.986Z</time></trkpt><trkpt lat="44.7179567" lon="10.7724083"><ele>34.5</ele><time>2026-04-19T15:35:14.986Z</time></trkpt><trkpt lat="44.7181133" lon="10.77219"><ele>34.0</ele><time>2026-04-19T15:35:15.986Z</time></trkpt><trkpt lat="44.71828" lon="10.7719667"><ele>34.0</ele><time>2026-04-19T15:35:16.986Z</time></trkpt><trkpt lat="44.7184517" lon="10.771735"><ele>34.0</ele><time>2026-04-19T15:35:17.986Z</time></trkpt><trkpt lat="44.71863" lon="10.7715067"><ele>34.0</ele><time>2026-04-19T15:35:18.986Z</time></trkpt><trkpt lat="44.7188167" lon="10.7712833"><ele>34.0</ele><time>2026-04-19T15:35:19.986Z</time></trkpt><trkpt lat="44.71902" lon="10.771075"><ele>34.5</ele><time>2026-04-19T15:35:20.986Z</time></trkpt><trkpt lat="44.7192417" lon="10.770895"><ele>35.0</ele><time>2026-04-19T15:35:21.986Z</time></trkpt><trkpt lat="44.7194783" lon="10.7707117"><ele>35.0</ele><time>2026-04-19T15:35:22.986Z</time></trkpt><trkpt lat="44.719705" lon="10.7705333"><ele>35.0</ele><time>2026-04-19T15:35:23.986Z</time></trkpt><trkpt lat="44.7199217" lon="10.77037"><ele>35.0</ele><time>2026-04-19T15:35:24.986Z</time></trkpt><trkpt lat="44.72014" lon="10.7702033"><ele>35.0</ele><time>2026-04-19T15:35:25.986Z</time></trkpt><trkpt lat="44.72035" lon="10.77004"><ele>35.0</ele><time>2026-04-19T15:35:26.987Z</time></trkpt><trkpt lat="44.7205617" lon="10.7698767"><ele>35.0</ele><time>2026-04-19T15:35:27.986Z</time></trkpt><trkpt lat="44.72077" lon="10.769715"><ele>35.0</ele><time>2026-04-19T15:35:28.986Z</time></trkpt><trkpt lat="44.7209817" lon="10.7695517"><ele>35.0</ele><time>2026-04-19T15:35:29.986Z</time></trkpt><trkpt lat="44.721195" lon="10.7693883"><ele>34.5</ele><time>2026-04-19T15:35:30.985Z</time></trkpt><trkpt lat="44.7214133" lon="10.7692217"><ele>34.0</ele><time>2026-04-19T15:35:31.985Z</time></trkpt><trkpt lat="44.7216317" lon="10.7690533"><ele>34.0</ele><time>2026-04-19T15:35:32.985Z</time></trkpt><trkpt lat="44.7218483" lon="10.7688817"><ele>34.0</ele><time>2026-04-19T15:35:33.985Z</time></trkpt><trkpt lat="44.7220483" lon="10.7687283"><ele>34.0</ele><time>2026-04-19T15:35:34.985Z</time></trkpt><trkpt lat="44.7222517" lon="10.7685683"><ele>34.0</ele><time>2026-04-19T15:35:35.985Z</time></trkpt><trkpt lat="44.7224533" lon="10.76841"><ele>34.0</ele><time>2026-04-19T15:35:36.985Z</time></trkpt><trkpt lat="44.7226467" lon="10.7682517"><ele>34.0</ele><time>2026-04-19T15:35:37.985Z</time></trkpt><trkpt lat="44.72284" lon="10.7680717"><ele>34.5</ele><time>2026-04-19T15:35:38.985Z</time></trkpt><trkpt lat="44.7230267" lon="10.7678683"><ele>35.0</ele><time>2026-04-19T15:35:39.985Z</time></trkpt><trkpt lat="44.7232" lon="10.7676517"><ele>35.0</ele><time>2026-04-19T15:35:40.985Z</time></trkpt><trkpt lat="44.7233483" lon="10.7674267"><ele>35.0</ele><time>2026-04-19T15:35:41.985Z</time></trkpt><trkpt lat="44.723475" lon="10.7671967"><ele>35.0</ele><time>2026-04-19T15:35:42.985Z</time></trkpt><trkpt lat="44.7235867" lon="10.7669717"><ele>35.33333333333333</ele><time>2026-04-19T15:35:43.985Z</time></trkpt><trkpt lat="44.72368" lon="10.7667467"><ele>35.666666666666664</ele><time>2026-04-19T15:35:44.985Z</time></trkpt><trkpt lat="44.7237617" lon="10.7665283"><ele>36.0</ele><time>2026-04-19T15:35:45.985Z</time></trkpt><trkpt lat="44.72383" lon="10.7663267"><ele>36.0</ele><time>2026-04-19T15:35:46.985Z</time></trkpt><trkpt lat="44.723885" lon="10.7661333"><ele>36.0</ele><time>2026-04-19T15:35:47.985Z</time></trkpt><trkpt lat="44.7239317" lon="10.765955"><ele>36.0</ele><time>2026-04-19T15:35:48.985Z</time></trkpt><trkpt lat="44.7239733" lon="10.765795"><ele>36.0</ele><time>2026-04-19T15:35:49.985Z</time></trkpt><trkpt lat="44.724015" lon="10.7656583"><ele>35.8</ele><time>2026-04-19T15:35:50.985Z</time></trkpt><trkpt lat="44.72405" lon="10.7655583"><ele>35.6</ele><time>2026-04-19T15:35:51.985Z</time></trkpt><trkpt lat="44.72411" lon="10.765445"><ele>35.4</ele><time>2026-04-19T15:35:53.985Z</time></trkpt><trkpt lat="44.7242517" lon="10.7653183"><ele>35.2</ele><time>2026-04-19T15:36:47.985Z</time></trkpt><trkpt lat="44.724315" lon="10.7652683"><ele>35.0</ele><time>2026-04-19T15:36:48.985Z</time></trkpt><trkpt lat="44.7243883" lon="10.765195"><ele>35.2</ele><time>2026-04-19T15:36:49.985Z</time></trkpt><trkpt lat="44.7244467" lon="10.7650833"><ele>35.4</ele><time>2026-04-19T15:36:50.985Z</time></trkpt><trkpt lat="44.7245033" lon="10.7649483"><ele>35.6</ele><time>2026-04-19T15:36:51.985Z</time></trkpt><trkpt lat="44.7245617" lon="10.76482"><ele>35.8</ele><time>2026-04-19T15:36:52.985Z</time></trkpt><trkpt lat="44.7246383" lon="10.764705"><ele>36.0</ele><time>2026-04-19T15:36:53.985Z</time></trkpt><trkpt lat="44.7247167" lon="10.7645967"><ele>36.0</ele><time>2026-04-19T15:36:54.985Z</time></trkpt><trkpt lat="44.7248117" lon="10.7645017"><ele>36.0</ele><time>2026-04-19T15:36:55.985Z</time></trkpt><trkpt lat="44.7249233" lon="10.764415"><ele>36.0</ele><time>2026-04-19T15:36:56.985Z</time></trkpt><trkpt lat="44.725045" lon="10.7643467"><ele>36.0</ele><time>2026-04-19T15:36:57.986Z</time></trkpt><trkpt lat="44.7251733" lon="10.764285"><ele>35.333333333333336</ele><time>2026-04-19T15:36:58.985Z</time></trkpt><trkpt lat="44.7253133" lon="10.7642333"><ele>34.66666666666667</ele><time>2026-04-19T15:36:59.985Z</time></trkpt><trkpt lat="44.725465" lon="10.764195"><ele>34.0</ele><time>2026-04-19T15:37:00.985Z</time></trkpt><trkpt lat="44.7256217" lon="10.76417"><ele>34.0</ele><time>2026-04-19T15:37:01.985Z</time></trkpt><trkpt lat="44.7257817" lon="10.7641633"><ele>34.0</ele><time>2026-04-19T15:37:02.985Z</time></trkpt><trkpt lat="44.7259533" lon="10.76419"><ele>34.0</ele><time>2026-04-19T15:37:03.985Z</time></trkpt><trkpt lat="44.726125" lon="10.7642417"><ele>34.333333333333336</ele><time>2026-04-19T15:37:04.985Z</time></trkpt><trkpt lat="44.7262967" lon="10.7643167"><ele>34.666666666666664</ele><time>2026-04-19T15:37:05.985Z</time></trkpt><trkpt lat="44.72647" lon="10.7644117"><ele>35.0</ele><time>2026-04-19T15:37:06.985Z</time></trkpt><trkpt lat="44.7266483" lon="10.7645333"><ele>35.0</ele><time>2026-04-19T15:37:07.985Z</time></trkpt><trkpt lat="44.7268317" lon="10.7646633"><ele>35.0</ele><time>2026-04-19T15:37:08.985Z</time></trkpt><trkpt lat="44.7270167" lon="10.7647967"><ele>35.0</ele><time>2026-04-19T15:37:09.985Z</time></trkpt><trkpt lat="44.7272083" lon="10.76494"><ele>35.0</ele><time>2026-04-19T15:37:10.985Z</time></trkpt><trkpt lat="44.7274017" lon="10.7650833"><ele>35.0</ele><time>2026-04-19T15:37:11.985Z</time></trkpt><trkpt lat="44.7276" lon="10.7652117"><ele>35.0</ele><time>2026-04-19T15:37:12.985Z</time></trkpt><trkpt lat="44.7277933" lon="10.76534"><ele>34.666666666666664</ele><time>2026-04-19T15:37:13.985Z</time></trkpt><trkpt lat="44.727985" lon="10.7654667"><ele>34.333333333333336</ele><time>2026-04-19T15:37:14.985Z</time></trkpt><trkpt lat="44.7281817" lon="10.76559"><ele>34.0</ele><time>2026-04-19T15:37:15.985Z</time></trkpt><trkpt lat="44.72838" lon="10.7657017"><ele>34.333333333333336</ele><time>2026-04-19T15:37:16.985Z</time></trkpt><trkpt lat="44.728585" lon="10.7658033"><ele>34.666666666666664</ele><time>2026-04-19T15:37:17.985Z</time></trkpt><trkpt lat="44.7287967" lon="10.76589"><ele>35.0</ele><time>2026-04-19T15:37:18.986Z</time></trkpt><trkpt lat="44.729015" lon="10.7659717"><ele>35.0</ele><time>2026-04-19T15:37:19.985Z</time></trkpt><trkpt lat="44.729245" lon="10.76604"><ele>35.0</ele><time>2026-04-19T15:37:20.985Z</time></trkpt><trkpt lat="44.7294917" lon="10.76609"><ele>34.5</ele><time>2026-04-19T15:37:21.985Z</time></trkpt><trkpt lat="44.7297417" lon="10.766125"><ele>34.0</ele><time>2026-04-19T15:37:22.986Z</time></trkpt><trkpt lat="44.729975" lon="10.766155"><ele>34.0</ele><time>2026-04-19T15:37:23.985Z</time></trkpt><trkpt lat="44.7302" lon="10.7661867"><ele>34.0</ele><time>2026-04-19T15:37:24.985Z</time></trkpt><trkpt lat="44.73043" lon="10.76621"><ele>34.0</ele><time>2026-04-19T15:37:25.985Z</time></trkpt><trkpt lat="44.7306667" lon="10.7662367"><ele>34.0</ele><time>2026-04-19T15:37:26.985Z</time></trkpt><trkpt lat="44.730905" lon="10.7662633"><ele>34.0</ele><time>2026-04-19T15:37:27.985Z</time></trkpt><trkpt lat="44.7311333" lon="10.7662933"><ele>34.0</ele><time>2026-04-19T15:37:28.985Z</time></trkpt><trkpt lat="44.7313467" lon="10.766315"><ele>34.0</ele><time>2026-04-19T15:37:29.985Z</time></trkpt><trkpt lat="44.7315483" lon="10.76634"><ele>34.0</ele><time>2026-04-19T15:37:30.985Z</time></trkpt><trkpt lat="44.7317383" lon="10.766365"><ele>34.0</ele><time>2026-04-19T15:37:31.985Z</time></trkpt><trkpt lat="44.7319283" lon="10.7663933"><ele>34.0</ele><time>2026-04-19T15:37:32.985Z</time></trkpt><trkpt lat="44.73211" lon="10.7664167"><ele>33.66666666666667</ele><time>2026-04-19T15:37:33.985Z</time></trkpt><trkpt lat="44.7322783" lon="10.7664367"><ele>33.333333333333336</ele><time>2026-04-19T15:37:34.985Z</time></trkpt><trkpt lat="44.7324417" lon="10.7664533"><ele>33.0</ele><time>2026-04-19T15:37:35.985Z</time></trkpt><trkpt lat="44.7326033" lon="10.766475"><ele>32.666666666666664</ele><time>2026-04-19T15:37:36.985Z</time></trkpt><trkpt lat="44.7327683" lon="10.76649"><ele>32.33333333333333</ele><time>2026-04-19T15:37:37.985Z</time></trkpt><trkpt lat="44.7329417" lon="10.7665083"><ele>32.0</ele><time>2026-04-19T15:37:38.985Z</time></trkpt><trkpt lat="44.73311" lon="10.7665267"><ele>32.0</ele><time>2026-04-19T15:37:39.985Z</time></trkpt><trkpt lat="44.733265" lon="10.76655"><ele>32.0</ele><time>2026-04-19T15:37:40.985Z</time></trkpt><trkpt lat="44.7334117" lon="10.7665817"><ele>32.0</ele><time>2026-04-19T15:37:41.985Z</time></trkpt><trkpt lat="44.7335433" lon="10.7666317"><ele>32.0</ele><time>2026-04-19T15:37:42.985Z</time></trkpt><trkpt lat="44.73366" lon="10.7667283"><ele>32.5</ele><time>2026-04-19T15:37:43.985Z</time></trkpt><trkpt lat="44.7337633" lon="10.7668433"><ele>33.0</ele><time>2026-04-19T15:37:44.985Z</time></trkpt><trkpt lat="44.7338733" lon="10.7669217"><ele>33.5</ele><time>2026-04-19T15:37:45.985Z</time></trkpt><trkpt lat="44.7339917" lon="10.7669483"><ele>34.0</ele><time>2026-04-19T15:37:46.985Z</time></trkpt><trkpt lat="44.7341233" lon="10.766905"><ele>34.0</ele><time>2026-04-19T15:37:47.985Z</time></trkpt><trkpt lat="44.7342633" lon="10.7668217"><ele>34.0</ele><time>2026-04-19T15:37:48.985Z</time></trkpt><trkpt lat="44.7344317" lon="10.766745"><ele>34.0</ele><time>2026-04-19T15:37:49.985Z</time></trkpt><trkpt lat="44.7346267" lon="10.76672"><ele>34.0</ele><time>2026-04-19T15:37:50.985Z</time></trkpt><trkpt lat="44.7348433" lon="10.7667567"><ele>34.0</ele><time>2026-04-19T15:37:51.986Z</time></trkpt><trkpt lat="44.73507" lon="10.7668483"><ele>33.5</ele><time>2026-04-19T15:37:52.985Z</time></trkpt><trkpt lat="44.7353033" lon="10.7669817"><ele>33.0</ele><time>2026-04-19T15:37:53.985Z</time></trkpt><trkpt lat="44.7355317" lon="10.7671717"><ele>33.0</ele><time>2026-04-19T15:37:54.985Z</time></trkpt><trkpt lat="44.73575" lon="10.7674"><ele>33.0</ele><time>2026-04-19T15:37:55.985Z</time></trkpt><trkpt lat="44.735965" lon="10.7676517"><ele>33.0</ele><time>2026-04-19T15:37:56.986Z</time></trkpt><trkpt lat="44.73619" lon="10.7679183"><ele>33.0</ele><time>2026-04-19T15:37:57.985Z</time></trkpt><trkpt lat="44.736415" lon="10.7681917"><ele>33.0</ele><time>2026-04-19T15:37:58.985Z</time></trkpt><trkpt lat="44.7366467" lon="10.7684683"><ele>33.0</ele><time>2026-04-19T15:37:59.985Z</time></trkpt><trkpt lat="44.7368867" lon="10.7687417"><ele>32.5</ele><time>2026-04-19T15:38:00.985Z</time></trkpt><trkpt lat="44.7371217" lon="10.7690317"><ele>32.0</ele><time>2026-04-19T15:38:01.985Z</time></trkpt><trkpt lat="44.7373617" lon="10.7693017"><ele>32.0</ele><time>2026-04-19T15:38:02.985Z</time></trkpt><trkpt lat="44.7375833" lon="10.7695767"><ele>32.0</ele><time>2026-04-19T15:38:03.985Z</time></trkpt><trkpt lat="44.7378017" lon="10.76984"><ele>32.0</ele><time>2026-04-19T15:38:04.985Z</time></trkpt><trkpt lat="44.7380167" lon="10.7700967"><ele>32.0</ele><time>2026-04-19T15:38:05.985Z</time></trkpt><trkpt lat="44.7382267" lon="10.7703433"><ele>32.0</ele><time>2026-04-19T15:38:06.985Z</time></trkpt><trkpt lat="44.7384233" lon="10.7705867"><ele>32.0</ele><time>2026-04-19T15:38:07.985Z</time></trkpt><trkpt lat="44.7386033" lon="10.7708"><ele>32.0</ele><time>2026-04-19T15:38:08.985Z</time></trkpt><trkpt lat="44.7387733" lon="10.7710017"><ele>32.0</ele><time>2026-04-19T15:38:09.985Z</time></trkpt><trkpt lat="44.73894" lon="10.771175"><ele>32.0</ele><time>2026-04-19T15:38:10.985Z</time></trkpt><trkpt lat="44.7390983" lon="10.771355"><ele>31.666666666666664</ele><time>2026-04-19T15:38:11.985Z</time></trkpt><trkpt lat="44.73926" lon="10.7715383"><ele>31.333333333333336</ele><time>2026-04-19T15:38:12.985Z</time></trkpt><trkpt lat="44.73943" lon="10.77173"><ele>31.0</ele><time>2026-04-19T15:38:13.985Z</time></trkpt><trkpt lat="44.7396" lon="10.77192"><ele>33.0</ele><time>2026-04-19T15:38:14.985Z</time></trkpt><trkpt lat="44.7397767" lon="10.772115"><ele>35.0</ele><time>2026-04-19T15:38:15.985Z</time></trkpt><trkpt lat="44.7399583" lon="10.7723233"><ele>35.0</ele><time>2026-04-19T15:38:16.985Z</time></trkpt><trkpt lat="44.7401467" lon="10.772535"><ele>35.0</ele><time>2026-04-19T15:38:17.985Z</time></trkpt><trkpt lat="44.7403367" lon="10.7727533"><ele>34.0</ele><time>2026-04-19T15:38:18.985Z</time></trkpt><trkpt lat="44.7405333" lon="10.7729783"><ele>33.0</ele><time>2026-04-19T15:38:19.985Z</time></trkpt><trkpt lat="44.7407283" lon="10.7732183"><ele>33.0</ele><time>2026-04-19T15:38:20.985Z</time></trkpt><trkpt lat="44.7409183" lon="10.7734517"><ele>33.0</ele><time>2026-04-19T15:38:21.985Z</time></trkpt><trkpt lat="44.7410917" lon="10.7736733"><ele>31.666666666666664</ele><time>2026-04-19T15:38:22.985Z</time></trkpt><trkpt lat="44.741255" lon="10.7738817"><ele>30.333333333333332</ele><time>2026-04-19T15:38:23.985Z</time></trkpt><trkpt lat="44.7414117" lon="10.7740683"><ele>29.0</ele><time>2026-04-19T15:38:24.985Z</time></trkpt><trkpt lat="44.7415667" lon="10.77424"><ele>29.666666666666664</ele><time>2026-04-19T15:38:25.985Z</time></trkpt><trkpt lat="44.7416983" lon="10.7743983"><ele>30.333333333333336</ele><time>2026-04-19T15:38:26.985Z</time></trkpt><trkpt lat="44.741815" lon="10.7745517"><ele>31.0</ele><time>2026-04-19T15:38:27.985Z</time></trkpt><trkpt lat="44.7419" lon="10.774705"><ele>31.25</ele><time>2026-04-19T15:38:28.985Z</time></trkpt><trkpt lat="44.7419567" lon="10.7748717"><ele>31.5</ele><time>2026-04-19T15:38:29.985Z</time></trkpt><trkpt lat="44.74199" lon="10.77504"><ele>31.75</ele><time>2026-04-19T15:38:30.985Z</time></trkpt><trkpt lat="44.74203" lon="10.77519"><ele>32.0</ele><time>2026-04-19T15:38:31.985Z</time></trkpt><trkpt lat="44.7421017" lon="10.775305"><ele>32.0</ele><time>2026-04-19T15:38:32.985Z</time></trkpt><trkpt lat="44.7421983" lon="10.7753733"><ele>32.0</ele><time>2026-04-19T15:38:33.985Z</time></trkpt><trkpt lat="44.7422967" lon="10.7753967"><ele>32.0</ele><time>2026-04-19T15:38:34.985Z</time></trkpt><trkpt lat="44.7424033" lon="10.7753633"><ele>32.0</ele><time>2026-04-19T15:38:35.985Z</time></trkpt><trkpt lat="44.7425" lon="10.7752783"><ele>32.0</ele><time>2026-04-19T15:38:36.985Z</time></trkpt><trkpt lat="44.7425567" lon="10.77515"><ele>32.0</ele><time>2026-04-19T15:38:37.985Z</time></trkpt><trkpt lat="44.742585" lon="10.7750067"><ele>32.0</ele><time>2026-04-19T15:38:38.985Z</time></trkpt><trkpt lat="44.74261" lon="10.774845"><ele>32.0</ele><time>2026-04-19T15:38:39.985Z</time></trkpt><trkpt lat="44.7426533" lon="10.774685"><ele>32.0</ele><time>2026-04-19T15:38:40.985Z</time></trkpt><trkpt lat="44.7427317" lon="10.7745767"><ele>31.75</ele><time>2026-04-19T15:38:41.985Z</time></trkpt><trkpt lat="44.7428367" lon="10.774515"><ele>31.5</ele><time>2026-04-19T15:38:42.985Z</time></trkpt><trkpt lat="44.7429767" lon="10.77451"><ele>31.25</ele><time>2026-04-19T15:38:43.985Z</time></trkpt><trkpt lat="44.7431067" lon="10.7745017"><ele>31.0</ele><time>2026-04-19T15:38:44.985Z</time></trkpt><trkpt lat="44.7432283" lon="10.77445"><ele>31.0</ele><time>2026-04-19T15:38:45.985Z</time></trkpt><trkpt lat="44.7433383" lon="10.7743733"><ele>31.0</ele><time>2026-04-19T15:38:46.985Z</time></trkpt><trkpt lat="44.743445" lon="10.7742533"><ele>31.0</ele><time>2026-04-19T15:38:47.985Z</time></trkpt><trkpt lat="44.7435383" lon="10.7741"><ele>31.0</ele><time>2026-04-19T15:38:48.985Z</time></trkpt><trkpt lat="44.7436317" lon="10.77394"><ele>31.333333333333336</ele><time>2026-04-19T15:38:49.985Z</time></trkpt><trkpt lat="44.7437367" lon="10.7737767"><ele>31.666666666666664</ele><time>2026-04-19T15:38:50.985Z</time></trkpt><trkpt lat="44.743835" lon="10.7736033"><ele>32.0</ele><time>2026-04-19T15:38:51.985Z</time></trkpt><trkpt lat="44.7439283" lon="10.7734333"><ele>32.75</ele><time>2026-04-19T15:38:52.985Z</time></trkpt><trkpt lat="44.7440183" lon="10.7732733"><ele>33.5</ele><time>2026-04-19T15:38:53.985Z</time></trkpt><trkpt lat="44.7441167" lon="10.7731083"><ele>34.25</ele><time>2026-04-19T15:38:54.985Z</time></trkpt><trkpt lat="44.7442083" lon="10.7729433"><ele>35.0</ele><time>2026-04-19T15:38:55.985Z</time></trkpt><trkpt lat="44.7442867" lon="10.7727667"><ele>35.0</ele><time>2026-04-19T15:38:56.985Z</time></trkpt><trkpt lat="44.744365" lon="10.7725733"><ele>35.0</ele><time>2026-04-19T15:38:57.985Z</time></trkpt><trkpt lat="44.74444" lon="10.7723667"><ele>35.0</ele><time>2026-04-19T15:38:58.985Z</time></trkpt><trkpt lat="44.744505" lon="10.7721517"><ele>34.0</ele><time>2026-04-19T15:38:59.985Z</time></trkpt><trkpt lat="44.744565" lon="10.7719317"><ele>33.0</ele><time>2026-04-19T15:39:00.985Z</time></trkpt><trkpt lat="44.7446133" lon="10.771705"><ele>32.0</ele><time>2026-04-19T15:39:01.985Z</time></trkpt><trkpt lat="44.7446633" lon="10.77148"><ele>32.0</ele><time>2026-04-19T15:39:02.986Z</time></trkpt><trkpt lat="44.744705" lon="10.7712683"><ele>32.0</ele><time>2026-04-19T15:39:03.985Z</time></trkpt><trkpt lat="44.7447433" lon="10.7710667"><ele>32.0</ele><time>2026-04-19T15:39:04.985Z</time></trkpt><trkpt lat="44.7447767" lon="10.770865"><ele>32.25</ele><time>2026-04-19T15:39:05.985Z</time></trkpt><trkpt lat="44.7448083" lon="10.7706633"><ele>32.5</ele><time>2026-04-19T15:39:06.985Z</time></trkpt><trkpt lat="44.7448367" lon="10.77047"><ele>32.75</ele><time>2026-04-19T15:39:07.985Z</time></trkpt><trkpt lat="44.7448617" lon="10.7702833"><ele>33.0</ele><time>2026-04-19T15:39:08.985Z</time></trkpt><trkpt lat="44.7448783" lon="10.7700883"><ele>33.0</ele><time>2026-04-19T15:39:09.985Z</time></trkpt><trkpt lat="44.7448983" lon="10.769885"><ele>33.0</ele><time>2026-04-19T15:39:10.985Z</time></trkpt><trkpt lat="44.744915" lon="10.7696767"><ele>33.0</ele><time>2026-04-19T15:39:11.985Z</time></trkpt><trkpt lat="44.7449217" lon="10.7694517"><ele>33.0</ele><time>2026-04-19T15:39:12.985Z</time></trkpt><trkpt lat="44.74493" lon="10.76922"><ele>33.0</ele><time>2026-04-19T15:39:13.985Z</time></trkpt><trkpt lat="44.7449383" lon="10.7689783"><ele>33.0</ele><time>2026-04-19T15:39:14.985Z</time></trkpt><trkpt lat="44.7449567" lon="10.768755"><ele>33.0</ele><time>2026-04-19T15:39:15.985Z</time></trkpt><trkpt lat="44.7450083" lon="10.7685383"><ele>33.0</ele><time>2026-04-19T15:39:16.985Z</time></trkpt><trkpt lat="44.7450717" lon="10.76833"><ele>33.0</ele><time>2026-04-19T15:39:17.985Z</time></trkpt><trkpt lat="44.745135" lon="10.7681133"><ele>33.333333333333336</ele><time>2026-04-19T15:39:18.985Z</time></trkpt><trkpt lat="44.7452017" lon="10.7679067"><ele>33.66666666666667</ele><time>2026-04-19T15:39:19.985Z</time></trkpt><trkpt lat="44.7452783" lon="10.7677067"><ele>34.0</ele><time>2026-04-19T15:39:20.985Z</time></trkpt><trkpt lat="44.7453533" lon="10.76751"><ele>34.25</ele><time>2026-04-19T15:39:21.985Z</time></trkpt><trkpt lat="44.7454217" lon="10.7673217"><ele>34.5</ele><time>2026-04-19T15:39:22.985Z</time></trkpt><trkpt lat="44.7454883" lon="10.7671367"><ele>34.75</ele><time>2026-04-19T15:39:23.985Z</time></trkpt><trkpt lat="44.745555" lon="10.76696"><ele>35.0</ele><time>2026-04-19T15:39:24.985Z</time></trkpt><trkpt lat="44.7456167" lon="10.7667917"><ele>35.0</ele><time>2026-04-19T15:39:25.985Z</time></trkpt><trkpt lat="44.745685" lon="10.7666417"><ele>35.0</ele><time>2026-04-19T15:39:26.985Z</time></trkpt><trkpt lat="44.7457383" lon="10.7664983"><ele>35.0</ele><time>2026-04-19T15:39:27.985Z</time></trkpt><trkpt lat="44.745785" lon="10.766365"><ele>35.0</ele><time>2026-04-19T15:39:28.985Z</time></trkpt><trkpt lat="44.7458333" lon="10.76624"><ele>35.0</ele><time>2026-04-19T15:39:29.985Z</time></trkpt><trkpt lat="44.7458767" lon="10.76614"><ele>35.0</ele><time>2026-04-19T15:39:30.985Z</time></trkpt><trkpt lat="44.7459183" lon="10.7660517"><ele>35.0</ele><time>2026-04-19T15:39:31.985Z</time></trkpt><trkpt lat="44.7459783" lon="10.7659883"><ele>35.0</ele><time>2026-04-19T15:39:32.985Z</time></trkpt><trkpt lat="44.7460483" lon="10.7659483"><ele>35.0</ele><time>2026-04-19T15:39:33.985Z</time></trkpt><trkpt lat="44.7461217" lon="10.76593"><ele>35.0</ele><time>2026-04-19T15:39:34.985Z</time></trkpt><trkpt lat="44.7462083" lon="10.76594"><ele>35.0</ele><time>2026-04-19T15:39:35.985Z</time></trkpt><trkpt lat="44.74631" lon="10.765975"><ele>34.25</ele><time>2026-04-19T15:39:36.985Z</time></trkpt><trkpt lat="44.7464233" lon="10.7660433"><ele>33.5</ele><time>2026-04-19T15:39:37.985Z</time></trkpt><trkpt lat="44.7465367" lon="10.7661183"><ele>32.75</ele><time>2026-04-19T15:39:38.985Z</time></trkpt><trkpt lat="44.7466517" lon="10.7661667"><ele>32.0</ele><time>2026-04-19T15:39:39.985Z</time></trkpt><trkpt lat="44.7467717" lon="10.7662233"><ele>31.75</ele><time>2026-04-19T15:39:40.985Z</time></trkpt><trkpt lat="44.7469" lon="10.7662767"><ele>31.5</ele><time>2026-04-19T15:39:41.985Z</time></trkpt><trkpt lat="44.7470367" lon="10.76634"><ele>31.25</ele><time>2026-04-19T15:39:42.985Z</time></trkpt><trkpt lat="44.747165" lon="10.7663933"><ele>31.0</ele><time>2026-04-19T15:39:43.985Z</time></trkpt><trkpt lat="44.7472833" lon="10.766455"><ele>31.0</ele><time>2026-04-19T15:39:44.985Z</time></trkpt><trkpt lat="44.7473983" lon="10.7665283"><ele>31.0</ele><time>2026-04-19T15:39:45.985Z</time></trkpt><trkpt lat="44.7475167" lon="10.7666117"><ele>31.0</ele><time>2026-04-19T15:39:46.985Z</time></trkpt><trkpt lat="44.7476417" lon="10.7667133"><ele>31.0</ele><time>2026-04-19T15:39:47.985Z</time></trkpt><trkpt lat="44.7477717" lon="10.76683"><ele>31.666666666666668</ele><time>2026-04-19T15:39:48.985Z</time></trkpt><trkpt lat="44.7479067" lon="10.7669583"><ele>32.333333333333336</ele><time>2026-04-19T15:39:49.985Z</time></trkpt><trkpt lat="44.74804" lon="10.767095"><ele>33.0</ele><time>2026-04-19T15:39:50.985Z</time></trkpt><trkpt lat="44.7481833" lon="10.7672267"><ele>33.0</ele><time>2026-04-19T15:39:51.985Z</time></trkpt><trkpt lat="44.7483283" lon="10.767365"><ele>33.0</ele><time>2026-04-19T15:39:52.985Z</time></trkpt><trkpt lat="44.7484883" lon="10.7674917"><ele>33.0</ele><time>2026-04-19T15:39:53.985Z</time></trkpt><trkpt lat="44.7486583" lon="10.76763"><ele>33.333333333333336</ele><time>2026-04-19T15:39:54.985Z</time></trkpt><trkpt lat="44.748835" lon="10.7677717"><ele>33.66666666666667</ele><time>2026-04-19T15:39:55.985Z</time></trkpt><trkpt lat="44.74901" lon="10.7679167"><ele>34.0</ele><time>2026-04-19T15:39:56.985Z</time></trkpt><trkpt lat="44.7491883" lon="10.76806"><ele>34.0</ele><time>2026-04-19T15:39:57.985Z</time></trkpt><trkpt lat="44.749375" lon="10.768205"><ele>34.0</ele><time>2026-04-19T15:39:58.985Z</time></trkpt><trkpt lat="44.7495583" lon="10.7683283"><ele>34.0</ele><time>2026-04-19T15:39:59.985Z</time></trkpt><trkpt lat="44.7497433" lon="10.768455"><ele>33.333333333333336</ele><time>2026-04-19T15:40:00.985Z</time></trkpt><trkpt lat="44.7499417" lon="10.7685983"><ele>32.666666666666664</ele><time>2026-04-19T15:40:01.985Z</time></trkpt><trkpt lat="44.75014" lon="10.768735"><ele>32.0</ele><time>2026-04-19T15:40:02.985Z</time></trkpt><trkpt lat="44.7503367" lon="10.7688617"><ele>32.0</ele><time>2026-04-19T15:40:03.985Z</time></trkpt><trkpt lat="44.7505333" lon="10.768995"><ele>32.0</ele><time>2026-04-19T15:40:04.985Z</time></trkpt><trkpt lat="44.75073" lon="10.7691233"><ele>32.0</ele><time>2026-04-19T15:40:05.985Z</time></trkpt><trkpt lat="44.750925" lon="10.7692433"><ele>32.0</ele><time>2026-04-19T15:40:06.985Z</time></trkpt><trkpt lat="44.751125" lon="10.769365"><ele>32.0</ele><time>2026-04-19T15:40:07.985Z</time></trkpt><trkpt lat="44.7513217" lon="10.7694683"><ele>32.0</ele><time>2026-04-19T15:40:08.985Z</time></trkpt><trkpt lat="44.7515083" lon="10.769565"><ele>32.0</ele><time>2026-04-19T15:40:09.985Z</time></trkpt><trkpt lat="44.7516933" lon="10.769645"><ele>32.0</ele><time>2026-04-19T15:40:10.985Z</time></trkpt><trkpt lat="44.7518733" lon="10.7697133"><ele>32.0</ele><time>2026-04-19T15:40:11.985Z</time></trkpt><trkpt lat="44.7520733" lon="10.7697833"><ele>31.333333333333332</ele><time>2026-04-19T15:40:12.985Z</time></trkpt><trkpt lat="44.752265" lon="10.7698567"><ele>30.666666666666664</ele><time>2026-04-19T15:40:13.985Z</time></trkpt><trkpt lat="44.75247" lon="10.7699083"><ele>30.0</ele><time>2026-04-19T15:40:14.985Z</time></trkpt><trkpt lat="44.7526767" lon="10.769945"><ele>29.666666666666664</ele><time>2026-04-19T15:40:15.985Z</time></trkpt><trkpt lat="44.7528883" lon="10.76998"><ele>29.333333333333332</ele><time>2026-04-19T15:40:16.985Z</time></trkpt><trkpt lat="44.7530967" lon="10.77002"><ele>29.0</ele><time>2026-04-19T15:40:17.985Z</time></trkpt><trkpt lat="44.7532917" lon="10.7700517"><ele>29.0</ele><time>2026-04-19T15:40:18.985Z</time></trkpt><trkpt lat="44.7534683" lon="10.7700867"><ele>29.0</ele><time>2026-04-19T15:40:19.985Z</time></trkpt><trkpt lat="44.75364" lon="10.77012"><ele>29.0</ele><time>2026-04-19T15:40:20.985Z</time></trkpt><trkpt lat="44.7538017" lon="10.7701483"><ele>29.25</ele><time>2026-04-19T15:40:21.985Z</time></trkpt><trkpt lat="44.753955" lon="10.7701783"><ele>29.5</ele><time>2026-04-19T15:40:22.985Z</time></trkpt><trkpt lat="44.7541033" lon="10.7702083"><ele>29.75</ele><time>2026-04-19T15:40:23.985Z</time></trkpt><trkpt lat="44.7542383" lon="10.7702333"><ele>30.0</ele><time>2026-04-19T15:40:24.985Z</time></trkpt><trkpt lat="44.754365" lon="10.7702733"><ele>30.4</ele><time>2026-04-19T15:40:25.985Z</time></trkpt><trkpt lat="44.7544667" lon="10.7703583"><ele>30.8</ele><time>2026-04-19T15:40:26.985Z</time></trkpt><trkpt lat="44.75454" lon="10.77045"><ele>31.200000000000003</ele><time>2026-04-19T15:40:27.985Z</time></trkpt><trkpt lat="44.7546217" lon="10.7705317"><ele>31.6</ele><time>2026-04-19T15:40:28.985Z</time></trkpt><trkpt lat="44.7547117" lon="10.7705767"><ele>32.0</ele><time>2026-04-19T15:40:29.985Z</time></trkpt><trkpt lat="44.7548033" lon="10.7705583"><ele>32.0</ele><time>2026-04-19T15:40:30.985Z</time></trkpt><trkpt lat="44.7549017" lon="10.77049"><ele>32.0</ele><time>2026-04-19T15:40:31.985Z</time></trkpt><trkpt lat="44.7550033" lon="10.7704267"><ele>32.0</ele><time>2026-04-19T15:40:32.985Z</time></trkpt><trkpt lat="44.7551167" lon="10.7703983"><ele>32.0</ele><time>2026-04-19T15:40:33.985Z</time></trkpt><trkpt lat="44.7552517" lon="10.7704117"><ele>32.0</ele><time>2026-04-19T15:40:34.985Z</time></trkpt><trkpt lat="44.7554017" lon="10.770445"><ele>32.0</ele><time>2026-04-19T15:40:35.985Z</time></trkpt><trkpt lat="44.75555" lon="10.7704717"><ele>32.0</ele><time>2026-04-19T15:40:36.985Z</time></trkpt><trkpt lat="44.7557017" lon="10.7704917"><ele>32.0</ele><time>2026-04-19T15:40:37.985Z</time></trkpt><trkpt lat="44.7558467" lon="10.77052"><ele>32.0</ele><time>2026-04-19T15:40:38.985Z</time></trkpt><trkpt lat="44.7559883" lon="10.7705517"><ele>32.0</ele><time>2026-04-19T15:40:39.985Z</time></trkpt><trkpt lat="44.7561367" lon="10.7705767"><ele>32.0</ele><time>2026-04-19T15:40:40.985Z</time></trkpt><trkpt lat="44.756295" lon="10.7705967"><ele>31.666666666666664</ele><time>2026-04-19T15:40:41.985Z</time></trkpt><trkpt lat="44.7564533" lon="10.770625"><ele>31.333333333333336</ele><time>2026-04-19T15:40:42.985Z</time></trkpt><trkpt lat="44.75662" lon="10.7706467"><ele>31.0</ele><time>2026-04-19T15:40:43.985Z</time></trkpt><trkpt lat="44.75678" lon="10.77067"><ele>31.0</ele><time>2026-04-19T15:40:44.985Z</time></trkpt><trkpt lat="44.756935" lon="10.7707033"><ele>31.0</ele><time>2026-04-19T15:40:45.985Z</time></trkpt><trkpt lat="44.7570817" lon="10.77073"><ele>31.0</ele><time>2026-04-19T15:40:46.985Z</time></trkpt><trkpt lat="44.7572283" lon="10.77075"><ele>31.0</ele><time>2026-04-19T15:40:47.985Z</time></trkpt><trkpt lat="44.7573767" lon="10.770765"><ele>31.0</ele><time>2026-04-19T15:40:48.985Z</time></trkpt><trkpt lat="44.7575333" lon="10.770795"><ele>31.0</ele><time>2026-04-19T15:40:49.985Z</time></trkpt><trkpt lat="44.7576833" lon="10.7708233"><ele>31.0</ele><time>2026-04-19T15:40:50.985Z</time></trkpt><trkpt lat="44.7578333" lon="10.7708467"><ele>31.0</ele><time>2026-04-19T15:40:51.985Z</time></trkpt><trkpt lat="44.7579683" lon="10.7708767"><ele>31.0</ele><time>2026-04-19T15:40:52.985Z</time></trkpt><trkpt lat="44.758095" lon="10.7708833"><ele>31.0</ele><time>2026-04-19T15:40:53.985Z</time></trkpt><trkpt lat="44.7582167" lon="10.77088"><ele>31.0</ele><time>2026-04-19T15:40:54.985Z</time></trkpt><trkpt lat="44.7583433" lon="10.7708633"><ele>31.0</ele><time>2026-04-19T15:40:55.985Z</time></trkpt><trkpt lat="44.7584783" lon="10.7708483"><ele>31.0</ele><time>2026-04-19T15:40:56.985Z</time></trkpt><trkpt lat="44.7586217" lon="10.7708433"><ele>31.0</ele><time>2026-04-19T15:40:57.985Z</time></trkpt><trkpt lat="44.75878" lon="10.770865"><ele>31.0</ele><time>2026-04-19T15:40:58.985Z</time></trkpt><trkpt lat="44.75895" lon="10.7709183"><ele>31.0</ele><time>2026-04-19T15:40:59.985Z</time></trkpt><trkpt lat="44.7591317" lon="10.7709833"><ele>31.0</ele><time>2026-04-19T15:41:00.985Z</time></trkpt><trkpt lat="44.7593183" lon="10.77105"><ele>30.666666666666668</ele><time>2026-04-19T15:41:01.985Z</time></trkpt><trkpt lat="44.7595133" lon="10.7711217"><ele>30.333333333333336</ele><time>2026-04-19T15:41:02.985Z</time></trkpt><trkpt lat="44.7596983" lon="10.7711933"><ele>30.0</ele><time>2026-04-19T15:41:03.985Z</time></trkpt><trkpt lat="44.7598817" lon="10.77125"><ele>30.0</ele><time>2026-04-19T15:41:04.985Z</time></trkpt><trkpt lat="44.7600667" lon="10.7713183"><ele>30.0</ele><time>2026-04-19T15:41:05.985Z</time></trkpt><trkpt lat="44.76025" lon="10.7713683"><ele>30.0</ele><time>2026-04-19T15:41:06.985Z</time></trkpt><trkpt lat="44.7604383" lon="10.771435"><ele>30.0</ele><time>2026-04-19T15:41:07.985Z</time></trkpt><trkpt lat="44.7606133" lon="10.7714983"><ele>30.0</ele><time>2026-04-19T15:41:08.985Z</time></trkpt><trkpt lat="44.7607783" lon="10.77156"><ele>30.0</ele><time>2026-04-19T15:41:09.985Z</time></trkpt><trkpt lat="44.7609367" lon="10.7716083"><ele>30.25</ele><time>2026-04-19T15:41:10.985Z</time></trkpt><trkpt lat="44.76108" lon="10.7716667"><ele>30.5</ele><time>2026-04-19T15:41:11.985Z</time></trkpt><trkpt lat="44.7612" lon="10.7717333"><ele>30.75</ele><time>2026-04-19T15:41:12.985Z</time></trkpt><trkpt lat="44.7613" lon="10.7718067"><ele>31.0</ele><time>2026-04-19T15:41:13.985Z</time></trkpt><trkpt lat="44.7613867" lon="10.7718867"><ele>31.0</ele><time>2026-04-19T15:41:14.985Z</time></trkpt><trkpt lat="44.7614767" lon="10.77192"><ele>31.0</ele><time>2026-04-19T15:41:15.985Z</time></trkpt><trkpt lat="44.76157" lon="10.7719183"><ele>31.0</ele><time>2026-04-19T15:41:16.985Z</time></trkpt><trkpt lat="44.7616683" lon="10.77189"><ele>31.0</ele><time>2026-04-19T15:41:17.985Z</time></trkpt><trkpt lat="44.7618" lon="10.771865"><ele>31.0</ele><time>2026-04-19T15:41:18.985Z</time></trkpt><trkpt lat="44.7619433" lon="10.7718633"><ele>31.0</ele><time>2026-04-19T15:41:19.985Z</time></trkpt><trkpt lat="44.7621" lon="10.77187"><ele>31.0</ele><time>2026-04-19T15:41:20.985Z</time></trkpt><trkpt lat="44.76226" lon="10.77188"><ele>31.0</ele><time>2026-04-19T15:41:21.985Z</time></trkpt><trkpt lat="44.7624167" lon="10.7719017"><ele>31.0</ele><time>2026-04-19T15:41:22.985Z</time></trkpt><trkpt lat="44.7625783" lon="10.7719217"><ele>31.0</ele><time>2026-04-19T15:41:23.986Z</time></trkpt><trkpt lat="44.7627417" lon="10.771945"><ele>31.0</ele><time>2026-04-19T15:41:24.985Z</time></trkpt><trkpt lat="44.7629067" lon="10.7719633"><ele>31.0</ele><time>2026-04-19T15:41:25.985Z</time></trkpt><trkpt lat="44.763055" lon="10.7719817"><ele>31.0</ele><time>2026-04-19T15:41:26.985Z</time></trkpt><trkpt lat="44.7631967" lon="10.7719983"><ele>31.0</ele><time>2026-04-19T15:41:27.985Z</time></trkpt><trkpt lat="44.76333" lon="10.7720133"><ele>31.0</ele><time>2026-04-19T15:41:28.985Z</time></trkpt><trkpt lat="44.7634617" lon="10.7720317"><ele>30.75</ele><time>2026-04-19T15:41:29.985Z</time></trkpt><trkpt lat="44.7635917" lon="10.7720433"><ele>30.5</ele><time>2026-04-19T15:41:30.985Z</time></trkpt><trkpt lat="44.7637233" lon="10.7720567"><ele>30.25</ele><time>2026-04-19T15:41:31.985Z</time></trkpt><trkpt lat="44.7638633" lon="10.7720717"><ele>30.0</ele><time>2026-04-19T15:41:32.985Z</time></trkpt><trkpt lat="44.7640033" lon="10.7720867"><ele>30.0</ele><time>2026-04-19T15:41:33.985Z</time></trkpt><trkpt lat="44.7641367" lon="10.77208"><ele>30.0</ele><time>2026-04-19T15:41:34.985Z</time></trkpt><trkpt lat="44.7642617" lon="10.7720933"><ele>30.0</ele><time>2026-04-19T15:41:35.985Z</time></trkpt><trkpt lat="44.764385" lon="10.772115"><ele>30.0</ele><time>2026-04-19T15:41:36.985Z</time></trkpt><trkpt lat="44.7645067" lon="10.7721283"><ele>30.0</ele><time>2026-04-19T15:41:37.985Z</time></trkpt><trkpt lat="44.764625" lon="10.7721483"><ele>30.0</ele><time>2026-04-19T15:41:38.985Z</time></trkpt><trkpt lat="44.7647467" lon="10.77216"><ele>30.0</ele><time>2026-04-19T15:41:39.985Z</time></trkpt><trkpt lat="44.764875" lon="10.7721667"><ele>30.0</ele><time>2026-04-19T15:41:40.985Z</time></trkpt><trkpt lat="44.7650033" lon="10.7721867"><ele>30.0</ele><time>2026-04-19T15:41:41.985Z</time></trkpt><trkpt lat="44.7651317" lon="10.772225"><ele>30.0</ele><time>2026-04-19T15:41:42.985Z</time></trkpt><trkpt lat="44.7652683" lon="10.772295"><ele>30.0</ele><time>2026-04-19T15:41:43.985Z</time></trkpt><trkpt lat="44.7653867" lon="10.772355"><ele>30.0</ele><time>2026-04-19T15:41:44.985Z</time></trkpt><trkpt lat="44.765515" lon="10.7724217"><ele>30.25</ele><time>2026-04-19T15:41:45.985Z</time></trkpt><trkpt lat="44.765645" lon="10.7725083"><ele>30.5</ele><time>2026-04-19T15:41:46.985Z</time></trkpt><trkpt lat="44.7657667" lon="10.77259"><ele>30.75</ele><time>2026-04-19T15:41:47.985Z</time></trkpt><trkpt lat="44.765875" lon="10.7726633"><ele>31.0</ele><time>2026-04-19T15:41:48.985Z</time></trkpt><trkpt lat="44.7659733" lon="10.77274"><ele>31.0</ele><time>2026-04-19T15:41:49.985Z</time></trkpt><trkpt lat="44.7660833" lon="10.772825"><ele>31.0</ele><time>2026-04-19T15:41:50.985Z</time></trkpt><trkpt lat="44.7662" lon="10.7729183"><ele>31.0</ele><time>2026-04-19T15:41:51.985Z</time></trkpt><trkpt lat="44.7663433" lon="10.773025"><ele>31.0</ele><time>2026-04-19T15:41:52.985Z</time></trkpt><trkpt lat="44.7665" lon="10.7731333"><ele>31.0</ele><time>2026-04-19T15:41:53.985Z</time></trkpt><trkpt lat="44.7666617" lon="10.7732533"><ele>31.0</ele><time>2026-04-19T15:41:54.985Z</time></trkpt><trkpt lat="44.766825" lon="10.773375"><ele>31.0</ele><time>2026-04-19T15:41:55.985Z</time></trkpt><trkpt lat="44.7669783" lon="10.7734833"><ele>31.0</ele><time>2026-04-19T15:41:56.985Z</time></trkpt><trkpt lat="44.7671217" lon="10.77359"><ele>31.0</ele><time>2026-04-19T15:41:57.985Z</time></trkpt><trkpt lat="44.76726" lon="10.773685"><ele>31.0</ele><time>2026-04-19T15:41:58.985Z</time></trkpt><trkpt lat="44.76739" lon="10.7737683"><ele>31.0</ele><time>2026-04-19T15:41:59.985Z</time></trkpt><trkpt lat="44.7675067" lon="10.7738133"><ele>31.0</ele><time>2026-04-19T15:42:00.985Z</time></trkpt><trkpt lat="44.7676167" lon="10.773835"><ele>31.0</ele><time>2026-04-19T15:42:01.985Z</time></trkpt><trkpt lat="44.767715" lon="10.7738367"><ele>31.0</ele><time>2026-04-19T15:42:02.985Z</time></trkpt><trkpt lat="44.767795" lon="10.7738133"><ele>31.0</ele><time>2026-04-19T15:42:03.985Z</time></trkpt><trkpt lat="44.76787" lon="10.7737983"><ele>31.6</ele><time>2026-04-19T15:42:04.985Z</time></trkpt><trkpt lat="44.7679367" lon="10.77377"><ele>32.2</ele><time>2026-04-19T15:42:05.985Z</time></trkpt><trkpt lat="44.7679833" lon="10.7736583"><ele>32.8</ele><time>2026-04-19T15:42:07.985Z</time></trkpt><trkpt lat="44.767975" lon="10.7734983"><ele>33.4</ele><time>2026-04-19T15:42:09.985Z</time></trkpt><trkpt lat="44.7679717" lon="10.7733467"><ele>34.0</ele><time>2026-04-19T15:42:11.985Z</time></trkpt><trkpt lat="44.767985" lon="10.7731983"><ele>34.16666666666667</ele><time>2026-04-19T15:42:13.985Z</time></trkpt><trkpt lat="44.7679983" lon="10.77311"><ele>34.333333333333336</ele><time>2026-04-19T15:42:14.985Z</time></trkpt><trkpt lat="44.768015" lon="10.7730133"><ele>34.5</ele><time>2026-04-19T15:42:15.985Z</time></trkpt><trkpt lat="44.7680333" lon="10.7729067"><ele>34.666666666666664</ele><time>2026-04-19T15:42:16.985Z</time></trkpt><trkpt lat="44.7680567" lon="10.7728033"><ele>34.83333333333333</ele><time>2026-04-19T15:42:17.985Z</time></trkpt><trkpt lat="44.7680883" lon="10.7726933"><ele>35.0</ele><time>2026-04-19T15:42:18.985Z</time></trkpt><trkpt lat="44.76812" lon="10.7725617"><ele>35.0</ele><time>2026-04-19T15:42:19.985Z</time></trkpt><trkpt lat="44.768145" lon="10.7724283"><ele>35.0</ele><time>2026-04-19T15:42:20.985Z</time></trkpt><trkpt lat="44.7681633" lon="10.7723"><ele>35.0</ele><time>2026-04-19T15:42:21.985Z</time></trkpt><trkpt lat="44.76818" lon="10.7721717"><ele>35.0</ele><time>2026-04-19T15:42:22.985Z</time></trkpt><trkpt lat="44.7681983" lon="10.77205"><ele>35.0</ele><time>2026-04-19T15:42:23.985Z</time></trkpt><trkpt lat="44.76822" lon="10.7719233"><ele>34.8</ele><time>2026-04-19T15:42:24.985Z</time></trkpt><trkpt lat="44.7682417" lon="10.7717783"><ele>34.6</ele><time>2026-04-19T15:42:25.985Z</time></trkpt><trkpt lat="44.7682667" lon="10.771635"><ele>34.4</ele><time>2026-04-19T15:42:26.985Z</time></trkpt><trkpt lat="44.768285" lon="10.7714933"><ele>34.2</ele><time>2026-04-19T15:42:27.986Z</time></trkpt><trkpt lat="44.7683117" lon="10.771345"><ele>34.0</ele><time>2026-04-19T15:42:28.985Z</time></trkpt><trkpt lat="44.768335" lon="10.7711967"><ele>34.0</ele><time>2026-04-19T15:42:29.985Z</time></trkpt><trkpt lat="44.768355" lon="10.7710417"><ele>34.0</ele><time>2026-04-19T15:42:30.985Z</time></trkpt><trkpt lat="44.7683767" lon="10.770885"><ele>34.0</ele><time>2026-04-19T15:42:31.985Z</time></trkpt><trkpt lat="44.7683983" lon="10.7707233"><ele>34.0</ele><time>2026-04-19T15:42:32.985Z</time></trkpt><trkpt lat="44.7684183" lon="10.7705567"><ele>34.25</ele><time>2026-04-19T15:42:33.985Z</time></trkpt><trkpt lat="44.768445" lon="10.770395"><ele>34.5</ele><time>2026-04-19T15:42:34.985Z</time></trkpt><trkpt lat="44.7684683" lon="10.7702283"><ele>34.75</ele><time>2026-04-19T15:42:35.985Z</time></trkpt><trkpt lat="44.7684967" lon="10.7700533"><ele>35.0</ele><time>2026-04-19T15:42:36.985Z</time></trkpt><trkpt lat="44.768525" lon="10.7698833"><ele>34.2</ele><time>2026-04-19T15:42:37.985Z</time></trkpt><trkpt lat="44.7685467" lon="10.7697233"><ele>33.4</ele><time>2026-04-19T15:42:38.985Z</time></trkpt><trkpt lat="44.76856" lon="10.7695683"><ele>32.6</ele><time>2026-04-19T15:42:39.985Z</time></trkpt><trkpt lat="44.7685767" lon="10.7694167"><ele>31.8</ele><time>2026-04-19T15:42:40.985Z</time></trkpt><trkpt lat="44.7685817" lon="10.7692733"><ele>31.0</ele><time>2026-04-19T15:42:41.985Z</time></trkpt><trkpt lat="44.7685967" lon="10.769135"><ele>31.0</ele><time>2026-04-19T15:42:42.985Z</time></trkpt><trkpt lat="44.7686067" lon="10.7690267"><ele>31.0</ele><time>2026-04-19T15:42:43.985Z</time></trkpt><trkpt lat="44.768665" lon="10.7688767"><ele>31.0</ele><time>2026-04-19T15:42:45.985Z</time></trkpt><trkpt lat="44.7687383" lon="10.7688367"><ele>31.0</ele><time>2026-04-19T15:42:47.985Z</time></trkpt><trkpt lat="44.768845" lon="10.7689233"><ele>31.0</ele><time>2026-04-19T15:42:49.985Z</time></trkpt><trkpt lat="44.7689083" lon="10.7689783"><ele>31.0</ele><time>2026-04-19T15:42:50.985Z</time></trkpt><trkpt lat="44.768975" lon="10.7690383"><ele>31.0</ele><time>2026-04-19T15:42:51.985Z</time></trkpt><trkpt lat="44.769035" lon="10.7690833"><ele>31.0</ele><time>2026-04-19T15:42:52.985Z</time></trkpt><trkpt lat="44.76914" lon="10.7691433"><ele>31.0</ele><time>2026-04-19T15:42:54.985Z</time></trkpt><trkpt lat="44.7692683" lon="10.7692033"><ele>31.0</ele><time>2026-04-19T15:42:56.985Z</time></trkpt><trkpt lat="44.7693283" lon="10.7692367"><ele>30.8</ele><time>2026-04-19T15:42:57.985Z</time></trkpt><trkpt lat="44.7694017" lon="10.7692817"><ele>30.6</ele><time>2026-04-19T15:42:58.985Z</time></trkpt><trkpt lat="44.7695183" lon="10.76935"><ele>30.4</ele><time>2026-04-19T15:43:00.985Z</time></trkpt><trkpt lat="44.7696217" lon="10.7694183"><ele>30.2</ele><time>2026-04-19T15:43:02.985Z</time></trkpt><trkpt lat="44.7697183" lon="10.76946"><ele>30.0</ele><time>2026-04-19T15:43:04.985Z</time></trkpt><trkpt lat="44.7698133" lon="10.7695133"><ele>30.0</ele><time>2026-04-19T15:43:06.985Z</time></trkpt><trkpt lat="44.7698767" lon="10.769555"><ele>30.0</ele><time>2026-04-19T15:43:08.985Z</time></trkpt><trkpt lat="44.7699467" lon="10.7696167"><ele>30.0</ele><time>2026-04-19T15:43:11.985Z</time></trkpt><trkpt lat="44.7699467" lon="10.7696167"><ele>30.0</ele><time>2026-04-19T15:43:11.985Z</time></trkpt><trkpt lat="44.7699467" lon="10.7696167"><ele>30.0</ele><time>2026-04-19T15:43:11.985Z</time></trkpt><trkpt lat="44.7699467" lon="10.7696167"><ele>30.0</ele><time>2026-04-19T15:43:11.985Z</time></trkpt></trkseg></trk></gpx>